﻿<?xml version="1.0" encoding="utf-8"?><gpx creator="Garmin Desktop App" version="1.1" xsi:schemaLocation="http://www.topografix.com/GPX/1/1 http://www.topografix.com/GPX/1/1/gpx.xsd http://www.garmin.com/xmlschemas/WaypointExtension/v1 http://www8.garmin.com/xmlschemas/WaypointExtensionv1.xsd http://www.garmin.com/xmlschemas/TrackPointExtension/v1 http://www.garmin.com/xmlschemas/TrackPointExtensionv1.xsd http://www.garmin.com/xmlschemas/GpxExtensions/v3 http://www8.garmin.com/xmlschemas/GpxExtensionsv3.xsd http://www.garmin.com/xmlschemas/ActivityExtension/v1 http://www8.garmin.com/xmlschemas/ActivityExtensionv1.xsd http://www.garmin.com/xmlschemas/AdventuresExtensions/v1 http://www8.garmin.com/xmlschemas/AdventuresExtensionv1.xsd http://www.garmin.com/xmlschemas/PressureExtension/v1 http://www.garmin.com/xmlschemas/PressureExtensionv1.xsd http://www.garmin.com/xmlschemas/TripExtensions/v1 http://www.garmin.com/xmlschemas/TripExtensionsv1.xsd http://www.garmin.com/xmlschemas/TripMetaDataExtensions/v1 http://www.garmin.com/xmlschemas/TripMetaDataExtensionsv1.xsd http://www.garmin.com/xmlschemas/ViaPointTransportationModeExtensions/v1 http://www.garmin.com/xmlschemas/ViaPointTransportationModeExtensionsv1.xsd http://www.garmin.com/xmlschemas/CreationTimeExtension/v1 http://www.garmin.com/xmlschemas/CreationTimeExtensionsv1.xsd http://www.garmin.com/xmlschemas/AccelerationExtension/v1 http://www.garmin.com/xmlschemas/AccelerationExtensionv1.xsd http://www.garmin.com/xmlschemas/PowerExtension/v1 http://www.garmin.com/xmlschemas/PowerExtensionv1.xsd http://www.garmin.com/xmlschemas/VideoExtension/v1 http://www.garmin.com/xmlschemas/VideoExtensionv1.xsd" xmlns="http://www.topografix.com/GPX/1/1" xmlns:xsi="http://www.w3.org/2001/XMLSchema-instance" xmlns:wptx1="http://www.garmin.com/xmlschemas/WaypointExtension/v1" xmlns:gpxtrx="http://www.garmin.com/xmlschemas/GpxExtensions/v3" xmlns:gpxtpx="http://www.garmin.com/xmlschemas/TrackPointExtension/v1" xmlns:gpxx="http://www.garmin.com/xmlschemas/GpxExtensions/v3" xmlns:trp="http://www.garmin.com/xmlschemas/TripExtensions/v1" xmlns:adv="http://www.garmin.com/xmlschemas/AdventuresExtensions/v1" xmlns:prs="http://www.garmin.com/xmlschemas/PressureExtension/v1" xmlns:tmd="http://www.garmin.com/xmlschemas/TripMetaDataExtensions/v1" xmlns:vptm="http://www.garmin.com/xmlschemas/ViaPointTransportationModeExtensions/v1" xmlns:ctx="http://www.garmin.com/xmlschemas/CreationTimeExtension/v1" xmlns:gpxacc="http://www.garmin.com/xmlschemas/AccelerationExtension/v1" xmlns:gpxpx="http://www.garmin.com/xmlschemas/PowerExtension/v1" xmlns:vidx1="http://www.garmin.com/xmlschemas/VideoExtension/v1">

  <metadata>
    <link href="http://www.garmin.com">
      <text>Garmin International</text>
    </link>
    <time>2021-01-09T14:07:16Z</time>
    <bounds maxlat="44.822018248960376" maxlon="9.214629912748933" minlat="44.369946336373687" minlon="9.097358034923673" />
  </metadata>

  <trk>
    <name>Via-del-sale-da-Varzi-a-Sori</name>
    <extensions>
      <gpxx:TrackExtension>
        <gpxx:DisplayColor>Yellow</gpxx:DisplayColor>
      </gpxx:TrackExtension>
      <gpxtrkx:TrackStatsExtension xmlns:gpxtrkx="http://www.garmin.com/xmlschemas/TrackStatsExtension/v1">
        <gpxtrkx:Distance>22155</gpxtrkx:Distance>
        <gpxtrkx:TotalElapsedTime>29097</gpxtrkx:TotalElapsedTime>
        <gpxtrkx:MovingTime>22946</gpxtrkx:MovingTime>
        <gpxtrkx:StoppedTime>6140</gpxtrkx:StoppedTime>
        <gpxtrkx:MovingSpeed>1</gpxtrkx:MovingSpeed>
        <gpxtrkx:MaxSpeed>2</gpxtrkx:MaxSpeed>
        <gpxtrkx:MaxElevation>1691</gpxtrkx:MaxElevation>
        <gpxtrkx:MinElevation>397</gpxtrkx:MinElevation>
        <gpxtrkx:Ascent>1588</gpxtrkx:Ascent>
        <gpxtrkx:Descent>505</gpxtrkx:Descent>
        <gpxtrkx:AvgAscentRate>0</gpxtrkx:AvgAscentRate>
        <gpxtrkx:MaxAscentRate>0</gpxtrkx:MaxAscentRate>
        <gpxtrkx:AvgDescentRate>0</gpxtrkx:AvgDescentRate>
        <gpxtrkx:MaxDescentRate>-0</gpxtrkx:MaxDescentRate>
      </gpxtrkx:TrackStatsExtension>
    </extensions>
    <trkseg>
      <trkpt lat="44.821686241775751" lon="9.198556775227189">
        <ele>402.24000000000001</ele>
        <time>2019-05-21T06:50:13Z</time>
      </trkpt>
      <trkpt lat="44.821686241775751" lon="9.198556104674935">
        <ele>402.24000000000001</ele>
        <time>2019-05-21T06:50:14Z</time>
      </trkpt>
      <trkpt lat="44.821688337251544" lon="9.198562558740377">
        <ele>402.74000000000001</ele>
        <time>2019-05-21T06:50:33Z</time>
      </trkpt>
      <trkpt lat="44.82170132920146" lon="9.198558032512665">
        <ele>402.42000000000002</ele>
        <time>2019-05-21T06:50:49Z</time>
      </trkpt>
      <trkpt lat="44.821714991703629" lon="9.198563480749726">
        <ele>402.41000000000003</ele>
        <time>2019-05-21T06:51:06Z</time>
      </trkpt>
      <trkpt lat="44.821723708882928" lon="9.198563313111663">
        <ele>402.41000000000003</ele>
        <time>2019-05-21T06:51:21Z</time>
      </trkpt>
      <trkpt lat="44.821705017238855" lon="9.198572197929025">
        <ele>402.19</ele>
        <time>2019-05-21T06:51:40Z</time>
      </trkpt>
      <trkpt lat="44.821723876520991" lon="9.19861008413136">
        <ele>402.38</ele>
        <time>2019-05-21T06:51:52Z</time>
      </trkpt>
      <trkpt lat="44.821741729974747" lon="9.19865895062685">
        <ele>402.41000000000003</ele>
        <time>2019-05-21T06:51:57Z</time>
      </trkpt>
      <trkpt lat="44.82172530144453" lon="9.198721311986446">
        <ele>402.89999999999998</ele>
        <time>2019-05-21T06:52:07Z</time>
      </trkpt>
      <trkpt lat="44.821732509881258" lon="9.198643695563078">
        <ele>403.00999999999999</ele>
        <time>2019-05-21T06:52:16Z</time>
      </trkpt>
      <trkpt lat="44.821724547073245" lon="9.198622573167086">
        <ele>402.91000000000003</ele>
        <time>2019-05-21T06:52:29Z</time>
      </trkpt>
      <trkpt lat="44.821700155735016" lon="9.198605474084616">
        <ele>402.92000000000002</ele>
        <time>2019-05-21T06:52:39Z</time>
      </trkpt>
      <trkpt lat="44.821694875136018" lon="9.19860078021884">
        <ele>402.69999999999999</ele>
        <time>2019-05-21T06:52:56Z</time>
      </trkpt>
      <trkpt lat="44.821700910106301" lon="9.198599522933364">
        <ele>402.64999999999998</ele>
        <time>2019-05-21T06:53:12Z</time>
      </trkpt>
      <trkpt lat="44.821716248989105" lon="9.198577059432864">
        <ele>402.30000000000001</ele>
        <time>2019-05-21T06:53:27Z</time>
      </trkpt>
      <trkpt lat="44.82173653319478" lon="9.198469016700983">
        <ele>402.27999999999997</ele>
        <time>2019-05-21T06:53:35Z</time>
      </trkpt>
      <trkpt lat="44.82174726203084" lon="9.198375726118684">
        <ele>402.22000000000003</ele>
        <time>2019-05-21T06:53:41Z</time>
      </trkpt>
      <trkpt lat="44.821771401911974" lon="9.198135500773788">
        <ele>402.00999999999999</ele>
        <time>2019-05-21T06:53:55Z</time>
      </trkpt>
      <trkpt lat="44.821805180981755" lon="9.197891922667623">
        <ele>401.63999999999999</ele>
        <time>2019-05-21T06:54:11Z</time>
      </trkpt>
      <trkpt lat="44.821811635047197" lon="9.197669047862291">
        <ele>401.26999999999998</ele>
        <time>2019-05-21T06:54:24Z</time>
      </trkpt>
      <trkpt lat="44.821843989193439" lon="9.197555473074317">
        <ele>401.25999999999999</ele>
        <time>2019-05-21T06:54:32Z</time>
      </trkpt>
      <trkpt lat="44.821870978921652" lon="9.197298148646951">
        <ele>401.25</ele>
        <time>2019-05-21T06:54:47Z</time>
      </trkpt>
      <trkpt lat="44.821896627545357" lon="9.197089355438948">
        <ele>401.26999999999998</ele>
        <time>2019-05-21T06:54:59Z</time>
      </trkpt>
      <trkpt lat="44.821875505149364" lon="9.19695071876049">
        <ele>401.31</ele>
        <time>2019-05-21T06:55:14Z</time>
      </trkpt>
      <trkpt lat="44.821882965043187" lon="9.196920963004232">
        <ele>401.45999999999998</ele>
        <time>2019-05-21T06:55:23Z</time>
      </trkpt>
      <trkpt lat="44.821914480999112" lon="9.196642599999905">
        <ele>401.60000000000002</ele>
        <time>2019-05-21T06:55:38Z</time>
      </trkpt>
      <trkpt lat="44.821928478777409" lon="9.196471106261015">
        <ele>401.97000000000003</ele>
        <time>2019-05-21T06:55:51Z</time>
      </trkpt>
      <trkpt lat="44.821943230926991" lon="9.196364488452673">
        <ele>401.81999999999999</ele>
        <time>2019-05-21T06:55:59Z</time>
      </trkpt>
      <trkpt lat="44.821962928399444" lon="9.196277903392911">
        <ele>401.74000000000001</ele>
        <time>2019-05-21T06:56:05Z</time>
      </trkpt>
      <trkpt lat="44.821999724954367" lon="9.196182517334819">
        <ele>402.25</ele>
        <time>2019-05-21T06:56:16Z</time>
      </trkpt>
      <trkpt lat="44.822018248960376" lon="9.19606726616621">
        <ele>402.23000000000002</ele>
        <time>2019-05-21T06:56:28Z</time>
      </trkpt>
      <trkpt lat="44.821992432698607" lon="9.196019070222974">
        <ele>402.19</ele>
        <time>2019-05-21T06:56:36Z</time>
      </trkpt>
      <trkpt lat="44.821776766330004" lon="9.195947991684079">
        <ele>402.14999999999998</ele>
        <time>2019-05-21T06:56:54Z</time>
      </trkpt>
      <trkpt lat="44.821571074426174" lon="9.195886552333832">
        <ele>401.72000000000003</ele>
        <time>2019-05-21T06:57:12Z</time>
      </trkpt>
      <trkpt lat="44.821571409702301" lon="9.195878840982914">
        <ele>401.88</ele>
        <time>2019-05-21T06:57:17Z</time>
      </trkpt>
      <trkpt lat="44.821535451337695" lon="9.195863837376237">
        <ele>401.83999999999997</ele>
        <time>2019-05-21T06:57:21Z</time>
      </trkpt>
      <trkpt lat="44.821335626766086" lon="9.195810444653034">
        <ele>402.06999999999999</ele>
        <time>2019-05-21T06:57:40Z</time>
      </trkpt>
      <trkpt lat="44.821305954828858" lon="9.195801056921482">
        <ele>401.82999999999998</ele>
        <time>2019-05-21T06:57:43Z</time>
      </trkpt>
      <trkpt lat="44.821086348965764" lon="9.19573400169611">
        <ele>401.50999999999999</ele>
        <time>2019-05-21T06:58:03Z</time>
      </trkpt>
      <trkpt lat="44.821087354794145" lon="9.195732744410634">
        <ele>401.73000000000002</ele>
        <time>2019-05-21T06:58:11Z</time>
      </trkpt>
      <trkpt lat="44.821008397266269" lon="9.195685973390937">
        <ele>401.67000000000002</ele>
        <time>2019-05-21T06:58:18Z</time>
      </trkpt>
      <trkpt lat="44.820895409211516" lon="9.195646578446031">
        <ele>401.33999999999997</ele>
        <time>2019-05-21T06:58:28Z</time>
      </trkpt>
      <trkpt lat="44.820876717567444" lon="9.195638950914145">
        <ele>401.05000000000001</ele>
        <time>2019-05-21T06:58:30Z</time>
      </trkpt>
      <trkpt lat="44.820822654291987" lon="9.195648254826665">
        <ele>400.58999999999997</ele>
        <time>2019-05-21T06:58:42Z</time>
      </trkpt>
      <trkpt lat="44.820841681212187" lon="9.195666192099452">
        <ele>400.19999999999999</ele>
        <time>2019-05-21T06:58:52Z</time>
      </trkpt>
      <trkpt lat="44.820944862440228" lon="9.195809019729495">
        <ele>397.25999999999999</ele>
        <time>2019-05-21T06:59:05Z</time>
      </trkpt>
      <trkpt lat="44.820950059220195" lon="9.195819832384586">
        <ele>397.11000000000001</ele>
        <time>2019-05-21T06:59:11Z</time>
      </trkpt>
      <trkpt lat="44.820949388667941" lon="9.19590650126338">
        <ele>396.88999999999999</ele>
        <time>2019-05-21T06:59:17Z</time>
      </trkpt>
      <trkpt lat="44.820906305685639" lon="9.196098865941167">
        <ele>397.02999999999997</ele>
        <time>2019-05-21T06:59:29Z</time>
      </trkpt>
      <trkpt lat="44.820849979296327" lon="9.196294164285064">
        <ele>397.47000000000003</ele>
        <time>2019-05-21T06:59:43Z</time>
      </trkpt>
      <trkpt lat="44.82080765068531" lon="9.196523241698742">
        <ele>397.75</ele>
        <time>2019-05-21T06:59:58Z</time>
      </trkpt>
      <trkpt lat="44.820780325680971" lon="9.19672105461359">
        <ele>397.79000000000002</ele>
        <time>2019-05-21T07:00:11Z</time>
      </trkpt>
      <trkpt lat="44.820776721462607" lon="9.196940576657653">
        <ele>397.13999999999999</ele>
        <time>2019-05-21T07:00:24Z</time>
      </trkpt>
      <trkpt lat="44.820750569924712" lon="9.197228997945786">
        <ele>397.49000000000001</ele>
        <time>2019-05-21T07:00:40Z</time>
      </trkpt>
      <trkpt lat="44.820709666237235" lon="9.197421362623572">
        <ele>397.72000000000003</ele>
        <time>2019-05-21T07:00:52Z</time>
      </trkpt>
      <trkpt lat="44.820698434486985" lon="9.197510043159127">
        <ele>398.07999999999998</ele>
        <time>2019-05-21T07:01:01Z</time>
      </trkpt>
      <trkpt lat="44.820687370374799" lon="9.197576679289341">
        <ele>398.02999999999997</ele>
        <time>2019-05-21T07:01:06Z</time>
      </trkpt>
      <trkpt lat="44.820674881339073" lon="9.197668125852943">
        <ele>398.11000000000001</ele>
        <time>2019-05-21T07:01:18Z</time>
      </trkpt>
      <trkpt lat="44.820671025663614" lon="9.197678938508034">
        <ele>398.05000000000001</ele>
        <time>2019-05-21T07:01:20Z</time>
      </trkpt>
      <trkpt lat="44.820634983479977" lon="9.197760326787829">
        <ele>398.05000000000001</ele>
        <time>2019-05-21T07:01:26Z</time>
      </trkpt>
      <trkpt lat="44.820583686232567" lon="9.198037600144744">
        <ele>398.26999999999998</ele>
        <time>2019-05-21T07:01:43Z</time>
      </trkpt>
      <trkpt lat="44.820511350408196" lon="9.198327027261257">
        <ele>398.32999999999998</ele>
        <time>2019-05-21T07:02:01Z</time>
      </trkpt>
      <trkpt lat="44.820448318496346" lon="9.198476476594806">
        <ele>398.61000000000001</ele>
        <time>2019-05-21T07:02:12Z</time>
      </trkpt>
      <trkpt lat="44.820427447557449" lon="9.198508998379111">
        <ele>399.33999999999997</ele>
        <time>2019-05-21T07:02:16Z</time>
      </trkpt>
      <trkpt lat="44.820328373461962" lon="9.198646210134029">
        <ele>398.69</ele>
        <time>2019-05-21T07:02:29Z</time>
      </trkpt>
      <trkpt lat="44.820256372913718" lon="9.198792055249214">
        <ele>399.01999999999998</ele>
        <time>2019-05-21T07:02:41Z</time>
      </trkpt>
      <trkpt lat="44.820162411779165" lon="9.198966398835182">
        <ele>399.07999999999998</ele>
        <time>2019-05-21T07:02:52Z</time>
      </trkpt>
      <trkpt lat="44.820024194195867" lon="9.199248198419809">
        <ele>399.19999999999999</ele>
        <time>2019-05-21T07:03:11Z</time>
      </trkpt>
      <trkpt lat="44.819930819794536" lon="9.199462775141001">
        <ele>399.69</ele>
        <time>2019-05-21T07:03:27Z</time>
      </trkpt>
      <trkpt lat="44.819912631064653" lon="9.199470151215792">
        <ele>399.94</ele>
        <time>2019-05-21T07:03:35Z</time>
      </trkpt>
      <trkpt lat="44.819912211969495" lon="9.199504517018795">
        <ele>399.68000000000001</ele>
        <time>2019-05-21T07:03:49Z</time>
      </trkpt>
      <trkpt lat="44.819896789267659" lon="9.19954726472497">
        <ele>399.67000000000002</ele>
        <time>2019-05-21T07:03:58Z</time>
      </trkpt>
      <trkpt lat="44.819886814802885" lon="9.199565285816789">
        <ele>399.81999999999999</ele>
        <time>2019-05-21T07:04:07Z</time>
      </trkpt>
      <trkpt lat="44.819909865036607" lon="9.199539804831147">
        <ele>399.54000000000002</ele>
        <time>2019-05-21T07:04:21Z</time>
      </trkpt>
      <trkpt lat="44.819903410971165" lon="9.199554054066539">
        <ele>399.31</ele>
        <time>2019-05-21T07:04:55Z</time>
      </trkpt>
      <trkpt lat="44.819807605817914" lon="9.199723368510604">
        <ele>399.75999999999999</ele>
        <time>2019-05-21T07:05:08Z</time>
      </trkpt>
      <trkpt lat="44.819693611934781" lon="9.199926881119609">
        <ele>399.87</ele>
        <time>2019-05-21T07:05:22Z</time>
      </trkpt>
      <trkpt lat="44.819552544504404" lon="9.200198706239462">
        <ele>400.13999999999999</ele>
        <time>2019-05-21T07:05:40Z</time>
      </trkpt>
      <trkpt lat="44.819428827613592" lon="9.200431890785694">
        <ele>400.60000000000002</ele>
        <time>2019-05-21T07:05:57Z</time>
      </trkpt>
      <trkpt lat="44.819341991096735" lon="9.200591901317239">
        <ele>401.05000000000001</ele>
        <time>2019-05-21T07:06:09Z</time>
      </trkpt>
      <trkpt lat="44.819213328883052" lon="9.200898092240095">
        <ele>401.68000000000001</ele>
        <time>2019-05-21T07:06:29Z</time>
      </trkpt>
      <trkpt lat="44.819194301962852" lon="9.200999932363629">
        <ele>401.79000000000002</ele>
        <time>2019-05-21T07:06:35Z</time>
      </trkpt>
      <trkpt lat="44.819191200658679" lon="9.201061874628067">
        <ele>401.37</ele>
        <time>2019-05-21T07:06:41Z</time>
      </trkpt>
      <trkpt lat="44.819098832085729" lon="9.201270248740912">
        <ele>402.55000000000001</ele>
        <time>2019-05-21T07:06:57Z</time>
      </trkpt>
      <trkpt lat="44.819097071886063" lon="9.201274858787656">
        <ele>402.33999999999997</ele>
        <time>2019-05-21T07:06:59Z</time>
      </trkpt>
      <trkpt lat="44.81908324174583" lon="9.201305285096169">
        <ele>402.27999999999997</ele>
        <time>2019-05-21T07:07:01Z</time>
      </trkpt>
      <trkpt lat="44.818937061354518" lon="9.201587503775954">
        <ele>402.48000000000002</ele>
        <time>2019-05-21T07:07:19Z</time>
      </trkpt>
      <trkpt lat="44.818763136863708" lon="9.201891347765923">
        <ele>402.81</ele>
        <time>2019-05-21T07:07:41Z</time>
      </trkpt>
      <trkpt lat="44.818624584004283" lon="9.202178595587611">
        <ele>402.49000000000001</ele>
        <time>2019-05-21T07:08:00Z</time>
      </trkpt>
      <trkpt lat="44.818506566807628" lon="9.202417898923159">
        <ele>402.70999999999998</ele>
        <time>2019-05-21T07:08:16Z</time>
      </trkpt>
      <trkpt lat="44.818367678672075" lon="9.202631050720811">
        <ele>402.23000000000002</ele>
        <time>2019-05-21T07:08:32Z</time>
      </trkpt>
      <trkpt lat="44.818241614848375" lon="9.202759880572557">
        <ele>402.25999999999999</ele>
        <time>2019-05-21T07:08:45Z</time>
      </trkpt>
      <trkpt lat="44.818052183836699" lon="9.202910587191582">
        <ele>402.58999999999997</ele>
        <time>2019-05-21T07:09:02Z</time>
      </trkpt>
      <trkpt lat="44.817896280437708" lon="9.203041093423963">
        <ele>402.99000000000001</ele>
        <time>2019-05-21T07:09:17Z</time>
      </trkpt>
      <trkpt lat="44.817744819447398" lon="9.203269835561514">
        <ele>403.31</ele>
        <time>2019-05-21T07:09:33Z</time>
      </trkpt>
      <trkpt lat="44.817611128091812" lon="9.20347586274147">
        <ele>403.14999999999998</ele>
        <time>2019-05-21T07:09:48Z</time>
      </trkpt>
      <trkpt lat="44.817411638796329" lon="9.203731091693044">
        <ele>403.47000000000003</ele>
        <time>2019-05-21T07:10:08Z</time>
      </trkpt>
      <trkpt lat="44.817227823659778" lon="9.203955223783851">
        <ele>403.49000000000001</ele>
        <time>2019-05-21T07:10:26Z</time>
      </trkpt>
      <trkpt lat="44.817092372104526" lon="9.204153791069984">
        <ele>403.87</ele>
        <time>2019-05-21T07:10:41Z</time>
      </trkpt>
      <trkpt lat="44.816980557516217" lon="9.204270886257291">
        <ele>404.55000000000001</ele>
        <time>2019-05-21T07:10:53Z</time>
      </trkpt>
      <trkpt lat="44.816846447065473" lon="9.204444056376815">
        <ele>404.69</ele>
        <time>2019-05-21T07:11:08Z</time>
      </trkpt>
      <trkpt lat="44.816739074885845" lon="9.204598870128393">
        <ele>405.17000000000002</ele>
        <time>2019-05-21T07:11:21Z</time>
      </trkpt>
      <trkpt lat="44.816645532846451" lon="9.204786792397499">
        <ele>405.76999999999998</ele>
        <time>2019-05-21T07:11:35Z</time>
      </trkpt>
      <trkpt lat="44.81656045652926" lon="9.204996339976788">
        <ele>406.25999999999999</ele>
        <time>2019-05-21T07:11:51Z</time>
      </trkpt>
      <trkpt lat="44.816438751295209" lon="9.205154255032539">
        <ele>406.75999999999999</ele>
        <time>2019-05-21T07:12:06Z</time>
      </trkpt>
      <trkpt lat="44.816323164850473" lon="9.205271769315004">
        <ele>408.05000000000001</ele>
        <time>2019-05-21T07:12:21Z</time>
      </trkpt>
      <trkpt lat="44.816192826256156" lon="9.205385260283947">
        <ele>408.17000000000002</ele>
        <time>2019-05-21T07:12:36Z</time>
      </trkpt>
      <trkpt lat="44.816060140728951" lon="9.205528255552054">
        <ele>407.86000000000001</ele>
        <time>2019-05-21T07:12:51Z</time>
      </trkpt>
      <trkpt lat="44.815946063026786" lon="9.205660354346037">
        <ele>408.86000000000001</ele>
        <time>2019-05-21T07:13:07Z</time>
      </trkpt>
      <trkpt lat="44.815857969224453" lon="9.205774515867233">
        <ele>410.98000000000002</ele>
        <time>2019-05-21T07:13:22Z</time>
      </trkpt>
      <trkpt lat="44.815845061093569" lon="9.205792872235179">
        <ele>411.27999999999997</ele>
        <time>2019-05-21T07:13:24Z</time>
      </trkpt>
      <trkpt lat="44.815824357792735" lon="9.205839559435844">
        <ele>411.56</ele>
        <time>2019-05-21T07:13:28Z</time>
      </trkpt>
      <trkpt lat="44.815743137151003" lon="9.206020860001445">
        <ele>411.13</ele>
        <time>2019-05-21T07:13:43Z</time>
      </trkpt>
      <trkpt lat="44.815709190443158" lon="9.206096045672894">
        <ele>411.48000000000002</ele>
        <time>2019-05-21T07:13:49Z</time>
      </trkpt>
      <trkpt lat="44.815637525171041" lon="9.20633090659976">
        <ele>411.11000000000001</ele>
        <time>2019-05-21T07:14:03Z</time>
      </trkpt>
      <trkpt lat="44.815552951768041" lon="9.20650633983314">
        <ele>411.44999999999999</ele>
        <time>2019-05-21T07:14:18Z</time>
      </trkpt>
      <trkpt lat="44.815480951219797" lon="9.206623854115605">
        <ele>411.12</ele>
        <time>2019-05-21T07:14:29Z</time>
      </trkpt>
      <trkpt lat="44.815399395301938" lon="9.206690657883883">
        <ele>411.81999999999999</ele>
        <time>2019-05-21T07:14:39Z</time>
      </trkpt>
      <trkpt lat="44.815279031172395" lon="9.206869611516595">
        <ele>411.97000000000003</ele>
        <time>2019-05-21T07:14:55Z</time>
      </trkpt>
      <trkpt lat="44.815196050330997" lon="9.206928871572018">
        <ele>412.56</ele>
        <time>2019-05-21T07:15:04Z</time>
      </trkpt>
      <trkpt lat="44.815148944035172" lon="9.206937588751316">
        <ele>412.26999999999998</ele>
        <time>2019-05-21T07:15:08Z</time>
      </trkpt>
      <trkpt lat="44.815032687038183" lon="9.206997938454151">
        <ele>412.44999999999999</ele>
        <time>2019-05-21T07:15:21Z</time>
      </trkpt>
      <trkpt lat="44.814897906035185" lon="9.207101622596383">
        <ele>413.13999999999999</ele>
        <time>2019-05-21T07:15:34Z</time>
      </trkpt>
      <trkpt lat="44.814787097275257" lon="9.207267919555306">
        <ele>413.63</ele>
        <time>2019-05-21T07:15:47Z</time>
      </trkpt>
      <trkpt lat="44.814615603536367" lon="9.207410495728254">
        <ele>413.98000000000002</ele>
        <time>2019-05-21T07:16:03Z</time>
      </trkpt>
      <trkpt lat="44.814471350982785" lon="9.207370430231094">
        <ele>414.10000000000002</ele>
        <time>2019-05-21T07:16:16Z</time>
      </trkpt>
      <trkpt lat="44.814327349886298" lon="9.207358611747623">
        <ele>414.74000000000001</ele>
        <time>2019-05-21T07:16:29Z</time>
      </trkpt>
      <trkpt lat="44.81420480646193" lon="9.207296669483185">
        <ele>415.26999999999998</ele>
        <time>2019-05-21T07:16:41Z</time>
      </trkpt>
      <trkpt lat="44.814169518649578" lon="9.207309661433101">
        <ele>415.24000000000001</ele>
        <time>2019-05-21T07:16:45Z</time>
      </trkpt>
      <trkpt lat="44.814078407362103" lon="9.207459362223744">
        <ele>415.72000000000003</ele>
        <time>2019-05-21T07:16:58Z</time>
      </trkpt>
      <trkpt lat="44.814006155356765" lon="9.20760034583509">
        <ele>416.67000000000002</ele>
        <time>2019-05-21T07:17:10Z</time>
      </trkpt>
      <trkpt lat="44.813983188942075" lon="9.2076326161623">
        <ele>416.75999999999999</ele>
        <time>2019-05-21T07:17:13Z</time>
      </trkpt>
      <trkpt lat="44.813846983015537" lon="9.207719536498189">
        <ele>417.50999999999999</ele>
        <time>2019-05-21T07:17:27Z</time>
      </trkpt>
      <trkpt lat="44.813786381855607" lon="9.207710064947605">
        <ele>418.08999999999997</ele>
        <time>2019-05-21T07:17:33Z</time>
      </trkpt>
      <trkpt lat="44.81372351758182" lon="9.207591125741601">
        <ele>419.33999999999997</ele>
        <time>2019-05-21T07:17:44Z</time>
      </trkpt>
      <trkpt lat="44.813632573932409" lon="9.207523316144943">
        <ele>419.24000000000001</ele>
        <time>2019-05-21T07:17:56Z</time>
      </trkpt>
      <trkpt lat="44.813562417402864" lon="9.207434467971325">
        <ele>419.79000000000002</ele>
        <time>2019-05-21T07:18:08Z</time>
      </trkpt>
      <trkpt lat="44.813474323600531" lon="9.207330532371998">
        <ele>419.64999999999998</ele>
        <time>2019-05-21T07:18:24Z</time>
      </trkpt>
      <trkpt lat="44.813402323052287" lon="9.20730471611023">
        <ele>420.06999999999999</ele>
        <time>2019-05-21T07:18:36Z</time>
      </trkpt>
      <trkpt lat="44.813389414921403" lon="9.207337321713567">
        <ele>420.11000000000001</ele>
        <time>2019-05-21T07:18:39Z</time>
      </trkpt>
      <trkpt lat="44.813314396888018" lon="9.20741175301373">
        <ele>420.98000000000002</ele>
        <time>2019-05-21T07:18:49Z</time>
      </trkpt>
      <trkpt lat="44.813231583684683" lon="9.207507558166981">
        <ele>422.69</ele>
        <time>2019-05-21T07:19:03Z</time>
      </trkpt>
      <trkpt lat="44.813155978918076" lon="9.207565980032086">
        <ele>424.69</ele>
        <time>2019-05-21T07:19:18Z</time>
      </trkpt>
      <trkpt lat="44.813091941177845" lon="9.207627754658461">
        <ele>427.24000000000001</ele>
        <time>2019-05-21T07:19:32Z</time>
      </trkpt>
      <trkpt lat="44.81304575689137" lon="9.207714423537254">
        <ele>429.25999999999999</ele>
        <time>2019-05-21T07:19:45Z</time>
      </trkpt>
      <trkpt lat="44.813033854588866" lon="9.207785418257117">
        <ele>430.39999999999998</ele>
        <time>2019-05-21T07:19:57Z</time>
      </trkpt>
      <trkpt lat="44.81304625980556" lon="9.207836044952273">
        <ele>430.47000000000003</ele>
        <time>2019-05-21T07:20:06Z</time>
      </trkpt>
      <trkpt lat="44.813035111874342" lon="9.207862783223391">
        <ele>431.70999999999998</ele>
        <time>2019-05-21T07:20:22Z</time>
      </trkpt>
      <trkpt lat="44.813063191249967" lon="9.207947440445423">
        <ele>433.02999999999997</ele>
        <time>2019-05-21T07:20:33Z</time>
      </trkpt>
      <trkpt lat="44.81305162422359" lon="9.208026230335236">
        <ele>434.60000000000002</ele>
        <time>2019-05-21T07:20:45Z</time>
      </trkpt>
      <trkpt lat="44.813047349452972" lon="9.208077779039741">
        <ele>435.76999999999998</ele>
        <time>2019-05-21T07:20:59Z</time>
      </trkpt>
      <trkpt lat="44.813042655587196" lon="9.208143409341574">
        <ele>437</ele>
        <time>2019-05-21T07:21:12Z</time>
      </trkpt>
      <trkpt lat="44.813032597303391" lon="9.208204429596663">
        <ele>438.19</ele>
        <time>2019-05-21T07:21:22Z</time>
      </trkpt>
      <trkpt lat="44.813018599525094" lon="9.208276178687811">
        <ele>439.75</ele>
        <time>2019-05-21T07:21:34Z</time>
      </trkpt>
      <trkpt lat="44.812976270914078" lon="9.208377180621028">
        <ele>441.32999999999998</ele>
        <time>2019-05-21T07:21:49Z</time>
      </trkpt>
      <trkpt lat="44.812944671139121" lon="9.208402326330543">
        <ele>442.48000000000002</ele>
        <time>2019-05-21T07:22:01Z</time>
      </trkpt>
      <trkpt lat="44.812908377498388" lon="9.208377515897155">
        <ele>444.20999999999998</ele>
        <time>2019-05-21T07:22:12Z</time>
      </trkpt>
      <trkpt lat="44.812870575115085" lon="9.208309203386307">
        <ele>445.36000000000001</ele>
        <time>2019-05-21T07:22:24Z</time>
      </trkpt>
      <trkpt lat="44.81279119849205" lon="9.208284476771951">
        <ele>447.23000000000002</ele>
        <time>2019-05-21T07:22:40Z</time>
      </trkpt>
      <trkpt lat="44.81272573582828" lon="9.208262348547578">
        <ele>448.67000000000002</ele>
        <time>2019-05-21T07:22:53Z</time>
      </trkpt>
      <trkpt lat="44.812648957595229" lon="9.208258576691151">
        <ele>450.77999999999997</ele>
        <time>2019-05-21T07:23:09Z</time>
      </trkpt>
      <trkpt lat="44.812577711418271" lon="9.20824633911252">
        <ele>452.55000000000001</ele>
        <time>2019-05-21T07:23:24Z</time>
      </trkpt>
      <trkpt lat="44.812505627050996" lon="9.208284560590982">
        <ele>454.87</ele>
        <time>2019-05-21T07:23:41Z</time>
      </trkpt>
      <trkpt lat="44.81242474168539" lon="9.208312053233385">
        <ele>456.51999999999998</ele>
        <time>2019-05-21T07:23:56Z</time>
      </trkpt>
      <trkpt lat="44.812348047271371" lon="9.208411043509841">
        <ele>458.36000000000001</ele>
        <time>2019-05-21T07:24:12Z</time>
      </trkpt>
      <trkpt lat="44.812267748638988" lon="9.208542555570602">
        <ele>459.72000000000003</ele>
        <time>2019-05-21T07:24:28Z</time>
      </trkpt>
      <trkpt lat="44.812161549925804" lon="9.208593098446727">
        <ele>461.36000000000001</ele>
        <time>2019-05-21T07:24:44Z</time>
      </trkpt>
      <trkpt lat="44.812051076442003" lon="9.208614472299814">
        <ele>462.72000000000003</ele>
        <time>2019-05-21T07:25:00Z</time>
      </trkpt>
      <trkpt lat="44.811910092830658" lon="9.208563258871436">
        <ele>464.66000000000003</ele>
        <time>2019-05-21T07:25:17Z</time>
      </trkpt>
      <trkpt lat="44.811825267970562" lon="9.20852922834456">
        <ele>466.02999999999997</ele>
        <time>2019-05-21T07:25:31Z</time>
      </trkpt>
      <trkpt lat="44.811750501394272" lon="9.208535514771938">
        <ele>467.60000000000002</ele>
        <time>2019-05-21T07:25:46Z</time>
      </trkpt>
      <trkpt lat="44.81167221441865" lon="9.208516152575612">
        <ele>469.70999999999998</ele>
        <time>2019-05-21T07:26:02Z</time>
      </trkpt>
      <trkpt lat="44.81160088442266" lon="9.208546997979283">
        <ele>471.20999999999998</ele>
        <time>2019-05-21T07:26:15Z</time>
      </trkpt>
      <trkpt lat="44.811535757035017" lon="9.20858052559197">
        <ele>472.70999999999998</ele>
        <time>2019-05-21T07:26:30Z</time>
      </trkpt>
      <trkpt lat="44.81147532351315" lon="9.208639031276107">
        <ele>474.23000000000002</ele>
        <time>2019-05-21T07:26:44Z</time>
      </trkpt>
      <trkpt lat="44.811399551108479" lon="9.208681024610996">
        <ele>476.10000000000002</ele>
        <time>2019-05-21T07:26:59Z</time>
      </trkpt>
      <trkpt lat="44.811334507539868" lon="9.208691166713834">
        <ele>477.81999999999999</ele>
        <time>2019-05-21T07:27:13Z</time>
      </trkpt>
      <trkpt lat="44.811253789812326" lon="9.208682617172599">
        <ele>479.17000000000002</ele>
        <time>2019-05-21T07:27:29Z</time>
      </trkpt>
      <trkpt lat="44.811182040721178" lon="9.208586225286126">
        <ele>479.87</ele>
        <time>2019-05-21T07:27:44Z</time>
      </trkpt>
      <trkpt lat="44.811094868928194" lon="9.208613047376275">
        <ele>480.76999999999998</ele>
        <time>2019-05-21T07:27:57Z</time>
      </trkpt>
      <trkpt lat="44.810971822589636" lon="9.208625704050064">
        <ele>482.68000000000001</ele>
        <time>2019-05-21T07:28:14Z</time>
      </trkpt>
      <trkpt lat="44.810912059620023" lon="9.208604833111167">
        <ele>483.24000000000001</ele>
        <time>2019-05-21T07:28:21Z</time>
      </trkpt>
      <trkpt lat="44.81079219840467" lon="9.208503160625696">
        <ele>484.89999999999998</ele>
        <time>2019-05-21T07:28:40Z</time>
      </trkpt>
      <trkpt lat="44.81069446541369" lon="9.208401823416352">
        <ele>486.26999999999998</ele>
        <time>2019-05-21T07:28:55Z</time>
      </trkpt>
      <trkpt lat="44.810588685795665" lon="9.208409450948238">
        <ele>487.94</ele>
        <time>2019-05-21T07:29:12Z</time>
      </trkpt>
      <trkpt lat="44.810519199818373" lon="9.208374079316855">
        <ele>489.05000000000001</ele>
        <time>2019-05-21T07:29:25Z</time>
      </trkpt>
      <trkpt lat="44.810418281704187" lon="9.208306185901165">
        <ele>492.00999999999999</ele>
        <time>2019-05-21T07:29:45Z</time>
      </trkpt>
      <trkpt lat="44.810347957536578" lon="9.208263605833054">
        <ele>493.56999999999999</ele>
        <time>2019-05-21T07:30:01Z</time>
      </trkpt>
      <trkpt lat="44.810237986966968" lon="9.208307862281799">
        <ele>495.69999999999999</ele>
        <time>2019-05-21T07:30:20Z</time>
      </trkpt>
      <trkpt lat="44.810138661414385" lon="9.208409786224365">
        <ele>497.52999999999997</ele>
        <time>2019-05-21T07:30:38Z</time>
      </trkpt>
      <trkpt lat="44.810035647824407" lon="9.208452198654413">
        <ele>499.06999999999999</ele>
        <time>2019-05-21T07:30:53Z</time>
      </trkpt>
      <trkpt lat="44.809920648112893" lon="9.208519170060754">
        <ele>501.43000000000001</ele>
        <time>2019-05-21T07:31:12Z</time>
      </trkpt>
      <trkpt lat="44.80983548797667" lon="9.208542890846729">
        <ele>503.13999999999999</ele>
        <time>2019-05-21T07:31:29Z</time>
      </trkpt>
      <trkpt lat="44.809807073324919" lon="9.208651939406991">
        <ele>504.81</ele>
        <time>2019-05-21T07:31:45Z</time>
      </trkpt>
      <trkpt lat="44.809726355597377" lon="9.208743385970593">
        <ele>506.25999999999999</ele>
        <time>2019-05-21T07:31:59Z</time>
      </trkpt>
      <trkpt lat="44.809625186026096" lon="9.208751767873764">
        <ele>508.07999999999998</ele>
        <time>2019-05-21T07:32:13Z</time>
      </trkpt>
      <trkpt lat="44.809536840766668" lon="9.208627715706825">
        <ele>509.70999999999998</ele>
        <time>2019-05-21T07:32:28Z</time>
      </trkpt>
      <trkpt lat="44.809433072805405" lon="9.208582872524858">
        <ele>511.69</ele>
        <time>2019-05-21T07:32:45Z</time>
      </trkpt>
      <trkpt lat="44.809377416968346" lon="9.20859569683671">
        <ele>513.59000000000003</ele>
        <time>2019-05-21T07:32:59Z</time>
      </trkpt>
      <trkpt lat="44.809286221861839" lon="9.208645820617676">
        <ele>515.95000000000005</ele>
        <time>2019-05-21T07:33:17Z</time>
      </trkpt>
      <trkpt lat="44.809197708964348" lon="9.208674822002649">
        <ele>518.57000000000005</ele>
        <time>2019-05-21T07:33:33Z</time>
      </trkpt>
      <trkpt lat="44.809107687324286" lon="9.208696447312832">
        <ele>520.32000000000005</ele>
        <time>2019-05-21T07:33:50Z</time>
      </trkpt>
      <trkpt lat="44.809008110314608" lon="9.208617657423019">
        <ele>522.02999999999997</ele>
        <time>2019-05-21T07:34:08Z</time>
      </trkpt>
      <trkpt lat="44.80889730155468" lon="9.208627548068762">
        <ele>523.34000000000003</ele>
        <time>2019-05-21T07:34:26Z</time>
      </trkpt>
      <trkpt lat="44.80884650722146" lon="9.20866752974689">
        <ele>526.08000000000004</ele>
        <time>2019-05-21T07:34:41Z</time>
      </trkpt>
      <trkpt lat="44.808742487803102" lon="9.20875545591116">
        <ele>527.37</ele>
        <time>2019-05-21T07:34:59Z</time>
      </trkpt>
      <trkpt lat="44.808604689314961" lon="9.208894679322839">
        <ele>529.05999999999995</ele>
        <time>2019-05-21T07:35:17Z</time>
      </trkpt>
      <trkpt lat="44.808443086221814" lon="9.208893924951553">
        <ele>530.84000000000003</ele>
        <time>2019-05-21T07:35:34Z</time>
      </trkpt>
      <trkpt lat="44.808362452313304" lon="9.208895266056061">
        <ele>532.09000000000003</ele>
        <time>2019-05-21T07:35:49Z</time>
      </trkpt>
      <trkpt lat="44.808268155902624" lon="9.208863498643041">
        <ele>533.75999999999999</ele>
        <time>2019-05-21T07:36:05Z</time>
      </trkpt>
      <trkpt lat="44.808200933039188" lon="9.208859894424677">
        <ele>535.25999999999999</ele>
        <time>2019-05-21T07:36:17Z</time>
      </trkpt>
      <trkpt lat="44.808111414313316" lon="9.208892667666078">
        <ele>537.32000000000005</ele>
        <time>2019-05-21T07:36:32Z</time>
      </trkpt>
      <trkpt lat="44.807991469278932" lon="9.208969278261066">
        <ele>538.78999999999996</ele>
        <time>2019-05-21T07:36:49Z</time>
      </trkpt>
      <trkpt lat="44.807887366041541" lon="9.209025017917156">
        <ele>539.91999999999996</ele>
        <time>2019-05-21T07:37:05Z</time>
      </trkpt>
      <trkpt lat="44.807816287502646" lon="9.209068855270743">
        <ele>541.20000000000005</ele>
        <time>2019-05-21T07:37:20Z</time>
      </trkpt>
      <trkpt lat="44.807676896452904" lon="9.20912048779428">
        <ele>542.91999999999996</ele>
        <time>2019-05-21T07:37:36Z</time>
      </trkpt>
      <trkpt lat="44.80758192948997" lon="9.209200283512473">
        <ele>544.08000000000004</ele>
        <time>2019-05-21T07:37:51Z</time>
      </trkpt>
      <trkpt lat="44.807443376630545" lon="9.209223920479417">
        <ele>545.28999999999996</ele>
        <time>2019-05-21T07:38:05Z</time>
      </trkpt>
      <trkpt lat="44.807361653074622" lon="9.209258370101452">
        <ele>546.54999999999995</ele>
        <time>2019-05-21T07:38:18Z</time>
      </trkpt>
      <trkpt lat="44.807261824607849" lon="9.209305727854371">
        <ele>547.65999999999997</ele>
        <time>2019-05-21T07:38:29Z</time>
      </trkpt>
      <trkpt lat="44.807179933413863" lon="9.209350068122149">
        <ele>548.92999999999995</ele>
        <time>2019-05-21T07:38:40Z</time>
      </trkpt>
      <trkpt lat="44.807077338919044" lon="9.209422152489424">
        <ele>550.71000000000004</ele>
        <time>2019-05-21T07:38:54Z</time>
      </trkpt>
      <trkpt lat="44.806995447725058" lon="9.209496080875397">
        <ele>552.66999999999996</ele>
        <time>2019-05-21T07:39:09Z</time>
      </trkpt>
      <trkpt lat="44.806932918727398" lon="9.209589120000601">
        <ele>554.89999999999998</ele>
        <time>2019-05-21T07:39:26Z</time>
      </trkpt>
      <trkpt lat="44.806872820481658" lon="9.209643099457026">
        <ele>556.24000000000001</ele>
        <time>2019-05-21T07:39:37Z</time>
      </trkpt>
      <trkpt lat="44.806765699759126" lon="9.209720883518457">
        <ele>558.38</ele>
        <time>2019-05-21T07:39:55Z</time>
      </trkpt>
      <trkpt lat="44.80668724514544" lon="9.209803445264697">
        <ele>560</ele>
        <time>2019-05-21T07:40:07Z</time>
      </trkpt>
      <trkpt lat="44.806596133857965" lon="9.209882654249668">
        <ele>561.36000000000001</ele>
        <time>2019-05-21T07:40:20Z</time>
      </trkpt>
      <trkpt lat="44.806514661759138" lon="9.209937304258347">
        <ele>561.86000000000001</ele>
        <time>2019-05-21T07:40:29Z</time>
      </trkpt>
      <trkpt lat="44.806376863270998" lon="9.210006538778544">
        <ele>563.70000000000005</ele>
        <time>2019-05-21T07:40:47Z</time>
      </trkpt>
      <trkpt lat="44.806283405050635" lon="9.210029421374202">
        <ele>565.55999999999995</ele>
        <time>2019-05-21T07:41:01Z</time>
      </trkpt>
      <trkpt lat="44.806194053962827" lon="9.210030846297741">
        <ele>567.33000000000004</ele>
        <time>2019-05-21T07:41:15Z</time>
      </trkpt>
      <trkpt lat="44.80608768761158" lon="9.210043167695403">
        <ele>569.26999999999998</ele>
        <time>2019-05-21T07:41:29Z</time>
      </trkpt>
      <trkpt lat="44.805963383987546" lon="9.210016094148159">
        <ele>571.37</ele>
        <time>2019-05-21T07:41:46Z</time>
      </trkpt>
      <trkpt lat="44.805924408137798" lon="9.209883073344827">
        <ele>573.50999999999999</ele>
        <time>2019-05-21T07:42:02Z</time>
      </trkpt>
      <trkpt lat="44.805840505287051" lon="9.209774946793914">
        <ele>575.89999999999998</ele>
        <time>2019-05-21T07:42:19Z</time>
      </trkpt>
      <trkpt lat="44.805746795609593" lon="9.209806378930807">
        <ele>578.66999999999996</ele>
        <time>2019-05-21T07:42:36Z</time>
      </trkpt>
      <trkpt lat="44.805689882487059" lon="9.209838146343827">
        <ele>581.84000000000003</ele>
        <time>2019-05-21T07:42:48Z</time>
      </trkpt>
      <trkpt lat="44.805670352652669" lon="9.209848791360855">
        <ele>580.33000000000004</ele>
        <time>2019-05-21T07:42:51Z</time>
      </trkpt>
      <trkpt lat="44.805581169202924" lon="9.209913332015276">
        <ele>583.41999999999996</ele>
        <time>2019-05-21T07:43:04Z</time>
      </trkpt>
      <trkpt lat="44.805479664355516" lon="9.209958594292402">
        <ele>585.04999999999995</ele>
        <time>2019-05-21T07:43:17Z</time>
      </trkpt>
      <trkpt lat="44.805377991870046" lon="9.20998097397387">
        <ele>587.04999999999995</ele>
        <time>2019-05-21T07:43:29Z</time>
      </trkpt>
      <trkpt lat="44.805262237787247" lon="9.209986003115773">
        <ele>588.25</ele>
        <time>2019-05-21T07:43:41Z</time>
      </trkpt>
      <trkpt lat="44.805234745144844" lon="9.209986506029964">
        <ele>588.74000000000001</ele>
        <time>2019-05-21T07:43:44Z</time>
      </trkpt>
      <trkpt lat="44.805198283866048" lon="9.209985248744488">
        <ele>588.74000000000001</ele>
        <time>2019-05-21T07:43:47Z</time>
      </trkpt>
      <trkpt lat="44.805084206163883" lon="9.209910565987229">
        <ele>589.92999999999995</ele>
        <time>2019-05-21T07:44:00Z</time>
      </trkpt>
      <trkpt lat="44.805055456236005" lon="9.209895730018616">
        <ele>590.03999999999996</ele>
        <time>2019-05-21T07:44:03Z</time>
      </trkpt>
      <trkpt lat="44.804925536736846" lon="9.209807468578219">
        <ele>592.25999999999999</ele>
        <time>2019-05-21T07:44:18Z</time>
      </trkpt>
      <trkpt lat="44.804821349680424" lon="9.209812581539154">
        <ele>593.73000000000002</ele>
        <time>2019-05-21T07:44:31Z</time>
      </trkpt>
      <trkpt lat="44.804727053269744" lon="9.209814677014947">
        <ele>595.25999999999999</ele>
        <time>2019-05-21T07:44:43Z</time>
      </trkpt>
      <trkpt lat="44.804638121277094" lon="9.209844013676047">
        <ele>596.60000000000002</ele>
        <time>2019-05-21T07:44:54Z</time>
      </trkpt>
      <trkpt lat="44.804584728553891" lon="9.20985734090209">
        <ele>597.04999999999995</ele>
        <time>2019-05-21T07:45:00Z</time>
      </trkpt>
      <trkpt lat="44.804468639194965" lon="9.209872344508767">
        <ele>599.02999999999997</ele>
        <time>2019-05-21T07:45:13Z</time>
      </trkpt>
      <trkpt lat="44.804405020549893" lon="9.209891874343157">
        <ele>599.51999999999998</ele>
        <time>2019-05-21T07:45:23Z</time>
      </trkpt>
      <trkpt lat="44.804395632818341" lon="9.209891706705093">
        <ele>599.47000000000003</ele>
        <time>2019-05-21T07:45:24Z</time>
      </trkpt>
      <trkpt lat="44.804354729130864" lon="9.209889192134142">
        <ele>599.49000000000001</ele>
        <time>2019-05-21T07:45:28Z</time>
      </trkpt>
      <trkpt lat="44.804193209856749" lon="9.209808390587568">
        <ele>599.49000000000001</ele>
        <time>2019-05-21T07:45:44Z</time>
      </trkpt>
      <trkpt lat="44.804067062214017" lon="9.209692217409611">
        <ele>600.07000000000005</ele>
        <time>2019-05-21T07:45:58Z</time>
      </trkpt>
      <trkpt lat="44.803969664499164" lon="9.209702191874385">
        <ele>601.36000000000001</ele>
        <time>2019-05-21T07:46:10Z</time>
      </trkpt>
      <trkpt lat="44.803948123008013" lon="9.209711663424969">
        <ele>601.82000000000005</ele>
        <time>2019-05-21T07:46:13Z</time>
      </trkpt>
      <trkpt lat="44.803885845467448" lon="9.209768995642662">
        <ele>603.30999999999995</ele>
        <time>2019-05-21T07:46:23Z</time>
      </trkpt>
      <trkpt lat="44.803831614553928" lon="9.209812832996249">
        <ele>604.17999999999995</ele>
        <time>2019-05-21T07:46:31Z</time>
      </trkpt>
      <trkpt lat="44.803765732795" lon="9.209901178255677">
        <ele>605.19000000000005</ele>
        <time>2019-05-21T07:46:42Z</time>
      </trkpt>
      <trkpt lat="44.803687781095505" lon="9.209993965923786">
        <ele>606.64999999999998</ele>
        <time>2019-05-21T07:46:54Z</time>
      </trkpt>
      <trkpt lat="44.803598010912538" lon="9.210080467164516">
        <ele>608.69000000000005</ele>
        <time>2019-05-21T07:47:10Z</time>
      </trkpt>
      <trkpt lat="44.803492734208703" lon="9.210140565410256">
        <ele>611.61000000000001</ele>
        <time>2019-05-21T07:47:27Z</time>
      </trkpt>
      <trkpt lat="44.803409669548273" lon="9.21025020070374">
        <ele>614.09000000000003</ele>
        <time>2019-05-21T07:47:43Z</time>
      </trkpt>
      <trkpt lat="44.803310679271817" lon="9.210361931473017">
        <ele>616.30999999999995</ele>
        <time>2019-05-21T07:47:58Z</time>
      </trkpt>
      <trkpt lat="44.803224261850119" lon="9.210423035547137">
        <ele>617.82000000000005</ele>
        <time>2019-05-21T07:48:10Z</time>
      </trkpt>
      <trkpt lat="44.803113788366318" lon="9.210491683334112">
        <ele>620.5</ele>
        <time>2019-05-21T07:48:28Z</time>
      </trkpt>
      <trkpt lat="44.803036842495203" lon="9.210491012781858">
        <ele>622.20000000000005</ele>
        <time>2019-05-21T07:48:41Z</time>
      </trkpt>
      <trkpt lat="44.80297171510756" lon="9.210394872352481">
        <ele>624.40999999999997</ele>
        <time>2019-05-21T07:48:56Z</time>
      </trkpt>
      <trkpt lat="44.802950173616409" lon="9.21026679687202">
        <ele>626.44000000000005</ele>
        <time>2019-05-21T07:49:10Z</time>
      </trkpt>
      <trkpt lat="44.802917400375009" lon="9.210139391943812">
        <ele>628.59000000000003</ele>
        <time>2019-05-21T07:49:23Z</time>
      </trkpt>
      <trkpt lat="44.802882364019752" lon="9.210023637861013">
        <ele>630.07000000000005</ele>
        <time>2019-05-21T07:49:36Z</time>
      </trkpt>
      <trkpt lat="44.802847662940621" lon="9.209889778867364">
        <ele>632.86000000000001</ele>
        <time>2019-05-21T07:49:50Z</time>
      </trkpt>
      <trkpt lat="44.802806591615081" lon="9.209794057533145">
        <ele>635.21000000000004</ele>
        <time>2019-05-21T07:50:03Z</time>
      </trkpt>
      <trkpt lat="44.802792593836784" lon="9.20975617133081">
        <ele>636.57000000000005</ele>
        <time>2019-05-21T07:50:14Z</time>
      </trkpt>
      <trkpt lat="44.802793432027102" lon="9.209756758064032">
        <ele>636.52999999999997</ele>
        <time>2019-05-21T07:50:15Z</time>
      </trkpt>
      <trkpt lat="44.80279628187418" lon="9.209749717265368">
        <ele>635.59000000000003</ele>
        <time>2019-05-21T07:50:20Z</time>
      </trkpt>
      <trkpt lat="44.802774069830775" lon="9.20967604033649">
        <ele>637.95000000000005</ele>
        <time>2019-05-21T07:50:37Z</time>
      </trkpt>
      <trkpt lat="44.802749259397388" lon="9.209643770009279">
        <ele>638.75</ele>
        <time>2019-05-21T07:50:54Z</time>
      </trkpt>
      <trkpt lat="44.802726125344634" lon="9.209564309567213">
        <ele>640.03999999999996</ele>
        <time>2019-05-21T07:51:03Z</time>
      </trkpt>
      <trkpt lat="44.802727969363332" lon="9.209523992612958">
        <ele>640.16999999999996</ele>
        <time>2019-05-21T07:51:06Z</time>
      </trkpt>
      <trkpt lat="44.802732830867171" lon="9.209369095042348">
        <ele>640.54999999999995</ele>
        <time>2019-05-21T07:51:18Z</time>
      </trkpt>
      <trkpt lat="44.802740039303899" lon="9.209242863580585">
        <ele>642</ele>
        <time>2019-05-21T07:51:29Z</time>
      </trkpt>
      <trkpt lat="44.8027572222054" lon="9.209156027063727">
        <ele>643.84000000000003</ele>
        <time>2019-05-21T07:51:40Z</time>
      </trkpt>
      <trkpt lat="44.802755126729608" lon="9.209102550521493">
        <ele>644.28999999999996</ele>
        <time>2019-05-21T07:51:57Z</time>
      </trkpt>
      <trkpt lat="44.802760407328606" lon="9.208973050117493">
        <ele>646.11000000000001</ele>
        <time>2019-05-21T07:52:09Z</time>
      </trkpt>
      <trkpt lat="44.802776416763663" lon="9.208808178082109">
        <ele>648.76999999999998</ele>
        <time>2019-05-21T07:52:24Z</time>
      </trkpt>
      <trkpt lat="44.802784379571676" lon="9.208706589415669">
        <ele>650.5</ele>
        <time>2019-05-21T07:52:35Z</time>
      </trkpt>
      <trkpt lat="44.802824528887868" lon="9.208637271076441">
        <ele>651.51999999999998</ele>
        <time>2019-05-21T07:52:42Z</time>
      </trkpt>
      <trkpt lat="44.802875909954309" lon="9.208527468144894">
        <ele>653.09000000000003</ele>
        <time>2019-05-21T07:52:52Z</time>
      </trkpt>
      <trkpt lat="44.802887560799718" lon="9.208404840901494">
        <ele>653</ele>
        <time>2019-05-21T07:53:04Z</time>
      </trkpt>
      <trkpt lat="44.802907425910234" lon="9.208392603322864">
        <ele>652.62</ele>
        <time>2019-05-21T07:53:15Z</time>
      </trkpt>
      <trkpt lat="44.802916143089533" lon="9.208385897800326">
        <ele>652.13999999999999</ele>
        <time>2019-05-21T07:53:25Z</time>
      </trkpt>
      <trkpt lat="44.802904995158315" lon="9.208397967740893">
        <ele>651.37</ele>
        <time>2019-05-21T07:53:47Z</time>
      </trkpt>
      <trkpt lat="44.802894433960319" lon="9.20840023085475">
        <ele>651.13999999999999</ele>
        <time>2019-05-21T07:54:23Z</time>
      </trkpt>
      <trkpt lat="44.802883621305227" lon="9.208418503403664">
        <ele>651.44000000000005</ele>
        <time>2019-05-21T07:54:59Z</time>
      </trkpt>
      <trkpt lat="44.802884543314576" lon="9.20844666659832">
        <ele>651.12</ele>
        <time>2019-05-21T07:55:46Z</time>
      </trkpt>
      <trkpt lat="44.802881693467498" lon="9.208434764295816">
        <ele>651.33000000000004</ele>
        <time>2019-05-21T07:56:19Z</time>
      </trkpt>
      <trkpt lat="44.802875071763992" lon="9.208427555859089">
        <ele>651.23000000000002</ele>
        <time>2019-05-21T07:56:53Z</time>
      </trkpt>
      <trkpt lat="44.802879681810737" lon="9.208437614142895">
        <ele>651.58000000000004</ele>
        <time>2019-05-21T07:57:27Z</time>
      </trkpt>
      <trkpt lat="44.802881274372339" lon="9.208443816751242">
        <ele>651.42999999999995</ele>
        <time>2019-05-21T07:57:58Z</time>
      </trkpt>
      <trkpt lat="44.802879011258483" lon="9.208437530323863">
        <ele>651.64999999999998</ele>
        <time>2019-05-21T07:58:31Z</time>
      </trkpt>
      <trkpt lat="44.802875658497214" lon="9.208424119278789">
        <ele>652.07000000000005</ele>
        <time>2019-05-21T07:59:03Z</time>
      </trkpt>
      <trkpt lat="44.802886387333274" lon="9.208428477868438">
        <ele>651.88</ele>
        <time>2019-05-21T07:59:36Z</time>
      </trkpt>
      <trkpt lat="44.802903151139617" lon="9.208411546424031">
        <ele>653.01999999999998</ele>
        <time>2019-05-21T07:59:58Z</time>
      </trkpt>
      <trkpt lat="44.802929135039449" lon="9.208408361300826">
        <ele>652.87</ele>
        <time>2019-05-21T08:00:12Z</time>
      </trkpt>
      <trkpt lat="44.802904240787029" lon="9.208406936377287">
        <ele>652.83000000000004</ele>
        <time>2019-05-21T08:00:29Z</time>
      </trkpt>
      <trkpt lat="44.802878173068166" lon="9.208389921113849">
        <ele>652.65999999999997</ele>
        <time>2019-05-21T08:00:39Z</time>
      </trkpt>
      <trkpt lat="44.802899211645126" lon="9.208375085145235">
        <ele>653.09000000000003</ele>
        <time>2019-05-21T08:00:49Z</time>
      </trkpt>
      <trkpt lat="44.802911449223757" lon="9.208371983841062">
        <ele>652.39999999999998</ele>
        <time>2019-05-21T08:01:06Z</time>
      </trkpt>
      <trkpt lat="44.802912035956979" lon="9.208386735990644">
        <ele>652.73000000000002</ele>
        <time>2019-05-21T08:01:27Z</time>
      </trkpt>
      <trkpt lat="44.80291061103344" lon="9.208384053781629">
        <ele>654.09000000000003</ele>
        <time>2019-05-21T08:01:37Z</time>
      </trkpt>
      <trkpt lat="44.802890662103891" lon="9.208395285531879">
        <ele>652.5</ele>
        <time>2019-05-21T08:01:49Z</time>
      </trkpt>
      <trkpt lat="44.802834670990705" lon="9.208320183679462">
        <ele>651.75</ele>
        <time>2019-05-21T08:02:02Z</time>
      </trkpt>
      <trkpt lat="44.802826121449471" lon="9.208311382681131">
        <ele>651.64999999999998</ele>
        <time>2019-05-21T08:02:03Z</time>
      </trkpt>
      <trkpt lat="44.802703494206071" lon="9.208208369091153">
        <ele>649.60000000000002</ele>
        <time>2019-05-21T08:02:19Z</time>
      </trkpt>
      <trkpt lat="44.802599726244807" lon="9.208128741011024">
        <ele>648.28999999999996</ele>
        <time>2019-05-21T08:02:30Z</time>
      </trkpt>
      <trkpt lat="44.802434854209423" lon="9.208053890615702">
        <ele>648.07000000000005</ele>
        <time>2019-05-21T08:02:45Z</time>
      </trkpt>
      <trkpt lat="44.8023428209126" lon="9.20802447013557">
        <ele>647.73000000000002</ele>
        <time>2019-05-21T08:02:53Z</time>
      </trkpt>
      <trkpt lat="44.802307197824121" lon="9.208003766834736">
        <ele>647.83000000000004</ele>
        <time>2019-05-21T08:02:57Z</time>
      </trkpt>
      <trkpt lat="44.802174428477883" lon="9.208083394914866">
        <ele>649.26999999999998</ele>
        <time>2019-05-21T08:03:11Z</time>
      </trkpt>
      <trkpt lat="44.802149618044496" lon="9.208082389086485">
        <ele>649.74000000000001</ele>
        <time>2019-05-21T08:03:14Z</time>
      </trkpt>
      <trkpt lat="44.802106786519289" lon="9.208071576431394">
        <ele>649.96000000000004</ele>
        <time>2019-05-21T08:03:18Z</time>
      </trkpt>
      <trkpt lat="44.802066469565034" lon="9.208061518147588">
        <ele>650.21000000000004</ele>
        <time>2019-05-21T08:03:22Z</time>
      </trkpt>
      <trkpt lat="44.801956582814455" lon="9.208055818453431">
        <ele>651.25999999999999</ele>
        <time>2019-05-21T08:03:35Z</time>
      </trkpt>
      <trkpt lat="44.801861112937331" lon="9.208154892548919">
        <ele>653.46000000000004</ele>
        <time>2019-05-21T08:03:50Z</time>
      </trkpt>
      <trkpt lat="44.80182833969593" lon="9.208285482600331">
        <ele>655.54999999999995</ele>
        <time>2019-05-21T08:04:05Z</time>
      </trkpt>
      <trkpt lat="44.801807720214128" lon="9.208402158692479">
        <ele>657.82000000000005</ele>
        <time>2019-05-21T08:04:18Z</time>
      </trkpt>
      <trkpt lat="44.801789615303278" lon="9.208483044058085">
        <ele>659.16999999999996</ele>
        <time>2019-05-21T08:04:27Z</time>
      </trkpt>
      <trkpt lat="44.801748795434833" lon="9.208588823676109">
        <ele>661.23000000000002</ele>
        <time>2019-05-21T08:04:41Z</time>
      </trkpt>
      <trkpt lat="44.801704622805119" lon="9.208683036267757">
        <ele>663.54999999999995</ele>
        <time>2019-05-21T08:04:57Z</time>
      </trkpt>
      <trkpt lat="44.801654079928994" lon="9.208755707368255">
        <ele>665.10000000000002</ele>
        <time>2019-05-21T08:05:09Z</time>
      </trkpt>
      <trkpt lat="44.801610326394439" lon="9.20883365906775">
        <ele>666.91999999999996</ele>
        <time>2019-05-21T08:05:21Z</time>
      </trkpt>
      <trkpt lat="44.801557436585426" lon="9.208913873881102">
        <ele>669.09000000000003</ele>
        <time>2019-05-21T08:05:35Z</time>
      </trkpt>
      <trkpt lat="44.801490046083927" lon="9.208967685699463">
        <ele>671.25</ele>
        <time>2019-05-21T08:05:48Z</time>
      </trkpt>
      <trkpt lat="44.801425589248538" lon="9.208995010703802">
        <ele>673.28999999999996</ele>
        <time>2019-05-21T08:06:02Z</time>
      </trkpt>
      <trkpt lat="44.801325257867575" lon="9.208960728719831">
        <ele>675.50999999999999</ele>
        <time>2019-05-21T08:06:18Z</time>
      </trkpt>
      <trkpt lat="44.801245965063572" lon="9.208947401493788">
        <ele>677.99000000000001</ele>
        <time>2019-05-21T08:06:33Z</time>
      </trkpt>
      <trkpt lat="44.801178574562073" lon="9.208948658779264">
        <ele>679.38</ele>
        <time>2019-05-21T08:06:44Z</time>
      </trkpt>
      <trkpt lat="44.80108805000782" lon="9.208914376795292">
        <ele>681.29999999999995</ele>
        <time>2019-05-21T08:06:57Z</time>
      </trkpt>
      <trkpt lat="44.801010768860579" lon="9.208887554705143">
        <ele>682.91999999999996</ele>
        <time>2019-05-21T08:07:09Z</time>
      </trkpt>
      <trkpt lat="44.800953855738044" lon="9.208848159760237">
        <ele>684.23000000000002</ele>
        <time>2019-05-21T08:07:20Z</time>
      </trkpt>
      <trkpt lat="44.800870707258582" lon="9.208800802007318">
        <ele>686.12</ele>
        <time>2019-05-21T08:07:34Z</time>
      </trkpt>
      <trkpt lat="44.800787977874279" lon="9.208769118413329">
        <ele>687.34000000000003</ele>
        <time>2019-05-21T08:07:46Z</time>
      </trkpt>
      <trkpt lat="44.800733746960759" lon="9.208759646862745">
        <ele>688.49000000000001</ele>
        <time>2019-05-21T08:07:55Z</time>
      </trkpt>
      <trkpt lat="44.800640204921365" lon="9.208761490881443">
        <ele>689.41999999999996</ele>
        <time>2019-05-21T08:08:08Z</time>
      </trkpt>
      <trkpt lat="44.800561498850584" lon="9.208769453689456">
        <ele>691.37</ele>
        <time>2019-05-21T08:08:18Z</time>
      </trkpt>
      <trkpt lat="44.800552111119032" lon="9.208774399012327">
        <ele>691.50999999999999</ele>
        <time>2019-05-21T08:08:19Z</time>
      </trkpt>
      <trkpt lat="44.800450690090656" lon="9.208802478387952">
        <ele>690.48000000000002</ele>
        <time>2019-05-21T08:08:31Z</time>
      </trkpt>
      <trkpt lat="44.800405260175467" lon="9.208799712359905">
        <ele>691.08000000000004</ele>
        <time>2019-05-21T08:08:36Z</time>
      </trkpt>
      <trkpt lat="44.800336612388492" lon="9.208792420104146">
        <ele>690.40999999999997</ele>
        <time>2019-05-21T08:08:46Z</time>
      </trkpt>
      <trkpt lat="44.800308449193835" lon="9.208894176408649">
        <ele>690.86000000000001</ele>
        <time>2019-05-21T08:09:00Z</time>
      </trkpt>
      <trkpt lat="44.8003516998142" lon="9.209037171676755">
        <ele>691.84000000000003</ele>
        <time>2019-05-21T08:09:13Z</time>
      </trkpt>
      <trkpt lat="44.80035656131804" lon="9.209167426452041">
        <ele>692.63</ele>
        <time>2019-05-21T08:09:24Z</time>
      </trkpt>
      <trkpt lat="44.800363350659609" lon="9.209307236596942">
        <ele>693.60000000000002</ele>
        <time>2019-05-21T08:09:39Z</time>
      </trkpt>
      <trkpt lat="44.800355890765786" lon="9.209460122510791">
        <ele>694.59000000000003</ele>
        <time>2019-05-21T08:09:52Z</time>
      </trkpt>
      <trkpt lat="44.800351951271296" lon="9.209588784724474">
        <ele>696.05999999999995</ele>
        <time>2019-05-21T08:10:05Z</time>
      </trkpt>
      <trkpt lat="44.800286488607526" lon="9.209675285965204">
        <ele>697.89999999999998</ele>
        <time>2019-05-21T08:10:20Z</time>
      </trkpt>
      <trkpt lat="44.800247177481651" lon="9.209793470799923">
        <ele>699.46000000000004</ele>
        <time>2019-05-21T08:10:33Z</time>
      </trkpt>
      <trkpt lat="44.800218092277646" lon="9.209914589300752">
        <ele>702.50999999999999</ele>
        <time>2019-05-21T08:10:52Z</time>
      </trkpt>
      <trkpt lat="44.800207363441586" lon="9.210021793842316">
        <ele>704.89999999999998</ele>
        <time>2019-05-21T08:11:08Z</time>
      </trkpt>
      <trkpt lat="44.800189509987831" lon="9.210192114114761">
        <ele>706.86000000000001</ele>
        <time>2019-05-21T08:11:23Z</time>
      </trkpt>
      <trkpt lat="44.800134608522058" lon="9.210321446880698">
        <ele>707.75999999999999</ele>
        <time>2019-05-21T08:11:35Z</time>
      </trkpt>
      <trkpt lat="44.800028409808874" lon="9.210416078567505">
        <ele>708.55999999999995</ele>
        <time>2019-05-21T08:11:50Z</time>
      </trkpt>
      <trkpt lat="44.79990167543292" lon="9.210449103266001">
        <ele>710.20000000000005</ele>
        <time>2019-05-21T08:12:04Z</time>
      </trkpt>
      <trkpt lat="44.799821125343442" lon="9.210443655028939">
        <ele>711.30999999999995</ele>
        <time>2019-05-21T08:12:18Z</time>
      </trkpt>
      <trkpt lat="44.799733953550458" lon="9.210436195135117">
        <ele>713.11000000000001</ele>
        <time>2019-05-21T08:12:31Z</time>
      </trkpt>
      <trkpt lat="44.799665221944451" lon="9.210374420508742">
        <ele>714.33000000000004</ele>
        <time>2019-05-21T08:12:43Z</time>
      </trkpt>
      <trkpt lat="44.799557765945792" lon="9.210345083847642">
        <ele>716.20000000000005</ele>
        <time>2019-05-21T08:12:58Z</time>
      </trkpt>
      <trkpt lat="44.799428516998887" lon="9.210303258150816">
        <ele>717.75999999999999</ele>
        <time>2019-05-21T08:13:15Z</time>
      </trkpt>
      <trkpt lat="44.799319971352816" lon="9.210248021408916">
        <ele>718.82000000000005</ele>
        <time>2019-05-21T08:13:30Z</time>
      </trkpt>
      <trkpt lat="44.799220394343138" lon="9.210155317559838">
        <ele>720.17999999999995</ele>
        <time>2019-05-21T08:13:46Z</time>
      </trkpt>
      <trkpt lat="44.799198685213923" lon="9.210153222084045">
        <ele>720.78999999999996</ele>
        <time>2019-05-21T08:13:49Z</time>
      </trkpt>
      <trkpt lat="44.799116626381874" lon="9.21010997146368">
        <ele>723.00999999999999</ele>
        <time>2019-05-21T08:14:06Z</time>
      </trkpt>
      <trkpt lat="44.799062898382545" lon="9.210042161867023">
        <ele>724.95000000000005</ele>
        <time>2019-05-21T08:14:22Z</time>
      </trkpt>
      <trkpt lat="44.799023335799575" lon="9.210018860176206">
        <ele>725.5</ele>
        <time>2019-05-21T08:14:35Z</time>
      </trkpt>
      <trkpt lat="44.799056109040976" lon="9.209986422210932">
        <ele>726.00999999999999</ele>
        <time>2019-05-21T08:14:51Z</time>
      </trkpt>
      <trkpt lat="44.799110759049654" lon="9.210001844912767">
        <ele>726.70000000000005</ele>
        <time>2019-05-21T08:15:06Z</time>
      </trkpt>
      <trkpt lat="44.799177059903741" lon="9.209970245137811">
        <ele>729.12</ele>
        <time>2019-05-21T08:15:18Z</time>
      </trkpt>
      <trkpt lat="44.799239002168179" lon="9.209935795515776">
        <ele>730.60000000000002</ele>
        <time>2019-05-21T08:15:31Z</time>
      </trkpt>
      <trkpt lat="44.799309661611915" lon="9.209828926250339">
        <ele>731.87</ele>
        <time>2019-05-21T08:15:46Z</time>
      </trkpt>
      <trkpt lat="44.79932458139956" lon="9.209692301228643">
        <ele>733.20000000000005</ele>
        <time>2019-05-21T08:16:01Z</time>
      </trkpt>
      <trkpt lat="44.799332628026605" lon="9.209540253505111">
        <ele>733.65999999999997</ele>
        <time>2019-05-21T08:16:15Z</time>
      </trkpt>
      <trkpt lat="44.799361880868673" lon="9.209348475560546">
        <ele>734.42999999999995</ele>
        <time>2019-05-21T08:16:29Z</time>
      </trkpt>
      <trkpt lat="44.79939004406333" lon="9.209164325147867">
        <ele>735.88999999999999</ele>
        <time>2019-05-21T08:16:46Z</time>
      </trkpt>
      <trkpt lat="44.799348386004567" lon="9.209043541923165">
        <ele>737.33000000000004</ele>
        <time>2019-05-21T08:17:01Z</time>
      </trkpt>
      <trkpt lat="44.799295412376523" lon="9.209033651277423">
        <ele>739.30999999999995</ele>
        <time>2019-05-21T08:17:14Z</time>
      </trkpt>
      <trkpt lat="44.799220478162169" lon="9.208993837237358">
        <ele>741.41999999999996</ele>
        <time>2019-05-21T08:17:27Z</time>
      </trkpt>
      <trkpt lat="44.799146298319101" lon="9.208890488371253">
        <ele>742.07000000000005</ele>
        <time>2019-05-21T08:17:40Z</time>
      </trkpt>
      <trkpt lat="44.799103885889053" lon="9.208817565813661">
        <ele>742.24000000000001</ele>
        <time>2019-05-21T08:17:47Z</time>
      </trkpt>
      <trkpt lat="44.799007410183549" lon="9.208756713196635">
        <ele>742.42999999999995</ele>
        <time>2019-05-21T08:17:58Z</time>
      </trkpt>
      <trkpt lat="44.798979833722115" lon="9.208741122856736">
        <ele>742.07000000000005</ele>
        <time>2019-05-21T08:18:06Z</time>
      </trkpt>
      <trkpt lat="44.798885034397244" lon="9.208664847537875">
        <ele>743.27999999999997</ele>
        <time>2019-05-21T08:18:18Z</time>
      </trkpt>
      <trkpt lat="44.798766598105431" lon="9.208684377372265">
        <ele>744.28999999999996</ele>
        <time>2019-05-21T08:18:30Z</time>
      </trkpt>
      <trkpt lat="44.798658639192581" lon="9.208682952448726">
        <ele>744.49000000000001</ele>
        <time>2019-05-21T08:18:42Z</time>
      </trkpt>
      <trkpt lat="44.79857842437923" lon="9.208638109266758">
        <ele>744.90999999999997</ele>
        <time>2019-05-21T08:18:56Z</time>
      </trkpt>
      <trkpt lat="44.798477170988917" lon="9.208552949130535">
        <ele>743.98000000000002</ele>
        <time>2019-05-21T08:19:10Z</time>
      </trkpt>
      <trkpt lat="44.798365943133831" lon="9.208499724045396">
        <ele>742.69000000000005</ele>
        <time>2019-05-21T08:19:24Z</time>
      </trkpt>
      <trkpt lat="44.798270389437675" lon="9.208440463989973">
        <ele>741.90999999999997</ele>
        <time>2019-05-21T08:19:36Z</time>
      </trkpt>
      <trkpt lat="44.798171063885093" lon="9.208286823704839">
        <ele>742.25</ele>
        <time>2019-05-21T08:19:52Z</time>
      </trkpt>
      <trkpt lat="44.798112893477082" lon="9.208176685497165">
        <ele>742.23000000000002</ele>
        <time>2019-05-21T08:20:05Z</time>
      </trkpt>
      <trkpt lat="44.798070061951876" lon="9.208028912544251">
        <ele>743.55999999999995</ele>
        <time>2019-05-21T08:20:20Z</time>
      </trkpt>
      <trkpt lat="44.798010718077421" lon="9.207922881469131">
        <ele>744.48000000000002</ele>
        <time>2019-05-21T08:20:30Z</time>
      </trkpt>
      <trkpt lat="44.797925390303135" lon="9.207816179841757">
        <ele>744.07000000000005</ele>
        <time>2019-05-21T08:20:45Z</time>
      </trkpt>
      <trkpt lat="44.797814665362239" lon="9.207711992785335">
        <ele>744.12</ele>
        <time>2019-05-21T08:20:57Z</time>
      </trkpt>
      <trkpt lat="44.797726906836033" lon="9.207597998902202">
        <ele>744.66999999999996</ele>
        <time>2019-05-21T08:21:14Z</time>
      </trkpt>
      <trkpt lat="44.797717938199639" lon="9.207504289224744">
        <ele>745.10000000000002</ele>
        <time>2019-05-21T08:21:25Z</time>
      </trkpt>
      <trkpt lat="44.797646189108491" lon="9.207389373332262">
        <ele>745.60000000000002</ele>
        <time>2019-05-21T08:21:38Z</time>
      </trkpt>
      <trkpt lat="44.797553233802319" lon="9.207323072478175">
        <ele>746.70000000000005</ele>
        <time>2019-05-21T08:21:51Z</time>
      </trkpt>
      <trkpt lat="44.797449382022023" lon="9.207283342257142">
        <ele>747.32000000000005</ele>
        <time>2019-05-21T08:22:06Z</time>
      </trkpt>
      <trkpt lat="44.797363970428705" lon="9.207235733047128">
        <ele>748.49000000000001</ele>
        <time>2019-05-21T08:22:18Z</time>
      </trkpt>
      <trkpt lat="44.797267662361264" lon="9.207165073603392">
        <ele>749.17999999999995</ele>
        <time>2019-05-21T08:22:29Z</time>
      </trkpt>
      <trkpt lat="44.797258609905839" lon="9.207161804661155">
        <ele>749.25</ele>
        <time>2019-05-21T08:22:30Z</time>
      </trkpt>
      <trkpt lat="44.79721812531352" lon="9.207147974520922">
        <ele>749.23000000000002</ele>
        <time>2019-05-21T08:22:34Z</time>
      </trkpt>
      <trkpt lat="44.797076219692826" lon="9.207111345604062">
        <ele>750.08000000000004</ele>
        <time>2019-05-21T08:22:48Z</time>
      </trkpt>
      <trkpt lat="44.796978486701846" lon="9.207043033093214">
        <ele>750.53999999999996</ele>
        <time>2019-05-21T08:23:02Z</time>
      </trkpt>
      <trkpt lat="44.796890979632735" lon="9.207003889605403">
        <ele>751.26999999999998</ele>
        <time>2019-05-21T08:23:12Z</time>
      </trkpt>
      <trkpt lat="44.796844040974975" lon="9.206998106092215">
        <ele>751.74000000000001</ele>
        <time>2019-05-21T08:23:22Z</time>
      </trkpt>
      <trkpt lat="44.796825097873807" lon="9.207016378641129">
        <ele>751.82000000000005</ele>
        <time>2019-05-21T08:23:34Z</time>
      </trkpt>
      <trkpt lat="44.796784613281488" lon="9.207013193517923">
        <ele>752.22000000000003</ele>
        <time>2019-05-21T08:23:47Z</time>
      </trkpt>
      <trkpt lat="44.79675929993391" lon="9.207002464681864">
        <ele>752.28999999999996</ele>
        <time>2019-05-21T08:23:58Z</time>
      </trkpt>
      <trkpt lat="44.796764999628067" lon="9.206983353942633">
        <ele>752.53999999999996</ele>
        <time>2019-05-21T08:24:16Z</time>
      </trkpt>
      <trkpt lat="44.796776734292507" lon="9.206968182697892">
        <ele>752.61000000000001</ele>
        <time>2019-05-21T08:24:28Z</time>
      </trkpt>
      <trkpt lat="44.796793665736914" lon="9.206968853250146">
        <ele>752.70000000000005</ele>
        <time>2019-05-21T08:24:46Z</time>
      </trkpt>
      <trkpt lat="44.796760557219386" lon="9.206959130242467">
        <ele>753</ele>
        <time>2019-05-21T08:24:59Z</time>
      </trkpt>
      <trkpt lat="44.796669613569975" lon="9.206953765824437">
        <ele>753.40999999999997</ele>
        <time>2019-05-21T08:25:11Z</time>
      </trkpt>
      <trkpt lat="44.796544639393687" lon="9.206909509375691">
        <ele>754.25999999999999</ele>
        <time>2019-05-21T08:25:23Z</time>
      </trkpt>
      <trkpt lat="44.796405080705881" lon="9.206793755292893">
        <ele>754.74000000000001</ele>
        <time>2019-05-21T08:25:39Z</time>
      </trkpt>
      <trkpt lat="44.796246914193034" lon="9.206708511337638">
        <ele>753.84000000000003</ele>
        <time>2019-05-21T08:25:53Z</time>
      </trkpt>
      <trkpt lat="44.79608841240406" lon="9.206749834120274">
        <ele>752.05999999999995</ele>
        <time>2019-05-21T08:26:08Z</time>
      </trkpt>
      <trkpt lat="44.79596184566617" lon="9.206782020628452">
        <ele>750.53999999999996</ele>
        <time>2019-05-21T08:26:21Z</time>
      </trkpt>
      <trkpt lat="44.795848019421101" lon="9.206830468028784">
        <ele>749.75</ele>
        <time>2019-05-21T08:26:32Z</time>
      </trkpt>
      <trkpt lat="44.795722709968686" lon="9.206909341737628">
        <ele>748.75999999999999</ele>
        <time>2019-05-21T08:26:43Z</time>
      </trkpt>
      <trkpt lat="44.795578122138977" lon="9.206973044201732">
        <ele>747.02999999999997</ele>
        <time>2019-05-21T08:26:58Z</time>
      </trkpt>
      <trkpt lat="44.79551718570292" lon="9.206991316750646">
        <ele>746.36000000000001</ele>
        <time>2019-05-21T08:27:04Z</time>
      </trkpt>
      <trkpt lat="44.795435043051839" lon="9.207080667838454">
        <ele>745.05999999999995</ele>
        <time>2019-05-21T08:27:15Z</time>
      </trkpt>
      <trkpt lat="44.795369077473879" lon="9.207222824916244">
        <ele>743.66999999999996</ele>
        <time>2019-05-21T08:27:26Z</time>
      </trkpt>
      <trkpt lat="44.795323060825467" lon="9.207309577614069">
        <ele>742.44000000000005</ele>
        <time>2019-05-21T08:27:33Z</time>
      </trkpt>
      <trkpt lat="44.795275200158358" lon="9.207479059696198">
        <ele>740.99000000000001</ele>
        <time>2019-05-21T08:27:45Z</time>
      </trkpt>
      <trkpt lat="44.795268662273884" lon="9.207550976425409">
        <ele>740.83000000000004</ele>
        <time>2019-05-21T08:27:49Z</time>
      </trkpt>
      <trkpt lat="44.795268326997757" lon="9.207602357491851">
        <ele>740.37</ele>
        <time>2019-05-21T08:27:52Z</time>
      </trkpt>
      <trkpt lat="44.795135390013456" lon="9.207672011107206">
        <ele>738.05999999999995</ele>
        <time>2019-05-21T08:28:04Z</time>
      </trkpt>
      <trkpt lat="44.795035561546683" lon="9.207430277019739">
        <ele>735.74000000000001</ele>
        <time>2019-05-21T08:28:20Z</time>
      </trkpt>
      <trkpt lat="44.794927518814802" lon="9.207199774682522">
        <ele>733.15999999999997</ele>
        <time>2019-05-21T08:28:36Z</time>
      </trkpt>
      <trkpt lat="44.794744038954377" lon="9.207066418603063">
        <ele>730.57000000000005</ele>
        <time>2019-05-21T08:28:52Z</time>
      </trkpt>
      <trkpt lat="44.794638175517321" lon="9.207029370591044">
        <ele>729.66999999999996</ele>
        <time>2019-05-21T08:29:03Z</time>
      </trkpt>
      <trkpt lat="44.794442541897297" lon="9.206907916814089">
        <ele>727.60000000000002</ele>
        <time>2019-05-21T08:29:21Z</time>
      </trkpt>
      <trkpt lat="44.794297367334366" lon="9.206784702837467">
        <ele>726.33000000000004</ele>
        <time>2019-05-21T08:29:35Z</time>
      </trkpt>
      <trkpt lat="44.794158898293972" lon="9.206678755581379">
        <ele>724.71000000000004</ele>
        <time>2019-05-21T08:29:48Z</time>
      </trkpt>
      <trkpt lat="44.793985560536385" lon="9.206544812768698">
        <ele>722.48000000000002</ele>
        <time>2019-05-21T08:30:05Z</time>
      </trkpt>
      <trkpt lat="44.793790932744741" lon="9.206439452245832">
        <ele>721.03999999999996</ele>
        <time>2019-05-21T08:30:23Z</time>
      </trkpt>
      <trkpt lat="44.793641902506351" lon="9.206397291272879">
        <ele>720.21000000000004</ele>
        <time>2019-05-21T08:30:36Z</time>
      </trkpt>
      <trkpt lat="44.793501337990165" lon="9.2063651047647">
        <ele>719.80999999999995</ele>
        <time>2019-05-21T08:30:49Z</time>
      </trkpt>
      <trkpt lat="44.79335842654109" lon="9.206389496102929">
        <ele>719.42999999999995</ele>
        <time>2019-05-21T08:31:01Z</time>
      </trkpt>
      <trkpt lat="44.793232949450612" lon="9.206416318193078">
        <ele>718.77999999999997</ele>
        <time>2019-05-21T08:31:11Z</time>
      </trkpt>
      <trkpt lat="44.792977385222912" lon="9.20647943392396">
        <ele>718.27999999999997</ele>
        <time>2019-05-21T08:31:31Z</time>
      </trkpt>
      <trkpt lat="44.792791809886694" lon="9.206488570198417">
        <ele>717.73000000000002</ele>
        <time>2019-05-21T08:31:47Z</time>
      </trkpt>
      <trkpt lat="44.792633978649974" lon="9.20650290325284">
        <ele>716.65999999999997</ele>
        <time>2019-05-21T08:32:01Z</time>
      </trkpt>
      <trkpt lat="44.792498359456658" lon="9.206504328176379">
        <ele>715.89999999999998</ele>
        <time>2019-05-21T08:32:14Z</time>
      </trkpt>
      <trkpt lat="44.792279172688723" lon="9.206501310691237">
        <ele>715.10000000000002</ele>
        <time>2019-05-21T08:32:30Z</time>
      </trkpt>
      <trkpt lat="44.792143721133471" lon="9.206516314297915">
        <ele>714.88</ele>
        <time>2019-05-21T08:32:42Z</time>
      </trkpt>
      <trkpt lat="44.792125364765525" lon="9.206522013992071">
        <ele>714.86000000000001</ele>
        <time>2019-05-21T08:32:48Z</time>
      </trkpt>
      <trkpt lat="44.791983878239989" lon="9.206550680100918">
        <ele>714.79999999999995</ele>
        <time>2019-05-21T08:33:03Z</time>
      </trkpt>
      <trkpt lat="44.791797464713454" lon="9.20657523907721">
        <ele>714.85000000000002</ele>
        <time>2019-05-21T08:33:19Z</time>
      </trkpt>
      <trkpt lat="44.791641309857368" lon="9.20656836591661">
        <ele>715.15999999999997</ele>
        <time>2019-05-21T08:33:32Z</time>
      </trkpt>
      <trkpt lat="44.791553383693099" lon="9.206573395058513">
        <ele>714.97000000000003</ele>
        <time>2019-05-21T08:33:41Z</time>
      </trkpt>
      <trkpt lat="44.791497057303786" lon="9.2065947689116">
        <ele>715.35000000000002</ele>
        <time>2019-05-21T08:33:53Z</time>
      </trkpt>
      <trkpt lat="44.791494458913803" lon="9.206596193835139">
        <ele>715.25</ele>
        <time>2019-05-21T08:33:54Z</time>
      </trkpt>
      <trkpt lat="44.791461518034339" lon="9.206607425585389">
        <ele>715.27999999999997</ele>
        <time>2019-05-21T08:33:58Z</time>
      </trkpt>
      <trkpt lat="44.791372502222657" lon="9.206630811095238">
        <ele>715.51999999999998</ele>
        <time>2019-05-21T08:34:07Z</time>
      </trkpt>
      <trkpt lat="44.791342746466398" lon="9.206628296524286">
        <ele>715.46000000000004</ele>
        <time>2019-05-21T08:34:10Z</time>
      </trkpt>
      <trkpt lat="44.791272338479757" lon="9.206622513011098">
        <ele>715.60000000000002</ele>
        <time>2019-05-21T08:34:18Z</time>
      </trkpt>
      <trkpt lat="44.791149208322167" lon="9.206605665385723">
        <ele>716.16999999999996</ele>
        <time>2019-05-21T08:34:31Z</time>
      </trkpt>
      <trkpt lat="44.79101886972785" lon="9.206526791676879">
        <ele>716.60000000000002</ele>
        <time>2019-05-21T08:34:46Z</time>
      </trkpt>
      <trkpt lat="44.790948461741209" lon="9.206469375640154">
        <ele>716.75999999999999</ele>
        <time>2019-05-21T08:34:57Z</time>
      </trkpt>
      <trkpt lat="44.790894147008657" lon="9.206453114748001">
        <ele>716.63999999999999</ele>
        <time>2019-05-21T08:35:09Z</time>
      </trkpt>
      <trkpt lat="44.790807059034705" lon="9.206385472789407">
        <ele>717.04999999999995</ele>
        <time>2019-05-21T08:35:18Z</time>
      </trkpt>
      <trkpt lat="44.790699435397983" lon="9.206278519704938">
        <ele>717.87</ele>
        <time>2019-05-21T08:35:31Z</time>
      </trkpt>
      <trkpt lat="44.790560211986303" lon="9.20618481002748">
        <ele>718.88</ele>
        <time>2019-05-21T08:35:46Z</time>
      </trkpt>
      <trkpt lat="44.790502125397325" lon="9.206148851662874">
        <ele>719.04999999999995</ele>
        <time>2019-05-21T08:35:53Z</time>
      </trkpt>
      <trkpt lat="44.790373630821705" lon="9.206130662932992">
        <ele>719.25</ele>
        <time>2019-05-21T08:36:06Z</time>
      </trkpt>
      <trkpt lat="44.79033381678164" lon="9.206115324050188">
        <ele>719.09000000000003</ele>
        <time>2019-05-21T08:36:10Z</time>
      </trkpt>
      <trkpt lat="44.790192246437073" lon="9.206104762852192">
        <ele>719.12</ele>
        <time>2019-05-21T08:36:22Z</time>
      </trkpt>
      <trkpt lat="44.790077330544591" lon="9.206088669598103">
        <ele>719.40999999999997</ele>
        <time>2019-05-21T08:36:31Z</time>
      </trkpt>
      <trkpt lat="44.789918996393681" lon="9.205965958535671">
        <ele>719.39999999999998</ele>
        <time>2019-05-21T08:36:45Z</time>
      </trkpt>
      <trkpt lat="44.789692936465144" lon="9.205819191411138">
        <ele>719.25</ele>
        <time>2019-05-21T08:37:03Z</time>
      </trkpt>
      <trkpt lat="44.789475342258811" lon="9.205738976597786">
        <ele>719.38999999999999</ele>
        <time>2019-05-21T08:37:18Z</time>
      </trkpt>
      <trkpt lat="44.789272667840123" lon="9.205721793696284">
        <ele>719.46000000000004</ele>
        <time>2019-05-21T08:37:33Z</time>
      </trkpt>
      <trkpt lat="44.789071585983038" lon="9.205784155055881">
        <ele>719.66999999999996</ele>
        <time>2019-05-21T08:37:48Z</time>
      </trkpt>
      <trkpt lat="44.788895985111594" lon="9.205855568870902">
        <ele>719.58000000000004</ele>
        <time>2019-05-21T08:38:02Z</time>
      </trkpt>
      <trkpt lat="44.788638409227133" lon="9.205927820876241">
        <ele>719.77999999999997</ele>
        <time>2019-05-21T08:38:24Z</time>
      </trkpt>
      <trkpt lat="44.788437830284238" lon="9.205960929393768">
        <ele>719.71000000000004</ele>
        <time>2019-05-21T08:38:41Z</time>
      </trkpt>
      <trkpt lat="44.788226103410125" lon="9.206000659614801">
        <ele>720.14999999999998</ele>
        <time>2019-05-21T08:39:00Z</time>
      </trkpt>
      <trkpt lat="44.788045473396778" lon="9.206038461998105">
        <ele>720.57000000000005</ele>
        <time>2019-05-21T08:39:16Z</time>
      </trkpt>
      <trkpt lat="44.787865933030844" lon="9.206060087308288">
        <ele>721.04999999999995</ele>
        <time>2019-05-21T08:39:31Z</time>
      </trkpt>
      <trkpt lat="44.787755711004138" lon="9.206043323501945">
        <ele>721.07000000000005</ele>
        <time>2019-05-21T08:39:41Z</time>
      </trkpt>
      <trkpt lat="44.787567034363747" lon="9.20608171261847">
        <ele>722.26999999999998</ele>
        <time>2019-05-21T08:39:58Z</time>
      </trkpt>
      <trkpt lat="44.787384895607829" lon="9.206108283251524">
        <ele>723.27999999999997</ele>
        <time>2019-05-21T08:40:14Z</time>
      </trkpt>
      <trkpt lat="44.787212898954749" lon="9.206126220524311">
        <ele>724.5</ele>
        <time>2019-05-21T08:40:29Z</time>
      </trkpt>
      <trkpt lat="44.787143412977457" lon="9.206122029572725">
        <ele>724.74000000000001</ele>
        <time>2019-05-21T08:40:35Z</time>
      </trkpt>
      <trkpt lat="44.787102425470948" lon="9.206105684861541">
        <ele>725.09000000000003</ele>
        <time>2019-05-21T08:40:39Z</time>
      </trkpt>
      <trkpt lat="44.787034532055259" lon="9.206101074814796">
        <ele>725.72000000000003</ele>
        <time>2019-05-21T08:40:46Z</time>
      </trkpt>
      <trkpt lat="44.786882568150759" lon="9.206064278259873">
        <ele>726.96000000000004</ele>
        <time>2019-05-21T08:41:00Z</time>
      </trkpt>
      <trkpt lat="44.786747200414538" lon="9.206135524436832">
        <ele>727.32000000000005</ele>
        <time>2019-05-21T08:41:12Z</time>
      </trkpt>
      <trkpt lat="44.786725826561451" lon="9.206147426739335">
        <ele>727.48000000000002</ele>
        <time>2019-05-21T08:41:14Z</time>
      </trkpt>
      <trkpt lat="44.7866006847471" lon="9.206228144466877">
        <ele>728.40999999999997</ele>
        <time>2019-05-21T08:41:26Z</time>
      </trkpt>
      <trkpt lat="44.786473028361797" lon="9.206299390643835">
        <ele>729.21000000000004</ele>
        <time>2019-05-21T08:41:39Z</time>
      </trkpt>
      <trkpt lat="44.786339337006211" lon="9.206374157220125">
        <ele>730.25</ele>
        <time>2019-05-21T08:41:51Z</time>
      </trkpt>
      <trkpt lat="44.786315616220236" lon="9.206377845257521">
        <ele>730.22000000000003</ele>
        <time>2019-05-21T08:41:53Z</time>
      </trkpt>
      <trkpt lat="44.786131633445621" lon="9.206342557445169">
        <ele>731.11000000000001</ele>
        <time>2019-05-21T08:42:10Z</time>
      </trkpt>
      <trkpt lat="44.785953350365162" lon="9.206278352066875">
        <ele>732.07000000000005</ele>
        <time>2019-05-21T08:42:25Z</time>
      </trkpt>
      <trkpt lat="44.78574120439589" lon="9.206166369840503">
        <ele>733.14999999999998</ele>
        <time>2019-05-21T08:42:43Z</time>
      </trkpt>
      <trkpt lat="44.7855438105762" lon="9.206136278808117">
        <ele>734.26999999999998</ele>
        <time>2019-05-21T08:43:00Z</time>
      </trkpt>
      <trkpt lat="44.785394528880715" lon="9.206062182784081">
        <ele>735.03999999999996</ele>
        <time>2019-05-21T08:43:15Z</time>
      </trkpt>
      <trkpt lat="44.785250192508101" lon="9.205917762592435">
        <ele>736.47000000000003</ele>
        <time>2019-05-21T08:43:31Z</time>
      </trkpt>
      <trkpt lat="44.785192357376218" lon="9.205673346295953">
        <ele>737.36000000000001</ele>
        <time>2019-05-21T08:43:47Z</time>
      </trkpt>
      <trkpt lat="44.785216748714447" lon="9.205441502854228">
        <ele>738.25</ele>
        <time>2019-05-21T08:44:02Z</time>
      </trkpt>
      <trkpt lat="44.785209540277719" lon="9.205394228920341">
        <ele>739.37</ele>
        <time>2019-05-21T08:44:06Z</time>
      </trkpt>
      <trkpt lat="44.785221107304096" lon="9.205374279990792">
        <ele>738.75999999999999</ele>
        <time>2019-05-21T08:44:08Z</time>
      </trkpt>
      <trkpt lat="44.785225382074714" lon="9.20531359501183">
        <ele>738.95000000000005</ele>
        <time>2019-05-21T08:44:12Z</time>
      </trkpt>
      <trkpt lat="44.785260921344161" lon="9.205148220062256">
        <ele>739.37</ele>
        <time>2019-05-21T08:44:22Z</time>
      </trkpt>
      <trkpt lat="44.78525304235518" lon="9.204921573400497">
        <ele>739.39999999999998</ele>
        <time>2019-05-21T08:44:36Z</time>
      </trkpt>
      <trkpt lat="44.78506344370544" lon="9.204912018030882">
        <ele>740.69000000000005</ele>
        <time>2019-05-21T08:44:50Z</time>
      </trkpt>
      <trkpt lat="44.784909971058369" lon="9.204971194267273">
        <ele>741.40999999999997</ele>
        <time>2019-05-21T08:45:03Z</time>
      </trkpt>
      <trkpt lat="44.784776195883751" lon="9.205016372725368">
        <ele>742.17999999999995</ele>
        <time>2019-05-21T08:45:15Z</time>
      </trkpt>
      <trkpt lat="44.784600511193275" lon="9.205073704943061">
        <ele>743</ele>
        <time>2019-05-21T08:45:30Z</time>
      </trkpt>
      <trkpt lat="44.78443019092083" lon="9.205134557560086">
        <ele>743.88999999999999</ele>
        <time>2019-05-21T08:45:45Z</time>
      </trkpt>
      <trkpt lat="44.784202957525849" lon="9.205157188698649">
        <ele>745.09000000000003</ele>
        <time>2019-05-21T08:46:04Z</time>
      </trkpt>
      <trkpt lat="44.784106565639377" lon="9.205109244212508">
        <ele>745.61000000000001</ele>
        <time>2019-05-21T08:46:14Z</time>
      </trkpt>
      <trkpt lat="44.784097010269761" lon="9.205074710771442">
        <ele>746.14999999999998</ele>
        <time>2019-05-21T08:46:18Z</time>
      </trkpt>
      <trkpt lat="44.784108158200979" lon="9.205008409917355">
        <ele>745.82000000000005</ele>
        <time>2019-05-21T08:46:31Z</time>
      </trkpt>
      <trkpt lat="44.784090472385287" lon="9.205024922266603">
        <ele>745.88999999999999</ele>
        <time>2019-05-21T08:46:35Z</time>
      </trkpt>
      <trkpt lat="44.783957032486796" lon="9.204960130155087">
        <ele>746.73000000000002</ele>
        <time>2019-05-21T08:46:48Z</time>
      </trkpt>
      <trkpt lat="44.783777995035052" lon="9.204898858442903">
        <ele>747.84000000000003</ele>
        <time>2019-05-21T08:47:04Z</time>
      </trkpt>
      <trkpt lat="44.783685794100165" lon="9.20490606687963">
        <ele>748.89999999999998</ele>
        <time>2019-05-21T08:47:12Z</time>
      </trkpt>
      <trkpt lat="44.783509355038404" lon="9.204851668328047">
        <ele>749.58000000000004</ele>
        <time>2019-05-21T08:47:27Z</time>
      </trkpt>
      <trkpt lat="44.783343393355608" lon="9.204852255061269">
        <ele>750.04999999999995</ele>
        <time>2019-05-21T08:47:41Z</time>
      </trkpt>
      <trkpt lat="44.783159578219056" lon="9.204919813200831">
        <ele>750.60000000000002</ele>
        <time>2019-05-21T08:47:57Z</time>
      </trkpt>
      <trkpt lat="44.783010631799698" lon="9.204999273642898">
        <ele>751.59000000000003</ele>
        <time>2019-05-21T08:48:12Z</time>
      </trkpt>
      <trkpt lat="44.782998729497194" lon="9.205000698566437">
        <ele>751.58000000000004</ele>
        <time>2019-05-21T08:48:13Z</time>
      </trkpt>
      <trkpt lat="44.782937793061137" lon="9.204944288358092">
        <ele>751.60000000000002</ele>
        <time>2019-05-21T08:48:22Z</time>
      </trkpt>
      <trkpt lat="44.782926142215729" lon="9.204943366348743">
        <ele>751.46000000000004</ele>
        <time>2019-05-21T08:48:30Z</time>
      </trkpt>
      <trkpt lat="44.782875431701541" lon="9.204935990273953">
        <ele>751.51999999999998</ele>
        <time>2019-05-21T08:48:35Z</time>
      </trkpt>
      <trkpt lat="44.782854225486517" lon="9.20492953620851">
        <ele>751.46000000000004</ele>
        <time>2019-05-21T08:48:37Z</time>
      </trkpt>
      <trkpt lat="44.782680049538612" lon="9.2048713658005">
        <ele>751.27999999999997</ele>
        <time>2019-05-21T08:48:53Z</time>
      </trkpt>
      <trkpt lat="44.782492546364665" lon="9.204744715243578">
        <ele>750.63999999999999</ele>
        <time>2019-05-21T08:49:10Z</time>
      </trkpt>
      <trkpt lat="44.7823266685009" lon="9.204626865684986">
        <ele>750.09000000000003</ele>
        <time>2019-05-21T08:49:24Z</time>
      </trkpt>
      <trkpt lat="44.782269755378366" lon="9.204577328637242">
        <ele>749.73000000000002</ele>
        <time>2019-05-21T08:49:29Z</time>
      </trkpt>
      <trkpt lat="44.78224846534431" lon="9.204566180706024">
        <ele>749.83000000000004</ele>
        <time>2019-05-21T08:49:31Z</time>
      </trkpt>
      <trkpt lat="44.782174536958337" lon="9.204527540132403">
        <ele>749.73000000000002</ele>
        <time>2019-05-21T08:49:39Z</time>
      </trkpt>
      <trkpt lat="44.782026931643486" lon="9.204437518492341">
        <ele>749.75999999999999</ele>
        <time>2019-05-21T08:49:51Z</time>
      </trkpt>
      <trkpt lat="44.781828029081225" lon="9.204365685582161">
        <ele>748.23000000000002</ele>
        <time>2019-05-21T08:50:07Z</time>
      </trkpt>
      <trkpt lat="44.781684949994087" lon="9.204330313950777">
        <ele>747.17999999999995</ele>
        <time>2019-05-21T08:50:20Z</time>
      </trkpt>
      <trkpt lat="44.781585205346346" lon="9.204337941482663">
        <ele>746.57000000000005</ele>
        <time>2019-05-21T08:50:31Z</time>
      </trkpt>
      <trkpt lat="44.781576236709952" lon="9.204356046393514">
        <ele>746.73000000000002</ele>
        <time>2019-05-21T08:50:34Z</time>
      </trkpt>
      <trkpt lat="44.781521083787084" lon="9.204335594549775">
        <ele>746.38</ele>
        <time>2019-05-21T08:50:39Z</time>
      </trkpt>
      <trkpt lat="44.781280690804124" lon="9.204322937875986">
        <ele>744.46000000000004</ele>
        <time>2019-05-21T08:50:57Z</time>
      </trkpt>
      <trkpt lat="44.781096037477255" lon="9.20432603918016">
        <ele>743.32000000000005</ele>
        <time>2019-05-21T08:51:11Z</time>
      </trkpt>
      <trkpt lat="44.780893865972757" lon="9.204354286193848">
        <ele>741.53999999999996</ele>
        <time>2019-05-21T08:51:27Z</time>
      </trkpt>
      <trkpt lat="44.780707284808159" lon="9.204388987272978">
        <ele>739.74000000000001</ele>
        <time>2019-05-21T08:51:42Z</time>
      </trkpt>
      <trkpt lat="44.780526906251907" lon="9.204415138810873">
        <ele>738.44000000000005</ele>
        <time>2019-05-21T08:51:56Z</time>
      </trkpt>
      <trkpt lat="44.780376451089978" lon="9.204439949244261">
        <ele>737.38</ele>
        <time>2019-05-21T08:52:07Z</time>
      </trkpt>
      <trkpt lat="44.780155755579472" lon="9.204497113823891">
        <ele>735.51999999999998</ele>
        <time>2019-05-21T08:52:24Z</time>
      </trkpt>
      <trkpt lat="44.779983088374138" lon="9.204516727477312">
        <ele>734.15999999999997</ele>
        <time>2019-05-21T08:52:37Z</time>
      </trkpt>
      <trkpt lat="44.779843194410205" lon="9.204478841274977">
        <ele>732.98000000000002</ele>
        <time>2019-05-21T08:52:49Z</time>
      </trkpt>
      <trkpt lat="44.779606573283672" lon="9.204349340870976">
        <ele>730.75999999999999</ele>
        <time>2019-05-21T08:53:08Z</time>
      </trkpt>
      <trkpt lat="44.779384536668658" lon="9.204308688640595">
        <ele>729.71000000000004</ele>
        <time>2019-05-21T08:53:25Z</time>
      </trkpt>
      <trkpt lat="44.779158225283027" lon="9.204406086355448">
        <ele>729</ele>
        <time>2019-05-21T08:53:43Z</time>
      </trkpt>
      <trkpt lat="44.779030233621597" lon="9.20447800308466">
        <ele>728.45000000000005</ele>
        <time>2019-05-21T08:53:55Z</time>
      </trkpt>
      <trkpt lat="44.778847256675363" lon="9.204579927027226">
        <ele>728.08000000000004</ele>
        <time>2019-05-21T08:54:11Z</time>
      </trkpt>
      <trkpt lat="44.778804257512093" lon="9.204600043594837">
        <ele>727.95000000000005</ele>
        <time>2019-05-21T08:54:21Z</time>
      </trkpt>
      <trkpt lat="44.778747679665685" lon="9.204629631713033">
        <ele>727.63</ele>
        <time>2019-05-21T08:54:26Z</time>
      </trkpt>
      <trkpt lat="44.778470993041992" lon="9.20472820289433">
        <ele>726.72000000000003</ele>
        <time>2019-05-21T08:54:48Z</time>
      </trkpt>
      <trkpt lat="44.77843226864934" lon="9.204749828204513">
        <ele>726.86000000000001</ele>
        <time>2019-05-21T08:54:51Z</time>
      </trkpt>
      <trkpt lat="44.778245855122805" lon="9.204706661403179">
        <ele>726.21000000000004</ele>
        <time>2019-05-21T08:55:06Z</time>
      </trkpt>
      <trkpt lat="44.778046952560544" lon="9.204651592299342">
        <ele>725.21000000000004</ele>
        <time>2019-05-21T08:55:21Z</time>
      </trkpt>
      <trkpt lat="44.777798345312476" lon="9.20461337082088">
        <ele>724.46000000000004</ele>
        <time>2019-05-21T08:55:40Z</time>
      </trkpt>
      <trkpt lat="44.777777222916484" lon="9.204573472961783">
        <ele>724.63</ele>
        <time>2019-05-21T08:55:44Z</time>
      </trkpt>
      <trkpt lat="44.777833297848701" lon="9.204401224851608">
        <ele>727.19000000000005</ele>
        <time>2019-05-21T08:55:59Z</time>
      </trkpt>
      <trkpt lat="44.777798177674413" lon="9.204298295080662">
        <ele>728.11000000000001</ele>
        <time>2019-05-21T08:56:07Z</time>
      </trkpt>
      <trkpt lat="44.777880236506462" lon="9.204276502132416">
        <ele>728.16999999999996</ele>
        <time>2019-05-21T08:56:18Z</time>
      </trkpt>
      <trkpt lat="44.777890797704458" lon="9.204295193776488">
        <ele>728.08000000000004</ele>
        <time>2019-05-21T08:56:26Z</time>
      </trkpt>
      <trkpt lat="44.77791091427207" lon="9.204302821308374">
        <ele>727.89999999999998</ele>
        <time>2019-05-21T08:56:37Z</time>
      </trkpt>
      <trkpt lat="44.777904711663723" lon="9.204245824366808">
        <ele>728.57000000000005</ele>
        <time>2019-05-21T08:56:49Z</time>
      </trkpt>
      <trkpt lat="44.777900939807296" lon="9.204227216541767">
        <ele>728.62</ele>
        <time>2019-05-21T08:57:08Z</time>
      </trkpt>
      <trkpt lat="44.777849139645696" lon="9.204263174906373">
        <ele>728.71000000000004</ele>
        <time>2019-05-21T08:57:21Z</time>
      </trkpt>
      <trkpt lat="44.777696672827005" lon="9.204217912629247">
        <ele>730.66999999999996</ele>
        <time>2019-05-21T08:57:33Z</time>
      </trkpt>
      <trkpt lat="44.777521323412657" lon="9.204135183244944">
        <ele>732.88999999999999</ele>
        <time>2019-05-21T08:57:45Z</time>
      </trkpt>
      <trkpt lat="44.777390565723181" lon="9.204264264553785">
        <ele>734.88999999999999</ele>
        <time>2019-05-21T08:57:57Z</time>
      </trkpt>
      <trkpt lat="44.777374221011996" lon="9.204274322837591">
        <ele>735.59000000000003</ele>
        <time>2019-05-21T08:58:02Z</time>
      </trkpt>
      <trkpt lat="44.777339855208993" lon="9.204199723899365">
        <ele>735.83000000000004</ele>
        <time>2019-05-21T08:58:11Z</time>
      </trkpt>
      <trkpt lat="44.777354104444385" lon="9.204151863232255">
        <ele>736.20000000000005</ele>
        <time>2019-05-21T08:58:21Z</time>
      </trkpt>
      <trkpt lat="44.777354691177607" lon="9.204125041142106">
        <ele>736.25999999999999</ele>
        <time>2019-05-21T08:58:23Z</time>
      </trkpt>
      <trkpt lat="44.77731772698462" lon="9.20394491404295">
        <ele>737.28999999999996</ele>
        <time>2019-05-21T08:58:38Z</time>
      </trkpt>
      <trkpt lat="44.777258299291134" lon="9.203934352844954">
        <ele>737.25</ele>
        <time>2019-05-21T08:58:47Z</time>
      </trkpt>
      <trkpt lat="44.777249079197645" lon="9.203941393643618">
        <ele>737.80999999999995</ele>
        <time>2019-05-21T08:58:58Z</time>
      </trkpt>
      <trkpt lat="44.777368353679776" lon="9.204050023108721">
        <ele>736.59000000000003</ele>
        <time>2019-05-21T08:59:11Z</time>
      </trkpt>
      <trkpt lat="44.777366677299142" lon="9.204074582085013">
        <ele>736.37</ele>
        <time>2019-05-21T08:59:13Z</time>
      </trkpt>
      <trkpt lat="44.777334993705153" lon="9.204236352816224">
        <ele>735.14999999999998</ele>
        <time>2019-05-21T08:59:25Z</time>
      </trkpt>
      <trkpt lat="44.777320576831698" lon="9.204253451898694">
        <ele>735.13999999999999</ele>
        <time>2019-05-21T08:59:35Z</time>
      </trkpt>
      <trkpt lat="44.777301382273436" lon="9.204246578738093">
        <ele>735.38999999999999</ele>
        <time>2019-05-21T09:00:01Z</time>
      </trkpt>
      <trkpt lat="44.777317810803652" lon="9.204251104965806">
        <ele>735.67999999999995</ele>
        <time>2019-05-21T09:00:14Z</time>
      </trkpt>
      <trkpt lat="44.777328372001648" lon="9.204258481040597">
        <ele>735.45000000000005</ele>
        <time>2019-05-21T09:00:28Z</time>
      </trkpt>
      <trkpt lat="44.777326108887792" lon="9.204256637021899">
        <ele>735.62</ele>
        <time>2019-05-21T09:00:42Z</time>
      </trkpt>
      <trkpt lat="44.777318062260747" lon="9.204271975904703">
        <ele>735.50999999999999</ele>
        <time>2019-05-21T09:00:59Z</time>
      </trkpt>
      <trkpt lat="44.777303980663419" lon="9.204281363636255">
        <ele>735.44000000000005</ele>
        <time>2019-05-21T09:01:01Z</time>
      </trkpt>
      <trkpt lat="44.777266262099147" lon="9.204285806044936">
        <ele>735.44000000000005</ele>
        <time>2019-05-21T09:01:04Z</time>
      </trkpt>
      <trkpt lat="44.777187556028366" lon="9.20432360842824">
        <ele>735.23000000000002</ele>
        <time>2019-05-21T09:01:11Z</time>
      </trkpt>
      <trkpt lat="44.77709049358964" lon="9.204267198219895">
        <ele>736.91999999999996</ele>
        <time>2019-05-21T09:01:24Z</time>
      </trkpt>
      <trkpt lat="44.777074567973614" lon="9.20425278134644">
        <ele>737.20000000000005</ele>
        <time>2019-05-21T09:01:26Z</time>
      </trkpt>
      <trkpt lat="44.776999549940228" lon="9.204227551817894">
        <ele>739.05999999999995</ele>
        <time>2019-05-21T09:01:36Z</time>
      </trkpt>
      <trkpt lat="44.776917574927211" lon="9.204112552106381">
        <ele>741.04999999999995</ele>
        <time>2019-05-21T09:01:51Z</time>
      </trkpt>
      <trkpt lat="44.776873234659433" lon="9.204076929017901">
        <ele>741.99000000000001</ele>
        <time>2019-05-21T09:02:02Z</time>
      </trkpt>
      <trkpt lat="44.776783045381308" lon="9.204053208231926">
        <ele>743.41999999999996</ele>
        <time>2019-05-21T09:02:13Z</time>
      </trkpt>
      <trkpt lat="44.776767119765282" lon="9.204050861299038">
        <ele>743.70000000000005</ele>
        <time>2019-05-21T09:02:15Z</time>
      </trkpt>
      <trkpt lat="44.776642564684153" lon="9.204066284000874">
        <ele>745.75</ele>
        <time>2019-05-21T09:02:30Z</time>
      </trkpt>
      <trkpt lat="44.776547262445092" lon="9.20414381660521">
        <ele>747.69000000000005</ele>
        <time>2019-05-21T09:02:44Z</time>
      </trkpt>
      <trkpt lat="44.776455396786332" lon="9.204207602888346">
        <ele>748.97000000000003</ele>
        <time>2019-05-21T09:02:56Z</time>
      </trkpt>
      <trkpt lat="44.776354897767305" lon="9.204296283423901">
        <ele>750.84000000000003</ele>
        <time>2019-05-21T09:03:12Z</time>
      </trkpt>
      <trkpt lat="44.776271330192685" lon="9.204417821019888">
        <ele>752.61000000000001</ele>
        <time>2019-05-21T09:03:26Z</time>
      </trkpt>
      <trkpt lat="44.776198575273156" lon="9.204450091347098">
        <ele>754.24000000000001</ele>
        <time>2019-05-21T09:03:38Z</time>
      </trkpt>
      <trkpt lat="44.776105368509889" lon="9.204497700557113">
        <ele>756.30999999999995</ele>
        <time>2019-05-21T09:03:51Z</time>
      </trkpt>
      <trkpt lat="44.776064045727253" lon="9.204516392201185">
        <ele>757.02999999999997</ele>
        <time>2019-05-21T09:03:57Z</time>
      </trkpt>
      <trkpt lat="44.775980142876506" lon="9.20452737249434">
        <ele>758.63</ele>
        <time>2019-05-21T09:04:09Z</time>
      </trkpt>
      <trkpt lat="44.775901604443789" lon="9.204605743288994">
        <ele>760.55999999999995</ele>
        <time>2019-05-21T09:04:23Z</time>
      </trkpt>
      <trkpt lat="44.775865897536278" lon="9.204644802957773">
        <ele>761.36000000000001</ele>
        <time>2019-05-21T09:04:29Z</time>
      </trkpt>
      <trkpt lat="44.775786688551307" lon="9.204687802121043">
        <ele>762.63</ele>
        <time>2019-05-21T09:04:40Z</time>
      </trkpt>
      <trkpt lat="44.77571845985949" lon="9.20473306439817">
        <ele>764.23000000000002</ele>
        <time>2019-05-21T09:04:51Z</time>
      </trkpt>
      <trkpt lat="44.775627767667174" lon="9.204852506518364">
        <ele>766.67999999999995</ele>
        <time>2019-05-21T09:05:06Z</time>
      </trkpt>
      <trkpt lat="44.775540176779032" lon="9.204917550086975">
        <ele>768.73000000000002</ele>
        <time>2019-05-21T09:05:21Z</time>
      </trkpt>
      <trkpt lat="44.775463314726949" lon="9.204927692189813">
        <ele>770.23000000000002</ele>
        <time>2019-05-21T09:05:32Z</time>
      </trkpt>
      <trkpt lat="44.775456190109253" lon="9.20489969663322">
        <ele>772.34000000000003</ele>
        <time>2019-05-21T09:05:47Z</time>
      </trkpt>
      <trkpt lat="44.775494327768683" lon="9.204811938107014">
        <ele>773.35000000000002</ele>
        <time>2019-05-21T09:05:56Z</time>
      </trkpt>
      <trkpt lat="44.775562388822436" lon="9.204645557329059">
        <ele>775.09000000000003</ele>
        <time>2019-05-21T09:06:12Z</time>
      </trkpt>
      <trkpt lat="44.775549564510584" lon="9.204510357230902">
        <ele>776.01999999999998</ele>
        <time>2019-05-21T09:06:22Z</time>
      </trkpt>
      <trkpt lat="44.775507068261504" lon="9.20439057983458">
        <ele>777.42999999999995</ele>
        <time>2019-05-21T09:06:34Z</time>
      </trkpt>
      <trkpt lat="44.775430457666516" lon="9.204324530437589">
        <ele>778.98000000000002</ele>
        <time>2019-05-21T09:06:48Z</time>
      </trkpt>
      <trkpt lat="44.775347141548991" lon="9.20429871417582">
        <ele>780.62</ele>
        <time>2019-05-21T09:07:01Z</time>
      </trkpt>
      <trkpt lat="44.775273464620113" lon="9.204281195998192">
        <ele>782.73000000000002</ele>
        <time>2019-05-21T09:07:14Z</time>
      </trkpt>
      <trkpt lat="44.775162823498249" lon="9.204238951206207">
        <ele>784.70000000000005</ele>
        <time>2019-05-21T09:07:30Z</time>
      </trkpt>
      <trkpt lat="44.775113957002759" lon="9.20427180826664">
        <ele>786.25999999999999</ele>
        <time>2019-05-21T09:07:42Z</time>
      </trkpt>
      <trkpt lat="44.775040112435818" lon="9.204395860433579">
        <ele>788.11000000000001</ele>
        <time>2019-05-21T09:07:57Z</time>
      </trkpt>
      <trkpt lat="44.774971883744001" lon="9.204490408301354">
        <ele>789.38999999999999</ele>
        <time>2019-05-21T09:08:10Z</time>
      </trkpt>
      <trkpt lat="44.774899631738663" lon="9.204616639763117">
        <ele>791.32000000000005</ele>
        <time>2019-05-21T09:08:24Z</time>
      </trkpt>
      <trkpt lat="44.774810113012791" lon="9.20472769998014">
        <ele>792.58000000000004</ele>
        <time>2019-05-21T09:08:37Z</time>
      </trkpt>
      <trkpt lat="44.774732748046517" lon="9.204786121845245">
        <ele>794.21000000000004</ele>
        <time>2019-05-21T09:08:51Z</time>
      </trkpt>
      <trkpt lat="44.774666698649526" lon="9.204877316951752">
        <ele>795.94000000000005</ele>
        <time>2019-05-21T09:09:04Z</time>
      </trkpt>
      <trkpt lat="44.774590507149696" lon="9.205013606697321">
        <ele>798.79999999999995</ele>
        <time>2019-05-21T09:09:21Z</time>
      </trkpt>
      <trkpt lat="44.774527810513973" lon="9.205123577266932">
        <ele>801.00999999999999</ele>
        <time>2019-05-21T09:09:33Z</time>
      </trkpt>
      <trkpt lat="44.774462766945362" lon="9.205178311094642">
        <ele>803.02999999999997</ele>
        <time>2019-05-21T09:09:45Z</time>
      </trkpt>
      <trkpt lat="44.774389592930675" lon="9.205244947224855">
        <ele>805.38</ele>
        <time>2019-05-21T09:09:58Z</time>
      </trkpt>
      <trkpt lat="44.774316670373082" lon="9.205322312191129">
        <ele>807.51999999999998</ele>
        <time>2019-05-21T09:10:12Z</time>
      </trkpt>
      <trkpt lat="44.774246346205473" lon="9.205395905300975">
        <ele>809.22000000000003</ele>
        <time>2019-05-21T09:10:26Z</time>
      </trkpt>
      <trkpt lat="44.774150038138032" lon="9.205463966354728">
        <ele>811.62</ele>
        <time>2019-05-21T09:10:42Z</time>
      </trkpt>
      <trkpt lat="44.774064458906651" lon="9.205548455938697">
        <ele>813.37</ele>
        <time>2019-05-21T09:10:55Z</time>
      </trkpt>
      <trkpt lat="44.773968318477273" lon="9.205534206703305">
        <ele>814.76999999999998</ele>
        <time>2019-05-21T09:11:07Z</time>
      </trkpt>
      <trkpt lat="44.773877626284957" lon="9.205519370734692">
        <ele>815.63</ele>
        <time>2019-05-21T09:11:17Z</time>
      </trkpt>
      <trkpt lat="44.773752233013511" lon="9.205476958304644">
        <ele>816.84000000000003</ele>
        <time>2019-05-21T09:11:31Z</time>
      </trkpt>
      <trkpt lat="44.773663971573114" lon="9.205415267497301">
        <ele>818.25</ele>
        <time>2019-05-21T09:11:44Z</time>
      </trkpt>
      <trkpt lat="44.773578895255923" lon="9.205354498699307">
        <ele>819.53999999999996</ele>
        <time>2019-05-21T09:11:55Z</time>
      </trkpt>
      <trkpt lat="44.773491472005844" lon="9.205299932509661">
        <ele>820.69000000000005</ele>
        <time>2019-05-21T09:12:05Z</time>
      </trkpt>
      <trkpt lat="44.77339549921453" lon="9.205248719081283">
        <ele>822.97000000000003</ele>
        <time>2019-05-21T09:12:18Z</time>
      </trkpt>
      <trkpt lat="44.773293407633901" lon="9.205222567543387">
        <ele>825.30999999999995</ele>
        <time>2019-05-21T09:12:33Z</time>
      </trkpt>
      <trkpt lat="44.773229034617543" lon="9.205158865079284">
        <ele>827.10000000000002</ele>
        <time>2019-05-21T09:12:44Z</time>
      </trkpt>
      <trkpt lat="44.77316340431571" lon="9.205021904781461">
        <ele>829.13</ele>
        <time>2019-05-21T09:12:59Z</time>
      </trkpt>
      <trkpt lat="44.773110346868634" lon="9.204910341650248">
        <ele>830.87</ele>
        <time>2019-05-21T09:13:12Z</time>
      </trkpt>
      <trkpt lat="44.773078327998519" lon="9.204821493476629">
        <ele>832.77999999999997</ele>
        <time>2019-05-21T09:13:24Z</time>
      </trkpt>
      <trkpt lat="44.773017223924398" lon="9.204675815999508">
        <ele>834.99000000000001</ele>
        <time>2019-05-21T09:13:41Z</time>
      </trkpt>
      <trkpt lat="44.772983444854617" lon="9.204593002796173">
        <ele>837.51999999999998</ele>
        <time>2019-05-21T09:13:54Z</time>
      </trkpt>
      <trkpt lat="44.772926364094019" lon="9.20444916933775">
        <ele>840.49000000000001</ele>
        <time>2019-05-21T09:14:10Z</time>
      </trkpt>
      <trkpt lat="44.772891495376825" lon="9.204339617863298">
        <ele>842.75999999999999</ele>
        <time>2019-05-21T09:14:25Z</time>
      </trkpt>
      <trkpt lat="44.772833995521069" lon="9.204217744991183">
        <ele>845.11000000000001</ele>
        <time>2019-05-21T09:14:38Z</time>
      </trkpt>
      <trkpt lat="44.772729389369488" lon="9.204098554328084">
        <ele>847.23000000000002</ele>
        <time>2019-05-21T09:14:55Z</time>
      </trkpt>
      <trkpt lat="44.772657556459308" lon="9.204029655084014">
        <ele>848.39999999999998</ele>
        <time>2019-05-21T09:15:08Z</time>
      </trkpt>
      <trkpt lat="44.772565523162484" lon="9.203971065580845">
        <ele>850.27999999999997</ele>
        <time>2019-05-21T09:15:22Z</time>
      </trkpt>
      <trkpt lat="44.772483967244625" lon="9.203886240720749">
        <ele>852.49000000000001</ele>
        <time>2019-05-21T09:15:37Z</time>
      </trkpt>
      <trkpt lat="44.772380366921425" lon="9.203780042007566">
        <ele>854.44000000000005</ele>
        <time>2019-05-21T09:15:53Z</time>
      </trkpt>
      <trkpt lat="44.772279029712081" lon="9.203717429190874">
        <ele>856.37</ele>
        <time>2019-05-21T09:16:06Z</time>
      </trkpt>
      <trkpt lat="44.772171070799232" lon="9.20372455380857">
        <ele>857.85000000000002</ele>
        <time>2019-05-21T09:16:19Z</time>
      </trkpt>
      <trkpt lat="44.772073840722442" lon="9.203678537160158">
        <ele>859.25999999999999</ele>
        <time>2019-05-21T09:16:33Z</time>
      </trkpt>
      <trkpt lat="44.771960265934467" lon="9.20364978723228">
        <ele>861.57000000000005</ele>
        <time>2019-05-21T09:16:49Z</time>
      </trkpt>
      <trkpt lat="44.771884996443987" lon="9.203629670664668">
        <ele>863.88999999999999</ele>
        <time>2019-05-21T09:17:01Z</time>
      </trkpt>
      <trkpt lat="44.771880386397243" lon="9.203630341216922">
        <ele>864.17999999999995</ele>
        <time>2019-05-21T09:17:02Z</time>
      </trkpt>
      <trkpt lat="44.771755998954177" lon="9.203671496361494">
        <ele>865.04999999999995</ele>
        <time>2019-05-21T09:17:18Z</time>
      </trkpt>
      <trkpt lat="44.771669413894415" lon="9.203741485252976">
        <ele>866.30999999999995</ele>
        <time>2019-05-21T09:17:30Z</time>
      </trkpt>
      <trkpt lat="44.771590959280729" lon="9.203757243230939">
        <ele>868.02999999999997</ele>
        <time>2019-05-21T09:17:42Z</time>
      </trkpt>
      <trkpt lat="44.771498925983906" lon="9.203751794993877">
        <ele>870.08000000000004</ele>
        <time>2019-05-21T09:17:57Z</time>
      </trkpt>
      <trkpt lat="44.771415526047349" lon="9.203750118613243">
        <ele>871.52999999999997</ele>
        <time>2019-05-21T09:18:10Z</time>
      </trkpt>
      <trkpt lat="44.771325336769223" lon="9.203810468316078">
        <ele>873.05999999999995</ele>
        <time>2019-05-21T09:18:24Z</time>
      </trkpt>
      <trkpt lat="44.771252330392599" lon="9.2038300819695">
        <ele>874.85000000000002</ele>
        <time>2019-05-21T09:18:37Z</time>
      </trkpt>
      <trkpt lat="44.771175887435675" lon="9.203880038112402">
        <ele>876.90999999999997</ele>
        <time>2019-05-21T09:18:50Z</time>
      </trkpt>
      <trkpt lat="44.771105227991939" lon="9.203883809968829">
        <ele>878.86000000000001</ele>
        <time>2019-05-21T09:19:02Z</time>
      </trkpt>
      <trkpt lat="44.771008752286434" lon="9.203874003142119">
        <ele>881.14999999999998</ele>
        <time>2019-05-21T09:19:16Z</time>
      </trkpt>
      <trkpt lat="44.77093867957592" lon="9.203939214348793">
        <ele>883.72000000000003</ele>
        <time>2019-05-21T09:19:29Z</time>
      </trkpt>
      <trkpt lat="44.770873133093119" lon="9.204044826328754">
        <ele>885.08000000000004</ele>
        <time>2019-05-21T09:19:42Z</time>
      </trkpt>
      <trkpt lat="44.770814292132854" lon="9.204136775806546">
        <ele>886.76999999999998</ele>
        <time>2019-05-21T09:19:54Z</time>
      </trkpt>
      <trkpt lat="44.770762491971254" lon="9.204206094145775">
        <ele>888.29999999999995</ele>
        <time>2019-05-21T09:20:06Z</time>
      </trkpt>
      <trkpt lat="44.770696358755231" lon="9.20436761341989">
        <ele>890.03999999999996</ele>
        <time>2019-05-21T09:20:18Z</time>
      </trkpt>
      <trkpt lat="44.770652605220675" lon="9.204468866810203">
        <ele>891.41999999999996</ele>
        <time>2019-05-21T09:20:31Z</time>
      </trkpt>
      <trkpt lat="44.770559063181281" lon="9.204567018896341">
        <ele>893.75</ele>
        <time>2019-05-21T09:20:45Z</time>
      </trkpt>
      <trkpt lat="44.770512292161584" lon="9.204683694988489">
        <ele>895.29999999999995</ele>
        <time>2019-05-21T09:20:58Z</time>
      </trkpt>
      <trkpt lat="44.770467532798648" lon="9.204812357202172">
        <ele>896.72000000000003</ele>
        <time>2019-05-21T09:21:09Z</time>
      </trkpt>
      <trkpt lat="44.770420510321856" lon="9.204935487359762">
        <ele>898.40999999999997</ele>
        <time>2019-05-21T09:21:19Z</time>
      </trkpt>
      <trkpt lat="44.770364351570606" lon="9.205029616132379">
        <ele>900.05999999999995</ele>
        <time>2019-05-21T09:21:31Z</time>
      </trkpt>
      <trkpt lat="44.77031959220767" lon="9.205102371051908">
        <ele>901.60000000000002</ele>
        <time>2019-05-21T09:21:43Z</time>
      </trkpt>
      <trkpt lat="44.770229486748576" lon="9.205154674127698">
        <ele>903.44000000000005</ele>
        <time>2019-05-21T09:21:57Z</time>
      </trkpt>
      <trkpt lat="44.770167041569948" lon="9.205170348286629">
        <ele>905.66999999999996</ele>
        <time>2019-05-21T09:22:10Z</time>
      </trkpt>
      <trkpt lat="44.770086323842406" lon="9.205143442377448">
        <ele>907.99000000000001</ele>
        <time>2019-05-21T09:22:25Z</time>
      </trkpt>
      <trkpt lat="44.770024549216032" lon="9.20512936078012">
        <ele>910.58000000000004</ele>
        <time>2019-05-21T09:22:40Z</time>
      </trkpt>
      <trkpt lat="44.769962271675467" lon="9.2051459569484">
        <ele>912.89999999999998</ele>
        <time>2019-05-21T09:22:55Z</time>
      </trkpt>
      <trkpt lat="44.769843835383654" lon="9.205131875351071">
        <ele>915.77999999999997</ele>
        <time>2019-05-21T09:23:10Z</time>
      </trkpt>
      <trkpt lat="44.769776025786996" lon="9.205107651650906">
        <ele>917.69000000000005</ele>
        <time>2019-05-21T09:23:22Z</time>
      </trkpt>
      <trkpt lat="44.769713161513209" lon="9.205131120979786">
        <ele>918.27999999999997</ele>
        <time>2019-05-21T09:23:37Z</time>
      </trkpt>
      <trkpt lat="44.76971760392189" lon="9.205193398520351">
        <ele>918.15999999999997</ele>
        <time>2019-05-21T09:23:41Z</time>
      </trkpt>
      <trkpt lat="44.769731517881155" lon="9.205286270007491">
        <ele>918.61000000000001</ele>
        <time>2019-05-21T09:23:50Z</time>
      </trkpt>
      <trkpt lat="44.769813911989331" lon="9.205365898087621">
        <ele>920.61000000000001</ele>
        <time>2019-05-21T09:24:05Z</time>
      </trkpt>
      <trkpt lat="44.769832519814372" lon="9.205483580008149">
        <ele>923.42999999999995</ele>
        <time>2019-05-21T09:24:18Z</time>
      </trkpt>
      <trkpt lat="44.769765548408031" lon="9.205502858385444">
        <ele>926.23000000000002</ele>
        <time>2019-05-21T09:24:30Z</time>
      </trkpt>
      <trkpt lat="44.769639652222395" lon="9.205482490360737">
        <ele>928.95000000000005</ele>
        <time>2019-05-21T09:24:45Z</time>
      </trkpt>
      <trkpt lat="44.769576787948608" lon="9.205547785386443">
        <ele>931.09000000000003</ele>
        <time>2019-05-21T09:24:59Z</time>
      </trkpt>
      <trkpt lat="44.769568322226405" lon="9.205673094838858">
        <ele>933.83000000000004</ele>
        <time>2019-05-21T09:25:13Z</time>
      </trkpt>
      <trkpt lat="44.76961643435061" lon="9.205780634656549">
        <ele>935.49000000000001</ele>
        <time>2019-05-21T09:25:24Z</time>
      </trkpt>
      <trkpt lat="44.769678628072143" lon="9.205853557214141">
        <ele>938.17999999999995</ele>
        <time>2019-05-21T09:25:38Z</time>
      </trkpt>
      <trkpt lat="44.76969757117331" lon="9.205895466729999">
        <ele>936.77999999999997</ele>
        <time>2019-05-21T09:25:49Z</time>
      </trkpt>
      <trkpt lat="44.769703019410372" lon="9.205887420102954">
        <ele>937.64999999999998</ele>
        <time>2019-05-21T09:26:05Z</time>
      </trkpt>
      <trkpt lat="44.769787173718214" lon="9.205881804227829">
        <ele>936.25999999999999</ele>
        <time>2019-05-21T09:26:22Z</time>
      </trkpt>
      <trkpt lat="44.769815253093839" lon="9.205860598012805">
        <ele>938.49000000000001</ele>
        <time>2019-05-21T09:26:43Z</time>
      </trkpt>
      <trkpt lat="44.769811229780316" lon="9.205846767872572">
        <ele>938.05999999999995</ele>
        <time>2019-05-21T09:26:48Z</time>
      </trkpt>
      <trkpt lat="44.769772421568632" lon="9.205850036814809">
        <ele>937.94000000000005</ele>
        <time>2019-05-21T09:27:10Z</time>
      </trkpt>
      <trkpt lat="44.769747443497181" lon="9.20583444647491">
        <ele>938.24000000000001</ele>
        <time>2019-05-21T09:27:31Z</time>
      </trkpt>
      <trkpt lat="44.769719950854778" lon="9.205832183361054">
        <ele>938.48000000000002</ele>
        <time>2019-05-21T09:27:53Z</time>
      </trkpt>
      <trkpt lat="44.769725818186998" lon="9.205857077613473">
        <ele>938.50999999999999</ele>
        <time>2019-05-21T09:28:24Z</time>
      </trkpt>
      <trkpt lat="44.769730344414711" lon="9.205869482830167">
        <ele>939.10000000000002</ele>
        <time>2019-05-21T09:28:48Z</time>
      </trkpt>
      <trkpt lat="44.76971416734159" lon="9.205884737893939">
        <ele>939.44000000000005</ele>
        <time>2019-05-21T09:29:09Z</time>
      </trkpt>
      <trkpt lat="44.76971073076129" lon="9.205885156989098">
        <ele>939.63999999999999</ele>
        <time>2019-05-21T09:29:12Z</time>
      </trkpt>
      <trkpt lat="44.769783485680819" lon="9.205868309363723">
        <ele>939.89999999999998</ele>
        <time>2019-05-21T09:29:33Z</time>
      </trkpt>
      <trkpt lat="44.76983243599534" lon="9.20588138513267">
        <ele>940.07000000000005</ele>
        <time>2019-05-21T09:29:54Z</time>
      </trkpt>
      <trkpt lat="44.769829334691167" lon="9.205859759822488">
        <ele>940.59000000000003</ele>
        <time>2019-05-21T09:30:17Z</time>
      </trkpt>
      <trkpt lat="44.769743252545595" lon="9.205807875841856">
        <ele>940.88</ele>
        <time>2019-05-21T09:30:39Z</time>
      </trkpt>
      <trkpt lat="44.769723555073142" lon="9.205809636041522">
        <ele>941.52999999999997</ele>
        <time>2019-05-21T09:31:05Z</time>
      </trkpt>
      <trkpt lat="44.769747192040086" lon="9.205851126462221">
        <ele>941.67999999999995</ele>
        <time>2019-05-21T09:31:27Z</time>
      </trkpt>
      <trkpt lat="44.769685585051775" lon="9.205858753994107">
        <ele>942.20000000000005</ele>
        <time>2019-05-21T09:31:50Z</time>
      </trkpt>
      <trkpt lat="44.769672509282827" lon="9.205870823934674">
        <ele>942.46000000000004</ele>
        <time>2019-05-21T09:32:20Z</time>
      </trkpt>
      <trkpt lat="44.769659098237753" lon="9.205845091491938">
        <ele>943.00999999999999</ele>
        <time>2019-05-21T09:32:54Z</time>
      </trkpt>
      <trkpt lat="44.769645687192678" lon="9.205848695710301">
        <ele>943.16999999999996</ele>
        <time>2019-05-21T09:33:24Z</time>
      </trkpt>
      <trkpt lat="44.769647279754281" lon="9.205829501152039">
        <ele>943.5</ele>
        <time>2019-05-21T09:33:58Z</time>
      </trkpt>
      <trkpt lat="44.769640322774649" lon="9.205828746780753">
        <ele>943.73000000000002</ele>
        <time>2019-05-21T09:34:28Z</time>
      </trkpt>
      <trkpt lat="44.769646525382996" lon="9.205834111198783">
        <ele>944.38999999999999</ele>
        <time>2019-05-21T09:34:53Z</time>
      </trkpt>
      <trkpt lat="44.769647363573313" lon="9.205830255523324">
        <ele>945.15999999999997</ele>
        <time>2019-05-21T09:35:13Z</time>
      </trkpt>
      <trkpt lat="44.769626660272479" lon="9.205819694325328">
        <ele>945.44000000000005</ele>
        <time>2019-05-21T09:35:28Z</time>
      </trkpt>
      <trkpt lat="44.769593216478825" lon="9.205795554444194">
        <ele>945.61000000000001</ele>
        <time>2019-05-21T09:35:49Z</time>
      </trkpt>
      <trkpt lat="44.769558934494853" lon="9.205792369320989">
        <ele>945.63</ele>
        <time>2019-05-21T09:36:03Z</time>
      </trkpt>
      <trkpt lat="44.769566478207707" lon="9.205809803679586">
        <ele>945.73000000000002</ele>
        <time>2019-05-21T09:36:15Z</time>
      </trkpt>
      <trkpt lat="44.769600676372647" lon="9.205829668790102">
        <ele>945.64999999999998</ele>
        <time>2019-05-21T09:36:31Z</time>
      </trkpt>
      <trkpt lat="44.769629091024399" lon="9.205834195017815">
        <ele>945.98000000000002</ele>
        <time>2019-05-21T09:36:52Z</time>
      </trkpt>
      <trkpt lat="44.769635796546936" lon="9.205842912197113">
        <ele>946.25</ele>
        <time>2019-05-21T09:37:10Z</time>
      </trkpt>
      <trkpt lat="44.769592965021729" lon="9.205903680995107">
        <ele>948.39999999999998</ele>
        <time>2019-05-21T09:37:23Z</time>
      </trkpt>
      <trkpt lat="44.769502189010382" lon="9.205965204164386">
        <ele>950.76999999999998</ele>
        <time>2019-05-21T09:37:37Z</time>
      </trkpt>
      <trkpt lat="44.769433038309216" lon="9.206052795052528">
        <ele>953.22000000000003</ele>
        <time>2019-05-21T09:37:51Z</time>
      </trkpt>
      <trkpt lat="44.76937604136765" lon="9.206175338476896">
        <ele>955.95000000000005</ele>
        <time>2019-05-21T09:38:05Z</time>
      </trkpt>
      <trkpt lat="44.769314518198371" lon="9.206214314326644">
        <ele>958.94000000000005</ele>
        <time>2019-05-21T09:38:21Z</time>
      </trkpt>
      <trkpt lat="44.769256263971329" lon="9.206278016790748">
        <ele>961.16999999999996</ele>
        <time>2019-05-21T09:38:35Z</time>
      </trkpt>
      <trkpt lat="44.76927001029253" lon="9.206403074786067">
        <ele>963.89999999999998</ele>
        <time>2019-05-21T09:38:53Z</time>
      </trkpt>
      <trkpt lat="44.769311081618071" lon="9.206472393125296">
        <ele>966.04999999999995</ele>
        <time>2019-05-21T09:39:07Z</time>
      </trkpt>
      <trkpt lat="44.769385848194361" lon="9.206548752263188">
        <ele>968.53999999999996</ele>
        <time>2019-05-21T09:39:23Z</time>
      </trkpt>
      <trkpt lat="44.769344022497535" lon="9.206569958478212">
        <ele>970.95000000000005</ele>
        <time>2019-05-21T09:39:38Z</time>
      </trkpt>
      <trkpt lat="44.769286857917905" lon="9.206604408100247">
        <ele>973.42999999999995</ele>
        <time>2019-05-21T09:39:56Z</time>
      </trkpt>
      <trkpt lat="44.769212594255805" lon="9.206653693690896">
        <ele>975.95000000000005</ele>
        <time>2019-05-21T09:40:12Z</time>
      </trkpt>
      <trkpt lat="44.769140845164657" lon="9.206728376448154">
        <ele>978.10000000000002</ele>
        <time>2019-05-21T09:40:26Z</time>
      </trkpt>
      <trkpt lat="44.769090972840786" lon="9.206815883517265">
        <ele>980.37</ele>
        <time>2019-05-21T09:40:41Z</time>
      </trkpt>
      <trkpt lat="44.769031964242458" lon="9.206939768046141">
        <ele>982.29999999999995</ele>
        <time>2019-05-21T09:40:55Z</time>
      </trkpt>
      <trkpt lat="44.768988043069839" lon="9.207096509635449">
        <ele>984.39999999999998</ele>
        <time>2019-05-21T09:41:11Z</time>
      </trkpt>
      <trkpt lat="44.768983097746968" lon="9.20711662620306">
        <ele>984.77999999999997</ele>
        <time>2019-05-21T09:41:13Z</time>
      </trkpt>
      <trkpt lat="44.768924592062831" lon="9.207204803824425">
        <ele>986.55999999999995</ele>
        <time>2019-05-21T09:41:30Z</time>
      </trkpt>
      <trkpt lat="44.768899697810411" lon="9.207217879593372">
        <ele>988.00999999999999</ele>
        <time>2019-05-21T09:41:38Z</time>
      </trkpt>
      <trkpt lat="44.768825685605407" lon="9.207126684486866">
        <ele>990.27999999999997</ele>
        <time>2019-05-21T09:41:55Z</time>
      </trkpt>
      <trkpt lat="44.768707249313593" lon="9.206961980089545">
        <ele>991.95000000000005</ele>
        <time>2019-05-21T09:42:14Z</time>
      </trkpt>
      <trkpt lat="44.768679002299905" lon="9.206885788589716">
        <ele>992.47000000000003</ele>
        <time>2019-05-21T09:42:17Z</time>
      </trkpt>
      <trkpt lat="44.768630219623446" lon="9.206762239336968">
        <ele>993.63999999999999</ele>
        <time>2019-05-21T09:42:26Z</time>
      </trkpt>
      <trkpt lat="44.768557548522949" lon="9.206728376448154">
        <ele>996.59000000000003</ele>
        <time>2019-05-21T09:42:43Z</time>
      </trkpt>
      <trkpt lat="44.768464509397745" lon="9.206718569621444">
        <ele>999.41999999999996</ele>
        <time>2019-05-21T09:42:59Z</time>
      </trkpt>
      <trkpt lat="44.768427796661854" lon="9.206716390326619">
        <ele>1000.84</ele>
        <time>2019-05-21T09:43:07Z</time>
      </trkpt>
      <trkpt lat="44.768361579626799" lon="9.206682359799743">
        <ele>1003.65</ele>
        <time>2019-05-21T09:43:26Z</time>
      </trkpt>
      <trkpt lat="44.768293350934982" lon="9.206676660105586">
        <ele>1005.79</ele>
        <time>2019-05-21T09:43:42Z</time>
      </trkpt>
      <trkpt lat="44.7682199254632" lon="9.206691412255168">
        <ele>1008.24</ele>
        <time>2019-05-21T09:44:00Z</time>
      </trkpt>
      <trkpt lat="44.768146919086576" lon="9.20669199898839">
        <ele>1011.09</ele>
        <time>2019-05-21T09:44:17Z</time>
      </trkpt>
      <trkpt lat="44.76810366846621" lon="9.206763496622443">
        <ele>1013.89</ele>
        <time>2019-05-21T09:44:34Z</time>
      </trkpt>
      <trkpt lat="44.768078355118632" lon="9.206838263198733">
        <ele>1015.5599999999999</ele>
        <time>2019-05-21T09:44:52Z</time>
      </trkpt>
      <trkpt lat="44.768054215237498" lon="9.206853015348315">
        <ele>1016.3</ele>
        <time>2019-05-21T09:45:13Z</time>
      </trkpt>
      <trkpt lat="44.768018675968051" lon="9.206861816346645">
        <ele>1017.05</ele>
        <time>2019-05-21T09:45:30Z</time>
      </trkpt>
      <trkpt lat="44.768046922981739" lon="9.206865588203073">
        <ele>1016.83</ele>
        <time>2019-05-21T09:45:43Z</time>
      </trkpt>
      <trkpt lat="44.768056059256196" lon="9.206829629838467">
        <ele>1016.87</ele>
        <time>2019-05-21T09:46:03Z</time>
      </trkpt>
      <trkpt lat="44.768063267692924" lon="9.206812866032124">
        <ele>1016.9</ele>
        <time>2019-05-21T09:46:26Z</time>
      </trkpt>
      <trkpt lat="44.767964947968721" lon="9.206803478300571">
        <ele>1017.9299999999999</ele>
        <time>2019-05-21T09:46:41Z</time>
      </trkpt>
      <trkpt lat="44.76786176674068" lon="9.206788893789053">
        <ele>1020.13</ele>
        <time>2019-05-21T09:46:56Z</time>
      </trkpt>
      <trkpt lat="44.767728410661221" lon="9.206753941252828">
        <ele>1022.98</ele>
        <time>2019-05-21T09:47:12Z</time>
      </trkpt>
      <trkpt lat="44.767619865015149" lon="9.206785121932626">
        <ele>1025.4100000000001</ele>
        <time>2019-05-21T09:47:28Z</time>
      </trkpt>
      <trkpt lat="44.767531603574753" lon="9.206877993419766">
        <ele>1026.72</ele>
        <time>2019-05-21T09:47:45Z</time>
      </trkpt>
      <trkpt lat="44.767456836998463" lon="9.206969607621431">
        <ele>1028.3199999999999</ele>
        <time>2019-05-21T09:48:01Z</time>
      </trkpt>
      <trkpt lat="44.767375281080604" lon="9.207039093598723">
        <ele>1030.72</ele>
        <time>2019-05-21T09:48:17Z</time>
      </trkpt>
      <trkpt lat="44.767264220863581" lon="9.207063484936953">
        <ele>1032.98</ele>
        <time>2019-05-21T09:48:34Z</time>
      </trkpt>
      <trkpt lat="44.767149891704321" lon="9.207111429423094">
        <ele>1035.21</ele>
        <time>2019-05-21T09:48:52Z</time>
      </trkpt>
      <trkpt lat="44.766997341066599" lon="9.207099610939622">
        <ele>1037.0799999999999</ele>
        <time>2019-05-21T09:49:08Z</time>
      </trkpt>
      <trkpt lat="44.766926513984799" lon="9.207014534622431">
        <ele>1039.8800000000001</ele>
        <time>2019-05-21T09:49:26Z</time>
      </trkpt>
      <trkpt lat="44.766861638054252" lon="9.206901462748647">
        <ele>1042.1900000000001</ele>
        <time>2019-05-21T09:49:44Z</time>
      </trkpt>
      <trkpt lat="44.766800366342068" lon="9.206744972616434">
        <ele>1044.8699999999999</ele>
        <time>2019-05-21T09:50:02Z</time>
      </trkpt>
      <trkpt lat="44.766699029132724" lon="9.206649921834469">
        <ele>1046.6400000000001</ele>
        <time>2019-05-21T09:50:17Z</time>
      </trkpt>
      <trkpt lat="44.766618814319372" lon="9.206688478589058">
        <ele>1049.3</ele>
        <time>2019-05-21T09:50:34Z</time>
      </trkpt>
      <trkpt lat="44.766532145440578" lon="9.206686802208424">
        <ele>1051.8199999999999</ele>
        <time>2019-05-21T09:50:51Z</time>
      </trkpt>
      <trkpt lat="44.766493756324053" lon="9.206669954583049">
        <ele>1054</ele>
        <time>2019-05-21T09:51:05Z</time>
      </trkpt>
      <trkpt lat="44.766399040818214" lon="9.206671379506588">
        <ele>1057.1400000000001</ele>
        <time>2019-05-21T09:51:25Z</time>
      </trkpt>
      <trkpt lat="44.766340283676982" lon="9.206682611256838">
        <ele>1059.22</ele>
        <time>2019-05-21T09:51:39Z</time>
      </trkpt>
      <trkpt lat="44.766263086348772" lon="9.206723095849156">
        <ele>1061.8299999999999</ele>
        <time>2019-05-21T09:51:56Z</time>
      </trkpt>
      <trkpt lat="44.766119504347444" lon="9.206764418631792">
        <ele>1064.04</ele>
        <time>2019-05-21T09:52:13Z</time>
      </trkpt>
      <trkpt lat="44.766117744147778" lon="9.206929374486208">
        <ele>1066.6900000000001</ele>
        <time>2019-05-21T09:52:32Z</time>
      </trkpt>
      <trkpt lat="44.766173316165805" lon="9.207004895433784">
        <ele>1069.21</ele>
        <time>2019-05-21T09:52:49Z</time>
      </trkpt>
      <trkpt lat="44.76623316295445" lon="9.207112519070506">
        <ele>1071.4100000000001</ele>
        <time>2019-05-21T09:53:04Z</time>
      </trkpt>
      <trkpt lat="44.766294518485665" lon="9.207213940098882">
        <ele>1073.6800000000001</ele>
        <time>2019-05-21T09:53:19Z</time>
      </trkpt>
      <trkpt lat="44.766341960057616" lon="9.207277474924922">
        <ele>1076.3299999999999</ele>
        <time>2019-05-21T09:53:35Z</time>
      </trkpt>
      <trkpt lat="44.766373643651605" lon="9.207368334755302">
        <ele>1079.4200000000001</ele>
        <time>2019-05-21T09:53:54Z</time>
      </trkpt>
      <trkpt lat="44.766375655308366" lon="9.207450812682509">
        <ele>1082.47</ele>
        <time>2019-05-21T09:54:11Z</time>
      </trkpt>
      <trkpt lat="44.766368111595511" lon="9.207538152113557">
        <ele>1085.26</ele>
        <time>2019-05-21T09:54:28Z</time>
      </trkpt>
      <trkpt lat="44.76632846519351" lon="9.207618869841099">
        <ele>1087.7</ele>
        <time>2019-05-21T09:54:43Z</time>
      </trkpt>
      <trkpt lat="44.766305414959788" lon="9.207679973915219">
        <ele>1090.71</ele>
        <time>2019-05-21T09:54:58Z</time>
      </trkpt>
      <trkpt lat="44.766281442716718" lon="9.207767816260457">
        <ele>1092.6800000000001</ele>
        <time>2019-05-21T09:55:12Z</time>
      </trkpt>
      <trkpt lat="44.766243472695351" lon="9.207827663049102">
        <ele>1095.3299999999999</ele>
        <time>2019-05-21T09:55:26Z</time>
      </trkpt>
      <trkpt lat="44.766195025295019" lon="9.207903435453773">
        <ele>1097.8099999999999</ele>
        <time>2019-05-21T09:55:42Z</time>
      </trkpt>
      <trkpt lat="44.766128892078996" lon="9.207967976108193">
        <ele>1100.9200000000001</ele>
        <time>2019-05-21T09:55:57Z</time>
      </trkpt>
      <trkpt lat="44.766053203493357" lon="9.207978788763285">
        <ele>1103.1800000000001</ele>
        <time>2019-05-21T09:56:13Z</time>
      </trkpt>
      <trkpt lat="44.766023112460971" lon="9.207980800420046">
        <ele>1103.53</ele>
        <time>2019-05-21T09:56:33Z</time>
      </trkpt>
      <trkpt lat="44.765998050570488" lon="9.207977196201682">
        <ele>1103.1099999999999</ele>
        <time>2019-05-21T09:56:57Z</time>
      </trkpt>
      <trkpt lat="44.765961840748787" lon="9.207936376333237">
        <ele>1103.8599999999999</ele>
        <time>2019-05-21T09:57:14Z</time>
      </trkpt>
      <trkpt lat="44.765948513522744" lon="9.207945009693503">
        <ele>1105.47</ele>
        <time>2019-05-21T09:57:33Z</time>
      </trkpt>
      <trkpt lat="44.765934096649289" lon="9.208013489842415">
        <ele>1108.51</ele>
        <time>2019-05-21T09:57:50Z</time>
      </trkpt>
      <trkpt lat="44.765889504924417" lon="9.208073252812028">
        <ele>1111.7</ele>
        <time>2019-05-21T09:58:07Z</time>
      </trkpt>
      <trkpt lat="44.765827897936106" lon="9.208128908649087">
        <ele>1114.28</ele>
        <time>2019-05-21T09:58:23Z</time>
      </trkpt>
      <trkpt lat="44.765775259584188" lon="9.208154724910855">
        <ele>1117.1300000000001</ele>
        <time>2019-05-21T09:58:39Z</time>
      </trkpt>
      <trkpt lat="44.765699235722423" lon="9.208186157047749">
        <ele>1119.3900000000001</ele>
        <time>2019-05-21T09:58:55Z</time>
      </trkpt>
      <trkpt lat="44.765639724209905" lon="9.208245584741235">
        <ele>1121.3499999999999</ele>
        <time>2019-05-21T09:59:11Z</time>
      </trkpt>
      <trkpt lat="44.765559509396553" lon="9.208355974406004">
        <ele>1123.5999999999999</ele>
        <time>2019-05-21T09:59:29Z</time>
      </trkpt>
      <trkpt lat="44.765480719506741" lon="9.208438955247402">
        <ele>1126.1900000000001</ele>
        <time>2019-05-21T09:59:47Z</time>
      </trkpt>
      <trkpt lat="44.765392541885376" lon="9.208587482571602">
        <ele>1128.03</ele>
        <time>2019-05-21T10:00:06Z</time>
      </trkpt>
      <trkpt lat="44.765271842479706" lon="9.208600977435708">
        <ele>1129.71</ele>
        <time>2019-05-21T10:00:23Z</time>
      </trkpt>
      <trkpt lat="44.765202691778541" lon="9.208476757630706">
        <ele>1130.5899999999999</ele>
        <time>2019-05-21T10:00:39Z</time>
      </trkpt>
      <trkpt lat="44.765142174437642" lon="9.208381287753582">
        <ele>1132</ele>
        <time>2019-05-21T10:00:51Z</time>
      </trkpt>
      <trkpt lat="44.765085009858012" lon="9.208253379911184">
        <ele>1133.6500000000001</ele>
        <time>2019-05-21T10:01:05Z</time>
      </trkpt>
      <trkpt lat="44.765000771731138" lon="9.208078784868121">
        <ele>1132.9100000000001</ele>
        <time>2019-05-21T10:01:21Z</time>
      </trkpt>
      <trkpt lat="44.764926927164197" lon="9.207976693287492">
        <ele>1132.6300000000001</ele>
        <time>2019-05-21T10:01:34Z</time>
      </trkpt>
      <trkpt lat="44.764822656288743" lon="9.207920702174306">
        <ele>1133.3199999999999</ele>
        <time>2019-05-21T10:01:49Z</time>
      </trkpt>
      <trkpt lat="44.764695167541504" lon="9.207855742424727">
        <ele>1133.7</ele>
        <time>2019-05-21T10:02:05Z</time>
      </trkpt>
      <trkpt lat="44.764577653259039" lon="9.207799416035414">
        <ele>1134.6300000000001</ele>
        <time>2019-05-21T10:02:19Z</time>
      </trkpt>
      <trkpt lat="44.764457708224654" lon="9.207783825695515">
        <ele>1137.1800000000001</ele>
        <time>2019-05-21T10:02:37Z</time>
      </trkpt>
      <trkpt lat="44.764300463721156" lon="9.207760524004698">
        <ele>1137.9400000000001</ele>
        <time>2019-05-21T10:02:56Z</time>
      </trkpt>
      <trkpt lat="44.764133831486106" lon="9.207777287811041">
        <ele>1137.6500000000001</ele>
        <time>2019-05-21T10:03:12Z</time>
      </trkpt>
      <trkpt lat="44.76402604021132" lon="9.207689613103867">
        <ele>1137.79</ele>
        <time>2019-05-21T10:03:27Z</time>
      </trkpt>
      <trkpt lat="44.7638682089746" lon="9.207584671676159">
        <ele>1137.54</ele>
        <time>2019-05-21T10:03:42Z</time>
      </trkpt>
      <trkpt lat="44.76377097889781" lon="9.207536056637764">
        <ele>1137.0599999999999</ele>
        <time>2019-05-21T10:03:51Z</time>
      </trkpt>
      <trkpt lat="44.763657320290804" lon="9.207444442436099">
        <ele>1136.72</ele>
        <time>2019-05-21T10:04:03Z</time>
      </trkpt>
      <trkpt lat="44.76356964558363" lon="9.207323826849461">
        <ele>1136.47</ele>
        <time>2019-05-21T10:04:14Z</time>
      </trkpt>
      <trkpt lat="44.763474846258759" lon="9.207214275375009">
        <ele>1135.03</ele>
        <time>2019-05-21T10:04:26Z</time>
      </trkpt>
      <trkpt lat="44.763532262295485" lon="9.207010008394718">
        <ele>1135.1800000000001</ele>
        <time>2019-05-21T10:04:40Z</time>
      </trkpt>
      <trkpt lat="44.76353301666677" lon="9.206941528245807">
        <ele>1135.05</ele>
        <time>2019-05-21T10:04:53Z</time>
      </trkpt>
      <trkpt lat="44.763509463518858" lon="9.206901043653488">
        <ele>1136.75</ele>
        <time>2019-05-21T10:05:09Z</time>
      </trkpt>
      <trkpt lat="44.763533771038055" lon="9.206792414188385">
        <ele>1139.3</ele>
        <time>2019-05-21T10:05:27Z</time>
      </trkpt>
      <trkpt lat="44.763557156547904" lon="9.206683952361345">
        <ele>1141.3099999999999</ele>
        <time>2019-05-21T10:05:44Z</time>
      </trkpt>
      <trkpt lat="44.763583559542894" lon="9.206617400050163">
        <ele>1142.6900000000001</ele>
        <time>2019-05-21T10:05:58Z</time>
      </trkpt>
      <trkpt lat="44.763621781021357" lon="9.206525618210435">
        <ele>1144.8900000000001</ele>
        <time>2019-05-21T10:06:14Z</time>
      </trkpt>
      <trkpt lat="44.763616751879454" lon="9.206451941281557">
        <ele>1146.0699999999999</ele>
        <time>2019-05-21T10:06:31Z</time>
      </trkpt>
      <trkpt lat="44.763584230095148" lon="9.206447498872876">
        <ele>1147.55</ele>
        <time>2019-05-21T10:06:44Z</time>
      </trkpt>
      <trkpt lat="44.763600658625364" lon="9.206473482772708">
        <ele>1147.9400000000001</ele>
        <time>2019-05-21T10:06:59Z</time>
      </trkpt>
      <trkpt lat="44.763614321127534" lon="9.206472309306264">
        <ele>1147.1300000000001</ele>
        <time>2019-05-21T10:07:20Z</time>
      </trkpt>
      <trkpt lat="44.763617506250739" lon="9.206472812220454">
        <ele>1147.3599999999999</ele>
        <time>2019-05-21T10:07:40Z</time>
      </trkpt>
      <trkpt lat="44.763614237308502" lon="9.206482451409102">
        <ele>1147.51</ele>
        <time>2019-05-21T10:07:58Z</time>
      </trkpt>
      <trkpt lat="44.763617422431707" lon="9.206503825262189">
        <ele>1147.8900000000001</ele>
        <time>2019-05-21T10:08:18Z</time>
      </trkpt>
      <trkpt lat="44.763613315299153" lon="9.206510614603758">
        <ele>1147.3900000000001</ele>
        <time>2019-05-21T10:08:36Z</time>
      </trkpt>
      <trkpt lat="44.763626893982291" lon="9.206500891596079">
        <ele>1147.9100000000001</ele>
        <time>2019-05-21T10:09:01Z</time>
      </trkpt>
      <trkpt lat="44.763620607554913" lon="9.20654783025384">
        <ele>1148.3199999999999</ele>
        <time>2019-05-21T10:09:26Z</time>
      </trkpt>
      <trkpt lat="44.763589762151241" lon="9.206525450572372">
        <ele>1148.8099999999999</ele>
        <time>2019-05-21T10:09:46Z</time>
      </trkpt>
      <trkpt lat="44.763541482388973" lon="9.206534335389733">
        <ele>1149.74</ele>
        <time>2019-05-21T10:10:07Z</time>
      </trkpt>
      <trkpt lat="44.763491693884134" lon="9.206572053954005">
        <ele>1151.5699999999999</ele>
        <time>2019-05-21T10:10:20Z</time>
      </trkpt>
      <trkpt lat="44.763434194028378" lon="9.206567108631134">
        <ele>1152.5</ele>
        <time>2019-05-21T10:10:32Z</time>
      </trkpt>
      <trkpt lat="44.763340568169951" lon="9.206644305959344">
        <ele>1154.8499999999999</ele>
        <time>2019-05-21T10:10:48Z</time>
      </trkpt>
      <trkpt lat="44.763254150748253" lon="9.206695351749659">
        <ele>1156.9300000000001</ele>
        <time>2019-05-21T10:11:04Z</time>
      </trkpt>
      <trkpt lat="44.763181395828724" lon="9.206707505509257">
        <ele>1159.29</ele>
        <time>2019-05-21T10:11:19Z</time>
      </trkpt>
      <trkpt lat="44.763082573190331" lon="9.206759640946984">
        <ele>1161.5899999999999</ele>
        <time>2019-05-21T10:11:37Z</time>
      </trkpt>
      <trkpt lat="44.763018619269133" lon="9.206801382824779">
        <ele>1163.4000000000001</ele>
        <time>2019-05-21T10:11:51Z</time>
      </trkpt>
      <trkpt lat="44.762936728075147" lon="9.206851087510586">
        <ele>1166.0999999999999</ele>
        <time>2019-05-21T10:12:08Z</time>
      </trkpt>
      <trkpt lat="44.762885179370642" lon="9.206938175484538">
        <ele>1167.5599999999999</ele>
        <time>2019-05-21T10:12:19Z</time>
      </trkpt>
      <trkpt lat="44.762823153287172" lon="9.207051079720259">
        <ele>1170.03</ele>
        <time>2019-05-21T10:12:38Z</time>
      </trkpt>
      <trkpt lat="44.762755846604705" lon="9.207112519070506">
        <ele>1172.48</ele>
        <time>2019-05-21T10:12:55Z</time>
      </trkpt>
      <trkpt lat="44.762682504951954" lon="9.207133390009403">
        <ele>1174.96</ele>
        <time>2019-05-21T10:13:12Z</time>
      </trkpt>
      <trkpt lat="44.762616287916899" lon="9.207144537940621">
        <ele>1176.5799999999999</ele>
        <time>2019-05-21T10:13:25Z</time>
      </trkpt>
      <trkpt lat="44.762529619038105" lon="9.207173371687532">
        <ele>1179.6600000000001</ele>
        <time>2019-05-21T10:13:43Z</time>
      </trkpt>
      <trkpt lat="44.762491816654801" lon="9.207220813259482">
        <ele>1181.47</ele>
        <time>2019-05-21T10:13:55Z</time>
      </trkpt>
      <trkpt lat="44.762416044250131" lon="9.207257609814405">
        <ele>1184.29</ele>
        <time>2019-05-21T10:14:14Z</time>
      </trkpt>
      <trkpt lat="44.762367848306894" lon="9.207301698625088">
        <ele>1186.8599999999999</ele>
        <time>2019-05-21T10:14:30Z</time>
      </trkpt>
      <trkpt lat="44.762313114479184" lon="9.207334304228425">
        <ele>1188.51</ele>
        <time>2019-05-21T10:14:45Z</time>
      </trkpt>
      <trkpt lat="44.762262990698218" lon="9.207426086068153">
        <ele>1191.0799999999999</ele>
        <time>2019-05-21T10:15:02Z</time>
      </trkpt>
      <trkpt lat="44.762189481407404" lon="9.207448968663812">
        <ele>1193.54</ele>
        <time>2019-05-21T10:15:19Z</time>
      </trkpt>
      <trkpt lat="44.762136088684201" lon="9.207515772432089">
        <ele>1196.1199999999999</ele>
        <time>2019-05-21T10:15:38Z</time>
      </trkpt>
      <trkpt lat="44.762106416746974" lon="9.207604704424739">
        <ele>1198.3</ele>
        <time>2019-05-21T10:15:52Z</time>
      </trkpt>
      <trkpt lat="44.762097951024771" lon="9.207695312798023">
        <ele>1200.99</ele>
        <time>2019-05-21T10:16:09Z</time>
      </trkpt>
      <trkpt lat="44.762050425633788" lon="9.207755830138922">
        <ele>1204.02</ele>
        <time>2019-05-21T10:16:26Z</time>
      </trkpt>
      <trkpt lat="44.762041959911585" lon="9.207752728834748">
        <ele>1204.4400000000001</ele>
        <time>2019-05-21T10:16:30Z</time>
      </trkpt>
      <trkpt lat="44.7619254514575" lon="9.207772677764297">
        <ele>1206.05</ele>
        <time>2019-05-21T10:16:48Z</time>
      </trkpt>
      <trkpt lat="44.761846410110593" lon="9.207748705521226">
        <ele>1207.78</ele>
        <time>2019-05-21T10:17:01Z</time>
      </trkpt>
      <trkpt lat="44.761690255254507" lon="9.207673436030746">
        <ele>1208.3</ele>
        <time>2019-05-21T10:17:19Z</time>
      </trkpt>
      <trkpt lat="44.761578859761357" lon="9.207567488774657">
        <ele>1208.46</ele>
        <time>2019-05-21T10:17:31Z</time>
      </trkpt>
      <trkpt lat="44.761463357135653" lon="9.207526249811053">
        <ele>1209.95</ele>
        <time>2019-05-21T10:17:48Z</time>
      </trkpt>
      <trkpt lat="44.761396050453186" lon="9.207578469067812">
        <ele>1211.8299999999999</ele>
        <time>2019-05-21T10:18:04Z</time>
      </trkpt>
      <trkpt lat="44.761334611102939" lon="9.207647787407041">
        <ele>1214.0799999999999</ele>
        <time>2019-05-21T10:18:22Z</time>
      </trkpt>
      <trkpt lat="44.761292533949018" lon="9.207727666944265">
        <ele>1214.3499999999999</ele>
        <time>2019-05-21T10:18:37Z</time>
      </trkpt>
      <trkpt lat="44.76129362359643" lon="9.20780167914927">
        <ele>1214.73</ele>
        <time>2019-05-21T10:18:52Z</time>
      </trkpt>
      <trkpt lat="44.761265544220805" lon="9.207908045500517">
        <ele>1215.3099999999999</ele>
        <time>2019-05-21T10:19:09Z</time>
      </trkpt>
      <trkpt lat="44.761234950274229" lon="9.20795414596796">
        <ele>1217.0999999999999</ele>
        <time>2019-05-21T10:19:24Z</time>
      </trkpt>
      <trkpt lat="44.76112456060946" lon="9.208000414073467">
        <ele>1217.73</ele>
        <time>2019-05-21T10:19:40Z</time>
      </trkpt>
      <trkpt lat="44.760978631675243" lon="9.208020195364952">
        <ele>1217.8800000000001</ele>
        <time>2019-05-21T10:19:53Z</time>
      </trkpt>
      <trkpt lat="44.760851142928004" lon="9.208086831495166">
        <ele>1218.96</ele>
        <time>2019-05-21T10:20:06Z</time>
      </trkpt>
      <trkpt lat="44.760769084095955" lon="9.208052717149258">
        <ele>1220.02</ele>
        <time>2019-05-21T10:20:20Z</time>
      </trkpt>
      <trkpt lat="44.76074879989028" lon="9.20807627029717">
        <ele>1219.9000000000001</ele>
        <time>2019-05-21T10:20:24Z</time>
      </trkpt>
      <trkpt lat="44.760653330013156" lon="9.208012735471129">
        <ele>1219.99</ele>
        <time>2019-05-21T10:20:37Z</time>
      </trkpt>
      <trkpt lat="44.760601697489619" lon="9.208056153729558">
        <ele>1219.8699999999999</ele>
        <time>2019-05-21T10:20:56Z</time>
      </trkpt>
      <trkpt lat="44.760601948946714" lon="9.208041066303849">
        <ele>1219.3499999999999</ele>
        <time>2019-05-21T10:21:14Z</time>
      </trkpt>
      <trkpt lat="44.76062667556107" lon="9.208032013848424">
        <ele>1219.28</ele>
        <time>2019-05-21T10:21:38Z</time>
      </trkpt>
      <trkpt lat="44.76058267056942" lon="9.207990523427725">
        <ele>1219.6199999999999</ele>
        <time>2019-05-21T10:21:55Z</time>
      </trkpt>
      <trkpt lat="44.760486949235201" lon="9.207919193431735">
        <ele>1221.79</ele>
        <time>2019-05-21T10:22:11Z</time>
      </trkpt>
      <trkpt lat="44.760400867089629" lon="9.207854317501187">
        <ele>1224.47</ele>
        <time>2019-05-21T10:22:27Z</time>
      </trkpt>
      <trkpt lat="44.760337499901652" lon="9.207762619480491">
        <ele>1226.3900000000001</ele>
        <time>2019-05-21T10:22:44Z</time>
      </trkpt>
      <trkpt lat="44.760258626192808" lon="9.207744430750608">
        <ele>1228.8299999999999</ele>
        <time>2019-05-21T10:23:01Z</time>
      </trkpt>
      <trkpt lat="44.76010967977345" lon="9.207662791013718">
        <ele>1230.8199999999999</ele>
        <time>2019-05-21T10:23:19Z</time>
      </trkpt>
      <trkpt lat="44.760009935125709" lon="9.207627503201366">
        <ele>1232.01</ele>
        <time>2019-05-21T10:23:34Z</time>
      </trkpt>
      <trkpt lat="44.760004822164774" lon="9.207735797390342">
        <ele>1233.5</ele>
        <time>2019-05-21T10:23:48Z</time>
      </trkpt>
      <trkpt lat="44.759987555444241" lon="9.207865297794342">
        <ele>1235.6500000000001</ele>
        <time>2019-05-21T10:24:03Z</time>
      </trkpt>
      <trkpt lat="44.75995134562254" lon="9.207999240607023">
        <ele>1238.3</ele>
        <time>2019-05-21T10:24:22Z</time>
      </trkpt>
      <trkpt lat="44.759893845766783" lon="9.208085741847754">
        <ele>1241.03</ele>
        <time>2019-05-21T10:24:39Z</time>
      </trkpt>
      <trkpt lat="44.759824862703681" lon="9.208228904753923">
        <ele>1242.1500000000001</ele>
        <time>2019-05-21T10:24:52Z</time>
      </trkpt>
      <trkpt lat="44.759786054491997" lon="9.208385394886136">
        <ele>1244.52</ele>
        <time>2019-05-21T10:25:08Z</time>
      </trkpt>
      <trkpt lat="44.759728973731399" lon="9.20854339376092">
        <ele>1247.54</ele>
        <time>2019-05-21T10:25:26Z</time>
      </trkpt>
      <trkpt lat="44.759666360914707" lon="9.208673564717174">
        <ele>1249.9200000000001</ele>
        <time>2019-05-21T10:25:43Z</time>
      </trkpt>
      <trkpt lat="44.759673988446593" lon="9.208795856684446">
        <ele>1251.01</ele>
        <time>2019-05-21T10:25:56Z</time>
      </trkpt>
      <trkpt lat="44.759680945426226" lon="9.208769872784615">
        <ele>1250.3</ele>
        <time>2019-05-21T10:26:13Z</time>
      </trkpt>
      <trkpt lat="44.759702989831567" lon="9.20875939540565">
        <ele>1251.1099999999999</ele>
        <time>2019-05-21T10:26:39Z</time>
      </trkpt>
      <trkpt lat="44.759710617363453" lon="9.20878135599196">
        <ele>1250.74</ele>
        <time>2019-05-21T10:26:55Z</time>
      </trkpt>
      <trkpt lat="44.759709276258945" lon="9.208783702924848">
        <ele>1246.6900000000001</ele>
        <time>2019-05-21T10:27:09Z</time>
      </trkpt>
      <trkpt lat="44.759709276258945" lon="9.208784373477101">
        <ele>1250.4100000000001</ele>
        <time>2019-05-21T10:27:10Z</time>
      </trkpt>
      <trkpt lat="44.759705336764455" lon="9.208787055686116">
        <ele>1253.8299999999999</ele>
        <time>2019-05-21T10:27:13Z</time>
      </trkpt>
      <trkpt lat="44.759704414755106" lon="9.208783870562911">
        <ele>1250.79</ele>
        <time>2019-05-21T10:27:15Z</time>
      </trkpt>
      <trkpt lat="44.75970508530736" lon="9.208781691268086">
        <ele>1250.8</ele>
        <time>2019-05-21T10:27:16Z</time>
      </trkpt>
      <trkpt lat="44.759714305400848" lon="9.208744978532195">
        <ele>1251.55</ele>
        <time>2019-05-21T10:27:38Z</time>
      </trkpt>
      <trkpt lat="44.759712796658278" lon="9.208767777308822">
        <ele>1251.27</ele>
        <time>2019-05-21T10:27:54Z</time>
      </trkpt>
      <trkpt lat="44.759704079478979" lon="9.208787558600307">
        <ele>1251.1900000000001</ele>
        <time>2019-05-21T10:28:18Z</time>
      </trkpt>
      <trkpt lat="44.759708940982819" lon="9.208767777308822">
        <ele>1250.1500000000001</ele>
        <time>2019-05-21T10:28:31Z</time>
      </trkpt>
      <trkpt lat="44.759736098349094" lon="9.208706254139543">
        <ele>1250.28</ele>
        <time>2019-05-21T10:29:00Z</time>
      </trkpt>
      <trkpt lat="44.759746659547091" lon="9.208708181977272">
        <ele>1251.6900000000001</ele>
        <time>2019-05-21T10:29:17Z</time>
      </trkpt>
      <trkpt lat="44.759739618748426" lon="9.208690244704485">
        <ele>1251.8399999999999</ele>
        <time>2019-05-21T10:29:36Z</time>
      </trkpt>
      <trkpt lat="44.759738696739078" lon="9.208668367937207">
        <ele>1251.8199999999999</ele>
        <time>2019-05-21T10:29:50Z</time>
      </trkpt>
      <trkpt lat="44.759739115834236" lon="9.208683874458075">
        <ele>1252.1400000000001</ele>
        <time>2019-05-21T10:30:13Z</time>
      </trkpt>
      <trkpt lat="44.759750012308359" lon="9.208709774538875">
        <ele>1252.4100000000001</ele>
        <time>2019-05-21T10:30:39Z</time>
      </trkpt>
      <trkpt lat="44.759761244058609" lon="9.208714636042714">
        <ele>1252.72</ele>
        <time>2019-05-21T10:30:58Z</time>
      </trkpt>
      <trkpt lat="44.759794687852263" lon="9.208776159211993">
        <ele>1252.53</ele>
        <time>2019-05-21T10:31:12Z</time>
      </trkpt>
      <trkpt lat="44.759812206029892" lon="9.208835503086448">
        <ele>1252.6600000000001</ele>
        <time>2019-05-21T10:31:24Z</time>
      </trkpt>
      <trkpt lat="44.759838525205851" lon="9.208875317126513">
        <ele>1252.3199999999999</ele>
        <time>2019-05-21T10:31:35Z</time>
      </trkpt>
      <trkpt lat="44.759841710329056" lon="9.208944551646709">
        <ele>1252.05</ele>
        <time>2019-05-21T10:31:48Z</time>
      </trkpt>
      <trkpt lat="44.759879596531391" lon="9.209064161404967">
        <ele>1251.9300000000001</ele>
        <time>2019-05-21T10:31:59Z</time>
      </trkpt>
      <trkpt lat="44.7598912473768" lon="9.209088133648038">
        <ele>1251.78</ele>
        <time>2019-05-21T10:32:01Z</time>
      </trkpt>
      <trkpt lat="44.759984202682972" lon="9.209264237433672">
        <ele>1251.6199999999999</ele>
        <time>2019-05-21T10:32:14Z</time>
      </trkpt>
      <trkpt lat="44.760085958987474" lon="9.209400108084083">
        <ele>1251.8499999999999</ele>
        <time>2019-05-21T10:32:26Z</time>
      </trkpt>
      <trkpt lat="44.760151254013181" lon="9.209513766691089">
        <ele>1252.9300000000001</ele>
        <time>2019-05-21T10:32:37Z</time>
      </trkpt>
      <trkpt lat="44.760216129943728" lon="9.209615439176559">
        <ele>1253.6900000000001</ele>
        <time>2019-05-21T10:32:47Z</time>
      </trkpt>
      <trkpt lat="44.760278323665261" lon="9.209767570719123">
        <ele>1255.7</ele>
        <time>2019-05-21T10:33:01Z</time>
      </trkpt>
      <trkpt lat="44.760300619527698" lon="9.209888856858015">
        <ele>1257.4000000000001</ele>
        <time>2019-05-21T10:33:15Z</time>
      </trkpt>
      <trkpt lat="44.760325094684958" lon="9.210076862946153">
        <ele>1258.71</ele>
        <time>2019-05-21T10:33:28Z</time>
      </trkpt>
      <trkpt lat="44.76027337834239" lon="9.210180211812258">
        <ele>1259.96</ele>
        <time>2019-05-21T10:33:42Z</time>
      </trkpt>
      <trkpt lat="44.760152762755752" lon="9.210219774395227">
        <ele>1260.77</ele>
        <time>2019-05-21T10:33:59Z</time>
      </trkpt>
      <trkpt lat="44.760071877390146" lon="9.210322285071015">
        <ele>1261.76</ele>
        <time>2019-05-21T10:34:13Z</time>
      </trkpt>
      <trkpt lat="44.759985879063606" lon="9.210409289225936">
        <ele>1262.97</ele>
        <time>2019-05-21T10:34:28Z</time>
      </trkpt>
      <trkpt lat="44.759918069466949" lon="9.210483133792877">
        <ele>1264.5</ele>
        <time>2019-05-21T10:34:45Z</time>
      </trkpt>
      <trkpt lat="44.759819582104683" lon="9.210557565093041">
        <ele>1266.3299999999999</ele>
        <time>2019-05-21T10:35:02Z</time>
      </trkpt>
      <trkpt lat="44.759689830243587" lon="9.210640462115407">
        <ele>1268.1800000000001</ele>
        <time>2019-05-21T10:35:18Z</time>
      </trkpt>
      <trkpt lat="44.759582709521055" lon="9.210614142939448">
        <ele>1269.96</ele>
        <time>2019-05-21T10:35:33Z</time>
      </trkpt>
      <trkpt lat="44.7594612557441" lon="9.210696620866656">
        <ele>1271.75</ele>
        <time>2019-05-21T10:35:51Z</time>
      </trkpt>
      <trkpt lat="44.759333934634924" lon="9.210743810981512">
        <ele>1273.72</ele>
        <time>2019-05-21T10:36:08Z</time>
      </trkpt>
      <trkpt lat="44.759231340140104" lon="9.210802316665649">
        <ele>1274.78</ele>
        <time>2019-05-21T10:36:22Z</time>
      </trkpt>
      <trkpt lat="44.759139558300376" lon="9.210883202031255">
        <ele>1276.6199999999999</ele>
        <time>2019-05-21T10:36:38Z</time>
      </trkpt>
      <trkpt lat="44.75905817002058" lon="9.210873730480671">
        <ele>1278.03</ele>
        <time>2019-05-21T10:36:54Z</time>
      </trkpt>
      <trkpt lat="44.758958257734776" lon="9.210940031334758">
        <ele>1279.52</ele>
        <time>2019-05-21T10:37:10Z</time>
      </trkpt>
      <trkpt lat="44.758880641311407" lon="9.21098604798317">
        <ele>1281.8299999999999</ele>
        <time>2019-05-21T10:37:26Z</time>
      </trkpt>
      <trkpt lat="44.758812077343464" lon="9.211005326360464">
        <ele>1284.1400000000001</ele>
        <time>2019-05-21T10:37:44Z</time>
      </trkpt>
      <trkpt lat="44.758771928027272" lon="9.211017144843936">
        <ele>1284.97</ele>
        <time>2019-05-21T10:37:52Z</time>
      </trkpt>
      <trkpt lat="44.758685007691383" lon="9.211058299988508">
        <ele>1286.5999999999999</ele>
        <time>2019-05-21T10:38:08Z</time>
      </trkpt>
      <trkpt lat="44.758587190881371" lon="9.211095599457622">
        <ele>1288.5799999999999</ele>
        <time>2019-05-21T10:38:23Z</time>
      </trkpt>
      <trkpt lat="44.758503874763846" lon="9.211129043251276">
        <ele>1290.04</ele>
        <time>2019-05-21T10:38:36Z</time>
      </trkpt>
      <trkpt lat="44.758347552269697" lon="9.211243120953441">
        <ele>1292.3699999999999</ele>
        <time>2019-05-21T10:38:54Z</time>
      </trkpt>
      <trkpt lat="44.758203132078052" lon="9.211394414305687">
        <ele>1294.6500000000001</ele>
        <time>2019-05-21T10:39:11Z</time>
      </trkpt>
      <trkpt lat="44.75810632109642" lon="9.211484352126718">
        <ele>1296.6099999999999</ele>
        <time>2019-05-21T10:39:26Z</time>
      </trkpt>
      <trkpt lat="44.758011270314455" lon="9.211518717929721">
        <ele>1299.27</ele>
        <time>2019-05-21T10:39:44Z</time>
      </trkpt>
      <trkpt lat="44.757931642234325" lon="9.211524585261941">
        <ele>1300.73</ele>
        <time>2019-05-21T10:39:58Z</time>
      </trkpt>
      <trkpt lat="44.757830807939172" lon="9.21154067851603">
        <ele>1302.79</ele>
        <time>2019-05-21T10:40:16Z</time>
      </trkpt>
      <trkpt lat="44.757676580920815" lon="9.211617792025209">
        <ele>1304.28</ele>
        <time>2019-05-21T10:40:30Z</time>
      </trkpt>
      <trkpt lat="44.757551355287433" lon="9.211641680449247">
        <ele>1305.45</ele>
        <time>2019-05-21T10:40:45Z</time>
      </trkpt>
      <trkpt lat="44.757468542084098" lon="9.211631873622537">
        <ele>1306.5899999999999</ele>
        <time>2019-05-21T10:40:59Z</time>
      </trkpt>
      <trkpt lat="44.757374078035355" lon="9.211641093716025">
        <ele>1307.79</ele>
        <time>2019-05-21T10:41:14Z</time>
      </trkpt>
      <trkpt lat="44.757272992283106" lon="9.211589293554425">
        <ele>1308.9200000000001</ele>
        <time>2019-05-21T10:41:28Z</time>
      </trkpt>
      <trkpt lat="44.757145419716835" lon="9.21161787584424">
        <ele>1310.8099999999999</ele>
        <time>2019-05-21T10:41:44Z</time>
      </trkpt>
      <trkpt lat="44.756984319537878" lon="9.211635142564774">
        <ele>1311.5599999999999</ele>
        <time>2019-05-21T10:42:02Z</time>
      </trkpt>
      <trkpt lat="44.756848951801658" lon="9.211656013503671">
        <ele>1311.77</ele>
        <time>2019-05-21T10:42:19Z</time>
      </trkpt>
      <trkpt lat="44.756707129999995" lon="9.21165500767529">
        <ele>1312.3199999999999</ele>
        <time>2019-05-21T10:42:36Z</time>
      </trkpt>
      <trkpt lat="44.756580647081137" lon="9.211716111749411">
        <ele>1312.8900000000001</ele>
        <time>2019-05-21T10:42:49Z</time>
      </trkpt>
      <trkpt lat="44.756462043151259" lon="9.211730696260929">
        <ele>1313.78</ele>
        <time>2019-05-21T10:43:03Z</time>
      </trkpt>
      <trkpt lat="44.75633162073791" lon="9.211764894425869">
        <ele>1314.8</ele>
        <time>2019-05-21T10:43:20Z</time>
      </trkpt>
      <trkpt lat="44.756152834743261" lon="9.211884839460254">
        <ele>1316.46</ele>
        <time>2019-05-21T10:43:36Z</time>
      </trkpt>
      <trkpt lat="44.756048815324903" lon="9.211899759247899">
        <ele>1318.1300000000001</ele>
        <time>2019-05-21T10:43:52Z</time>
      </trkpt>
      <trkpt lat="44.755909172818065" lon="9.211956840008497">
        <ele>1319.48</ele>
        <time>2019-05-21T10:44:06Z</time>
      </trkpt>
      <trkpt lat="44.755799202248454" lon="9.211981147527695">
        <ele>1320.5999999999999</ele>
        <time>2019-05-21T10:44:21Z</time>
      </trkpt>
      <trkpt lat="44.755679508671165" lon="9.211968323215842">
        <ele>1321.51</ele>
        <time>2019-05-21T10:44:37Z</time>
      </trkpt>
      <trkpt lat="44.755563084036112" lon="9.212009394541383">
        <ele>1322.6800000000001</ele>
        <time>2019-05-21T10:44:51Z</time>
      </trkpt>
      <trkpt lat="44.755431739613414" lon="9.212043425068259">
        <ele>1324.24</ele>
        <time>2019-05-21T10:45:06Z</time>
      </trkpt>
      <trkpt lat="44.755292516201735" lon="9.212127663195133">
        <ele>1324.79</ele>
        <time>2019-05-21T10:45:21Z</time>
      </trkpt>
      <trkpt lat="44.755234261974692" lon="9.21222279779613">
        <ele>1324.49</ele>
        <time>2019-05-21T10:45:35Z</time>
      </trkpt>
      <trkpt lat="44.755160249769688" lon="9.212377024814487">
        <ele>1324.22</ele>
        <time>2019-05-21T10:45:56Z</time>
      </trkpt>
      <trkpt lat="44.755134768784046" lon="9.212396470829845">
        <ele>1324.3199999999999</ele>
        <time>2019-05-21T10:46:19Z</time>
      </trkpt>
      <trkpt lat="44.755128147080541" lon="9.212409378960729">
        <ele>1324.8299999999999</ele>
        <time>2019-05-21T10:46:33Z</time>
      </trkpt>
      <trkpt lat="44.755099480971694" lon="9.212442487478256">
        <ele>1324.9400000000001</ele>
        <time>2019-05-21T10:46:58Z</time>
      </trkpt>
      <trkpt lat="44.755080789327621" lon="9.212465370073915">
        <ele>1325.1600000000001</ele>
        <time>2019-05-21T10:47:19Z</time>
      </trkpt>
      <trkpt lat="44.755090260878205" lon="9.212440894916654">
        <ele>1325.45</ele>
        <time>2019-05-21T10:47:36Z</time>
      </trkpt>
      <trkpt lat="44.755092356353998" lon="9.212455982342362">
        <ele>1326.23</ele>
        <time>2019-05-21T10:47:55Z</time>
      </trkpt>
      <trkpt lat="44.755056314170361" lon="9.21246855519712">
        <ele>1326.6199999999999</ele>
        <time>2019-05-21T10:48:13Z</time>
      </trkpt>
      <trkpt lat="44.754986492916942" lon="9.212481044232845">
        <ele>1327.4100000000001</ele>
        <time>2019-05-21T10:48:24Z</time>
      </trkpt>
      <trkpt lat="44.754952043294907" lon="9.212462855502963">
        <ele>1328.03</ele>
        <time>2019-05-21T10:48:35Z</time>
      </trkpt>
      <trkpt lat="44.754864284768701" lon="9.21247098594904">
        <ele>1328.5999999999999</ele>
        <time>2019-05-21T10:48:47Z</time>
      </trkpt>
      <trkpt lat="44.754828996956348" lon="9.212471824139357">
        <ele>1328.73</ele>
        <time>2019-05-21T10:48:51Z</time>
      </trkpt>
      <trkpt lat="44.754698574542999" lon="9.212453467771411">
        <ele>1330.1199999999999</ele>
        <time>2019-05-21T10:49:05Z</time>
      </trkpt>
      <trkpt lat="44.754687007516623" lon="9.212455479428172">
        <ele>1330.3</ele>
        <time>2019-05-21T10:49:06Z</time>
      </trkpt>
      <trkpt lat="44.754645684733987" lon="9.212458077818155">
        <ele>1330.3900000000001</ele>
        <time>2019-05-21T10:49:09Z</time>
      </trkpt>
      <trkpt lat="44.754552477970719" lon="9.212427400052548">
        <ele>1331.77</ele>
        <time>2019-05-21T10:49:22Z</time>
      </trkpt>
      <trkpt lat="44.754454996436834" lon="9.212397979572415">
        <ele>1333.22</ele>
        <time>2019-05-21T10:49:35Z</time>
      </trkpt>
      <trkpt lat="44.754395820200443" lon="9.212351962924004">
        <ele>1333.8299999999999</ele>
        <time>2019-05-21T10:49:45Z</time>
      </trkpt>
      <trkpt lat="44.754256177693605" lon="9.212337797507644">
        <ele>1334.6199999999999</ele>
        <time>2019-05-21T10:49:57Z</time>
      </trkpt>
      <trkpt lat="44.754076721146703" lon="9.212416335940361">
        <ele>1335.1900000000001</ele>
        <time>2019-05-21T10:50:10Z</time>
      </trkpt>
      <trkpt lat="44.753932049497962" lon="9.212467465549707">
        <ele>1335.5999999999999</ele>
        <time>2019-05-21T10:50:22Z</time>
      </trkpt>
      <trkpt lat="44.753788048401475" lon="9.212510213255882">
        <ele>1336.98</ele>
        <time>2019-05-21T10:50:36Z</time>
      </trkpt>
      <trkpt lat="44.753647735342383" lon="9.212523372843862">
        <ele>1338.5799999999999</ele>
        <time>2019-05-21T10:50:50Z</time>
      </trkpt>
      <trkpt lat="44.753553019836545" lon="9.212500574067235">
        <ele>1339.8099999999999</ele>
        <time>2019-05-21T10:51:02Z</time>
      </trkpt>
      <trkpt lat="44.753471296280622" lon="9.212486576288939">
        <ele>1341.3199999999999</ele>
        <time>2019-05-21T10:51:12Z</time>
      </trkpt>
      <trkpt lat="44.753372892737389" lon="9.212481547147036">
        <ele>1342.96</ele>
        <time>2019-05-21T10:51:24Z</time>
      </trkpt>
      <trkpt lat="44.753284547477961" lon="9.212507614865899">
        <ele>1344.5699999999999</ele>
        <time>2019-05-21T10:51:35Z</time>
      </trkpt>
      <trkpt lat="44.753191508352757" lon="9.21251842752099">
        <ele>1346.27</ele>
        <time>2019-05-21T10:51:48Z</time>
      </trkpt>
      <trkpt lat="44.753095870837569" lon="9.212502082809806">
        <ele>1347.6900000000001</ele>
        <time>2019-05-21T10:52:00Z</time>
      </trkpt>
      <trkpt lat="44.7530338447541" lon="9.212498143315315">
        <ele>1348.97</ele>
        <time>2019-05-21T10:52:11Z</time>
      </trkpt>
      <trkpt lat="44.752943068742752" lon="9.212494371458888">
        <ele>1351.3299999999999</ele>
        <time>2019-05-21T10:52:25Z</time>
      </trkpt>
      <trkpt lat="44.752823291346431" lon="9.212495377287269">
        <ele>1352.53</ele>
        <time>2019-05-21T10:52:39Z</time>
      </trkpt>
      <trkpt lat="44.752806527540088" lon="9.21249839477241">
        <ele>1353.45</ele>
        <time>2019-05-21T10:52:41Z</time>
      </trkpt>
      <trkpt lat="44.752690270543098" lon="9.212542315945029">
        <ele>1354.78</ele>
        <time>2019-05-21T10:52:56Z</time>
      </trkpt>
      <trkpt lat="44.75267518311739" lon="9.212551033124328">
        <ele>1354.79</ele>
        <time>2019-05-21T10:52:58Z</time>
      </trkpt>
      <trkpt lat="44.752529840916395" lon="9.212633762508631">
        <ele>1356.8699999999999</ele>
        <time>2019-05-21T10:53:15Z</time>
      </trkpt>
      <trkpt lat="44.752396820113063" lon="9.212694531306624">
        <ele>1358.6199999999999</ele>
        <time>2019-05-21T10:53:31Z</time>
      </trkpt>
      <trkpt lat="44.752267319709063" lon="9.212734261527658">
        <ele>1360.3399999999999</ele>
        <time>2019-05-21T10:53:45Z</time>
      </trkpt>
      <trkpt lat="44.752135723829269" lon="9.212754126638174">
        <ele>1362.05</ele>
        <time>2019-05-21T10:54:00Z</time>
      </trkpt>
      <trkpt lat="44.752028938382864" lon="9.21280081383884">
        <ele>1363.73</ele>
        <time>2019-05-21T10:54:13Z</time>
      </trkpt>
      <trkpt lat="44.751915615051985" lon="9.212884213775396">
        <ele>1365.51</ele>
        <time>2019-05-21T10:54:28Z</time>
      </trkpt>
      <trkpt lat="44.751820228993893" lon="9.212980689480901">
        <ele>1367.3</ele>
        <time>2019-05-21T10:54:43Z</time>
      </trkpt>
      <trkpt lat="44.751734146848321" lon="9.213103819638491">
        <ele>1368.97</ele>
        <time>2019-05-21T10:54:58Z</time>
      </trkpt>
      <trkpt lat="44.751626690849662" lon="9.213203983381391">
        <ele>1371.04</ele>
        <time>2019-05-21T10:55:14Z</time>
      </trkpt>
      <trkpt lat="44.75153423845768" lon="9.213131479918957">
        <ele>1373.0999999999999</ele>
        <time>2019-05-21T10:55:29Z</time>
      </trkpt>
      <trkpt lat="44.751515546813607" lon="9.212985634803772">
        <ele>1374.51</ele>
        <time>2019-05-21T10:55:42Z</time>
      </trkpt>
      <trkpt lat="44.75150934420526" lon="9.212891338393092">
        <ele>1375.5599999999999</ele>
        <time>2019-05-21T10:55:50Z</time>
      </trkpt>
      <trkpt lat="44.751451006159186" lon="9.212743900716305">
        <ele>1377.0899999999999</ele>
        <time>2019-05-21T10:56:05Z</time>
      </trkpt>
      <trkpt lat="44.751379089429975" lon="9.212620351463556">
        <ele>1379.21</ele>
        <time>2019-05-21T10:56:20Z</time>
      </trkpt>
      <trkpt lat="44.751374227926135" lon="9.212612053379417">
        <ele>1379.24</ele>
        <time>2019-05-21T10:56:21Z</time>
      </trkpt>
      <trkpt lat="44.75129971280694" lon="9.212462184950709">
        <ele>1380.8099999999999</ele>
        <time>2019-05-21T10:56:37Z</time>
      </trkpt>
      <trkpt lat="44.75124548189342" lon="9.212403763085604">
        <ele>1381.8699999999999</ele>
        <time>2019-05-21T10:56:49Z</time>
      </trkpt>
      <trkpt lat="44.751222347840667" lon="9.212419353425503">
        <ele>1381.8699999999999</ele>
        <time>2019-05-21T10:56:59Z</time>
      </trkpt>
      <trkpt lat="44.751234501600266" lon="9.212425388395786">
        <ele>1382.1400000000001</ele>
        <time>2019-05-21T10:57:19Z</time>
      </trkpt>
      <trkpt lat="44.751234585419297" lon="9.212378198280931">
        <ele>1382.74</ele>
        <time>2019-05-21T10:57:30Z</time>
      </trkpt>
      <trkpt lat="44.751166859641671" lon="9.212318770587444">
        <ele>1383.54</ele>
        <time>2019-05-21T10:57:42Z</time>
      </trkpt>
      <trkpt lat="44.751097206026316" lon="9.212404936552048">
        <ele>1385.73</ele>
        <time>2019-05-21T10:57:56Z</time>
      </trkpt>
      <trkpt lat="44.751084297895432" lon="9.21250962652266">
        <ele>1387</ele>
        <time>2019-05-21T10:58:08Z</time>
      </trkpt>
      <trkpt lat="44.751045238226652" lon="9.212683970108628">
        <ele>1388.27</ele>
        <time>2019-05-21T10:58:24Z</time>
      </trkpt>
      <trkpt lat="44.751027468591928" lon="9.212709870189428">
        <ele>1389.51</ele>
        <time>2019-05-21T10:58:39Z</time>
      </trkpt>
      <trkpt lat="44.751014560461044" lon="9.21271531842649">
        <ele>1389.55</ele>
        <time>2019-05-21T10:58:54Z</time>
      </trkpt>
      <trkpt lat="44.751006346195936" lon="9.212740464136004">
        <ele>1389.7</ele>
        <time>2019-05-21T10:59:16Z</time>
      </trkpt>
      <trkpt lat="44.750960329547524" lon="9.212829731404781">
        <ele>1390.5899999999999</ele>
        <time>2019-05-21T10:59:27Z</time>
      </trkpt>
      <trkpt lat="44.750865446403623" lon="9.212953699752688">
        <ele>1392.5999999999999</ele>
        <time>2019-05-21T10:59:43Z</time>
      </trkpt>
      <trkpt lat="44.750762097537518" lon="9.213062077760696">
        <ele>1394.5</ele>
        <time>2019-05-21T10:59:58Z</time>
      </trkpt>
      <trkpt lat="44.750660676509142" lon="9.213190237060189">
        <ele>1396.26</ele>
        <time>2019-05-21T11:00:13Z</time>
      </trkpt>
      <trkpt lat="44.750647684559226" lon="9.213208593428135">
        <ele>1396.5799999999999</ele>
        <time>2019-05-21T11:00:15Z</time>
      </trkpt>
      <trkpt lat="44.750555902719498" lon="9.213356785476208">
        <ele>1398</ele>
        <time>2019-05-21T11:00:30Z</time>
      </trkpt>
      <trkpt lat="44.750459175556898" lon="9.213493075221777">
        <ele>1400.1099999999999</ele>
        <time>2019-05-21T11:00:46Z</time>
      </trkpt>
      <trkpt lat="44.750368651002645" lon="9.213593490421772">
        <ele>1401.8099999999999</ele>
        <time>2019-05-21T11:00:59Z</time>
      </trkpt>
      <trkpt lat="44.750280641019344" lon="9.213665658608079">
        <ele>1402.73</ele>
        <time>2019-05-21T11:01:12Z</time>
      </trkpt>
      <trkpt lat="44.750194726511836" lon="9.21371310018003">
        <ele>1405.96</ele>
        <time>2019-05-21T11:01:23Z</time>
      </trkpt>
      <trkpt lat="44.750108225271106" lon="9.213775042444468">
        <ele>1406.25</ele>
        <time>2019-05-21T11:01:34Z</time>
      </trkpt>
      <trkpt lat="44.750033291056752" lon="9.213798679411411">
        <ele>1407.96</ele>
        <time>2019-05-21T11:01:46Z</time>
      </trkpt>
      <trkpt lat="44.749965146183968" lon="9.213829943910241">
        <ele>1409.6700000000001</ele>
        <time>2019-05-21T11:02:00Z</time>
      </trkpt>
      <trkpt lat="44.749889373779297" lon="9.213878056034446">
        <ele>1411.04</ele>
        <time>2019-05-21T11:02:12Z</time>
      </trkpt>
      <trkpt lat="44.749762723222375" lon="9.213961791247129">
        <ele>1413.05</ele>
        <time>2019-05-21T11:02:29Z</time>
      </trkpt>
      <trkpt lat="44.749615453183651" lon="9.21396816149354">
        <ele>1414.8900000000001</ele>
        <time>2019-05-21T11:02:46Z</time>
      </trkpt>
      <trkpt lat="44.749504812061787" lon="9.213986517861486">
        <ele>1416.4300000000001</ele>
        <time>2019-05-21T11:02:59Z</time>
      </trkpt>
      <trkpt lat="44.749387968331575" lon="9.213981069624424">
        <ele>1417.8800000000001</ele>
        <time>2019-05-21T11:03:12Z</time>
      </trkpt>
      <trkpt lat="44.749254276975989" lon="9.213952738791704">
        <ele>1419.4000000000001</ele>
        <time>2019-05-21T11:03:27Z</time>
      </trkpt>
      <trkpt lat="44.749155286699533" lon="9.213925916701555">
        <ele>1421.3499999999999</ele>
        <time>2019-05-21T11:03:39Z</time>
      </trkpt>
      <trkpt lat="44.749067611992359" lon="9.213918121531606">
        <ele>1422.5799999999999</ele>
        <time>2019-05-21T11:03:51Z</time>
      </trkpt>
      <trkpt lat="44.748970381915569" lon="9.213903872296214">
        <ele>1423.9200000000001</ele>
        <time>2019-05-21T11:04:03Z</time>
      </trkpt>
      <trkpt lat="44.748856890946627" lon="9.21388752758503">
        <ele>1425.4200000000001</ele>
        <time>2019-05-21T11:04:17Z</time>
      </trkpt>
      <trkpt lat="44.748794948682189" lon="9.213871601969004">
        <ele>1426.3800000000001</ele>
        <time>2019-05-21T11:04:26Z</time>
      </trkpt>
      <trkpt lat="44.748722948133945" lon="9.213839247822762">
        <ele>1427.25</ele>
        <time>2019-05-21T11:04:37Z</time>
      </trkpt>
      <trkpt lat="44.748629154637456" lon="9.213804127648473">
        <ele>1428.3800000000001</ele>
        <time>2019-05-21T11:04:49Z</time>
      </trkpt>
      <trkpt lat="44.748536869883537" lon="9.213752076029778">
        <ele>1429.49</ele>
        <time>2019-05-21T11:05:02Z</time>
      </trkpt>
      <trkpt lat="44.748527985066175" lon="9.213748807087541">
        <ele>1429.6500000000001</ele>
        <time>2019-05-21T11:05:03Z</time>
      </trkpt>
      <trkpt lat="44.748428659513593" lon="9.213703712448478">
        <ele>1430.5</ele>
        <time>2019-05-21T11:05:14Z</time>
      </trkpt>
      <trkpt lat="44.748316761106253" lon="9.213658701628447">
        <ele>1431.1700000000001</ele>
        <time>2019-05-21T11:05:26Z</time>
      </trkpt>
      <trkpt lat="44.748195642605424" lon="9.213624419644475">
        <ele>1432.6600000000001</ele>
        <time>2019-05-21T11:05:39Z</time>
      </trkpt>
      <trkpt lat="44.748101262375712" lon="9.213606901466847">
        <ele>1433.8099999999999</ele>
        <time>2019-05-21T11:05:49Z</time>
      </trkpt>
      <trkpt lat="44.748078547418118" lon="9.213595669716597">
        <ele>1434.03</ele>
        <time>2019-05-21T11:05:52Z</time>
      </trkpt>
      <trkpt lat="44.74799120798707" lon="9.213528279215097">
        <ele>1434.99</ele>
        <time>2019-05-21T11:06:04Z</time>
      </trkpt>
      <trkpt lat="44.747905796393752" lon="9.213427109643817">
        <ele>1436.26</ele>
        <time>2019-05-21T11:06:17Z</time>
      </trkpt>
      <trkpt lat="44.747828096151352" lon="9.213344966992736">
        <ele>1437.72</ele>
        <time>2019-05-21T11:06:29Z</time>
      </trkpt>
      <trkpt lat="44.747785432264209" lon="9.213319821283221">
        <ele>1438.21</ele>
        <time>2019-05-21T11:06:34Z</time>
      </trkpt>
      <trkpt lat="44.74767847917974" lon="9.213284868746996">
        <ele>1439.75</ele>
        <time>2019-05-21T11:06:48Z</time>
      </trkpt>
      <trkpt lat="44.747563060373068" lon="9.213282857090235">
        <ele>1441.2</ele>
        <time>2019-05-21T11:07:00Z</time>
      </trkpt>
      <trkpt lat="44.747450239956379" lon="9.213268104940653">
        <ele>1442.8299999999999</ele>
        <time>2019-05-21T11:07:15Z</time>
      </trkpt>
      <trkpt lat="44.747324092313647" lon="9.213291574269533">
        <ele>1444.0799999999999</ele>
        <time>2019-05-21T11:07:30Z</time>
      </trkpt>
      <trkpt lat="44.74721185863018" lon="9.213360641151667">
        <ele>1444.7</ele>
        <time>2019-05-21T11:07:40Z</time>
      </trkpt>
      <trkpt lat="44.747112952172756" lon="9.213424678891897">
        <ele>1445.1099999999999</ele>
        <time>2019-05-21T11:07:52Z</time>
      </trkpt>
      <trkpt lat="44.747013542801142" lon="9.213509252294898">
        <ele>1445.9000000000001</ele>
        <time>2019-05-21T11:08:03Z</time>
      </trkpt>
      <trkpt lat="44.746913965791464" lon="9.213569601997733">
        <ele>1446.76</ele>
        <time>2019-05-21T11:08:13Z</time>
      </trkpt>
      <trkpt lat="44.746822603046894" lon="9.213584940880537">
        <ele>1447.79</ele>
        <time>2019-05-21T11:08:28Z</time>
      </trkpt>
      <trkpt lat="44.746749345213175" lon="9.213640009984374">
        <ele>1448.71</ele>
        <time>2019-05-21T11:08:37Z</time>
      </trkpt>
      <trkpt lat="44.74664113484323" lon="9.213686361908913">
        <ele>1450.03</ele>
        <time>2019-05-21T11:08:51Z</time>
      </trkpt>
      <trkpt lat="44.746537785977125" lon="9.213674794882536">
        <ele>1451.1500000000001</ele>
        <time>2019-05-21T11:09:04Z</time>
      </trkpt>
      <trkpt lat="44.746527643874288" lon="9.213676219806075">
        <ele>1451.3099999999999</ele>
        <time>2019-05-21T11:09:05Z</time>
      </trkpt>
      <trkpt lat="44.74641197361052" lon="9.213678734377027">
        <ele>1452.5899999999999</ele>
        <time>2019-05-21T11:09:17Z</time>
      </trkpt>
      <trkpt lat="44.746352210640907" lon="9.213648559525609">
        <ele>1453.1500000000001</ele>
        <time>2019-05-21T11:09:31Z</time>
      </trkpt>
      <trkpt lat="44.74632597528398" lon="9.213644033297896">
        <ele>1449.45</ele>
        <time>2019-05-21T11:09:35Z</time>
      </trkpt>
      <trkpt lat="44.746302422136068" lon="9.213631125167012">
        <ele>1455.8499999999999</ele>
        <time>2019-05-21T11:09:37Z</time>
      </trkpt>
      <trkpt lat="44.746297309175134" lon="9.213615451008081">
        <ele>1454.51</ele>
        <time>2019-05-21T11:09:38Z</time>
      </trkpt>
      <trkpt lat="44.746280126273632" lon="9.213600028306246">
        <ele>1453.51</ele>
        <time>2019-05-21T11:09:40Z</time>
      </trkpt>
      <trkpt lat="44.746129587292671" lon="9.213670687749982">
        <ele>1454.75</ele>
        <time>2019-05-21T11:09:55Z</time>
      </trkpt>
      <trkpt lat="44.746013833209872" lon="9.213749561458826">
        <ele>1456.3499999999999</ele>
        <time>2019-05-21T11:10:10Z</time>
      </trkpt>
      <trkpt lat="44.745874609798193" lon="9.213834134861827">
        <ele>1457.8800000000001</ele>
        <time>2019-05-21T11:10:25Z</time>
      </trkpt>
      <trkpt lat="44.745735554024577" lon="9.213932538405061">
        <ele>1459.4200000000001</ele>
        <time>2019-05-21T11:10:42Z</time>
      </trkpt>
      <trkpt lat="44.745589960366488" lon="9.214035049080849">
        <ele>1460.8699999999999</ele>
        <time>2019-05-21T11:10:59Z</time>
      </trkpt>
      <trkpt lat="44.745465321466327" lon="9.214136051014066">
        <ele>1461.99</ele>
        <time>2019-05-21T11:11:15Z</time>
      </trkpt>
      <trkpt lat="44.745355015620589" lon="9.214222216978669">
        <ele>1463</ele>
        <time>2019-05-21T11:11:29Z</time>
      </trkpt>
      <trkpt lat="44.745202548801899" lon="9.214319866150618">
        <ele>1463.8499999999999</ele>
        <time>2019-05-21T11:11:45Z</time>
      </trkpt>
      <trkpt lat="44.745100708678365" lon="9.2143673915416">
        <ele>1465.3199999999999</ele>
        <time>2019-05-21T11:11:58Z</time>
      </trkpt>
      <trkpt lat="44.7449382673949" lon="9.214446935802698">
        <ele>1466.1400000000001</ele>
        <time>2019-05-21T11:12:15Z</time>
      </trkpt>
      <trkpt lat="44.744822094216943" lon="9.214499155059457">
        <ele>1466.6700000000001</ele>
        <time>2019-05-21T11:12:28Z</time>
      </trkpt>
      <trkpt lat="44.744759313762188" lon="9.214558079838753">
        <ele>1466.76</ele>
        <time>2019-05-21T11:12:34Z</time>
      </trkpt>
      <trkpt lat="44.744615731760859" lon="9.214598396793008">
        <ele>1466.3900000000001</ele>
        <time>2019-05-21T11:12:49Z</time>
      </trkpt>
      <trkpt lat="44.744527051225305" lon="9.214624967426062">
        <ele>1465.99</ele>
        <time>2019-05-21T11:13:01Z</time>
      </trkpt>
      <trkpt lat="44.744506096467376" lon="9.214629912748933">
        <ele>1465.76</ele>
        <time>2019-05-21T11:13:04Z</time>
      </trkpt>
      <trkpt lat="44.744490422308445" lon="9.214629745110869">
        <ele>1465.52</ele>
        <time>2019-05-21T11:13:06Z</time>
      </trkpt>
      <trkpt lat="44.744440633803606" lon="9.214622955769301">
        <ele>1465.1900000000001</ele>
        <time>2019-05-21T11:13:10Z</time>
      </trkpt>
      <trkpt lat="44.744351701810956" lon="9.214596468955278">
        <ele>1464.53</ele>
        <time>2019-05-21T11:13:20Z</time>
      </trkpt>
      <trkpt lat="44.744282551109791" lon="9.214536622166634">
        <ele>1464.4200000000001</ele>
        <time>2019-05-21T11:13:28Z</time>
      </trkpt>
      <trkpt lat="44.744198145344853" lon="9.214487336575985">
        <ele>1463.8900000000001</ele>
        <time>2019-05-21T11:13:36Z</time>
      </trkpt>
      <trkpt lat="44.74416034296155" lon="9.214454479515553">
        <ele>1463.6600000000001</ele>
        <time>2019-05-21T11:13:40Z</time>
      </trkpt>
      <trkpt lat="44.744035117328167" lon="9.214403182268143">
        <ele>1462.8099999999999</ele>
        <time>2019-05-21T11:13:51Z</time>
      </trkpt>
      <trkpt lat="44.743950795382261" lon="9.214331433176994">
        <ele>1462.7</ele>
        <time>2019-05-21T11:14:02Z</time>
      </trkpt>
      <trkpt lat="44.743907293304801" lon="9.214283572509885">
        <ele>1462.6400000000001</ele>
        <time>2019-05-21T11:14:07Z</time>
      </trkpt>
      <trkpt lat="44.743799082934856" lon="9.214177373796701">
        <ele>1462.26</ele>
        <time>2019-05-21T11:14:18Z</time>
      </trkpt>
      <trkpt lat="44.743703026324511" lon="9.214103277772665">
        <ele>1461.5</ele>
        <time>2019-05-21T11:14:28Z</time>
      </trkpt>
      <trkpt lat="44.743598587810993" lon="9.214049382135272">
        <ele>1461.3299999999999</ele>
        <time>2019-05-21T11:14:39Z</time>
      </trkpt>
      <trkpt lat="44.743560450151563" lon="9.21402046456933">
        <ele>1461.0799999999999</ele>
        <time>2019-05-21T11:14:43Z</time>
      </trkpt>
      <trkpt lat="44.743424244225025" lon="9.213923569768667">
        <ele>1460.5599999999999</ele>
        <time>2019-05-21T11:14:57Z</time>
      </trkpt>
      <trkpt lat="44.743410162627697" lon="9.213904207572341">
        <ele>1460.54</ele>
        <time>2019-05-21T11:14:59Z</time>
      </trkpt>
      <trkpt lat="44.743393817916512" lon="9.213869255036116">
        <ele>1460.47</ele>
        <time>2019-05-21T11:15:01Z</time>
      </trkpt>
      <trkpt lat="44.743270352482796" lon="9.213746963068843">
        <ele>1460.48</ele>
        <time>2019-05-21T11:15:13Z</time>
      </trkpt>
      <trkpt lat="44.743199106305838" lon="9.213628694415093">
        <ele>1461.0699999999999</ele>
        <time>2019-05-21T11:15:24Z</time>
      </trkpt>
      <trkpt lat="44.74311176687479" lon="9.21355526894331">
        <ele>1462.3900000000001</ele>
        <time>2019-05-21T11:15:38Z</time>
      </trkpt>
      <trkpt lat="44.743006741628051" lon="9.213471030816436">
        <ele>1463.4200000000001</ele>
        <time>2019-05-21T11:15:50Z</time>
      </trkpt>
      <trkpt lat="44.742924096062779" lon="9.21338570304215">
        <ele>1464.4000000000001</ele>
        <time>2019-05-21T11:16:01Z</time>
      </trkpt>
      <trkpt lat="44.742819238454103" lon="9.213295849040151">
        <ele>1464.23</ele>
        <time>2019-05-21T11:16:15Z</time>
      </trkpt>
      <trkpt lat="44.74274774082005" lon="9.213272631168366">
        <ele>1463.9300000000001</ele>
        <time>2019-05-21T11:16:27Z</time>
      </trkpt>
      <trkpt lat="44.742810437455773" lon="9.213255699723959">
        <ele>1464.05</ele>
        <time>2019-05-21T11:16:38Z</time>
      </trkpt>
      <trkpt lat="44.742893418297172" lon="9.213246563449502">
        <ele>1465.3399999999999</ele>
        <time>2019-05-21T11:16:50Z</time>
      </trkpt>
      <trkpt lat="44.742884868755937" lon="9.213192164897919">
        <ele>1465.48</ele>
        <time>2019-05-21T11:17:05Z</time>
      </trkpt>
      <trkpt lat="44.742771042510867" lon="9.213186465203762">
        <ele>1464.3099999999999</ele>
        <time>2019-05-21T11:17:17Z</time>
      </trkpt>
      <trkpt lat="44.74274673499167" lon="9.213188560679555">
        <ele>1464.23</ele>
        <time>2019-05-21T11:17:21Z</time>
      </trkpt>
      <trkpt lat="44.742632992565632" lon="9.213184118270874">
        <ele>1463.47</ele>
        <time>2019-05-21T11:17:32Z</time>
      </trkpt>
      <trkpt lat="44.742489997297525" lon="9.213143633678556">
        <ele>1462.3499999999999</ele>
        <time>2019-05-21T11:17:46Z</time>
      </trkpt>
      <trkpt lat="44.742401735857129" lon="9.213118739426136">
        <ele>1462.1500000000001</ele>
        <time>2019-05-21T11:17:57Z</time>
      </trkpt>
      <trkpt lat="44.742283718660474" lon="9.21311940997839">
        <ele>1461.1800000000001</ele>
        <time>2019-05-21T11:18:09Z</time>
      </trkpt>
      <trkpt lat="44.742273995652795" lon="9.213117985054851">
        <ele>1461.0599999999999</ele>
        <time>2019-05-21T11:18:10Z</time>
      </trkpt>
      <trkpt lat="44.742199229076505" lon="9.213103652000427">
        <ele>1460.55</ele>
        <time>2019-05-21T11:18:17Z</time>
      </trkpt>
      <trkpt lat="44.74203578196466" lon="9.213073812425137">
        <ele>1460</ele>
        <time>2019-05-21T11:18:30Z</time>
      </trkpt>
      <trkpt lat="44.741938216611743" lon="9.213076243177056">
        <ele>1459.5799999999999</ele>
        <time>2019-05-21T11:18:41Z</time>
      </trkpt>
      <trkpt lat="44.741892283782363" lon="9.213060485199094">
        <ele>1459.3599999999999</ele>
        <time>2019-05-21T11:18:45Z</time>
      </trkpt>
      <trkpt lat="44.741747193038464" lon="9.213029472157359">
        <ele>1458.53</ele>
        <time>2019-05-21T11:18:57Z</time>
      </trkpt>
      <trkpt lat="44.7416209615767" lon="9.213053528219461">
        <ele>1456.96</ele>
        <time>2019-05-21T11:19:09Z</time>
      </trkpt>
      <trkpt lat="44.74147142842412" lon="9.213043553754687">
        <ele>1455.8199999999999</ele>
        <time>2019-05-21T11:19:22Z</time>
      </trkpt>
      <trkpt lat="44.741400685161352" lon="9.213028298690915">
        <ele>1455.0599999999999</ele>
        <time>2019-05-21T11:19:28Z</time>
      </trkpt>
      <trkpt lat="44.741273196414113" lon="9.213015977293253">
        <ele>1453.6199999999999</ele>
        <time>2019-05-21T11:19:39Z</time>
      </trkpt>
      <trkpt lat="44.741151323541999" lon="9.212962919846177">
        <ele>1452.5699999999999</ele>
        <time>2019-05-21T11:19:49Z</time>
      </trkpt>
      <trkpt lat="44.741048058494925" lon="9.212918495759368">
        <ele>1451.52</ele>
        <time>2019-05-21T11:19:58Z</time>
      </trkpt>
      <trkpt lat="44.740908583626151" lon="9.212869377806783">
        <ele>1450.1400000000001</ele>
        <time>2019-05-21T11:20:10Z</time>
      </trkpt>
      <trkpt lat="44.740779418498278" lon="9.212811207398772">
        <ele>1447.71</ele>
        <time>2019-05-21T11:20:23Z</time>
      </trkpt>
      <trkpt lat="44.740645475685596" lon="9.212743816897273">
        <ele>1446.53</ele>
        <time>2019-05-21T11:20:35Z</time>
      </trkpt>
      <trkpt lat="44.740537600591779" lon="9.212666619569063">
        <ele>1446.24</ele>
        <time>2019-05-21T11:20:44Z</time>
      </trkpt>
      <trkpt lat="44.740526787936687" lon="9.21266351826489">
        <ele>1446.23</ele>
        <time>2019-05-21T11:20:45Z</time>
      </trkpt>
      <trkpt lat="44.740405585616827" lon="9.21260878443718">
        <ele>1446.3099999999999</ele>
        <time>2019-05-21T11:20:57Z</time>
      </trkpt>
      <trkpt lat="44.740276671946049" lon="9.212558073922992">
        <ele>1446.3699999999999</ele>
        <time>2019-05-21T11:21:10Z</time>
      </trkpt>
      <trkpt lat="44.740266362205148" lon="9.212549775838852">
        <ele>1446.24</ele>
        <time>2019-05-21T11:21:11Z</time>
      </trkpt>
      <trkpt lat="44.740161085501313" lon="9.212479200214148">
        <ele>1445.98</ele>
        <time>2019-05-21T11:21:22Z</time>
      </trkpt>
      <trkpt lat="44.740154379978776" lon="9.212479703128338">
        <ele>1445.97</ele>
        <time>2019-05-21T11:21:23Z</time>
      </trkpt>
      <trkpt lat="44.740033512935042" lon="9.212410552427173">
        <ele>1445.95</ele>
        <time>2019-05-21T11:21:37Z</time>
      </trkpt>
      <trkpt lat="44.740005265921354" lon="9.212387586012483">
        <ele>1446.21</ele>
        <time>2019-05-21T11:21:40Z</time>
      </trkpt>
      <trkpt lat="44.739972995594144" lon="9.212368056178093">
        <ele>1446.3399999999999</ele>
        <time>2019-05-21T11:21:43Z</time>
      </trkpt>
      <trkpt lat="44.739853553473949" lon="9.212349783629179">
        <ele>1446.3299999999999</ele>
        <time>2019-05-21T11:21:54Z</time>
      </trkpt>
      <trkpt lat="44.739720867946744" lon="9.212293205782771">
        <ele>1446.3299999999999</ele>
        <time>2019-05-21T11:22:08Z</time>
      </trkpt>
      <trkpt lat="44.739657836034894" lon="9.212244423106313">
        <ele>1445.9300000000001</ele>
        <time>2019-05-21T11:22:16Z</time>
      </trkpt>
      <trkpt lat="44.739620201289654" lon="9.212228581309319">
        <ele>1445.6199999999999</ele>
        <time>2019-05-21T11:22:19Z</time>
      </trkpt>
      <trkpt lat="44.739545350894332" lon="9.212192874401808">
        <ele>1445.47</ele>
        <time>2019-05-21T11:22:24Z</time>
      </trkpt>
      <trkpt lat="44.739460023120046" lon="9.212176445871592">
        <ele>1445.1700000000001</ele>
        <time>2019-05-21T11:22:30Z</time>
      </trkpt>
      <trkpt lat="44.739321805536747" lon="9.212165884673595">
        <ele>1443.4100000000001</ele>
        <time>2019-05-21T11:22:43Z</time>
      </trkpt>
      <trkpt lat="44.739199932664633" lon="9.212181642651558">
        <ele>1441.26</ele>
        <time>2019-05-21T11:22:57Z</time>
      </trkpt>
      <trkpt lat="44.739107480272651" lon="9.212160184979439">
        <ele>1439.5999999999999</ele>
        <time>2019-05-21T11:23:05Z</time>
      </trkpt>
      <trkpt lat="44.739013267681003" lon="9.212138140574098">
        <ele>1438.6700000000001</ele>
        <time>2019-05-21T11:23:13Z</time>
      </trkpt>
      <trkpt lat="44.73886800929904" lon="9.212149707600474">
        <ele>1438.0799999999999</ele>
        <time>2019-05-21T11:23:27Z</time>
      </trkpt>
      <trkpt lat="44.738688133656979" lon="9.212131099775434">
        <ele>1437.8900000000001</ele>
        <time>2019-05-21T11:23:42Z</time>
      </trkpt>
      <trkpt lat="44.738660641014576" lon="9.212125316262245">
        <ele>1437.9100000000001</ele>
        <time>2019-05-21T11:23:44Z</time>
      </trkpt>
      <trkpt lat="44.738545976579189" lon="9.212082652375102">
        <ele>1438.47</ele>
        <time>2019-05-21T11:23:54Z</time>
      </trkpt>
      <trkpt lat="44.73843608982861" lon="9.212023224681616">
        <ele>1439.03</ele>
        <time>2019-05-21T11:24:04Z</time>
      </trkpt>
      <trkpt lat="44.738386133685708" lon="9.211989026516676">
        <ele>1439.0799999999999</ele>
        <time>2019-05-21T11:24:08Z</time>
      </trkpt>
      <trkpt lat="44.738261410966516" lon="9.211909649893642">
        <ele>1438.8099999999999</ele>
        <time>2019-05-21T11:24:20Z</time>
      </trkpt>
      <trkpt lat="44.738145070150495" lon="9.211822478100658">
        <ele>1438.1500000000001</ele>
        <time>2019-05-21T11:24:31Z</time>
      </trkpt>
      <trkpt lat="44.738015402108431" lon="9.211743688210845">
        <ele>1437.8800000000001</ele>
        <time>2019-05-21T11:24:43Z</time>
      </trkpt>
      <trkpt lat="44.737946419045329" lon="9.211684344336391">
        <ele>1437.4100000000001</ele>
        <time>2019-05-21T11:24:50Z</time>
      </trkpt>
      <trkpt lat="44.7378218639642" lon="9.211565824225545">
        <ele>1437.3800000000001</ele>
        <time>2019-05-21T11:25:02Z</time>
      </trkpt>
      <trkpt lat="44.737716419622302" lon="9.211498685181141">
        <ele>1437.6300000000001</ele>
        <time>2019-05-21T11:25:12Z</time>
      </trkpt>
      <trkpt lat="44.737620279192924" lon="9.211428528651595">
        <ele>1438.1099999999999</ele>
        <time>2019-05-21T11:25:22Z</time>
      </trkpt>
      <trkpt lat="44.737547608092427" lon="9.211368933320046">
        <ele>1439.5899999999999</ele>
        <time>2019-05-21T11:25:33Z</time>
      </trkpt>
      <trkpt lat="44.737504106014967" lon="9.211320988833904">
        <ele>1440.01</ele>
        <time>2019-05-21T11:25:38Z</time>
      </trkpt>
      <trkpt lat="44.737352980300784" lon="9.211263153702021">
        <ele>1441.28</ele>
        <time>2019-05-21T11:25:52Z</time>
      </trkpt>
      <trkpt lat="44.737238986417651" lon="9.211193667724729">
        <ele>1441.8900000000001</ele>
        <time>2019-05-21T11:26:03Z</time>
      </trkpt>
      <trkpt lat="44.737143684178591" lon="9.21113801188767">
        <ele>1442.54</ele>
        <time>2019-05-21T11:26:12Z</time>
      </trkpt>
      <trkpt lat="44.737014351412654" lon="9.211098365485668">
        <ele>1443.6700000000001</ele>
        <time>2019-05-21T11:26:24Z</time>
      </trkpt>
      <trkpt lat="44.736927514895797" lon="9.211034830659628">
        <ele>1444</ele>
        <time>2019-05-21T11:26:33Z</time>
      </trkpt>
      <trkpt lat="44.736822573468089" lon="9.210986634716392">
        <ele>1444.3099999999999</ele>
        <time>2019-05-21T11:26:42Z</time>
      </trkpt>
      <trkpt lat="44.736726516857743" lon="9.210908766835928">
        <ele>1445.0699999999999</ele>
        <time>2019-05-21T11:26:51Z</time>
      </trkpt>
      <trkpt lat="44.736647978425026" lon="9.21081505715847">
        <ele>1445.72</ele>
        <time>2019-05-21T11:27:00Z</time>
      </trkpt>
      <trkpt lat="44.73657782189548" lon="9.210777087137103">
        <ele>1447.3299999999999</ele>
        <time>2019-05-21T11:27:10Z</time>
      </trkpt>
      <trkpt lat="44.73647229373455" lon="9.210692597553134">
        <ele>1449.04</ele>
        <time>2019-05-21T11:27:23Z</time>
      </trkpt>
      <trkpt lat="44.736355198547244" lon="9.21061959117651">
        <ele>1450.45</ele>
        <time>2019-05-21T11:27:37Z</time>
      </trkpt>
      <trkpt lat="44.736326783895493" lon="9.210592769086361">
        <ele>1450.4100000000001</ele>
        <time>2019-05-21T11:27:40Z</time>
      </trkpt>
      <trkpt lat="44.736307505518198" lon="9.21057608909905">
        <ele>1450.4300000000001</ele>
        <time>2019-05-21T11:27:42Z</time>
      </trkpt>
      <trkpt lat="44.736193427816033" lon="9.210508950054646">
        <ele>1450.6800000000001</ele>
        <time>2019-05-21T11:27:54Z</time>
      </trkpt>
      <trkpt lat="44.736079098656774" lon="9.210445247590542">
        <ele>1451.3399999999999</ele>
        <time>2019-05-21T11:28:07Z</time>
      </trkpt>
      <trkpt lat="44.736080439761281" lon="9.210394537076354">
        <ele>1451.4000000000001</ele>
        <time>2019-05-21T11:28:16Z</time>
      </trkpt>
      <trkpt lat="44.736089240759611" lon="9.210380455479026">
        <ele>1450.25</ele>
        <time>2019-05-21T11:28:29Z</time>
      </trkpt>
      <trkpt lat="44.73609653301537" lon="9.210375342518091">
        <ele>1450.3299999999999</ele>
        <time>2019-05-21T11:28:33Z</time>
      </trkpt>
      <trkpt lat="44.736080188304186" lon="9.210333935916424">
        <ele>1450.01</ele>
        <time>2019-05-21T11:28:38Z</time>
      </trkpt>
      <trkpt lat="44.736035177484155" lon="9.2103386297822">
        <ele>1449.76</ele>
        <time>2019-05-21T11:28:46Z</time>
      </trkpt>
      <trkpt lat="44.736044565215707" lon="9.210345922037959">
        <ele>1449.5699999999999</ele>
        <time>2019-05-21T11:28:55Z</time>
      </trkpt>
      <trkpt lat="44.736045151948929" lon="9.210339887067676">
        <ele>1449.3800000000001</ele>
        <time>2019-05-21T11:29:09Z</time>
      </trkpt>
      <trkpt lat="44.736064346507192" lon="9.210329661145806">
        <ele>1449.72</ele>
        <time>2019-05-21T11:29:40Z</time>
      </trkpt>
      <trkpt lat="44.736057389527559" lon="9.210329661145806">
        <ele>1449.5999999999999</ele>
        <time>2019-05-21T11:30:05Z</time>
      </trkpt>
      <trkpt lat="44.736048085615039" lon="9.210318177938461">
        <ele>1449.8699999999999</ele>
        <time>2019-05-21T11:30:44Z</time>
      </trkpt>
      <trkpt lat="44.736050684005022" lon="9.210312394425273">
        <ele>1450.01</ele>
        <time>2019-05-21T11:31:21Z</time>
      </trkpt>
      <trkpt lat="44.736048253253102" lon="9.210315831005573">
        <ele>1450.47</ele>
        <time>2019-05-21T11:32:05Z</time>
      </trkpt>
      <trkpt lat="44.736037272959948" lon="9.210307784378529">
        <ele>1450.2</ele>
        <time>2019-05-21T11:32:55Z</time>
      </trkpt>
      <trkpt lat="44.736035345122218" lon="9.210308203473687">
        <ele>1451.03</ele>
        <time>2019-05-21T11:33:47Z</time>
      </trkpt>
      <trkpt lat="44.736041380092502" lon="9.210306275635958">
        <ele>1451.29</ele>
        <time>2019-05-21T11:34:43Z</time>
      </trkpt>
      <trkpt lat="44.736042385920882" lon="9.210302587598562">
        <ele>1452.03</ele>
        <time>2019-05-21T11:35:33Z</time>
      </trkpt>
      <trkpt lat="44.736046325415373" lon="9.210308119654656">
        <ele>1448.53</ele>
        <time>2019-05-21T11:35:52Z</time>
      </trkpt>
      <trkpt lat="44.736046241596341" lon="9.210308706387878">
        <ele>1450.45</ele>
        <time>2019-05-21T11:35:53Z</time>
      </trkpt>
      <trkpt lat="44.736046493053436" lon="9.210311053320766">
        <ele>1454.3499999999999</ele>
        <time>2019-05-21T11:36:11Z</time>
      </trkpt>
      <trkpt lat="44.736047247424722" lon="9.210320273414254">
        <ele>1451.21</ele>
        <time>2019-05-21T11:36:34Z</time>
      </trkpt>
      <trkpt lat="44.73604766651988" lon="9.210336115211248">
        <ele>1452.5599999999999</ele>
        <time>2019-05-21T11:36:54Z</time>
      </trkpt>
      <trkpt lat="44.736040206626058" lon="9.210345670580864">
        <ele>1452.72</ele>
        <time>2019-05-21T11:37:23Z</time>
      </trkpt>
      <trkpt lat="44.736042553558946" lon="9.210340892896056">
        <ele>1452.6099999999999</ele>
        <time>2019-05-21T11:38:20Z</time>
      </trkpt>
      <trkpt lat="44.736036518588662" lon="9.21032932586968">
        <ele>1452.8499999999999</ele>
        <time>2019-05-21T11:39:01Z</time>
      </trkpt>
      <trkpt lat="44.736039787530899" lon="9.210337959229946">
        <ele>1453.54</ele>
        <time>2019-05-21T11:40:00Z</time>
      </trkpt>
      <trkpt lat="44.736031237989664" lon="9.210349693894386">
        <ele>1453.77</ele>
        <time>2019-05-21T11:40:53Z</time>
      </trkpt>
      <trkpt lat="44.736022520810366" lon="9.210361512377858">
        <ele>1454.28</ele>
        <time>2019-05-21T11:41:21Z</time>
      </trkpt>
      <trkpt lat="44.73601296544075" lon="9.21037676744163">
        <ele>1454.1400000000001</ele>
        <time>2019-05-21T11:41:43Z</time>
      </trkpt>
      <trkpt lat="44.736041631549597" lon="9.210352376103401">
        <ele>1454.0599999999999</ele>
        <time>2019-05-21T11:42:13Z</time>
      </trkpt>
      <trkpt lat="44.73604079335928" lon="9.210350448265672">
        <ele>1454.48</ele>
        <time>2019-05-21T11:43:10Z</time>
      </trkpt>
      <trkpt lat="44.736033920198679" lon="9.210347682237625">
        <ele>1454.52</ele>
        <time>2019-05-21T11:43:58Z</time>
      </trkpt>
      <trkpt lat="44.736029310151935" lon="9.210342988371849">
        <ele>1455.04</ele>
        <time>2019-05-21T11:45:03Z</time>
      </trkpt>
      <trkpt lat="44.736037775874138" lon="9.210337372496724">
        <ele>1454.9400000000001</ele>
        <time>2019-05-21T11:46:09Z</time>
      </trkpt>
      <trkpt lat="44.736047917976975" lon="9.210334187373519">
        <ele>1455.1400000000001</ele>
        <time>2019-05-21T11:47:02Z</time>
      </trkpt>
      <trkpt lat="44.736036686226726" lon="9.210346257314086">
        <ele>1455.22</ele>
        <time>2019-05-21T11:48:06Z</time>
      </trkpt>
      <trkpt lat="44.736028807237744" lon="9.210354052484036">
        <ele>1455.25</ele>
        <time>2019-05-21T11:48:59Z</time>
      </trkpt>
      <trkpt lat="44.736028388142586" lon="9.210331002250314">
        <ele>1455.5799999999999</ele>
        <time>2019-05-21T11:49:59Z</time>
      </trkpt>
      <trkpt lat="44.736036350950599" lon="9.210322955623269">
        <ele>1455.79</ele>
        <time>2019-05-21T11:50:57Z</time>
      </trkpt>
      <trkpt lat="44.736048756167293" lon="9.210324715822935">
        <ele>1456.24</ele>
        <time>2019-05-21T11:51:50Z</time>
      </trkpt>
      <trkpt lat="44.736045654863119" lon="9.210312981158495">
        <ele>1456.02</ele>
        <time>2019-05-21T11:52:36Z</time>
      </trkpt>
      <trkpt lat="44.736029058694839" lon="9.210332930088043">
        <ele>1456.3199999999999</ele>
        <time>2019-05-21T11:53:35Z</time>
      </trkpt>
      <trkpt lat="44.736022520810366" lon="9.21033083461225">
        <ele>1456.5699999999999</ele>
        <time>2019-05-21T11:54:26Z</time>
      </trkpt>
      <trkpt lat="44.736026460304856" lon="9.210305018350482">
        <ele>1456.8699999999999</ele>
        <time>2019-05-21T11:55:22Z</time>
      </trkpt>
      <trkpt lat="44.736026376485825" lon="9.210321363061667">
        <ele>1457.1199999999999</ele>
        <time>2019-05-21T11:56:21Z</time>
      </trkpt>
      <trkpt lat="44.736014390364289" lon="9.210331505164504">
        <ele>1457.1900000000001</ele>
        <time>2019-05-21T11:57:16Z</time>
      </trkpt>
      <trkpt lat="44.736017072573304" lon="9.210310382768512">
        <ele>1457.5799999999999</ele>
        <time>2019-05-21T11:58:05Z</time>
      </trkpt>
      <trkpt lat="44.736001146957278" lon="9.210307784378529">
        <ele>1457.71</ele>
        <time>2019-05-21T11:59:02Z</time>
      </trkpt>
      <trkpt lat="44.735993854701519" lon="9.210299570113421">
        <ele>1458.0999999999999</ele>
        <time>2019-05-21T11:59:56Z</time>
      </trkpt>
      <trkpt lat="44.735987149178982" lon="9.210302839055657">
        <ele>1458.4200000000001</ele>
        <time>2019-05-21T12:00:48Z</time>
      </trkpt>
      <trkpt lat="44.736000057309866" lon="9.210286578163505">
        <ele>1459.0599999999999</ele>
        <time>2019-05-21T12:01:37Z</time>
      </trkpt>
      <trkpt lat="44.736004080623388" lon="9.210275346413255">
        <ele>1459.6900000000001</ele>
        <time>2019-05-21T12:02:33Z</time>
      </trkpt>
      <trkpt lat="44.73598756827414" lon="9.210281213745475">
        <ele>1459.95</ele>
        <time>2019-05-21T12:03:26Z</time>
      </trkpt>
      <trkpt lat="44.735993016511202" lon="9.210301078855991">
        <ele>1461.1500000000001</ele>
        <time>2019-05-21T12:03:46Z</time>
      </trkpt>
      <trkpt lat="44.735996033996344" lon="9.210301414132118">
        <ele>1460.8199999999999</ele>
        <time>2019-05-21T12:04:03Z</time>
      </trkpt>
      <trkpt lat="44.735986646264791" lon="9.210325470194221">
        <ele>1461.4200000000001</ele>
        <time>2019-05-21T12:04:20Z</time>
      </trkpt>
      <trkpt lat="44.735967451706529" lon="9.210391938686371">
        <ele>1462.1199999999999</ele>
        <time>2019-05-21T12:04:33Z</time>
      </trkpt>
      <trkpt lat="44.735965942963958" lon="9.210392022505403">
        <ele>1460.9100000000001</ele>
        <time>2019-05-21T12:04:38Z</time>
      </trkpt>
      <trkpt lat="44.735965691506863" lon="9.210391519591212">
        <ele>1463.28</ele>
        <time>2019-05-21T12:04:40Z</time>
      </trkpt>
      <trkpt lat="44.73596652969718" lon="9.210392273962498">
        <ele>1462.24</ele>
        <time>2019-05-21T12:04:42Z</time>
      </trkpt>
      <trkpt lat="44.735965272411704" lon="9.210391519591212">
        <ele>1462.01</ele>
        <time>2019-05-21T12:04:59Z</time>
      </trkpt>
      <trkpt lat="44.735963344573975" lon="9.210386071354151">
        <ele>1462.1199999999999</ele>
        <time>2019-05-21T12:05:17Z</time>
      </trkpt>
      <trkpt lat="44.735963344573975" lon="9.210379282012582">
        <ele>1462.27</ele>
        <time>2019-05-21T12:05:36Z</time>
      </trkpt>
      <trkpt lat="44.735961249098182" lon="9.210362853482366">
        <ele>1462.54</ele>
        <time>2019-05-21T12:05:58Z</time>
      </trkpt>
      <trkpt lat="44.735961752012372" lon="9.210365200415254">
        <ele>1462.48</ele>
        <time>2019-05-21T12:06:16Z</time>
      </trkpt>
      <trkpt lat="44.735960746183991" lon="9.210355393588543">
        <ele>1462.6800000000001</ele>
        <time>2019-05-21T12:06:36Z</time>
      </trkpt>
      <trkpt lat="44.735954040661454" lon="9.210363691672683">
        <ele>1461.1400000000001</ele>
        <time>2019-05-21T12:06:57Z</time>
      </trkpt>
      <trkpt lat="44.735952280461788" lon="9.210367295891047">
        <ele>1463.1099999999999</ele>
        <time>2019-05-21T12:06:59Z</time>
      </trkpt>
      <trkpt lat="44.735929733142257" lon="9.210343491286039">
        <ele>1462.7</ele>
        <time>2019-05-21T12:07:11Z</time>
      </trkpt>
      <trkpt lat="44.73589176312089" lon="9.21033276244998">
        <ele>1463.1900000000001</ele>
        <time>2019-05-21T12:07:23Z</time>
      </trkpt>
      <trkpt lat="44.735824875533581" lon="9.210291272029281">
        <ele>1463.3199999999999</ele>
        <time>2019-05-21T12:07:35Z</time>
      </trkpt>
      <trkpt lat="44.735799310728908" lon="9.21028096228838">
        <ele>1463.51</ele>
        <time>2019-05-21T12:07:38Z</time>
      </trkpt>
      <trkpt lat="44.735626559704542" lon="9.21019303612411">
        <ele>1463.6700000000001</ele>
        <time>2019-05-21T12:07:56Z</time>
      </trkpt>
      <trkpt lat="44.73546763882041" lon="9.210086334496737">
        <ele>1464.6800000000001</ele>
        <time>2019-05-21T12:08:13Z</time>
      </trkpt>
      <trkpt lat="44.735361021012068" lon="9.210043167695403">
        <ele>1465.48</ele>
        <time>2019-05-21T12:08:27Z</time>
      </trkpt>
      <trkpt lat="44.735220624133945" lon="9.209989439696074">
        <ele>1467.1800000000001</ele>
        <time>2019-05-21T12:08:44Z</time>
      </trkpt>
      <trkpt lat="44.735110821202397" lon="9.209954906255007">
        <ele>1468.1099999999999</ele>
        <time>2019-05-21T12:08:58Z</time>
      </trkpt>
      <trkpt lat="44.734997414052486" lon="9.209920456632972">
        <ele>1468.9100000000001</ele>
        <time>2019-05-21T12:09:11Z</time>
      </trkpt>
      <trkpt lat="44.7349120862782" lon="9.209933448582888">
        <ele>1469.2</ele>
        <time>2019-05-21T12:09:20Z</time>
      </trkpt>
      <trkpt lat="44.734730031341314" lon="9.210025733336806">
        <ele>1470.1700000000001</ele>
        <time>2019-05-21T12:09:38Z</time>
      </trkpt>
      <trkpt lat="44.734561555087566" lon="9.210157748311758">
        <ele>1470.6099999999999</ele>
        <time>2019-05-21T12:09:54Z</time>
      </trkpt>
      <trkpt lat="44.734387043863535" lon="9.210295211523771">
        <ele>1471.5899999999999</ele>
        <time>2019-05-21T12:10:11Z</time>
      </trkpt>
      <trkpt lat="44.734206246212125" lon="9.210403840988874">
        <ele>1472.3299999999999</ele>
        <time>2019-05-21T12:10:29Z</time>
      </trkpt>
      <trkpt lat="44.734021676704288" lon="9.210466202348471">
        <ele>1472.8900000000001</ele>
        <time>2019-05-21T12:10:47Z</time>
      </trkpt>
      <trkpt lat="44.73388253711164" lon="9.210493946447969">
        <ele>1473.6500000000001</ele>
        <time>2019-05-21T12:11:01Z</time>
      </trkpt>
      <trkpt lat="44.733729064464569" lon="9.210506686940789">
        <ele>1475.3299999999999</ele>
        <time>2019-05-21T12:11:17Z</time>
      </trkpt>
      <trkpt lat="44.733565114438534" lon="9.210509117692709">
        <ele>1476.27</ele>
        <time>2019-05-21T12:11:33Z</time>
      </trkpt>
      <trkpt lat="44.733416335657239" lon="9.210469974204898">
        <ele>1476.98</ele>
        <time>2019-05-21T12:11:49Z</time>
      </trkpt>
      <trkpt lat="44.733299743384123" lon="9.210437117144465">
        <ele>1477.48</ele>
        <time>2019-05-21T12:12:02Z</time>
      </trkpt>
      <trkpt lat="44.733175607398152" lon="9.21043099835515">
        <ele>1478.05</ele>
        <time>2019-05-21T12:12:17Z</time>
      </trkpt>
      <trkpt lat="44.733156245201826" lon="9.210432423278689">
        <ele>1478.01</ele>
        <time>2019-05-21T12:12:19Z</time>
      </trkpt>
      <trkpt lat="44.733034875243902" lon="9.210459161549807">
        <ele>1477.8900000000001</ele>
        <time>2019-05-21T12:12:29Z</time>
      </trkpt>
      <trkpt lat="44.732861705124378" lon="9.210492270067334">
        <ele>1478.26</ele>
        <time>2019-05-21T12:12:42Z</time>
      </trkpt>
      <trkpt lat="44.732748800888658" lon="9.21055119484663">
        <ele>1477.96</ele>
        <time>2019-05-21T12:12:50Z</time>
      </trkpt>
      <trkpt lat="44.732719631865621" lon="9.210570976138115">
        <ele>1477.6900000000001</ele>
        <time>2019-05-21T12:12:53Z</time>
      </trkpt>
      <trkpt lat="44.732556603848934" lon="9.21057709492743">
        <ele>1477.79</ele>
        <time>2019-05-21T12:13:07Z</time>
      </trkpt>
      <trkpt lat="44.732343954965472" lon="9.210692262277007">
        <ele>1477.0899999999999</ele>
        <time>2019-05-21T12:13:24Z</time>
      </trkpt>
      <trkpt lat="44.732231302186847" lon="9.210757138207555">
        <ele>1476.95</ele>
        <time>2019-05-21T12:13:33Z</time>
      </trkpt>
      <trkpt lat="44.732211856171489" lon="9.210773818194866">
        <ele>1477.1300000000001</ele>
        <time>2019-05-21T12:13:35Z</time>
      </trkpt>
      <trkpt lat="44.732173383235931" lon="9.21078915707767">
        <ele>1477.1500000000001</ele>
        <time>2019-05-21T12:13:39Z</time>
      </trkpt>
      <trkpt lat="44.732134658843279" lon="9.210776584222913">
        <ele>1476.5799999999999</ele>
        <time>2019-05-21T12:13:42Z</time>
      </trkpt>
      <trkpt lat="44.731944557279348" lon="9.2107236944139">
        <ele>1476.8900000000001</ele>
        <time>2019-05-21T12:13:56Z</time>
      </trkpt>
      <trkpt lat="44.731790497899055" lon="9.210632247850299">
        <ele>1477.6400000000001</ele>
        <time>2019-05-21T12:14:09Z</time>
      </trkpt>
      <trkpt lat="44.731734339147806" lon="9.210608443245292">
        <ele>1478.27</ele>
        <time>2019-05-21T12:14:14Z</time>
      </trkpt>
      <trkpt lat="44.731556056067348" lon="9.210493359714747">
        <ele>1478.8699999999999</ele>
        <time>2019-05-21T12:14:30Z</time>
      </trkpt>
      <trkpt lat="44.731382466852665" lon="9.210402499884367">
        <ele>1479.78</ele>
        <time>2019-05-21T12:14:46Z</time>
      </trkpt>
      <trkpt lat="44.73122974857688" lon="9.210294792428613">
        <ele>1480.8699999999999</ele>
        <time>2019-05-21T12:15:01Z</time>
      </trkpt>
      <trkpt lat="44.731034701690078" lon="9.210190940648317">
        <ele>1482.0899999999999</ele>
        <time>2019-05-21T12:15:19Z</time>
      </trkpt>
      <trkpt lat="44.730856502428651" lon="9.210087927058339">
        <ele>1484.5999999999999</ele>
        <time>2019-05-21T12:15:36Z</time>
      </trkpt>
      <trkpt lat="44.730724403634667" lon="9.210019111633301">
        <ele>1485.8299999999999</ele>
        <time>2019-05-21T12:15:49Z</time>
      </trkpt>
      <trkpt lat="44.730568919330835" lon="9.209944428876042">
        <ele>1488.1099999999999</ele>
        <time>2019-05-21T12:16:05Z</time>
      </trkpt>
      <trkpt lat="44.730470264330506" lon="9.20987200923264">
        <ele>1489.51</ele>
        <time>2019-05-21T12:16:16Z</time>
      </trkpt>
      <trkpt lat="44.730337159708142" lon="9.209757260978222">
        <ele>1491.8599999999999</ele>
        <time>2019-05-21T12:16:32Z</time>
      </trkpt>
      <trkpt lat="44.730245713144541" lon="9.20963890850544">
        <ele>1493.95</ele>
        <time>2019-05-21T12:16:46Z</time>
      </trkpt>
      <trkpt lat="44.730154434219003" lon="9.209557855501771">
        <ele>1495.6600000000001</ele>
        <time>2019-05-21T12:16:58Z</time>
      </trkpt>
      <trkpt lat="44.730061059817672" lon="9.209455428645015">
        <ele>1497.9000000000001</ele>
        <time>2019-05-21T12:17:12Z</time>
      </trkpt>
      <trkpt lat="44.729987131431699" lon="9.209364149719477">
        <ele>1500.22</ele>
        <time>2019-05-21T12:17:24Z</time>
      </trkpt>
      <trkpt lat="44.729894427582622" lon="9.209263818338513">
        <ele>1502.04</ele>
        <time>2019-05-21T12:17:38Z</time>
      </trkpt>
      <trkpt lat="44.729774734005332" lon="9.209184525534511">
        <ele>1503.4400000000001</ele>
        <time>2019-05-21T12:17:52Z</time>
      </trkpt>
      <trkpt lat="44.729694267734885" lon="9.209097772836685">
        <ele>1503.8800000000001</ele>
        <time>2019-05-21T12:18:03Z</time>
      </trkpt>
      <trkpt lat="44.729582536965609" lon="9.208956956863403">
        <ele>1504.3199999999999</ele>
        <time>2019-05-21T12:18:16Z</time>
      </trkpt>
      <trkpt lat="44.729548757895827" lon="9.208878166973591">
        <ele>1504.51</ele>
        <time>2019-05-21T12:18:22Z</time>
      </trkpt>
      <trkpt lat="44.729422023519874" lon="9.208676833659411">
        <ele>1503.78</ele>
        <time>2019-05-21T12:18:39Z</time>
      </trkpt>
      <trkpt lat="44.729367457330227" lon="9.208598546683788">
        <ele>1502.6500000000001</ele>
        <time>2019-05-21T12:18:45Z</time>
      </trkpt>
      <trkpt lat="44.729336192831397" lon="9.208531826734543">
        <ele>1502.9100000000001</ele>
        <time>2019-05-21T12:18:49Z</time>
      </trkpt>
      <trkpt lat="44.729212559759617" lon="9.208267796784639">
        <ele>1502.01</ele>
        <time>2019-05-21T12:19:07Z</time>
      </trkpt>
      <trkpt lat="44.729118263348937" lon="9.208007287234068">
        <ele>1502.53</ele>
        <time>2019-05-21T12:19:24Z</time>
      </trkpt>
      <trkpt lat="44.729051124304533" lon="9.207801092416048">
        <ele>1503.1600000000001</ele>
        <time>2019-05-21T12:19:38Z</time>
      </trkpt>
      <trkpt lat="44.728964539244771" lon="9.207553239539266">
        <ele>1505.05</ele>
        <time>2019-05-21T12:19:56Z</time>
      </trkpt>
      <trkpt lat="44.728882228955626" lon="9.20734528452158">
        <ele>1506.51</ele>
        <time>2019-05-21T12:20:12Z</time>
      </trkpt>
      <trkpt lat="44.72881006076932" lon="9.207163145765662">
        <ele>1507.74</ele>
        <time>2019-05-21T12:20:26Z</time>
      </trkpt>
      <trkpt lat="44.728778880089521" lon="9.207033645361662">
        <ele>1508.4300000000001</ele>
        <time>2019-05-21T12:20:39Z</time>
      </trkpt>
      <trkpt lat="44.728781394660473" lon="9.207018222659826">
        <ele>1508.49</ele>
        <time>2019-05-21T12:20:50Z</time>
      </trkpt>
      <trkpt lat="44.728729175403714" lon="9.206919064745307">
        <ele>1508.76</ele>
        <time>2019-05-21T12:20:58Z</time>
      </trkpt>
      <trkpt lat="44.728636052459478" lon="9.206779086962342">
        <ele>1508.55</ele>
        <time>2019-05-21T12:21:10Z</time>
      </trkpt>
      <trkpt lat="44.728618199005723" lon="9.206766849383712">
        <ele>1508.29</ele>
        <time>2019-05-21T12:21:12Z</time>
      </trkpt>
      <trkpt lat="44.728520633652806" lon="9.206634666770697">
        <ele>1508.4300000000001</ele>
        <time>2019-05-21T12:21:25Z</time>
      </trkpt>
      <trkpt lat="44.728410327807069" lon="9.206540873274207">
        <ele>1508.9000000000001</ele>
        <time>2019-05-21T12:21:38Z</time>
      </trkpt>
      <trkpt lat="44.728402616456151" lon="9.206547662615776">
        <ele>1508.9300000000001</ele>
        <time>2019-05-21T12:21:46Z</time>
      </trkpt>
      <trkpt lat="44.728373698890209" lon="9.206520672887564">
        <ele>1508.9400000000001</ele>
        <time>2019-05-21T12:21:50Z</time>
      </trkpt>
      <trkpt lat="44.72820564173162" lon="9.206514554098249">
        <ele>1510.8599999999999</ele>
        <time>2019-05-21T12:22:07Z</time>
      </trkpt>
      <trkpt lat="44.728064490482211" lon="9.206515057012439">
        <ele>1511.8199999999999</ele>
        <time>2019-05-21T12:22:21Z</time>
      </trkpt>
      <trkpt lat="44.727904228493571" lon="9.206536430865526">
        <ele>1513.1800000000001</ele>
        <time>2019-05-21T12:22:36Z</time>
      </trkpt>
      <trkpt lat="44.727733908221126" lon="9.206530144438148">
        <ele>1513.9100000000001</ele>
        <time>2019-05-21T12:22:51Z</time>
      </trkpt>
      <trkpt lat="44.7275660187006" lon="9.206423945724964">
        <ele>1514.8699999999999</ele>
        <time>2019-05-21T12:23:07Z</time>
      </trkpt>
      <trkpt lat="44.727448085322976" lon="9.206328559666872">
        <ele>1515.3199999999999</ele>
        <time>2019-05-21T12:23:19Z</time>
      </trkpt>
      <trkpt lat="44.727320093661547" lon="9.206196293234825">
        <ele>1516.49</ele>
        <time>2019-05-21T12:23:34Z</time>
      </trkpt>
      <trkpt lat="44.727204423397779" lon="9.206097470596433">
        <ele>1517.95</ele>
        <time>2019-05-21T12:23:47Z</time>
      </trkpt>
      <trkpt lat="44.727081209421158" lon="9.206039467826486">
        <ele>1519.3</ele>
        <time>2019-05-21T12:24:00Z</time>
      </trkpt>
      <trkpt lat="44.726929999887943" lon="9.205948272719979">
        <ele>1520.6099999999999</ele>
        <time>2019-05-21T12:24:16Z</time>
      </trkpt>
      <trkpt lat="44.726792620494962" lon="9.205822041258216">
        <ele>1521.46</ele>
        <time>2019-05-21T12:24:32Z</time>
      </trkpt>
      <trkpt lat="44.726660437881947" lon="9.205644596368074">
        <ele>1521.76</ele>
        <time>2019-05-21T12:24:48Z</time>
      </trkpt>
      <trkpt lat="44.726581145077944" lon="9.205564381554723">
        <ele>1521.49</ele>
        <time>2019-05-21T12:25:00Z</time>
      </trkpt>
      <trkpt lat="44.726573014631867" lon="9.205550216138363">
        <ele>1521.3900000000001</ele>
        <time>2019-05-21T12:25:06Z</time>
      </trkpt>
      <trkpt lat="44.726553652435541" lon="9.2055085580796">
        <ele>1519.8900000000001</ele>
        <time>2019-05-21T12:25:18Z</time>
      </trkpt>
      <trkpt lat="44.726557172834873" lon="9.205504283308983">
        <ele>1523.2</ele>
        <time>2019-05-21T12:25:41Z</time>
      </trkpt>
      <trkpt lat="44.72655457444489" lon="9.205506546422839">
        <ele>1522.3800000000001</ele>
        <time>2019-05-21T12:25:42Z</time>
      </trkpt>
      <trkpt lat="44.726553736254573" lon="9.2055085580796">
        <ele>1520.9100000000001</ele>
        <time>2019-05-21T12:25:44Z</time>
      </trkpt>
      <trkpt lat="44.726543761789799" lon="9.205520711839199">
        <ele>1520.6600000000001</ele>
        <time>2019-05-21T12:26:16Z</time>
      </trkpt>
      <trkpt lat="44.726538481190801" lon="9.205508474260569">
        <ele>1521.8699999999999</ele>
        <time>2019-05-21T12:26:35Z</time>
      </trkpt>
      <trkpt lat="44.726535547524691" lon="9.205509731546044">
        <ele>1521.9200000000001</ele>
        <time>2019-05-21T12:26:51Z</time>
      </trkpt>
      <trkpt lat="44.726525153964758" lon="9.205504450947046">
        <ele>1522.1800000000001</ele>
        <time>2019-05-21T12:27:00Z</time>
      </trkpt>
      <trkpt lat="44.726447034627199" lon="9.205441838130355">
        <ele>1521.3699999999999</ele>
        <time>2019-05-21T12:27:08Z</time>
      </trkpt>
      <trkpt lat="44.726299345493317" lon="9.205287527292967">
        <ele>1520.71</ele>
        <time>2019-05-21T12:27:24Z</time>
      </trkpt>
      <trkpt lat="44.726197170093656" lon="9.205142604187131">
        <ele>1519.0699999999999</ele>
        <time>2019-05-21T12:27:37Z</time>
      </trkpt>
      <trkpt lat="44.726189961656928" lon="9.205131875351071">
        <ele>1519.0699999999999</ele>
        <time>2019-05-21T12:27:38Z</time>
      </trkpt>
      <trkpt lat="44.726074375212193" lon="9.204964237287641">
        <ele>1518.75</ele>
        <time>2019-05-21T12:27:52Z</time>
      </trkpt>
      <trkpt lat="44.725965075194836" lon="9.204804310575128">
        <ele>1516.0799999999999</ele>
        <time>2019-05-21T12:28:05Z</time>
      </trkpt>
      <trkpt lat="44.725834904238582" lon="9.204637175425887">
        <ele>1514.21</ele>
        <time>2019-05-21T12:28:20Z</time>
      </trkpt>
      <trkpt lat="44.725670702755451" lon="9.204412624239922">
        <ele>1512.5699999999999</ele>
        <time>2019-05-21T12:28:38Z</time>
      </trkpt>
      <trkpt lat="44.725528042763472" lon="9.204243645071983">
        <ele>1509.55</ele>
        <time>2019-05-21T12:28:52Z</time>
      </trkpt>
      <trkpt lat="44.72544003278017" lon="9.204183714464307">
        <ele>1508</ele>
        <time>2019-05-21T12:29:00Z</time>
      </trkpt>
      <trkpt lat="44.725379180163145" lon="9.204189497977495">
        <ele>1507.78</ele>
        <time>2019-05-21T12:29:12Z</time>
      </trkpt>
      <trkpt lat="44.725375743582845" lon="9.20418824069202">
        <ele>1507.6600000000001</ele>
        <time>2019-05-21T12:29:13Z</time>
      </trkpt>
      <trkpt lat="44.725316232070327" lon="9.204149264842272">
        <ele>1506.8599999999999</ele>
        <time>2019-05-21T12:29:19Z</time>
      </trkpt>
      <trkpt lat="44.725134260952473" lon="9.204012723639607">
        <ele>1505.8199999999999</ele>
        <time>2019-05-21T12:29:36Z</time>
      </trkpt>
      <trkpt lat="44.724943824112415" lon="9.203845169395208">
        <ele>1504.8399999999999</ele>
        <time>2019-05-21T12:29:54Z</time>
      </trkpt>
      <trkpt lat="44.724760763347149" lon="9.203705191612244">
        <ele>1504.04</ele>
        <time>2019-05-21T12:30:10Z</time>
      </trkpt>
      <trkpt lat="44.724570577964187" lon="9.203577619045973">
        <ele>1502.5599999999999</ele>
        <time>2019-05-21T12:30:26Z</time>
      </trkpt>
      <trkpt lat="44.724303865805268" lon="9.203469911590219">
        <ele>1499.9200000000001</ele>
        <time>2019-05-21T12:30:47Z</time>
      </trkpt>
      <trkpt lat="44.724093396216631" lon="9.203469743952155">
        <ele>1497.97</ele>
        <time>2019-05-21T12:31:03Z</time>
      </trkpt>
      <trkpt lat="44.723898768424988" lon="9.203392881900072">
        <ele>1495.9300000000001</ele>
        <time>2019-05-21T12:31:19Z</time>
      </trkpt>
      <trkpt lat="44.723779745399952" lon="9.203277295455337">
        <ele>1494.5999999999999</ele>
        <time>2019-05-21T12:31:30Z</time>
      </trkpt>
      <trkpt lat="44.723619567230344" lon="9.203158356249332">
        <ele>1493.4400000000001</ele>
        <time>2019-05-21T12:31:45Z</time>
      </trkpt>
      <trkpt lat="44.723607581108809" lon="9.20314209535718">
        <ele>1493.3800000000001</ele>
        <time>2019-05-21T12:31:47Z</time>
      </trkpt>
      <trkpt lat="44.723465759307146" lon="9.203044194728136">
        <ele>1493.5599999999999</ele>
        <time>2019-05-21T12:32:01Z</time>
      </trkpt>
      <trkpt lat="44.723292840644717" lon="9.202946880832315">
        <ele>1494.29</ele>
        <time>2019-05-21T12:32:18Z</time>
      </trkpt>
      <trkpt lat="44.723239531740546" lon="9.202932883054018">
        <ele>1494.49</ele>
        <time>2019-05-21T12:32:23Z</time>
      </trkpt>
      <trkpt lat="44.723043562844396" lon="9.202906396239996">
        <ele>1495.8599999999999</ele>
        <time>2019-05-21T12:32:41Z</time>
      </trkpt>
      <trkpt lat="44.722881624475121" lon="9.202932547777891">
        <ele>1495.8800000000001</ele>
        <time>2019-05-21T12:32:55Z</time>
      </trkpt>
      <trkpt lat="44.722704598680139" lon="9.202987365424633">
        <ele>1494.45</ele>
        <time>2019-05-21T12:33:10Z</time>
      </trkpt>
      <trkpt lat="44.72252388484776" lon="9.203039584681392">
        <ele>1493.4200000000001</ele>
        <time>2019-05-21T12:33:24Z</time>
      </trkpt>
      <trkpt lat="44.722337303683162" lon="9.203089959919453">
        <ele>1492.3199999999999</ele>
        <time>2019-05-21T12:33:39Z</time>
      </trkpt>
      <trkpt lat="44.722161702811718" lon="9.203057270497084">
        <ele>1489.3</ele>
        <time>2019-05-21T12:33:54Z</time>
      </trkpt>
      <trkpt lat="44.72197855822742" lon="9.203052073717117">
        <ele>1486.6600000000001</ele>
        <time>2019-05-21T12:34:08Z</time>
      </trkpt>
      <trkpt lat="44.721774291247129" lon="9.203075291588903">
        <ele>1483.6500000000001</ele>
        <time>2019-05-21T12:34:25Z</time>
      </trkpt>
      <trkpt lat="44.721577316522598" lon="9.203062802553177">
        <ele>1481.74</ele>
        <time>2019-05-21T12:34:41Z</time>
      </trkpt>
      <trkpt lat="44.721376905217767" lon="9.20308250002563">
        <ele>1478.55</ele>
        <time>2019-05-21T12:34:57Z</time>
      </trkpt>
      <trkpt lat="44.721190826967359" lon="9.20308250002563">
        <ele>1476.49</ele>
        <time>2019-05-21T12:35:12Z</time>
      </trkpt>
      <trkpt lat="44.72100323997438" lon="9.203100772574544">
        <ele>1473.9200000000001</ele>
        <time>2019-05-21T12:35:27Z</time>
      </trkpt>
      <trkpt lat="44.720828644931316" lon="9.203101694583893">
        <ele>1471.72</ele>
        <time>2019-05-21T12:35:41Z</time>
      </trkpt>
      <trkpt lat="44.720675256103277" lon="9.203186603263021">
        <ele>1469.96</ele>
        <time>2019-05-21T12:35:54Z</time>
      </trkpt>
      <trkpt lat="44.720564866438508" lon="9.20331459492445">
        <ele>1471.1099999999999</ele>
        <time>2019-05-21T12:36:06Z</time>
      </trkpt>
      <trkpt lat="44.720513485372066" lon="9.203341165557504">
        <ele>1468.26</ele>
        <time>2019-05-21T12:36:11Z</time>
      </trkpt>
      <trkpt lat="44.720414746552706" lon="9.203460607677698">
        <ele>1469.78</ele>
        <time>2019-05-21T12:36:22Z</time>
      </trkpt>
      <trkpt lat="44.720327910035849" lon="9.203562363982201">
        <ele>1470.5</ele>
        <time>2019-05-21T12:36:33Z</time>
      </trkpt>
      <trkpt lat="44.720277031883597" lon="9.203622043132782">
        <ele>1470.8199999999999</ele>
        <time>2019-05-21T12:36:40Z</time>
      </trkpt>
      <trkpt lat="44.720196397975087" lon="9.203720027580857">
        <ele>1471.3399999999999</ele>
        <time>2019-05-21T12:36:51Z</time>
      </trkpt>
      <trkpt lat="44.720099670812488" lon="9.203805439174175">
        <ele>1471.74</ele>
        <time>2019-05-21T12:37:02Z</time>
      </trkpt>
      <trkpt lat="44.71998592838645" lon="9.203826310113072">
        <ele>1471.52</ele>
        <time>2019-05-21T12:37:12Z</time>
      </trkpt>
      <trkpt lat="44.719928931444883" lon="9.203818514943123">
        <ele>1471.71</ele>
        <time>2019-05-21T12:37:17Z</time>
      </trkpt>
      <trkpt lat="44.719768082723022" lon="9.203863022848964">
        <ele>1472.4400000000001</ele>
        <time>2019-05-21T12:37:31Z</time>
      </trkpt>
      <trkpt lat="44.719660626724362" lon="9.203926306217909">
        <ele>1473.1500000000001</ele>
        <time>2019-05-21T12:37:43Z</time>
      </trkpt>
      <trkpt lat="44.7195706050843" lon="9.20399671420455">
        <ele>1473.8399999999999</ele>
        <time>2019-05-21T12:37:53Z</time>
      </trkpt>
      <trkpt lat="44.719471866264939" lon="9.204063769429922">
        <ele>1474.8399999999999</ele>
        <time>2019-05-21T12:38:05Z</time>
      </trkpt>
      <trkpt lat="44.719369187951088" lon="9.204065781086683">
        <ele>1476.1900000000001</ele>
        <time>2019-05-21T12:38:17Z</time>
      </trkpt>
      <trkpt lat="44.719236502423882" lon="9.204150689765811">
        <ele>1478.46</ele>
        <time>2019-05-21T12:38:32Z</time>
      </trkpt>
      <trkpt lat="44.719205154106021" lon="9.204196622595191">
        <ele>1478.96</ele>
        <time>2019-05-21T12:38:36Z</time>
      </trkpt>
      <trkpt lat="44.719106582924724" lon="9.2043671105057">
        <ele>1479.02</ele>
        <time>2019-05-21T12:38:49Z</time>
      </trkpt>
      <trkpt lat="44.719039276242256" lon="9.204525696113706">
        <ele>1480</ele>
        <time>2019-05-21T12:39:01Z</time>
      </trkpt>
      <trkpt lat="44.718987224623561" lon="9.204660393297672">
        <ele>1481.9300000000001</ele>
        <time>2019-05-21T12:39:14Z</time>
      </trkpt>
      <trkpt lat="44.718951769173145" lon="9.204750917851925">
        <ele>1483.02</ele>
        <time>2019-05-21T12:39:22Z</time>
      </trkpt>
      <trkpt lat="44.718903237953782" lon="9.204795258119702">
        <ele>1483.4000000000001</ele>
        <time>2019-05-21T12:39:28Z</time>
      </trkpt>
      <trkpt lat="44.718784214928746" lon="9.204824846237898">
        <ele>1483.77</ele>
        <time>2019-05-21T12:39:41Z</time>
      </trkpt>
      <trkpt lat="44.71874431706965" lon="9.204831132665277">
        <ele>1483.8099999999999</ele>
        <time>2019-05-21T12:39:45Z</time>
      </trkpt>
      <trkpt lat="44.718617331236601" lon="9.204811602830887">
        <ele>1484.47</ele>
        <time>2019-05-21T12:39:59Z</time>
      </trkpt>
      <trkpt lat="44.718561256304383" lon="9.204769693315029">
        <ele>1485.6300000000001</ele>
        <time>2019-05-21T12:40:06Z</time>
      </trkpt>
      <trkpt lat="44.718435611575842" lon="9.204648155719042">
        <ele>1487.5899999999999</ele>
        <time>2019-05-21T12:40:22Z</time>
      </trkpt>
      <trkpt lat="44.718310302123427" lon="9.204547153785825">
        <ele>1490.5999999999999</ele>
        <time>2019-05-21T12:40:40Z</time>
      </trkpt>
      <trkpt lat="44.718205109238625" lon="9.204388400539756">
        <ele>1490.6800000000001</ele>
        <time>2019-05-21T12:40:55Z</time>
      </trkpt>
      <trkpt lat="44.718101173639297" lon="9.204232329502702">
        <ele>1491.6700000000001</ele>
        <time>2019-05-21T12:41:11Z</time>
      </trkpt>
      <trkpt lat="44.718004781752825" lon="9.20411741361022">
        <ele>1492.8099999999999</ele>
        <time>2019-05-21T12:41:25Z</time>
      </trkpt>
      <trkpt lat="44.717985084280372" lon="9.204105762764812">
        <ele>1492.95</ele>
        <time>2019-05-21T12:41:27Z</time>
      </trkpt>
      <trkpt lat="44.717837227508426" lon="9.203984811902046">
        <ele>1492.23</ele>
        <time>2019-05-21T12:41:43Z</time>
      </trkpt>
      <trkpt lat="44.717710996046662" lon="9.203928485512734">
        <ele>1493.75</ele>
        <time>2019-05-21T12:41:57Z</time>
      </trkpt>
      <trkpt lat="44.717601779848337" lon="9.203888503834605">
        <ele>1496.22</ele>
        <time>2019-05-21T12:42:12Z</time>
      </trkpt>
      <trkpt lat="44.717508908361197" lon="9.203869309276342">
        <ele>1498.9200000000001</ele>
        <time>2019-05-21T12:42:26Z</time>
      </trkpt>
      <trkpt lat="44.71741477958858" lon="9.203808791935444">
        <ele>1501.3699999999999</ele>
        <time>2019-05-21T12:42:41Z</time>
      </trkpt>
      <trkpt lat="44.717329703271389" lon="9.203755902126432">
        <ele>1504.48</ele>
        <time>2019-05-21T12:42:59Z</time>
      </trkpt>
      <trkpt lat="44.717246890068054" lon="9.203708292916417">
        <ele>1507</ele>
        <time>2019-05-21T12:43:14Z</time>
      </trkpt>
      <trkpt lat="44.717200202867389" lon="9.203668981790543">
        <ele>1508.3900000000001</ele>
        <time>2019-05-21T12:43:21Z</time>
      </trkpt>
      <trkpt lat="44.717126190662384" lon="9.20360678806901">
        <ele>1511.0899999999999</ele>
        <time>2019-05-21T12:43:35Z</time>
      </trkpt>
      <trkpt lat="44.717057039961219" lon="9.203556664288044">
        <ele>1513.29</ele>
        <time>2019-05-21T12:43:48Z</time>
      </trkpt>
      <trkpt lat="44.71695302054286" lon="9.203467732295394">
        <ele>1515.3499999999999</ele>
        <time>2019-05-21T12:44:05Z</time>
      </trkpt>
      <trkpt lat="44.716903315857053" lon="9.203416686505079">
        <ele>1515.9200000000001</ele>
        <time>2019-05-21T12:44:12Z</time>
      </trkpt>
      <trkpt lat="44.716790076345205" lon="9.203311325982213">
        <ele>1517.6199999999999</ele>
        <time>2019-05-21T12:44:27Z</time>
      </trkpt>
      <trkpt lat="44.716682620346546" lon="9.203212922438979">
        <ele>1520.77</ele>
        <time>2019-05-21T12:44:42Z</time>
      </trkpt>
      <trkpt lat="44.716585977002978" lon="9.203115105628967">
        <ele>1523.1199999999999</ele>
        <time>2019-05-21T12:44:56Z</time>
      </trkpt>
      <trkpt lat="44.716498050838709" lon="9.203044027090073">
        <ele>1525.55</ele>
        <time>2019-05-21T12:45:09Z</time>
      </trkpt>
      <trkpt lat="44.716381207108498" lon="9.202932463958859">
        <ele>1528.0799999999999</ele>
        <time>2019-05-21T12:45:27Z</time>
      </trkpt>
      <trkpt lat="44.716307865455747" lon="9.202863732352853">
        <ele>1530.6400000000001</ele>
        <time>2019-05-21T12:45:40Z</time>
      </trkpt>
      <trkpt lat="44.716211222112179" lon="9.202804639935494">
        <ele>1531.0699999999999</ele>
        <time>2019-05-21T12:45:56Z</time>
      </trkpt>
      <trkpt lat="44.716208456084132" lon="9.202792150899768">
        <ele>1532.3599999999999</ele>
        <time>2019-05-21T12:46:10Z</time>
      </trkpt>
      <trkpt lat="44.716180209070444" lon="9.20277806930244">
        <ele>1532.25</ele>
        <time>2019-05-21T12:46:13Z</time>
      </trkpt>
      <trkpt lat="44.716033693403006" lon="9.202735908329487">
        <ele>1532.8399999999999</ele>
        <time>2019-05-21T12:46:30Z</time>
      </trkpt>
      <trkpt lat="44.716017935425043" lon="9.202732220292091">
        <ele>1532.71</ele>
        <time>2019-05-21T12:46:32Z</time>
      </trkpt>
      <trkpt lat="44.715998070314527" lon="9.202733980491757">
        <ele>1532.6700000000001</ele>
        <time>2019-05-21T12:46:34Z</time>
      </trkpt>
      <trkpt lat="44.715857673436403" lon="9.202818972989917">
        <ele>1530.6800000000001</ele>
        <time>2019-05-21T12:46:49Z</time>
      </trkpt>
      <trkpt lat="44.715757258236408" lon="9.202966829761863">
        <ele>1528.21</ele>
        <time>2019-05-21T12:47:02Z</time>
      </trkpt>
      <trkpt lat="44.715681821107864" lon="9.203130444511771">
        <ele>1524.8900000000001</ele>
        <time>2019-05-21T12:47:14Z</time>
      </trkpt>
      <trkpt lat="44.715604959055781" lon="9.203260112553835">
        <ele>1521.6199999999999</ele>
        <time>2019-05-21T12:47:26Z</time>
      </trkpt>
      <trkpt lat="44.715523906052113" lon="9.203359857201576">
        <ele>1518.55</ele>
        <time>2019-05-21T12:47:37Z</time>
      </trkpt>
      <trkpt lat="44.715390969067812" lon="9.203407717868686">
        <ele>1517.46</ele>
        <time>2019-05-21T12:47:50Z</time>
      </trkpt>
      <trkpt lat="44.71529021859169" lon="9.203441748395562">
        <ele>1518.8800000000001</ele>
        <time>2019-05-21T12:48:03Z</time>
      </trkpt>
      <trkpt lat="44.715211344882846" lon="9.203504025936127">
        <ele>1518.1700000000001</ele>
        <time>2019-05-21T12:48:14Z</time>
      </trkpt>
      <trkpt lat="44.715190390124917" lon="9.203512156382203">
        <ele>1518.04</ele>
        <time>2019-05-21T12:48:17Z</time>
      </trkpt>
      <trkpt lat="44.715150492265821" lon="9.203525735065341">
        <ele>1517.5799999999999</ele>
        <time>2019-05-21T12:48:21Z</time>
      </trkpt>
      <trkpt lat="44.714990649372339" lon="9.203651379793882">
        <ele>1514.8900000000001</ele>
        <time>2019-05-21T12:48:37Z</time>
      </trkpt>
      <trkpt lat="44.714800966903567" lon="9.203770067542791">
        <ele>1512.4100000000001</ele>
        <time>2019-05-21T12:48:55Z</time>
      </trkpt>
      <trkpt lat="44.714694684371352" lon="9.203817090019584">
        <ele>1511.01</ele>
        <time>2019-05-21T12:49:06Z</time>
      </trkpt>
      <trkpt lat="44.714565016329288" lon="9.203852545469999">
        <ele>1508.6700000000001</ele>
        <time>2019-05-21T12:49:20Z</time>
      </trkpt>
      <trkpt lat="44.714433588087559" lon="9.203801164403558">
        <ele>1506.04</ele>
        <time>2019-05-21T12:49:31Z</time>
      </trkpt>
      <trkpt lat="44.714331915602088" lon="9.203835781663656">
        <ele>1504.21</ele>
        <time>2019-05-21T12:49:40Z</time>
      </trkpt>
      <trkpt lat="44.714209120720625" lon="9.203883893787861">
        <ele>1502.03</ele>
        <time>2019-05-21T12:49:52Z</time>
      </trkpt>
      <trkpt lat="44.714136198163033" lon="9.203909458592534">
        <ele>1500.79</ele>
        <time>2019-05-21T12:49:58Z</time>
      </trkpt>
      <trkpt lat="44.714050786569715" lon="9.203961426392198">
        <ele>1499.7</ele>
        <time>2019-05-21T12:50:04Z</time>
      </trkpt>
      <trkpt lat="44.714004267007113" lon="9.203971903771162">
        <ele>1498.99</ele>
        <time>2019-05-21T12:50:08Z</time>
      </trkpt>
      <trkpt lat="44.713866636157036" lon="9.203957989811897">
        <ele>1495.74</ele>
        <time>2019-05-21T12:50:19Z</time>
      </trkpt>
      <trkpt lat="44.713780721649528" lon="9.203940387815237">
        <ele>1492.4000000000001</ele>
        <time>2019-05-21T12:50:28Z</time>
      </trkpt>
      <trkpt lat="44.713622136041522" lon="9.203985817730427">
        <ele>1489.5899999999999</ele>
        <time>2019-05-21T12:50:42Z</time>
      </trkpt>
      <trkpt lat="44.713446283712983" lon="9.204162340611219">
        <ele>1487.48</ele>
        <time>2019-05-21T12:50:59Z</time>
      </trkpt>
      <trkpt lat="44.713281830772758" lon="9.204303408041596">
        <ele>1486.71</ele>
        <time>2019-05-21T12:51:15Z</time>
      </trkpt>
      <trkpt lat="44.713120646774769" lon="9.204429890960455">
        <ele>1486.9000000000001</ele>
        <time>2019-05-21T12:51:32Z</time>
      </trkpt>
      <trkpt lat="44.712958289310336" lon="9.204556541517377">
        <ele>1486.6900000000001</ele>
        <time>2019-05-21T12:51:49Z</time>
      </trkpt>
      <trkpt lat="44.712825436145067" lon="9.204686880111694">
        <ele>1487.3499999999999</ele>
        <time>2019-05-21T12:52:05Z</time>
      </trkpt>
      <trkpt lat="44.712726529687643" lon="9.204824510961771">
        <ele>1488.3199999999999</ele>
        <time>2019-05-21T12:52:20Z</time>
      </trkpt>
      <trkpt lat="44.712611194700003" lon="9.204946467652917">
        <ele>1490.1400000000001</ele>
        <time>2019-05-21T12:52:36Z</time>
      </trkpt>
      <trkpt lat="44.712516730651259" lon="9.205046212300658">
        <ele>1490.71</ele>
        <time>2019-05-21T12:52:49Z</time>
      </trkpt>
      <trkpt lat="44.712416986003518" lon="9.205133467912674">
        <ele>1491.52</ele>
        <time>2019-05-21T12:53:02Z</time>
      </trkpt>
      <trkpt lat="44.712296035140753" lon="9.205220807343721">
        <ele>1492.3599999999999</ele>
        <time>2019-05-21T12:53:16Z</time>
      </trkpt>
      <trkpt lat="44.712161337956786" lon="9.205289538949728">
        <ele>1493.01</ele>
        <time>2019-05-21T12:53:32Z</time>
      </trkpt>
      <trkpt lat="44.712023455649614" lon="9.205345865339041">
        <ele>1494.5899999999999</ele>
        <time>2019-05-21T12:53:48Z</time>
      </trkpt>
      <trkpt lat="44.711913820356131" lon="9.205376040190458">
        <ele>1495.8</ele>
        <time>2019-05-21T12:54:01Z</time>
      </trkpt>
      <trkpt lat="44.711784739047289" lon="9.205413172021508">
        <ele>1497.6500000000001</ele>
        <time>2019-05-21T12:54:16Z</time>
      </trkpt>
      <trkpt lat="44.711648533120751" lon="9.205453991889954">
        <ele>1498.6600000000001</ele>
        <time>2019-05-21T12:54:31Z</time>
      </trkpt>
      <trkpt lat="44.711520876735449" lon="9.205473689362407">
        <ele>1499.49</ele>
        <time>2019-05-21T12:54:44Z</time>
      </trkpt>
      <trkpt lat="44.71134016290307" lon="9.205500595271587">
        <ele>1500.7</ele>
        <time>2019-05-21T12:55:02Z</time>
      </trkpt>
      <trkpt lat="44.711200604215264" lon="9.205529512837529">
        <ele>1501.99</ele>
        <time>2019-05-21T12:55:17Z</time>
      </trkpt>
      <trkpt lat="44.711101530119777" lon="9.205555412918329">
        <ele>1503.3299999999999</ele>
        <time>2019-05-21T12:55:28Z</time>
      </trkpt>
      <trkpt lat="44.7109155356884" lon="9.205587264150381">
        <ele>1502.72</ele>
        <time>2019-05-21T12:55:45Z</time>
      </trkpt>
      <trkpt lat="44.710719147697091" lon="9.205579636618495">
        <ele>1501.73</ele>
        <time>2019-05-21T12:56:02Z</time>
      </trkpt>
      <trkpt lat="44.710547067224979" lon="9.205536218360066">
        <ele>1503.0999999999999</ele>
        <time>2019-05-21T12:56:19Z</time>
      </trkpt>
      <trkpt lat="44.710372388362885" lon="9.205451644957066">
        <ele>1503.8800000000001</ele>
        <time>2019-05-21T12:56:36Z</time>
      </trkpt>
      <trkpt lat="44.710228554904461" lon="9.205352151766419">
        <ele>1503.6600000000001</ele>
        <time>2019-05-21T12:56:52Z</time>
      </trkpt>
      <trkpt lat="44.710197374224663" lon="9.205342931672931">
        <ele>1504</ele>
        <time>2019-05-21T12:57:01Z</time>
      </trkpt>
      <trkpt lat="44.710200894623995" lon="9.2053565941751">
        <ele>1502.6400000000001</ele>
        <time>2019-05-21T12:57:14Z</time>
      </trkpt>
      <trkpt lat="44.710203660652041" lon="9.205348379909992">
        <ele>1503.22</ele>
        <time>2019-05-21T12:58:13Z</time>
      </trkpt>
      <trkpt lat="44.710203744471073" lon="9.205347541719675">
        <ele>1503.4400000000001</ele>
        <time>2019-05-21T12:58:58Z</time>
      </trkpt>
      <trkpt lat="44.710199302062392" lon="9.205349301919341">
        <ele>1503.52</ele>
        <time>2019-05-21T13:00:04Z</time>
      </trkpt>
      <trkpt lat="44.71019041724503" lon="9.20534142293036">
        <ele>1503.95</ele>
        <time>2019-05-21T13:01:00Z</time>
      </trkpt>
      <trkpt lat="44.710192428901792" lon="9.205344440415502">
        <ele>1504.25</ele>
        <time>2019-05-21T13:01:51Z</time>
      </trkpt>
      <trkpt lat="44.710184801369905" lon="9.205352235585451">
        <ele>1503.8399999999999</ele>
        <time>2019-05-21T13:02:51Z</time>
      </trkpt>
      <trkpt lat="44.71019234508276" lon="9.20537075959146">
        <ele>1504.1600000000001</ele>
        <time>2019-05-21T13:03:45Z</time>
      </trkpt>
      <trkpt lat="44.710187399759889" lon="9.2053790576756">
        <ele>1504.8699999999999</ele>
        <time>2019-05-21T13:04:46Z</time>
      </trkpt>
      <trkpt lat="44.710183711722493" lon="9.205372435972095">
        <ele>1504.22</ele>
        <time>2019-05-21T13:05:47Z</time>
      </trkpt>
      <trkpt lat="44.710185304284096" lon="9.205353911966085">
        <ele>1504.5899999999999</ele>
        <time>2019-05-21T13:06:48Z</time>
      </trkpt>
      <trkpt lat="44.710180023685098" lon="9.205364556983113">
        <ele>1505</ele>
        <time>2019-05-21T13:07:49Z</time>
      </trkpt>
      <trkpt lat="44.710178012028337" lon="9.205368915572763">
        <ele>1504.8499999999999</ele>
        <time>2019-05-21T13:08:47Z</time>
      </trkpt>
      <trkpt lat="44.710174910724163" lon="9.205368580296636">
        <ele>1505.05</ele>
        <time>2019-05-21T13:09:32Z</time>
      </trkpt>
      <trkpt lat="44.710168037563562" lon="9.2053756210953">
        <ele>1506.26</ele>
        <time>2019-05-21T13:09:47Z</time>
      </trkpt>
      <trkpt lat="44.710168708115816" lon="9.205372100695968">
        <ele>1506.53</ele>
        <time>2019-05-21T13:10:03Z</time>
      </trkpt>
      <trkpt lat="44.710171390324831" lon="9.205392971634865">
        <ele>1505.8699999999999</ele>
        <time>2019-05-21T13:10:19Z</time>
      </trkpt>
      <trkpt lat="44.710069550201297" lon="9.205340165644884">
        <ele>1502.8199999999999</ele>
        <time>2019-05-21T13:10:33Z</time>
      </trkpt>
      <trkpt lat="44.709885902702808" lon="9.205236649140716">
        <ele>1501.99</ele>
        <time>2019-05-21T13:10:50Z</time>
      </trkpt>
      <trkpt lat="44.709752043709159" lon="9.205233547836542">
        <ele>1499.0999999999999</ele>
        <time>2019-05-21T13:11:03Z</time>
      </trkpt>
      <trkpt lat="44.709655232727528" lon="9.205336896702647">
        <ele>1496.0599999999999</ele>
        <time>2019-05-21T13:11:16Z</time>
      </trkpt>
      <trkpt lat="44.709591278806329" lon="9.205423817038536">
        <ele>1492.6500000000001</ele>
        <time>2019-05-21T13:11:26Z</time>
      </trkpt>
      <trkpt lat="44.709506537765265" lon="9.205503277480602">
        <ele>1491.2</ele>
        <time>2019-05-21T13:11:35Z</time>
      </trkpt>
      <trkpt lat="44.70936169847846" lon="9.205550383776426">
        <ele>1487.79</ele>
        <time>2019-05-21T13:11:49Z</time>
      </trkpt>
      <trkpt lat="44.709214679896832" lon="9.205575529485941">
        <ele>1484.6400000000001</ele>
        <time>2019-05-21T13:12:02Z</time>
      </trkpt>
      <trkpt lat="44.709035810083151" lon="9.20562288723886">
        <ele>1483.0999999999999</ele>
        <time>2019-05-21T13:12:17Z</time>
      </trkpt>
      <trkpt lat="44.708826011046767" lon="9.205708969384432">
        <ele>1482.4300000000001</ele>
        <time>2019-05-21T13:12:35Z</time>
      </trkpt>
      <trkpt lat="44.70863314345479" lon="9.2057865858078">
        <ele>1482.8099999999999</ele>
        <time>2019-05-21T13:12:53Z</time>
      </trkpt>
      <trkpt lat="44.708473635837436" lon="9.205820197239518">
        <ele>1482.97</ele>
        <time>2019-05-21T13:13:08Z</time>
      </trkpt>
      <trkpt lat="44.70832921564579" lon="9.205839224159718">
        <ele>1484.3</ele>
        <time>2019-05-21T13:13:22Z</time>
      </trkpt>
      <trkpt lat="44.708181945607066" lon="9.205853473395109">
        <ele>1485.6700000000001</ele>
        <time>2019-05-21T13:13:37Z</time>
      </trkpt>
      <trkpt lat="44.708012714982033" lon="9.205871829763055">
        <ele>1487.1099999999999</ele>
        <time>2019-05-21T13:13:53Z</time>
      </trkpt>
      <trkpt lat="44.707832923159003" lon="9.205908291041851">
        <ele>1485.51</ele>
        <time>2019-05-21T13:14:10Z</time>
      </trkpt>
      <trkpt lat="44.707642151042819" lon="9.205927988514304">
        <ele>1483.1300000000001</ele>
        <time>2019-05-21T13:14:27Z</time>
      </trkpt>
      <trkpt lat="44.707458671182394" lon="9.2059575766325">
        <ele>1483.51</ele>
        <time>2019-05-21T13:14:43Z</time>
      </trkpt>
      <trkpt lat="44.707277119159698" lon="9.205967132002115">
        <ele>1483.0999999999999</ele>
        <time>2019-05-21T13:14:59Z</time>
      </trkpt>
      <trkpt lat="44.707127586007118" lon="9.20594047755003">
        <ele>1484.71</ele>
        <time>2019-05-21T13:15:14Z</time>
      </trkpt>
      <trkpt lat="44.706994397565722" lon="9.205912901088595">
        <ele>1486.03</ele>
        <time>2019-05-21T13:15:28Z</time>
      </trkpt>
      <trkpt lat="44.706862717866898" lon="9.205854060128331">
        <ele>1487.52</ele>
        <time>2019-05-21T13:15:42Z</time>
      </trkpt>
      <trkpt lat="44.706702288240194" lon="9.205801924690604">
        <ele>1488.6600000000001</ele>
        <time>2019-05-21T13:15:58Z</time>
      </trkpt>
      <trkpt lat="44.706532470881939" lon="9.205750795081258">
        <ele>1488.6900000000001</ele>
        <time>2019-05-21T13:16:14Z</time>
      </trkpt>
      <trkpt lat="44.706356367096305" lon="9.205683236941695">
        <ele>1487.77</ele>
        <time>2019-05-21T13:16:29Z</time>
      </trkpt>
      <trkpt lat="44.70629115588963" lon="9.20563898049295">
        <ele>1487.47</ele>
        <time>2019-05-21T13:16:35Z</time>
      </trkpt>
      <trkpt lat="44.706089235842228" lon="9.205703437328339">
        <ele>1487.8699999999999</ele>
        <time>2019-05-21T13:16:53Z</time>
      </trkpt>
      <trkpt lat="44.705959986895323" lon="9.205778706818819">
        <ele>1486.3399999999999</ele>
        <time>2019-05-21T13:17:06Z</time>
      </trkpt>
      <trkpt lat="44.705919502303004" lon="9.205788346007466">
        <ele>1486.05</ele>
        <time>2019-05-21T13:17:10Z</time>
      </trkpt>
      <trkpt lat="44.705780614167452" lon="9.205844504758716">
        <ele>1485.76</ele>
        <time>2019-05-21T13:17:23Z</time>
      </trkpt>
      <trkpt lat="44.70565346069634" lon="9.205870153382421">
        <ele>1485.21</ele>
        <time>2019-05-21T13:17:34Z</time>
      </trkpt>
      <trkpt lat="44.70551960170269" lon="9.205913320183754">
        <ele>1486.04</ele>
        <time>2019-05-21T13:17:48Z</time>
      </trkpt>
      <trkpt lat="44.7053895983845" lon="9.205963024869561">
        <ele>1486.1099999999999</ele>
        <time>2019-05-21T13:18:01Z</time>
      </trkpt>
      <trkpt lat="44.705273425206542" lon="9.205996803939343">
        <ele>1484.1900000000001</ele>
        <time>2019-05-21T13:18:14Z</time>
      </trkpt>
      <trkpt lat="44.705131771042943" lon="9.20607291162014">
        <ele>1482.25</ele>
        <time>2019-05-21T13:18:28Z</time>
      </trkpt>
      <trkpt lat="44.705084161832929" lon="9.206113982945681">
        <ele>1480.9100000000001</ele>
        <time>2019-05-21T13:18:33Z</time>
      </trkpt>
      <trkpt lat="44.704897245392203" lon="9.206194281578064">
        <ele>1477.96</ele>
        <time>2019-05-21T13:18:50Z</time>
      </trkpt>
      <trkpt lat="44.704704796895385" lon="9.206317411735654">
        <ele>1476.8599999999999</ele>
        <time>2019-05-21T13:19:07Z</time>
      </trkpt>
      <trkpt lat="44.704545708373189" lon="9.206358902156353">
        <ele>1475.3</ele>
        <time>2019-05-21T13:19:20Z</time>
      </trkpt>
      <trkpt lat="44.704387793317437" lon="9.206413468346">
        <ele>1475.0899999999999</ele>
        <time>2019-05-21T13:19:34Z</time>
      </trkpt>
      <trkpt lat="44.704270111396909" lon="9.206327637657523">
        <ele>1475.54</ele>
        <time>2019-05-21T13:19:48Z</time>
      </trkpt>
      <trkpt lat="44.704159470275044" lon="9.206201238557696">
        <ele>1475.0999999999999</ele>
        <time>2019-05-21T13:20:02Z</time>
      </trkpt>
      <trkpt lat="44.704067688435316" lon="9.206155641004443">
        <ele>1475.72</ele>
        <time>2019-05-21T13:20:17Z</time>
      </trkpt>
      <trkpt lat="44.703916143625975" lon="9.206130495294929">
        <ele>1478.3599999999999</ele>
        <time>2019-05-21T13:20:33Z</time>
      </trkpt>
      <trkpt lat="44.703793348744512" lon="9.206033935770392">
        <ele>1479.98</ele>
        <time>2019-05-21T13:20:46Z</time>
      </trkpt>
      <trkpt lat="44.703722186386585" lon="9.205903178080916">
        <ele>1480.49</ele>
        <time>2019-05-21T13:20:59Z</time>
      </trkpt>
      <trkpt lat="44.703683964908123" lon="9.205754902213812">
        <ele>1480.1300000000001</ele>
        <time>2019-05-21T13:21:11Z</time>
      </trkpt>
      <trkpt lat="44.703665776178241" lon="9.205712070688605">
        <ele>1480.3</ele>
        <time>2019-05-21T13:21:14Z</time>
      </trkpt>
      <trkpt lat="44.703595787286758" lon="9.205599669367075">
        <ele>1481.0699999999999</ele>
        <time>2019-05-21T13:21:25Z</time>
      </trkpt>
      <trkpt lat="44.703502077609301" lon="9.205468660220504">
        <ele>1483.27</ele>
        <time>2019-05-21T13:21:39Z</time>
      </trkpt>
      <trkpt lat="44.703423203900456" lon="9.205342764034867">
        <ele>1484.3599999999999</ele>
        <time>2019-05-21T13:21:52Z</time>
      </trkpt>
      <trkpt lat="44.703347766771913" lon="9.205206139013171">
        <ele>1485.3599999999999</ele>
        <time>2019-05-21T13:22:05Z</time>
      </trkpt>
      <trkpt lat="44.703305102884769" lon="9.205028945580125">
        <ele>1486.49</ele>
        <time>2019-05-21T13:22:18Z</time>
      </trkpt>
      <trkpt lat="44.703258164227009" lon="9.204942779615521">
        <ele>1487.4100000000001</ele>
        <time>2019-05-21T13:22:27Z</time>
      </trkpt>
      <trkpt lat="44.703172165900469" lon="9.204956609755755">
        <ele>1487.73</ele>
        <time>2019-05-21T13:22:38Z</time>
      </trkpt>
      <trkpt lat="44.703038139268756" lon="9.20504629611969">
        <ele>1487.9300000000001</ele>
        <time>2019-05-21T13:22:52Z</time>
      </trkpt>
      <trkpt lat="44.702906291931868" lon="9.205148303881288">
        <ele>1487.6500000000001</ele>
        <time>2019-05-21T13:23:06Z</time>
      </trkpt>
      <trkpt lat="44.702818030491471" lon="9.205337651073933">
        <ele>1489.01</ele>
        <time>2019-05-21T13:23:20Z</time>
      </trkpt>
      <trkpt lat="44.702804954722524" lon="9.205455500632525">
        <ele>1492.1099999999999</ele>
        <time>2019-05-21T13:23:32Z</time>
      </trkpt>
      <trkpt lat="44.702804116532207" lon="9.205546025186777">
        <ele>1493.5699999999999</ele>
        <time>2019-05-21T13:23:40Z</time>
      </trkpt>
      <trkpt lat="44.702773941680789" lon="9.205788429826498">
        <ele>1494.8699999999999</ele>
        <time>2019-05-21T13:23:57Z</time>
      </trkpt>
      <trkpt lat="44.702727505937219" lon="9.205993032082915">
        <ele>1495.95</ele>
        <time>2019-05-21T13:24:13Z</time>
      </trkpt>
      <trkpt lat="44.702700767666101" lon="9.206146253272891">
        <ele>1496.76</ele>
        <time>2019-05-21T13:24:24Z</time>
      </trkpt>
      <trkpt lat="44.70265869051218" lon="9.206320010125637">
        <ele>1497.1400000000001</ele>
        <time>2019-05-21T13:24:39Z</time>
      </trkpt>
      <trkpt lat="44.702624073252082" lon="9.206463508307934">
        <ele>1499.72</ele>
        <time>2019-05-21T13:24:53Z</time>
      </trkpt>
      <trkpt lat="44.702603286132216" lon="9.206588650122285">
        <ele>1502.54</ele>
        <time>2019-05-21T13:25:07Z</time>
      </trkpt>
      <trkpt lat="44.702575961127877" lon="9.206712367013097">
        <ele>1504.71</ele>
        <time>2019-05-21T13:25:20Z</time>
      </trkpt>
      <trkpt lat="44.702566154301167" lon="9.206729549914599">
        <ele>1504.73</ele>
        <time>2019-05-21T13:25:22Z</time>
      </trkpt>
      <trkpt lat="44.702485939487815" lon="9.206874053925276">
        <ele>1504.4100000000001</ele>
        <time>2019-05-21T13:25:35Z</time>
      </trkpt>
      <trkpt lat="44.702440425753593" lon="9.207024928182364">
        <ele>1506.4400000000001</ele>
        <time>2019-05-21T13:25:49Z</time>
      </trkpt>
      <trkpt lat="44.702380076050758" lon="9.20716792345047">
        <ele>1508.49</ele>
        <time>2019-05-21T13:26:04Z</time>
      </trkpt>
      <trkpt lat="44.702372783794999" lon="9.20717965811491">
        <ele>1508.55</ele>
        <time>2019-05-21T13:26:05Z</time>
      </trkpt>
      <trkpt lat="44.702252084389329" lon="9.207322904840112">
        <ele>1508.2</ele>
        <time>2019-05-21T13:26:20Z</time>
      </trkpt>
      <trkpt lat="44.702217886224389" lon="9.207360707223415">
        <ele>1508.5999999999999</ele>
        <time>2019-05-21T13:26:24Z</time>
      </trkpt>
      <trkpt lat="44.702084362506866" lon="9.207437485456467">
        <ele>1509.6300000000001</ele>
        <time>2019-05-21T13:26:39Z</time>
      </trkpt>
      <trkpt lat="44.701988138258457" lon="9.207482077181339">
        <ele>1512.26</ele>
        <time>2019-05-21T13:26:54Z</time>
      </trkpt>
      <trkpt lat="44.701899122446775" lon="9.207513760775328">
        <ele>1515.1900000000001</ele>
        <time>2019-05-21T13:27:09Z</time>
      </trkpt>
      <trkpt lat="44.701769957318902" lon="9.207477802410722">
        <ele>1515.6900000000001</ele>
        <time>2019-05-21T13:27:24Z</time>
      </trkpt>
      <trkpt lat="44.701626375317574" lon="9.207474617287517">
        <ele>1514.48</ele>
        <time>2019-05-21T13:27:37Z</time>
      </trkpt>
      <trkpt lat="44.701576335355639" lon="9.207466905936599">
        <ele>1514.23</ele>
        <time>2019-05-21T13:27:42Z</time>
      </trkpt>
      <trkpt lat="44.701438285410404" lon="9.207558017224073">
        <ele>1515.52</ele>
        <time>2019-05-21T13:27:59Z</time>
      </trkpt>
      <trkpt lat="44.701337199658155" lon="9.20760864391923">
        <ele>1517.1500000000001</ele>
        <time>2019-05-21T13:28:12Z</time>
      </trkpt>
      <trkpt lat="44.70124114304781" lon="9.207552820444107">
        <ele>1518.9000000000001</ele>
        <time>2019-05-21T13:28:25Z</time>
      </trkpt>
      <trkpt lat="44.701117090880871" lon="9.207462798804045">
        <ele>1520.98</ele>
        <time>2019-05-21T13:28:41Z</time>
      </trkpt>
      <trkpt lat="44.701117593795061" lon="9.207466570660472">
        <ele>1520.77</ele>
        <time>2019-05-21T13:28:50Z</time>
      </trkpt>
      <trkpt lat="44.701126394793391" lon="9.207448968663812">
        <ele>1520.5</ele>
        <time>2019-05-21T13:29:03Z</time>
      </trkpt>
      <trkpt lat="44.701120862737298" lon="9.207438491284847">
        <ele>1520.02</ele>
        <time>2019-05-21T13:29:24Z</time>
      </trkpt>
      <trkpt lat="44.701117007061839" lon="9.207428097724915">
        <ele>1520.25</ele>
        <time>2019-05-21T13:29:46Z</time>
      </trkpt>
      <trkpt lat="44.701122958213091" lon="9.207427259534597">
        <ele>1514.8399999999999</ele>
        <time>2019-05-21T13:30:04Z</time>
      </trkpt>
      <trkpt lat="44.701123042032123" lon="9.207429019734263">
        <ele>1524.4000000000001</ele>
        <time>2019-05-21T13:30:06Z</time>
      </trkpt>
      <trkpt lat="44.701123377308249" lon="9.207428935915232">
        <ele>1523.8599999999999</ele>
        <time>2019-05-21T13:30:07Z</time>
      </trkpt>
      <trkpt lat="44.701122036203742" lon="9.207429019734263">
        <ele>1520.4000000000001</ele>
        <time>2019-05-21T13:30:09Z</time>
      </trkpt>
      <trkpt lat="44.701124047860503" lon="9.20743421651423">
        <ele>1521.8699999999999</ele>
        <time>2019-05-21T13:30:18Z</time>
      </trkpt>
      <trkpt lat="44.701122287660837" lon="9.207437401637435">
        <ele>1520.9400000000001</ele>
        <time>2019-05-21T13:30:20Z</time>
      </trkpt>
      <trkpt lat="44.701126730069518" lon="9.207436563447118">
        <ele>1520.95</ele>
        <time>2019-05-21T13:30:39Z</time>
      </trkpt>
      <trkpt lat="44.701125472784042" lon="9.207525495439768">
        <ele>1521.9000000000001</ele>
        <time>2019-05-21T13:30:52Z</time>
      </trkpt>
      <trkpt lat="44.701137961819768" lon="9.207543013617396">
        <ele>1522.04</ele>
        <time>2019-05-21T13:31:06Z</time>
      </trkpt>
      <trkpt lat="44.701136955991387" lon="9.207524992525578">
        <ele>1521.9400000000001</ele>
        <time>2019-05-21T13:31:18Z</time>
      </trkpt>
      <trkpt lat="44.701102506369352" lon="9.20748014934361">
        <ele>1522.0699999999999</ele>
        <time>2019-05-21T13:31:33Z</time>
      </trkpt>
      <trkpt lat="44.70097434706986" lon="9.207395073026419">
        <ele>1523.05</ele>
        <time>2019-05-21T13:31:50Z</time>
      </trkpt>
      <trkpt lat="44.700837302953005" lon="9.207303794100881">
        <ele>1524.7</ele>
        <time>2019-05-21T13:32:07Z</time>
      </trkpt>
      <trkpt lat="44.700770163908601" lon="9.207222908735275">
        <ele>1525.29</ele>
        <time>2019-05-21T13:32:17Z</time>
      </trkpt>
      <trkpt lat="44.700659271329641" lon="9.207071447744966">
        <ele>1525.3399999999999</ele>
        <time>2019-05-21T13:32:33Z</time>
      </trkpt>
      <trkpt lat="44.700566986575723" lon="9.207003386691213">
        <ele>1523.8399999999999</ele>
        <time>2019-05-21T13:32:45Z</time>
      </trkpt>
      <trkpt lat="44.70047939568758" lon="9.206954268738627">
        <ele>1523.27</ele>
        <time>2019-05-21T13:32:57Z</time>
      </trkpt>
      <trkpt lat="44.700376382097602" lon="9.206883190199733">
        <ele>1521.9100000000001</ele>
        <time>2019-05-21T13:33:08Z</time>
      </trkpt>
      <trkpt lat="44.700243193656206" lon="9.206795264035463">
        <ele>1519.6300000000001</ele>
        <time>2019-05-21T13:33:21Z</time>
      </trkpt>
      <trkpt lat="44.700182760134339" lon="9.206767519935966">
        <ele>1518.5599999999999</ele>
        <time>2019-05-21T13:33:26Z</time>
      </trkpt>
      <trkpt lat="44.700047979131341" lon="9.206664841622114">
        <ele>1515.9300000000001</ele>
        <time>2019-05-21T13:33:39Z</time>
      </trkpt>
      <trkpt lat="44.699951754882932" lon="9.206555457785726">
        <ele>1513.71</ele>
        <time>2019-05-21T13:33:50Z</time>
      </trkpt>
      <trkpt lat="44.699823260307312" lon="9.206494186073542">
        <ele>1513.24</ele>
        <time>2019-05-21T13:34:01Z</time>
      </trkpt>
      <trkpt lat="44.699739525094628" lon="9.206462670117617">
        <ele>1510.6199999999999</ele>
        <time>2019-05-21T13:34:15Z</time>
      </trkpt>
      <trkpt lat="44.699651515111327" lon="9.206493515521288">
        <ele>1509.72</ele>
        <time>2019-05-21T13:34:31Z</time>
      </trkpt>
      <trkpt lat="44.69954514876008" lon="9.206444984301925">
        <ele>1510.4200000000001</ele>
        <time>2019-05-21T13:34:44Z</time>
      </trkpt>
      <trkpt lat="44.69943517819047" lon="9.206405840814114">
        <ele>1511.3399999999999</ele>
        <time>2019-05-21T13:34:55Z</time>
      </trkpt>
      <trkpt lat="44.699318250641227" lon="9.206346413120627">
        <ele>1512.1400000000001</ele>
        <time>2019-05-21T13:35:08Z</time>
      </trkpt>
      <trkpt lat="44.699181457981467" lon="9.206215068697929">
        <ele>1514.52</ele>
        <time>2019-05-21T13:35:26Z</time>
      </trkpt>
      <trkpt lat="44.699126472696662" lon="9.206053633242846">
        <ele>1516.76</ele>
        <time>2019-05-21T13:35:41Z</time>
      </trkpt>
      <trkpt lat="44.69908288680017" lon="9.20593461021781">
        <ele>1517.3800000000001</ele>
        <time>2019-05-21T13:35:52Z</time>
      </trkpt>
      <trkpt lat="44.699020106345415" lon="9.205816090106964">
        <ele>1518.4000000000001</ele>
        <time>2019-05-21T13:36:03Z</time>
      </trkpt>
      <trkpt lat="44.698951793834567" lon="9.205713998526335">
        <ele>1519.6800000000001</ele>
        <time>2019-05-21T13:36:14Z</time>
      </trkpt>
      <trkpt lat="44.698897646740079" lon="9.205562872812152">
        <ele>1520.6199999999999</ele>
        <time>2019-05-21T13:36:26Z</time>
      </trkpt>
      <trkpt lat="44.698890522122383" lon="9.205556083470583">
        <ele>1520.72</ele>
        <time>2019-05-21T13:36:27Z</time>
      </trkpt>
      <trkpt lat="44.698834028095007" lon="9.205431696027517">
        <ele>1521.78</ele>
        <time>2019-05-21T13:36:38Z</time>
      </trkpt>
      <trkpt lat="44.698785832151771" lon="9.205252742394805">
        <ele>1523.04</ele>
        <time>2019-05-21T13:36:52Z</time>
      </trkpt>
      <trkpt lat="44.698725733906031" lon="9.205136736854911">
        <ele>1523.9000000000001</ele>
        <time>2019-05-21T13:37:03Z</time>
      </trkpt>
      <trkpt lat="44.698656247928739" lon="9.205003632232547">
        <ele>1525.24</ele>
        <time>2019-05-21T13:37:15Z</time>
      </trkpt>
      <trkpt lat="44.698649123311043" lon="9.204979995265603">
        <ele>1525.4100000000001</ele>
        <time>2019-05-21T13:37:17Z</time>
      </trkpt>
      <trkpt lat="44.698571087792516" lon="9.204826103523374">
        <ele>1526.0799999999999</ele>
        <time>2019-05-21T13:37:31Z</time>
      </trkpt>
      <trkpt lat="44.69849213026464" lon="9.204683359712362">
        <ele>1526.26</ele>
        <time>2019-05-21T13:37:43Z</time>
      </trkpt>
      <trkpt lat="44.698452902957797" lon="9.204512787982822">
        <ele>1527.72</ele>
        <time>2019-05-21T13:37:56Z</time>
      </trkpt>
      <trkpt lat="44.698427338153124" lon="9.204474147409201">
        <ele>1528.76</ele>
        <time>2019-05-21T13:38:07Z</time>
      </trkpt>
      <trkpt lat="44.698416944593191" lon="9.204457635059953">
        <ele>1528.51</ele>
        <time>2019-05-21T13:38:11Z</time>
      </trkpt>
      <trkpt lat="44.698383836075664" lon="9.204417401924729">
        <ele>1528.47</ele>
        <time>2019-05-21T13:38:15Z</time>
      </trkpt>
      <trkpt lat="44.698265064507723" lon="9.204366775229573">
        <ele>1529.48</ele>
        <time>2019-05-21T13:38:30Z</time>
      </trkpt>
      <trkpt lat="44.698239834979177" lon="9.204376414418221">
        <ele>1529.2</ele>
        <time>2019-05-21T13:38:38Z</time>
      </trkpt>
      <trkpt lat="44.698204295709729" lon="9.204390915110707">
        <ele>1528.99</ele>
        <time>2019-05-21T13:38:42Z</time>
      </trkpt>
      <trkpt lat="44.698166828602552" lon="9.204407343640924">
        <ele>1529.05</ele>
        <time>2019-05-21T13:38:47Z</time>
      </trkpt>
      <trkpt lat="44.698130115866661" lon="9.204428214579821">
        <ele>1528.6300000000001</ele>
        <time>2019-05-21T13:38:51Z</time>
      </trkpt>
      <trkpt lat="44.697962393984199" lon="9.204553021118045">
        <ele>1528.2</ele>
        <time>2019-05-21T13:39:09Z</time>
      </trkpt>
      <trkpt lat="44.697806742042303" lon="9.204668272286654">
        <ele>1528.4200000000001</ele>
        <time>2019-05-21T13:39:25Z</time>
      </trkpt>
      <trkpt lat="44.697625609114766" lon="9.204738428816199">
        <ele>1527.3900000000001</ele>
        <time>2019-05-21T13:39:43Z</time>
      </trkpt>
      <trkpt lat="44.697467526420951" lon="9.204766089096665">
        <ele>1528.0699999999999</ele>
        <time>2019-05-21T13:39:58Z</time>
      </trkpt>
      <trkpt lat="44.697298966348171" lon="9.204847812652588">
        <ele>1527.3599999999999</ele>
        <time>2019-05-21T13:40:15Z</time>
      </trkpt>
      <trkpt lat="44.697291422635317" lon="9.204856278374791">
        <ele>1527.4100000000001</ele>
        <time>2019-05-21T13:40:17Z</time>
      </trkpt>
      <trkpt lat="44.69718455336988" lon="9.20491092838347">
        <ele>1527.1700000000001</ele>
        <time>2019-05-21T13:40:32Z</time>
      </trkpt>
      <trkpt lat="44.69714792445302" lon="9.204902546480298">
        <ele>1527.03</ele>
        <time>2019-05-21T13:40:48Z</time>
      </trkpt>
      <trkpt lat="44.69713275320828" lon="9.204902965575457">
        <ele>1526.9100000000001</ele>
        <time>2019-05-21T13:40:50Z</time>
      </trkpt>
      <trkpt lat="44.697082377970219" lon="9.204897684976459">
        <ele>1526.3299999999999</ele>
        <time>2019-05-21T13:40:55Z</time>
      </trkpt>
      <trkpt lat="44.69690702855587" lon="9.204850662499666">
        <ele>1526.6800000000001</ele>
        <time>2019-05-21T13:41:11Z</time>
      </trkpt>
      <trkpt lat="44.696713071316481" lon="9.204797772690654">
        <ele>1527.0799999999999</ele>
        <time>2019-05-21T13:41:28Z</time>
      </trkpt>
      <trkpt lat="44.696510983631015" lon="9.204723425209522">
        <ele>1527.03</ele>
        <time>2019-05-21T13:41:45Z</time>
      </trkpt>
      <trkpt lat="44.69636170193553" lon="9.204663243144751">
        <ele>1527.78</ele>
        <time>2019-05-21T13:41:59Z</time>
      </trkpt>
      <trkpt lat="44.696175120770931" lon="9.204536844044924">
        <ele>1527.7</ele>
        <time>2019-05-21T13:42:17Z</time>
      </trkpt>
      <trkpt lat="44.69603824429214" lon="9.204418994486332">
        <ele>1528.27</ele>
        <time>2019-05-21T13:42:31Z</time>
      </trkpt>
      <trkpt lat="44.695927016437054" lon="9.204304749146104">
        <ele>1529.97</ele>
        <time>2019-05-21T13:42:46Z</time>
      </trkpt>
      <trkpt lat="44.695848729461432" lon="9.204235263168812">
        <ele>1531.3699999999999</ele>
        <time>2019-05-21T13:42:59Z</time>
      </trkpt>
      <trkpt lat="44.695748900994658" lon="9.204164016991854">
        <ele>1534</ele>
        <time>2019-05-21T13:43:16Z</time>
      </trkpt>
      <trkpt lat="44.695670362561941" lon="9.204098721966147">
        <ele>1536.3399999999999</ele>
        <time>2019-05-21T13:43:30Z</time>
      </trkpt>
      <trkpt lat="44.695557709783316" lon="9.204030660912395">
        <ele>1538.5599999999999</ele>
        <time>2019-05-21T13:43:47Z</time>
      </trkpt>
      <trkpt lat="44.695496018975973" lon="9.203934352844954">
        <ele>1539.99</ele>
        <time>2019-05-21T13:44:00Z</time>
      </trkpt>
      <trkpt lat="44.695410188287497" lon="9.203831925988197">
        <ele>1541.4000000000001</ele>
        <time>2019-05-21T13:44:15Z</time>
      </trkpt>
      <trkpt lat="44.695309102535248" lon="9.203702174127102">
        <ele>1540.3299999999999</ele>
        <time>2019-05-21T13:44:31Z</time>
      </trkpt>
      <trkpt lat="44.695215057581663" lon="9.203648110851646">
        <ele>1540.49</ele>
        <time>2019-05-21T13:44:45Z</time>
      </trkpt>
      <trkpt lat="44.695134926587343" lon="9.203581055626273">
        <ele>1541.95</ele>
        <time>2019-05-21T13:44:57Z</time>
      </trkpt>
      <trkpt lat="44.695036606863141" lon="9.203544594347477">
        <ele>1544.6400000000001</ele>
        <time>2019-05-21T13:45:11Z</time>
      </trkpt>
      <trkpt lat="44.694908196106553" lon="9.203501679003239">
        <ele>1547.48</ele>
        <time>2019-05-21T13:45:29Z</time>
      </trkpt>
      <trkpt lat="44.694799734279513" lon="9.203405454754829">
        <ele>1547.5599999999999</ele>
        <time>2019-05-21T13:45:43Z</time>
      </trkpt>
      <trkpt lat="44.694640981033444" lon="9.20337125658989">
        <ele>1547.3399999999999</ele>
        <time>2019-05-21T13:45:56Z</time>
      </trkpt>
      <trkpt lat="44.694609465077519" lon="9.20335809700191">
        <ele>1547.6700000000001</ele>
        <time>2019-05-21T13:45:59Z</time>
      </trkpt>
      <trkpt lat="44.694440737366676" lon="9.203251982107759">
        <ele>1547.7</ele>
        <time>2019-05-21T13:46:16Z</time>
      </trkpt>
      <trkpt lat="44.694400923326612" lon="9.203238738700748">
        <ele>1548.97</ele>
        <time>2019-05-21T13:46:20Z</time>
      </trkpt>
      <trkpt lat="44.694217192009091" lon="9.203199511393905">
        <ele>1548.0699999999999</ele>
        <time>2019-05-21T13:46:37Z</time>
      </trkpt>
      <trkpt lat="44.694106634706259" lon="9.203202780336142">
        <ele>1549.3900000000001</ele>
        <time>2019-05-21T13:46:49Z</time>
      </trkpt>
      <trkpt lat="44.694102946668863" lon="9.203209150582552">
        <ele>1549.6300000000001</ele>
        <time>2019-05-21T13:47:05Z</time>
      </trkpt>
      <trkpt lat="44.694037400186062" lon="9.203223483636975">
        <ele>1549.8299999999999</ele>
        <time>2019-05-21T13:47:20Z</time>
      </trkpt>
      <trkpt lat="44.693929692730308" lon="9.203245611861348">
        <ele>1550.1099999999999</ele>
        <time>2019-05-21T13:47:33Z</time>
      </trkpt>
      <trkpt lat="44.693818464875221" lon="9.203248545527458">
        <ele>1550.0799999999999</ele>
        <time>2019-05-21T13:47:46Z</time>
      </trkpt>
      <trkpt lat="44.693775549530983" lon="9.203250054270029">
        <ele>1549.78</ele>
        <time>2019-05-21T13:48:00Z</time>
      </trkpt>
      <trkpt lat="44.693726263940334" lon="9.203255586326122">
        <ele>1549.75</ele>
        <time>2019-05-21T13:48:04Z</time>
      </trkpt>
      <trkpt lat="44.693544711917639" lon="9.203288778662682">
        <ele>1548</ele>
        <time>2019-05-21T13:48:19Z</time>
      </trkpt>
      <trkpt lat="44.693441027775407" lon="9.203301100060344">
        <ele>1546.5599999999999</ele>
        <time>2019-05-21T13:48:28Z</time>
      </trkpt>
      <trkpt lat="44.693340444937348" lon="9.203311409801245">
        <ele>1546.01</ele>
        <time>2019-05-21T13:48:38Z</time>
      </trkpt>
      <trkpt lat="44.69321639277041" lon="9.203359521925449">
        <ele>1546.1500000000001</ele>
        <time>2019-05-21T13:48:51Z</time>
      </trkpt>
      <trkpt lat="44.693081779405475" lon="9.203415680676699">
        <ele>1546.51</ele>
        <time>2019-05-21T13:49:05Z</time>
      </trkpt>
      <trkpt lat="44.692947836592793" lon="9.203429846093059">
        <ele>1547.5699999999999</ele>
        <time>2019-05-21T13:49:18Z</time>
      </trkpt>
      <trkpt lat="44.692771648988128" lon="9.203409058973193">
        <ele>1548.3900000000001</ele>
        <time>2019-05-21T13:49:35Z</time>
      </trkpt>
      <trkpt lat="44.6926349401474" lon="9.203407801687717">
        <ele>1549.46</ele>
        <time>2019-05-21T13:49:49Z</time>
      </trkpt>
      <trkpt lat="44.692551624029875" lon="9.203444933518767">
        <ele>1550.26</ele>
        <time>2019-05-21T13:50:00Z</time>
      </trkpt>
      <trkpt lat="44.692544247955084" lon="9.203451219946146">
        <ele>1550.3900000000001</ele>
        <time>2019-05-21T13:50:01Z</time>
      </trkpt>
      <trkpt lat="44.692430756986141" lon="9.203522969037294">
        <ele>1552.02</ele>
        <time>2019-05-21T13:50:14Z</time>
      </trkpt>
      <trkpt lat="44.692348195239902" lon="9.203591113910079">
        <ele>1554.1900000000001</ele>
        <time>2019-05-21T13:50:25Z</time>
      </trkpt>
      <trkpt lat="44.692212827503681" lon="9.203656995669007">
        <ele>1556.52</ele>
        <time>2019-05-21T13:50:42Z</time>
      </trkpt>
      <trkpt lat="44.692106964066625" lon="9.203660516068339">
        <ele>1558.78</ele>
        <time>2019-05-21T13:50:55Z</time>
      </trkpt>
      <trkpt lat="44.692022725939751" lon="9.203662192448974">
        <ele>1561.2</ele>
        <time>2019-05-21T13:51:09Z</time>
      </trkpt>
      <trkpt lat="44.691933961585164" lon="9.203654229640961">
        <ele>1563.5699999999999</ele>
        <time>2019-05-21T13:51:25Z</time>
      </trkpt>
      <trkpt lat="44.691844275221229" lon="9.203646434471011">
        <ele>1566.3</ele>
        <time>2019-05-21T13:51:41Z</time>
      </trkpt>
      <trkpt lat="44.691756851971149" lon="9.203619444742799">
        <ele>1569.03</ele>
        <time>2019-05-21T13:51:55Z</time>
      </trkpt>
      <trkpt lat="44.691681498661637" lon="9.203586503863335">
        <ele>1571.23</ele>
        <time>2019-05-21T13:52:07Z</time>
      </trkpt>
      <trkpt lat="44.691613605245948" lon="9.203474940732122">
        <ele>1572.8199999999999</ele>
        <time>2019-05-21T13:52:23Z</time>
      </trkpt>
      <trkpt lat="44.691567085683346" lon="9.203407801687717">
        <ele>1575.3</ele>
        <time>2019-05-21T13:52:36Z</time>
      </trkpt>
      <trkpt lat="44.691503634676337" lon="9.203342841938138">
        <ele>1577.51</ele>
        <time>2019-05-21T13:52:52Z</time>
      </trkpt>
      <trkpt lat="44.691425766795874" lon="9.20327939093113">
        <ele>1580.45</ele>
        <time>2019-05-21T13:53:09Z</time>
      </trkpt>
      <trkpt lat="44.691364411264658" lon="9.203242342919111">
        <ele>1582.5899999999999</ele>
        <time>2019-05-21T13:53:22Z</time>
      </trkpt>
      <trkpt lat="44.691302217543125" lon="9.20320269651711">
        <ele>1584.28</ele>
        <time>2019-05-21T13:53:36Z</time>
      </trkpt>
      <trkpt lat="44.691242119297385" lon="9.203156428411603">
        <ele>1587.01</ele>
        <time>2019-05-21T13:53:51Z</time>
      </trkpt>
      <trkpt lat="44.691185876727104" lon="9.203113345429301">
        <ele>1589.0599999999999</ele>
        <time>2019-05-21T13:54:05Z</time>
      </trkpt>
      <trkpt lat="44.691132986918092" lon="9.203072190284729">
        <ele>1591.77</ele>
        <time>2019-05-21T13:54:18Z</time>
      </trkpt>
      <trkpt lat="44.691065177321434" lon="9.203014019876719">
        <ele>1594.53</ele>
        <time>2019-05-21T13:54:34Z</time>
      </trkpt>
      <trkpt lat="44.691009940579534" lon="9.202969595789909">
        <ele>1596.76</ele>
        <time>2019-05-21T13:54:49Z</time>
      </trkpt>
      <trkpt lat="44.690968869253993" lon="9.202929530292749">
        <ele>1598.6900000000001</ele>
        <time>2019-05-21T13:55:01Z</time>
      </trkpt>
      <trkpt lat="44.69091547653079" lon="9.202880328521133">
        <ele>1600.5999999999999</ele>
        <time>2019-05-21T13:55:15Z</time>
      </trkpt>
      <trkpt lat="44.690839285030961" lon="9.202825762331486">
        <ele>1603.3499999999999</ele>
        <time>2019-05-21T13:55:33Z</time>
      </trkpt>
      <trkpt lat="44.690769296139479" lon="9.20278100296855">
        <ele>1606.3099999999999</ele>
        <time>2019-05-21T13:55:48Z</time>
      </trkpt>
      <trkpt lat="44.690687153488398" lon="9.202726939693093">
        <ele>1608.9000000000001</ele>
        <time>2019-05-21T13:56:05Z</time>
      </trkpt>
      <trkpt lat="44.69061884097755" lon="9.202677737921476">
        <ele>1611.1800000000001</ele>
        <time>2019-05-21T13:56:19Z</time>
      </trkpt>
      <trkpt lat="44.69054508022964" lon="9.202636918053031">
        <ele>1612.6900000000001</ele>
        <time>2019-05-21T13:56:31Z</time>
      </trkpt>
      <trkpt lat="44.690423039719462" lon="9.202585788443685">
        <ele>1613.4400000000001</ele>
        <time>2019-05-21T13:56:47Z</time>
      </trkpt>
      <trkpt lat="44.690329246222973" lon="9.202556367963553">
        <ele>1614.24</ele>
        <time>2019-05-21T13:56:58Z</time>
      </trkpt>
      <trkpt lat="44.690187089145184" lon="9.202516553923488">
        <ele>1614.79</ele>
        <time>2019-05-21T13:57:13Z</time>
      </trkpt>
      <trkpt lat="44.690028419718146" lon="9.202446900308132">
        <ele>1615.54</ele>
        <time>2019-05-21T13:57:30Z</time>
      </trkpt>
      <trkpt lat="44.689905038103461" lon="9.202399207279086">
        <ele>1617.1700000000001</ele>
        <time>2019-05-21T13:57:44Z</time>
      </trkpt>
      <trkpt lat="44.68977889046073" lon="9.202365344390273">
        <ele>1618.8599999999999</ele>
        <time>2019-05-21T13:57:59Z</time>
      </trkpt>
      <trkpt lat="44.689663974568248" lon="9.202327206730843">
        <ele>1620.8599999999999</ele>
        <time>2019-05-21T13:58:14Z</time>
      </trkpt>
      <trkpt lat="44.68954243697226" lon="9.202292589470744">
        <ele>1623.53</ele>
        <time>2019-05-21T13:58:30Z</time>
      </trkpt>
      <trkpt lat="44.68948770314455" lon="9.202282698825002">
        <ele>1625.5799999999999</ele>
        <time>2019-05-21T13:58:45Z</time>
      </trkpt>
      <trkpt lat="44.689434226602316" lon="9.202266354113817">
        <ele>1627.0799999999999</ele>
        <time>2019-05-21T13:58:58Z</time>
      </trkpt>
      <trkpt lat="44.689337331801653" lon="9.202255625277758">
        <ele>1629.6500000000001</ele>
        <time>2019-05-21T13:59:13Z</time>
      </trkpt>
      <trkpt lat="44.689273964613676" lon="9.202245818451047">
        <ele>1631.1300000000001</ele>
        <time>2019-05-21T13:59:26Z</time>
      </trkpt>
      <trkpt lat="44.689166843891144" lon="9.202223690226674">
        <ele>1633.3800000000001</ele>
        <time>2019-05-21T13:59:42Z</time>
      </trkpt>
      <trkpt lat="44.689062321558595" lon="9.202191419899464">
        <ele>1635.8</ele>
        <time>2019-05-21T13:59:59Z</time>
      </trkpt>
      <trkpt lat="44.688971964642406" lon="9.202168453484774">
        <ele>1637.9100000000001</ele>
        <time>2019-05-21T14:00:14Z</time>
      </trkpt>
      <trkpt lat="44.688889905810356" lon="9.202179936692119">
        <ele>1639.1300000000001</ele>
        <time>2019-05-21T14:00:28Z</time>
      </trkpt>
      <trkpt lat="44.688854366540909" lon="9.202159903943539">
        <ele>1640.1400000000001</ele>
        <time>2019-05-21T14:00:41Z</time>
      </trkpt>
      <trkpt lat="44.688787562772632" lon="9.202157808467746">
        <ele>1641.29</ele>
        <time>2019-05-21T14:00:53Z</time>
      </trkpt>
      <trkpt lat="44.688683627173305" lon="9.202173901721835">
        <ele>1643.1700000000001</ele>
        <time>2019-05-21T14:01:07Z</time>
      </trkpt>
      <trkpt lat="44.688578601926565" lon="9.202160490676761">
        <ele>1644.48</ele>
        <time>2019-05-21T14:01:22Z</time>
      </trkpt>
      <trkpt lat="44.688462931662798" lon="9.202136853709817">
        <ele>1645.9400000000001</ele>
        <time>2019-05-21T14:01:38Z</time>
      </trkpt>
      <trkpt lat="44.688360672444105" lon="9.20208228752017">
        <ele>1647.79</ele>
        <time>2019-05-21T14:01:53Z</time>
      </trkpt>
      <trkpt lat="44.688253970816731" lon="9.202051442116499">
        <ele>1649.6900000000001</ele>
        <time>2019-05-21T14:02:09Z</time>
      </trkpt>
      <trkpt lat="44.68815422616899" lon="9.202023027464747">
        <ele>1652.3</ele>
        <time>2019-05-21T14:02:24Z</time>
      </trkpt>
      <trkpt lat="44.688081722706556" lon="9.20199528336525">
        <ele>1654.0999999999999</ele>
        <time>2019-05-21T14:02:36Z</time>
      </trkpt>
      <trkpt lat="44.687980888411403" lon="9.201961169019342">
        <ele>1656.54</ele>
        <time>2019-05-21T14:02:53Z</time>
      </trkpt>
      <trkpt lat="44.687902517616749" lon="9.201925043016672">
        <ele>1658.8599999999999</ele>
        <time>2019-05-21T14:03:07Z</time>
      </trkpt>
      <trkpt lat="44.687801096588373" lon="9.201869135722518">
        <ele>1660.46</ele>
        <time>2019-05-21T14:03:24Z</time>
      </trkpt>
      <trkpt lat="44.687710739672184" lon="9.201820185407996">
        <ele>1662.75</ele>
        <time>2019-05-21T14:03:38Z</time>
      </trkpt>
      <trkpt lat="44.687618287280202" lon="9.201777940616012">
        <ele>1664.5899999999999</ele>
        <time>2019-05-21T14:03:52Z</time>
      </trkpt>
      <trkpt lat="44.687532288953662" lon="9.201739970594645">
        <ele>1666.1300000000001</ele>
        <time>2019-05-21T14:04:05Z</time>
      </trkpt>
      <trkpt lat="44.687440758571029" lon="9.201704012230039">
        <ele>1668.3900000000001</ele>
        <time>2019-05-21T14:04:19Z</time>
      </trkpt>
      <trkpt lat="44.687338666990399" lon="9.201656319200993">
        <ele>1669.79</ele>
        <time>2019-05-21T14:04:35Z</time>
      </trkpt>
      <trkpt lat="44.687271695584059" lon="9.201619103550911">
        <ele>1671.77</ele>
        <time>2019-05-21T14:04:46Z</time>
      </trkpt>
      <trkpt lat="44.687194330617785" lon="9.201571578159928">
        <ele>1672.8800000000001</ele>
        <time>2019-05-21T14:04:59Z</time>
      </trkpt>
      <trkpt lat="44.687118139117956" lon="9.201499912887812">
        <ele>1674.1099999999999</ele>
        <time>2019-05-21T14:05:12Z</time>
      </trkpt>
      <trkpt lat="44.687039852142334" lon="9.201452219858766">
        <ele>1676.8800000000001</ele>
        <time>2019-05-21T14:05:26Z</time>
      </trkpt>
      <trkpt lat="44.686932228505611" lon="9.201397988945246">
        <ele>1679</ele>
        <time>2019-05-21T14:05:41Z</time>
      </trkpt>
      <trkpt lat="44.686843380331993" lon="9.201347948983312">
        <ele>1680.7</ele>
        <time>2019-05-21T14:05:54Z</time>
      </trkpt>
      <trkpt lat="44.686765931546688" lon="9.201256167143583">
        <ele>1681.5999999999999</ele>
        <time>2019-05-21T14:06:07Z</time>
      </trkpt>
      <trkpt lat="44.686676831915975" lon="9.201159356161952">
        <ele>1683.95</ele>
        <time>2019-05-21T14:06:23Z</time>
      </trkpt>
      <trkpt lat="44.686605501919985" lon="9.201065562665463">
        <ele>1685.79</ele>
        <time>2019-05-21T14:06:37Z</time>
      </trkpt>
      <trkpt lat="44.686539536342025" lon="9.200942516326904">
        <ele>1688.0599999999999</ele>
        <time>2019-05-21T14:06:53Z</time>
      </trkpt>
      <trkpt lat="44.686551187187433" lon="9.200930362567306">
        <ele>1688.03</ele>
        <time>2019-05-21T14:07:07Z</time>
      </trkpt>
      <trkpt lat="44.68655202537775" lon="9.200916448608041">
        <ele>1687.96</ele>
        <time>2019-05-21T14:07:08Z</time>
      </trkpt>
      <trkpt lat="44.686533166095614" lon="9.200846208259463">
        <ele>1687.9200000000001</ele>
        <time>2019-05-21T14:07:19Z</time>
      </trkpt>
      <trkpt lat="44.686450604349375" lon="9.200826762244105">
        <ele>1688.1800000000001</ele>
        <time>2019-05-21T14:07:31Z</time>
      </trkpt>
      <trkpt lat="44.686429230496287" lon="9.200815865769982">
        <ele>1688.1700000000001</ele>
        <time>2019-05-21T14:07:34Z</time>
      </trkpt>
      <trkpt lat="44.686404336243868" lon="9.20075761154294">
        <ele>1688.74</ele>
        <time>2019-05-21T14:07:45Z</time>
      </trkpt>
      <trkpt lat="44.686411963775754" lon="9.20076247304678">
        <ele>1687.71</ele>
        <time>2019-05-21T14:07:55Z</time>
      </trkpt>
      <trkpt lat="44.68642495572567" lon="9.200760377570987">
        <ele>1687.5</ele>
        <time>2019-05-21T14:08:43Z</time>
      </trkpt>
      <trkpt lat="44.686425793915987" lon="9.200758533552289">
        <ele>1687.47</ele>
        <time>2019-05-21T14:09:08Z</time>
      </trkpt>
      <trkpt lat="44.686429901048541" lon="9.200763897970319">
        <ele>1687.52</ele>
        <time>2019-05-21T14:09:30Z</time>
      </trkpt>
      <trkpt lat="44.686456304043531" lon="9.200693657621741">
        <ele>1688.47</ele>
        <time>2019-05-21T14:09:38Z</time>
      </trkpt>
      <trkpt lat="44.686473906040192" lon="9.200638672336936">
        <ele>1688</ele>
        <time>2019-05-21T14:09:50Z</time>
      </trkpt>
      <trkpt lat="44.68647382222116" lon="9.200626434758306">
        <ele>1687.8699999999999</ele>
        <time>2019-05-21T14:10:01Z</time>
      </trkpt>
      <trkpt lat="44.686456136405468" lon="9.200634816661477">
        <ele>1687.8800000000001</ele>
        <time>2019-05-21T14:10:34Z</time>
      </trkpt>
      <trkpt lat="44.686463763937354" lon="9.200634732842445">
        <ele>1687.97</ele>
        <time>2019-05-21T14:11:18Z</time>
      </trkpt>
      <trkpt lat="44.686459740623832" lon="9.200647054240108">
        <ele>1687.5</ele>
        <time>2019-05-21T14:11:58Z</time>
      </trkpt>
      <trkpt lat="44.68645672313869" lon="9.200644623488188">
        <ele>1688.05</ele>
        <time>2019-05-21T14:12:48Z</time>
      </trkpt>
      <trkpt lat="44.686446748673916" lon="9.200657363981009">
        <ele>1687.96</ele>
        <time>2019-05-21T14:13:35Z</time>
      </trkpt>
      <trkpt lat="44.686445407569408" lon="9.200658453628421">
        <ele>1687.9000000000001</ele>
        <time>2019-05-21T14:14:25Z</time>
      </trkpt>
      <trkpt lat="44.686440629884601" lon="9.200661471113563">
        <ele>1688.49</ele>
        <time>2019-05-21T14:15:19Z</time>
      </trkpt>
      <trkpt lat="44.686440797522664" lon="9.200661052018404">
        <ele>1690.01</ele>
        <time>2019-05-21T14:15:44Z</time>
      </trkpt>
      <trkpt lat="44.686440378427505" lon="9.200657615438104">
        <ele>1689.77</ele>
        <time>2019-05-21T14:15:59Z</time>
      </trkpt>
      <trkpt lat="44.686440965160728" lon="9.200650742277503">
        <ele>1690.5699999999999</ele>
        <time>2019-05-21T14:16:13Z</time>
      </trkpt>
      <trkpt lat="44.686454962939024" lon="9.200634649023414">
        <ele>1690.0899999999999</ele>
        <time>2019-05-21T14:16:26Z</time>
      </trkpt>
      <trkpt lat="44.68646208755672" lon="9.200621321797371">
        <ele>1690.8</ele>
        <time>2019-05-21T14:16:53Z</time>
      </trkpt>
      <trkpt lat="44.686445239931345" lon="9.200590811669827">
        <ele>1689.5999999999999</ele>
        <time>2019-05-21T14:16:57Z</time>
      </trkpt>
      <trkpt lat="44.686377430334687" lon="9.200406493619084">
        <ele>1686.1800000000001</ele>
        <time>2019-05-21T14:17:12Z</time>
      </trkpt>
      <trkpt lat="44.686372233554721" lon="9.200339019298554">
        <ele>1687.4300000000001</ele>
        <time>2019-05-21T14:17:17Z</time>
      </trkpt>
      <trkpt lat="44.686363600194454" lon="9.200304402038455">
        <ele>1686.77</ele>
        <time>2019-05-21T14:17:20Z</time>
      </trkpt>
      <trkpt lat="44.686331497505307" lon="9.200218319892883">
        <ele>1687.71</ele>
        <time>2019-05-21T14:17:27Z</time>
      </trkpt>
      <trkpt lat="44.68628816306591" lon="9.200049173086882">
        <ele>1686.1199999999999</ele>
        <time>2019-05-21T14:17:42Z</time>
      </trkpt>
      <trkpt lat="44.686272237449884" lon="9.200027715414763">
        <ele>1685.8599999999999</ele>
        <time>2019-05-21T14:17:45Z</time>
      </trkpt>
      <trkpt lat="44.686212139204144" lon="9.199905171990395">
        <ele>1684.25</ele>
        <time>2019-05-21T14:17:57Z</time>
      </trkpt>
      <trkpt lat="44.686151538044214" lon="9.199790423735976">
        <ele>1683.24</ele>
        <time>2019-05-21T14:18:07Z</time>
      </trkpt>
      <trkpt lat="44.68604383058846" lon="9.199654888361692">
        <ele>1681.1700000000001</ele>
        <time>2019-05-21T14:18:21Z</time>
      </trkpt>
      <trkpt lat="44.685933021828532" lon="9.199525136500597">
        <ele>1679.4000000000001</ele>
        <time>2019-05-21T14:18:35Z</time>
      </trkpt>
      <trkpt lat="44.685812992975116" lon="9.199439976364374">
        <ele>1679.8599999999999</ele>
        <time>2019-05-21T14:18:49Z</time>
      </trkpt>
      <trkpt lat="44.685723641887307" lon="9.19940167106688">
        <ele>1676.6700000000001</ele>
        <time>2019-05-21T14:19:01Z</time>
      </trkpt>
      <trkpt lat="44.68562850728631" lon="9.199385074898601">
        <ele>1673.6400000000001</ele>
        <time>2019-05-21T14:19:13Z</time>
      </trkpt>
      <trkpt lat="44.685522643849254" lon="9.199359258636832">
        <ele>1670.8499999999999</ele>
        <time>2019-05-21T14:19:26Z</time>
      </trkpt>
      <trkpt lat="44.68543547205627" lon="9.199332436546683">
        <ele>1667.79</ele>
        <time>2019-05-21T14:19:36Z</time>
      </trkpt>
      <trkpt lat="44.685407895594835" lon="9.199328748509288">
        <ele>1666.5</ele>
        <time>2019-05-21T14:19:39Z</time>
      </trkpt>
      <trkpt lat="44.685251321643591" lon="9.199315421283245">
        <ele>1663.9100000000001</ele>
        <time>2019-05-21T14:19:54Z</time>
      </trkpt>
      <trkpt lat="44.685094831511378" lon="9.199334532022476">
        <ele>1662.45</ele>
        <time>2019-05-21T14:20:08Z</time>
      </trkpt>
      <trkpt lat="44.684923673048615" lon="9.199373088777065">
        <ele>1661.6099999999999</ele>
        <time>2019-05-21T14:20:24Z</time>
      </trkpt>
      <trkpt lat="44.684789394959807" lon="9.199396055191755">
        <ele>1659.01</ele>
        <time>2019-05-21T14:20:40Z</time>
      </trkpt>
      <trkpt lat="44.684682106599212" lon="9.199375938624144">
        <ele>1655.47</ele>
        <time>2019-05-21T14:20:54Z</time>
      </trkpt>
      <trkpt lat="44.68462435528636" lon="9.199346015229821">
        <ele>1654.3199999999999</ele>
        <time>2019-05-21T14:21:01Z</time>
      </trkpt>
      <trkpt lat="44.684486892074347" lon="9.199209893122315">
        <ele>1652.6800000000001</ele>
        <time>2019-05-21T14:21:16Z</time>
      </trkpt>
      <trkpt lat="44.684348339214921" lon="9.199067652225494">
        <ele>1652.03</ele>
        <time>2019-05-21T14:21:32Z</time>
      </trkpt>
      <trkpt lat="44.684154633432627" lon="9.199003865942359">
        <ele>1649.74</ele>
        <time>2019-05-21T14:21:50Z</time>
      </trkpt>
      <trkpt lat="44.683986911550164" lon="9.198972852900624">
        <ele>1646.46</ele>
        <time>2019-05-21T14:22:05Z</time>
      </trkpt>
      <trkpt lat="44.683836624026299" lon="9.198875706642866">
        <ele>1644.21</ele>
        <time>2019-05-21T14:22:20Z</time>
      </trkpt>
      <trkpt lat="44.683688515797257" lon="9.198702368885279">
        <ele>1643.8499999999999</ele>
        <time>2019-05-21T14:22:37Z</time>
      </trkpt>
      <trkpt lat="44.683593129739165" lon="9.198574377223849">
        <ele>1645.1500000000001</ele>
        <time>2019-05-21T14:22:52Z</time>
      </trkpt>
      <trkpt lat="44.683494390919805" lon="9.19847278855741">
        <ele>1647.8199999999999</ele>
        <time>2019-05-21T14:23:09Z</time>
      </trkpt>
      <trkpt lat="44.683411493897438" lon="9.19841755181551">
        <ele>1650.22</ele>
        <time>2019-05-21T14:23:23Z</time>
      </trkpt>
      <trkpt lat="44.683327171951532" lon="9.198391819372773">
        <ele>1651.3900000000001</ele>
        <time>2019-05-21T14:23:36Z</time>
      </trkpt>
      <trkpt lat="44.683281239122152" lon="9.19839852489531">
        <ele>1652.4200000000001</ele>
        <time>2019-05-21T14:23:48Z</time>
      </trkpt>
      <trkpt lat="44.683238491415977" lon="9.198393831029534">
        <ele>1652.5799999999999</ele>
        <time>2019-05-21T14:23:53Z</time>
      </trkpt>
      <trkpt lat="44.683046797290444" lon="9.198361644521356">
        <ele>1652.48</ele>
        <time>2019-05-21T14:24:11Z</time>
      </trkpt>
      <trkpt lat="44.682894414290786" lon="9.198310934007168">
        <ele>1654.6900000000001</ele>
        <time>2019-05-21T14:24:28Z</time>
      </trkpt>
      <trkpt lat="44.682768518105149" lon="9.198274053633213">
        <ele>1656.3099999999999</ele>
        <time>2019-05-21T14:24:43Z</time>
      </trkpt>
      <trkpt lat="44.682655949145555" lon="9.198223175480962">
        <ele>1657.8900000000001</ele>
        <time>2019-05-21T14:24:57Z</time>
      </trkpt>
      <trkpt lat="44.682536842301488" lon="9.198164837434888">
        <ele>1659.0599999999999</ele>
        <time>2019-05-21T14:25:11Z</time>
      </trkpt>
      <trkpt lat="44.682441120967269" lon="9.198173806071281">
        <ele>1658.9300000000001</ele>
        <time>2019-05-21T14:25:23Z</time>
      </trkpt>
      <trkpt lat="44.682300137355924" lon="9.198271706700325">
        <ele>1658.0599999999999</ele>
        <time>2019-05-21T14:25:38Z</time>
      </trkpt>
      <trkpt lat="44.682250684127212" lon="9.198316968977451">
        <ele>1658.1900000000001</ele>
        <time>2019-05-21T14:25:51Z</time>
      </trkpt>
      <trkpt lat="44.682258479297161" lon="9.19831252656877">
        <ele>1658.3499999999999</ele>
        <time>2019-05-21T14:26:17Z</time>
      </trkpt>
      <trkpt lat="44.682249343022704" lon="9.198318896815181">
        <ele>1658.0999999999999</ele>
        <time>2019-05-21T14:26:42Z</time>
      </trkpt>
      <trkpt lat="44.682232243940234" lon="9.198337169364095">
        <ele>1657.7</ele>
        <time>2019-05-21T14:27:03Z</time>
      </trkpt>
      <trkpt lat="44.682200560346246" lon="9.198375307023525">
        <ele>1657.02</ele>
        <time>2019-05-21T14:27:08Z</time>
      </trkpt>
      <trkpt lat="44.682108946144581" lon="9.198493491858244">
        <ele>1653.3099999999999</ele>
        <time>2019-05-21T14:27:21Z</time>
      </trkpt>
      <trkpt lat="44.682023702189326" lon="9.198611592873931">
        <ele>1650.0799999999999</ele>
        <time>2019-05-21T14:27:32Z</time>
      </trkpt>
      <trkpt lat="44.681918593123555" lon="9.198693400248885">
        <ele>1647.46</ele>
        <time>2019-05-21T14:27:44Z</time>
      </trkpt>
      <trkpt lat="44.6817781124264" lon="9.198795910924673">
        <ele>1644.26</ele>
        <time>2019-05-21T14:27:59Z</time>
      </trkpt>
      <trkpt lat="44.681643666699529" lon="9.198881071060896">
        <ele>1641.0799999999999</ele>
        <time>2019-05-21T14:28:13Z</time>
      </trkpt>
      <trkpt lat="44.681542413309216" lon="9.198934296146035">
        <ele>1637.95</ele>
        <time>2019-05-21T14:28:24Z</time>
      </trkpt>
      <trkpt lat="44.68141358345747" lon="9.198955921456218">
        <ele>1634.77</ele>
        <time>2019-05-21T14:28:38Z</time>
      </trkpt>
      <trkpt lat="44.681283580139279" lon="9.199013253673911">
        <ele>1631.6800000000001</ele>
        <time>2019-05-21T14:28:52Z</time>
      </trkpt>
      <trkpt lat="44.68111795373261" lon="9.19906253926456">
        <ele>1628.6300000000001</ele>
        <time>2019-05-21T14:29:09Z</time>
      </trkpt>
      <trkpt lat="44.680952578783035" lon="9.19908600859344">
        <ele>1626.22</ele>
        <time>2019-05-21T14:29:25Z</time>
      </trkpt>
      <trkpt lat="44.680785024538636" lon="9.199091121554375">
        <ele>1623.46</ele>
        <time>2019-05-21T14:29:40Z</time>
      </trkpt>
      <trkpt lat="44.680592659860849" lon="9.199079135432839">
        <ele>1620.4300000000001</ele>
        <time>2019-05-21T14:29:58Z</time>
      </trkpt>
      <trkpt lat="44.680438013747334" lon="9.199070166796446">
        <ele>1618.4100000000001</ele>
        <time>2019-05-21T14:30:14Z</time>
      </trkpt>
      <trkpt lat="44.680316811427474" lon="9.199055414646864">
        <ele>1615.3099999999999</ele>
        <time>2019-05-21T14:30:26Z</time>
      </trkpt>
      <trkpt lat="44.680181359872222" lon="9.199045272544026">
        <ele>1612.4000000000001</ele>
        <time>2019-05-21T14:30:39Z</time>
      </trkpt>
      <trkpt lat="44.680010117590427" lon="9.199024988338351">
        <ele>1609.3599999999999</ele>
        <time>2019-05-21T14:30:55Z</time>
      </trkpt>
      <trkpt lat="44.67984021641314" lon="9.198995567858219">
        <ele>1608.03</ele>
        <time>2019-05-21T14:31:10Z</time>
      </trkpt>
      <trkpt lat="44.679662520065904" lon="9.198927758261561">
        <ele>1606.4000000000001</ele>
        <time>2019-05-21T14:31:27Z</time>
      </trkpt>
      <trkpt lat="44.679474765434861" lon="9.198862630873919">
        <ele>1606.27</ele>
        <time>2019-05-21T14:31:45Z</time>
      </trkpt>
      <trkpt lat="44.679242670536041" lon="9.198810579255223">
        <ele>1604.6900000000001</ele>
        <time>2019-05-21T14:32:05Z</time>
      </trkpt>
      <trkpt lat="44.679058017209172" lon="9.198808148503304">
        <ele>1604.27</ele>
        <time>2019-05-21T14:32:22Z</time>
      </trkpt>
      <trkpt lat="44.67887076549232" lon="9.198837904259563">
        <ele>1603.3699999999999</ele>
        <time>2019-05-21T14:32:38Z</time>
      </trkpt>
      <trkpt lat="44.678714191541076" lon="9.198860870674253">
        <ele>1602.98</ele>
        <time>2019-05-21T14:32:52Z</time>
      </trkpt>
      <trkpt lat="44.678571196272969" lon="9.198887525126338">
        <ele>1603.1099999999999</ele>
        <time>2019-05-21T14:33:06Z</time>
      </trkpt>
      <trkpt lat="44.678359469398856" lon="9.19891987927258">
        <ele>1600.6900000000001</ele>
        <time>2019-05-21T14:33:25Z</time>
      </trkpt>
      <trkpt lat="44.678203817456961" lon="9.19897167943418">
        <ele>1598.23</ele>
        <time>2019-05-21T14:33:39Z</time>
      </trkpt>
      <trkpt lat="44.678062163293362" lon="9.199038399383426">
        <ele>1595.1900000000001</ele>
        <time>2019-05-21T14:33:53Z</time>
      </trkpt>
      <trkpt lat="44.67797365039587" lon="9.199096569791436">
        <ele>1592.03</ele>
        <time>2019-05-21T14:34:03Z</time>
      </trkpt>
      <trkpt lat="44.677857980132103" lon="9.199150633066893">
        <ele>1588.8699999999999</ele>
        <time>2019-05-21T14:34:15Z</time>
      </trkpt>
      <trkpt lat="44.677763767540455" lon="9.199194386601448">
        <ele>1585.46</ele>
        <time>2019-05-21T14:34:26Z</time>
      </trkpt>
      <trkpt lat="44.677670728415251" lon="9.199235374107957">
        <ele>1582.3699999999999</ele>
        <time>2019-05-21T14:34:36Z</time>
      </trkpt>
      <trkpt lat="44.677576012909412" lon="9.199268901720643">
        <ele>1579.1300000000001</ele>
        <time>2019-05-21T14:34:46Z</time>
      </trkpt>
      <trkpt lat="44.677473669871688" lon="9.199331179261208">
        <ele>1576</ele>
        <time>2019-05-21T14:34:58Z</time>
      </trkpt>
      <trkpt lat="44.677364705130458" lon="9.199434444308281">
        <ele>1572.9300000000001</ele>
        <time>2019-05-21T14:35:12Z</time>
      </trkpt>
      <trkpt lat="44.677361939102411" lon="9.199434947222471">
        <ele>1573.1600000000001</ele>
        <time>2019-05-21T14:35:13Z</time>
      </trkpt>
      <trkpt lat="44.677321454510093" lon="9.199482388794422">
        <ele>1572.0599999999999</ele>
        <time>2019-05-21T14:35:18Z</time>
      </trkpt>
      <trkpt lat="44.677176950499415" lon="9.199650445953012">
        <ele>1570.0599999999999</ele>
        <time>2019-05-21T14:35:35Z</time>
      </trkpt>
      <trkpt lat="44.67700763605535" lon="9.199762847274542">
        <ele>1566.75</ele>
        <time>2019-05-21T14:35:53Z</time>
      </trkpt>
      <trkpt lat="44.676883416250348" lon="9.199811713770032">
        <ele>1563.6900000000001</ele>
        <time>2019-05-21T14:36:06Z</time>
      </trkpt>
      <trkpt lat="44.676753077656031" lon="9.199876841157675">
        <ele>1560.6099999999999</ele>
        <time>2019-05-21T14:36:19Z</time>
      </trkpt>
      <trkpt lat="44.676640341058373" lon="9.199939789250493">
        <ele>1557.8299999999999</ele>
        <time>2019-05-21T14:36:31Z</time>
      </trkpt>
      <trkpt lat="44.676568759605289" lon="9.19996895827353">
        <ele>1555.3499999999999</ele>
        <time>2019-05-21T14:36:39Z</time>
      </trkpt>
      <trkpt lat="44.676475469022989" lon="9.2000119574368">
        <ele>1552.3</ele>
        <time>2019-05-21T14:36:49Z</time>
      </trkpt>
      <trkpt lat="44.676306070759892" lon="9.200096530839801">
        <ele>1549.6600000000001</ele>
        <time>2019-05-21T14:37:05Z</time>
      </trkpt>
      <trkpt lat="44.676273381337523" lon="9.200092758983374">
        <ele>1549.28</ele>
        <time>2019-05-21T14:37:08Z</time>
      </trkpt>
      <trkpt lat="44.676152849569917" lon="9.200138272717595">
        <ele>1545.8699999999999</ele>
        <time>2019-05-21T14:37:21Z</time>
      </trkpt>
      <trkpt lat="44.675981691107154" lon="9.200208010151982">
        <ele>1542.8099999999999</ele>
        <time>2019-05-21T14:37:37Z</time>
      </trkpt>
      <trkpt lat="44.675912959501147" lon="9.200230557471514">
        <ele>1542.4400000000001</ele>
        <time>2019-05-21T14:37:47Z</time>
      </trkpt>
      <trkpt lat="44.675856633111835" lon="9.200239693745971">
        <ele>1541.6800000000001</ele>
        <time>2019-05-21T14:37:52Z</time>
      </trkpt>
      <trkpt lat="44.675668962299824" lon="9.200253859162331">
        <ele>1540.8699999999999</ele>
        <time>2019-05-21T14:38:09Z</time>
      </trkpt>
      <trkpt lat="44.675492942333221" lon="9.200254864990711">
        <ele>1541.01</ele>
        <time>2019-05-21T14:38:26Z</time>
      </trkpt>
      <trkpt lat="44.675311725586653" lon="9.200243214145303">
        <ele>1539.76</ele>
        <time>2019-05-21T14:38:43Z</time>
      </trkpt>
      <trkpt lat="44.675244418904185" lon="9.200247656553984">
        <ele>1539.1600000000001</ele>
        <time>2019-05-21T14:38:55Z</time>
      </trkpt>
      <trkpt lat="44.67516303062439" lon="9.200243968516588">
        <ele>1537.1900000000001</ele>
        <time>2019-05-21T14:39:07Z</time>
      </trkpt>
      <trkpt lat="44.675143919885159" lon="9.200244387611747">
        <ele>1537.73</ele>
        <time>2019-05-21T14:39:10Z</time>
      </trkpt>
      <trkpt lat="44.675103770568967" lon="9.200240867212415">
        <ele>1536.4300000000001</ele>
        <time>2019-05-21T14:39:14Z</time>
      </trkpt>
      <trkpt lat="44.674945268779993" lon="9.200234832242131">
        <ele>1532.8199999999999</ele>
        <time>2019-05-21T14:39:30Z</time>
      </trkpt>
      <trkpt lat="44.674813756719232" lon="9.20022351667285">
        <ele>1529.8</ele>
        <time>2019-05-21T14:39:43Z</time>
      </trkpt>
      <trkpt lat="44.674650225788355" lon="9.200179260224104">
        <ele>1526.48</ele>
        <time>2019-05-21T14:40:00Z</time>
      </trkpt>
      <trkpt lat="44.674534639343619" lon="9.200136093422771">
        <ele>1523.29</ele>
        <time>2019-05-21T14:40:12Z</time>
      </trkpt>
      <trkpt lat="44.67444377951324" lon="9.200098961591721">
        <ele>1520.04</ele>
        <time>2019-05-21T14:40:22Z</time>
      </trkpt>
      <trkpt lat="44.67436415143311" lon="9.200071133673191">
        <ele>1516.98</ele>
        <time>2019-05-21T14:40:31Z</time>
      </trkpt>
      <trkpt lat="44.674278823658824" lon="9.200027715414763">
        <ele>1513.75</ele>
        <time>2019-05-21T14:40:41Z</time>
      </trkpt>
      <trkpt lat="44.674262395128608" lon="9.200017992407084">
        <ele>1512.9400000000001</ele>
        <time>2019-05-21T14:40:43Z</time>
      </trkpt>
      <trkpt lat="44.674188299104571" lon="9.19993232935667">
        <ele>1509.8</ele>
        <time>2019-05-21T14:40:53Z</time>
      </trkpt>
      <trkpt lat="44.674125267192721" lon="9.199848845601082">
        <ele>1506.5599999999999</ele>
        <time>2019-05-21T14:41:03Z</time>
      </trkpt>
      <trkpt lat="44.674079669639468" lon="9.199761673808098">
        <ele>1503.55</ele>
        <time>2019-05-21T14:41:13Z</time>
      </trkpt>
      <trkpt lat="44.674049327149987" lon="9.19972806237638">
        <ele>1501.52</ele>
        <time>2019-05-21T14:41:25Z</time>
      </trkpt>
      <trkpt lat="44.674010770395398" lon="9.19973879121244">
        <ele>1500.73</ele>
        <time>2019-05-21T14:41:31Z</time>
      </trkpt>
      <trkpt lat="44.67400012537837" lon="9.19979645870626">
        <ele>1500.5799999999999</ele>
        <time>2019-05-21T14:41:36Z</time>
      </trkpt>
      <trkpt lat="44.67395955696702" lon="9.19996552169323">
        <ele>1499.21</ele>
        <time>2019-05-21T14:41:48Z</time>
      </trkpt>
      <trkpt lat="44.673903817310929" lon="9.20011455193162">
        <ele>1498.5799999999999</ele>
        <time>2019-05-21T14:42:00Z</time>
      </trkpt>
      <trkpt lat="44.673894345760345" lon="9.200121592730284">
        <ele>1498.51</ele>
        <time>2019-05-21T14:42:05Z</time>
      </trkpt>
      <trkpt lat="44.673872636631131" lon="9.200145397335291">
        <ele>1498.47</ele>
        <time>2019-05-21T14:42:08Z</time>
      </trkpt>
      <trkpt lat="44.673826871439815" lon="9.200173392891884">
        <ele>1497.9400000000001</ele>
        <time>2019-05-21T14:42:12Z</time>
      </trkpt>
      <trkpt lat="44.673666190356016" lon="9.20032418332994">
        <ele>1496.3299999999999</ele>
        <time>2019-05-21T14:42:29Z</time>
      </trkpt>
      <trkpt lat="44.673541132360697" lon="9.200472543016076">
        <ele>1495.0999999999999</ele>
        <time>2019-05-21T14:42:43Z</time>
      </trkpt>
      <trkpt lat="44.673459241166711" lon="9.200611431151629">
        <ele>1494.1900000000001</ele>
        <time>2019-05-21T14:42:55Z</time>
      </trkpt>
      <trkpt lat="44.673384223133326" lon="9.200765574350953">
        <ele>1492.7</ele>
        <time>2019-05-21T14:43:07Z</time>
      </trkpt>
      <trkpt lat="44.673258746042848" lon="9.200988365337253">
        <ele>1490.3399999999999</ele>
        <time>2019-05-21T14:43:24Z</time>
      </trkpt>
      <trkpt lat="44.673184314742684" lon="9.201075872406364">
        <ele>1488.9400000000001</ele>
        <time>2019-05-21T14:43:34Z</time>
      </trkpt>
      <trkpt lat="44.673147099092603" lon="9.201092971488833">
        <ele>1488.5599999999999</ele>
        <time>2019-05-21T14:43:45Z</time>
      </trkpt>
      <trkpt lat="44.673105692490935" lon="9.20116363093257">
        <ele>1487.29</ele>
        <time>2019-05-21T14:43:55Z</time>
      </trkpt>
      <trkpt lat="44.673068979755044" lon="9.201215347275138">
        <ele>1485.99</ele>
        <time>2019-05-21T14:44:08Z</time>
      </trkpt>
      <trkpt lat="44.673034194856882" lon="9.201215179637075">
        <ele>1485.5899999999999</ele>
        <time>2019-05-21T14:44:11Z</time>
      </trkpt>
      <trkpt lat="44.672959931194782" lon="9.201213754713535">
        <ele>1485.3800000000001</ele>
        <time>2019-05-21T14:44:22Z</time>
      </trkpt>
      <trkpt lat="44.672953560948372" lon="9.20122523792088">
        <ele>1485.4000000000001</ele>
        <time>2019-05-21T14:44:23Z</time>
      </trkpt>
      <trkpt lat="44.672894719988108" lon="9.201406287029386">
        <ele>1485.26</ele>
        <time>2019-05-21T14:44:40Z</time>
      </trkpt>
      <trkpt lat="44.67287527397275" lon="9.20141919516027">
        <ele>1484.45</ele>
        <time>2019-05-21T14:44:53Z</time>
      </trkpt>
      <trkpt lat="44.672854654490948" lon="9.201393546536565">
        <ele>1484.1400000000001</ele>
        <time>2019-05-21T14:45:22Z</time>
      </trkpt>
      <trkpt lat="44.672843338921666" lon="9.20139379799366">
        <ele>1483.9000000000001</ele>
        <time>2019-05-21T14:46:07Z</time>
      </trkpt>
      <trkpt lat="44.672856582328677" lon="9.201384158805013">
        <ele>1483.55</ele>
        <time>2019-05-21T14:46:47Z</time>
      </trkpt>
      <trkpt lat="44.672854235395789" lon="9.201381392776966">
        <ele>1483.75</ele>
        <time>2019-05-21T14:47:20Z</time>
      </trkpt>
      <trkpt lat="44.672851469367743" lon="9.20140159316361">
        <ele>1483.6500000000001</ele>
        <time>2019-05-21T14:47:56Z</time>
      </trkpt>
      <trkpt lat="44.67286697588861" lon="9.201406119391322">
        <ele>1484.0899999999999</ele>
        <time>2019-05-21T14:48:32Z</time>
      </trkpt>
      <trkpt lat="44.672883069142699" lon="9.201393965631723">
        <ele>1484.3599999999999</ele>
        <time>2019-05-21T14:49:07Z</time>
      </trkpt>
      <trkpt lat="44.672910729423165" lon="9.201380638405681">
        <ele>1484.4200000000001</ele>
        <time>2019-05-21T14:49:36Z</time>
      </trkpt>
      <trkpt lat="44.672874938696623" lon="9.201379381120205">
        <ele>1484.46</ele>
        <time>2019-05-21T14:50:06Z</time>
      </trkpt>
      <trkpt lat="44.672841411083937" lon="9.20138206332922">
        <ele>1484.77</ele>
        <time>2019-05-21T14:50:36Z</time>
      </trkpt>
      <trkpt lat="44.672868233174086" lon="9.201353061944246">
        <ele>1484.9200000000001</ele>
        <time>2019-05-21T14:51:12Z</time>
      </trkpt>
      <trkpt lat="44.672840824350715" lon="9.201364712789655">
        <ele>1485.5999999999999</ele>
        <time>2019-05-21T14:51:49Z</time>
      </trkpt>
      <trkpt lat="44.67282154597342" lon="9.201382733881474">
        <ele>1485.8800000000001</ele>
        <time>2019-05-21T14:52:21Z</time>
      </trkpt>
      <trkpt lat="44.672831436619163" lon="9.201393127441406">
        <ele>1485.74</ele>
        <time>2019-05-21T14:52:54Z</time>
      </trkpt>
      <trkpt lat="44.672839567065239" lon="9.201389439404011">
        <ele>1485.6900000000001</ele>
        <time>2019-05-21T14:53:30Z</time>
      </trkpt>
      <trkpt lat="44.672843338921666" lon="9.201402263715863">
        <ele>1485.6500000000001</ele>
        <time>2019-05-21T14:53:58Z</time>
      </trkpt>
      <trkpt lat="44.672847194597125" lon="9.201411148533225">
        <ele>1485.6700000000001</ele>
        <time>2019-05-21T14:54:20Z</time>
      </trkpt>
      <trkpt lat="44.672828167676926" lon="9.201413914561272">
        <ele>1486.1300000000001</ele>
        <time>2019-05-21T14:54:50Z</time>
      </trkpt>
      <trkpt lat="44.672855911776423" lon="9.201401257887483">
        <ele>1486.1600000000001</ele>
        <time>2019-05-21T14:55:09Z</time>
      </trkpt>
      <trkpt lat="44.672939982265234" lon="9.201404945924878">
        <ele>1495.47</ele>
        <time>2019-05-22T06:33:51Z</time>
      </trkpt>
      <trkpt lat="44.672938557341695" lon="9.201408969238401">
        <ele>1494.79</ele>
        <time>2019-05-22T06:34:16Z</time>
      </trkpt>
      <trkpt lat="44.672935036942363" lon="9.201377034187317">
        <ele>1494.97</ele>
        <time>2019-05-22T06:34:35Z</time>
      </trkpt>
      <trkpt lat="44.672912824898958" lon="9.2012501321733">
        <ele>1495.3099999999999</ele>
        <time>2019-05-22T06:34:48Z</time>
      </trkpt>
      <trkpt lat="44.672936545684934" lon="9.201199254021049">
        <ele>1495.3499999999999</ele>
        <time>2019-05-22T06:34:54Z</time>
      </trkpt>
      <trkpt lat="44.672957081347704" lon="9.20109917409718">
        <ele>1495.48</ele>
        <time>2019-05-22T06:35:02Z</time>
      </trkpt>
      <trkpt lat="44.672987256199121" lon="9.200901947915554">
        <ele>1494.8199999999999</ele>
        <time>2019-05-22T06:35:20Z</time>
      </trkpt>
      <trkpt lat="44.672982059419155" lon="9.200895996764302">
        <ele>1494.8699999999999</ele>
        <time>2019-05-22T06:35:43Z</time>
      </trkpt>
      <trkpt lat="44.672974599525332" lon="9.200889710336924">
        <ele>1494.6700000000001</ele>
        <time>2019-05-22T06:35:45Z</time>
      </trkpt>
      <trkpt lat="44.672934198752046" lon="9.200914353132248">
        <ele>1493.8199999999999</ele>
        <time>2019-05-22T06:35:49Z</time>
      </trkpt>
      <trkpt lat="44.672730937600136" lon="9.201096324250102">
        <ele>1492.6199999999999</ele>
        <time>2019-05-22T06:36:10Z</time>
      </trkpt>
      <trkpt lat="44.672579979524016" lon="9.201255245134234">
        <ele>1492.5999999999999</ele>
        <time>2019-05-22T06:36:26Z</time>
      </trkpt>
      <trkpt lat="44.672466404736042" lon="9.20135423541069">
        <ele>1492.6400000000001</ele>
        <time>2019-05-22T06:36:38Z</time>
      </trkpt>
      <trkpt lat="44.672386860474944" lon="9.201259771361947">
        <ele>1492.96</ele>
        <time>2019-05-22T06:36:50Z</time>
      </trkpt>
      <trkpt lat="44.672262305393815" lon="9.201202774420381">
        <ele>1493.5699999999999</ele>
        <time>2019-05-22T06:37:02Z</time>
      </trkpt>
      <trkpt lat="44.672129703685641" lon="9.201145861297846">
        <ele>1492.3</ele>
        <time>2019-05-22T06:37:15Z</time>
      </trkpt>
      <trkpt lat="44.67201336286962" lon="9.201122559607029">
        <ele>1492.6800000000001</ele>
        <time>2019-05-22T06:37:26Z</time>
      </trkpt>
      <trkpt lat="44.671945217996836" lon="9.201141586527228">
        <ele>1493.1199999999999</ele>
        <time>2019-05-22T06:37:33Z</time>
      </trkpt>
      <trkpt lat="44.671860057860613" lon="9.201209647580981">
        <ele>1492.04</ele>
        <time>2019-05-22T06:37:41Z</time>
      </trkpt>
      <trkpt lat="44.671688983216882" lon="9.201234960928559">
        <ele>1491.4200000000001</ele>
        <time>2019-05-22T06:37:56Z</time>
      </trkpt>
      <trkpt lat="44.671603152528405" lon="9.201289024204016">
        <ele>1490.1099999999999</ele>
        <time>2019-05-22T06:38:09Z</time>
      </trkpt>
      <trkpt lat="44.671490751206875" lon="9.201358510181308">
        <ele>1487.6600000000001</ele>
        <time>2019-05-22T06:38:24Z</time>
      </trkpt>
      <trkpt lat="44.671365106478333" lon="9.201388098299503">
        <ele>1488.6600000000001</ele>
        <time>2019-05-22T06:38:39Z</time>
      </trkpt>
      <trkpt lat="44.671294698491693" lon="9.20147200115025">
        <ele>1491.5899999999999</ele>
        <time>2019-05-22T06:38:56Z</time>
      </trkpt>
      <trkpt lat="44.671213813126087" lon="9.201566632837057">
        <ele>1492.46</ele>
        <time>2019-05-22T06:39:10Z</time>
      </trkpt>
      <trkpt lat="44.671182380989194" lon="9.201617008075118">
        <ele>1492.8800000000001</ele>
        <time>2019-05-22T06:39:16Z</time>
      </trkpt>
      <trkpt lat="44.671130999922752" lon="9.20169772580266">
        <ele>1491.96</ele>
        <time>2019-05-22T06:39:24Z</time>
      </trkpt>
      <trkpt lat="44.671072997152805" lon="9.20181599445641">
        <ele>1491.3499999999999</ele>
        <time>2019-05-22T06:39:36Z</time>
      </trkpt>
      <trkpt lat="44.671028824523091" lon="9.202068541198969">
        <ele>1491.6400000000001</ele>
        <time>2019-05-22T06:39:53Z</time>
      </trkpt>
      <trkpt lat="44.670956488698721" lon="9.202379006892443">
        <ele>1490.4000000000001</ele>
        <time>2019-05-22T06:40:12Z</time>
      </trkpt>
      <trkpt lat="44.6709178481251" lon="9.202529964968562">
        <ele>1489.48</ele>
        <time>2019-05-22T06:40:23Z</time>
      </trkpt>
      <trkpt lat="44.670902341604233" lon="9.202616466209292">
        <ele>1489.4400000000001</ele>
        <time>2019-05-22T06:40:33Z</time>
      </trkpt>
      <trkpt lat="44.670849954709411" lon="9.202674049884081">
        <ele>1488.3199999999999</ele>
        <time>2019-05-22T06:40:37Z</time>
      </trkpt>
      <trkpt lat="44.670730428770185" lon="9.202938666567206">
        <ele>1486.28</ele>
        <time>2019-05-22T06:40:52Z</time>
      </trkpt>
      <trkpt lat="44.670638563111424" lon="9.203275954350829">
        <ele>1485.53</ele>
        <time>2019-05-22T06:41:11Z</time>
      </trkpt>
      <trkpt lat="44.670576034113765" lon="9.20342112891376">
        <ele>1484.99</ele>
        <time>2019-05-22T06:41:21Z</time>
      </trkpt>
      <trkpt lat="44.670573016628623" lon="9.203456332907081">
        <ele>1484.74</ele>
        <time>2019-05-22T06:41:32Z</time>
      </trkpt>
      <trkpt lat="44.670538567006588" lon="9.20348072424531">
        <ele>1484.6500000000001</ele>
        <time>2019-05-22T06:41:41Z</time>
      </trkpt>
      <trkpt lat="44.67039012350142" lon="9.203598825260997">
        <ele>1484.3699999999999</ele>
        <time>2019-05-22T06:41:57Z</time>
      </trkpt>
      <trkpt lat="44.670214103534818" lon="9.203628664836288">
        <ele>1484.8099999999999</ele>
        <time>2019-05-22T06:42:12Z</time>
      </trkpt>
      <trkpt lat="44.669974884018302" lon="9.203591784462333">
        <ele>1485.3299999999999</ele>
        <time>2019-05-22T06:42:32Z</time>
      </trkpt>
      <trkpt lat="44.669782184064388" lon="9.203551970422268">
        <ele>1487.01</ele>
        <time>2019-05-22T06:42:49Z</time>
      </trkpt>
      <trkpt lat="44.669649247080088" lon="9.203547444194555">
        <ele>1487.4000000000001</ele>
        <time>2019-05-22T06:43:03Z</time>
      </trkpt>
      <trkpt lat="44.669545060023665" lon="9.20358918607235">
        <ele>1487.6700000000001</ele>
        <time>2019-05-22T06:43:16Z</time>
      </trkpt>
      <trkpt lat="44.669447494670749" lon="9.203615253791213">
        <ele>1488.28</ele>
        <time>2019-05-22T06:43:29Z</time>
      </trkpt>
      <trkpt lat="44.669336602091789" lon="9.203663282096386">
        <ele>1489.3800000000001</ele>
        <time>2019-05-22T06:43:42Z</time>
      </trkpt>
      <trkpt lat="44.669270636513829" lon="9.203757829964161">
        <ele>1490.6300000000001</ele>
        <time>2019-05-22T06:43:54Z</time>
      </trkpt>
      <trkpt lat="44.669183045625687" lon="9.203852210193873">
        <ele>1491.4200000000001</ele>
        <time>2019-05-22T06:44:06Z</time>
      </trkpt>
      <trkpt lat="44.669172484427691" lon="9.203856736421585">
        <ele>1491.5599999999999</ele>
        <time>2019-05-22T06:44:07Z</time>
      </trkpt>
      <trkpt lat="44.66901364736259" lon="9.203993193805218">
        <ele>1491.53</ele>
        <time>2019-05-22T06:44:25Z</time>
      </trkpt>
      <trkpt lat="44.668974000960588" lon="9.204034181311727">
        <ele>1491.1099999999999</ele>
        <time>2019-05-22T06:44:37Z</time>
      </trkpt>
      <trkpt lat="44.668907951563597" lon="9.204084305092692">
        <ele>1491.21</ele>
        <time>2019-05-22T06:44:48Z</time>
      </trkpt>
      <trkpt lat="44.668830251321197" lon="9.204126298427582">
        <ele>1491.1400000000001</ele>
        <time>2019-05-22T06:45:02Z</time>
      </trkpt>
      <trkpt lat="44.66872681863606" lon="9.20414817519486">
        <ele>1491.22</ele>
        <time>2019-05-22T06:45:15Z</time>
      </trkpt>
      <trkpt lat="44.668622296303511" lon="9.204181535169482">
        <ele>1493.4100000000001</ele>
        <time>2019-05-22T06:45:29Z</time>
      </trkpt>
      <trkpt lat="44.668565383180976" lon="9.204191258177161">
        <ele>1493.8900000000001</ele>
        <time>2019-05-22T06:45:34Z</time>
      </trkpt>
      <trkpt lat="44.668512493371964" lon="9.20421464368701">
        <ele>1494.1099999999999</ele>
        <time>2019-05-22T06:45:40Z</time>
      </trkpt>
      <trkpt lat="44.668399672955275" lon="9.204203998669982">
        <ele>1493.8699999999999</ele>
        <time>2019-05-22T06:45:51Z</time>
      </trkpt>
      <trkpt lat="44.66835499741137" lon="9.204200729727745">
        <ele>1493.6099999999999</ele>
        <time>2019-05-22T06:46:03Z</time>
      </trkpt>
      <trkpt lat="44.668323900550604" lon="9.204204417765141">
        <ele>1493.99</ele>
        <time>2019-05-22T06:46:06Z</time>
      </trkpt>
      <trkpt lat="44.66830370016396" lon="9.204200897365809">
        <ele>1494.1700000000001</ele>
        <time>2019-05-22T06:46:08Z</time>
      </trkpt>
      <trkpt lat="44.668167913332582" lon="9.204140799120069">
        <ele>1494.8900000000001</ele>
        <time>2019-05-22T06:46:21Z</time>
      </trkpt>
      <trkpt lat="44.668048806488514" lon="9.204123616218567">
        <ele>1495.49</ele>
        <time>2019-05-22T06:46:33Z</time>
      </trkpt>
      <trkpt lat="44.667953001335263" lon="9.204106433317065">
        <ele>1495.74</ele>
        <time>2019-05-22T06:46:45Z</time>
      </trkpt>
      <trkpt lat="44.667870942503214" lon="9.204104589298368">
        <ele>1494.22</ele>
        <time>2019-05-22T06:46:56Z</time>
      </trkpt>
      <trkpt lat="44.667822662740946" lon="9.204124454408884">
        <ele>1493.0799999999999</ele>
        <time>2019-05-22T06:47:08Z</time>
      </trkpt>
      <trkpt lat="44.667748901993036" lon="9.204142140224576">
        <ele>1491.1800000000001</ele>
        <time>2019-05-22T06:47:20Z</time>
      </trkpt>
      <trkpt lat="44.667680338025093" lon="9.204197796061635">
        <ele>1489.55</ele>
        <time>2019-05-22T06:47:35Z</time>
      </trkpt>
      <trkpt lat="44.6676523424685" lon="9.204215481877327">
        <ele>1489.03</ele>
        <time>2019-05-22T06:47:48Z</time>
      </trkpt>
      <trkpt lat="44.667637003585696" lon="9.204276334494352">
        <ele>1489.48</ele>
        <time>2019-05-22T06:48:01Z</time>
      </trkpt>
      <trkpt lat="44.667633315548301" lon="9.20436761341989">
        <ele>1490.76</ele>
        <time>2019-05-22T06:48:18Z</time>
      </trkpt>
      <trkpt lat="44.667559722438455" lon="9.204415725544095">
        <ele>1489.8</ele>
        <time>2019-05-22T06:48:31Z</time>
      </trkpt>
      <trkpt lat="44.667515214532614" lon="9.204444224014878">
        <ele>1489.6400000000001</ele>
        <time>2019-05-22T06:48:49Z</time>
      </trkpt>
      <trkpt lat="44.667474729940295" lon="9.204468447715044">
        <ele>1489.5699999999999</ele>
        <time>2019-05-22T06:49:19Z</time>
      </trkpt>
      <trkpt lat="44.667452936992049" lon="9.204477583989501">
        <ele>1489.46</ele>
        <time>2019-05-22T06:49:41Z</time>
      </trkpt>
      <trkpt lat="44.667410859838128" lon="9.204549500718713">
        <ele>1489.1300000000001</ele>
        <time>2019-05-22T06:49:55Z</time>
      </trkpt>
      <trkpt lat="44.667411278933287" lon="9.204659219831228">
        <ele>1487.4300000000001</ele>
        <time>2019-05-22T06:50:09Z</time>
      </trkpt>
      <trkpt lat="44.667409937828779" lon="9.204803975299001">
        <ele>1487.6199999999999</ele>
        <time>2019-05-22T06:50:26Z</time>
      </trkpt>
      <trkpt lat="44.667361155152321" lon="9.204940181225538">
        <ele>1485.55</ele>
        <time>2019-05-22T06:50:37Z</time>
      </trkpt>
      <trkpt lat="44.667332656681538" lon="9.205042188987136">
        <ele>1484.0899999999999</ele>
        <time>2019-05-22T06:50:51Z</time>
      </trkpt>
      <trkpt lat="44.667338775470853" lon="9.205045206472278">
        <ele>1483.24</ele>
        <time>2019-05-22T06:51:11Z</time>
      </trkpt>
      <trkpt lat="44.667292172089219" lon="9.205070352181792">
        <ele>1483.51</ele>
        <time>2019-05-22T06:51:38Z</time>
      </trkpt>
      <trkpt lat="44.667277839034796" lon="9.205070184543729">
        <ele>1483.74</ele>
        <time>2019-05-22T06:51:58Z</time>
      </trkpt>
      <trkpt lat="44.667282197624445" lon="9.205082422122359">
        <ele>1484.6500000000001</ele>
        <time>2019-05-22T06:52:11Z</time>
      </trkpt>
      <trkpt lat="44.667285466566682" lon="9.205113602802157">
        <ele>1484.4200000000001</ele>
        <time>2019-05-22T06:52:31Z</time>
      </trkpt>
      <trkpt lat="44.667278928682208" lon="9.205111088231206">
        <ele>1484.3099999999999</ele>
        <time>2019-05-22T06:52:51Z</time>
      </trkpt>
      <trkpt lat="44.667212879285216" lon="9.205134641379118">
        <ele>1483.71</ele>
        <time>2019-05-22T06:53:01Z</time>
      </trkpt>
      <trkpt lat="44.667128138244152" lon="9.205202367156744">
        <ele>1484.55</ele>
        <time>2019-05-22T06:53:13Z</time>
      </trkpt>
      <trkpt lat="44.667066615074873" lon="9.20527788810432">
        <ele>1485.8199999999999</ele>
        <time>2019-05-22T06:53:24Z</time>
      </trkpt>
      <trkpt lat="44.667059490457177" lon="9.205285515636206">
        <ele>1485.75</ele>
        <time>2019-05-22T06:53:25Z</time>
      </trkpt>
      <trkpt lat="44.666954465210438" lon="9.205298759043217">
        <ele>1487.0799999999999</ele>
        <time>2019-05-22T06:53:38Z</time>
      </trkpt>
      <trkpt lat="44.666916662827134" lon="9.205285180360079">
        <ele>1487.4100000000001</ele>
        <time>2019-05-22T06:53:42Z</time>
      </trkpt>
      <trkpt lat="44.666755143553019" lon="9.205201109871268">
        <ele>1487.54</ele>
        <time>2019-05-22T06:53:57Z</time>
      </trkpt>
      <trkpt lat="44.666665121912956" lon="9.205100107938051">
        <ele>1488.0899999999999</ele>
        <time>2019-05-22T06:54:10Z</time>
      </trkpt>
      <trkpt lat="44.66655976139009" lon="9.205007320269942">
        <ele>1487.6500000000001</ele>
        <time>2019-05-22T06:54:23Z</time>
      </trkpt>
      <trkpt lat="44.666467811912298" lon="9.204946300014854">
        <ele>1487.4100000000001</ele>
        <time>2019-05-22T06:54:35Z</time>
      </trkpt>
      <trkpt lat="44.666386423632503" lon="9.204935487359762">
        <ele>1487.0899999999999</ele>
        <time>2019-05-22T06:54:45Z</time>
      </trkpt>
      <trkpt lat="44.666375108063221" lon="9.204936409369111">
        <ele>1487.1400000000001</ele>
        <time>2019-05-22T06:54:46Z</time>
      </trkpt>
      <trkpt lat="44.666327582672238" lon="9.204941019415855">
        <ele>1487.6400000000001</ele>
        <time>2019-05-22T06:54:51Z</time>
      </trkpt>
      <trkpt lat="44.666127171367407" lon="9.204898606985807">
        <ele>1488.05</ele>
        <time>2019-05-22T06:55:09Z</time>
      </trkpt>
      <trkpt lat="44.665972609072924" lon="9.204781679436564">
        <ele>1490.1800000000001</ele>
        <time>2019-05-22T06:55:26Z</time>
      </trkpt>
      <trkpt lat="44.665874624624848" lon="9.204691825434566">
        <ele>1492.01</ele>
        <time>2019-05-22T06:55:40Z</time>
      </trkpt>
      <trkpt lat="44.665774125605822" lon="9.204607587307692">
        <ele>1493.73</ele>
        <time>2019-05-22T06:55:54Z</time>
      </trkpt>
      <trkpt lat="44.665691899135709" lon="9.204538688063622">
        <ele>1495.54</ele>
        <time>2019-05-22T06:56:06Z</time>
      </trkpt>
      <trkpt lat="44.665593830868602" lon="9.204477081075311">
        <ele>1498.1099999999999</ele>
        <time>2019-05-22T06:56:20Z</time>
      </trkpt>
      <trkpt lat="44.665514705702662" lon="9.204416479915381">
        <ele>1501.1199999999999</ele>
        <time>2019-05-22T06:56:35Z</time>
      </trkpt>
      <trkpt lat="44.665425773710012" lon="9.204327212646604">
        <ele>1503.6099999999999</ele>
        <time>2019-05-22T06:56:50Z</time>
      </trkpt>
      <trkpt lat="44.665325358510017" lon="9.204266108572483">
        <ele>1506.21</ele>
        <time>2019-05-22T06:57:08Z</time>
      </trkpt>
      <trkpt lat="44.665257297456264" lon="9.204170806333423">
        <ele>1508.6199999999999</ele>
        <time>2019-05-22T06:57:23Z</time>
      </trkpt>
      <trkpt lat="44.665184207260609" lon="9.204109366983175">
        <ele>1511.29</ele>
        <time>2019-05-22T06:57:40Z</time>
      </trkpt>
      <trkpt lat="44.665089743211865" lon="9.204105092212558">
        <ele>1514.26</ele>
        <time>2019-05-22T06:57:57Z</time>
      </trkpt>
      <trkpt lat="44.665001062676311" lon="9.204114228487015">
        <ele>1516.3900000000001</ele>
        <time>2019-05-22T06:58:13Z</time>
      </trkpt>
      <trkpt lat="44.664923110976815" lon="9.204170303419232">
        <ele>1517.8699999999999</ele>
        <time>2019-05-22T06:58:24Z</time>
      </trkpt>
      <trkpt lat="44.664894947782159" lon="9.204180864617229">
        <ele>1517.9000000000001</ele>
        <time>2019-05-22T06:58:27Z</time>
      </trkpt>
      <trkpt lat="44.664738457649946" lon="9.204284381121397">
        <ele>1518.0799999999999</ele>
        <time>2019-05-22T06:58:43Z</time>
      </trkpt>
      <trkpt lat="44.664573082700372" lon="9.204386053606868">
        <ele>1518.3800000000001</ele>
        <time>2019-05-22T06:58:59Z</time>
      </trkpt>
      <trkpt lat="44.664406031370163" lon="9.204444726929069">
        <ele>1519.7</ele>
        <time>2019-05-22T06:59:14Z</time>
      </trkpt>
      <trkpt lat="44.664285331964493" lon="9.204485462978482">
        <ele>1520.1500000000001</ele>
        <time>2019-05-22T06:59:27Z</time>
      </trkpt>
      <trkpt lat="44.66412054374814" lon="9.204558553174138">
        <ele>1521.29</ele>
        <time>2019-05-22T06:59:43Z</time>
      </trkpt>
      <trkpt lat="44.663961622864008" lon="9.204595265910029">
        <ele>1522.7</ele>
        <time>2019-05-22T06:59:59Z</time>
      </trkpt>
      <trkpt lat="44.663834972307086" lon="9.204608341678977">
        <ele>1523.8499999999999</ele>
        <time>2019-05-22T07:00:13Z</time>
      </trkpt>
      <trkpt lat="44.66379557736218" lon="9.204622088000178">
        <ele>1524.3399999999999</ele>
        <time>2019-05-22T07:00:22Z</time>
      </trkpt>
      <trkpt lat="44.663743609562516" lon="9.204626865684986">
        <ele>1524.8199999999999</ele>
        <time>2019-05-22T07:00:31Z</time>
      </trkpt>
      <trkpt lat="44.663721481338143" lon="9.20462703332305">
        <ele>1525.1099999999999</ele>
        <time>2019-05-22T07:00:44Z</time>
      </trkpt>
      <trkpt lat="44.663658533245325" lon="9.204643042758107">
        <ele>1525.3199999999999</ele>
        <time>2019-05-22T07:00:52Z</time>
      </trkpt>
      <trkpt lat="44.663530038669705" lon="9.204629631713033">
        <ele>1526.6700000000001</ele>
        <time>2019-05-22T07:01:06Z</time>
      </trkpt>
      <trkpt lat="44.663439933210611" lon="9.204632649198175">
        <ele>1527.5999999999999</ele>
        <time>2019-05-22T07:01:17Z</time>
      </trkpt>
      <trkpt lat="44.663422917947173" lon="9.204632565379143">
        <ele>1527.72</ele>
        <time>2019-05-22T07:01:19Z</time>
      </trkpt>
      <trkpt lat="44.663287550210953" lon="9.204629631713033">
        <ele>1529.46</ele>
        <time>2019-05-22T07:01:34Z</time>
      </trkpt>
      <trkpt lat="44.663190739229321" lon="9.204647317528725">
        <ele>1531.3499999999999</ele>
        <time>2019-05-22T07:01:48Z</time>
      </trkpt>
      <trkpt lat="44.663081523030996" lon="9.20469299890101">
        <ele>1534.3499999999999</ele>
        <time>2019-05-22T07:02:05Z</time>
      </trkpt>
      <trkpt lat="44.663000637665391" lon="9.204753180965781">
        <ele>1536.53</ele>
        <time>2019-05-22T07:02:19Z</time>
      </trkpt>
      <trkpt lat="44.662925200536847" lon="9.204803304746747">
        <ele>1538.6800000000001</ele>
        <time>2019-05-22T07:02:33Z</time>
      </trkpt>
      <trkpt lat="44.662842303514481" lon="9.204859044402838">
        <ele>1541.1800000000001</ele>
        <time>2019-05-22T07:02:48Z</time>
      </trkpt>
      <trkpt lat="44.662761585786939" lon="9.20491386204958">
        <ele>1543.8499999999999</ele>
        <time>2019-05-22T07:03:03Z</time>
      </trkpt>
      <trkpt lat="44.662698218598962" lon="9.204985778778791">
        <ele>1546.25</ele>
        <time>2019-05-22T07:03:18Z</time>
      </trkpt>
      <trkpt lat="44.662629319354892" lon="9.205050403252244">
        <ele>1548.8599999999999</ele>
        <time>2019-05-22T07:03:32Z</time>
      </trkpt>
      <trkpt lat="44.662538794800639" lon="9.205156266689301">
        <ele>1551.53</ele>
        <time>2019-05-22T07:03:52Z</time>
      </trkpt>
      <trkpt lat="44.662458663806319" lon="9.205239582806826">
        <ele>1554.5699999999999</ele>
        <time>2019-05-22T07:04:08Z</time>
      </trkpt>
      <trkpt lat="44.662379203364253" lon="9.205334633588791">
        <ele>1557.24</ele>
        <time>2019-05-22T07:04:26Z</time>
      </trkpt>
      <trkpt lat="44.662328576669097" lon="9.205398168414831">
        <ele>1559.73</ele>
        <time>2019-05-22T07:04:40Z</time>
      </trkpt>
      <trkpt lat="44.662266131490469" lon="9.205476455390453">
        <ele>1562.79</ele>
        <time>2019-05-22T07:04:54Z</time>
      </trkpt>
      <trkpt lat="44.662191364914179" lon="9.205564968287945">
        <ele>1566.02</ele>
        <time>2019-05-22T07:05:12Z</time>
      </trkpt>
      <trkpt lat="44.662143588066101" lon="9.205631101503968">
        <ele>1568.1400000000001</ele>
        <time>2019-05-22T07:05:25Z</time>
      </trkpt>
      <trkpt lat="44.662065804004669" lon="9.205722212791443">
        <ele>1570.29</ele>
        <time>2019-05-22T07:05:39Z</time>
      </trkpt>
      <trkpt lat="44.662004197016358" lon="9.205795470625162">
        <ele>1572.77</ele>
        <time>2019-05-22T07:05:53Z</time>
      </trkpt>
      <trkpt lat="44.661944434046745" lon="9.205840062350035">
        <ele>1573.1199999999999</ele>
        <time>2019-05-22T07:06:06Z</time>
      </trkpt>
      <trkpt lat="44.661936135962605" lon="9.20584324747324">
        <ele>1572.99</ele>
        <time>2019-05-22T07:06:07Z</time>
      </trkpt>
      <trkpt lat="44.661825746297836" lon="9.205938633531332">
        <ele>1571.02</ele>
        <time>2019-05-22T07:06:21Z</time>
      </trkpt>
      <trkpt lat="44.661719044670463" lon="9.206007784232497">
        <ele>1569.3</ele>
        <time>2019-05-22T07:06:33Z</time>
      </trkpt>
      <trkpt lat="44.661592142656446" lon="9.206058327108622">
        <ele>1568</ele>
        <time>2019-05-22T07:06:46Z</time>
      </trkpt>
      <trkpt lat="44.661503545939922" lon="9.206055141985416">
        <ele>1569.5699999999999</ele>
        <time>2019-05-22T07:06:57Z</time>
      </trkpt>
      <trkpt lat="44.661445710808039" lon="9.206063440069556">
        <ele>1570.24</ele>
        <time>2019-05-22T07:07:07Z</time>
      </trkpt>
      <trkpt lat="44.661431210115552" lon="9.206065116450191">
        <ele>1570.45</ele>
        <time>2019-05-22T07:07:09Z</time>
      </trkpt>
      <trkpt lat="44.661360383033752" lon="9.206089759245515">
        <ele>1571.5799999999999</ele>
        <time>2019-05-22T07:07:18Z</time>
      </trkpt>
      <trkpt lat="44.661256698891521" lon="9.206141224130988">
        <ele>1574.03</ele>
        <time>2019-05-22T07:07:34Z</time>
      </trkpt>
      <trkpt lat="44.661163575947285" lon="9.206245159730315">
        <ele>1576.6500000000001</ele>
        <time>2019-05-22T07:07:51Z</time>
      </trkpt>
      <trkpt lat="44.661083277314901" lon="9.206335516646504">
        <ele>1578.74</ele>
        <time>2019-05-22T07:08:06Z</time>
      </trkpt>
      <trkpt lat="44.661012953147292" lon="9.206415060907602">
        <ele>1579.8099999999999</ele>
        <time>2019-05-22T07:08:19Z</time>
      </trkpt>
      <trkpt lat="44.660911532118917" lon="9.206477589905262">
        <ele>1580.1300000000001</ele>
        <time>2019-05-22T07:08:33Z</time>
      </trkpt>
      <trkpt lat="44.660865599289536" lon="9.206488151103258">
        <ele>1582.3800000000001</ele>
        <time>2019-05-22T07:08:40Z</time>
      </trkpt>
      <trkpt lat="44.66074607335031" lon="9.206480272114277">
        <ele>1584.27</ele>
        <time>2019-05-22T07:08:56Z</time>
      </trkpt>
      <trkpt lat="44.660640712827444" lon="9.206457389518619">
        <ele>1587.1300000000001</ele>
        <time>2019-05-22T07:09:11Z</time>
      </trkpt>
      <trkpt lat="44.660524372011423" lon="9.206441128626466">
        <ele>1588.8199999999999</ele>
        <time>2019-05-22T07:09:26Z</time>
      </trkpt>
      <trkpt lat="44.660391435027122" lon="9.20640466734767">
        <ele>1591.1600000000001</ele>
        <time>2019-05-22T07:09:44Z</time>
      </trkpt>
      <trkpt lat="44.66028967872262" lon="9.206369630992413">
        <ele>1593.24</ele>
        <time>2019-05-22T07:09:58Z</time>
      </trkpt>
      <trkpt lat="44.660202087834477" lon="9.206341886892915">
        <ele>1595.01</ele>
        <time>2019-05-22T07:10:11Z</time>
      </trkpt>
      <trkpt lat="44.660099074244499" lon="9.206319339573383">
        <ele>1597.49</ele>
        <time>2019-05-22T07:10:26Z</time>
      </trkpt>
      <trkpt lat="44.65999647974968" lon="9.206311041489244">
        <ele>1599.9000000000001</ele>
        <time>2019-05-22T07:10:41Z</time>
      </trkpt>
      <trkpt lat="44.659898830577731" lon="9.206298133358359">
        <ele>1602.3699999999999</ele>
        <time>2019-05-22T07:10:56Z</time>
      </trkpt>
      <trkpt lat="44.659855579957366" lon="9.206288242712617">
        <ele>1603.22</ele>
        <time>2019-05-22T07:11:02Z</time>
      </trkpt>
      <trkpt lat="44.659763043746352" lon="9.206246584653854">
        <ele>1604.6600000000001</ele>
        <time>2019-05-22T07:11:15Z</time>
      </trkpt>
      <trkpt lat="44.659638488665223" lon="9.206220600754023">
        <ele>1607.1099999999999</ele>
        <time>2019-05-22T07:11:33Z</time>
      </trkpt>
      <trkpt lat="44.659539917483926" lon="9.206215990707278">
        <ele>1610.4100000000001</ele>
        <time>2019-05-22T07:11:49Z</time>
      </trkpt>
      <trkpt lat="44.659439250826836" lon="9.206220516934991">
        <ele>1613.0999999999999</ele>
        <time>2019-05-22T07:12:05Z</time>
      </trkpt>
      <trkpt lat="44.659361131489277" lon="9.206226635724306">
        <ele>1615.72</ele>
        <time>2019-05-22T07:12:20Z</time>
      </trkpt>
      <trkpt lat="44.659282173961401" lon="9.206236191093922">
        <ele>1618.51</ele>
        <time>2019-05-22T07:12:34Z</time>
      </trkpt>
      <trkpt lat="44.65920346789062" lon="9.206221690401435">
        <ele>1620.9000000000001</ele>
        <time>2019-05-22T07:12:48Z</time>
      </trkpt>
      <trkpt lat="44.659129539504647" lon="9.20619604177773">
        <ele>1623.3599999999999</ele>
        <time>2019-05-22T07:13:03Z</time>
      </trkpt>
      <trkpt lat="44.659048151224852" lon="9.206179277971387">
        <ele>1626.03</ele>
        <time>2019-05-22T07:13:18Z</time>
      </trkpt>
      <trkpt lat="44.658980006352067" lon="9.206156060099602">
        <ele>1628.22</ele>
        <time>2019-05-22T07:13:31Z</time>
      </trkpt>
      <trkpt lat="44.658977072685957" lon="9.206158239394426">
        <ele>1628.3099999999999</ele>
        <time>2019-05-22T07:13:46Z</time>
      </trkpt>
      <trkpt lat="44.658959303051233" lon="9.206148684024811">
        <ele>1628.53</ele>
        <time>2019-05-22T07:14:02Z</time>
      </trkpt>
      <trkpt lat="44.658956453204155" lon="9.206150947138667">
        <ele>1628.53</ele>
        <time>2019-05-22T07:14:23Z</time>
      </trkpt>
      <trkpt lat="44.658948741853237" lon="9.206148600205779">
        <ele>1628.6800000000001</ele>
        <time>2019-05-22T07:14:37Z</time>
      </trkpt>
      <trkpt lat="44.658948993310332" lon="9.206151952967048">
        <ele>1628.6900000000001</ele>
        <time>2019-05-22T07:15:01Z</time>
      </trkpt>
      <trkpt lat="44.658946562558413" lon="9.206152874976397">
        <ele>1628.75</ele>
        <time>2019-05-22T07:15:24Z</time>
      </trkpt>
      <trkpt lat="44.658943461254239" lon="9.206152874976397">
        <ele>1628.9200000000001</ele>
        <time>2019-05-22T07:15:52Z</time>
      </trkpt>
      <trkpt lat="44.658883027732372" lon="9.206139715388417">
        <ele>1629.6600000000001</ele>
        <time>2019-05-22T07:16:08Z</time>
      </trkpt>
      <trkpt lat="44.658790826797485" lon="9.206127561628819">
        <ele>1632.79</ele>
        <time>2019-05-22T07:16:24Z</time>
      </trkpt>
      <trkpt lat="44.658722765743732" lon="9.206095794215798">
        <ele>1634.4400000000001</ele>
        <time>2019-05-22T07:16:36Z</time>
      </trkpt>
      <trkpt lat="44.658660655841231" lon="9.206079700961709">
        <ele>1636.9100000000001</ele>
        <time>2019-05-22T07:16:49Z</time>
      </trkpt>
      <trkpt lat="44.658592846244574" lon="9.206075007095933">
        <ele>1639.53</ele>
        <time>2019-05-22T07:17:02Z</time>
      </trkpt>
      <trkpt lat="44.658502656966448" lon="9.206039300188422">
        <ele>1641.79</ele>
        <time>2019-05-22T07:17:18Z</time>
      </trkpt>
      <trkpt lat="44.658424369990826" lon="9.205993032082915">
        <ele>1644.71</ele>
        <time>2019-05-22T07:17:34Z</time>
      </trkpt>
      <trkpt lat="44.65835765004158" lon="9.205941315740347">
        <ele>1646.8699999999999</ele>
        <time>2019-05-22T07:17:49Z</time>
      </trkpt>
      <trkpt lat="44.658314818516374" lon="9.20589161105454">
        <ele>1648.0899999999999</ele>
        <time>2019-05-22T07:18:04Z</time>
      </trkpt>
      <trkpt lat="44.658310292288661" lon="9.205881720408797">
        <ele>1648.0599999999999</ele>
        <time>2019-05-22T07:18:22Z</time>
      </trkpt>
      <trkpt lat="44.658230999484658" lon="9.205761440098286">
        <ele>1649.4400000000001</ele>
        <time>2019-05-22T07:18:38Z</time>
      </trkpt>
      <trkpt lat="44.658192610368133" lon="9.205711903050542">
        <ele>1649.27</ele>
        <time>2019-05-22T07:18:44Z</time>
      </trkpt>
      <trkpt lat="44.658159501850605" lon="9.20567418448627">
        <ele>1648.6400000000001</ele>
        <time>2019-05-22T07:18:49Z</time>
      </trkpt>
      <trkpt lat="44.65811574831605" lon="9.205624563619494">
        <ele>1649.71</ele>
        <time>2019-05-22T07:19:00Z</time>
      </trkpt>
      <trkpt lat="44.658100660890341" lon="9.205610984936357">
        <ele>1650.4200000000001</ele>
        <time>2019-05-22T07:19:02Z</time>
      </trkpt>
      <trkpt lat="44.658063529059291" lon="9.20558181591332">
        <ele>1650.0899999999999</ele>
        <time>2019-05-22T07:19:15Z</time>
      </trkpt>
      <trkpt lat="44.657933106645942" lon="9.20548508875072">
        <ele>1651.47</ele>
        <time>2019-05-22T07:19:31Z</time>
      </trkpt>
      <trkpt lat="44.657833864912391" lon="9.205395486205816">
        <ele>1651.7</ele>
        <time>2019-05-22T07:19:46Z</time>
      </trkpt>
      <trkpt lat="44.65780452825129" lon="9.205383835360408">
        <ele>1651.3599999999999</ele>
        <time>2019-05-22T07:20:03Z</time>
      </trkpt>
      <trkpt lat="44.657755577936769" lon="9.205346535891295">
        <ele>1650.99</ele>
        <time>2019-05-22T07:20:09Z</time>
      </trkpt>
      <trkpt lat="44.657610487192869" lon="9.20528082177043">
        <ele>1650.8099999999999</ele>
        <time>2019-05-22T07:20:25Z</time>
      </trkpt>
      <trkpt lat="44.657462295144796" lon="9.205204881727696">
        <ele>1650.8199999999999</ele>
        <time>2019-05-22T07:20:41Z</time>
      </trkpt>
      <trkpt lat="44.657366070896387" lon="9.205158362165093">
        <ele>1650.0999999999999</ele>
        <time>2019-05-22T07:20:55Z</time>
      </trkpt>
      <trkpt lat="44.657358694821596" lon="9.205146878957748">
        <ele>1650.3299999999999</ele>
        <time>2019-05-22T07:21:13Z</time>
      </trkpt>
      <trkpt lat="44.657349893823266" lon="9.205143610015512">
        <ele>1650.47</ele>
        <time>2019-05-22T07:21:14Z</time>
      </trkpt>
      <trkpt lat="44.657294657081366" lon="9.205113602802157">
        <ele>1650.5</ele>
        <time>2019-05-22T07:21:20Z</time>
      </trkpt>
      <trkpt lat="44.657160798087716" lon="9.205071274191141">
        <ele>1649.79</ele>
        <time>2019-05-22T07:21:33Z</time>
      </trkpt>
      <trkpt lat="44.656997015699744" lon="9.205055264756084">
        <ele>1650.0799999999999</ele>
        <time>2019-05-22T07:21:49Z</time>
      </trkpt>
      <trkpt lat="44.6568697784096" lon="9.205018552020192">
        <ele>1650.5999999999999</ele>
        <time>2019-05-22T07:22:02Z</time>
      </trkpt>
      <trkpt lat="44.656698871403933" lon="9.20497102662921">
        <ele>1651.52</ele>
        <time>2019-05-22T07:22:20Z</time>
      </trkpt>
      <trkpt lat="44.656536681577563" lon="9.204924842342734">
        <ele>1652.26</ele>
        <time>2019-05-22T07:22:37Z</time>
      </trkpt>
      <trkpt lat="44.656412964686751" lon="9.2048679292202">
        <ele>1652.8199999999999</ele>
        <time>2019-05-22T07:22:51Z</time>
      </trkpt>
      <trkpt lat="44.656281704083085" lon="9.204800287261605">
        <ele>1653.79</ele>
        <time>2019-05-22T07:23:07Z</time>
      </trkpt>
      <trkpt lat="44.656153712421656" lon="9.204746475443244">
        <ele>1655.52</ele>
        <time>2019-05-22T07:23:23Z</time>
      </trkpt>
      <trkpt lat="44.656019769608974" lon="9.204697860404849">
        <ele>1657.45</ele>
        <time>2019-05-22T07:23:40Z</time>
      </trkpt>
      <trkpt lat="44.655974172055721" lon="9.204680677503347">
        <ele>1657.8</ele>
        <time>2019-05-22T07:23:50Z</time>
      </trkpt>
      <trkpt lat="44.655812485143542" lon="9.204668775200844">
        <ele>1658.99</ele>
        <time>2019-05-22T07:24:07Z</time>
      </trkpt>
      <trkpt lat="44.655682481825352" lon="9.204642456024885">
        <ele>1659.8900000000001</ele>
        <time>2019-05-22T07:24:23Z</time>
      </trkpt>
      <trkpt lat="44.655674686655402" lon="9.204637929797173">
        <ele>1659.5999999999999</ele>
        <time>2019-05-22T07:24:33Z</time>
      </trkpt>
      <trkpt lat="44.655556418001652" lon="9.204635247588158">
        <ele>1658.46</ele>
        <time>2019-05-22T07:24:47Z</time>
      </trkpt>
      <trkpt lat="44.655548958107829" lon="9.204638013616204">
        <ele>1658.5599999999999</ele>
        <time>2019-05-22T07:24:51Z</time>
      </trkpt>
      <trkpt lat="44.655477795749903" lon="9.204648155719042">
        <ele>1657.5599999999999</ele>
        <time>2019-05-22T07:25:02Z</time>
      </trkpt>
      <trkpt lat="44.65541074052453" lon="9.204650335013866">
        <ele>1656.51</ele>
        <time>2019-05-22T07:25:08Z</time>
      </trkpt>
      <trkpt lat="44.655372435227036" lon="9.204630637541413">
        <ele>1655.3399999999999</ele>
        <time>2019-05-22T07:25:12Z</time>
      </trkpt>
      <trkpt lat="44.655273864045739" lon="9.204600378870964">
        <ele>1652.79</ele>
        <time>2019-05-22T07:25:23Z</time>
      </trkpt>
      <trkpt lat="44.655243270099163" lon="9.204589314758778">
        <ele>1652.04</ele>
        <time>2019-05-22T07:25:26Z</time>
      </trkpt>
      <trkpt lat="44.655110836029053" lon="9.204531647264957">
        <ele>1648.7</ele>
        <time>2019-05-22T07:25:39Z</time>
      </trkpt>
      <trkpt lat="44.655062388628721" lon="9.204499879851937">
        <ele>1647.8299999999999</ele>
        <time>2019-05-22T07:25:44Z</time>
      </trkpt>
      <trkpt lat="44.654896594583988" lon="9.204432740807533">
        <ele>1645.0899999999999</ele>
        <time>2019-05-22T07:26:00Z</time>
      </trkpt>
      <trkpt lat="44.654723005369306" lon="9.204345485195518">
        <ele>1643.6199999999999</ele>
        <time>2019-05-22T07:26:16Z</time>
      </trkpt>
      <trkpt lat="44.654556289315224" lon="9.204220427200198">
        <ele>1643.3699999999999</ele>
        <time>2019-05-22T07:26:33Z</time>
      </trkpt>
      <trkpt lat="44.654447911307216" lon="9.204145912081003">
        <ele>1645.48</ele>
        <time>2019-05-22T07:26:48Z</time>
      </trkpt>
      <trkpt lat="44.654336431995034" lon="9.204119928181171">
        <ele>1648.1900000000001</ele>
        <time>2019-05-22T07:27:05Z</time>
      </trkpt>
      <trkpt lat="44.654261246323586" lon="9.204099560156465">
        <ele>1650.8800000000001</ele>
        <time>2019-05-22T07:27:19Z</time>
      </trkpt>
      <trkpt lat="44.654216235503554" lon="9.204042814671993">
        <ele>1653.96</ele>
        <time>2019-05-22T07:27:32Z</time>
      </trkpt>
      <trkpt lat="44.654156137257814" lon="9.203986991196871">
        <ele>1656.55</ele>
        <time>2019-05-22T07:27:46Z</time>
      </trkpt>
      <trkpt lat="44.654071731492877" lon="9.203895963728428">
        <ele>1658.77</ele>
        <time>2019-05-22T07:28:05Z</time>
      </trkpt>
      <trkpt lat="44.654005514457822" lon="9.203840726986527">
        <ele>1661.1900000000001</ele>
        <time>2019-05-22T07:28:21Z</time>
      </trkpt>
      <trkpt lat="44.653947427868843" lon="9.203799739480019">
        <ele>1663.29</ele>
        <time>2019-05-22T07:28:34Z</time>
      </trkpt>
      <trkpt lat="44.653906105086207" lon="9.203762440010905">
        <ele>1664.6400000000001</ele>
        <time>2019-05-22T07:28:47Z</time>
      </trkpt>
      <trkpt lat="44.653900153934956" lon="9.20375531539321">
        <ele>1664.4000000000001</ele>
        <time>2019-05-22T07:29:03Z</time>
      </trkpt>
      <trkpt lat="44.653906272724271" lon="9.203749448060989">
        <ele>1664.8900000000001</ele>
        <time>2019-05-22T07:29:26Z</time>
      </trkpt>
      <trkpt lat="44.653872326016426" lon="9.203706113621593">
        <ele>1665.0899999999999</ele>
        <time>2019-05-22T07:29:39Z</time>
      </trkpt>
      <trkpt lat="44.653867548331618" lon="9.203708041459322">
        <ele>1665.3699999999999</ele>
        <time>2019-05-22T07:29:57Z</time>
      </trkpt>
      <trkpt lat="44.653866291046143" lon="9.203709550201893">
        <ele>1665.28</ele>
        <time>2019-05-22T07:30:26Z</time>
      </trkpt>
      <trkpt lat="44.653847683221102" lon="9.203690523281694">
        <ele>1665.3599999999999</ele>
        <time>2019-05-22T07:30:32Z</time>
      </trkpt>
      <trkpt lat="44.653738886117935" lon="9.20353009365499">
        <ele>1664.51</ele>
        <time>2019-05-22T07:30:48Z</time>
      </trkpt>
      <trkpt lat="44.653618773445487" lon="9.203315852209926">
        <ele>1664.29</ele>
        <time>2019-05-22T07:31:07Z</time>
      </trkpt>
      <trkpt lat="44.653530092909932" lon="9.20315332710743">
        <ele>1666.21</ele>
        <time>2019-05-22T07:31:24Z</time>
      </trkpt>
      <trkpt lat="44.653467731550336" lon="9.203011505305767">
        <ele>1668.23</ele>
        <time>2019-05-22T07:31:39Z</time>
      </trkpt>
      <trkpt lat="44.653389863669872" lon="9.20280933380127">
        <ele>1670.1900000000001</ele>
        <time>2019-05-22T07:31:57Z</time>
      </trkpt>
      <trkpt lat="44.653295483440161" lon="9.202589811757207">
        <ele>1669.9300000000001</ele>
        <time>2019-05-22T07:32:14Z</time>
      </trkpt>
      <trkpt lat="44.653195654973388" lon="9.202379761263728">
        <ele>1670.04</ele>
        <time>2019-05-22T07:32:32Z</time>
      </trkpt>
      <trkpt lat="44.65309557504952" lon="9.202175661921501">
        <ele>1667.5999999999999</ele>
        <time>2019-05-22T07:32:49Z</time>
      </trkpt>
      <trkpt lat="44.65298468247056" lon="9.201958402991295">
        <ele>1664.6600000000001</ele>
        <time>2019-05-22T07:33:07Z</time>
      </trkpt>
      <trkpt lat="44.652868090197444" lon="9.201740389689803">
        <ele>1662.1199999999999</ele>
        <time>2019-05-22T07:33:25Z</time>
      </trkpt>
      <trkpt lat="44.652777062729001" lon="9.201569566503167">
        <ele>1658.99</ele>
        <time>2019-05-22T07:33:41Z</time>
      </trkpt>
      <trkpt lat="44.652718892320991" lon="9.201509384438396">
        <ele>1655.5799999999999</ele>
        <time>2019-05-22T07:33:52Z</time>
      </trkpt>
      <trkpt lat="44.652661392465234" lon="9.201429253444076">
        <ele>1652.51</ele>
        <time>2019-05-22T07:34:03Z</time>
      </trkpt>
      <trkpt lat="44.652565000578761" lon="9.201373513787985">
        <ele>1649.5899999999999</ele>
        <time>2019-05-22T07:34:16Z</time>
      </trkpt>
      <trkpt lat="44.652459723874927" lon="9.201337303966284">
        <ele>1646.5</ele>
        <time>2019-05-22T07:34:29Z</time>
      </trkpt>
      <trkpt lat="44.652369702234864" lon="9.201307967305183">
        <ele>1643.3299999999999</ele>
        <time>2019-05-22T07:34:41Z</time>
      </trkpt>
      <trkpt lat="44.652349334210157" lon="9.201299920678139">
        <ele>1642.0899999999999</ele>
        <time>2019-05-22T07:34:44Z</time>
      </trkpt>
      <trkpt lat="44.652240956202149" lon="9.201250886544585">
        <ele>1639.01</ele>
        <time>2019-05-22T07:34:58Z</time>
      </trkpt>
      <trkpt lat="44.65213006362319" lon="9.201216269284487">
        <ele>1635.76</ele>
        <time>2019-05-22T07:35:11Z</time>
      </trkpt>
      <trkpt lat="44.652000814676285" lon="9.20119590125978">
        <ele>1632.6500000000001</ele>
        <time>2019-05-22T07:35:26Z</time>
      </trkpt>
      <trkpt lat="44.651982458308339" lon="9.20119246467948">
        <ele>1632.27</ele>
        <time>2019-05-22T07:35:28Z</time>
      </trkpt>
      <trkpt lat="44.651844324544072" lon="9.201160026714206">
        <ele>1628.97</ele>
        <time>2019-05-22T07:35:43Z</time>
      </trkpt>
      <trkpt lat="44.651730163022876" lon="9.201102610677481">
        <ele>1626.29</ele>
        <time>2019-05-22T07:35:57Z</time>
      </trkpt>
      <trkpt lat="44.651691606268287" lon="9.201072100549936">
        <ele>1624.95</ele>
        <time>2019-05-22T07:36:02Z</time>
      </trkpt>
      <trkpt lat="44.651626395061612" lon="9.200997417792678">
        <ele>1622.52</ele>
        <time>2019-05-22T07:36:12Z</time>
      </trkpt>
      <trkpt lat="44.65145724825561" lon="9.200906390324235">
        <ele>1620.0799999999999</ele>
        <time>2019-05-22T07:36:29Z</time>
      </trkpt>
      <trkpt lat="44.651292124763131" lon="9.200838748365641">
        <ele>1619.72</ele>
        <time>2019-05-22T07:36:46Z</time>
      </trkpt>
      <trkpt lat="44.651184501126409" lon="9.200782924890518">
        <ele>1619.76</ele>
        <time>2019-05-22T07:36:59Z</time>
      </trkpt>
      <trkpt lat="44.651165641844273" lon="9.200785774737597">
        <ele>1619.8299999999999</ele>
        <time>2019-05-22T07:37:01Z</time>
      </trkpt>
      <trkpt lat="44.651129096746445" lon="9.20077814720571">
        <ele>1620.1500000000001</ele>
        <time>2019-05-22T07:37:05Z</time>
      </trkpt>
      <trkpt lat="44.650983167812228" lon="9.200638504698873">
        <ele>1620.98</ele>
        <time>2019-05-22T07:37:23Z</time>
      </trkpt>
      <trkpt lat="44.650891553610563" lon="9.200520236045122">
        <ele>1623.05</ele>
        <time>2019-05-22T07:37:38Z</time>
      </trkpt>
      <trkpt lat="44.650817038491368" lon="9.200403476133943">
        <ele>1624.51</ele>
        <time>2019-05-22T07:37:52Z</time>
      </trkpt>
      <trkpt lat="44.650737158954144" lon="9.200223684310913">
        <ele>1626.0899999999999</ele>
        <time>2019-05-22T07:38:11Z</time>
      </trkpt>
      <trkpt lat="44.650678234174848" lon="9.200067277997732">
        <ele>1628.3</ele>
        <time>2019-05-22T07:38:28Z</time>
      </trkpt>
      <trkpt lat="44.650613442063332" lon="9.199913889169693">
        <ele>1630.05</ele>
        <time>2019-05-22T07:38:45Z</time>
      </trkpt>
      <trkpt lat="44.650554349645972" lon="9.199782125651836">
        <ele>1631.77</ele>
        <time>2019-05-22T07:39:00Z</time>
      </trkpt>
      <trkpt lat="44.650475643575191" lon="9.199648182839155">
        <ele>1633.76</ele>
        <time>2019-05-22T07:39:17Z</time>
      </trkpt>
      <trkpt lat="44.650374809280038" lon="9.199560256674886">
        <ele>1636.3599999999999</ele>
        <time>2019-05-22T07:39:34Z</time>
      </trkpt>
      <trkpt lat="44.650286128744483" lon="9.19947300106287">
        <ele>1638.78</ele>
        <time>2019-05-22T07:39:50Z</time>
      </trkpt>
      <trkpt lat="44.650208512321115" lon="9.19941047206521">
        <ele>1641.4000000000001</ele>
        <time>2019-05-22T07:40:06Z</time>
      </trkpt>
      <trkpt lat="44.650148833170533" lon="9.199333693832159">
        <ele>1644.1400000000001</ele>
        <time>2019-05-22T07:40:21Z</time>
      </trkpt>
      <trkpt lat="44.650087812915444" lon="9.199254903942347">
        <ele>1647.26</ele>
        <time>2019-05-22T07:40:37Z</time>
      </trkpt>
      <trkpt lat="44.650028049945831" lon="9.199183657765389">
        <ele>1649.5799999999999</ele>
        <time>2019-05-22T07:40:52Z</time>
      </trkpt>
      <trkpt lat="44.649971555918455" lon="9.199116853997111">
        <ele>1652.05</ele>
        <time>2019-05-22T07:41:06Z</time>
      </trkpt>
      <trkpt lat="44.649899723008275" lon="9.199066311120987">
        <ele>1653.5799999999999</ele>
        <time>2019-05-22T07:41:18Z</time>
      </trkpt>
      <trkpt lat="44.649866027757525" lon="9.199043596163392">
        <ele>1654.21</ele>
        <time>2019-05-22T07:41:30Z</time>
      </trkpt>
      <trkpt lat="44.649854796007276" lon="9.199028592556715">
        <ele>1654.78</ele>
        <time>2019-05-22T07:42:00Z</time>
      </trkpt>
      <trkpt lat="44.649855466559529" lon="9.199022892862558">
        <ele>1654.72</ele>
        <time>2019-05-22T07:42:22Z</time>
      </trkpt>
      <trkpt lat="44.649815233424306" lon="9.198990454897285">
        <ele>1654.5599999999999</ele>
        <time>2019-05-22T07:42:38Z</time>
      </trkpt>
      <trkpt lat="44.649791093543172" lon="9.198952568694949">
        <ele>1655.3199999999999</ele>
        <time>2019-05-22T07:42:50Z</time>
      </trkpt>
      <trkpt lat="44.649794697761536" lon="9.198949383571744">
        <ele>1653.6300000000001</ele>
        <time>2019-05-22T07:43:15Z</time>
      </trkpt>
      <trkpt lat="44.649797212332487" lon="9.198956592008472">
        <ele>1653.8599999999999</ele>
        <time>2019-05-22T07:54:07Z</time>
      </trkpt>
      <trkpt lat="44.649749184027314" lon="9.198913592845202">
        <ele>1653.0999999999999</ele>
        <time>2019-05-22T07:54:22Z</time>
      </trkpt>
      <trkpt lat="44.649638794362545" lon="9.198837401345372">
        <ele>1650.04</ele>
        <time>2019-05-22T07:54:35Z</time>
      </trkpt>
      <trkpt lat="44.649549024179578" lon="9.198841257020831">
        <ele>1646.8800000000001</ele>
        <time>2019-05-22T07:54:46Z</time>
      </trkpt>
      <trkpt lat="44.64948758482933" lon="9.198912922292948">
        <ele>1643.6400000000001</ele>
        <time>2019-05-22T07:54:57Z</time>
      </trkpt>
      <trkpt lat="44.649413153529167" lon="9.198975702747703">
        <ele>1640.52</ele>
        <time>2019-05-22T07:55:08Z</time>
      </trkpt>
      <trkpt lat="44.649377278983593" lon="9.199008475989103">
        <ele>1638.79</ele>
        <time>2019-05-22T07:55:21Z</time>
      </trkpt>
      <trkpt lat="44.649370405822992" lon="9.199021216481924">
        <ele>1638.4000000000001</ele>
        <time>2019-05-22T07:55:23Z</time>
      </trkpt>
      <trkpt lat="44.649313576519489" lon="9.199078213423491">
        <ele>1635.6099999999999</ele>
        <time>2019-05-22T07:55:31Z</time>
      </trkpt>
      <trkpt lat="44.649226907640696" lon="9.19910604134202">
        <ele>1632.3599999999999</ele>
        <time>2019-05-22T07:55:42Z</time>
      </trkpt>
      <trkpt lat="44.649189608171582" lon="9.199109729379416">
        <ele>1630.8800000000001</ele>
        <time>2019-05-22T07:55:47Z</time>
      </trkpt>
      <trkpt lat="44.649093132466078" lon="9.199114590883255">
        <ele>1627.52</ele>
        <time>2019-05-22T07:55:58Z</time>
      </trkpt>
      <trkpt lat="44.649011911824346" lon="9.199115009978414">
        <ele>1624.3699999999999</ele>
        <time>2019-05-22T07:56:07Z</time>
      </trkpt>
      <trkpt lat="44.648955836892128" lon="9.19911534525454">
        <ele>1622.8599999999999</ele>
        <time>2019-05-22T07:56:13Z</time>
      </trkpt>
      <trkpt lat="44.648818038403988" lon="9.199062120169401">
        <ele>1619.27</ele>
        <time>2019-05-22T07:56:27Z</time>
      </trkpt>
      <trkpt lat="44.648712007328868" lon="9.19905767776072">
        <ele>1616.23</ele>
        <time>2019-05-22T07:56:38Z</time>
      </trkpt>
      <trkpt lat="44.648636067286134" lon="9.199002189561725">
        <ele>1614.5599999999999</ele>
        <time>2019-05-22T07:56:46Z</time>
      </trkpt>
      <trkpt lat="44.648570939898491" lon="9.198984755203128">
        <ele>1613.3699999999999</ele>
        <time>2019-05-22T07:56:57Z</time>
      </trkpt>
      <trkpt lat="44.648540345951915" lon="9.198969667777419">
        <ele>1612.79</ele>
        <time>2019-05-22T07:57:00Z</time>
      </trkpt>
      <trkpt lat="44.648418892174959" lon="9.198924405500293">
        <ele>1609.52</ele>
        <time>2019-05-22T07:57:13Z</time>
      </trkpt>
      <trkpt lat="44.648309256881475" lon="9.198866486549377">
        <ele>1606.4000000000001</ele>
        <time>2019-05-22T07:57:25Z</time>
      </trkpt>
      <trkpt lat="44.648162489756942" lon="9.198805885389447">
        <ele>1603.23</ele>
        <time>2019-05-22T07:57:38Z</time>
      </trkpt>
      <trkpt lat="44.647936848923564" lon="9.198748050257564">
        <ele>1601.04</ele>
        <time>2019-05-22T07:57:56Z</time>
      </trkpt>
      <trkpt lat="44.647794105112553" lon="9.198721311986446">
        <ele>1599.55</ele>
        <time>2019-05-22T07:58:08Z</time>
      </trkpt>
      <trkpt lat="44.647597633302212" lon="9.198637828230858">
        <ele>1597.27</ele>
        <time>2019-05-22T07:58:24Z</time>
      </trkpt>
      <trkpt lat="44.647432006895542" lon="9.198574209585786">
        <ele>1595.54</ele>
        <time>2019-05-22T07:58:38Z</time>
      </trkpt>
      <trkpt lat="44.647249616682529" lon="9.198536239564419">
        <ele>1593.49</ele>
        <time>2019-05-22T07:58:53Z</time>
      </trkpt>
      <trkpt lat="44.647066220641136" lon="9.198475554585457">
        <ele>1591.8199999999999</ele>
        <time>2019-05-22T07:59:08Z</time>
      </trkpt>
      <trkpt lat="44.646919956430793" lon="9.198492066934705">
        <ele>1590.1800000000001</ele>
        <time>2019-05-22T07:59:20Z</time>
      </trkpt>
      <trkpt lat="44.646782660856843" lon="9.198555769398809">
        <ele>1588.75</ele>
        <time>2019-05-22T07:59:33Z</time>
      </trkpt>
      <trkpt lat="44.646642515435815" lon="9.198595834895968">
        <ele>1586.0699999999999</ele>
        <time>2019-05-22T07:59:46Z</time>
      </trkpt>
      <trkpt lat="44.646486947312951" lon="9.198699435219169">
        <ele>1583.9300000000001</ele>
        <time>2019-05-22T08:00:00Z</time>
      </trkpt>
      <trkpt lat="44.646270275115967" lon="9.198864977806807">
        <ele>1581.9000000000001</ele>
        <time>2019-05-22T08:00:20Z</time>
      </trkpt>
      <trkpt lat="44.64607304893434" lon="9.199014930054545">
        <ele>1580.21</ele>
        <time>2019-05-22T08:00:38Z</time>
      </trkpt>
      <trkpt lat="44.645916894078255" lon="9.199133198708296">
        <ele>1580.6199999999999</ele>
        <time>2019-05-22T08:00:54Z</time>
      </trkpt>
      <trkpt lat="44.645752441138029" lon="9.199253227561712">
        <ele>1580.1400000000001</ele>
        <time>2019-05-22T08:01:10Z</time>
      </trkpt>
      <trkpt lat="44.645595028996468" lon="9.19936059974134">
        <ele>1577.8699999999999</ele>
        <time>2019-05-22T08:01:25Z</time>
      </trkpt>
      <trkpt lat="44.645469719544053" lon="9.199419189244509">
        <ele>1574.53</ele>
        <time>2019-05-22T08:01:37Z</time>
      </trkpt>
      <trkpt lat="44.645385816693306" lon="9.19944416731596">
        <ele>1571.53</ele>
        <time>2019-05-22T08:01:45Z</time>
      </trkpt>
      <trkpt lat="44.645268805325031" lon="9.199481885880232">
        <ele>1568.48</ele>
        <time>2019-05-22T08:01:56Z</time>
      </trkpt>
      <trkpt lat="44.645158667117357" lon="9.199497643858194">
        <ele>1565.45</ele>
        <time>2019-05-22T08:02:09Z</time>
      </trkpt>
      <trkpt lat="44.645077027380466" lon="9.199505103752017">
        <ele>1562.0699999999999</ele>
        <time>2019-05-22T08:02:18Z</time>
      </trkpt>
      <trkpt lat="44.645005110651255" lon="9.19951792806387">
        <ele>1558.95</ele>
        <time>2019-05-22T08:02:26Z</time>
      </trkpt>
      <trkpt lat="44.644977618008852" lon="9.199521280825138">
        <ele>1558.01</ele>
        <time>2019-05-22T08:02:29Z</time>
      </trkpt>
      <trkpt lat="44.644939312711358" lon="9.199493452906609">
        <ele>1556.8599999999999</ele>
        <time>2019-05-22T08:02:33Z</time>
      </trkpt>
      <trkpt lat="44.644832024350762" lon="9.199504433199763">
        <ele>1553.3499999999999</ele>
        <time>2019-05-22T08:02:44Z</time>
      </trkpt>
      <trkpt lat="44.644773937761784" lon="9.199506277218461">
        <ele>1551.01</ele>
        <time>2019-05-22T08:02:50Z</time>
      </trkpt>
      <trkpt lat="44.644673187285662" lon="9.19953066855669">
        <ele>1547.27</ele>
        <time>2019-05-22T08:03:01Z</time>
      </trkpt>
      <trkpt lat="44.644589954987168" lon="9.199533015489578">
        <ele>1544.21</ele>
        <time>2019-05-22T08:03:10Z</time>
      </trkpt>
      <trkpt lat="44.644542597234249" lon="9.199528573080897">
        <ele>1542.23</ele>
        <time>2019-05-22T08:03:15Z</time>
      </trkpt>
      <trkpt lat="44.644447797909379" lon="9.199512479826808">
        <ele>1539.03</ele>
        <time>2019-05-22T08:03:26Z</time>
      </trkpt>
      <trkpt lat="44.644377892836928" lon="9.199492698535323">
        <ele>1535.9000000000001</ele>
        <time>2019-05-22T08:03:36Z</time>
      </trkpt>
      <trkpt lat="44.644288374111056" lon="9.199475599452853">
        <ele>1532.5899999999999</ele>
        <time>2019-05-22T08:03:48Z</time>
      </trkpt>
      <trkpt lat="44.644210422411561" lon="9.199491608887911">
        <ele>1529.3199999999999</ele>
        <time>2019-05-22T08:03:59Z</time>
      </trkpt>
      <trkpt lat="44.644113862887025" lon="9.199486328288913">
        <ele>1526.1099999999999</ele>
        <time>2019-05-22T08:04:11Z</time>
      </trkpt>
      <trkpt lat="44.644055021926761" lon="9.199465708807111">
        <ele>1523.76</ele>
        <time>2019-05-22T08:04:18Z</time>
      </trkpt>
      <trkpt lat="44.64392845518887" lon="9.199425224214792">
        <ele>1520.23</ele>
        <time>2019-05-22T08:04:31Z</time>
      </trkpt>
      <trkpt lat="44.643812784925103" lon="9.199417093768716">
        <ele>1518.0999999999999</ele>
        <time>2019-05-22T08:04:42Z</time>
      </trkpt>
      <trkpt lat="44.643758805468678" lon="9.19936453923583">
        <ele>1517.3199999999999</ele>
        <time>2019-05-22T08:04:48Z</time>
      </trkpt>
      <trkpt lat="44.643693091347814" lon="9.199334532022476">
        <ele>1516.1600000000001</ele>
        <time>2019-05-22T08:04:55Z</time>
      </trkpt>
      <trkpt lat="44.643572978675365" lon="9.19929857365787">
        <ele>1513.02</ele>
        <time>2019-05-22T08:05:09Z</time>
      </trkpt>
      <trkpt lat="44.643492428585887" lon="9.199305027723312">
        <ele>1510.6099999999999</ele>
        <time>2019-05-22T08:05:20Z</time>
      </trkpt>
      <trkpt lat="44.643399138003588" lon="9.199310811236501">
        <ele>1508.1900000000001</ele>
        <time>2019-05-22T08:05:33Z</time>
      </trkpt>
      <trkpt lat="44.64333669282496" lon="9.199315337464213">
        <ele>1507.4000000000001</ele>
        <time>2019-05-22T08:05:39Z</time>
      </trkpt>
      <trkpt lat="44.64315983466804" lon="9.199382476508617">
        <ele>1504.5799999999999</ele>
        <time>2019-05-22T08:05:54Z</time>
      </trkpt>
      <trkpt lat="44.643082050606608" lon="9.199397144839168">
        <ele>1502.3900000000001</ele>
        <time>2019-05-22T08:06:01Z</time>
      </trkpt>
      <trkpt lat="44.642902845516801" lon="9.199457745999098">
        <ele>1499.45</ele>
        <time>2019-05-22T08:06:17Z</time>
      </trkpt>
      <trkpt lat="44.642760772258043" lon="9.199427906423807">
        <ele>1496.3399999999999</ele>
        <time>2019-05-22T08:06:31Z</time>
      </trkpt>
      <trkpt lat="44.64267116971314" lon="9.199412148445845">
        <ele>1494.04</ele>
        <time>2019-05-22T08:06:44Z</time>
      </trkpt>
      <trkpt lat="44.64265113696456" lon="9.199409382417798">
        <ele>1493.5699999999999</ele>
        <time>2019-05-22T08:06:58Z</time>
      </trkpt>
      <trkpt lat="44.642651472240686" lon="9.199405442923307">
        <ele>1493.4300000000001</ele>
        <time>2019-05-22T08:07:18Z</time>
      </trkpt>
      <trkpt lat="44.642626577988267" lon="9.199404353275895">
        <ele>1493.1199999999999</ele>
        <time>2019-05-22T08:07:33Z</time>
      </trkpt>
      <trkpt lat="44.64260964654386" lon="9.199400749057531">
        <ele>1492.77</ele>
        <time>2019-05-22T08:07:36Z</time>
      </trkpt>
      <trkpt lat="44.642430525273085" lon="9.199325395748019">
        <ele>1489.47</ele>
        <time>2019-05-22T08:07:53Z</time>
      </trkpt>
      <trkpt lat="44.642389789223671" lon="9.199312990531325">
        <ele>1488.8900000000001</ele>
        <time>2019-05-22T08:08:03Z</time>
      </trkpt>
      <trkpt lat="44.642336731776595" lon="9.199280552566052">
        <ele>1488.5799999999999</ele>
        <time>2019-05-22T08:08:08Z</time>
      </trkpt>
      <trkpt lat="44.642210081219673" lon="9.19922573491931">
        <ele>1487.3499999999999</ele>
        <time>2019-05-22T08:08:20Z</time>
      </trkpt>
      <trkpt lat="44.642054764553905" lon="9.199137054383755">
        <ele>1485.4000000000001</ele>
        <time>2019-05-22T08:08:35Z</time>
      </trkpt>
      <trkpt lat="44.641991900280118" lon="9.19910654425621">
        <ele>1485.52</ele>
        <time>2019-05-22T08:10:07Z</time>
      </trkpt>
      <trkpt lat="44.641991732642055" lon="9.19909430667758">
        <ele>1485.71</ele>
        <time>2019-05-22T08:10:34Z</time>
      </trkpt>
      <trkpt lat="44.641989804804325" lon="9.199098497629166">
        <ele>1486.3199999999999</ele>
        <time>2019-05-22T08:10:41Z</time>
      </trkpt>
      <trkpt lat="44.641979327425361" lon="9.199076034128666">
        <ele>1486.0699999999999</ele>
        <time>2019-05-22T08:11:00Z</time>
      </trkpt>
      <trkpt lat="44.641938591375947" lon="9.199033454060555">
        <ele>1485.79</ele>
        <time>2019-05-22T08:11:12Z</time>
      </trkpt>
      <trkpt lat="44.641905147582293" lon="9.19904544018209">
        <ele>1485.97</ele>
        <time>2019-05-22T08:11:17Z</time>
      </trkpt>
      <trkpt lat="44.641826022416353" lon="9.199069831520319">
        <ele>1485.1199999999999</ele>
        <time>2019-05-22T08:11:27Z</time>
      </trkpt>
      <trkpt lat="44.64173692278564" lon="9.199055079370737">
        <ele>1483.1800000000001</ele>
        <time>2019-05-22T08:11:38Z</time>
      </trkpt>
      <trkpt lat="44.641680177301168" lon="9.199032951146364">
        <ele>1479.5599999999999</ele>
        <time>2019-05-22T08:11:46Z</time>
      </trkpt>
      <trkpt lat="44.641663916409016" lon="9.199028676375747">
        <ele>1483.1099999999999</ele>
        <time>2019-05-22T08:11:47Z</time>
      </trkpt>
      <trkpt lat="44.641553778201342" lon="9.199028760194778">
        <ele>1480.03</ele>
        <time>2019-05-22T08:11:58Z</time>
      </trkpt>
      <trkpt lat="44.641488986089826" lon="9.199031526222825">
        <ele>1478.6400000000001</ele>
        <time>2019-05-22T08:12:05Z</time>
      </trkpt>
      <trkpt lat="44.64136166498065" lon="9.198958352208138">
        <ele>1478.3099999999999</ele>
        <time>2019-05-22T08:12:18Z</time>
      </trkpt>
      <trkpt lat="44.641297962516546" lon="9.198934379965067">
        <ele>1478.47</ele>
        <time>2019-05-22T08:12:24Z</time>
      </trkpt>
      <trkpt lat="44.641199894249439" lon="9.198861457407475">
        <ele>1478.4100000000001</ele>
        <time>2019-05-22T08:12:36Z</time>
      </trkpt>
      <trkpt lat="44.641100065782666" lon="9.198799431324005">
        <ele>1478.6199999999999</ele>
        <time>2019-05-22T08:12:49Z</time>
      </trkpt>
      <trkpt lat="44.641014905646443" lon="9.198730448260903">
        <ele>1478.45</ele>
        <time>2019-05-22T08:13:03Z</time>
      </trkpt>
      <trkpt lat="44.640982886776328" lon="9.198728688061237">
        <ele>1477.8800000000001</ele>
        <time>2019-05-22T08:13:06Z</time>
      </trkpt>
      <trkpt lat="44.640851793810725" lon="9.198708739131689">
        <ele>1475.6199999999999</ele>
        <time>2019-05-22T08:13:20Z</time>
      </trkpt>
      <trkpt lat="44.640716258436441" lon="9.19867068529129">
        <ele>1473.6900000000001</ele>
        <time>2019-05-22T08:13:35Z</time>
      </trkpt>
      <trkpt lat="44.64062531478703" lon="9.198699602857232">
        <ele>1471.29</ele>
        <time>2019-05-22T08:13:51Z</time>
      </trkpt>
      <trkpt lat="44.640605868771672" lon="9.198693232610822">
        <ele>1471.1800000000001</ele>
        <time>2019-05-22T08:13:53Z</time>
      </trkpt>
      <trkpt lat="44.64050654321909" lon="9.198721060529351">
        <ele>1469.3299999999999</ele>
        <time>2019-05-22T08:14:03Z</time>
      </trkpt>
      <trkpt lat="44.640417443588376" lon="9.19874201528728">
        <ele>1467.5599999999999</ele>
        <time>2019-05-22T08:14:15Z</time>
      </trkpt>
      <trkpt lat="44.640306886285543" lon="9.198710415512323">
        <ele>1466.9400000000001</ele>
        <time>2019-05-22T08:14:27Z</time>
      </trkpt>
      <trkpt lat="44.640149725601077" lon="9.198719384148717">
        <ele>1467.05</ele>
        <time>2019-05-22T08:14:40Z</time>
      </trkpt>
      <trkpt lat="44.640018884092569" lon="9.198748301714659">
        <ele>1467.0599999999999</ele>
        <time>2019-05-22T08:14:53Z</time>
      </trkpt>
      <trkpt lat="44.639874212443829" lon="9.198780236765742">
        <ele>1465.5699999999999</ele>
        <time>2019-05-22T08:15:05Z</time>
      </trkpt>
      <trkpt lat="44.639750327914953" lon="9.198790462687612">
        <ele>1463.6700000000001</ele>
        <time>2019-05-22T08:15:18Z</time>
      </trkpt>
      <trkpt lat="44.639605572447181" lon="9.198761126026511">
        <ele>1461.49</ele>
        <time>2019-05-22T08:15:34Z</time>
      </trkpt>
      <trkpt lat="44.639505324885249" lon="9.198764143511653">
        <ele>1459.3499999999999</ele>
        <time>2019-05-22T08:15:46Z</time>
      </trkpt>
      <trkpt lat="44.639432737603784" lon="9.198734136298299">
        <ele>1458.8</ele>
        <time>2019-05-22T08:15:54Z</time>
      </trkpt>
      <trkpt lat="44.639295442029834" lon="9.198680995032191">
        <ele>1457.4100000000001</ele>
        <time>2019-05-22T08:16:06Z</time>
      </trkpt>
      <trkpt lat="44.639152027666569" lon="9.198678899556398">
        <ele>1457.1199999999999</ele>
        <time>2019-05-22T08:16:21Z</time>
      </trkpt>
      <trkpt lat="44.63899428024888" lon="9.198675462976098">
        <ele>1456.96</ele>
        <time>2019-05-22T08:16:35Z</time>
      </trkpt>
      <trkpt lat="44.638905096799135" lon="9.198673451319337">
        <ele>1456.8399999999999</ele>
        <time>2019-05-22T08:16:46Z</time>
      </trkpt>
      <trkpt lat="44.638770148158073" lon="9.198626261204481">
        <ele>1454.96</ele>
        <time>2019-05-22T08:17:01Z</time>
      </trkpt>
      <trkpt lat="44.63866981677711" lon="9.19858368113637">
        <ele>1454.72</ele>
        <time>2019-05-22T08:17:11Z</time>
      </trkpt>
      <trkpt lat="44.638549368828535" lon="9.198591141030192">
        <ele>1453.9400000000001</ele>
        <time>2019-05-22T08:17:22Z</time>
      </trkpt>
      <trkpt lat="44.638431603088975" lon="9.198571275919676">
        <ele>1452.55</ele>
        <time>2019-05-22T08:17:35Z</time>
      </trkpt>
      <trkpt lat="44.638249631971121" lon="9.198621986433864">
        <ele>1451.54</ele>
        <time>2019-05-22T08:17:50Z</time>
      </trkpt>
      <trkpt lat="44.638092555105686" lon="9.19868091121316">
        <ele>1451.1600000000001</ele>
        <time>2019-05-22T08:18:06Z</time>
      </trkpt>
      <trkpt lat="44.637964898720384" lon="9.198858691379428">
        <ele>1450.55</ele>
        <time>2019-05-22T08:18:20Z</time>
      </trkpt>
      <trkpt lat="44.637933047488332" lon="9.198879897594452">
        <ele>1450.3800000000001</ele>
        <time>2019-05-22T08:18:23Z</time>
      </trkpt>
      <trkpt lat="44.637801367789507" lon="9.198966817930341">
        <ele>1449.23</ele>
        <time>2019-05-22T08:18:34Z</time>
      </trkpt>
      <trkpt lat="44.637687709182501" lon="9.199081314727664">
        <ele>1448.95</ele>
        <time>2019-05-22T08:18:46Z</time>
      </trkpt>
      <trkpt lat="44.637507079169154" lon="9.199140407145023">
        <ele>1450.3</ele>
        <time>2019-05-22T08:19:03Z</time>
      </trkpt>
      <trkpt lat="44.637327203527093" lon="9.199154153466225">
        <ele>1451.3699999999999</ele>
        <time>2019-05-22T08:19:19Z</time>
      </trkpt>
      <trkpt lat="44.637224273756146" lon="9.199171587824822">
        <ele>1453.72</ele>
        <time>2019-05-22T08:19:35Z</time>
      </trkpt>
      <trkpt lat="44.637099802494049" lon="9.199174270033836">
        <ele>1455.5</ele>
        <time>2019-05-22T08:19:50Z</time>
      </trkpt>
      <trkpt lat="44.636997794732451" lon="9.199193380773068">
        <ele>1457.98</ele>
        <time>2019-05-22T08:20:04Z</time>
      </trkpt>
      <trkpt lat="44.636888243257999" lon="9.199299579486251">
        <ele>1460.5899999999999</ele>
        <time>2019-05-22T08:20:20Z</time>
      </trkpt>
      <trkpt lat="44.636754803359509" lon="9.199455818161368">
        <ele>1461.1700000000001</ele>
        <time>2019-05-22T08:20:34Z</time>
      </trkpt>
      <trkpt lat="44.63666494935751" lon="9.199529075995088">
        <ele>1463.3</ele>
        <time>2019-05-22T08:20:50Z</time>
      </trkpt>
      <trkpt lat="44.636598229408264" lon="9.199591856449843">
        <ele>1465.6600000000001</ele>
        <time>2019-05-22T08:21:05Z</time>
      </trkpt>
      <trkpt lat="44.636499909684062" lon="9.199609123170376">
        <ele>1468.1600000000001</ele>
        <time>2019-05-22T08:21:21Z</time>
      </trkpt>
      <trkpt lat="44.636535868048668" lon="9.199504097923636">
        <ele>1470.0699999999999</ele>
        <time>2019-05-22T08:21:38Z</time>
      </trkpt>
      <trkpt lat="44.636555397883058" lon="9.199390020221472">
        <ele>1472.25</ele>
        <time>2019-05-22T08:21:53Z</time>
      </trkpt>
      <trkpt lat="44.636573921889067" lon="9.199278121814132">
        <ele>1474.5699999999999</ele>
        <time>2019-05-22T08:22:09Z</time>
      </trkpt>
      <trkpt lat="44.636536119505763" lon="9.199196230620146">
        <ele>1476.96</ele>
        <time>2019-05-22T08:22:27Z</time>
      </trkpt>
      <trkpt lat="44.636505022644997" lon="9.199232188984752">
        <ele>1479.1099999999999</ele>
        <time>2019-05-22T08:22:40Z</time>
      </trkpt>
      <trkpt lat="44.636476021260023" lon="9.199292538687587">
        <ele>1481.4100000000001</ele>
        <time>2019-05-22T08:22:56Z</time>
      </trkpt>
      <trkpt lat="44.636453473940492" lon="9.199233278632164">
        <ele>1483.0999999999999</ele>
        <time>2019-05-22T08:23:11Z</time>
      </trkpt>
      <trkpt lat="44.636403936892748" lon="9.199187764897943">
        <ele>1485.4000000000001</ele>
        <time>2019-05-22T08:23:25Z</time>
      </trkpt>
      <trkpt lat="44.636321878060699" lon="9.199105789884925">
        <ele>1487.3499999999999</ele>
        <time>2019-05-22T08:23:41Z</time>
      </trkpt>
      <trkpt lat="44.63623353280127" lon="9.199024401605129">
        <ele>1489.6700000000001</ele>
        <time>2019-05-22T08:23:57Z</time>
      </trkpt>
      <trkpt lat="44.636146947741508" lon="9.198937732726336">
        <ele>1491.54</ele>
        <time>2019-05-22T08:24:11Z</time>
      </trkpt>
      <trkpt lat="44.636072097346187" lon="9.198871767148376">
        <ele>1493.23</ele>
        <time>2019-05-22T08:24:25Z</time>
      </trkpt>
      <trkpt lat="44.636001354083419" lon="9.198835976421833">
        <ele>1496.3499999999999</ele>
        <time>2019-05-22T08:24:41Z</time>
      </trkpt>
      <trkpt lat="44.635987356305122" lon="9.198843771591783">
        <ele>1496.71</ele>
        <time>2019-05-22T08:24:43Z</time>
      </trkpt>
      <trkpt lat="44.635963384062052" lon="9.198871767148376">
        <ele>1499.05</ele>
        <time>2019-05-22T08:24:57Z</time>
      </trkpt>
      <trkpt lat="44.635990373790264" lon="9.198985677212477">
        <ele>1501.01</ele>
        <time>2019-05-22T08:25:12Z</time>
      </trkpt>
      <trkpt lat="44.635967491194606" lon="9.199047451838851">
        <ele>1504.0899999999999</ele>
        <time>2019-05-22T08:25:28Z</time>
      </trkpt>
      <trkpt lat="44.635939998552203" lon="9.199162954464555">
        <ele>1506.29</ele>
        <time>2019-05-22T08:25:43Z</time>
      </trkpt>
      <trkpt lat="44.635876882821321" lon="9.199169995263219">
        <ele>1507.8199999999999</ele>
        <time>2019-05-22T08:26:00Z</time>
      </trkpt>
      <trkpt lat="44.635791890323162" lon="9.199175108224154">
        <ele>1509.4300000000001</ele>
        <time>2019-05-22T08:26:13Z</time>
      </trkpt>
      <trkpt lat="44.635738413780928" lon="9.199122553691268">
        <ele>1511.54</ele>
        <time>2019-05-22T08:26:28Z</time>
      </trkpt>
      <trkpt lat="44.635689212009311" lon="9.198992382735014">
        <ele>1514</ele>
        <time>2019-05-22T08:26:46Z</time>
      </trkpt>
      <trkpt lat="44.635620731860399" lon="9.198938654735684">
        <ele>1515.71</ele>
        <time>2019-05-22T08:27:00Z</time>
      </trkpt>
      <trkpt lat="44.63553867302835" lon="9.198858020827174">
        <ele>1517.5799999999999</ele>
        <time>2019-05-22T08:27:15Z</time>
      </trkpt>
      <trkpt lat="44.63544387370348" lon="9.198818206787109">
        <ele>1519.5999999999999</ele>
        <time>2019-05-22T08:27:33Z</time>
      </trkpt>
      <trkpt lat="44.635322503745556" lon="9.198736231774092">
        <ele>1521.54</ele>
        <time>2019-05-22T08:27:50Z</time>
      </trkpt>
      <trkpt lat="44.635186465457082" lon="9.198705554008484">
        <ele>1522.6300000000001</ele>
        <time>2019-05-22T08:28:08Z</time>
      </trkpt>
      <trkpt lat="44.635067358613014" lon="9.198666326701641">
        <ele>1523.8699999999999</ele>
        <time>2019-05-22T08:28:23Z</time>
      </trkpt>
      <trkpt lat="44.634968535974622" lon="9.198622154071927">
        <ele>1524.6199999999999</ele>
        <time>2019-05-22T08:28:36Z</time>
      </trkpt>
      <trkpt lat="44.63482528924942" lon="9.198560295626521">
        <ele>1525.78</ele>
        <time>2019-05-22T08:28:50Z</time>
      </trkpt>
      <trkpt lat="44.634698554873466" lon="9.198518386110663">
        <ele>1527.22</ele>
        <time>2019-05-22T08:29:05Z</time>
      </trkpt>
      <trkpt lat="44.634590009227395" lon="9.198505477979779">
        <ele>1529.1300000000001</ele>
        <time>2019-05-22T08:29:21Z</time>
      </trkpt>
      <trkpt lat="44.634509375318885" lon="9.198517631739378">
        <ele>1531.3800000000001</ele>
        <time>2019-05-22T08:29:34Z</time>
      </trkpt>
      <trkpt lat="44.634467717260122" lon="9.198535988107324">
        <ele>1531.9300000000001</ele>
        <time>2019-05-22T08:29:40Z</time>
      </trkpt>
      <trkpt lat="44.634392112493515" lon="9.19853875413537">
        <ele>1532.4400000000001</ele>
        <time>2019-05-22T08:29:56Z</time>
      </trkpt>
      <trkpt lat="44.63436059653759" lon="9.198520900681615">
        <ele>1532.0999999999999</ele>
        <time>2019-05-22T08:30:18Z</time>
      </trkpt>
      <trkpt lat="44.634351711720228" lon="9.198513105511665">
        <ele>1532.0599999999999</ele>
        <time>2019-05-22T08:30:40Z</time>
      </trkpt>
      <trkpt lat="44.63429412804544" lon="9.198550656437874">
        <ele>1533.1500000000001</ele>
        <time>2019-05-22T08:30:57Z</time>
      </trkpt>
      <trkpt lat="44.634181894361973" lon="9.198589129373431">
        <ele>1534.6800000000001</ele>
        <time>2019-05-22T08:31:11Z</time>
      </trkpt>
      <trkpt lat="44.63408743031323" lon="9.198565660044551">
        <ele>1533.3900000000001</ele>
        <time>2019-05-22T08:31:24Z</time>
      </trkpt>
      <trkpt lat="44.633943093940616" lon="9.198526432737708">
        <ele>1534.48</ele>
        <time>2019-05-22T08:31:38Z</time>
      </trkpt>
      <trkpt lat="44.633810659870505" lon="9.198470190167427">
        <ele>1536.76</ele>
        <time>2019-05-22T08:31:53Z</time>
      </trkpt>
      <trkpt lat="44.633697336539626" lon="9.19841704890132">
        <ele>1538.8900000000001</ele>
        <time>2019-05-22T08:32:08Z</time>
      </trkpt>
      <trkpt lat="44.633688954636455" lon="9.198410427197814">
        <ele>1538.9400000000001</ele>
        <time>2019-05-22T08:32:09Z</time>
      </trkpt>
      <trkpt lat="44.633622737601399" lon="9.198359213769436">
        <ele>1538.6099999999999</ele>
        <time>2019-05-22T08:32:15Z</time>
      </trkpt>
      <trkpt lat="44.633489213883877" lon="9.198345299810171">
        <ele>1538.23</ele>
        <time>2019-05-22T08:32:28Z</time>
      </trkpt>
      <trkpt lat="44.633393492549658" lon="9.198353178799152">
        <ele>1537.1800000000001</ele>
        <time>2019-05-22T08:32:38Z</time>
      </trkpt>
      <trkpt lat="44.633235326036811" lon="9.198399279266596">
        <ele>1536.77</ele>
        <time>2019-05-22T08:32:52Z</time>
      </trkpt>
      <trkpt lat="44.633057881146669" lon="9.19841269031167">
        <ele>1535.9100000000001</ele>
        <time>2019-05-22T08:33:07Z</time>
      </trkpt>
      <trkpt lat="44.63290935382247" lon="9.198441859334707">
        <ele>1535.5799999999999</ele>
        <time>2019-05-22T08:33:19Z</time>
      </trkpt>
      <trkpt lat="44.632840706035495" lon="9.198452001437545">
        <ele>1535.3</ele>
        <time>2019-05-22T08:33:31Z</time>
      </trkpt>
      <trkpt lat="44.632833329960704" lon="9.198449570685625">
        <ele>1535.26</ele>
        <time>2019-05-22T08:33:49Z</time>
      </trkpt>
      <trkpt lat="44.632831569761038" lon="9.198452923446894">
        <ele>1535.3399999999999</ele>
        <time>2019-05-22T08:34:08Z</time>
      </trkpt>
      <trkpt lat="44.632833497598767" lon="9.198453258723021">
        <ele>1536.1099999999999</ele>
        <time>2019-05-22T08:34:16Z</time>
      </trkpt>
      <trkpt lat="44.632774572819471" lon="9.198465831577778">
        <ele>1535.05</ele>
        <time>2019-05-22T08:34:32Z</time>
      </trkpt>
      <trkpt lat="44.632781948894262" lon="9.198472453281283">
        <ele>1535.1400000000001</ele>
        <time>2019-05-22T08:34:51Z</time>
      </trkpt>
      <trkpt lat="44.632750181481242" lon="9.198476308956742">
        <ele>1534.9400000000001</ele>
        <time>2019-05-22T08:35:16Z</time>
      </trkpt>
      <trkpt lat="44.632740877568722" lon="9.198477566242218">
        <ele>1535.03</ele>
        <time>2019-05-22T08:35:17Z</time>
      </trkpt>
      <trkpt lat="44.632709948346019" lon="9.198485529050231">
        <ele>1534.8900000000001</ele>
        <time>2019-05-22T08:35:20Z</time>
      </trkpt>
      <trkpt lat="44.632568126544356" lon="9.19850011356175">
        <ele>1534.22</ele>
        <time>2019-05-22T08:35:33Z</time>
      </trkpt>
      <trkpt lat="44.632438207045197" lon="9.198451582342386">
        <ele>1534.1700000000001</ele>
        <time>2019-05-22T08:35:45Z</time>
      </trkpt>
      <trkpt lat="44.632304180413485" lon="9.198416378349066">
        <ele>1534.5599999999999</ele>
        <time>2019-05-22T08:35:59Z</time>
      </trkpt>
      <trkpt lat="44.632263276726007" lon="9.198416043072939">
        <ele>1534.6800000000001</ele>
        <time>2019-05-22T08:36:03Z</time>
      </trkpt>
      <trkpt lat="44.632089352235198" lon="9.198403721675277">
        <ele>1535.01</ele>
        <time>2019-05-22T08:36:18Z</time>
      </trkpt>
      <trkpt lat="44.631948787719011" lon="9.198385868221521">
        <ele>1534.6199999999999</ele>
        <time>2019-05-22T08:36:30Z</time>
      </trkpt>
      <trkpt lat="44.63174058124423" lon="9.198370110243559">
        <ele>1534.8599999999999</ele>
        <time>2019-05-22T08:36:48Z</time>
      </trkpt>
      <trkpt lat="44.631570847705007" lon="9.198304815217853">
        <ele>1535.9100000000001</ele>
        <time>2019-05-22T08:37:04Z</time>
      </trkpt>
      <trkpt lat="44.631461715325713" lon="9.198279501870275">
        <ele>1536.02</ele>
        <time>2019-05-22T08:37:14Z</time>
      </trkpt>
      <trkpt lat="44.631373789161444" lon="9.198247483000159">
        <ele>1536.3099999999999</ele>
        <time>2019-05-22T08:37:25Z</time>
      </trkpt>
      <trkpt lat="44.631262226030231" lon="9.19824505224824">
        <ele>1536.4100000000001</ele>
        <time>2019-05-22T08:37:40Z</time>
      </trkpt>
      <trkpt lat="44.631118224933743" lon="9.198107589036226">
        <ele>1538.26</ele>
        <time>2019-05-22T08:37:56Z</time>
      </trkpt>
      <trkpt lat="44.631044631823897" lon="9.198041036725044">
        <ele>1539.4100000000001</ele>
        <time>2019-05-22T08:38:04Z</time>
      </trkpt>
      <trkpt lat="44.630932146683335" lon="9.19795579276979">
        <ele>1540.8399999999999</ele>
        <time>2019-05-22T08:38:17Z</time>
      </trkpt>
      <trkpt lat="44.63086249306798" lon="9.197915056720376">
        <ele>1542.0899999999999</ele>
        <time>2019-05-22T08:38:31Z</time>
      </trkpt>
      <trkpt lat="44.630725365132093" lon="9.197920504957438">
        <ele>1542.6500000000001</ele>
        <time>2019-05-22T08:38:45Z</time>
      </trkpt>
      <trkpt lat="44.630599385127425" lon="9.197911703959107">
        <ele>1543.52</ele>
        <time>2019-05-22T08:38:59Z</time>
      </trkpt>
      <trkpt lat="44.630502574145794" lon="9.197884798049927">
        <ele>1544.5</ele>
        <time>2019-05-22T08:39:10Z</time>
      </trkpt>
      <trkpt lat="44.630365362390876" lon="9.197913212701678">
        <ele>1542.8900000000001</ele>
        <time>2019-05-22T08:39:23Z</time>
      </trkpt>
      <trkpt lat="44.630233934149146" lon="9.197996612638235">
        <ele>1540.3399999999999</ele>
        <time>2019-05-22T08:39:37Z</time>
      </trkpt>
      <trkpt lat="44.630142571404576" lon="9.198065008968115">
        <ele>1537.29</ele>
        <time>2019-05-22T08:39:47Z</time>
      </trkpt>
      <trkpt lat="44.629986500367522" lon="9.198160227388144">
        <ele>1534.6900000000001</ele>
        <time>2019-05-22T08:40:02Z</time>
      </trkpt>
      <trkpt lat="44.629870411008596" lon="9.198264917358756">
        <ele>1534.5899999999999</ele>
        <time>2019-05-22T08:40:16Z</time>
      </trkpt>
      <trkpt lat="44.629726493731141" lon="9.198328200727701">
        <ele>1535.02</ele>
        <time>2019-05-22T08:40:30Z</time>
      </trkpt>
      <trkpt lat="44.629588946700096" lon="9.198417216539383">
        <ele>1534.95</ele>
        <time>2019-05-22T08:40:45Z</time>
      </trkpt>
      <trkpt lat="44.629474868997931" lon="9.198500700294972">
        <ele>1534.6500000000001</ele>
        <time>2019-05-22T08:41:00Z</time>
      </trkpt>
      <trkpt lat="44.62927982211113" lon="9.198527857661247">
        <ele>1534.9000000000001</ele>
        <time>2019-05-22T08:41:15Z</time>
      </trkpt>
      <trkpt lat="44.629153339192271" lon="9.198594493791461">
        <ele>1535.29</ele>
        <time>2019-05-22T08:41:29Z</time>
      </trkpt>
      <trkpt lat="44.629007494077086" lon="9.198684515431523">
        <ele>1535.96</ele>
        <time>2019-05-22T08:41:43Z</time>
      </trkpt>
      <trkpt lat="44.628859385848045" lon="9.198768250644207">
        <ele>1536.1900000000001</ele>
        <time>2019-05-22T08:41:58Z</time>
      </trkpt>
      <trkpt lat="44.62871597148478" lon="9.198897667229176">
        <ele>1537.04</ele>
        <time>2019-05-22T08:42:14Z</time>
      </trkpt>
      <trkpt lat="44.628561493009329" lon="9.199016522616148">
        <ele>1538.9400000000001</ele>
        <time>2019-05-22T08:42:30Z</time>
      </trkpt>
      <trkpt lat="44.62845110334456" lon="9.199088104069233">
        <ele>1541.74</ele>
        <time>2019-05-22T08:42:47Z</time>
      </trkpt>
      <trkpt lat="44.628420090302825" lon="9.1991001740098">
        <ele>1543.78</ele>
        <time>2019-05-22T08:43:00Z</time>
      </trkpt>
      <trkpt lat="44.62836510501802" lon="9.199135294184089">
        <ele>1545.1099999999999</ele>
        <time>2019-05-22T08:43:15Z</time>
      </trkpt>
      <trkpt lat="44.62829964235425" lon="9.199216431006789">
        <ele>1546.97</ele>
        <time>2019-05-22T08:43:30Z</time>
      </trkpt>
      <trkpt lat="44.628152959048748" lon="9.199227998033166">
        <ele>1546.6700000000001</ele>
        <time>2019-05-22T08:43:47Z</time>
      </trkpt>
      <trkpt lat="44.627930419519544" lon="9.199242917820811">
        <ele>1545.71</ele>
        <time>2019-05-22T08:44:03Z</time>
      </trkpt>
      <trkpt lat="44.627890102565289" lon="9.199279295280576">
        <ele>1546.0699999999999</ele>
        <time>2019-05-22T08:44:09Z</time>
      </trkpt>
      <trkpt lat="44.627718608826399" lon="9.199317265301943">
        <ele>1543.71</ele>
        <time>2019-05-22T08:44:21Z</time>
      </trkpt>
      <trkpt lat="44.627547366544604" lon="9.199436455965042">
        <ele>1541.6700000000001</ele>
        <time>2019-05-22T08:44:34Z</time>
      </trkpt>
      <trkpt lat="44.627434210851789" lon="9.19950233772397">
        <ele>1542.29</ele>
        <time>2019-05-22T08:44:45Z</time>
      </trkpt>
      <trkpt lat="44.627334298565984" lon="9.19958146288991">
        <ele>1544.3099999999999</ele>
        <time>2019-05-22T08:44:56Z</time>
      </trkpt>
      <trkpt lat="44.627247042953968" lon="9.199604345485568">
        <ele>1546.6199999999999</ele>
        <time>2019-05-22T08:45:08Z</time>
      </trkpt>
      <trkpt lat="44.627176383510232" lon="9.199651451781392">
        <ele>1548.8499999999999</ele>
        <time>2019-05-22T08:45:19Z</time>
      </trkpt>
      <trkpt lat="44.627090049907565" lon="9.199739042669535">
        <ele>1550.3699999999999</ele>
        <time>2019-05-22T08:45:32Z</time>
      </trkpt>
      <trkpt lat="44.62702919729054" lon="9.19988639652729">
        <ele>1551.75</ele>
        <time>2019-05-22T08:45:48Z</time>
      </trkpt>
      <trkpt lat="44.626966416835785" lon="9.199980441480875">
        <ele>1552.6099999999999</ele>
        <time>2019-05-22T08:45:59Z</time>
      </trkpt>
      <trkpt lat="44.626849321648479" lon="9.200015142560005">
        <ele>1552.3900000000001</ele>
        <time>2019-05-22T08:46:10Z</time>
      </trkpt>
      <trkpt lat="44.626695094630122" lon="9.200036013498902">
        <ele>1552.1099999999999</ele>
        <time>2019-05-22T08:46:24Z</time>
      </trkpt>
      <trkpt lat="44.626672295853496" lon="9.200014555826783">
        <ele>1551.9200000000001</ele>
        <time>2019-05-22T08:46:33Z</time>
      </trkpt>
      <trkpt lat="44.626655448228121" lon="9.200018243864179">
        <ele>1552.1099999999999</ele>
        <time>2019-05-22T08:46:40Z</time>
      </trkpt>
      <trkpt lat="44.626625189557672" lon="9.200031906366348">
        <ele>1552.1400000000001</ele>
        <time>2019-05-22T08:46:43Z</time>
      </trkpt>
      <trkpt lat="44.6264614071697" lon="9.200067697092891">
        <ele>1551.76</ele>
        <time>2019-05-22T08:46:59Z</time>
      </trkpt>
      <trkpt lat="44.626271640881896" lon="9.200013298541307">
        <ele>1551.29</ele>
        <time>2019-05-22T08:47:17Z</time>
      </trkpt>
      <trkpt lat="44.626103080809116" lon="9.200022267177701">
        <ele>1550.98</ele>
        <time>2019-05-22T08:47:33Z</time>
      </trkpt>
      <trkpt lat="44.626004006713629" lon="9.200057303532958">
        <ele>1550.8499999999999</ele>
        <time>2019-05-22T08:47:44Z</time>
      </trkpt>
      <trkpt lat="44.625863023102283" lon="9.200144223868847">
        <ele>1551.05</ele>
        <time>2019-05-22T08:48:00Z</time>
      </trkpt>
      <trkpt lat="44.62575732730329" lon="9.200152941048145">
        <ele>1552.1300000000001</ele>
        <time>2019-05-22T08:48:12Z</time>
      </trkpt>
      <trkpt lat="44.625680381432176" lon="9.200205327942967">
        <ele>1552.6300000000001</ele>
        <time>2019-05-22T08:48:21Z</time>
      </trkpt>
      <trkpt lat="44.62563855573535" lon="9.200229551643133">
        <ele>1552.8900000000001</ele>
        <time>2019-05-22T08:48:24Z</time>
      </trkpt>
      <trkpt lat="44.625468906015158" lon="9.200436500832439">
        <ele>1553.3699999999999</ele>
        <time>2019-05-22T08:48:40Z</time>
      </trkpt>
      <trkpt lat="44.625305375084281" lon="9.20053280889988">
        <ele>1552.6400000000001</ele>
        <time>2019-05-22T08:48:54Z</time>
      </trkpt>
      <trkpt lat="44.625273607671261" lon="9.20052794739604">
        <ele>1552.0899999999999</ele>
        <time>2019-05-22T08:49:05Z</time>
      </trkpt>
      <trkpt lat="44.625268243253231" lon="9.200540101155639">
        <ele>1551.72</ele>
        <time>2019-05-22T08:49:19Z</time>
      </trkpt>
      <trkpt lat="44.625242426991463" lon="9.20055678114295">
        <ele>1551.52</ele>
        <time>2019-05-22T08:49:22Z</time>
      </trkpt>
      <trkpt lat="44.625140838325024" lon="9.200611263513565">
        <ele>1550.4000000000001</ele>
        <time>2019-05-22T08:49:33Z</time>
      </trkpt>
      <trkpt lat="44.624959034845233" lon="9.200653173029423">
        <ele>1547.4400000000001</ele>
        <time>2019-05-22T08:49:47Z</time>
      </trkpt>
      <trkpt lat="44.624759629368782" lon="9.20066867955029">
        <ele>1545.9200000000001</ele>
        <time>2019-05-22T08:50:03Z</time>
      </trkpt>
      <trkpt lat="44.62455770932138" lon="9.200672702863812">
        <ele>1544.25</ele>
        <time>2019-05-22T08:50:19Z</time>
      </trkpt>
      <trkpt lat="44.624313460662961" lon="9.200653675943613">
        <ele>1542.6900000000001</ele>
        <time>2019-05-22T08:50:39Z</time>
      </trkpt>
      <trkpt lat="44.624207010492682" lon="9.200642108917236">
        <ele>1541.96</ele>
        <time>2019-05-22T08:50:48Z</time>
      </trkpt>
      <trkpt lat="44.624075414612889" lon="9.200660716742277">
        <ele>1540.4400000000001</ele>
        <time>2019-05-22T08:50:59Z</time>
      </trkpt>
      <trkpt lat="44.623894952237606" lon="9.200744871050119">
        <ele>1539.95</ele>
        <time>2019-05-22T08:51:14Z</time>
      </trkpt>
      <trkpt lat="44.623678028583527" lon="9.200790803879499">
        <ele>1539.1800000000001</ele>
        <time>2019-05-22T08:51:32Z</time>
      </trkpt>
      <trkpt lat="44.623539056628942" lon="9.200728693976998">
        <ele>1538.8699999999999</ele>
        <time>2019-05-22T08:51:46Z</time>
      </trkpt>
      <trkpt lat="44.623510558158159" lon="9.200689131394029">
        <ele>1538.99</ele>
        <time>2019-05-22T08:51:49Z</time>
      </trkpt>
      <trkpt lat="44.623460518196225" lon="9.200667338445783">
        <ele>1539.02</ele>
        <time>2019-05-22T08:51:53Z</time>
      </trkpt>
      <trkpt lat="44.623374436050653" lon="9.20066281221807">
        <ele>1538.9300000000001</ele>
        <time>2019-05-22T08:52:00Z</time>
      </trkpt>
      <trkpt lat="44.623335795477033" lon="9.200656022876501">
        <ele>1539.5</ele>
        <time>2019-05-22T08:52:04Z</time>
      </trkpt>
      <trkpt lat="44.623180814087391" lon="9.200660549104214">
        <ele>1538.79</ele>
        <time>2019-05-22T08:52:16Z</time>
      </trkpt>
      <trkpt lat="44.622997418045998" lon="9.200747301802039">
        <ele>1538.9300000000001</ele>
        <time>2019-05-22T08:52:31Z</time>
      </trkpt>
      <trkpt lat="44.622890213504434" lon="9.200768172740936">
        <ele>1540.47</ele>
        <time>2019-05-22T08:52:44Z</time>
      </trkpt>
      <trkpt lat="44.622805640101433" lon="9.200779655948281">
        <ele>1542.8499999999999</ele>
        <time>2019-05-22T08:52:58Z</time>
      </trkpt>
      <trkpt lat="44.622702626511455" lon="9.200791222974658">
        <ele>1544.74</ele>
        <time>2019-05-22T08:53:14Z</time>
      </trkpt>
      <trkpt lat="44.622517554089427" lon="9.200718300417066">
        <ele>1545.8399999999999</ele>
        <time>2019-05-22T08:53:33Z</time>
      </trkpt>
      <trkpt lat="44.622394004836679" lon="9.200603971257806">
        <ele>1543.9100000000001</ele>
        <time>2019-05-22T08:53:49Z</time>
      </trkpt>
      <trkpt lat="44.622374810278416" lon="9.200592739507556">
        <ele>1543.6700000000001</ele>
        <time>2019-05-22T08:53:59Z</time>
      </trkpt>
      <trkpt lat="44.622358214110136" lon="9.200560804456472">
        <ele>1543.24</ele>
        <time>2019-05-22T08:54:17Z</time>
      </trkpt>
      <trkpt lat="44.622327536344528" lon="9.20056164264679">
        <ele>1542.6600000000001</ele>
        <time>2019-05-22T08:54:33Z</time>
      </trkpt>
      <trkpt lat="44.622223852202296" lon="9.200623836368322">
        <ele>1542.6600000000001</ele>
        <time>2019-05-22T08:54:46Z</time>
      </trkpt>
      <trkpt lat="44.622211446985602" lon="9.200625009834766">
        <ele>1542.6700000000001</ele>
        <time>2019-05-22T08:54:47Z</time>
      </trkpt>
      <trkpt lat="44.622184792533517" lon="9.200622076168656">
        <ele>1542.47</ele>
        <time>2019-05-22T08:54:49Z</time>
      </trkpt>
      <trkpt lat="44.622145649045706" lon="9.200622495263815">
        <ele>1542.3800000000001</ele>
        <time>2019-05-22T08:54:52Z</time>
      </trkpt>
      <trkpt lat="44.622010616585612" lon="9.200694747269154">
        <ele>1542.03</ele>
        <time>2019-05-22T08:55:06Z</time>
      </trkpt>
      <trkpt lat="44.621971137821674" lon="9.200694831088185">
        <ele>1541.71</ele>
        <time>2019-05-22T08:55:15Z</time>
      </trkpt>
      <trkpt lat="44.621825376525521" lon="9.200770268216729">
        <ele>1541.75</ele>
        <time>2019-05-22T08:55:29Z</time>
      </trkpt>
      <trkpt lat="44.621756477281451" lon="9.200798599049449">
        <ele>1541.7</ele>
        <time>2019-05-22T08:55:35Z</time>
      </trkpt>
      <trkpt lat="44.621728733181953" lon="9.20078250579536">
        <ele>1541.8199999999999</ele>
        <time>2019-05-22T08:55:38Z</time>
      </trkpt>
      <trkpt lat="44.621647009626031" lon="9.200752666220069">
        <ele>1541.3800000000001</ele>
        <time>2019-05-22T08:55:44Z</time>
      </trkpt>
      <trkpt lat="44.621449783444405" lon="9.200764568522573">
        <ele>1541.5699999999999</ele>
        <time>2019-05-22T08:56:00Z</time>
      </trkpt>
      <trkpt lat="44.621319277212024" lon="9.200793150812388">
        <ele>1541.5</ele>
        <time>2019-05-22T08:56:13Z</time>
      </trkpt>
      <trkpt lat="44.621155662462115" lon="9.200787618756294">
        <ele>1541.3099999999999</ele>
        <time>2019-05-22T08:56:27Z</time>
      </trkpt>
      <trkpt lat="44.620999088510871" lon="9.200829276815057">
        <ele>1541.6099999999999</ele>
        <time>2019-05-22T08:56:41Z</time>
      </trkpt>
      <trkpt lat="44.620805801823735" lon="9.200846208259463">
        <ele>1541.6700000000001</ele>
        <time>2019-05-22T08:56:58Z</time>
      </trkpt>
      <trkpt lat="44.620698345825076" lon="9.200852662324905">
        <ele>1541.9300000000001</ele>
        <time>2019-05-22T08:57:11Z</time>
      </trkpt>
      <trkpt lat="44.620566833764315" lon="9.200915275141597">
        <ele>1542.4100000000001</ele>
        <time>2019-05-22T08:57:25Z</time>
      </trkpt>
      <trkpt lat="44.620472034439445" lon="9.200994484126568">
        <ele>1542.5599999999999</ele>
        <time>2019-05-22T08:57:38Z</time>
      </trkpt>
      <trkpt lat="44.620335241779685" lon="9.201023988425732">
        <ele>1542.5999999999999</ele>
        <time>2019-05-22T08:57:56Z</time>
      </trkpt>
      <trkpt lat="44.620215632021427" lon="9.201050894334912">
        <ele>1543.29</ele>
        <time>2019-05-22T08:58:07Z</time>
      </trkpt>
      <trkpt lat="44.620119659230113" lon="9.201098922640085">
        <ele>1544.51</ele>
        <time>2019-05-22T08:58:21Z</time>
      </trkpt>
      <trkpt lat="44.620012119412422" lon="9.201128678396344">
        <ele>1544.1199999999999</ele>
        <time>2019-05-22T08:58:34Z</time>
      </trkpt>
      <trkpt lat="44.619897622615099" lon="9.201103784143925">
        <ele>1542.1400000000001</ele>
        <time>2019-05-22T08:58:45Z</time>
      </trkpt>
      <trkpt lat="44.619804751127958" lon="9.201058773323894">
        <ele>1541.8499999999999</ele>
        <time>2019-05-22T08:58:56Z</time>
      </trkpt>
      <trkpt lat="44.619664773344994" lon="9.201032454147935">
        <ele>1542.29</ele>
        <time>2019-05-22T08:59:08Z</time>
      </trkpt>
      <trkpt lat="44.619600148871541" lon="9.201008565723896">
        <ele>1542.52</ele>
        <time>2019-05-22T08:59:14Z</time>
      </trkpt>
      <trkpt lat="44.61945841088891" lon="9.200949389487505">
        <ele>1542.21</ele>
        <time>2019-05-22T08:59:28Z</time>
      </trkpt>
      <trkpt lat="44.619348691776395" lon="9.200884597375989">
        <ele>1542.7</ele>
        <time>2019-05-22T08:59:39Z</time>
      </trkpt>
      <trkpt lat="44.61923511698842" lon="9.200821900740266">
        <ele>1543.01</ele>
        <time>2019-05-22T08:59:54Z</time>
      </trkpt>
      <trkpt lat="44.619143335148692" lon="9.200725508853793">
        <ele>1544.52</ele>
        <time>2019-05-22T09:00:07Z</time>
      </trkpt>
      <trkpt lat="44.619034454226494" lon="9.200616125017405">
        <ele>1546.3</ele>
        <time>2019-05-22T09:00:23Z</time>
      </trkpt>
      <trkpt lat="44.618915012106299" lon="9.200554182752967">
        <ele>1546.0899999999999</ele>
        <time>2019-05-22T09:00:37Z</time>
      </trkpt>
      <trkpt lat="44.618765898048878" lon="9.200481595471501">
        <ele>1546.77</ele>
        <time>2019-05-22T09:00:52Z</time>
      </trkpt>
      <trkpt lat="44.61862432770431" lon="9.200445050373673">
        <ele>1547.3900000000001</ele>
        <time>2019-05-22T09:01:08Z</time>
      </trkpt>
      <trkpt lat="44.618454929441214" lon="9.200431890785694">
        <ele>1547.47</ele>
        <time>2019-05-22T09:01:24Z</time>
      </trkpt>
      <trkpt lat="44.618393490090966" lon="9.200458796694875">
        <ele>1549.03</ele>
        <time>2019-05-22T09:01:33Z</time>
      </trkpt>
      <trkpt lat="44.618307491764426" lon="9.200445553287864">
        <ele>1548.79</ele>
        <time>2019-05-22T09:01:42Z</time>
      </trkpt>
      <trkpt lat="44.618163658306003" lon="9.200448738411069">
        <ele>1549.3499999999999</ele>
        <time>2019-05-22T09:01:55Z</time>
      </trkpt>
      <trkpt lat="44.618036337196827" lon="9.200503136962652">
        <ele>1549.71</ele>
        <time>2019-05-22T09:02:07Z</time>
      </trkpt>
      <trkpt lat="44.617917481809855" lon="9.200559463351965">
        <ele>1551.02</ele>
        <time>2019-05-22T09:02:20Z</time>
      </trkpt>
      <trkpt lat="44.6178581379354" lon="9.200571198016405">
        <ele>1551.9300000000001</ele>
        <time>2019-05-22T09:02:36Z</time>
      </trkpt>
      <trkpt lat="44.617796782404184" lon="9.200562816113234">
        <ele>1553.52</ele>
        <time>2019-05-22T09:02:52Z</time>
      </trkpt>
      <trkpt lat="44.617722267284989" lon="9.200566001236439">
        <ele>1555.24</ele>
        <time>2019-05-22T09:03:09Z</time>
      </trkpt>
      <trkpt lat="44.617656553164124" lon="9.20058611780405">
        <ele>1558.3399999999999</ele>
        <time>2019-05-22T09:03:23Z</time>
      </trkpt>
      <trkpt lat="44.617578098550439" lon="9.200571952387691">
        <ele>1561.47</ele>
        <time>2019-05-22T09:03:37Z</time>
      </trkpt>
      <trkpt lat="44.617490004748106" lon="9.200542196631432">
        <ele>1563.51</ele>
        <time>2019-05-22T09:03:50Z</time>
      </trkpt>
      <trkpt lat="44.617376262322068" lon="9.200519900768995">
        <ele>1566.1700000000001</ele>
        <time>2019-05-22T09:04:05Z</time>
      </trkpt>
      <trkpt lat="44.617290515452623" lon="9.200500622391701">
        <ele>1569.0699999999999</ele>
        <time>2019-05-22T09:04:21Z</time>
      </trkpt>
      <trkpt lat="44.617247683927417" lon="9.200497856363654">
        <ele>1572.25</ele>
        <time>2019-05-22T09:04:38Z</time>
      </trkpt>
      <trkpt lat="44.617180544883013" lon="9.20045075006783">
        <ele>1574.6800000000001</ele>
        <time>2019-05-22T09:04:52Z</time>
      </trkpt>
      <trkpt lat="44.617121452465653" lon="9.200412193313241">
        <ele>1577.1900000000001</ele>
        <time>2019-05-22T09:05:06Z</time>
      </trkpt>
      <trkpt lat="44.617050793021917" lon="9.200383527204394">
        <ele>1579.3399999999999</ele>
        <time>2019-05-22T09:05:19Z</time>
      </trkpt>
      <trkpt lat="44.61700351908803" lon="9.200338935479522">
        <ele>1581.6300000000001</ele>
        <time>2019-05-22T09:05:32Z</time>
      </trkpt>
      <trkpt lat="44.616935206577182" lon="9.20030465349555">
        <ele>1584.4300000000001</ele>
        <time>2019-05-22T09:05:48Z</time>
      </trkpt>
      <trkpt lat="44.616895141080022" lon="9.200313789770007">
        <ele>1587.1800000000001</ele>
        <time>2019-05-22T09:06:02Z</time>
      </trkpt>
      <trkpt lat="44.616826577112079" lon="9.200288727879524">
        <ele>1590.1099999999999</ele>
        <time>2019-05-22T09:06:16Z</time>
      </trkpt>
      <trkpt lat="44.616747368127108" lon="9.200267437845469">
        <ele>1592.95</ele>
        <time>2019-05-22T09:06:30Z</time>
      </trkpt>
      <trkpt lat="44.616670841351151" lon="9.200230976566672">
        <ele>1595.3599999999999</ele>
        <time>2019-05-22T09:06:43Z</time>
      </trkpt>
      <trkpt lat="44.616584843024611" lon="9.200175236910582">
        <ele>1598.05</ele>
        <time>2019-05-22T09:06:59Z</time>
      </trkpt>
      <trkpt lat="44.616525415331125" lon="9.20013508759439">
        <ele>1600.3800000000001</ele>
        <time>2019-05-22T09:07:12Z</time>
      </trkpt>
      <trkpt lat="44.616469256579876" lon="9.200087478384376">
        <ele>1603.21</ele>
        <time>2019-05-22T09:07:26Z</time>
      </trkpt>
      <trkpt lat="44.616400608792901" lon="9.200047161430121">
        <ele>1606.0799999999999</ele>
        <time>2019-05-22T09:07:42Z</time>
      </trkpt>
      <trkpt lat="44.616339756175876" lon="9.200015058740974">
        <ele>1608.1900000000001</ele>
        <time>2019-05-22T09:07:54Z</time>
      </trkpt>
      <trkpt lat="44.616278819739819" lon="9.199977088719606">
        <ele>1610.3800000000001</ele>
        <time>2019-05-22T09:08:06Z</time>
      </trkpt>
      <trkpt lat="44.616220481693745" lon="9.199965018779039">
        <ele>1612.95</ele>
        <time>2019-05-22T09:08:19Z</time>
      </trkpt>
      <trkpt lat="44.616133645176888" lon="9.199935095384717">
        <ele>1615.5599999999999</ele>
        <time>2019-05-22T09:08:34Z</time>
      </trkpt>
      <trkpt lat="44.616073127835989" lon="9.199916487559676">
        <ele>1617.6300000000001</ele>
        <time>2019-05-22T09:08:45Z</time>
      </trkpt>
      <trkpt lat="44.615972796455026" lon="9.199898047372699">
        <ele>1620.5699999999999</ele>
        <time>2019-05-22T09:09:01Z</time>
      </trkpt>
      <trkpt lat="44.61590607650578" lon="9.199894107878208">
        <ele>1623.28</ele>
        <time>2019-05-22T09:09:15Z</time>
      </trkpt>
      <trkpt lat="44.615857126191258" lon="9.199881283566356">
        <ele>1624.1300000000001</ele>
        <time>2019-05-22T09:09:26Z</time>
      </trkpt>
      <trkpt lat="44.615819659084082" lon="9.199888240545988">
        <ele>1627.8199999999999</ele>
        <time>2019-05-22T09:26:47Z</time>
      </trkpt>
      <trkpt lat="44.615799207240343" lon="9.199886564165354">
        <ele>1628.1800000000001</ele>
        <time>2019-05-22T09:31:11Z</time>
      </trkpt>
      <trkpt lat="44.61579660885036" lon="9.199886983260512">
        <ele>1628.1300000000001</ele>
        <time>2019-05-22T09:31:34Z</time>
      </trkpt>
      <trkpt lat="44.615775654092431" lon="9.199898382648826">
        <ele>1627.99</ele>
        <time>2019-05-22T09:32:18Z</time>
      </trkpt>
      <trkpt lat="44.61575411260128" lon="9.199913050979376">
        <ele>1628.5799999999999</ele>
        <time>2019-05-22T09:32:26Z</time>
      </trkpt>
      <trkpt lat="44.615740869194269" lon="9.19988882727921">
        <ele>1628.3299999999999</ele>
        <time>2019-05-22T09:32:43Z</time>
      </trkpt>
      <trkpt lat="44.615709017962217" lon="9.199843816459179">
        <ele>1627.79</ele>
        <time>2019-05-22T09:32:48Z</time>
      </trkpt>
      <trkpt lat="44.615623774006963" lon="9.199725547805429">
        <ele>1627.0599999999999</ele>
        <time>2019-05-22T09:33:02Z</time>
      </trkpt>
      <trkpt lat="44.615569040179253" lon="9.199655391275883">
        <ele>1626.48</ele>
        <time>2019-05-22T09:33:14Z</time>
      </trkpt>
      <trkpt lat="44.615572644397616" lon="9.199657570570707">
        <ele>1626.4400000000001</ele>
        <time>2019-05-22T09:33:28Z</time>
      </trkpt>
      <trkpt lat="44.615556970238686" lon="9.199633682146668">
        <ele>1626</ele>
        <time>2019-05-22T09:33:43Z</time>
      </trkpt>
      <trkpt lat="44.615450017154217" lon="9.199485071003437">
        <ele>1623.47</ele>
        <time>2019-05-22T09:34:00Z</time>
      </trkpt>
      <trkpt lat="44.615368880331516" lon="9.199360180646181">
        <ele>1621.0899999999999</ele>
        <time>2019-05-22T09:34:14Z</time>
      </trkpt>
      <trkpt lat="44.615301741287112" lon="9.199330424889922">
        <ele>1619.1099999999999</ele>
        <time>2019-05-22T09:34:22Z</time>
      </trkpt>
      <trkpt lat="44.615256227552891" lon="9.199378034099937">
        <ele>1617.3499999999999</ele>
        <time>2019-05-22T09:34:29Z</time>
      </trkpt>
      <trkpt lat="44.615247845649719" lon="9.19940359890461">
        <ele>1617.3900000000001</ele>
        <time>2019-05-22T09:34:31Z</time>
      </trkpt>
      <trkpt lat="44.61524642072618" lon="9.199462439864874">
        <ele>1616.6900000000001</ele>
        <time>2019-05-22T09:34:35Z</time>
      </trkpt>
      <trkpt lat="44.615251030772924" lon="9.199673663824797">
        <ele>1614.5999999999999</ele>
        <time>2019-05-22T09:34:50Z</time>
      </trkpt>
      <trkpt lat="44.615237452089787" lon="9.19983359053731">
        <ele>1611.51</ele>
        <time>2019-05-22T09:35:02Z</time>
      </trkpt>
      <trkpt lat="44.615232842043042" lon="9.200044646859169">
        <ele>1608.3399999999999</ele>
        <time>2019-05-22T09:35:17Z</time>
      </trkpt>
      <trkpt lat="44.615260502323508" lon="9.200248327106237">
        <ele>1605.3800000000001</ele>
        <time>2019-05-22T09:35:32Z</time>
      </trkpt>
      <trkpt lat="44.615342309698462" lon="9.200388472527266">
        <ele>1602.3</ele>
        <time>2019-05-22T09:35:46Z</time>
      </trkpt>
      <trkpt lat="44.615393523126841" lon="9.200531886890531">
        <ele>1599.23</ele>
        <time>2019-05-22T09:35:57Z</time>
      </trkpt>
      <trkpt lat="44.615396037697792" lon="9.200545214116573">
        <ele>1599.1199999999999</ele>
        <time>2019-05-22T09:35:58Z</time>
      </trkpt>
      <trkpt lat="44.615330658853054" lon="9.200683180242777">
        <ele>1595.6800000000001</ele>
        <time>2019-05-22T09:36:11Z</time>
      </trkpt>
      <trkpt lat="44.615242062136531" lon="9.200749145820737">
        <ele>1592.52</ele>
        <time>2019-05-22T09:36:21Z</time>
      </trkpt>
      <trkpt lat="44.615105269476771" lon="9.200837155804038">
        <ele>1590.49</ele>
        <time>2019-05-22T09:36:36Z</time>
      </trkpt>
      <trkpt lat="44.61507149040699" lon="9.200853500515223">
        <ele>1590.1300000000001</ele>
        <time>2019-05-22T09:36:40Z</time>
      </trkpt>
      <trkpt lat="44.615041650831699" lon="9.200869929045439">
        <ele>1589.1500000000001</ele>
        <time>2019-05-22T09:36:43Z</time>
      </trkpt>
      <trkpt lat="44.615002507343888" lon="9.200891302898526">
        <ele>1588.01</ele>
        <time>2019-05-22T09:36:47Z</time>
      </trkpt>
      <trkpt lat="44.614903600886464" lon="9.200988365337253">
        <ele>1584.45</ele>
        <time>2019-05-22T09:36:58Z</time>
      </trkpt>
      <trkpt lat="44.614819111302495" lon="9.201085176318884">
        <ele>1581.0799999999999</ele>
        <time>2019-05-22T09:37:08Z</time>
      </trkpt>
      <trkpt lat="44.614711152389646" lon="9.201197829097509">
        <ele>1577.8699999999999</ele>
        <time>2019-05-22T09:37:21Z</time>
      </trkpt>
      <trkpt lat="44.614600595086813" lon="9.201303357258439">
        <ele>1574.5699999999999</ele>
        <time>2019-05-22T09:37:34Z</time>
      </trkpt>
      <trkpt lat="44.614510824903846" lon="9.201385751366615">
        <ele>1571.6099999999999</ele>
        <time>2019-05-22T09:37:48Z</time>
      </trkpt>
      <trkpt lat="44.614508394151926" lon="9.201391786336899">
        <ele>1571.5999999999999</ele>
        <time>2019-05-22T09:37:49Z</time>
      </trkpt>
      <trkpt lat="44.614385012537241" lon="9.201534697785974">
        <ele>1569</ele>
        <time>2019-05-22T09:38:04Z</time>
      </trkpt>
      <trkpt lat="44.614292727783322" lon="9.201637208461762">
        <ele>1565.9400000000001</ele>
        <time>2019-05-22T09:38:16Z</time>
      </trkpt>
      <trkpt lat="44.614241514354944" lon="9.201680375263095">
        <ele>1564.5</ele>
        <time>2019-05-22T09:38:22Z</time>
      </trkpt>
      <trkpt lat="44.614218464121222" lon="9.2017094604671">
        <ele>1563.79</ele>
        <time>2019-05-22T09:38:25Z</time>
      </trkpt>
      <trkpt lat="44.614109667018056" lon="9.201833931729198">
        <ele>1561.1900000000001</ele>
        <time>2019-05-22T09:38:38Z</time>
      </trkpt>
      <trkpt lat="44.614094998687506" lon="9.201875673606992">
        <ele>1560.8199999999999</ele>
        <time>2019-05-22T09:38:41Z</time>
      </trkpt>
      <trkpt lat="44.614036660641432" lon="9.201952954754233">
        <ele>1558.5999999999999</ele>
        <time>2019-05-22T09:38:49Z</time>
      </trkpt>
      <trkpt lat="44.613958457484841" lon="9.202076504006982">
        <ele>1555.1300000000001</ele>
        <time>2019-05-22T09:39:00Z</time>
      </trkpt>
      <trkpt lat="44.613861311227083" lon="9.202199801802635">
        <ele>1552.5899999999999</ele>
        <time>2019-05-22T09:39:12Z</time>
      </trkpt>
      <trkpt lat="44.61378981359303" lon="9.20228848233819">
        <ele>1549.3299999999999</ele>
        <time>2019-05-22T09:39:22Z</time>
      </trkpt>
      <trkpt lat="44.613705575466156" lon="9.202398536726832">
        <ele>1546.0599999999999</ele>
        <time>2019-05-22T09:39:33Z</time>
      </trkpt>
      <trkpt lat="44.613637933507562" lon="9.202468190342188">
        <ele>1543.8</ele>
        <time>2019-05-22T09:39:45Z</time>
      </trkpt>
      <trkpt lat="44.613626785576344" lon="9.202482104301453">
        <ele>1543.6199999999999</ele>
        <time>2019-05-22T09:39:49Z</time>
      </trkpt>
      <trkpt lat="44.613604908809066" lon="9.202511357143521">
        <ele>1542.9400000000001</ele>
        <time>2019-05-22T09:39:52Z</time>
      </trkpt>
      <trkpt lat="44.613572470843792" lon="9.20255427248776">
        <ele>1541.28</ele>
        <time>2019-05-22T09:39:56Z</time>
      </trkpt>
      <trkpt lat="44.613481694832444" lon="9.202675893902779">
        <ele>1537.8299999999999</ele>
        <time>2019-05-22T09:40:08Z</time>
      </trkpt>
      <trkpt lat="44.613396199420094" lon="9.202805226668716">
        <ele>1534.26</ele>
        <time>2019-05-22T09:40:20Z</time>
      </trkpt>
      <trkpt lat="44.613330569118261" lon="9.202856859192252">
        <ele>1532.4400000000001</ele>
        <time>2019-05-22T09:40:29Z</time>
      </trkpt>
      <trkpt lat="44.61326502263546" lon="9.202927770093083">
        <ele>1530.6500000000001</ele>
        <time>2019-05-22T09:40:39Z</time>
      </trkpt>
      <trkpt lat="44.613181119784713" lon="9.202939085662365">
        <ele>1528.3900000000001</ele>
        <time>2019-05-22T09:40:50Z</time>
      </trkpt>
      <trkpt lat="44.61311892606318" lon="9.202998261898756">
        <ele>1525.4400000000001</ele>
        <time>2019-05-22T09:41:02Z</time>
      </trkpt>
      <trkpt lat="44.61304759606719" lon="9.202985856682062">
        <ele>1522.1600000000001</ele>
        <time>2019-05-22T09:41:12Z</time>
      </trkpt>
      <trkpt lat="44.612955059856176" lon="9.203019887208939">
        <ele>1518.97</ele>
        <time>2019-05-22T09:41:24Z</time>
      </trkpt>
      <trkpt lat="44.612837126478553" lon="9.203100856393576">
        <ele>1516.0699999999999</ele>
        <time>2019-05-22T09:41:38Z</time>
      </trkpt>
      <trkpt lat="44.612757666036487" lon="9.203158775344491">
        <ele>1513.77</ele>
        <time>2019-05-22T09:41:49Z</time>
      </trkpt>
      <trkpt lat="44.612653059884906" lon="9.203155422583222">
        <ele>1511.6300000000001</ele>
        <time>2019-05-22T09:42:03Z</time>
      </trkpt>
      <trkpt lat="44.612557673826814" lon="9.203137066215277">
        <ele>1509.03</ele>
        <time>2019-05-22T09:42:13Z</time>
      </trkpt>
      <trkpt lat="44.612495647743344" lon="9.203103538602591">
        <ele>1508.0999999999999</ele>
        <time>2019-05-22T09:42:19Z</time>
      </trkpt>
      <trkpt lat="44.612404117360711" lon="9.203010583296418">
        <ele>1505.8900000000001</ele>
        <time>2019-05-22T09:42:30Z</time>
      </trkpt>
      <trkpt lat="44.612310407683253" lon="9.2029700987041">
        <ele>1504.1300000000001</ele>
        <time>2019-05-22T09:42:41Z</time>
      </trkpt>
      <trkpt lat="44.612175961956382" lon="9.202937828376889">
        <ele>1502.55</ele>
        <time>2019-05-22T09:42:53Z</time>
      </trkpt>
      <trkpt lat="44.612096082419157" lon="9.202901283279061">
        <ele>1499.52</ele>
        <time>2019-05-22T09:43:05Z</time>
      </trkpt>
      <trkpt lat="44.611996924504638" lon="9.202844370156527">
        <ele>1496.49</ele>
        <time>2019-05-22T09:43:17Z</time>
      </trkpt>
      <trkpt lat="44.611897012218833" lon="9.202878400683403">
        <ele>1494.95</ele>
        <time>2019-05-22T09:43:30Z</time>
      </trkpt>
      <trkpt lat="44.611813109368086" lon="9.20289977453649">
        <ele>1493</ele>
        <time>2019-05-22T09:43:44Z</time>
      </trkpt>
      <trkpt lat="44.611761309206486" lon="9.202950987964869">
        <ele>1491.29</ele>
        <time>2019-05-22T09:43:56Z</time>
      </trkpt>
      <trkpt lat="44.611714035272598" lon="9.2029769718647">
        <ele>1490.3699999999999</ele>
        <time>2019-05-22T09:44:14Z</time>
      </trkpt>
      <trkpt lat="44.611637340858579" lon="9.203027933835983">
        <ele>1487.1500000000001</ele>
        <time>2019-05-22T09:44:29Z</time>
      </trkpt>
      <trkpt lat="44.61156508885324" lon="9.203068586066365">
        <ele>1484.99</ele>
        <time>2019-05-22T09:44:41Z</time>
      </trkpt>
      <trkpt lat="44.611482191830873" lon="9.2031254991889">
        <ele>1482.9100000000001</ele>
        <time>2019-05-22T09:44:50Z</time>
      </trkpt>
      <trkpt lat="44.611364174634218" lon="9.203160954639316">
        <ele>1480.9200000000001</ele>
        <time>2019-05-22T09:45:02Z</time>
      </trkpt>
      <trkpt lat="44.611272057518363" lon="9.203179562464356">
        <ele>1479.27</ele>
        <time>2019-05-22T09:45:13Z</time>
      </trkpt>
      <trkpt lat="44.611179688945413" lon="9.2031738627702">
        <ele>1477.0799999999999</ele>
        <time>2019-05-22T09:45:26Z</time>
      </trkpt>
      <trkpt lat="44.611099725589156" lon="9.203202025964856">
        <ele>1475.55</ele>
        <time>2019-05-22T09:45:35Z</time>
      </trkpt>
      <trkpt lat="44.611012050881982" lon="9.203171264380217">
        <ele>1473.27</ele>
        <time>2019-05-22T09:45:45Z</time>
      </trkpt>
      <trkpt lat="44.610942397266626" lon="9.203163804486394">
        <ele>1470.1900000000001</ele>
        <time>2019-05-22T09:45:55Z</time>
      </trkpt>
      <trkpt lat="44.610881879925728" lon="9.2031738627702">
        <ele>1469.5799999999999</ele>
        <time>2019-05-22T09:46:10Z</time>
      </trkpt>
      <trkpt lat="44.61075397208333" lon="9.203189201653004">
        <ele>1466.7</ele>
        <time>2019-05-22T09:46:25Z</time>
      </trkpt>
      <trkpt lat="44.610632685944438" lon="9.203210156410933">
        <ele>1464.25</ele>
        <time>2019-05-22T09:46:37Z</time>
      </trkpt>
      <trkpt lat="44.610530845820904" lon="9.203226836398244">
        <ele>1461.0699999999999</ele>
        <time>2019-05-22T09:46:49Z</time>
      </trkpt>
      <trkpt lat="44.610481141135097" lon="9.203312583267689">
        <ele>1461.1600000000001</ele>
        <time>2019-05-22T09:47:01Z</time>
      </trkpt>
      <trkpt lat="44.610397825017571" lon="9.203382739797235">
        <ele>1460.8199999999999</ele>
        <time>2019-05-22T09:47:16Z</time>
      </trkpt>
      <trkpt lat="44.610319370403886" lon="9.203406628221273">
        <ele>1458.02</ele>
        <time>2019-05-22T09:47:29Z</time>
      </trkpt>
      <trkpt lat="44.610207471996546" lon="9.203440407291055">
        <ele>1455.95</ele>
        <time>2019-05-22T09:47:43Z</time>
      </trkpt>
      <trkpt lat="44.61012071929872" lon="9.203453399240971">
        <ele>1452.8199999999999</ele>
        <time>2019-05-22T09:47:55Z</time>
      </trkpt>
      <trkpt lat="44.610044863075018" lon="9.203480556607246">
        <ele>1451.26</ele>
        <time>2019-05-22T09:48:06Z</time>
      </trkpt>
      <trkpt lat="44.609937155619264" lon="9.203545432537794">
        <ele>1449.05</ele>
        <time>2019-05-22T09:48:22Z</time>
      </trkpt>
      <trkpt lat="44.60982265882194" lon="9.203540403395891">
        <ele>1446.8199999999999</ele>
        <time>2019-05-22T09:48:33Z</time>
      </trkpt>
      <trkpt lat="44.609793070703745" lon="9.203528249636293">
        <ele>1446.1500000000001</ele>
        <time>2019-05-22T09:48:36Z</time>
      </trkpt>
      <trkpt lat="44.609663067385554" lon="9.2035589274019">
        <ele>1444.25</ele>
        <time>2019-05-22T09:48:48Z</time>
      </trkpt>
      <trkpt lat="44.609545469284058" lon="9.203552305698395">
        <ele>1442.5</ele>
        <time>2019-05-22T09:49:00Z</time>
      </trkpt>
      <trkpt lat="44.609401887282729" lon="9.203530848026276">
        <ele>1440.47</ele>
        <time>2019-05-22T09:49:12Z</time>
      </trkpt>
      <trkpt lat="44.609329802915454" lon="9.20356085523963">
        <ele>1439.24</ele>
        <time>2019-05-22T09:49:20Z</time>
      </trkpt>
      <trkpt lat="44.609241457656026" lon="9.203608129173517">
        <ele>1438.3499999999999</ele>
        <time>2019-05-22T09:49:30Z</time>
      </trkpt>
      <trkpt lat="44.60921773687005" lon="9.203603602945805">
        <ele>1438.3399999999999</ele>
        <time>2019-05-22T09:49:32Z</time>
      </trkpt>
      <trkpt lat="44.609153782948852" lon="9.203586839139462">
        <ele>1438.55</ele>
        <time>2019-05-22T09:49:39Z</time>
      </trkpt>
      <trkpt lat="44.609038112685084" lon="9.20348416082561">
        <ele>1438.48</ele>
        <time>2019-05-22T09:49:52Z</time>
      </trkpt>
      <trkpt lat="44.608972733840346" lon="9.203457590192556">
        <ele>1438.1600000000001</ele>
        <time>2019-05-22T09:50:02Z</time>
      </trkpt>
      <trkpt lat="44.608854800462723" lon="9.203417105600238">
        <ele>1438.23</ele>
        <time>2019-05-22T09:50:13Z</time>
      </trkpt>
      <trkpt lat="44.608704429119825" lon="9.203328005969524">
        <ele>1438.5699999999999</ele>
        <time>2019-05-22T09:50:29Z</time>
      </trkpt>
      <trkpt lat="44.608603091910481" lon="9.20331803150475">
        <ele>1438.6400000000001</ele>
        <time>2019-05-22T09:50:42Z</time>
      </trkpt>
      <trkpt lat="44.608506197109818" lon="9.203316355124116">
        <ele>1437.96</ele>
        <time>2019-05-22T09:50:55Z</time>
      </trkpt>
      <trkpt lat="44.608376696705818" lon="9.203267572447658">
        <ele>1436.97</ele>
        <time>2019-05-22T09:51:07Z</time>
      </trkpt>
      <trkpt lat="44.608337637037039" lon="9.203267069533467">
        <ele>1436.48</ele>
        <time>2019-05-22T09:51:11Z</time>
      </trkpt>
      <trkpt lat="44.608303271234035" lon="9.203310990706086">
        <ele>1435.25</ele>
        <time>2019-05-22T09:51:15Z</time>
      </trkpt>
      <trkpt lat="44.608166227117181" lon="9.203320797532797">
        <ele>1435.8299999999999</ele>
        <time>2019-05-22T09:51:27Z</time>
      </trkpt>
      <trkpt lat="44.608015352860093" lon="9.203274277970195">
        <ele>1434.1900000000001</ele>
        <time>2019-05-22T09:51:39Z</time>
      </trkpt>
      <trkpt lat="44.607886355370283" lon="9.203241337090731">
        <ele>1432.53</ele>
        <time>2019-05-22T09:51:51Z</time>
      </trkpt>
      <trkpt lat="44.607808822765946" lon="9.203265057876706">
        <ele>1430.78</ele>
        <time>2019-05-22T09:52:01Z</time>
      </trkpt>
      <trkpt lat="44.607705306261778" lon="9.203291712328792">
        <ele>1428.7</ele>
        <time>2019-05-22T09:52:14Z</time>
      </trkpt>
      <trkpt lat="44.607627689838409" lon="9.203386092558503">
        <ele>1426.96</ele>
        <time>2019-05-22T09:52:27Z</time>
      </trkpt>
      <trkpt lat="44.607576811686158" lon="9.203494386747479">
        <ele>1425.02</ele>
        <time>2019-05-22T09:52:38Z</time>
      </trkpt>
      <trkpt lat="44.607488550245762" lon="9.203499751165509">
        <ele>1422.8800000000001</ele>
        <time>2019-05-22T09:52:50Z</time>
      </trkpt>
      <trkpt lat="44.60735066793859" lon="9.203565465286374">
        <ele>1420.3900000000001</ele>
        <time>2019-05-22T09:53:05Z</time>
      </trkpt>
      <trkpt lat="44.607239104807377" lon="9.203620450571179">
        <ele>1417.76</ele>
        <time>2019-05-22T09:53:18Z</time>
      </trkpt>
      <trkpt lat="44.607233740389347" lon="9.203653307631612">
        <ele>1417.4300000000001</ele>
        <time>2019-05-22T09:53:21Z</time>
      </trkpt>
      <trkpt lat="44.607222843915224" lon="9.203700246289372">
        <ele>1417.48</ele>
        <time>2019-05-22T09:53:24Z</time>
      </trkpt>
      <trkpt lat="44.607137097045779" lon="9.203810887411237">
        <ele>1414.6800000000001</ele>
        <time>2019-05-22T09:53:37Z</time>
      </trkpt>
      <trkpt lat="44.606984043493867" lon="9.203835697844625">
        <ele>1412.23</ele>
        <time>2019-05-22T09:53:52Z</time>
      </trkpt>
      <trkpt lat="44.606924364343286" lon="9.203807953745127">
        <ele>1411.0599999999999</ele>
        <time>2019-05-22T09:54:03Z</time>
      </trkpt>
      <trkpt lat="44.606897877529263" lon="9.203784400597215">
        <ele>1410.51</ele>
        <time>2019-05-22T09:54:11Z</time>
      </trkpt>
      <trkpt lat="44.606786817312241" lon="9.203828824684024">
        <ele>1407.6400000000001</ele>
        <time>2019-05-22T09:54:23Z</time>
      </trkpt>
      <trkpt lat="44.606775250285864" lon="9.203834105283022">
        <ele>1407.3</ele>
        <time>2019-05-22T09:54:25Z</time>
      </trkpt>
      <trkpt lat="44.606657652184367" lon="9.203834692016244">
        <ele>1403.9400000000001</ele>
        <time>2019-05-22T09:54:39Z</time>
      </trkpt>
      <trkpt lat="44.606592524796724" lon="9.203912811353803">
        <ele>1402.47</ele>
        <time>2019-05-22T09:54:50Z</time>
      </trkpt>
      <trkpt lat="44.606549441814423" lon="9.203941561281681">
        <ele>1401.1500000000001</ele>
        <time>2019-05-22T09:54:57Z</time>
      </trkpt>
      <trkpt lat="44.606529744341969" lon="9.203930580988526">
        <ele>1400.21</ele>
        <time>2019-05-22T09:54:59Z</time>
      </trkpt>
      <trkpt lat="44.606410805135965" lon="9.203868974000216">
        <ele>1396.8299999999999</ele>
        <time>2019-05-22T09:55:10Z</time>
      </trkpt>
      <trkpt lat="44.606385575607419" lon="9.203852545469999">
        <ele>1396.45</ele>
        <time>2019-05-22T09:55:13Z</time>
      </trkpt>
      <trkpt lat="44.606325142085552" lon="9.20383938588202">
        <ele>1395.1300000000001</ele>
        <time>2019-05-22T09:55:18Z</time>
      </trkpt>
      <trkpt lat="44.60620335303247" lon="9.20379932038486">
        <ele>1392.5799999999999</ele>
        <time>2019-05-22T09:55:30Z</time>
      </trkpt>
      <trkpt lat="44.606082318350673" lon="9.203806277364492">
        <ele>1390.75</ele>
        <time>2019-05-22T09:55:42Z</time>
      </trkpt>
      <trkpt lat="44.606077373027802" lon="9.203803762793541">
        <ele>1390.6500000000001</ele>
        <time>2019-05-22T09:55:44Z</time>
      </trkpt>
      <trkpt lat="44.606013586744666" lon="9.203859502449632">
        <ele>1390.3</ele>
        <time>2019-05-22T09:56:02Z</time>
      </trkpt>
      <trkpt lat="44.606005204841495" lon="9.203911889344454">
        <ele>1389.3399999999999</ele>
        <time>2019-05-22T09:56:08Z</time>
      </trkpt>
      <trkpt lat="44.605989698320627" lon="9.203942902386189">
        <ele>1388.73</ele>
        <time>2019-05-22T09:56:10Z</time>
      </trkpt>
      <trkpt lat="44.605959020555019" lon="9.203981123864651">
        <ele>1387.46</ele>
        <time>2019-05-22T09:56:15Z</time>
      </trkpt>
      <trkpt lat="44.605896240100265" lon="9.204139541834593">
        <ele>1384.5599999999999</ele>
        <time>2019-05-22T09:56:28Z</time>
      </trkpt>
      <trkpt lat="44.605821222066879" lon="9.204226545989513">
        <ele>1382.04</ele>
        <time>2019-05-22T09:56:41Z</time>
      </trkpt>
      <trkpt lat="44.605734385550022" lon="9.204236268997192">
        <ele>1379.99</ele>
        <time>2019-05-22T09:56:49Z</time>
      </trkpt>
      <trkpt lat="44.605596922338009" lon="9.204255966469646">
        <ele>1378.9400000000001</ele>
        <time>2019-05-22T09:57:01Z</time>
      </trkpt>
      <trkpt lat="44.605466667562723" lon="9.204314555972815">
        <ele>1378.1800000000001</ele>
        <time>2019-05-22T09:57:13Z</time>
      </trkpt>
      <trkpt lat="44.60529793985188" lon="9.20441354624927">
        <ele>1378.04</ele>
        <time>2019-05-22T09:57:26Z</time>
      </trkpt>
      <trkpt lat="44.605245385318995" lon="9.204403823241592">
        <ele>1377.1400000000001</ele>
        <time>2019-05-22T09:57:39Z</time>
      </trkpt>
      <trkpt lat="44.605158800259233" lon="9.204382365569472">
        <ele>1376.1600000000001</ele>
        <time>2019-05-22T09:57:58Z</time>
      </trkpt>
      <trkpt lat="44.605045141652226" lon="9.204377001151443">
        <ele>1374.96</ele>
        <time>2019-05-22T09:58:09Z</time>
      </trkpt>
      <trkpt lat="44.604905918240547" lon="9.204405499622226">
        <ele>1373.45</ele>
        <time>2019-05-22T09:58:23Z</time>
      </trkpt>
      <trkpt lat="44.604805083945394" lon="9.204399129375815">
        <ele>1372.5</ele>
        <time>2019-05-22T09:58:32Z</time>
      </trkpt>
      <trkpt lat="44.604675248265266" lon="9.204352358356118">
        <ele>1371.0999999999999</ele>
        <time>2019-05-22T09:58:45Z</time>
      </trkpt>
      <trkpt lat="44.604544742032886" lon="9.204337690025568">
        <ele>1369.49</ele>
        <time>2019-05-22T09:59:00Z</time>
      </trkpt>
      <trkpt lat="44.604425551369786" lon="9.204323189333081">
        <ele>1368.3499999999999</ele>
        <time>2019-05-22T09:59:14Z</time>
      </trkpt>
      <trkpt lat="44.604302002117038" lon="9.204327883198857">
        <ele>1367.1300000000001</ele>
        <time>2019-05-22T09:59:26Z</time>
      </trkpt>
      <trkpt lat="44.604204688221216" lon="9.204313298687339">
        <ele>1366.0999999999999</ele>
        <time>2019-05-22T09:59:35Z</time>
      </trkpt>
      <trkpt lat="44.604058759287" lon="9.204333750531077">
        <ele>1364.53</ele>
        <time>2019-05-22T09:59:48Z</time>
      </trkpt>
      <trkpt lat="44.603937808424234" lon="9.204333499073982">
        <ele>1363.48</ele>
        <time>2019-05-22T10:00:00Z</time>
      </trkpt>
      <trkpt lat="44.603779390454292" lon="9.204335175454617">
        <ele>1362.46</ele>
        <time>2019-05-22T10:00:11Z</time>
      </trkpt>
      <trkpt lat="44.603635054081678" lon="9.204316483810544">
        <ele>1360.9300000000001</ele>
        <time>2019-05-22T10:00:25Z</time>
      </trkpt>
      <trkpt lat="44.603625247254968" lon="9.204317573457956">
        <ele>1360.71</ele>
        <time>2019-05-22T10:00:26Z</time>
      </trkpt>
      <trkpt lat="44.603537237271667" lon="9.204293014481664">
        <ele>1359.8399999999999</ele>
        <time>2019-05-22T10:00:32Z</time>
      </trkpt>
      <trkpt lat="44.603338669985533" lon="9.204266108572483">
        <ele>1357.79</ele>
        <time>2019-05-22T10:00:46Z</time>
      </trkpt>
      <trkpt lat="44.60318997502327" lon="9.204365853220224">
        <ele>1355.4000000000001</ele>
        <time>2019-05-22T10:00:59Z</time>
      </trkpt>
      <trkpt lat="44.603063492104411" lon="9.20459970831871">
        <ele>1353.05</ele>
        <time>2019-05-22T10:01:13Z</time>
      </trkpt>
      <trkpt lat="44.602991072461009" lon="9.204866252839565">
        <ele>1351.1500000000001</ele>
        <time>2019-05-22T10:01:26Z</time>
      </trkpt>
      <trkpt lat="44.602804491296411" lon="9.205020563676953">
        <ele>1350.52</ele>
        <time>2019-05-22T10:01:43Z</time>
      </trkpt>
      <trkpt lat="44.602725449949503" lon="9.205080745741725">
        <ele>1349.6099999999999</ele>
        <time>2019-05-22T10:01:56Z</time>
      </trkpt>
      <trkpt lat="44.602703237906098" lon="9.205090133473277">
        <ele>1349.6900000000001</ele>
        <time>2019-05-22T10:02:06Z</time>
      </trkpt>
      <trkpt lat="44.602651437744498" lon="9.205092396587133">
        <ele>1349.3</ele>
        <time>2019-05-22T10:02:22Z</time>
      </trkpt>
      <trkpt lat="44.602582287043333" lon="9.205117123201489">
        <ele>1348.7</ele>
        <time>2019-05-22T10:02:36Z</time>
      </trkpt>
      <trkpt lat="44.602581867948174" lon="9.205117877572775">
        <ele>1349.0599999999999</ele>
        <time>2019-05-22T10:02:53Z</time>
      </trkpt>
      <trkpt lat="44.602503580972552" lon="9.205118380486965">
        <ele>1348.0799999999999</ele>
        <time>2019-05-22T10:03:13Z</time>
      </trkpt>
      <trkpt lat="44.60246292874217" lon="9.205111674964428">
        <ele>1348.6900000000001</ele>
        <time>2019-05-22T10:03:18Z</time>
      </trkpt>
      <trkpt lat="44.602430742233992" lon="9.205110333859921">
        <ele>1348.3399999999999</ele>
        <time>2019-05-22T10:03:21Z</time>
      </trkpt>
      <trkpt lat="44.602311803027987" lon="9.205097677186132">
        <ele>1348.3</ele>
        <time>2019-05-22T10:03:33Z</time>
      </trkpt>
      <trkpt lat="44.602172076702118" lon="9.204977732151747">
        <ele>1346.98</ele>
        <time>2019-05-22T10:03:48Z</time>
      </trkpt>
      <trkpt lat="44.602001672610641" lon="9.204870779067278">
        <ele>1347.3699999999999</ele>
        <time>2019-05-22T10:04:04Z</time>
      </trkpt>
      <trkpt lat="44.601805284619331" lon="9.204848650842905">
        <ele>1344.77</ele>
        <time>2019-05-22T10:04:22Z</time>
      </trkpt>
      <trkpt lat="44.601746695116162" lon="9.204851249232888">
        <ele>1344.54</ele>
        <time>2019-05-22T10:04:36Z</time>
      </trkpt>
      <trkpt lat="44.60167963989079" lon="9.204878406599164">
        <ele>1344.0899999999999</ele>
        <time>2019-05-22T10:04:50Z</time>
      </trkpt>
      <trkpt lat="44.601531028747559" lon="9.204822750762105">
        <ele>1344.96</ele>
        <time>2019-05-22T10:07:27Z</time>
      </trkpt>
      <trkpt lat="44.601514097303152" lon="9.204836245626211">
        <ele>1345.9400000000001</ele>
        <time>2019-05-22T10:07:42Z</time>
      </trkpt>
      <trkpt lat="44.601496998220682" lon="9.204871617257595">
        <ele>1346.5599999999999</ele>
        <time>2019-05-22T10:10:40Z</time>
      </trkpt>
      <trkpt lat="44.601425752043724" lon="9.204898606985807">
        <ele>1346.8</ele>
        <time>2019-05-22T10:10:51Z</time>
      </trkpt>
      <trkpt lat="44.60127311758697" lon="9.204939594492316">
        <ele>1348.4200000000001</ele>
        <time>2019-05-22T10:11:07Z</time>
      </trkpt>
      <trkpt lat="44.601138671860099" lon="9.204985108226538">
        <ele>1350.0599999999999</ele>
        <time>2019-05-22T10:11:22Z</time>
      </trkpt>
      <trkpt lat="44.601004226133227" lon="9.20503162778914">
        <ele>1351.8900000000001</ele>
        <time>2019-05-22T10:11:37Z</time>
      </trkpt>
      <trkpt lat="44.600852094590664" lon="9.205061551183462">
        <ele>1353.6300000000001</ele>
        <time>2019-05-22T10:11:53Z</time>
      </trkpt>
      <trkpt lat="44.600702477619052" lon="9.205111255869269">
        <ele>1355.1600000000001</ele>
        <time>2019-05-22T10:12:09Z</time>
      </trkpt>
      <trkpt lat="44.600554620847106" lon="9.205182502046228">
        <ele>1357.25</ele>
        <time>2019-05-22T10:12:25Z</time>
      </trkpt>
      <trkpt lat="44.600421935319901" lon="9.205217370763421">
        <ele>1359.1400000000001</ele>
        <time>2019-05-22T10:12:40Z</time>
      </trkpt>
      <trkpt lat="44.600277179852128" lon="9.205231871455908">
        <ele>1360.6500000000001</ele>
        <time>2019-05-22T10:12:56Z</time>
      </trkpt>
      <trkpt lat="44.600088838487864" lon="9.205293646082282">
        <ele>1362.3900000000001</ele>
        <time>2019-05-22T10:13:14Z</time>
      </trkpt>
      <trkpt lat="44.599982053041458" lon="9.205281576141715">
        <ele>1364.0699999999999</ele>
        <time>2019-05-22T10:13:27Z</time>
      </trkpt>
      <trkpt lat="44.599856659770012" lon="9.205282330513001">
        <ele>1365.6800000000001</ele>
        <time>2019-05-22T10:13:39Z</time>
      </trkpt>
      <trkpt lat="44.599744509905577" lon="9.205279229208827">
        <ele>1366.8099999999999</ele>
        <time>2019-05-22T10:13:51Z</time>
      </trkpt>
      <trkpt lat="44.599670330062509" lon="9.205244611948729">
        <ele>1368.3399999999999</ele>
        <time>2019-05-22T10:14:01Z</time>
      </trkpt>
      <trkpt lat="44.599555246531963" lon="9.205256681889296">
        <ele>1368.8900000000001</ele>
        <time>2019-05-22T10:14:12Z</time>
      </trkpt>
      <trkpt lat="44.599426165223122" lon="9.205265901982784">
        <ele>1370.1600000000001</ele>
        <time>2019-05-22T10:14:24Z</time>
      </trkpt>
      <trkpt lat="44.599308986216784" lon="9.205241510644555">
        <ele>1371.71</ele>
        <time>2019-05-22T10:14:37Z</time>
      </trkpt>
      <trkpt lat="44.599203960970044" lon="9.20523832552135">
        <ele>1372.9300000000001</ele>
        <time>2019-05-22T10:14:47Z</time>
      </trkpt>
      <trkpt lat="44.599080663174391" lon="9.205229105427861">
        <ele>1374.3399999999999</ele>
        <time>2019-05-22T10:15:00Z</time>
      </trkpt>
      <trkpt lat="44.598982091993093" lon="9.205194320529699">
        <ele>1376.5</ele>
        <time>2019-05-22T10:15:13Z</time>
      </trkpt>
      <trkpt lat="44.59887932986021" lon="9.205084936693311">
        <ele>1378.0599999999999</ele>
        <time>2019-05-22T10:15:28Z</time>
      </trkpt>
      <trkpt lat="44.598790984600782" lon="9.205016205087304">
        <ele>1379.98</ele>
        <time>2019-05-22T10:15:39Z</time>
      </trkpt>
      <trkpt lat="44.59868922829628" lon="9.204935906454921">
        <ele>1381.52</ele>
        <time>2019-05-22T10:15:52Z</time>
      </trkpt>
      <trkpt lat="44.598624520003796" lon="9.204911850392819">
        <ele>1382.8099999999999</ele>
        <time>2019-05-22T10:16:02Z</time>
      </trkpt>
      <trkpt lat="44.598521925508976" lon="9.204867007210851">
        <ele>1384.29</ele>
        <time>2019-05-22T10:16:13Z</time>
      </trkpt>
      <trkpt lat="44.598399884998798" lon="9.204826354980469">
        <ele>1385.5899999999999</ele>
        <time>2019-05-22T10:16:26Z</time>
      </trkpt>
      <trkpt lat="44.598292680457234" lon="9.204779081046581">
        <ele>1387.0899999999999</ele>
        <time>2019-05-22T10:16:39Z</time>
      </trkpt>
      <trkpt lat="44.598172064870596" lon="9.204712025821209">
        <ele>1387.9000000000001</ele>
        <time>2019-05-22T10:16:53Z</time>
      </trkpt>
      <trkpt lat="44.598163096234202" lon="9.204704985022545">
        <ele>1388.1700000000001</ele>
        <time>2019-05-22T10:16:54Z</time>
      </trkpt>
      <trkpt lat="44.598132334649563" lon="9.204609012231231">
        <ele>1389.9300000000001</ele>
        <time>2019-05-22T10:19:01Z</time>
      </trkpt>
      <trkpt lat="44.598083551973104" lon="9.204611694440246">
        <ele>1389.95</ele>
        <time>2019-05-22T10:19:17Z</time>
      </trkpt>
      <trkpt lat="44.598000487312675" lon="9.204664919525385">
        <ele>1390.74</ele>
        <time>2019-05-22T10:19:25Z</time>
      </trkpt>
      <trkpt lat="44.597896551713347" lon="9.204663662239909">
        <ele>1390.6500000000001</ele>
        <time>2019-05-22T10:19:33Z</time>
      </trkpt>
      <trkpt lat="44.597682310268283" lon="9.204551763832569">
        <ele>1391.3399999999999</ele>
        <time>2019-05-22T10:19:52Z</time>
      </trkpt>
      <trkpt lat="44.597504194825888" lon="9.204418072476983">
        <ele>1391.4400000000001</ele>
        <time>2019-05-22T10:20:09Z</time>
      </trkpt>
      <trkpt lat="44.597381986677647" lon="9.204331235960126">
        <ele>1391.04</ele>
        <time>2019-05-22T10:20:19Z</time>
      </trkpt>
      <trkpt lat="44.597236141562462" lon="9.204201484099031">
        <ele>1391.1500000000001</ele>
        <time>2019-05-22T10:20:32Z</time>
      </trkpt>
      <trkpt lat="44.597026342526078" lon="9.204020770266652">
        <ele>1390.6900000000001</ele>
        <time>2019-05-22T10:20:49Z</time>
      </trkpt>
      <trkpt lat="44.596838336437941" lon="9.203930078074336">
        <ele>1390.3199999999999</ele>
        <time>2019-05-22T10:21:05Z</time>
      </trkpt>
      <trkpt lat="44.59671420045197" lon="9.203881965950131">
        <ele>1391.77</ele>
        <time>2019-05-22T10:21:16Z</time>
      </trkpt>
      <trkpt lat="44.596551507711411" lon="9.203834692016244">
        <ele>1391.75</ele>
        <time>2019-05-22T10:21:27Z</time>
      </trkpt>
      <trkpt lat="44.596411781385541" lon="9.203857490792871">
        <ele>1391.95</ele>
        <time>2019-05-22T10:21:39Z</time>
      </trkpt>
      <trkpt lat="44.596194941550493" lon="9.20389361679554">
        <ele>1393.1800000000001</ele>
        <time>2019-05-22T10:21:55Z</time>
      </trkpt>
      <trkpt lat="44.595991764217615" lon="9.203844163566828">
        <ele>1393.1800000000001</ele>
        <time>2019-05-22T10:22:11Z</time>
      </trkpt>
      <trkpt lat="44.595825718715787" lon="9.20372799038887">
        <ele>1393.97</ele>
        <time>2019-05-22T10:22:25Z</time>
      </trkpt>
      <trkpt lat="44.595598736777902" lon="9.203576697036624">
        <ele>1394.6600000000001</ele>
        <time>2019-05-22T10:22:44Z</time>
      </trkpt>
      <trkpt lat="44.595359517261386" lon="9.203517520800233">
        <ele>1395.77</ele>
        <time>2019-05-22T10:23:02Z</time>
      </trkpt>
      <trkpt lat="44.595147455111146" lon="9.203578708693385">
        <ele>1396.1300000000001</ele>
        <time>2019-05-22T10:23:18Z</time>
      </trkpt>
      <trkpt lat="44.594896081835032" lon="9.203670993447304">
        <ele>1396.47</ele>
        <time>2019-05-22T10:23:37Z</time>
      </trkpt>
      <trkpt lat="44.594715116545558" lon="9.203696893528104">
        <ele>1397.22</ele>
        <time>2019-05-22T10:23:51Z</time>
      </trkpt>
      <trkpt lat="44.59455200470984" lon="9.203697061166167">
        <ele>1396.2</ele>
        <time>2019-05-22T10:24:05Z</time>
      </trkpt>
      <trkpt lat="44.594375900924206" lon="9.203705107793212">
        <ele>1392.95</ele>
        <time>2019-05-22T10:24:18Z</time>
      </trkpt>
      <trkpt lat="44.594361316412687" lon="9.203704353421927">
        <ele>1398.72</ele>
        <time>2019-05-22T10:24:19Z</time>
      </trkpt>
      <trkpt lat="44.594339774921536" lon="9.203703179955483">
        <ele>1393.0899999999999</ele>
        <time>2019-05-22T10:24:21Z</time>
      </trkpt>
      <trkpt lat="44.594325609505177" lon="9.2037040181458">
        <ele>1396.5699999999999</ele>
        <time>2019-05-22T10:24:22Z</time>
      </trkpt>
      <trkpt lat="44.594255536794662" lon="9.203707790002227">
        <ele>1396</ele>
        <time>2019-05-22T10:24:28Z</time>
      </trkpt>
      <trkpt lat="44.593956805765629" lon="9.203736037015915">
        <ele>1396.5</ele>
        <time>2019-05-22T10:24:47Z</time>
      </trkpt>
      <trkpt lat="44.593938365578651" lon="9.203722625970841">
        <ele>1395.3499999999999</ele>
        <time>2019-05-22T10:24:49Z</time>
      </trkpt>
      <trkpt lat="44.59382051602006" lon="9.20367275364697">
        <ele>1394.3699999999999</ele>
        <time>2019-05-22T10:25:01Z</time>
      </trkpt>
      <trkpt lat="44.593626223504543" lon="9.203633610159159">
        <ele>1393.1700000000001</ele>
        <time>2019-05-22T10:25:15Z</time>
      </trkpt>
      <trkpt lat="44.593579368665814" lon="9.203591281548142">
        <ele>1392.75</ele>
        <time>2019-05-22T10:25:19Z</time>
      </trkpt>
      <trkpt lat="44.593524551019073" lon="9.203562615439296">
        <ele>1392.45</ele>
        <time>2019-05-22T10:25:23Z</time>
      </trkpt>
      <trkpt lat="44.593309136107564" lon="9.20339715667069">
        <ele>1390.75</ele>
        <time>2019-05-22T10:25:41Z</time>
      </trkpt>
      <trkpt lat="44.592954497784376" lon="9.203357258811593">
        <ele>1389.8900000000001</ele>
        <time>2019-05-22T10:26:03Z</time>
      </trkpt>
      <trkpt lat="44.59278074093163" lon="9.203378465026617">
        <ele>1387.8</ele>
        <time>2019-05-22T10:26:15Z</time>
      </trkpt>
      <trkpt lat="44.592565996572375" lon="9.2034069634974">
        <ele>1385.9300000000001</ele>
        <time>2019-05-22T10:26:30Z</time>
      </trkpt>
      <trkpt lat="44.592344630509615" lon="9.203516179695725">
        <ele>1383.9400000000001</ele>
        <time>2019-05-22T10:26:46Z</time>
      </trkpt>
      <trkpt lat="44.592183111235499" lon="9.203634196892381">
        <ele>1382.6099999999999</ele>
        <time>2019-05-22T10:26:59Z</time>
      </trkpt>
      <trkpt lat="44.591990411281586" lon="9.203699994832277">
        <ele>1381.3599999999999</ele>
        <time>2019-05-22T10:27:12Z</time>
      </trkpt>
      <trkpt lat="44.59173996001482" lon="9.203800996765494">
        <ele>1379.6300000000001</ele>
        <time>2019-05-22T10:27:32Z</time>
      </trkpt>
      <trkpt lat="44.591507529839873" lon="9.204023284837604">
        <ele>1377.98</ele>
        <time>2019-05-22T10:27:49Z</time>
      </trkpt>
      <trkpt lat="44.591309046372771" lon="9.20419804751873">
        <ele>1376.6700000000001</ele>
        <time>2019-05-22T10:28:05Z</time>
      </trkpt>
      <trkpt lat="44.591103019192815" lon="9.204391669481993">
        <ele>1375.8900000000001</ele>
        <time>2019-05-22T10:28:24Z</time>
      </trkpt>
      <trkpt lat="44.590880982577801" lon="9.204554948955774">
        <ele>1375.8900000000001</ele>
        <time>2019-05-22T10:28:42Z</time>
      </trkpt>
      <trkpt lat="44.590727342292666" lon="9.204485546797514">
        <ele>1374.75</ele>
        <time>2019-05-22T10:28:56Z</time>
      </trkpt>
      <trkpt lat="44.590679313987494" lon="9.204398794099689">
        <ele>1374.2</ele>
        <time>2019-05-22T10:29:02Z</time>
      </trkpt>
      <trkpt lat="44.590638745576143" lon="9.204333750531077">
        <ele>1373.7</ele>
        <time>2019-05-22T10:29:15Z</time>
      </trkpt>
      <trkpt lat="44.590639751404524" lon="9.204327967017889">
        <ele>1374.21</ele>
        <time>2019-05-22T10:29:21Z</time>
      </trkpt>
      <trkpt lat="44.590698843821883" lon="9.204409271478653">
        <ele>1374.3699999999999</ele>
        <time>2019-05-22T10:29:32Z</time>
      </trkpt>
      <trkpt lat="44.590719295665622" lon="9.204393178224564">
        <ele>1374.6800000000001</ele>
        <time>2019-05-22T10:29:37Z</time>
      </trkpt>
      <trkpt lat="44.590714182704687" lon="9.204327464103699">
        <ele>1376.0699999999999</ele>
        <time>2019-05-22T10:29:42Z</time>
      </trkpt>
      <trkpt lat="44.590660957619548" lon="9.204168040305376">
        <ele>1377.5999999999999</ele>
        <time>2019-05-22T10:29:54Z</time>
      </trkpt>
      <trkpt lat="44.590650396421552" lon="9.204141469672322">
        <ele>1377.46</ele>
        <time>2019-05-22T10:29:56Z</time>
      </trkpt>
      <trkpt lat="44.590667830780149" lon="9.20404658652842">
        <ele>1379.97</ele>
        <time>2019-05-22T10:30:08Z</time>
      </trkpt>
      <trkpt lat="44.59072801284492" lon="9.204059913754463">
        <ele>1382.6800000000001</ele>
        <time>2019-05-22T10:30:21Z</time>
      </trkpt>
      <trkpt lat="44.590732790529728" lon="9.204019596800208">
        <ele>1381.8299999999999</ele>
        <time>2019-05-22T10:30:31Z</time>
      </trkpt>
      <trkpt lat="44.590706471353769" lon="9.203968718647957">
        <ele>1381.3599999999999</ele>
        <time>2019-05-22T10:30:35Z</time>
      </trkpt>
      <trkpt lat="44.59063027985394" lon="9.203889844939113">
        <ele>1379.3399999999999</ele>
        <time>2019-05-22T10:30:44Z</time>
      </trkpt>
      <trkpt lat="44.590515615418553" lon="9.203769816085696">
        <ele>1376.9100000000001</ele>
        <time>2019-05-22T10:30:56Z</time>
      </trkpt>
      <trkpt lat="44.590399274602532" lon="9.203582396730781">
        <ele>1375.78</ele>
        <time>2019-05-22T10:31:11Z</time>
      </trkpt>
      <trkpt lat="44.590471107512712" lon="9.203645512461662">
        <ele>1394.0799999999999</ele>
        <time>2019-05-22T11:14:31Z</time>
      </trkpt>
      <trkpt lat="44.590533804148436" lon="9.203774845227599">
        <ele>1394.6600000000001</ele>
        <time>2019-05-22T11:14:44Z</time>
      </trkpt>
      <trkpt lat="44.590608403086662" lon="9.203852796927095">
        <ele>1396.24</ele>
        <time>2019-05-22T11:14:56Z</time>
      </trkpt>
      <trkpt lat="44.590674703940749" lon="9.203905100002885">
        <ele>1397.8099999999999</ele>
        <time>2019-05-22T11:15:09Z</time>
      </trkpt>
      <trkpt lat="44.590724995359778" lon="9.203961426392198">
        <ele>1399.3</ele>
        <time>2019-05-22T11:15:20Z</time>
      </trkpt>
      <trkpt lat="44.590784925967455" lon="9.204087322577834">
        <ele>1400.95</ele>
        <time>2019-05-22T11:15:34Z</time>
      </trkpt>
      <trkpt lat="44.590848293155432" lon="9.204136356711388">
        <ele>1402.1800000000001</ele>
        <time>2019-05-22T11:15:46Z</time>
      </trkpt>
      <trkpt lat="44.590920461341739" lon="9.204173823818564">
        <ele>1403</ele>
        <time>2019-05-22T11:16:00Z</time>
      </trkpt>
      <trkpt lat="44.590981816872954" lon="9.204173739999533">
        <ele>1404.74</ele>
        <time>2019-05-22T11:16:13Z</time>
      </trkpt>
      <trkpt lat="44.591035880148411" lon="9.204093441367149">
        <ele>1406.8699999999999</ele>
        <time>2019-05-22T11:16:28Z</time>
      </trkpt>
      <trkpt lat="44.591059349477291" lon="9.204020267352462">
        <ele>1408.45</ele>
        <time>2019-05-22T11:16:41Z</time>
      </trkpt>
      <trkpt lat="44.591094888746738" lon="9.203938627615571">
        <ele>1410.3800000000001</ele>
        <time>2019-05-22T11:16:54Z</time>
      </trkpt>
      <trkpt lat="44.591110646724701" lon="9.203895460814238">
        <ele>1410.9200000000001</ele>
        <time>2019-05-22T11:17:05Z</time>
      </trkpt>
      <trkpt lat="44.591111652553082" lon="9.203865621238947">
        <ele>1411.3800000000001</ele>
        <time>2019-05-22T11:17:17Z</time>
      </trkpt>
      <trkpt lat="44.591136714443564" lon="9.203807618469">
        <ele>1411.73</ele>
        <time>2019-05-22T11:17:29Z</time>
      </trkpt>
      <trkpt lat="44.591215001419187" lon="9.203752800822258">
        <ele>1412.78</ele>
        <time>2019-05-22T11:17:42Z</time>
      </trkpt>
      <trkpt lat="44.591249534860253" lon="9.203729750588536">
        <ele>1413.01</ele>
        <time>2019-05-22T11:17:52Z</time>
      </trkpt>
      <trkpt lat="44.591259174048901" lon="9.20371625572443">
        <ele>1413.0999999999999</ele>
        <time>2019-05-22T11:17:54Z</time>
      </trkpt>
      <trkpt lat="44.591388003900647" lon="9.203550545498729">
        <ele>1414.4100000000001</ele>
        <time>2019-05-22T11:18:12Z</time>
      </trkpt>
      <trkpt lat="44.591371240094304" lon="9.203416435047984">
        <ele>1417.1800000000001</ele>
        <time>2019-05-22T11:18:27Z</time>
      </trkpt>
      <trkpt lat="44.591355146840215" lon="9.203376956284046">
        <ele>1417.6099999999999</ele>
        <time>2019-05-22T11:18:31Z</time>
      </trkpt>
      <trkpt lat="44.591332599520683" lon="9.203234547749162">
        <ele>1420.27</ele>
        <time>2019-05-22T11:18:46Z</time>
      </trkpt>
      <trkpt lat="44.591408874839544" lon="9.203144861385226">
        <ele>1423.01</ele>
        <time>2019-05-22T11:19:00Z</time>
      </trkpt>
      <trkpt lat="44.59148976020515" lon="9.203045535832644">
        <ele>1424.29</ele>
        <time>2019-05-22T11:19:14Z</time>
      </trkpt>
      <trkpt lat="44.591528987511992" lon="9.202930619940162">
        <ele>1426.97</ele>
        <time>2019-05-22T11:19:29Z</time>
      </trkpt>
      <trkpt lat="44.59157575853169" lon="9.202844789251685">
        <ele>1429.0999999999999</ele>
        <time>2019-05-22T11:19:42Z</time>
      </trkpt>
      <trkpt lat="44.591631162911654" lon="9.20274781063199">
        <ele>1431.1300000000001</ele>
        <time>2019-05-22T11:19:55Z</time>
      </trkpt>
      <trkpt lat="44.591688830405474" lon="9.202622082084417">
        <ele>1433.3599999999999</ele>
        <time>2019-05-22T11:20:09Z</time>
      </trkpt>
      <trkpt lat="44.591709114611149" lon="9.202578831464052">
        <ele>1433.99</ele>
        <time>2019-05-22T11:20:13Z</time>
      </trkpt>
      <trkpt lat="44.591782288625836" lon="9.202424101531506">
        <ele>1434.22</ele>
        <time>2019-05-22T11:20:26Z</time>
      </trkpt>
      <trkpt lat="44.591865101829171" lon="9.202294433489442">
        <ele>1435.3699999999999</ele>
        <time>2019-05-22T11:20:39Z</time>
      </trkpt>
      <trkpt lat="44.591959984973073" lon="9.202214553952217">
        <ele>1436.3</ele>
        <time>2019-05-22T11:20:51Z</time>
      </trkpt>
      <trkpt lat="44.592074481770396" lon="9.20208178460598">
        <ele>1437.9400000000001</ele>
        <time>2019-05-22T11:21:06Z</time>
      </trkpt>
      <trkpt lat="44.592148158699274" lon="9.201957732439041">
        <ele>1439.6900000000001</ele>
        <time>2019-05-22T11:21:20Z</time>
      </trkpt>
      <trkpt lat="44.592198198661208" lon="9.201820939779282">
        <ele>1442.1700000000001</ele>
        <time>2019-05-22T11:21:35Z</time>
      </trkpt>
      <trkpt lat="44.592220243066549" lon="9.201683476567268">
        <ele>1443.9400000000001</ele>
        <time>2019-05-22T11:21:49Z</time>
      </trkpt>
      <trkpt lat="44.59227355197072" lon="9.201541487127543">
        <ele>1445.9400000000001</ele>
        <time>2019-05-22T11:22:03Z</time>
      </trkpt>
      <trkpt lat="44.592287968844175" lon="9.201469151303172">
        <ele>1446.27</ele>
        <time>2019-05-22T11:22:09Z</time>
      </trkpt>
      <trkpt lat="44.592315712943673" lon="9.201275445520878">
        <ele>1447.9100000000001</ele>
        <time>2019-05-22T11:22:25Z</time>
      </trkpt>
      <trkpt lat="44.592344462871552" lon="9.201095150783658">
        <ele>1448.9100000000001</ele>
        <time>2019-05-22T11:22:39Z</time>
      </trkpt>
      <trkpt lat="44.592340858653188" lon="9.200881747528911">
        <ele>1450.5999999999999</ele>
        <time>2019-05-22T11:22:55Z</time>
      </trkpt>
      <trkpt lat="44.592346139252186" lon="9.200732549652457">
        <ele>1452.4100000000001</ele>
        <time>2019-05-22T11:23:08Z</time>
      </trkpt>
      <trkpt lat="44.592348486185074" lon="9.200526941567659">
        <ele>1453.5799999999999</ele>
        <time>2019-05-22T11:23:23Z</time>
      </trkpt>
      <trkpt lat="44.592348150908947" lon="9.200404062867165">
        <ele>1450.8699999999999</ele>
        <time>2019-05-22T11:23:31Z</time>
      </trkpt>
      <trkpt lat="44.592344295233488" lon="9.200320327654481">
        <ele>1453.55</ele>
        <time>2019-05-22T11:23:36Z</time>
      </trkpt>
      <trkpt lat="44.592326274141669" lon="9.200073312968016">
        <ele>1453.53</ele>
        <time>2019-05-22T11:23:52Z</time>
      </trkpt>
      <trkpt lat="44.592320071533322" lon="9.200035762041807">
        <ele>1454.47</ele>
        <time>2019-05-22T11:23:54Z</time>
      </trkpt>
      <trkpt lat="44.592309929430485" lon="9.199972059577704">
        <ele>1454</ele>
        <time>2019-05-22T11:23:58Z</time>
      </trkpt>
      <trkpt lat="44.592348653823137" lon="9.199746754020453">
        <ele>1454.6199999999999</ele>
        <time>2019-05-22T11:24:12Z</time>
      </trkpt>
      <trkpt lat="44.592411601915956" lon="9.199524382129312">
        <ele>1455.0799999999999</ele>
        <time>2019-05-22T11:24:27Z</time>
      </trkpt>
      <trkpt lat="44.592436160892248" lon="9.199430337175727">
        <ele>1455.3</ele>
        <time>2019-05-22T11:24:36Z</time>
      </trkpt>
      <trkpt lat="44.592447057366371" lon="9.199236296117306">
        <ele>1455.95</ele>
        <time>2019-05-22T11:24:49Z</time>
      </trkpt>
      <trkpt lat="44.592424761503935" lon="9.199016187340021">
        <ele>1456.8399999999999</ele>
        <time>2019-05-22T11:25:03Z</time>
      </trkpt>
      <trkpt lat="44.592375056818128" lon="9.198779482394457">
        <ele>1456.53</ele>
        <time>2019-05-22T11:25:17Z</time>
      </trkpt>
      <trkpt lat="44.592301463708282" lon="9.19854705221951">
        <ele>1455.96</ele>
        <time>2019-05-22T11:25:32Z</time>
      </trkpt>
      <trkpt lat="44.592208508402109" lon="9.198383186012507">
        <ele>1455.5999999999999</ele>
        <time>2019-05-22T11:25:44Z</time>
      </trkpt>
      <trkpt lat="44.592059226706624" lon="9.198087137192488">
        <ele>1456.04</ele>
        <time>2019-05-22T11:26:04Z</time>
      </trkpt>
      <trkpt lat="44.591981777921319" lon="9.197817910462618">
        <ele>1456.3699999999999</ele>
        <time>2019-05-22T11:26:21Z</time>
      </trkpt>
      <trkpt lat="44.591947579756379" lon="9.197599142789841">
        <ele>1456.4300000000001</ele>
        <time>2019-05-22T11:26:36Z</time>
      </trkpt>
      <trkpt lat="44.591930229216814" lon="9.197488585487008">
        <ele>1456.3499999999999</ele>
        <time>2019-05-22T11:26:51Z</time>
      </trkpt>
      <trkpt lat="44.591928217560053" lon="9.197450615465641">
        <ele>1456.5</ele>
        <time>2019-05-22T11:27:04Z</time>
      </trkpt>
      <trkpt lat="44.591935845091939" lon="9.19739437289536">
        <ele>1456.02</ele>
        <time>2019-05-22T11:27:17Z</time>
      </trkpt>
      <trkpt lat="44.591934001073241" lon="9.19738900847733">
        <ele>1456</ele>
        <time>2019-05-22T11:27:47Z</time>
      </trkpt>
      <trkpt lat="44.591928636655211" lon="9.197359839454293">
        <ele>1455.77</ele>
        <time>2019-05-22T11:28:06Z</time>
      </trkpt>
      <trkpt lat="44.591928049921989" lon="9.19735623523593">
        <ele>1455.74</ele>
        <time>2019-05-22T11:28:22Z</time>
      </trkpt>
      <trkpt lat="44.591933749616146" lon="9.197346093133092">
        <ele>1455.5799999999999</ele>
        <time>2019-05-22T11:28:28Z</time>
      </trkpt>
      <trkpt lat="44.591955123469234" lon="9.197090780362487">
        <ele>1455.4300000000001</ele>
        <time>2019-05-22T11:28:43Z</time>
      </trkpt>
      <trkpt lat="44.591978257521987" lon="9.196933032944799">
        <ele>1455.25</ele>
        <time>2019-05-22T11:28:53Z</time>
      </trkpt>
      <trkpt lat="44.591987226158381" lon="9.196867235004902">
        <ele>1455.1700000000001</ele>
        <time>2019-05-22T11:28:57Z</time>
      </trkpt>
      <trkpt lat="44.59201505407691" lon="9.196795234456658">
        <ele>1455.48</ele>
        <time>2019-05-22T11:29:02Z</time>
      </trkpt>
      <trkpt lat="44.592022011056542" lon="9.196766400709748">
        <ele>1455.3699999999999</ele>
        <time>2019-05-22T11:29:04Z</time>
      </trkpt>
      <trkpt lat="44.592010611668229" lon="9.196577137336135">
        <ele>1455.78</ele>
        <time>2019-05-22T11:29:17Z</time>
      </trkpt>
      <trkpt lat="44.592028381302953" lon="9.196358202025294">
        <ele>1455.9200000000001</ele>
        <time>2019-05-22T11:29:30Z</time>
      </trkpt>
      <trkpt lat="44.592050593346357" lon="9.196135075762868">
        <ele>1456.1400000000001</ele>
        <time>2019-05-22T11:29:44Z</time>
      </trkpt>
      <trkpt lat="44.592018825933337" lon="9.195941369980574">
        <ele>1456.5599999999999</ele>
        <time>2019-05-22T11:29:57Z</time>
      </trkpt>
      <trkpt lat="44.592000134289265" lon="9.195728385820985">
        <ele>1457.1700000000001</ele>
        <time>2019-05-22T11:30:10Z</time>
      </trkpt>
      <trkpt lat="44.591981610283256" lon="9.195630066096783">
        <ele>1457.4000000000001</ele>
        <time>2019-05-22T11:30:19Z</time>
      </trkpt>
      <trkpt lat="44.591983621940017" lon="9.195461506024003">
        <ele>1455.73</ele>
        <time>2019-05-22T11:30:30Z</time>
      </trkpt>
      <trkpt lat="44.591962164267898" lon="9.195287078619003">
        <ele>1453.6900000000001</ele>
        <time>2019-05-22T11:30:42Z</time>
      </trkpt>
      <trkpt lat="44.591896198689938" lon="9.195135533809662">
        <ele>1451.96</ele>
        <time>2019-05-22T11:30:55Z</time>
      </trkpt>
      <trkpt lat="44.591851020231843" lon="9.194991532713175">
        <ele>1451.4000000000001</ele>
        <time>2019-05-22T11:31:06Z</time>
      </trkpt>
      <trkpt lat="44.591810200363398" lon="9.194802017882466">
        <ele>1452.8499999999999</ele>
        <time>2019-05-22T11:31:19Z</time>
      </trkpt>
      <trkpt lat="44.591799136251211" lon="9.194682156667113">
        <ele>1452.9300000000001</ele>
        <time>2019-05-22T11:31:25Z</time>
      </trkpt>
      <trkpt lat="44.5917893294245" lon="9.194630021229386">
        <ele>1453.24</ele>
        <time>2019-05-22T11:31:28Z</time>
      </trkpt>
      <trkpt lat="44.591766865924001" lon="9.194440422579646">
        <ele>1452.6300000000001</ele>
        <time>2019-05-22T11:31:37Z</time>
      </trkpt>
      <trkpt lat="44.591768374666572" lon="9.194395327940583">
        <ele>1452.9000000000001</ele>
        <time>2019-05-22T11:31:40Z</time>
      </trkpt>
      <trkpt lat="44.591789413243532" lon="9.194229701533914">
        <ele>1454.0699999999999</ele>
        <time>2019-05-22T11:31:53Z</time>
      </trkpt>
      <trkpt lat="44.591784300282598" lon="9.194162059575319">
        <ele>1454.05</ele>
        <time>2019-05-22T11:31:58Z</time>
      </trkpt>
      <trkpt lat="44.591830568388104" lon="9.194023758172989">
        <ele>1454.0599999999999</ele>
        <time>2019-05-22T11:32:10Z</time>
      </trkpt>
      <trkpt lat="44.59189485758543" lon="9.193838350474834">
        <ele>1456.6700000000001</ele>
        <time>2019-05-22T11:32:27Z</time>
      </trkpt>
      <trkpt lat="44.59194271825254" lon="9.193695103749633">
        <ele>1458.8299999999999</ele>
        <time>2019-05-22T11:32:42Z</time>
      </trkpt>
      <trkpt lat="44.591903490945697" lon="9.19351514428854">
        <ele>1458.99</ele>
        <time>2019-05-22T11:32:54Z</time>
      </trkpt>
      <trkpt lat="44.591895192861557" lon="9.193499218672514">
        <ele>1458.8199999999999</ele>
        <time>2019-05-22T11:32:55Z</time>
      </trkpt>
      <trkpt lat="44.591836938634515" lon="9.193250862881541">
        <ele>1459.2</ele>
        <time>2019-05-22T11:33:11Z</time>
      </trkpt>
      <trkpt lat="44.591766111552715" lon="9.192956490442157">
        <ele>1459.24</ele>
        <time>2019-05-22T11:33:29Z</time>
      </trkpt>
      <trkpt lat="44.591686232015491" lon="9.192806202918291">
        <ele>1459.9400000000001</ele>
        <time>2019-05-22T11:33:43Z</time>
      </trkpt>
      <trkpt lat="44.591664355248213" lon="9.192779129371047">
        <ele>1459.8299999999999</ele>
        <time>2019-05-22T11:33:46Z</time>
      </trkpt>
      <trkpt lat="44.591603670269251" lon="9.192629177123308">
        <ele>1461.01</ele>
        <time>2019-05-22T11:33:59Z</time>
      </trkpt>
      <trkpt lat="44.591570561751723" lon="9.192462041974068">
        <ele>1462.5999999999999</ele>
        <time>2019-05-22T11:34:13Z</time>
      </trkpt>
      <trkpt lat="44.591578021645546" lon="9.192410996183753">
        <ele>1463.3</ele>
        <time>2019-05-22T11:34:17Z</time>
      </trkpt>
      <trkpt lat="44.591639377176762" lon="9.192225839942694">
        <ele>1464.0599999999999</ele>
        <time>2019-05-22T11:34:31Z</time>
      </trkpt>
      <trkpt lat="44.591721938923001" lon="9.192031966522336">
        <ele>1464.8199999999999</ele>
        <time>2019-05-22T11:34:45Z</time>
      </trkpt>
      <trkpt lat="44.591809613630176" lon="9.191820826381445">
        <ele>1464.9000000000001</ele>
        <time>2019-05-22T11:35:00Z</time>
      </trkpt>
      <trkpt lat="44.591891001909971" lon="9.191603315994144">
        <ele>1465.4100000000001</ele>
        <time>2019-05-22T11:35:15Z</time>
      </trkpt>
      <trkpt lat="44.591977335512638" lon="9.19137348420918">
        <ele>1464.9100000000001</ele>
        <time>2019-05-22T11:35:30Z</time>
      </trkpt>
      <trkpt lat="44.592056293040514" lon="9.191142814233899">
        <ele>1462.5599999999999</ele>
        <time>2019-05-22T11:35:45Z</time>
      </trkpt>
      <trkpt lat="44.592127371579409" lon="9.190944749861956">
        <ele>1461.99</ele>
        <time>2019-05-22T11:35:58Z</time>
      </trkpt>
      <trkpt lat="44.592097532004118" lon="9.19068549759686">
        <ele>1461.1199999999999</ele>
        <time>2019-05-22T11:36:13Z</time>
      </trkpt>
      <trkpt lat="44.592003654688597" lon="9.190470082685351">
        <ele>1461.6900000000001</ele>
        <time>2019-05-22T11:36:29Z</time>
      </trkpt>
      <trkpt lat="44.591917572543025" lon="9.190284088253975">
        <ele>1461.73</ele>
        <time>2019-05-22T11:36:44Z</time>
      </trkpt>
      <trkpt lat="44.591836184263229" lon="9.190116114914417">
        <ele>1463.73</ele>
        <time>2019-05-22T11:36:58Z</time>
      </trkpt>
      <trkpt lat="44.591766782104969" lon="9.189969012513757">
        <ele>1465.1900000000001</ele>
        <time>2019-05-22T11:37:11Z</time>
      </trkpt>
      <trkpt lat="44.591676592826843" lon="9.189840937033296">
        <ele>1466.5699999999999</ele>
        <time>2019-05-22T11:37:25Z</time>
      </trkpt>
      <trkpt lat="44.591579446569085" lon="9.189706323668361">
        <ele>1467.98</ele>
        <time>2019-05-22T11:37:40Z</time>
      </trkpt>
      <trkpt lat="44.591475343331695" lon="9.189542792737484">
        <ele>1469.9100000000001</ele>
        <time>2019-05-22T11:37:57Z</time>
      </trkpt>
      <trkpt lat="44.591407366096973" lon="9.189378758892417">
        <ele>1471.8900000000001</ele>
        <time>2019-05-22T11:38:13Z</time>
      </trkpt>
      <trkpt lat="44.591360008344054" lon="9.189204582944512">
        <ele>1473.6800000000001</ele>
        <time>2019-05-22T11:38:29Z</time>
      </trkpt>
      <trkpt lat="44.591328240931034" lon="9.189044991508126">
        <ele>1475.04</ele>
        <time>2019-05-22T11:38:43Z</time>
      </trkpt>
      <trkpt lat="44.591307369992137" lon="9.188892608508468">
        <ele>1476.46</ele>
        <time>2019-05-22T11:38:56Z</time>
      </trkpt>
      <trkpt lat="44.591277278959751" lon="9.188798647373915">
        <ele>1476.27</ele>
        <time>2019-05-22T11:39:05Z</time>
      </trkpt>
      <trkpt lat="44.591271327808499" lon="9.188659340143204">
        <ele>1477.48</ele>
        <time>2019-05-22T11:39:16Z</time>
      </trkpt>
      <trkpt lat="44.591298652812839" lon="9.188529504463077">
        <ele>1479.0799999999999</ele>
        <time>2019-05-22T11:39:29Z</time>
      </trkpt>
      <trkpt lat="44.591324971988797" lon="9.188382904976606">
        <ele>1480.52</ele>
        <time>2019-05-22T11:39:43Z</time>
      </trkpt>
      <trkpt lat="44.591331090778112" lon="9.18829464353621">
        <ele>1480.6300000000001</ele>
        <time>2019-05-22T11:39:49Z</time>
      </trkpt>
      <trkpt lat="44.591325391083956" lon="9.188267653807998">
        <ele>1480.5799999999999</ele>
        <time>2019-05-22T11:39:51Z</time>
      </trkpt>
      <trkpt lat="44.591376604512334" lon="9.188041342422366">
        <ele>1481.78</ele>
        <time>2019-05-22T11:40:07Z</time>
      </trkpt>
      <trkpt lat="44.59142136387527" lon="9.187848474830389">
        <ele>1483.6500000000001</ele>
        <time>2019-05-22T11:40:23Z</time>
      </trkpt>
      <trkpt lat="44.591429829597473" lon="9.187829028815031">
        <ele>1484.05</ele>
        <time>2019-05-22T11:40:25Z</time>
      </trkpt>
      <trkpt lat="44.591485150158405" lon="9.18770874850452">
        <ele>1485.79</ele>
        <time>2019-05-22T11:40:37Z</time>
      </trkpt>
      <trkpt lat="44.591489257290959" lon="9.187684105709195">
        <ele>1485.76</ele>
        <time>2019-05-22T11:40:39Z</time>
      </trkpt>
      <trkpt lat="44.591551283374429" lon="9.187412783503532">
        <ele>1485.0899999999999</ele>
        <time>2019-05-22T11:40:57Z</time>
      </trkpt>
      <trkpt lat="44.591614231467247" lon="9.18722846545279">
        <ele>1484.46</ele>
        <time>2019-05-22T11:41:09Z</time>
      </trkpt>
      <trkpt lat="44.591631079092622" lon="9.187125116586685">
        <ele>1485.54</ele>
        <time>2019-05-22T11:41:16Z</time>
      </trkpt>
      <trkpt lat="44.591711713001132" lon="9.18689033947885">
        <ele>1484.02</ele>
        <time>2019-05-22T11:41:32Z</time>
      </trkpt>
      <trkpt lat="44.591743815690279" lon="9.186679618433118">
        <ele>1483.96</ele>
        <time>2019-05-22T11:41:46Z</time>
      </trkpt>
      <trkpt lat="44.591756220906973" lon="9.186609545722604">
        <ele>1484.4100000000001</ele>
        <time>2019-05-22T11:41:51Z</time>
      </trkpt>
      <trkpt lat="44.591739540919662" lon="9.186405027285218">
        <ele>1483.77</ele>
        <time>2019-05-22T11:42:03Z</time>
      </trkpt>
      <trkpt lat="44.591708779335022" lon="9.186187600716949">
        <ele>1483.3800000000001</ele>
        <time>2019-05-22T11:42:16Z</time>
      </trkpt>
      <trkpt lat="44.591731913387775" lon="9.185896748676896">
        <ele>1482.45</ele>
        <time>2019-05-22T11:42:33Z</time>
      </trkpt>
      <trkpt lat="44.591770302504301" lon="9.18556759133935">
        <ele>1482.51</ele>
        <time>2019-05-22T11:42:52Z</time>
      </trkpt>
      <trkpt lat="44.591793604195118" lon="9.185404730960727">
        <ele>1480.3800000000001</ele>
        <time>2019-05-22T11:43:03Z</time>
      </trkpt>
      <trkpt lat="44.591798214241862" lon="9.185225777328014">
        <ele>1481.0999999999999</ele>
        <time>2019-05-22T11:43:14Z</time>
      </trkpt>
      <trkpt lat="44.591791424900293" lon="9.185020001605153">
        <ele>1481.04</ele>
        <time>2019-05-22T11:43:28Z</time>
      </trkpt>
      <trkpt lat="44.591758232563734" lon="9.184852279722691">
        <ele>1481.6199999999999</ele>
        <time>2019-05-22T11:43:41Z</time>
      </trkpt>
      <trkpt lat="44.591730823740363" lon="9.184719594195485">
        <ele>1480.4200000000001</ele>
        <time>2019-05-22T11:43:52Z</time>
      </trkpt>
      <trkpt lat="44.59164809435606" lon="9.184477105736733">
        <ele>1478.3299999999999</ele>
        <time>2019-05-22T11:44:08Z</time>
      </trkpt>
      <trkpt lat="44.591543404385448" lon="9.184248028323054">
        <ele>1477.9300000000001</ele>
        <time>2019-05-22T11:44:24Z</time>
      </trkpt>
      <trkpt lat="44.591444497928023" lon="9.183995313942432">
        <ele>1477.6099999999999</ele>
        <time>2019-05-22T11:44:41Z</time>
      </trkpt>
      <trkpt lat="44.591354224830866" lon="9.183837231248617">
        <ele>1476.3499999999999</ele>
        <time>2019-05-22T11:44:53Z</time>
      </trkpt>
      <trkpt lat="44.591277614235878" lon="9.183713346719742">
        <ele>1475.49</ele>
        <time>2019-05-22T11:45:04Z</time>
      </trkpt>
      <trkpt lat="44.591232435777783" lon="9.183586360886693">
        <ele>1475.74</ele>
        <time>2019-05-22T11:45:16Z</time>
      </trkpt>
      <trkpt lat="44.5911780372262" lon="9.183451663702726">
        <ele>1475.7</ele>
        <time>2019-05-22T11:45:27Z</time>
      </trkpt>
      <trkpt lat="44.591161608695984" lon="9.183416627347469">
        <ele>1475.5999999999999</ele>
        <time>2019-05-22T11:45:30Z</time>
      </trkpt>
      <trkpt lat="44.59114283323288" lon="9.183374717831612">
        <ele>1475.3800000000001</ele>
        <time>2019-05-22T11:45:33Z</time>
      </trkpt>
      <trkpt lat="44.59100310690701" lon="9.183259047567844">
        <ele>1473.6900000000001</ele>
        <time>2019-05-22T11:45:48Z</time>
      </trkpt>
      <trkpt lat="44.590936554595828" lon="9.183193752542138">
        <ele>1473.6600000000001</ele>
        <time>2019-05-22T11:45:59Z</time>
      </trkpt>
      <trkpt lat="44.59087897092104" lon="9.1830765735358">
        <ele>1473.8099999999999</ele>
        <time>2019-05-22T11:46:11Z</time>
      </trkpt>
      <trkpt lat="44.590772772207856" lon="9.183015888556838">
        <ele>1474.73</ele>
        <time>2019-05-22T11:46:25Z</time>
      </trkpt>
      <trkpt lat="44.590650731697679" lon="9.18289627879858">
        <ele>1475.1900000000001</ele>
        <time>2019-05-22T11:46:40Z</time>
      </trkpt>
      <trkpt lat="44.59049055352807" lon="9.182827714830637">
        <ele>1475.79</ele>
        <time>2019-05-22T11:46:52Z</time>
      </trkpt>
      <trkpt lat="44.590411763638258" lon="9.182800054550171">
        <ele>1475.9100000000001</ele>
        <time>2019-05-22T11:46:59Z</time>
      </trkpt>
      <trkpt lat="44.59036935120821" lon="9.182753702625632">
        <ele>1475.3399999999999</ele>
        <time>2019-05-22T11:47:06Z</time>
      </trkpt>
      <trkpt lat="44.590251250192523" lon="9.18269301764667">
        <ele>1476.03</ele>
        <time>2019-05-22T11:47:21Z</time>
      </trkpt>
      <trkpt lat="44.590089311823249" lon="9.182691760361195">
        <ele>1476.9000000000001</ele>
        <time>2019-05-22T11:47:34Z</time>
      </trkpt>
      <trkpt lat="44.589971462264657" lon="9.182699639350176">
        <ele>1477.0699999999999</ele>
        <time>2019-05-22T11:47:47Z</time>
      </trkpt>
      <trkpt lat="44.589894097298384" lon="9.182676086202264">
        <ele>1479.01</ele>
        <time>2019-05-22T11:47:58Z</time>
      </trkpt>
      <trkpt lat="44.589847829192877" lon="9.182629901915789">
        <ele>1481.8099999999999</ele>
        <time>2019-05-22T11:48:11Z</time>
      </trkpt>
      <trkpt lat="44.589771972969174" lon="9.182518590241671">
        <ele>1484.4200000000001</ele>
        <time>2019-05-22T11:48:24Z</time>
      </trkpt>
      <trkpt lat="44.589658984914422" lon="9.182449104264379">
        <ele>1486.3499999999999</ele>
        <time>2019-05-22T11:48:39Z</time>
      </trkpt>
      <trkpt lat="44.589577345177531" lon="9.1824134811759">
        <ele>1488.26</ele>
        <time>2019-05-22T11:48:51Z</time>
      </trkpt>
      <trkpt lat="44.589501656591892" lon="9.182290183380246">
        <ele>1489.71</ele>
        <time>2019-05-22T11:49:05Z</time>
      </trkpt>
      <trkpt lat="44.589398726820946" lon="9.182158838957548">
        <ele>1490.1800000000001</ele>
        <time>2019-05-22T11:49:19Z</time>
      </trkpt>
      <trkpt lat="44.589317003265023" lon="9.18199572712183">
        <ele>1490.7</ele>
        <time>2019-05-22T11:49:32Z</time>
      </trkpt>
      <trkpt lat="44.589293282479048" lon="9.181853570044041">
        <ele>1492.46</ele>
        <time>2019-05-22T11:49:46Z</time>
      </trkpt>
      <trkpt lat="44.589282721281052" lon="9.181667659431696">
        <ele>1493.5599999999999</ele>
        <time>2019-05-22T11:50:00Z</time>
      </trkpt>
      <trkpt lat="44.589242991060019" lon="9.181533381342888">
        <ele>1494.5799999999999</ele>
        <time>2019-05-22T11:50:15Z</time>
      </trkpt>
      <trkpt lat="44.589213654398918" lon="9.181403797119856">
        <ele>1496.3399999999999</ele>
        <time>2019-05-22T11:50:31Z</time>
      </trkpt>
      <trkpt lat="44.589157244190574" lon="9.181321319192648">
        <ele>1496.77</ele>
        <time>2019-05-22T11:50:42Z</time>
      </trkpt>
      <trkpt lat="44.589113239198923" lon="9.181295335292816">
        <ele>1496.1600000000001</ele>
        <time>2019-05-22T11:50:47Z</time>
      </trkpt>
      <trkpt lat="44.589056326076388" lon="9.181265411898494">
        <ele>1496.5799999999999</ele>
        <time>2019-05-22T11:50:52Z</time>
      </trkpt>
      <trkpt lat="44.588993964716792" lon="9.18121931143105">
        <ele>1496.2</ele>
        <time>2019-05-22T11:50:58Z</time>
      </trkpt>
      <trkpt lat="44.588897908106446" lon="9.181040693074465">
        <ele>1496.6199999999999</ele>
        <time>2019-05-22T11:51:13Z</time>
      </trkpt>
      <trkpt lat="44.588863123208284" lon="9.180849920958281">
        <ele>1497.77</ele>
        <time>2019-05-22T11:51:27Z</time>
      </trkpt>
      <trkpt lat="44.5888277515769" lon="9.180648839101195">
        <ele>1498.8599999999999</ele>
        <time>2019-05-22T11:51:41Z</time>
      </trkpt>
      <trkpt lat="44.588835211470723" lon="9.180405512452126">
        <ele>1499.52</ele>
        <time>2019-05-22T11:51:57Z</time>
      </trkpt>
      <trkpt lat="44.58885214291513" lon="9.180205436423421">
        <ele>1500.03</ele>
        <time>2019-05-22T11:52:10Z</time>
      </trkpt>
      <trkpt lat="44.588841749355197" lon="9.179967725649476">
        <ele>1499.53</ele>
        <time>2019-05-22T11:52:25Z</time>
      </trkpt>
      <trkpt lat="44.588805790990591" lon="9.179804613813758">
        <ele>1499.6400000000001</ele>
        <time>2019-05-22T11:52:37Z</time>
      </trkpt>
      <trkpt lat="44.588846191763878" lon="9.179604705423117">
        <ele>1500.03</ele>
        <time>2019-05-22T11:52:51Z</time>
      </trkpt>
      <trkpt lat="44.588849125429988" lon="9.179592300206423">
        <ele>1500.02</ele>
        <time>2019-05-22T11:52:52Z</time>
      </trkpt>
      <trkpt lat="44.588847532868385" lon="9.179366575554013">
        <ele>1500.55</ele>
        <time>2019-05-22T11:53:07Z</time>
      </trkpt>
      <trkpt lat="44.588835462927818" lon="9.179134899750352">
        <ele>1500.96</ele>
        <time>2019-05-22T11:53:22Z</time>
      </trkpt>
      <trkpt lat="44.588807299733162" lon="9.178947061300278">
        <ele>1502.1400000000001</ele>
        <time>2019-05-22T11:53:35Z</time>
      </trkpt>
      <trkpt lat="44.588733538985252" lon="9.178793504834175">
        <ele>1502.6300000000001</ele>
        <time>2019-05-22T11:53:48Z</time>
      </trkpt>
      <trkpt lat="44.588654078543186" lon="9.17867548763752">
        <ele>1503.03</ele>
        <time>2019-05-22T11:54:02Z</time>
      </trkpt>
      <trkpt lat="44.58866061642766" lon="9.178653778508306">
        <ele>1504.0999999999999</ele>
        <time>2019-05-22T11:54:15Z</time>
      </trkpt>
      <trkpt lat="44.588667238131166" lon="9.178662495687604">
        <ele>1502.6500000000001</ele>
        <time>2019-05-22T11:54:27Z</time>
      </trkpt>
      <trkpt lat="44.588660700246692" lon="9.178654700517654">
        <ele>1502.45</ele>
        <time>2019-05-22T11:54:53Z</time>
      </trkpt>
      <trkpt lat="44.588658353313804" lon="9.178645648062229">
        <ele>1502.5</ele>
        <time>2019-05-22T11:55:38Z</time>
      </trkpt>
      <trkpt lat="44.588660951703787" lon="9.178643804043531">
        <ele>1502.29</ele>
        <time>2019-05-22T11:56:13Z</time>
      </trkpt>
      <trkpt lat="44.588676961138844" lon="9.178636847063899">
        <ele>1502.1199999999999</ele>
        <time>2019-05-22T11:56:52Z</time>
      </trkpt>
      <trkpt lat="44.588669836521149" lon="9.178632739931345">
        <ele>1502.0899999999999</ele>
        <time>2019-05-22T11:57:21Z</time>
      </trkpt>
      <trkpt lat="44.588674362748861" lon="9.178617903962731">
        <ele>1502.3399999999999</ele>
        <time>2019-05-22T11:58:05Z</time>
      </trkpt>
      <trkpt lat="44.588665645569563" lon="9.178606504574418">
        <ele>1503.0599999999999</ele>
        <time>2019-05-22T11:58:19Z</time>
      </trkpt>
      <trkpt lat="44.588639996945858" lon="9.17858705855906">
        <ele>1502.5599999999999</ele>
        <time>2019-05-22T11:58:35Z</time>
      </trkpt>
      <trkpt lat="44.588625831529498" lon="9.178538778796792">
        <ele>1502.01</ele>
        <time>2019-05-22T11:58:39Z</time>
      </trkpt>
      <trkpt lat="44.58859808743" lon="9.178471555933356">
        <ele>1502.73</ele>
        <time>2019-05-22T11:58:45Z</time>
      </trkpt>
      <trkpt lat="44.588567828759551" lon="9.178408272564411">
        <ele>1502.8599999999999</ele>
        <time>2019-05-22T11:58:50Z</time>
      </trkpt>
      <trkpt lat="44.58848518319428" lon="9.17825915850699">
        <ele>1504.0999999999999</ele>
        <time>2019-05-22T11:59:03Z</time>
      </trkpt>
      <trkpt lat="44.588476298376918" lon="9.178253961727023">
        <ele>1504.0599999999999</ele>
        <time>2019-05-22T11:59:04Z</time>
      </trkpt>
      <trkpt lat="44.588412176817656" lon="9.17814290151">
        <ele>1506.49</ele>
        <time>2019-05-22T11:59:15Z</time>
      </trkpt>
      <trkpt lat="44.588369429111481" lon="9.178000828251243">
        <ele>1507.27</ele>
        <time>2019-05-22T11:59:26Z</time>
      </trkpt>
      <trkpt lat="44.588269935920835" lon="9.17791273444891">
        <ele>1508.49</ele>
        <time>2019-05-22T11:59:38Z</time>
      </trkpt>
      <trkpt lat="44.588182512670755" lon="9.177819108590484">
        <ele>1509.54</ele>
        <time>2019-05-22T11:59:49Z</time>
      </trkpt>
      <trkpt lat="44.588100789114833" lon="9.177738977596164">
        <ele>1510.6099999999999</ele>
        <time>2019-05-22T12:00:00Z</time>
      </trkpt>
      <trkpt lat="44.588049408048391" lon="9.177657254040241">
        <ele>1512.3</ele>
        <time>2019-05-22T12:00:09Z</time>
      </trkpt>
      <trkpt lat="44.587976736947894" lon="9.177564382553101">
        <ele>1514.47</ele>
        <time>2019-05-22T12:00:21Z</time>
      </trkpt>
      <trkpt lat="44.587917560711503" lon="9.177471427246928">
        <ele>1516.28</ele>
        <time>2019-05-22T12:00:33Z</time>
      </trkpt>
      <trkpt lat="44.587835753336549" lon="9.177292976528406">
        <ele>1518.1900000000001</ele>
        <time>2019-05-22T12:00:50Z</time>
      </trkpt>
      <trkpt lat="44.587770961225033" lon="9.177134642377496">
        <ele>1518.95</ele>
        <time>2019-05-22T12:01:03Z</time>
      </trkpt>
      <trkpt lat="44.587732488289475" lon="9.176961304619908">
        <ele>1520.51</ele>
        <time>2019-05-22T12:01:17Z</time>
      </trkpt>
      <trkpt lat="44.5877122040838" lon="9.176808251067996">
        <ele>1522.52</ele>
        <time>2019-05-22T12:01:30Z</time>
      </trkpt>
      <trkpt lat="44.587685549631715" lon="9.176648324355483">
        <ele>1524.72</ele>
        <time>2019-05-22T12:01:43Z</time>
      </trkpt>
      <trkpt lat="44.587679598480463" lon="9.176511028781533">
        <ele>1526.76</ele>
        <time>2019-05-22T12:01:55Z</time>
      </trkpt>
      <trkpt lat="44.587660739198327" lon="9.176377672702074">
        <ele>1528.3299999999999</ele>
        <time>2019-05-22T12:02:07Z</time>
      </trkpt>
      <trkpt lat="44.587650010362267" lon="9.176222272217274">
        <ele>1530.51</ele>
        <time>2019-05-22T12:02:20Z</time>
      </trkpt>
      <trkpt lat="44.587607765570283" lon="9.176085647195578">
        <ele>1531.28</ele>
        <time>2019-05-22T12:02:32Z</time>
      </trkpt>
      <trkpt lat="44.587602401152253" lon="9.176073996350169">
        <ele>1531.45</ele>
        <time>2019-05-22T12:02:33Z</time>
      </trkpt>
      <trkpt lat="44.587576081976295" lon="9.176009623333812">
        <ele>1532.2</ele>
        <time>2019-05-22T12:02:38Z</time>
      </trkpt>
      <trkpt lat="44.587535681203008" lon="9.175807451829314">
        <ele>1532.78</ele>
        <time>2019-05-22T12:02:53Z</time>
      </trkpt>
      <trkpt lat="44.587512714788318" lon="9.175680130720139">
        <ele>1533.4400000000001</ele>
        <time>2019-05-22T12:03:03Z</time>
      </trkpt>
      <trkpt lat="44.587507182732224" lon="9.175522886216641">
        <ele>1534.95</ele>
        <time>2019-05-22T12:03:17Z</time>
      </trkpt>
      <trkpt lat="44.587506260722876" lon="9.175405874848366">
        <ele>1535.04</ele>
        <time>2019-05-22T12:03:41Z</time>
      </trkpt>
      <trkpt lat="44.587472397834063" lon="9.175235303118825">
        <ele>1536.3199999999999</ele>
        <time>2019-05-22T12:03:55Z</time>
      </trkpt>
      <trkpt lat="44.587430488318205" lon="9.174994742497802">
        <ele>1536.51</ele>
        <time>2019-05-22T12:04:09Z</time>
      </trkpt>
      <trkpt lat="44.587358068674803" lon="9.174771951511502">
        <ele>1538.6300000000001</ele>
        <time>2019-05-22T12:04:24Z</time>
      </trkpt>
      <trkpt lat="44.587340299040079" lon="9.174674218520522">
        <ele>1538.8599999999999</ele>
        <time>2019-05-22T12:04:30Z</time>
      </trkpt>
      <trkpt lat="44.587294450029731" lon="9.174412786960602">
        <ele>1539.4100000000001</ele>
        <time>2019-05-22T12:04:47Z</time>
      </trkpt>
      <trkpt lat="44.587269052863121" lon="9.174278927966952">
        <ele>1539.95</ele>
        <time>2019-05-22T12:04:58Z</time>
      </trkpt>
      <trkpt lat="44.587247259914875" lon="9.174225283786655">
        <ele>1541.1700000000001</ele>
        <time>2019-05-22T12:05:03Z</time>
      </trkpt>
      <trkpt lat="44.587202416732907" lon="9.174046162515879">
        <ele>1541.6099999999999</ele>
        <time>2019-05-22T12:05:15Z</time>
      </trkpt>
      <trkpt lat="44.587204344570637" lon="9.174029901623726">
        <ele>1541.24</ele>
        <time>2019-05-22T12:05:16Z</time>
      </trkpt>
      <trkpt lat="44.587175343185663" lon="9.173912974074483">
        <ele>1540.45</ele>
        <time>2019-05-22T12:05:27Z</time>
      </trkpt>
      <trkpt lat="44.58715857937932" lon="9.173883385956287">
        <ele>1540.1700000000001</ele>
        <time>2019-05-22T12:05:37Z</time>
      </trkpt>
      <trkpt lat="44.587190933525562" lon="9.173947004601359">
        <ele>1540.4000000000001</ele>
        <time>2019-05-22T12:05:49Z</time>
      </trkpt>
      <trkpt lat="44.587189676240087" lon="9.173932420089841">
        <ele>1540.4300000000001</ele>
        <time>2019-05-22T12:05:58Z</time>
      </trkpt>
      <trkpt lat="44.587109796702862" lon="9.173817923292518">
        <ele>1540.01</ele>
        <time>2019-05-22T12:06:13Z</time>
      </trkpt>
      <trkpt lat="44.587044669315219" lon="9.173739971593022">
        <ele>1539.3599999999999</ele>
        <time>2019-05-22T12:06:25Z</time>
      </trkpt>
      <trkpt lat="44.586938470602036" lon="9.173563364893198">
        <ele>1539.49</ele>
        <time>2019-05-22T12:06:40Z</time>
      </trkpt>
      <trkpt lat="44.586867224425077" lon="9.173411652445793">
        <ele>1539.78</ele>
        <time>2019-05-22T12:06:53Z</time>
      </trkpt>
      <trkpt lat="44.586772173643112" lon="9.173236889764667">
        <ele>1540</ele>
        <time>2019-05-22T12:07:08Z</time>
      </trkpt>
      <trkpt lat="44.586700089275837" lon="9.17307386174798">
        <ele>1540.0599999999999</ele>
        <time>2019-05-22T12:07:21Z</time>
      </trkpt>
      <trkpt lat="44.586578300222754" lon="9.172915192320943">
        <ele>1540.6700000000001</ele>
        <time>2019-05-22T12:07:36Z</time>
      </trkpt>
      <trkpt lat="44.586440082639456" lon="9.172876132652164">
        <ele>1542.21</ele>
        <time>2019-05-22T12:07:49Z</time>
      </trkpt>
      <trkpt lat="44.586396915838122" lon="9.17285492643714">
        <ele>1542.5699999999999</ele>
        <time>2019-05-22T12:07:54Z</time>
      </trkpt>
      <trkpt lat="44.586350815370679" lon="9.172816621139646">
        <ele>1542.6700000000001</ele>
        <time>2019-05-22T12:07:59Z</time>
      </trkpt>
      <trkpt lat="44.586221650242805" lon="9.172598104923964">
        <ele>1542.49</ele>
        <time>2019-05-22T12:08:16Z</time>
      </trkpt>
      <trkpt lat="44.586093490943313" lon="9.172448068857193">
        <ele>1540.3199999999999</ele>
        <time>2019-05-22T12:08:30Z</time>
      </trkpt>
      <trkpt lat="44.58598779514432" lon="9.172275485470891">
        <ele>1538.5899999999999</ele>
        <time>2019-05-22T12:08:44Z</time>
      </trkpt>
      <trkpt lat="44.585912274196744" lon="9.172077253460884">
        <ele>1537.96</ele>
        <time>2019-05-22T12:08:58Z</time>
      </trkpt>
      <trkpt lat="44.58583147265017" lon="9.171997206285596">
        <ele>1536.1500000000001</ele>
        <time>2019-05-22T12:09:08Z</time>
      </trkpt>
      <trkpt lat="44.585822252556682" lon="9.171944819390774">
        <ele>1536.1300000000001</ele>
        <time>2019-05-22T12:09:22Z</time>
      </trkpt>
      <trkpt lat="44.585763160139322" lon="9.171837028115988">
        <ele>1535.3199999999999</ele>
        <time>2019-05-22T12:09:32Z</time>
      </trkpt>
      <trkpt lat="44.585757460445166" lon="9.17182588018477">
        <ele>1535.1800000000001</ele>
        <time>2019-05-22T12:09:33Z</time>
      </trkpt>
      <trkpt lat="44.585700882598758" lon="9.171742061153054">
        <ele>1535.4400000000001</ele>
        <time>2019-05-22T12:09:42Z</time>
      </trkpt>
      <trkpt lat="44.585674144327641" lon="9.171640388667584">
        <ele>1535.6400000000001</ele>
        <time>2019-05-22T12:09:56Z</time>
      </trkpt>
      <trkpt lat="44.585644975304604" lon="9.171576518565416">
        <ele>1535.4300000000001</ele>
        <time>2019-05-22T12:10:06Z</time>
      </trkpt>
      <trkpt lat="44.585551181808114" lon="9.171337969601154">
        <ele>1534.04</ele>
        <time>2019-05-22T12:10:23Z</time>
      </trkpt>
      <trkpt lat="44.585537184029818" lon="9.17130209505558">
        <ele>1534.3499999999999</ele>
        <time>2019-05-22T12:10:32Z</time>
      </trkpt>
      <trkpt lat="44.585468200966716" lon="9.171092631295323">
        <ele>1532.5799999999999</ele>
        <time>2019-05-22T12:10:45Z</time>
      </trkpt>
      <trkpt lat="44.585429225116968" lon="9.170938320457935">
        <ele>1531.3</ele>
        <time>2019-05-22T12:10:56Z</time>
      </trkpt>
      <trkpt lat="44.585384884849191" lon="9.17084033600986">
        <ele>1528.05</ele>
        <time>2019-05-22T12:11:04Z</time>
      </trkpt>
      <trkpt lat="44.585370467975736" lon="9.170820135623217">
        <ele>1530.26</ele>
        <time>2019-05-22T12:11:06Z</time>
      </trkpt>
      <trkpt lat="44.585340293124318" lon="9.170740926638246">
        <ele>1527.4100000000001</ele>
        <time>2019-05-22T12:11:12Z</time>
      </trkpt>
      <trkpt lat="44.585280697792768" lon="9.17056524194777">
        <ele>1524.49</ele>
        <time>2019-05-22T12:11:25Z</time>
      </trkpt>
      <trkpt lat="44.58522018045187" lon="9.170412942767143">
        <ele>1521.3900000000001</ele>
        <time>2019-05-22T12:11:37Z</time>
      </trkpt>
      <trkpt lat="44.585202746093273" lon="9.170385282486677">
        <ele>1520.9100000000001</ele>
        <time>2019-05-22T12:11:40Z</time>
      </trkpt>
      <trkpt lat="44.585143318399787" lon="9.170241029933095">
        <ele>1518.5899999999999</ele>
        <time>2019-05-22T12:11:52Z</time>
      </trkpt>
      <trkpt lat="44.585117837414145" lon="9.170128712430596">
        <ele>1516.48</ele>
        <time>2019-05-22T12:12:01Z</time>
      </trkpt>
      <trkpt lat="44.585028905421495" lon="9.170046402141452">
        <ele>1514.21</ele>
        <time>2019-05-22T12:12:12Z</time>
      </trkpt>
      <trkpt lat="44.585000742226839" lon="9.169955123215914">
        <ele>1512.53</ele>
        <time>2019-05-22T12:12:22Z</time>
      </trkpt>
      <trkpt lat="44.584960760548711" lon="9.169807098805904">
        <ele>1510</ele>
        <time>2019-05-22T12:12:35Z</time>
      </trkpt>
      <trkpt lat="44.584906026721001" lon="9.169678436592221">
        <ele>1507.6600000000001</ele>
        <time>2019-05-22T12:12:48Z</time>
      </trkpt>
      <trkpt lat="44.584846263751388" lon="9.169493783265352">
        <ele>1504.47</ele>
        <time>2019-05-22T12:13:02Z</time>
      </trkpt>
      <trkpt lat="44.58475548774004" lon="9.169386746361852">
        <ele>1502.71</ele>
        <time>2019-05-22T12:13:13Z</time>
      </trkpt>
      <trkpt lat="44.584663202986121" lon="9.169289767742157">
        <ele>1500.99</ele>
        <time>2019-05-22T12:13:26Z</time>
      </trkpt>
      <trkpt lat="44.584569158032537" lon="9.169171918183565">
        <ele>1498.8099999999999</ele>
        <time>2019-05-22T12:13:41Z</time>
      </trkpt>
      <trkpt lat="44.584471508860588" lon="9.169069156050682">
        <ele>1497.0799999999999</ele>
        <time>2019-05-22T12:13:52Z</time>
      </trkpt>
      <trkpt lat="44.584350725635886" lon="9.169018194079399">
        <ele>1494.8599999999999</ele>
        <time>2019-05-22T12:14:05Z</time>
      </trkpt>
      <trkpt lat="44.584255004301667" lon="9.168949797749519">
        <ele>1491.78</ele>
        <time>2019-05-22T12:14:17Z</time>
      </trkpt>
      <trkpt lat="44.584165066480637" lon="9.168896237388253">
        <ele>1489.3699999999999</ele>
        <time>2019-05-22T12:14:29Z</time>
      </trkpt>
      <trkpt lat="44.584071692079306" lon="9.168803868815303">
        <ele>1487.24</ele>
        <time>2019-05-22T12:14:43Z</time>
      </trkpt>
      <trkpt lat="44.583957949653268" lon="9.168696077540517">
        <ele>1486.6400000000001</ele>
        <time>2019-05-22T12:14:56Z</time>
      </trkpt>
      <trkpt lat="44.583901287987828" lon="9.168614270165563">
        <ele>1486.6700000000001</ele>
        <time>2019-05-22T12:15:08Z</time>
      </trkpt>
      <trkpt lat="44.583858121186495" lon="9.168547634035349">
        <ele>1486.5699999999999</ele>
        <time>2019-05-22T12:15:20Z</time>
      </trkpt>
      <trkpt lat="44.583746558055282" lon="9.168433640152216">
        <ele>1485.5</ele>
        <time>2019-05-22T12:15:33Z</time>
      </trkpt>
      <trkpt lat="44.583629043772817" lon="9.168268265202642">
        <ele>1484.5899999999999</ele>
        <time>2019-05-22T12:15:48Z</time>
      </trkpt>
      <trkpt lat="44.583501387387514" lon="9.168172879144549">
        <ele>1483.6600000000001</ele>
        <time>2019-05-22T12:16:04Z</time>
      </trkpt>
      <trkpt lat="44.583363840356469" lon="9.168144129216671">
        <ele>1483.6099999999999</ele>
        <time>2019-05-22T12:16:16Z</time>
      </trkpt>
      <trkpt lat="44.583236603066325" lon="9.168033991008997">
        <ele>1482.72</ele>
        <time>2019-05-22T12:16:31Z</time>
      </trkpt>
      <trkpt lat="44.583131242543459" lon="9.167923852801323">
        <ele>1482.72</ele>
        <time>2019-05-22T12:16:45Z</time>
      </trkpt>
      <trkpt lat="44.583032419905066" lon="9.167807344347239">
        <ele>1481.52</ele>
        <time>2019-05-22T12:16:59Z</time>
      </trkpt>
      <trkpt lat="44.582960335537791" lon="9.167705839499831">
        <ele>1481.1900000000001</ele>
        <time>2019-05-22T12:17:13Z</time>
      </trkpt>
      <trkpt lat="44.582836953923106" lon="9.16760316118598">
        <ele>1481.75</ele>
        <time>2019-05-22T12:17:29Z</time>
      </trkpt>
      <trkpt lat="44.582729330286384" lon="9.167505679652095">
        <ele>1482.0699999999999</ele>
        <time>2019-05-22T12:17:43Z</time>
      </trkpt>
      <trkpt lat="44.582611145451665" lon="9.167404258623719">
        <ele>1482.26</ele>
        <time>2019-05-22T12:17:56Z</time>
      </trkpt>
      <trkpt lat="44.582499582320452" lon="9.167239889502525">
        <ele>1481.8599999999999</ele>
        <time>2019-05-22T12:18:12Z</time>
      </trkpt>
      <trkpt lat="44.582389192655683" lon="9.1670823097229">
        <ele>1482.3299999999999</ele>
        <time>2019-05-22T12:18:27Z</time>
      </trkpt>
      <trkpt lat="44.5822708401829" lon="9.166982732713223">
        <ele>1482.8900000000001</ele>
        <time>2019-05-22T12:18:43Z</time>
      </trkpt>
      <trkpt lat="44.582143016159534" lon="9.166812496259809">
        <ele>1481.0999999999999</ele>
        <time>2019-05-22T12:18:57Z</time>
      </trkpt>
      <trkpt lat="44.582078894600272" lon="9.166711494326592">
        <ele>1480.6900000000001</ele>
        <time>2019-05-22T12:19:06Z</time>
      </trkpt>
      <trkpt lat="44.582027429714799" lon="9.166641673073173">
        <ele>1480.3299999999999</ele>
        <time>2019-05-22T12:19:17Z</time>
      </trkpt>
      <trkpt lat="44.581918884068727" lon="9.166575539857149">
        <ele>1480.4000000000001</ele>
        <time>2019-05-22T12:19:27Z</time>
      </trkpt>
      <trkpt lat="44.581784522160888" lon="9.166399268433452">
        <ele>1480.1900000000001</ele>
        <time>2019-05-22T12:19:39Z</time>
      </trkpt>
      <trkpt lat="44.581656195223331" lon="9.166264152154326">
        <ele>1480.49</ele>
        <time>2019-05-22T12:19:52Z</time>
      </trkpt>
      <trkpt lat="44.581563826650381" lon="9.166195672005415">
        <ele>1480.5</ele>
        <time>2019-05-22T12:20:00Z</time>
      </trkpt>
      <trkpt lat="44.581441450864077" lon="9.166089221835136">
        <ele>1480.3099999999999</ele>
        <time>2019-05-22T12:20:13Z</time>
      </trkpt>
      <trkpt lat="44.581376826390624" lon="9.165922002866864">
        <ele>1480.52</ele>
        <time>2019-05-22T12:20:25Z</time>
      </trkpt>
      <trkpt lat="44.581331731751561" lon="9.165804823860526">
        <ele>1480.7</ele>
        <time>2019-05-22T12:20:37Z</time>
      </trkpt>
      <trkpt lat="44.581296108663082" lon="9.165596198290587">
        <ele>1482.03</ele>
        <time>2019-05-22T12:20:51Z</time>
      </trkpt>
      <trkpt lat="44.581233328208327" lon="9.165424956008792">
        <ele>1483.78</ele>
        <time>2019-05-22T12:21:05Z</time>
      </trkpt>
      <trkpt lat="44.581132242456079" lon="9.165336946025491">
        <ele>1485.4100000000001</ele>
        <time>2019-05-22T12:21:18Z</time>
      </trkpt>
      <trkpt lat="44.58099109120667" lon="9.165232675150037">
        <ele>1485.24</ele>
        <time>2019-05-22T12:21:33Z</time>
      </trkpt>
      <trkpt lat="44.580907439813018" lon="9.16516587138176">
        <ele>1484.8199999999999</ele>
        <time>2019-05-22T12:21:41Z</time>
      </trkpt>
      <trkpt lat="44.58083082921803" lon="9.165091942995787">
        <ele>1484.8599999999999</ele>
        <time>2019-05-22T12:21:48Z</time>
      </trkpt>
      <trkpt lat="44.580646678805351" lon="9.164880299940705">
        <ele>1485.0699999999999</ele>
        <time>2019-05-22T12:22:07Z</time>
      </trkpt>
      <trkpt lat="44.580548442900181" lon="9.164618868380785">
        <ele>1484.8199999999999</ele>
        <time>2019-05-22T12:22:25Z</time>
      </trkpt>
      <trkpt lat="44.580503515899181" lon="9.164405213668943">
        <ele>1484.96</ele>
        <time>2019-05-22T12:22:39Z</time>
      </trkpt>
      <trkpt lat="44.580490691587329" lon="9.164234641939402">
        <ele>1484.9200000000001</ele>
        <time>2019-05-22T12:22:51Z</time>
      </trkpt>
      <trkpt lat="44.580507287755609" lon="9.164095502346754">
        <ele>1485.2</ele>
        <time>2019-05-22T12:23:00Z</time>
      </trkpt>
      <trkpt lat="44.58050393499434" lon="9.163957536220551">
        <ele>1485.9200000000001</ele>
        <time>2019-05-22T12:23:10Z</time>
      </trkpt>
      <trkpt lat="44.58051759749651" lon="9.163814205676317">
        <ele>1488.78</ele>
        <time>2019-05-22T12:23:22Z</time>
      </trkpt>
      <trkpt lat="44.580495972186327" lon="9.163628127425909">
        <ele>1488.3</ele>
        <time>2019-05-22T12:23:35Z</time>
      </trkpt>
      <trkpt lat="44.580468060448766" lon="9.163524527102709">
        <ele>1488.47</ele>
        <time>2019-05-22T12:23:44Z</time>
      </trkpt>
      <trkpt lat="44.580412739887834" lon="9.163338113576174">
        <ele>1490.1800000000001</ele>
        <time>2019-05-22T12:23:59Z</time>
      </trkpt>
      <trkpt lat="44.580366555601358" lon="9.16319721378386">
        <ele>1491.3299999999999</ele>
        <time>2019-05-22T12:24:09Z</time>
      </trkpt>
      <trkpt lat="44.58027770742774" lon="9.163021445274353">
        <ele>1490.8800000000001</ele>
        <time>2019-05-22T12:24:22Z</time>
      </trkpt>
      <trkpt lat="44.580198498442769" lon="9.162859339267016">
        <ele>1491.03</ele>
        <time>2019-05-22T12:24:34Z</time>
      </trkpt>
      <trkpt lat="44.580120882019401" lon="9.162719612941146">
        <ele>1491.72</ele>
        <time>2019-05-22T12:24:46Z</time>
      </trkpt>
      <trkpt lat="44.580055503174663" lon="9.162440244108439">
        <ele>1492.95</ele>
        <time>2019-05-22T12:25:03Z</time>
      </trkpt>
      <trkpt lat="44.580003032460809" lon="9.162351060658693">
        <ele>1494.53</ele>
        <time>2019-05-22T12:25:16Z</time>
      </trkpt>
      <trkpt lat="44.579936228692532" lon="9.162249052897096">
        <ele>1496.5599999999999</ele>
        <time>2019-05-22T12:25:30Z</time>
      </trkpt>
      <trkpt lat="44.579870095476508" lon="9.162108320742846">
        <ele>1498.8800000000001</ele>
        <time>2019-05-22T12:25:45Z</time>
      </trkpt>
      <trkpt lat="44.579807231202722" lon="9.161967840045691">
        <ele>1501.2</ele>
        <time>2019-05-22T12:26:02Z</time>
      </trkpt>
      <trkpt lat="44.579729782417417" lon="9.161875974386931">
        <ele>1503.3</ele>
        <time>2019-05-22T12:26:17Z</time>
      </trkpt>
      <trkpt lat="44.579641437157989" lon="9.161773798987269">
        <ele>1504.1600000000001</ele>
        <time>2019-05-22T12:26:33Z</time>
      </trkpt>
      <trkpt lat="44.579530460759997" lon="9.161653015762568">
        <ele>1503.22</ele>
        <time>2019-05-22T12:26:48Z</time>
      </trkpt>
      <trkpt lat="44.579465249553323" lon="9.1615045722574">
        <ele>1502.4000000000001</ele>
        <time>2019-05-22T12:27:03Z</time>
      </trkpt>
      <trkpt lat="44.579379502683878" lon="9.161335090175271">
        <ele>1502.96</ele>
        <time>2019-05-22T12:27:15Z</time>
      </trkpt>
      <trkpt lat="44.579295348376036" lon="9.161203745752573">
        <ele>1503.79</ele>
        <time>2019-05-22T12:27:26Z</time>
      </trkpt>
      <trkpt lat="44.579209098592401" lon="9.161059744656086">
        <ele>1505.4300000000001</ele>
        <time>2019-05-22T12:27:40Z</time>
      </trkpt>
      <trkpt lat="44.579101642593741" lon="9.160995120182633">
        <ele>1506.4300000000001</ele>
        <time>2019-05-22T12:27:54Z</time>
      </trkpt>
      <trkpt lat="44.578986139968038" lon="9.160867966711521">
        <ele>1506.8800000000001</ele>
        <time>2019-05-22T12:28:08Z</time>
      </trkpt>
      <trkpt lat="44.578966442495584" lon="9.160858243703842">
        <ele>1506.95</ele>
        <time>2019-05-22T12:28:10Z</time>
      </trkpt>
      <trkpt lat="44.57886359654367" lon="9.160794038325548">
        <ele>1506</ele>
        <time>2019-05-22T12:28:21Z</time>
      </trkpt>
      <trkpt lat="44.57878396846354" lon="9.160721115767956">
        <ele>1505.8699999999999</ele>
        <time>2019-05-22T12:28:29Z</time>
      </trkpt>
      <trkpt lat="44.578679027035832" lon="9.160644588992">
        <ele>1505.53</ele>
        <time>2019-05-22T12:28:40Z</time>
      </trkpt>
      <trkpt lat="44.578568805009127" lon="9.160607289522886">
        <ele>1505.5999999999999</ele>
        <time>2019-05-22T12:28:50Z</time>
      </trkpt>
      <trkpt lat="44.578443914651871" lon="9.160551214590669">
        <ele>1504.8499999999999</ele>
        <time>2019-05-22T12:29:03Z</time>
      </trkpt>
      <trkpt lat="44.578314833343029" lon="9.160512406378985">
        <ele>1505.8599999999999</ele>
        <time>2019-05-22T12:29:16Z</time>
      </trkpt>
      <trkpt lat="44.57822397351265" lon="9.160474436357617">
        <ele>1507.3699999999999</ele>
        <time>2019-05-22T12:29:26Z</time>
      </trkpt>
      <trkpt lat="44.578104866668582" lon="9.160385420545936">
        <ele>1506.6199999999999</ele>
        <time>2019-05-22T12:29:39Z</time>
      </trkpt>
      <trkpt lat="44.577983831986785" lon="9.16028693318367">
        <ele>1508.75</ele>
        <time>2019-05-22T12:29:55Z</time>
      </trkpt>
      <trkpt lat="44.577867826446891" lon="9.160278467461467">
        <ele>1508.5699999999999</ele>
        <time>2019-05-22T12:30:08Z</time>
      </trkpt>
      <trkpt lat="44.577818708494306" lon="9.160255249589682">
        <ele>1506.3299999999999</ele>
        <time>2019-05-22T12:30:14Z</time>
      </trkpt>
      <trkpt lat="44.577741511166096" lon="9.160254076123238">
        <ele>1503.04</ele>
        <time>2019-05-22T12:30:26Z</time>
      </trkpt>
      <trkpt lat="44.577699434012175" lon="9.160253908485174">
        <ele>1501.26</ele>
        <time>2019-05-22T12:30:30Z</time>
      </trkpt>
      <trkpt lat="44.577631456777453" lon="9.160209652036429">
        <ele>1498.1900000000001</ele>
        <time>2019-05-22T12:30:38Z</time>
      </trkpt>
      <trkpt lat="44.577532801777124" lon="9.160102028399706">
        <ele>1495.0799999999999</ele>
        <time>2019-05-22T12:30:49Z</time>
      </trkpt>
      <trkpt lat="44.577467674389482" lon="9.160008989274502">
        <ele>1493.28</ele>
        <time>2019-05-22T12:30:57Z</time>
      </trkpt>
      <trkpt lat="44.577455101534724" lon="9.159979652613401">
        <ele>1492.8599999999999</ele>
        <time>2019-05-22T12:30:59Z</time>
      </trkpt>
      <trkpt lat="44.577413611114025" lon="9.15990044362843">
        <ele>1491.5599999999999</ele>
        <time>2019-05-22T12:31:05Z</time>
      </trkpt>
      <trkpt lat="44.577343873679638" lon="9.159804470837116">
        <ele>1490.3399999999999</ele>
        <time>2019-05-22T12:31:12Z</time>
      </trkpt>
      <trkpt lat="44.577305903658271" lon="9.159749569371343">
        <ele>1489.52</ele>
        <time>2019-05-22T12:31:16Z</time>
      </trkpt>
      <trkpt lat="44.577222922816873" lon="9.159614704549313">
        <ele>1485.8099999999999</ele>
        <time>2019-05-22T12:31:28Z</time>
      </trkpt>
      <trkpt lat="44.577127955853939" lon="9.15950121358037">
        <ele>1482.7</ele>
        <time>2019-05-22T12:31:41Z</time>
      </trkpt>
      <trkpt lat="44.577083699405193" lon="9.159419154748321">
        <ele>1479.6400000000001</ele>
        <time>2019-05-22T12:31:48Z</time>
      </trkpt>
      <trkpt lat="44.577077748253942" lon="9.159406749531627">
        <ele>1479.72</ele>
        <time>2019-05-22T12:31:49Z</time>
      </trkpt>
      <trkpt lat="44.577052854001522" lon="9.159355787560344">
        <ele>1479.6400000000001</ele>
        <time>2019-05-22T12:31:53Z</time>
      </trkpt>
      <trkpt lat="44.57696970552206" lon="9.159206924960017">
        <ele>1476.5</ele>
        <time>2019-05-22T12:32:06Z</time>
      </trkpt>
      <trkpt lat="44.576883958652616" lon="9.159053703770042">
        <ele>1473.3800000000001</ele>
        <time>2019-05-22T12:32:19Z</time>
      </trkpt>
      <trkpt lat="44.576841462403536" lon="9.158969046548009">
        <ele>1471.6099999999999</ele>
        <time>2019-05-22T12:32:25Z</time>
      </trkpt>
      <trkpt lat="44.576788991689682" lon="9.158783219754696">
        <ele>1469.72</ele>
        <time>2019-05-22T12:32:37Z</time>
      </trkpt>
      <trkpt lat="44.576779687777162" lon="9.158771568909288">
        <ele>1469.6199999999999</ele>
        <time>2019-05-22T12:32:38Z</time>
      </trkpt>
      <trkpt lat="44.57674004137516" lon="9.158591609448195">
        <ele>1469.26</ele>
        <time>2019-05-22T12:32:49Z</time>
      </trkpt>
      <trkpt lat="44.576659994199872" lon="9.158436879515648">
        <ele>1468.5699999999999</ele>
        <time>2019-05-22T12:33:01Z</time>
      </trkpt>
      <trkpt lat="44.576624119654298" lon="9.158365884795785">
        <ele>1467.8599999999999</ele>
        <time>2019-05-22T12:33:06Z</time>
      </trkpt>
      <trkpt lat="44.57656410522759" lon="9.15828357450664">
        <ele>1467.8399999999999</ele>
        <time>2019-05-22T12:33:19Z</time>
      </trkpt>
      <trkpt lat="44.576527811586857" lon="9.158198833465576">
        <ele>1467.6400000000001</ele>
        <time>2019-05-22T12:33:25Z</time>
      </trkpt>
      <trkpt lat="44.576443741098046" lon="9.158011917024851">
        <ele>1466.4200000000001</ele>
        <time>2019-05-22T12:33:38Z</time>
      </trkpt>
      <trkpt lat="44.576388169080019" lon="9.15780178271234">
        <ele>1467.4200000000001</ele>
        <time>2019-05-22T12:33:50Z</time>
      </trkpt>
      <trkpt lat="44.576368220150471" lon="9.157736236229539">
        <ele>1467.4000000000001</ele>
        <time>2019-05-22T12:33:54Z</time>
      </trkpt>
      <trkpt lat="44.57637207582593" lon="9.157604891806841">
        <ele>1468.1400000000001</ele>
        <time>2019-05-22T12:34:04Z</time>
      </trkpt>
      <trkpt lat="44.576393282040954" lon="9.157587541267276">
        <ele>1468.53</ele>
        <time>2019-05-22T12:34:19Z</time>
      </trkpt>
      <trkpt lat="44.576423205435276" lon="9.157477570697665">
        <ele>1470.27</ele>
        <time>2019-05-22T12:34:32Z</time>
      </trkpt>
      <trkpt lat="44.576427564024925" lon="9.157339856028557">
        <ele>1472.8800000000001</ele>
        <time>2019-05-22T12:34:46Z</time>
      </trkpt>
      <trkpt lat="44.576391102746129" lon="9.157278416678309">
        <ele>1474.5699999999999</ele>
        <time>2019-05-22T12:34:58Z</time>
      </trkpt>
      <trkpt lat="44.576307786628604" lon="9.157193759456277">
        <ele>1477.24</ele>
        <time>2019-05-22T12:35:15Z</time>
      </trkpt>
      <trkpt lat="44.576293788850307" lon="9.157177750021219">
        <ele>1477.5999999999999</ele>
        <time>2019-05-22T12:35:18Z</time>
      </trkpt>
      <trkpt lat="44.57620988599956" lon="9.1570751555264">
        <ele>1480.0599999999999</ele>
        <time>2019-05-22T12:35:34Z</time>
      </trkpt>
      <trkpt lat="44.576197480782866" lon="9.156964430585504">
        <ele>1483.0599999999999</ele>
        <time>2019-05-22T12:35:49Z</time>
      </trkpt>
      <trkpt lat="44.576152134686708" lon="9.156881868839264">
        <ele>1485.23</ele>
        <time>2019-05-22T12:36:03Z</time>
      </trkpt>
      <trkpt lat="44.576162444427609" lon="9.156772904098034">
        <ele>1487.22</ele>
        <time>2019-05-22T12:36:19Z</time>
      </trkpt>
      <trkpt lat="44.576133694499731" lon="9.156661257147789">
        <ele>1488.9000000000001</ele>
        <time>2019-05-22T12:36:33Z</time>
      </trkpt>
      <trkpt lat="44.576119277626276" lon="9.156556567177177">
        <ele>1491.25</ele>
        <time>2019-05-22T12:36:49Z</time>
      </trkpt>
      <trkpt lat="44.57606915384531" lon="9.156441567465663">
        <ele>1493.5599999999999</ele>
        <time>2019-05-22T12:37:04Z</time>
      </trkpt>
      <trkpt lat="44.57602028734982" lon="9.156309552490711">
        <ele>1495.24</ele>
        <time>2019-05-22T12:37:19Z</time>
      </trkpt>
      <trkpt lat="44.575894558802247" lon="9.156223805621266">
        <ele>1497.1700000000001</ele>
        <time>2019-05-22T12:37:36Z</time>
      </trkpt>
      <trkpt lat="44.57579992711544" lon="9.156139902770519">
        <ele>1499.1099999999999</ele>
        <time>2019-05-22T12:37:51Z</time>
      </trkpt>
      <trkpt lat="44.575746534392238" lon="9.156077792868018">
        <ele>1500.3499999999999</ele>
        <time>2019-05-22T12:38:01Z</time>
      </trkpt>
      <trkpt lat="44.575687106698751" lon="9.155989028513432">
        <ele>1502.23</ele>
        <time>2019-05-22T12:38:15Z</time>
      </trkpt>
      <trkpt lat="44.575638743117452" lon="9.155880818143487">
        <ele>1504.45</ele>
        <time>2019-05-22T12:38:27Z</time>
      </trkpt>
      <trkpt lat="44.57556632347405" lon="9.155788868665695">
        <ele>1506.29</ele>
        <time>2019-05-22T12:38:42Z</time>
      </trkpt>
      <trkpt lat="44.575503710657358" lon="9.155700020492077">
        <ele>1507.8</ele>
        <time>2019-05-22T12:38:55Z</time>
      </trkpt>
      <trkpt lat="44.575419221073389" lon="9.155604131519795">
        <ele>1509.6300000000001</ele>
        <time>2019-05-22T12:39:10Z</time>
      </trkpt>
      <trkpt lat="44.575333474203944" lon="9.155562473461032">
        <ele>1511.24</ele>
        <time>2019-05-22T12:39:24Z</time>
      </trkpt>
      <trkpt lat="44.575240015983582" lon="9.155449066311121">
        <ele>1513.2</ele>
        <time>2019-05-22T12:39:39Z</time>
      </trkpt>
      <trkpt lat="44.575219061225653" lon="9.155361140146852">
        <ele>1515.8599999999999</ele>
        <time>2019-05-22T12:39:53Z</time>
      </trkpt>
      <trkpt lat="44.575157454237342" lon="9.155307663604617">
        <ele>1518.47</ele>
        <time>2019-05-22T12:40:08Z</time>
      </trkpt>
      <trkpt lat="44.575071288272738" lon="9.155254606157541">
        <ele>1521.2</ele>
        <time>2019-05-22T12:40:23Z</time>
      </trkpt>
      <trkpt lat="44.575002389028668" lon="9.155136756598949">
        <ele>1522.9300000000001</ele>
        <time>2019-05-22T12:40:38Z</time>
      </trkpt>
      <trkpt lat="44.574958803132176" lon="9.155076742172241">
        <ele>1525.4300000000001</ele>
        <time>2019-05-22T12:40:52Z</time>
      </trkpt>
      <trkpt lat="44.574896609410644" lon="9.154993006959558">
        <ele>1527.5799999999999</ele>
        <time>2019-05-22T12:41:04Z</time>
      </trkpt>
      <trkpt lat="44.574846317991614" lon="9.154918575659394">
        <ele>1529.53</ele>
        <time>2019-05-22T12:41:18Z</time>
      </trkpt>
      <trkpt lat="44.574794853106141" lon="9.154858058318496">
        <ele>1532.4100000000001</ele>
        <time>2019-05-22T12:41:32Z</time>
      </trkpt>
      <trkpt lat="44.574754703789949" lon="9.154789661988616">
        <ele>1534.6199999999999</ele>
        <time>2019-05-22T12:41:45Z</time>
      </trkpt>
      <trkpt lat="44.574715979397297" lon="9.154696958139539">
        <ele>1537.1800000000001</ele>
        <time>2019-05-22T12:41:58Z</time>
      </trkpt>
      <trkpt lat="44.574687983840704" lon="9.154597297310829">
        <ele>1539.3900000000001</ele>
        <time>2019-05-22T12:42:12Z</time>
      </trkpt>
      <trkpt lat="44.574629813432693" lon="9.154564943164587">
        <ele>1541.47</ele>
        <time>2019-05-22T12:42:24Z</time>
      </trkpt>
      <trkpt lat="44.574542809277773" lon="9.154567290097475">
        <ele>1543.3</ele>
        <time>2019-05-22T12:42:37Z</time>
      </trkpt>
      <trkpt lat="44.574422361329198" lon="9.154579024761915">
        <ele>1545.1900000000001</ele>
        <time>2019-05-22T12:42:52Z</time>
      </trkpt>
      <trkpt lat="44.574312893673778" lon="9.15452697314322">
        <ele>1546.6199999999999</ele>
        <time>2019-05-22T12:43:07Z</time>
      </trkpt>
      <trkpt lat="44.574232092127204" lon="9.154444495216012">
        <ele>1549.05</ele>
        <time>2019-05-22T12:43:21Z</time>
      </trkpt>
      <trkpt lat="44.574190014973283" lon="9.154374003410339">
        <ele>1550.6099999999999</ele>
        <time>2019-05-22T12:43:33Z</time>
      </trkpt>
      <trkpt lat="44.574167216196656" lon="9.154370063915849">
        <ele>1550.9200000000001</ele>
        <time>2019-05-22T12:43:50Z</time>
      </trkpt>
      <trkpt lat="44.574167216196656" lon="9.154373332858086">
        <ele>1550.52</ele>
        <time>2019-05-22T12:44:09Z</time>
      </trkpt>
      <trkpt lat="44.574168892577291" lon="9.154374757781625">
        <ele>1551.3199999999999</ele>
        <time>2019-05-22T12:44:39Z</time>
      </trkpt>
      <trkpt lat="44.574180878698826" lon="9.154362184926868">
        <ele>1551.0799999999999</ele>
        <time>2019-05-22T12:44:49Z</time>
      </trkpt>
      <trkpt lat="44.574183309450746" lon="9.15438330732286">
        <ele>1550.79</ele>
        <time>2019-05-22T12:45:07Z</time>
      </trkpt>
      <trkpt lat="44.574184818193316" lon="9.154381798580289">
        <ele>1550.8</ele>
        <time>2019-05-22T12:45:27Z</time>
      </trkpt>
      <trkpt lat="44.574185321107507" lon="9.154393952339888">
        <ele>1550.8</ele>
        <time>2019-05-22T12:45:54Z</time>
      </trkpt>
      <trkpt lat="44.574186829850078" lon="9.154399232938886">
        <ele>1551.2</ele>
        <time>2019-05-22T12:46:00Z</time>
      </trkpt>
      <trkpt lat="44.574176939204335" lon="9.154376015067101">
        <ele>1551.3</ele>
        <time>2019-05-22T12:46:14Z</time>
      </trkpt>
      <trkpt lat="44.574172412976623" lon="9.154375176876783">
        <ele>1551.54</ele>
        <time>2019-05-22T12:46:27Z</time>
      </trkpt>
      <trkpt lat="44.574172496795654" lon="9.154365202412009">
        <ele>1551.2</ele>
        <time>2019-05-22T12:46:49Z</time>
      </trkpt>
      <trkpt lat="44.574169730767608" lon="9.154364196583629">
        <ele>1552.04</ele>
        <time>2019-05-22T12:47:06Z</time>
      </trkpt>
      <trkpt lat="44.574167802929878" lon="9.154334524646401">
        <ele>1552.4300000000001</ele>
        <time>2019-05-22T12:47:17Z</time>
      </trkpt>
      <trkpt lat="44.574155481532216" lon="9.154299488291144">
        <ele>1551.5599999999999</ele>
        <time>2019-05-22T12:47:20Z</time>
      </trkpt>
      <trkpt lat="44.574034111574292" lon="9.154088934883475">
        <ele>1549.9200000000001</ele>
        <time>2019-05-22T12:47:38Z</time>
      </trkpt>
      <trkpt lat="44.573966218158603" lon="9.154001176357269">
        <ele>1549.52</ele>
        <time>2019-05-22T12:47:50Z</time>
      </trkpt>
      <trkpt lat="44.573956243693829" lon="9.15398265235126">
        <ele>1549.6700000000001</ele>
        <time>2019-05-22T12:48:01Z</time>
      </trkpt>
      <trkpt lat="44.57394459284842" lon="9.153938144445419">
        <ele>1549.0999999999999</ele>
        <time>2019-05-22T12:48:17Z</time>
      </trkpt>
      <trkpt lat="44.573893966153264" lon="9.153725579380989">
        <ele>1547.22</ele>
        <time>2019-05-22T12:48:31Z</time>
      </trkpt>
      <trkpt lat="44.57385809160769" lon="9.1536127589643">
        <ele>1548.3900000000001</ele>
        <time>2019-05-22T12:48:44Z</time>
      </trkpt>
      <trkpt lat="44.573859684169292" lon="9.153609992936254">
        <ele>1547.8</ele>
        <time>2019-05-22T12:48:58Z</time>
      </trkpt>
      <trkpt lat="44.573860606178641" lon="9.153613848611713">
        <ele>1548.53</ele>
        <time>2019-05-22T12:49:14Z</time>
      </trkpt>
      <trkpt lat="44.573868317529559" lon="9.153610914945602">
        <ele>1548.28</ele>
        <time>2019-05-22T12:49:30Z</time>
      </trkpt>
      <trkpt lat="44.573877286165953" lon="9.153618961572647">
        <ele>1548.6700000000001</ele>
        <time>2019-05-22T12:49:48Z</time>
      </trkpt>
      <trkpt lat="44.573875609785318" lon="9.153623739257455">
        <ele>1548.9400000000001</ele>
        <time>2019-05-22T12:50:09Z</time>
      </trkpt>
      <trkpt lat="44.573879633098841" lon="9.153615441173315">
        <ele>1548.98</ele>
        <time>2019-05-22T12:50:26Z</time>
      </trkpt>
      <trkpt lat="44.573876950889826" lon="9.153623906895518">
        <ele>1548.8199999999999</ele>
        <time>2019-05-22T12:50:40Z</time>
      </trkpt>
      <trkpt lat="44.573865970596671" lon="9.153616447001696">
        <ele>1549.2</ele>
        <time>2019-05-22T12:51:03Z</time>
      </trkpt>
      <trkpt lat="44.573872508481145" lon="9.153620721772313">
        <ele>1548.8399999999999</ele>
        <time>2019-05-22T12:51:17Z</time>
      </trkpt>
      <trkpt lat="44.573868988081813" lon="9.153630444779992">
        <ele>1549.3800000000001</ele>
        <time>2019-05-22T12:51:54Z</time>
      </trkpt>
      <trkpt lat="44.573875442147255" lon="9.153626337647438">
        <ele>1549.23</ele>
        <time>2019-05-22T12:52:21Z</time>
      </trkpt>
      <trkpt lat="44.573876615613699" lon="9.153625248000026">
        <ele>1547.6800000000001</ele>
        <time>2019-05-22T12:52:31Z</time>
      </trkpt>
      <trkpt lat="44.573877369984984" lon="9.153624409809709">
        <ele>1549.4100000000001</ele>
        <time>2019-05-22T12:52:34Z</time>
      </trkpt>
      <trkpt lat="44.57387862727046" lon="9.153624242171645">
        <ele>1550.6199999999999</ele>
        <time>2019-05-22T12:52:38Z</time>
      </trkpt>
      <trkpt lat="44.573880052193999" lon="9.153621224686503">
        <ele>1549.6500000000001</ele>
        <time>2019-05-22T12:52:42Z</time>
      </trkpt>
      <trkpt lat="44.573875274509192" lon="9.153613345697522">
        <ele>1549.5</ele>
        <time>2019-05-22T12:53:02Z</time>
      </trkpt>
      <trkpt lat="44.573870915919542" lon="9.15359758771956">
        <ele>1548.6900000000001</ele>
        <time>2019-05-22T12:53:05Z</time>
      </trkpt>
      <trkpt lat="44.573855828493834" lon="9.153519300743938">
        <ele>1547.1800000000001</ele>
        <time>2019-05-22T12:53:10Z</time>
      </trkpt>
      <trkpt lat="44.573743678629398" lon="9.153294246643782">
        <ele>1546.6900000000001</ele>
        <time>2019-05-22T12:53:25Z</time>
      </trkpt>
      <trkpt lat="44.573705708608031" lon="9.15310800075531">
        <ele>1545.3499999999999</ele>
        <time>2019-05-22T12:53:37Z</time>
      </trkpt>
      <trkpt lat="44.573693722486496" lon="9.152871631085873">
        <ele>1544.5999999999999</ele>
        <time>2019-05-22T12:53:51Z</time>
      </trkpt>
      <trkpt lat="44.57373445853591" lon="9.152689827606082">
        <ele>1544.05</ele>
        <time>2019-05-22T12:54:04Z</time>
      </trkpt>
      <trkpt lat="44.573729513213038" lon="9.152573319151998">
        <ele>1544.3099999999999</ele>
        <time>2019-05-22T12:54:15Z</time>
      </trkpt>
      <trkpt lat="44.573734542354941" lon="9.152516908943653">
        <ele>1543.23</ele>
        <time>2019-05-22T12:54:26Z</time>
      </trkpt>
      <trkpt lat="44.573753736913204" lon="9.152462929487228">
        <ele>1544.98</ele>
        <time>2019-05-22T12:54:30Z</time>
      </trkpt>
      <trkpt lat="44.573836550116539" lon="9.152260171249509">
        <ele>1547.6500000000001</ele>
        <time>2019-05-22T12:54:46Z</time>
      </trkpt>
      <trkpt lat="44.573890781030059" lon="9.152045762166381">
        <ele>1550.6700000000001</ele>
        <time>2019-05-22T12:55:02Z</time>
      </trkpt>
      <trkpt lat="44.573896396905184" lon="9.152035284787417">
        <ele>1550.9100000000001</ele>
        <time>2019-05-22T12:55:03Z</time>
      </trkpt>
      <trkpt lat="44.573943503201008" lon="9.151838729158044">
        <ele>1552.6500000000001</ele>
        <time>2019-05-22T12:55:20Z</time>
      </trkpt>
      <trkpt lat="44.573995219543576" lon="9.151673018932343">
        <ele>1555.9000000000001</ele>
        <time>2019-05-22T12:55:36Z</time>
      </trkpt>
      <trkpt lat="44.574029501527548" lon="9.151541423052549">
        <ele>1557.72</ele>
        <time>2019-05-22T12:55:49Z</time>
      </trkpt>
      <trkpt lat="44.574066549539566" lon="9.151363139972091">
        <ele>1559.1099999999999</ele>
        <time>2019-05-22T12:56:05Z</time>
      </trkpt>
      <trkpt lat="44.574098652228713" lon="9.15123070590198">
        <ele>1561.52</ele>
        <time>2019-05-22T12:56:18Z</time>
      </trkpt>
      <trkpt lat="44.574129832908511" lon="9.151068599894643">
        <ele>1563.71</ele>
        <time>2019-05-22T12:56:33Z</time>
      </trkpt>
      <trkpt lat="44.574135951697826" lon="9.15091990493238">
        <ele>1565.3199999999999</ele>
        <time>2019-05-22T12:56:46Z</time>
      </trkpt>
      <trkpt lat="44.574143914505839" lon="9.150744052603841">
        <ele>1566.9400000000001</ele>
        <time>2019-05-22T12:57:00Z</time>
      </trkpt>
      <trkpt lat="44.574177442118526" lon="9.150560069829226">
        <ele>1568.76</ele>
        <time>2019-05-22T12:57:15Z</time>
      </trkpt>
      <trkpt lat="44.574168641120195" lon="9.150400143116713">
        <ele>1570.3499999999999</ele>
        <time>2019-05-22T12:57:29Z</time>
      </trkpt>
      <trkpt lat="44.574135951697826" lon="9.150227392092347">
        <ele>1572.54</ele>
        <time>2019-05-22T12:57:44Z</time>
      </trkpt>
      <trkpt lat="44.574137879535556" lon="9.150088420137763">
        <ele>1574.3699999999999</ele>
        <time>2019-05-22T12:57:57Z</time>
      </trkpt>
      <trkpt lat="44.574121367186308" lon="9.149970738217235">
        <ele>1577.6300000000001</ele>
        <time>2019-05-22T12:58:10Z</time>
      </trkpt>
      <trkpt lat="44.574119439348578" lon="9.149835705757141">
        <ele>1580.5</ele>
        <time>2019-05-22T12:58:25Z</time>
      </trkpt>
      <trkpt lat="44.574103178456426" lon="9.14974182844162">
        <ele>1581.21</ele>
        <time>2019-05-22T12:58:38Z</time>
      </trkpt>
      <trkpt lat="44.574112314730883" lon="9.149602856487036">
        <ele>1583.6600000000001</ele>
        <time>2019-05-22T12:58:52Z</time>
      </trkpt>
      <trkpt lat="44.574118936434388" lon="9.149540076032281">
        <ele>1584.23</ele>
        <time>2019-05-22T12:59:01Z</time>
      </trkpt>
      <trkpt lat="44.574122121557593" lon="9.149539321660996">
        <ele>1581.6700000000001</ele>
        <time>2019-05-22T12:59:10Z</time>
      </trkpt>
      <trkpt lat="44.574115248396993" lon="9.149534543976188">
        <ele>1583.49</ele>
        <time>2019-05-22T13:02:46Z</time>
      </trkpt>
      <trkpt lat="44.574111811816692" lon="9.149529514834285">
        <ele>1583.04</ele>
        <time>2019-05-22T13:02:56Z</time>
      </trkpt>
      <trkpt lat="44.57407258450985" lon="9.149504117667675">
        <ele>1582.3</ele>
        <time>2019-05-22T13:03:00Z</time>
      </trkpt>
      <trkpt lat="44.574026400223374" lon="9.149494729936123">
        <ele>1582.77</ele>
        <time>2019-05-22T13:03:11Z</time>
      </trkpt>
      <trkpt lat="44.573995973914862" lon="9.149481235072017">
        <ele>1582.0599999999999</ele>
        <time>2019-05-22T13:03:23Z</time>
      </trkpt>
      <trkpt lat="44.573964290320873" lon="9.149516355246306">
        <ele>1581.7</ele>
        <time>2019-05-22T13:03:54Z</time>
      </trkpt>
      <trkpt lat="44.573928164318204" lon="9.149503195658326">
        <ele>1579.6199999999999</ele>
        <time>2019-05-22T13:04:07Z</time>
      </trkpt>
      <trkpt lat="44.57379212602973" lon="9.149439996108413">
        <ele>1575.8299999999999</ele>
        <time>2019-05-22T13:04:21Z</time>
      </trkpt>
      <trkpt lat="44.573710234835744" lon="9.149352069944143">
        <ele>1573.5799999999999</ele>
        <time>2019-05-22T13:04:35Z</time>
      </trkpt>
      <trkpt lat="44.573679892346263" lon="9.149347292259336">
        <ele>1572.6300000000001</ele>
        <time>2019-05-22T13:04:50Z</time>
      </trkpt>
      <trkpt lat="44.573651226237416" lon="9.149300437420607">
        <ele>1570.9300000000001</ele>
        <time>2019-05-22T13:04:54Z</time>
      </trkpt>
      <trkpt lat="44.573574867099524" lon="9.149191975593567">
        <ele>1567.7</ele>
        <time>2019-05-22T13:05:02Z</time>
      </trkpt>
      <trkpt lat="44.573484677821398" lon="9.149092147126794">
        <ele>1564.6900000000001</ele>
        <time>2019-05-22T13:05:12Z</time>
      </trkpt>
      <trkpt lat="44.573400020599365" lon="9.149023331701756">
        <ele>1561.54</ele>
        <time>2019-05-22T13:05:21Z</time>
      </trkpt>
      <trkpt lat="44.573375964537263" lon="9.149004723876715">
        <ele>1560.8699999999999</ele>
        <time>2019-05-22T13:05:23Z</time>
      </trkpt>
      <trkpt lat="44.573267083615065" lon="9.148909170180559">
        <ele>1557.9000000000001</ele>
        <time>2019-05-22T13:05:34Z</time>
      </trkpt>
      <trkpt lat="44.57324244081974" lon="9.148910343647003">
        <ele>1557.53</ele>
        <time>2019-05-22T13:05:36Z</time>
      </trkpt>
      <trkpt lat="44.573111180216074" lon="9.148805821314454">
        <ele>1553.6800000000001</ele>
        <time>2019-05-22T13:05:49Z</time>
      </trkpt>
      <trkpt lat="44.573093075305223" lon="9.148799702525139">
        <ele>1552.9100000000001</ele>
        <time>2019-05-22T13:05:51Z</time>
      </trkpt>
      <trkpt lat="44.573009088635445" lon="9.148726779967547">
        <ele>1550.4300000000001</ele>
        <time>2019-05-22T13:06:02Z</time>
      </trkpt>
      <trkpt lat="44.572923928499222" lon="9.148630639538169">
        <ele>1547.3699999999999</ele>
        <time>2019-05-22T13:06:12Z</time>
      </trkpt>
      <trkpt lat="44.572811778634787" lon="9.14862091653049">
        <ele>1544.3499999999999</ele>
        <time>2019-05-22T13:06:23Z</time>
      </trkpt>
      <trkpt lat="44.572697952389717" lon="9.1487274505198">
        <ele>1541.3800000000001</ele>
        <time>2019-05-22T13:06:35Z</time>
      </trkpt>
      <trkpt lat="44.572596363723278" lon="9.148762067779899">
        <ele>1538.3399999999999</ele>
        <time>2019-05-22T13:06:49Z</time>
      </trkpt>
      <trkpt lat="44.572504414245486" lon="9.14874454960227">
        <ele>1536.1099999999999</ele>
        <time>2019-05-22T13:07:07Z</time>
      </trkpt>
      <trkpt lat="44.572365107014775" lon="9.148699371144176">
        <ele>1533.29</ele>
        <time>2019-05-22T13:07:20Z</time>
      </trkpt>
      <trkpt lat="44.572302075102925" lon="9.148719487711787">
        <ele>1531.95</ele>
        <time>2019-05-22T13:07:32Z</time>
      </trkpt>
      <trkpt lat="44.572289250791073" lon="9.148709597066045">
        <ele>1531.6800000000001</ele>
        <time>2019-05-22T13:07:38Z</time>
      </trkpt>
      <trkpt lat="44.57226226106286" lon="9.148677494376898">
        <ele>1531.3</ele>
        <time>2019-05-22T13:07:52Z</time>
      </trkpt>
      <trkpt lat="44.572262009605765" lon="9.148692665621638">
        <ele>1531.1700000000001</ele>
        <time>2019-05-22T13:08:08Z</time>
      </trkpt>
      <trkpt lat="44.572161175310612" lon="9.148711441084743">
        <ele>1529.5999999999999</ele>
        <time>2019-05-22T13:08:18Z</time>
      </trkpt>
      <trkpt lat="44.572069896385074" lon="9.148687720298767">
        <ele>1528.78</ele>
        <time>2019-05-22T13:08:26Z</time>
      </trkpt>
      <trkpt lat="44.571939473971725" lon="9.148653773590922">
        <ele>1528.0799999999999</ele>
        <time>2019-05-22T13:08:37Z</time>
      </trkpt>
      <trkpt lat="44.571866299957037" lon="9.148632735013962">
        <ele>1526.6500000000001</ele>
        <time>2019-05-22T13:08:44Z</time>
      </trkpt>
      <trkpt lat="44.571848530322313" lon="9.148623263463378">
        <ele>1527.29</ele>
        <time>2019-05-22T13:08:46Z</time>
      </trkpt>
      <trkpt lat="44.571788096800447" lon="9.148636003956199">
        <ele>1526.3900000000001</ele>
        <time>2019-05-22T13:08:51Z</time>
      </trkpt>
      <trkpt lat="44.571652812883258" lon="9.148608846589923">
        <ele>1525.05</ele>
        <time>2019-05-22T13:09:03Z</time>
      </trkpt>
      <trkpt lat="44.571609646081924" lon="9.148583030328155">
        <ele>1524.8</ele>
        <time>2019-05-22T13:09:08Z</time>
      </trkpt>
      <trkpt lat="44.571557343006134" lon="9.148578587919474">
        <ele>1524.24</ele>
        <time>2019-05-22T13:09:12Z</time>
      </trkpt>
      <trkpt lat="44.571468494832516" lon="9.148584706708789">
        <ele>1523.75</ele>
        <time>2019-05-22T13:09:19Z</time>
      </trkpt>
      <trkpt lat="44.571333546191454" lon="9.148639105260372">
        <ele>1522.9000000000001</ele>
        <time>2019-05-22T13:09:34Z</time>
      </trkpt>
      <trkpt lat="44.571308484300971" lon="9.148683110252023">
        <ele>1522.8900000000001</ele>
        <time>2019-05-22T13:09:37Z</time>
      </trkpt>
      <trkpt lat="44.571294067427516" lon="9.148882515728474">
        <ele>1521.3299999999999</ele>
        <time>2019-05-22T13:09:49Z</time>
      </trkpt>
      <trkpt lat="44.57128157839179" lon="9.148901626467705">
        <ele>1521.04</ele>
        <time>2019-05-22T13:09:51Z</time>
      </trkpt>
      <trkpt lat="44.571260372176766" lon="9.148934064432979">
        <ele>1519.4400000000001</ele>
        <time>2019-05-22T13:09:56Z</time>
      </trkpt>
      <trkpt lat="44.571235729381442" lon="9.148987457156181">
        <ele>1519.4100000000001</ele>
        <time>2019-05-22T13:10:01Z</time>
      </trkpt>
      <trkpt lat="44.571186946704984" lon="9.149047387763858">
        <ele>1517.8099999999999</ele>
        <time>2019-05-22T13:10:07Z</time>
      </trkpt>
      <trkpt lat="44.571088459342718" lon="9.149187533184886">
        <ele>1517.2</ele>
        <time>2019-05-22T13:10:19Z</time>
      </trkpt>
      <trkpt lat="44.570981422439218" lon="9.149283170700073">
        <ele>1516.45</ele>
        <time>2019-05-22T13:10:32Z</time>
      </trkpt>
      <trkpt lat="44.570858627557755" lon="9.149366402998567">
        <ele>1514.28</ele>
        <time>2019-05-22T13:10:42Z</time>
      </trkpt>
      <trkpt lat="44.570786124095321" lon="9.14940127171576">
        <ele>1512.52</ele>
        <time>2019-05-22T13:10:48Z</time>
      </trkpt>
      <trkpt lat="44.570703394711018" lon="9.149458771571517">
        <ele>1511.0799999999999</ele>
        <time>2019-05-22T13:10:55Z</time>
      </trkpt>
      <trkpt lat="44.570676824077964" lon="9.149452904239297">
        <ele>1510.8099999999999</ele>
        <time>2019-05-22T13:10:58Z</time>
      </trkpt>
      <trkpt lat="44.570501642301679" lon="9.149507051333785">
        <ele>1509.78</ele>
        <time>2019-05-22T13:11:13Z</time>
      </trkpt>
      <trkpt lat="44.570346660912037" lon="9.149583661928773">
        <ele>1507.8399999999999</ele>
        <time>2019-05-22T13:11:26Z</time>
      </trkpt>
      <trkpt lat="44.570220513269305" lon="9.149671588093042">
        <ele>1505.8699999999999</ele>
        <time>2019-05-22T13:11:37Z</time>
      </trkpt>
      <trkpt lat="44.570075673982501" lon="9.149751383811235">
        <ele>1505.1800000000001</ele>
        <time>2019-05-22T13:11:49Z</time>
      </trkpt>
      <trkpt lat="44.569940641522408" lon="9.149801004678011">
        <ele>1504.6600000000001</ele>
        <time>2019-05-22T13:12:01Z</time>
      </trkpt>
      <trkpt lat="44.56984743475914" lon="9.149839393794537">
        <ele>1502.0899999999999</ele>
        <time>2019-05-22T13:12:10Z</time>
      </trkpt>
      <trkpt lat="44.569748360663652" lon="9.149823384359479">
        <ele>1499.6099999999999</ele>
        <time>2019-05-22T13:12:19Z</time>
      </trkpt>
      <trkpt lat="44.569599330425262" lon="9.149819277226925">
        <ele>1496.9200000000001</ele>
        <time>2019-05-22T13:12:30Z</time>
      </trkpt>
      <trkpt lat="44.569490281865001" lon="9.149828916415572">
        <ele>1493.9100000000001</ele>
        <time>2019-05-22T13:12:40Z</time>
      </trkpt>
      <trkpt lat="44.569400679320097" lon="9.149820785969496">
        <ele>1491.1600000000001</ele>
        <time>2019-05-22T13:12:50Z</time>
      </trkpt>
      <trkpt lat="44.569348711520433" lon="9.149759178981185">
        <ele>1489.8499999999999</ele>
        <time>2019-05-22T13:12:56Z</time>
      </trkpt>
      <trkpt lat="44.569202614948153" lon="9.149679467082024">
        <ele>1487.1900000000001</ele>
        <time>2019-05-22T13:13:09Z</time>
      </trkpt>
      <trkpt lat="44.569068839773536" lon="9.149645268917084">
        <ele>1485.6099999999999</ele>
        <time>2019-05-22T13:13:19Z</time>
      </trkpt>
      <trkpt lat="44.568971861153841" lon="9.149552481248975">
        <ele>1483.98</ele>
        <time>2019-05-22T13:13:31Z</time>
      </trkpt>
      <trkpt lat="44.568849820643663" lon="9.149505961686373">
        <ele>1481.23</ele>
        <time>2019-05-22T13:13:44Z</time>
      </trkpt>
      <trkpt lat="44.568735407665372" lon="9.149465644732118">
        <ele>1479.9200000000001</ele>
        <time>2019-05-22T13:13:55Z</time>
      </trkpt>
      <trkpt lat="44.56857749260962" lon="9.149385513737798">
        <ele>1478.6400000000001</ele>
        <time>2019-05-22T13:14:07Z</time>
      </trkpt>
      <trkpt lat="44.5685422886163" lon="9.149367660284042">
        <ele>1478.49</ele>
        <time>2019-05-22T13:14:10Z</time>
      </trkpt>
      <trkpt lat="44.5684162247926" lon="9.149281913414598">
        <ele>1477.1900000000001</ele>
        <time>2019-05-22T13:14:22Z</time>
      </trkpt>
      <trkpt lat="44.568322179839015" lon="9.149167248979211">
        <ele>1475.8699999999999</ele>
        <time>2019-05-22T13:14:33Z</time>
      </trkpt>
      <trkpt lat="44.568131156265736" lon="9.149106396362186">
        <ele>1475.46</ele>
        <time>2019-05-22T13:14:47Z</time>
      </trkpt>
      <trkpt lat="44.567964356392622" lon="9.149106815457344">
        <ele>1474.96</ele>
        <time>2019-05-22T13:15:01Z</time>
      </trkpt>
      <trkpt lat="44.567875843495131" lon="9.149065408855677">
        <ele>1474.8099999999999</ele>
        <time>2019-05-22T13:15:10Z</time>
      </trkpt>
      <trkpt lat="44.567795963957906" lon="9.149050405249">
        <ele>1474.52</ele>
        <time>2019-05-22T13:15:21Z</time>
      </trkpt>
      <trkpt lat="44.567775595933199" lon="9.149068677797914">
        <ele>1473.48</ele>
        <time>2019-05-22T13:15:27Z</time>
      </trkpt>
      <trkpt lat="44.56775950267911" lon="9.149089716374874">
        <ele>1474.8499999999999</ele>
        <time>2019-05-22T13:15:34Z</time>
      </trkpt>
      <trkpt lat="44.567724047228694" lon="9.14909197948873">
        <ele>1474.3</ele>
        <time>2019-05-22T13:17:11Z</time>
      </trkpt>
      <trkpt lat="44.567701416090131" lon="9.149102875962853">
        <ele>1474.54</ele>
        <time>2019-05-22T13:18:43Z</time>
      </trkpt>
      <trkpt lat="44.567627655342221" lon="9.149055266752839">
        <ele>1474.24</ele>
        <time>2019-05-22T13:18:57Z</time>
      </trkpt>
      <trkpt lat="44.567555990070105" lon="9.149034563452005">
        <ele>1473.6600000000001</ele>
        <time>2019-05-22T13:19:10Z</time>
      </trkpt>
      <trkpt lat="44.56750150769949" lon="9.148980919271708">
        <ele>1476.28</ele>
        <time>2019-05-22T13:27:09Z</time>
      </trkpt>
      <trkpt lat="44.567473512142897" lon="9.148946721106768">
        <ele>1476.02</ele>
        <time>2019-05-22T13:27:27Z</time>
      </trkpt>
      <trkpt lat="44.567402601242065" lon="9.148924509063363">
        <ele>1475.97</ele>
        <time>2019-05-22T13:27:41Z</time>
      </trkpt>
      <trkpt lat="44.567352561280131" lon="9.148919647559524">
        <ele>1475.6900000000001</ele>
        <time>2019-05-22T13:27:47Z</time>
      </trkpt>
      <trkpt lat="44.567305874079466" lon="9.148909421637654">
        <ele>1475.52</ele>
        <time>2019-05-22T13:27:51Z</time>
      </trkpt>
      <trkpt lat="44.567143097519875" lon="9.148902799934149">
        <ele>1475.5899999999999</ele>
        <time>2019-05-22T13:28:06Z</time>
      </trkpt>
      <trkpt lat="44.566924413666129" lon="9.148916462436318">
        <ele>1475.51</ele>
        <time>2019-05-22T13:28:23Z</time>
      </trkpt>
      <trkpt lat="44.566746046766639" lon="9.148961137980223">
        <ele>1475.9000000000001</ele>
        <time>2019-05-22T13:28:38Z</time>
      </trkpt>
      <trkpt lat="44.566643703728914" lon="9.148952672258019">
        <ele>1476.46</ele>
        <time>2019-05-22T13:28:50Z</time>
      </trkpt>
      <trkpt lat="44.566503223031759" lon="9.148926772177219">
        <ele>1477.9000000000001</ele>
        <time>2019-05-22T13:29:05Z</time>
      </trkpt>
      <trkpt lat="44.566337931901217" lon="9.148853346705437">
        <ele>1479.0899999999999</ele>
        <time>2019-05-22T13:29:21Z</time>
      </trkpt>
      <trkpt lat="44.566213376820087" lon="9.148829961195588">
        <ele>1475.8</ele>
        <time>2019-05-22T13:29:34Z</time>
      </trkpt>
      <trkpt lat="44.566107178106904" lon="9.14878117851913">
        <ele>1473.96</ele>
        <time>2019-05-22T13:29:47Z</time>
      </trkpt>
      <trkpt lat="44.566000308841467" lon="9.148738514631987">
        <ele>1471.2</ele>
        <time>2019-05-22T13:29:58Z</time>
      </trkpt>
      <trkpt lat="44.565892266109586" lon="9.14865461178124">
        <ele>1468.47</ele>
        <time>2019-05-22T13:30:10Z</time>
      </trkpt>
      <trkpt lat="44.565784055739641" lon="9.148561572656035">
        <ele>1465.53</ele>
        <time>2019-05-22T13:30:25Z</time>
      </trkpt>
      <trkpt lat="44.565721023827791" lon="9.148453613743186">
        <ele>1462.3900000000001</ele>
        <time>2019-05-22T13:30:37Z</time>
      </trkpt>
      <trkpt lat="44.565693531185389" lon="9.14833065122366">
        <ele>1460.52</ele>
        <time>2019-05-22T13:30:46Z</time>
      </trkpt>
      <trkpt lat="44.565609376877546" lon="9.148226883262396">
        <ele>1458.1700000000001</ele>
        <time>2019-05-22T13:30:57Z</time>
      </trkpt>
      <trkpt lat="44.565548608079553" lon="9.148129569366574">
        <ele>1455.9100000000001</ele>
        <time>2019-05-22T13:31:08Z</time>
      </trkpt>
      <trkpt lat="44.565436542034149" lon="9.148091431707144">
        <ele>1452.78</ele>
        <time>2019-05-22T13:31:22Z</time>
      </trkpt>
      <trkpt lat="44.565350543707609" lon="9.148105178028345">
        <ele>1449.79</ele>
        <time>2019-05-22T13:31:35Z</time>
      </trkpt>
      <trkpt lat="44.565269155427814" lon="9.148075925186276">
        <ele>1447.3499999999999</ele>
        <time>2019-05-22T13:31:48Z</time>
      </trkpt>
      <trkpt lat="44.565231604501605" lon="9.148087576031685">
        <ele>1445.23</ele>
        <time>2019-05-22T13:31:54Z</time>
      </trkpt>
      <trkpt lat="44.565131273120642" lon="9.148108949884772">
        <ele>1442.77</ele>
        <time>2019-05-22T13:32:09Z</time>
      </trkpt>
      <trkpt lat="44.565055500715971" lon="9.148154882714152">
        <ele>1440.53</ele>
        <time>2019-05-22T13:32:16Z</time>
      </trkpt>
      <trkpt lat="44.564970675855875" lon="9.148212047293782">
        <ele>1437.3299999999999</ele>
        <time>2019-05-22T13:32:29Z</time>
      </trkpt>
      <trkpt lat="44.564864644780755" lon="9.148221015930176">
        <ele>1434.24</ele>
        <time>2019-05-22T13:32:42Z</time>
      </trkpt>
      <trkpt lat="44.564728271216154" lon="9.148207101970911">
        <ele>1431.78</ele>
        <time>2019-05-22T13:32:55Z</time>
      </trkpt>
      <trkpt lat="44.564578821882606" lon="9.148229733109474">
        <ele>1429.1199999999999</ele>
        <time>2019-05-22T13:33:11Z</time>
      </trkpt>
      <trkpt lat="44.564520316198468" lon="9.148287819698453">
        <ele>1428.96</ele>
        <time>2019-05-22T13:33:24Z</time>
      </trkpt>
      <trkpt lat="44.564459463581443" lon="9.148293770849705">
        <ele>1429.1199999999999</ele>
        <time>2019-05-22T13:33:33Z</time>
      </trkpt>
      <trkpt lat="44.564388804137707" lon="9.148288993164897">
        <ele>1425.98</ele>
        <time>2019-05-22T13:33:44Z</time>
      </trkpt>
      <trkpt lat="44.564274307340384" lon="9.148297877982259">
        <ele>1423.5599999999999</ele>
        <time>2019-05-22T13:33:59Z</time>
      </trkpt>
      <trkpt lat="44.56415687687695" lon="9.148358479142189">
        <ele>1421.3499999999999</ele>
        <time>2019-05-22T13:34:14Z</time>
      </trkpt>
      <trkpt lat="44.564025616273284" lon="9.148417236283422">
        <ele>1420.1099999999999</ele>
        <time>2019-05-22T13:34:26Z</time>
      </trkpt>
      <trkpt lat="44.563922015950084" lon="9.148426959291101">
        <ele>1418.6300000000001</ele>
        <time>2019-05-22T13:34:39Z</time>
      </trkpt>
      <trkpt lat="44.563805423676968" lon="9.148395108059049">
        <ele>1416.5699999999999</ele>
        <time>2019-05-22T13:34:52Z</time>
      </trkpt>
      <trkpt lat="44.563661506399512" lon="9.148389743641019">
        <ele>1414.6900000000001</ele>
        <time>2019-05-22T13:35:07Z</time>
      </trkpt>
      <trkpt lat="44.56352605484426" lon="9.148420924320817">
        <ele>1412.25</ele>
        <time>2019-05-22T13:35:21Z</time>
      </trkpt>
      <trkpt lat="44.563457071781158" lon="9.148499462753534">
        <ele>1410.8800000000001</ele>
        <time>2019-05-22T13:35:39Z</time>
      </trkpt>
      <trkpt lat="44.563403595238924" lon="9.148582024499774">
        <ele>1409.01</ele>
        <time>2019-05-22T13:35:53Z</time>
      </trkpt>
      <trkpt lat="44.563297564163804" lon="9.148622425273061">
        <ele>1406.4000000000001</ele>
        <time>2019-05-22T13:36:06Z</time>
      </trkpt>
      <trkpt lat="44.563245680183172" lon="9.148657210171223">
        <ele>1405.3199999999999</ele>
        <time>2019-05-22T13:36:11Z</time>
      </trkpt>
      <trkpt lat="44.563108049333096" lon="9.148710183799267">
        <ele>1403.0599999999999</ele>
        <time>2019-05-22T13:36:24Z</time>
      </trkpt>
      <trkpt lat="44.563017524778843" lon="9.148781346157193">
        <ele>1400.5799999999999</ele>
        <time>2019-05-22T13:36:36Z</time>
      </trkpt>
      <trkpt lat="44.562912750989199" lon="9.148809593170881">
        <ele>1397.45</ele>
        <time>2019-05-22T13:36:49Z</time>
      </trkpt>
      <trkpt lat="44.562773946672678" lon="9.148796433582902">
        <ele>1395.05</ele>
        <time>2019-05-22T13:37:05Z</time>
      </trkpt>
      <trkpt lat="44.562651235610247" lon="9.148769779130817">
        <ele>1392.8099999999999</ele>
        <time>2019-05-22T13:37:16Z</time>
      </trkpt>
      <trkpt lat="44.562519220635295" lon="9.14866978302598">
        <ele>1390.5999999999999</ele>
        <time>2019-05-22T13:37:28Z</time>
      </trkpt>
      <trkpt lat="44.562495918944478" lon="9.148648576810956">
        <ele>1390.3299999999999</ele>
        <time>2019-05-22T13:37:30Z</time>
      </trkpt>
      <trkpt lat="44.562403969466686" lon="9.148563500493765">
        <ele>1388.97</ele>
        <time>2019-05-22T13:37:42Z</time>
      </trkpt>
      <trkpt lat="44.562345463782549" lon="9.148518154397607">
        <ele>1388.0899999999999</ele>
        <time>2019-05-22T13:37:54Z</time>
      </trkpt>
      <trkpt lat="44.562243623659015" lon="9.148513125255704">
        <ele>1387.46</ele>
        <time>2019-05-22T13:38:17Z</time>
      </trkpt>
      <trkpt lat="44.562187464907765" lon="9.148422600701451">
        <ele>1386.49</ele>
        <time>2019-05-22T13:38:25Z</time>
      </trkpt>
      <trkpt lat="44.562179166823626" lon="9.148288406431675">
        <ele>1384.51</ele>
        <time>2019-05-22T13:38:37Z</time>
      </trkpt>
      <trkpt lat="44.562105741351843" lon="9.148241216316819">
        <ele>1381.9000000000001</ele>
        <time>2019-05-22T13:38:46Z</time>
      </trkpt>
      <trkpt lat="44.562023682519794" lon="9.148173909634352">
        <ele>1380.1400000000001</ele>
        <time>2019-05-22T13:38:56Z</time>
      </trkpt>
      <trkpt lat="44.56194682046771" lon="9.148080702871084">
        <ele>1378.6099999999999</ele>
        <time>2019-05-22T13:39:06Z</time>
      </trkpt>
      <trkpt lat="44.561819080263376" lon="9.147970480844379">
        <ele>1375.8599999999999</ele>
        <time>2019-05-22T13:39:20Z</time>
      </trkpt>
      <trkpt lat="44.561675749719143" lon="9.147904012352228">
        <ele>1372.6900000000001</ele>
        <time>2019-05-22T13:39:35Z</time>
      </trkpt>
      <trkpt lat="44.561539627611637" lon="9.14777752943337">
        <ele>1370.3</ele>
        <time>2019-05-22T13:39:49Z</time>
      </trkpt>
      <trkpt lat="44.561399733647704" lon="9.14770276285708">
        <ele>1369.24</ele>
        <time>2019-05-22T13:40:01Z</time>
      </trkpt>
      <trkpt lat="44.561330750584602" lon="9.147695554420352">
        <ele>1368.24</ele>
        <time>2019-05-22T13:40:06Z</time>
      </trkpt>
      <trkpt lat="44.561262689530849" lon="9.147695889696479">
        <ele>1367.5899999999999</ele>
        <time>2019-05-22T13:40:11Z</time>
      </trkpt>
      <trkpt lat="44.56118649803102" lon="9.147693375125527">
        <ele>1367</ele>
        <time>2019-05-22T13:40:18Z</time>
      </trkpt>
      <trkpt lat="44.561071582138538" lon="9.147732350975275">
        <ele>1365.79</ele>
        <time>2019-05-22T13:40:30Z</time>
      </trkpt>
      <trkpt lat="44.560950882732868" lon="9.147737799212337">
        <ele>1362.6199999999999</ele>
        <time>2019-05-22T13:40:43Z</time>
      </trkpt>
      <trkpt lat="44.560803780332208" lon="9.147681640461087">
        <ele>1359.25</ele>
        <time>2019-05-22T13:40:57Z</time>
      </trkpt>
      <trkpt lat="44.560681907460093" lon="9.147683987393975">
        <ele>1356.5799999999999</ele>
        <time>2019-05-22T13:41:10Z</time>
      </trkpt>
      <trkpt lat="44.560556346550584" lon="9.147648196667433">
        <ele>1353.73</ele>
        <time>2019-05-22T13:41:23Z</time>
      </trkpt>
      <trkpt lat="44.560444531962276" lon="9.147603772580624">
        <ele>1352.3399999999999</ele>
        <time>2019-05-22T13:41:34Z</time>
      </trkpt>
      <trkpt lat="44.560381332412362" lon="9.147608634084463">
        <ele>1351.6500000000001</ele>
        <time>2019-05-22T13:41:42Z</time>
      </trkpt>
      <trkpt lat="44.560175808146596" lon="9.147621793672442">
        <ele>1349.54</ele>
        <time>2019-05-22T13:41:55Z</time>
      </trkpt>
      <trkpt lat="44.560020323842764" lon="9.147568568587303">
        <ele>1349.52</ele>
        <time>2019-05-22T13:42:07Z</time>
      </trkpt>
      <trkpt lat="44.559829803183675" lon="9.147572424262762">
        <ele>1349.1400000000001</ele>
        <time>2019-05-22T13:42:20Z</time>
      </trkpt>
      <trkpt lat="44.559696279466152" lon="9.147630846127868">
        <ele>1348.6700000000001</ele>
        <time>2019-05-22T13:42:31Z</time>
      </trkpt>
      <trkpt lat="44.55961212515831" lon="9.147670492529869">
        <ele>1348.5599999999999</ele>
        <time>2019-05-22T13:42:38Z</time>
      </trkpt>
      <trkpt lat="44.559502908959985" lon="9.147726567462087">
        <ele>1348.5599999999999</ele>
        <time>2019-05-22T13:42:51Z</time>
      </trkpt>
      <trkpt lat="44.559400817379355" lon="9.147775266319513">
        <ele>1347.8199999999999</ele>
        <time>2019-05-22T13:43:08Z</time>
      </trkpt>
      <trkpt lat="44.559253044426441" lon="9.147762274369597">
        <ele>1347.5999999999999</ele>
        <time>2019-05-22T13:43:23Z</time>
      </trkpt>
      <trkpt lat="44.559093620628119" lon="9.14774090051651">
        <ele>1346.7</ele>
        <time>2019-05-22T13:43:37Z</time>
      </trkpt>
      <trkpt lat="44.558987254276872" lon="9.147761017084122">
        <ele>1346.27</ele>
        <time>2019-05-22T13:43:49Z</time>
      </trkpt>
      <trkpt lat="44.558862447738647" lon="9.147739727050066">
        <ele>1345.75</ele>
        <time>2019-05-22T13:44:02Z</time>
      </trkpt>
      <trkpt lat="44.558714590966702" lon="9.147752216085792">
        <ele>1345.3699999999999</ele>
        <time>2019-05-22T13:44:14Z</time>
      </trkpt>
      <trkpt lat="44.558541839942336" lon="9.147797310724855">
        <ele>1345.6500000000001</ele>
        <time>2019-05-22T13:44:31Z</time>
      </trkpt>
      <trkpt lat="44.558398257941008" lon="9.14783276617527">
        <ele>1345.5899999999999</ele>
        <time>2019-05-22T13:44:43Z</time>
      </trkpt>
      <trkpt lat="44.558360120281577" lon="9.147851876914501">
        <ele>1344.21</ele>
        <time>2019-05-22T13:44:46Z</time>
      </trkpt>
      <trkpt lat="44.558207737281919" lon="9.1478864941746">
        <ele>1342.74</ele>
        <time>2019-05-22T13:45:00Z</time>
      </trkpt>
      <trkpt lat="44.55807832069695" lon="9.147933684289455">
        <ele>1339.45</ele>
        <time>2019-05-22T13:45:16Z</time>
      </trkpt>
      <trkpt lat="44.557979833334684" lon="9.147987077012658">
        <ele>1336.9400000000001</ele>
        <time>2019-05-22T13:45:28Z</time>
      </trkpt>
      <trkpt lat="44.557867348194122" lon="9.148061592131853">
        <ele>1334.4300000000001</ele>
        <time>2019-05-22T13:45:42Z</time>
      </trkpt>
      <trkpt lat="44.557734495028853" lon="9.148121858015657">
        <ele>1333.21</ele>
        <time>2019-05-22T13:45:55Z</time>
      </trkpt>
      <trkpt lat="44.557624021545053" lon="9.148138286545873">
        <ele>1332.8900000000001</ele>
        <time>2019-05-22T13:46:05Z</time>
      </trkpt>
      <trkpt lat="44.557488821446896" lon="9.148198049515486">
        <ele>1332.8299999999999</ele>
        <time>2019-05-22T13:46:19Z</time>
      </trkpt>
      <trkpt lat="44.55734783783555" lon="9.148151949048042">
        <ele>1330.4400000000001</ele>
        <time>2019-05-22T13:46:33Z</time>
      </trkpt>
      <trkpt lat="44.557255050167441" lon="9.148170305415988">
        <ele>1329.1099999999999</ele>
        <time>2019-05-22T13:46:44Z</time>
      </trkpt>
      <trkpt lat="44.5572554692626" lon="9.148167707026005">
        <ele>1329.1300000000001</ele>
        <time>2019-05-22T13:46:45Z</time>
      </trkpt>
      <trkpt lat="44.557207776233554" lon="9.148166365921497">
        <ele>1329.73</ele>
        <time>2019-05-22T13:47:08Z</time>
      </trkpt>
      <trkpt lat="44.557175589725375" lon="9.1482715588063">
        <ele>1328.1500000000001</ele>
        <time>2019-05-22T13:47:42Z</time>
      </trkpt>
      <trkpt lat="44.557140301913023" lon="9.148302739486098">
        <ele>1327.47</ele>
        <time>2019-05-22T13:47:53Z</time>
      </trkpt>
      <trkpt lat="44.557115659117699" lon="9.148296201601625">
        <ele>1327.0999999999999</ele>
        <time>2019-05-22T13:48:08Z</time>
      </trkpt>
      <trkpt lat="44.557101828977466" lon="9.148335512727499">
        <ele>1326.6900000000001</ele>
        <time>2019-05-22T13:48:12Z</time>
      </trkpt>
      <trkpt lat="44.557086070999503" lon="9.148350600153208">
        <ele>1326.3900000000001</ele>
        <time>2019-05-22T13:48:14Z</time>
      </trkpt>
      <trkpt lat="44.557022619992495" lon="9.148428300395608">
        <ele>1324.6800000000001</ele>
        <time>2019-05-22T13:48:29Z</time>
      </trkpt>
      <trkpt lat="44.556994289159775" lon="9.148452524095774">
        <ele>1324.4300000000001</ele>
        <time>2019-05-22T13:48:44Z</time>
      </trkpt>
      <trkpt lat="44.556904602795839" lon="9.148571211844683">
        <ele>1324.79</ele>
        <time>2019-05-22T13:48:57Z</time>
      </trkpt>
      <trkpt lat="44.556901752948761" lon="9.148642206564546">
        <ele>1325.2</ele>
        <time>2019-05-22T13:50:15Z</time>
      </trkpt>
      <trkpt lat="44.556861938908696" lon="9.148723343387246">
        <ele>1326.21</ele>
        <time>2019-05-22T13:50:29Z</time>
      </trkpt>
      <trkpt lat="44.556779963895679" lon="9.148844378069043">
        <ele>1328.54</ele>
        <time>2019-05-22T13:50:45Z</time>
      </trkpt>
      <trkpt lat="44.556705364957452" lon="9.148901542648673">
        <ele>1329.3</ele>
        <time>2019-05-22T13:51:00Z</time>
      </trkpt>
      <trkpt lat="44.556629257276654" lon="9.14901134558022">
        <ele>1330.79</ele>
        <time>2019-05-22T13:51:14Z</time>
      </trkpt>
      <trkpt lat="44.556505624204874" lon="9.149084519594908">
        <ele>1332.48</ele>
        <time>2019-05-22T13:51:30Z</time>
      </trkpt>
      <trkpt lat="44.556333292275667" lon="9.149187449365854">
        <ele>1334.1300000000001</ele>
        <time>2019-05-22T13:51:45Z</time>
      </trkpt>
      <trkpt lat="44.556306973099709" lon="9.149214690551162">
        <ele>1334.77</ele>
        <time>2019-05-22T13:51:51Z</time>
      </trkpt>
      <trkpt lat="44.556168587878346" lon="9.149343436583877">
        <ele>1336.71</ele>
        <time>2019-05-22T13:52:08Z</time>
      </trkpt>
      <trkpt lat="44.556060628965497" lon="9.149441504850984">
        <ele>1338.9100000000001</ele>
        <time>2019-05-22T13:52:23Z</time>
      </trkpt>
      <trkpt lat="44.55594789236784" lon="9.149495651945472">
        <ele>1341.27</ele>
        <time>2019-05-22T13:52:39Z</time>
      </trkpt>
      <trkpt lat="44.555847644805908" lon="9.149578465148807">
        <ele>1343.03</ele>
        <time>2019-05-22T13:52:53Z</time>
      </trkpt>
      <trkpt lat="44.555773716419935" lon="9.149707043543458">
        <ele>1343.9400000000001</ele>
        <time>2019-05-22T13:53:08Z</time>
      </trkpt>
      <trkpt lat="44.55567279830575" lon="9.149833777919412">
        <ele>1344.95</ele>
        <time>2019-05-22T13:53:22Z</time>
      </trkpt>
      <trkpt lat="44.55564396455884" lon="9.149931175634265">
        <ele>1346.95</ele>
        <time>2019-05-22T13:53:38Z</time>
      </trkpt>
      <trkpt lat="44.555617980659008" lon="9.15007995441556">
        <ele>1347.8399999999999</ele>
        <time>2019-05-22T13:53:51Z</time>
      </trkpt>
      <trkpt lat="44.555485295131803" lon="9.150238372385502">
        <ele>1350.5799999999999</ele>
        <time>2019-05-22T13:54:13Z</time>
      </trkpt>
      <trkpt lat="44.555456880480051" lon="9.15030425414443">
        <ele>1352.3099999999999</ele>
        <time>2019-05-22T13:54:27Z</time>
      </trkpt>
      <trkpt lat="44.555360823869705" lon="9.150401903316379">
        <ele>1354.6199999999999</ele>
        <time>2019-05-22T13:54:42Z</time>
      </trkpt>
      <trkpt lat="44.55531463958323" lon="9.150517238304019">
        <ele>1356.77</ele>
        <time>2019-05-22T13:54:57Z</time>
      </trkpt>
      <trkpt lat="44.555227803066373" lon="9.150601141154766">
        <ele>1359.05</ele>
        <time>2019-05-22T13:55:13Z</time>
      </trkpt>
      <trkpt lat="44.555192431434989" lon="9.150640536099672">
        <ele>1359.8699999999999</ele>
        <time>2019-05-22T13:55:25Z</time>
      </trkpt>
      <trkpt lat="44.555212464183569" lon="9.150665430352092">
        <ele>1360.53</ele>
        <time>2019-05-22T13:55:48Z</time>
      </trkpt>
      <trkpt lat="44.555153287947178" lon="9.150723265483975">
        <ele>1362.6500000000001</ele>
        <time>2019-05-22T13:56:02Z</time>
      </trkpt>
      <trkpt lat="44.555128645151854" lon="9.150727288797498">
        <ele>1368.26</ele>
        <time>2019-05-22T13:56:11Z</time>
      </trkpt>
      <trkpt lat="44.555123448371887" lon="9.15073181502521">
        <ele>1368.1300000000001</ele>
        <time>2019-05-22T13:56:12Z</time>
      </trkpt>
      <trkpt lat="44.555092938244343" lon="9.150741789489985">
        <ele>1365.5799999999999</ele>
        <time>2019-05-22T13:56:15Z</time>
      </trkpt>
      <trkpt lat="44.555000737309456" lon="9.15074011310935">
        <ele>1367.29</ele>
        <time>2019-05-22T13:56:30Z</time>
      </trkpt>
      <trkpt lat="44.554866291582584" lon="9.150769952684641">
        <ele>1367.1099999999999</ele>
        <time>2019-05-22T13:56:45Z</time>
      </trkpt>
      <trkpt lat="44.554763026535511" lon="9.150871960446239">
        <ele>1367.3800000000001</ele>
        <time>2019-05-22T13:56:58Z</time>
      </trkpt>
      <trkpt lat="44.554737461730838" lon="9.150892328470945">
        <ele>1367.27</ele>
        <time>2019-05-22T13:57:01Z</time>
      </trkpt>
      <trkpt lat="44.554711561650038" lon="9.150890400633216">
        <ele>1367.4400000000001</ele>
        <time>2019-05-22T13:57:03Z</time>
      </trkpt>
      <trkpt lat="44.554560771211982" lon="9.150981344282627">
        <ele>1367.3</ele>
        <time>2019-05-22T13:57:16Z</time>
      </trkpt>
      <trkpt lat="44.554393719881773" lon="9.151099696755409">
        <ele>1367.5599999999999</ele>
        <time>2019-05-22T13:57:30Z</time>
      </trkpt>
      <trkpt lat="44.554294729605317" lon="9.151142276823521">
        <ele>1367.8699999999999</ele>
        <time>2019-05-22T13:57:38Z</time>
      </trkpt>
      <trkpt lat="44.55419129692018" lon="9.151191310957074">
        <ele>1368.8699999999999</ele>
        <time>2019-05-22T13:57:49Z</time>
      </trkpt>
      <trkpt lat="44.554125163704157" lon="9.15125853382051">
        <ele>1370.3</ele>
        <time>2019-05-22T13:58:03Z</time>
      </trkpt>
      <trkpt lat="44.554007733240724" lon="9.151331456378102">
        <ele>1369.9300000000001</ele>
        <time>2019-05-22T13:58:15Z</time>
      </trkpt>
      <trkpt lat="44.553938582539558" lon="9.151401277631521">
        <ele>1369.8800000000001</ele>
        <time>2019-05-22T13:58:26Z</time>
      </trkpt>
      <trkpt lat="44.553865911439061" lon="9.151547206565738">
        <ele>1371.77</ele>
        <time>2019-05-22T13:58:40Z</time>
      </trkpt>
      <trkpt lat="44.553799526765943" lon="9.15163136087358">
        <ele>1373.3900000000001</ele>
        <time>2019-05-22T13:58:49Z</time>
      </trkpt>
      <trkpt lat="44.553664997220039" lon="9.151914250105619">
        <ele>1373.6800000000001</ele>
        <time>2019-05-22T13:59:06Z</time>
      </trkpt>
      <trkpt lat="44.553559049963951" lon="9.152057664468885">
        <ele>1373.3099999999999</ele>
        <time>2019-05-22T13:59:19Z</time>
      </trkpt>
      <trkpt lat="44.553486881777644" lon="9.152149530127645">
        <ele>1372.6199999999999</ele>
        <time>2019-05-22T13:59:30Z</time>
      </trkpt>
      <trkpt lat="44.553409768268466" lon="9.152265535667539">
        <ele>1372.27</ele>
        <time>2019-05-22T13:59:41Z</time>
      </trkpt>
      <trkpt lat="44.553341791033745" lon="9.152392605319619">
        <ele>1371.79</ele>
        <time>2019-05-22T13:59:51Z</time>
      </trkpt>
      <trkpt lat="44.553260570392013" lon="9.152520010247827">
        <ele>1371.8299999999999</ele>
        <time>2019-05-22T14:00:01Z</time>
      </trkpt>
      <trkpt lat="44.553174404427409" lon="9.152609864249826">
        <ele>1371.8299999999999</ele>
        <time>2019-05-22T14:00:10Z</time>
      </trkpt>
      <trkpt lat="44.553093854337931" lon="9.152692593634129">
        <ele>1371.6199999999999</ele>
        <time>2019-05-22T14:00:19Z</time>
      </trkpt>
      <trkpt lat="44.552985643967986" lon="9.152823435142636">
        <ele>1371.6400000000001</ele>
        <time>2019-05-22T14:00:33Z</time>
      </trkpt>
      <trkpt lat="44.552877601236105" lon="9.153011441230774">
        <ele>1371.4300000000001</ele>
        <time>2019-05-22T14:00:49Z</time>
      </trkpt>
      <trkpt lat="44.552866788581014" lon="9.153029629960656">
        <ele>1371.28</ele>
        <time>2019-05-22T14:00:50Z</time>
      </trkpt>
      <trkpt lat="44.552798308432102" lon="9.153187880292535">
        <ele>1370.72</ele>
        <time>2019-05-22T14:01:02Z</time>
      </trkpt>
      <trkpt lat="44.552727397531271" lon="9.15331712923944">
        <ele>1369.77</ele>
        <time>2019-05-22T14:01:12Z</time>
      </trkpt>
      <trkpt lat="44.552644249051809" lon="9.153473451733589">
        <ele>1369.76</ele>
        <time>2019-05-22T14:01:23Z</time>
      </trkpt>
      <trkpt lat="44.552589347586036" lon="9.153565652668476">
        <ele>1369.6800000000001</ele>
        <time>2019-05-22T14:01:31Z</time>
      </trkpt>
      <trkpt lat="44.552529836073518" lon="9.153656177222729">
        <ele>1369.1600000000001</ele>
        <time>2019-05-22T14:01:38Z</time>
      </trkpt>
      <trkpt lat="44.552466217428446" lon="9.153760364279151">
        <ele>1369.3900000000001</ele>
        <time>2019-05-22T14:01:49Z</time>
      </trkpt>
      <trkpt lat="44.552395725622773" lon="9.153961446136236">
        <ele>1369.9400000000001</ele>
        <time>2019-05-22T14:02:04Z</time>
      </trkpt>
      <trkpt lat="44.552341075614095" lon="9.154091952368617">
        <ele>1370.1300000000001</ele>
        <time>2019-05-22T14:02:13Z</time>
      </trkpt>
      <trkpt lat="44.552320372313261" lon="9.154127156361938">
        <ele>1369.9300000000001</ele>
        <time>2019-05-22T14:02:15Z</time>
      </trkpt>
      <trkpt lat="44.552332274615765" lon="9.154161186888814">
        <ele>1370.02</ele>
        <time>2019-05-22T14:02:17Z</time>
      </trkpt>
      <trkpt lat="44.552311152219772" lon="9.154364364221692">
        <ele>1368.8</ele>
        <time>2019-05-22T14:02:29Z</time>
      </trkpt>
      <trkpt lat="44.552292041480541" lon="9.154511047527194">
        <ele>1368.1099999999999</ele>
        <time>2019-05-22T14:02:38Z</time>
      </trkpt>
      <trkpt lat="44.552283491939306" lon="9.154534097760916">
        <ele>1367.9400000000001</ele>
        <time>2019-05-22T14:02:40Z</time>
      </trkpt>
      <trkpt lat="44.552228339016438" lon="9.154702909290791">
        <ele>1366.1099999999999</ele>
        <time>2019-05-22T14:02:51Z</time>
      </trkpt>
      <trkpt lat="44.552196487784386" lon="9.154876414686441">
        <ele>1364.3800000000001</ele>
        <time>2019-05-22T14:03:02Z</time>
      </trkpt>
      <trkpt lat="44.552148962393403" lon="9.155076909810305">
        <ele>1363.45</ele>
        <time>2019-05-22T14:03:12Z</time>
      </trkpt>
      <trkpt lat="44.552059443667531" lon="9.155222335830331">
        <ele>1363.24</ele>
        <time>2019-05-22T14:03:22Z</time>
      </trkpt>
      <trkpt lat="44.552001273259521" lon="9.155402462929487">
        <ele>1362.4200000000001</ele>
        <time>2019-05-22T14:03:35Z</time>
      </trkpt>
      <trkpt lat="44.55200026743114" lon="9.155566580593586">
        <ele>1361.0799999999999</ele>
        <time>2019-05-22T14:03:47Z</time>
      </trkpt>
      <trkpt lat="44.552066400647163" lon="9.155737822875381">
        <ele>1359.0699999999999</ele>
        <time>2019-05-22T14:03:58Z</time>
      </trkpt>
      <trkpt lat="44.55208676867187" lon="9.155902024358511">
        <ele>1357.77</ele>
        <time>2019-05-22T14:04:08Z</time>
      </trkpt>
      <trkpt lat="44.552016193047166" lon="9.155983412638307">
        <ele>1356.48</ele>
        <time>2019-05-22T14:04:18Z</time>
      </trkpt>
      <trkpt lat="44.551976043730974" lon="9.156050467863679">
        <ele>1355.3399999999999</ele>
        <time>2019-05-22T14:04:28Z</time>
      </trkpt>
      <trkpt lat="44.551856433972716" lon="9.155946616083384">
        <ele>1352.9200000000001</ele>
        <time>2019-05-22T14:04:44Z</time>
      </trkpt>
      <trkpt lat="44.551776805892587" lon="9.155826922506094">
        <ele>1352.27</ele>
        <time>2019-05-22T14:04:55Z</time>
      </trkpt>
      <trkpt lat="44.551766831427813" lon="9.155796580016613">
        <ele>1351.52</ele>
        <time>2019-05-22T14:04:57Z</time>
      </trkpt>
      <trkpt lat="44.55169290304184" lon="9.155615447089076">
        <ele>1351.48</ele>
        <time>2019-05-22T14:05:09Z</time>
      </trkpt>
      <trkpt lat="44.551643617451191" lon="9.155602538958192">
        <ele>1350.8800000000001</ele>
        <time>2019-05-22T14:05:15Z</time>
      </trkpt>
      <trkpt lat="44.551550326868892" lon="9.155439846217632">
        <ele>1349.3699999999999</ele>
        <time>2019-05-22T14:05:27Z</time>
      </trkpt>
      <trkpt lat="44.551456701010466" lon="9.155281092971563">
        <ele>1348.8099999999999</ele>
        <time>2019-05-22T14:05:40Z</time>
      </trkpt>
      <trkpt lat="44.551448319107294" lon="9.155270950868726">
        <ele>1348.77</ele>
        <time>2019-05-22T14:05:41Z</time>
      </trkpt>
      <trkpt lat="44.551333403214812" lon="9.155129799619317">
        <ele>1347.97</ele>
        <time>2019-05-22T14:05:55Z</time>
      </trkpt>
      <trkpt lat="44.551261318847537" lon="9.155006585642695">
        <ele>1347.22</ele>
        <time>2019-05-22T14:06:07Z</time>
      </trkpt>
      <trkpt lat="44.551197113469243" lon="9.154945565387607">
        <ele>1345.03</ele>
        <time>2019-05-22T14:06:17Z</time>
      </trkpt>
      <trkpt lat="44.551093932241201" lon="9.154812796041369">
        <ele>1342.0599999999999</ele>
        <time>2019-05-22T14:06:29Z</time>
      </trkpt>
      <trkpt lat="44.550969460979104" lon="9.154605092480779">
        <ele>1340.6800000000001</ele>
        <time>2019-05-22T14:06:44Z</time>
      </trkpt>
      <trkpt lat="44.550853706896305" lon="9.15445321239531">
        <ele>1340.98</ele>
        <time>2019-05-22T14:06:57Z</time>
      </trkpt>
      <trkpt lat="44.550746753811836" lon="9.154364783316851">
        <ele>1339.3499999999999</ele>
        <time>2019-05-22T14:07:11Z</time>
      </trkpt>
      <trkpt lat="44.550636112689972" lon="9.154257159680128">
        <ele>1336.3699999999999</ele>
        <time>2019-05-22T14:07:24Z</time>
      </trkpt>
      <trkpt lat="44.550538463518023" lon="9.154178118333221">
        <ele>1335.3699999999999</ele>
        <time>2019-05-22T14:07:34Z</time>
      </trkpt>
      <trkpt lat="44.55043863505125" lon="9.154113996773958">
        <ele>1332.8599999999999</ele>
        <time>2019-05-22T14:07:44Z</time>
      </trkpt>
      <trkpt lat="44.55040980130434" lon="9.154078625142574">
        <ele>1332.21</ele>
        <time>2019-05-22T14:07:47Z</time>
      </trkpt>
      <trkpt lat="44.55029983073473" lon="9.153994889929891">
        <ele>1330.21</ele>
        <time>2019-05-22T14:07:56Z</time>
      </trkpt>
      <trkpt lat="44.550168151035905" lon="9.153910148888826">
        <ele>1328.4200000000001</ele>
        <time>2019-05-22T14:08:07Z</time>
      </trkpt>
      <trkpt lat="44.550012415274978" lon="9.153767740353942">
        <ele>1326.47</ele>
        <time>2019-05-22T14:08:21Z</time>
      </trkpt>
      <trkpt lat="44.550000848248601" lon="9.153760029003024">
        <ele>1326.6500000000001</ele>
        <time>2019-05-22T14:08:22Z</time>
      </trkpt>
      <trkpt lat="44.549901774153113" lon="9.153684172779322">
        <ele>1325.45</ele>
        <time>2019-05-22T14:08:33Z</time>
      </trkpt>
      <trkpt lat="44.549808148294687" lon="9.15365282446146">
        <ele>1323.4100000000001</ele>
        <time>2019-05-22T14:08:46Z</time>
      </trkpt>
      <trkpt lat="44.54970370978117" lon="9.153654249384999">
        <ele>1321.29</ele>
        <time>2019-05-22T14:08:59Z</time>
      </trkpt>
      <trkpt lat="44.549687532708049" lon="9.153666403144598">
        <ele>1320.77</ele>
        <time>2019-05-22T14:09:01Z</time>
      </trkpt>
      <trkpt lat="44.549618633463979" lon="9.153618039563298">
        <ele>1319.4100000000001</ele>
        <time>2019-05-22T14:09:09Z</time>
      </trkpt>
      <trkpt lat="44.549526013433933" lon="9.153548553586006">
        <ele>1317.3499999999999</ele>
        <time>2019-05-22T14:09:20Z</time>
      </trkpt>
      <trkpt lat="44.549440182745457" lon="9.153553918004036">
        <ele>1315.21</ele>
        <time>2019-05-22T14:09:33Z</time>
      </trkpt>
      <trkpt lat="44.549364661797881" lon="9.153570430353284">
        <ele>1313.8399999999999</ele>
        <time>2019-05-22T14:09:46Z</time>
      </trkpt>
      <trkpt lat="44.549291487783194" lon="9.153531538322568">
        <ele>1313.04</ele>
        <time>2019-05-22T14:09:59Z</time>
      </trkpt>
      <trkpt lat="44.549172632396221" lon="9.153491975739598">
        <ele>1311.73</ele>
        <time>2019-05-22T14:10:13Z</time>
      </trkpt>
      <trkpt lat="44.549027206376195" lon="9.153491975739598">
        <ele>1310.9200000000001</ele>
        <time>2019-05-22T14:10:25Z</time>
      </trkpt>
      <trkpt lat="44.548948500305414" lon="9.153432212769985">
        <ele>1309.73</ele>
        <time>2019-05-22T14:10:33Z</time>
      </trkpt>
      <trkpt lat="44.548856886103749" lon="9.15338552556932">
        <ele>1308.6199999999999</ele>
        <time>2019-05-22T14:10:43Z</time>
      </trkpt>
      <trkpt lat="44.548813970759511" lon="9.153363397344947">
        <ele>1307.9000000000001</ele>
        <time>2019-05-22T14:10:47Z</time>
      </trkpt>
      <trkpt lat="44.548786226660013" lon="9.153359457850456">
        <ele>1307.73</ele>
        <time>2019-05-22T14:10:49Z</time>
      </trkpt>
      <trkpt lat="44.548654463142157" lon="9.153273962438107">
        <ele>1307.0999999999999</ele>
        <time>2019-05-22T14:11:00Z</time>
      </trkpt>
      <trkpt lat="44.548511551693082" lon="9.153198525309563">
        <ele>1306.3099999999999</ele>
        <time>2019-05-22T14:11:11Z</time>
      </trkpt>
      <trkpt lat="44.548434605821967" lon="9.153108838945627">
        <ele>1305.5899999999999</ele>
        <time>2019-05-22T14:11:18Z</time>
      </trkpt>
      <trkpt lat="44.548369981348515" lon="9.153043879196048">
        <ele>1304.8699999999999</ele>
        <time>2019-05-22T14:11:25Z</time>
      </trkpt>
      <trkpt lat="44.548286749050021" lon="9.152934746816754">
        <ele>1303.4400000000001</ele>
        <time>2019-05-22T14:11:36Z</time>
      </trkpt>
      <trkpt lat="44.54819337464869" lon="9.152831649407744">
        <ele>1303.0899999999999</ele>
        <time>2019-05-22T14:11:47Z</time>
      </trkpt>
      <trkpt lat="44.548135790973902" lon="9.152696952223778">
        <ele>1302.8900000000001</ele>
        <time>2019-05-22T14:12:00Z</time>
      </trkpt>
      <trkpt lat="44.548053983598948" lon="9.152507437393069">
        <ele>1301.0999999999999</ele>
        <time>2019-05-22T14:12:14Z</time>
      </trkpt>
      <trkpt lat="44.547947449609637" lon="9.152336278930306">
        <ele>1300.1099999999999</ele>
        <time>2019-05-22T14:12:25Z</time>
      </trkpt>
      <trkpt lat="44.547833539545536" lon="9.152203174307942">
        <ele>1298.4200000000001</ele>
        <time>2019-05-22T14:12:37Z</time>
      </trkpt>
      <trkpt lat="44.547690292820334" lon="9.152082810178399">
        <ele>1296.71</ele>
        <time>2019-05-22T14:12:50Z</time>
      </trkpt>
      <trkpt lat="44.547544531524181" lon="9.152004271745682">
        <ele>1295.3599999999999</ele>
        <time>2019-05-22T14:13:04Z</time>
      </trkpt>
      <trkpt lat="44.547432716935873" lon="9.151897318661213">
        <ele>1294.9400000000001</ele>
        <time>2019-05-22T14:13:17Z</time>
      </trkpt>
      <trkpt lat="44.547372115775943" lon="9.1518150921911">
        <ele>1294.8900000000001</ele>
        <time>2019-05-22T14:13:32Z</time>
      </trkpt>
      <trkpt lat="44.547315621748567" lon="9.151722053065896">
        <ele>1295.05</ele>
        <time>2019-05-22T14:13:53Z</time>
      </trkpt>
      <trkpt lat="44.547294499352574" lon="9.151718281209469">
        <ele>1295.5799999999999</ele>
        <time>2019-05-22T14:14:18Z</time>
      </trkpt>
      <trkpt lat="44.547261390835047" lon="9.151691626757383">
        <ele>1295.22</ele>
        <time>2019-05-22T14:14:26Z</time>
      </trkpt>
      <trkpt lat="44.547164244577289" lon="9.151629097759724">
        <ele>1294.98</ele>
        <time>2019-05-22T14:14:40Z</time>
      </trkpt>
      <trkpt lat="44.547071708366275" lon="9.151531364768744">
        <ele>1295.02</ele>
        <time>2019-05-22T14:14:54Z</time>
      </trkpt>
      <trkpt lat="44.546930640935898" lon="9.151403205469251">
        <ele>1294.55</ele>
        <time>2019-05-22T14:15:11Z</time>
      </trkpt>
      <trkpt lat="44.546796949580312" lon="9.151244200766087">
        <ele>1292.9400000000001</ele>
        <time>2019-05-22T14:15:23Z</time>
      </trkpt>
      <trkpt lat="44.54669720493257" lon="9.151132721453905">
        <ele>1292.5799999999999</ele>
        <time>2019-05-22T14:15:33Z</time>
      </trkpt>
      <trkpt lat="44.546617493033409" lon="9.151057116687298">
        <ele>1292.1700000000001</ele>
        <time>2019-05-22T14:15:43Z</time>
      </trkpt>
      <trkpt lat="44.546515317633748" lon="9.150934657081962">
        <ele>1291.28</ele>
        <time>2019-05-22T14:15:53Z</time>
      </trkpt>
      <trkpt lat="44.546405095607042" lon="9.150804989039898">
        <ele>1290.8699999999999</ele>
        <time>2019-05-22T14:16:04Z</time>
      </trkpt>
      <trkpt lat="44.546276433393359" lon="9.150647493079305">
        <ele>1290.6400000000001</ele>
        <time>2019-05-22T14:16:17Z</time>
      </trkpt>
      <trkpt lat="44.546169815585017" lon="9.150495110079646">
        <ele>1290.5</ele>
        <time>2019-05-22T14:16:29Z</time>
      </trkpt>
      <trkpt lat="44.546077195554972" lon="9.150429731234908">
        <ele>1290.29</ele>
        <time>2019-05-22T14:16:40Z</time>
      </trkpt>
      <trkpt lat="44.545999076217413" lon="9.150461750105023">
        <ele>1290.5899999999999</ele>
        <time>2019-05-22T14:16:54Z</time>
      </trkpt>
      <trkpt lat="44.54593051224947" lon="9.150525787845254">
        <ele>1290.9000000000001</ele>
        <time>2019-05-22T14:17:04Z</time>
      </trkpt>
      <trkpt lat="44.545925734564662" lon="9.150536097586155">
        <ele>1290.8900000000001</ele>
        <time>2019-05-22T14:17:05Z</time>
      </trkpt>
      <trkpt lat="44.545859852805734" lon="9.150606757029891">
        <ele>1292.04</ele>
        <time>2019-05-22T14:17:16Z</time>
      </trkpt>
      <trkpt lat="44.545789109542966" lon="9.150735586881638">
        <ele>1292.6199999999999</ele>
        <time>2019-05-22T14:17:29Z</time>
      </trkpt>
      <trkpt lat="44.545735381543636" lon="9.150794427841902">
        <ele>1293.03</ele>
        <time>2019-05-22T14:17:36Z</time>
      </trkpt>
      <trkpt lat="44.545637900009751" lon="9.150887969881296">
        <ele>1293.8599999999999</ele>
        <time>2019-05-22T14:17:49Z</time>
      </trkpt>
      <trkpt lat="44.545550979673862" lon="9.150995928794146">
        <ele>1294.8</ele>
        <time>2019-05-22T14:18:03Z</time>
      </trkpt>
      <trkpt lat="44.545482667163014" lon="9.151105815544725">
        <ele>1296.1300000000001</ele>
        <time>2019-05-22T14:18:17Z</time>
      </trkpt>
      <trkpt lat="44.545384431257844" lon="9.151141606271267">
        <ele>1298.3399999999999</ele>
        <time>2019-05-22T14:18:31Z</time>
      </trkpt>
      <trkpt lat="44.545220900326967" lon="9.151213439181447">
        <ele>1299.53</ele>
        <time>2019-05-22T14:18:46Z</time>
      </trkpt>
      <trkpt lat="44.545211009681225" lon="9.151226431131363">
        <ele>1299.6800000000001</ele>
        <time>2019-05-22T14:18:47Z</time>
      </trkpt>
      <trkpt lat="44.545041192322969" lon="9.1514110006392">
        <ele>1300.9200000000001</ele>
        <time>2019-05-22T14:19:03Z</time>
      </trkpt>
      <trkpt lat="44.544942956417799" lon="9.151580817997456">
        <ele>1302.49</ele>
        <time>2019-05-22T14:19:17Z</time>
      </trkpt>
      <trkpt lat="44.54481789842248" lon="9.151722555980086">
        <ele>1302.6700000000001</ele>
        <time>2019-05-22T14:19:31Z</time>
      </trkpt>
      <trkpt lat="44.544708766043186" lon="9.151812996715307">
        <ele>1302.3599999999999</ele>
        <time>2019-05-22T14:19:43Z</time>
      </trkpt>
      <trkpt lat="44.544638777151704" lon="9.151850966736674">
        <ele>1302.48</ele>
        <time>2019-05-22T14:19:50Z</time>
      </trkpt>
      <trkpt lat="44.544493099674582" lon="9.152056071907282">
        <ele>1302.8599999999999</ele>
        <time>2019-05-22T14:20:06Z</time>
      </trkpt>
      <trkpt lat="44.54446854069829" lon="9.152084738016129">
        <ele>1302.97</ele>
        <time>2019-05-22T14:20:09Z</time>
      </trkpt>
      <trkpt lat="44.544322527945042" lon="9.152260841801763">
        <ele>1302.8599999999999</ele>
        <time>2019-05-22T14:20:25Z</time>
      </trkpt>
      <trkpt lat="44.544223453849554" lon="9.1524004843086">
        <ele>1302.8499999999999</ele>
        <time>2019-05-22T14:20:37Z</time>
      </trkpt>
      <trkpt lat="44.544151788577437" lon="9.152499558404088">
        <ele>1303.1199999999999</ele>
        <time>2019-05-22T14:20:49Z</time>
      </trkpt>
      <trkpt lat="44.544088337570429" lon="9.152618497610092">
        <ele>1303.27</ele>
        <time>2019-05-22T14:21:04Z</time>
      </trkpt>
      <trkpt lat="44.544037124142051" lon="9.152723522856832">
        <ele>1303.4100000000001</ele>
        <time>2019-05-22T14:21:14Z</time>
      </trkpt>
      <trkpt lat="44.543965039774776" lon="9.152902225032449">
        <ele>1302.6500000000001</ele>
        <time>2019-05-22T14:21:26Z</time>
      </trkpt>
      <trkpt lat="44.543922794982791" lon="9.152980847284198">
        <ele>1303.9200000000001</ele>
        <time>2019-05-22T14:21:33Z</time>
      </trkpt>
      <trkpt lat="44.54390762373805" lon="9.153012782335281">
        <ele>1300.5599999999999</ele>
        <time>2019-05-22T14:21:37Z</time>
      </trkpt>
      <trkpt lat="44.543907875195146" lon="9.153018901124597">
        <ele>1304.26</ele>
        <time>2019-05-22T14:21:38Z</time>
      </trkpt>
      <trkpt lat="44.543869905173779" lon="9.15307137183845">
        <ele>1304.21</ele>
        <time>2019-05-22T14:21:42Z</time>
      </trkpt>
      <trkpt lat="44.543836461380124" lon="9.15314270183444">
        <ele>1304.3900000000001</ele>
        <time>2019-05-22T14:21:48Z</time>
      </trkpt>
      <trkpt lat="44.543764041736722" lon="9.153251918032765">
        <ele>1304.8299999999999</ele>
        <time>2019-05-22T14:21:59Z</time>
      </trkpt>
      <trkpt lat="44.543730597943068" lon="9.153360715135932">
        <ele>1305.3</ele>
        <time>2019-05-22T14:22:10Z</time>
      </trkpt>
      <trkpt lat="44.543680138885975" lon="9.153526425361633">
        <ele>1305.99</ele>
        <time>2019-05-22T14:22:24Z</time>
      </trkpt>
      <trkpt lat="44.543624985963106" lon="9.153703032061458">
        <ele>1307.6400000000001</ele>
        <time>2019-05-22T14:22:41Z</time>
      </trkpt>
      <trkpt lat="44.543552147224545" lon="9.15384829044342">
        <ele>1309.25</ele>
        <time>2019-05-22T14:22:54Z</time>
      </trkpt>
      <trkpt lat="44.543509567156434" lon="9.15396454744041">
        <ele>1310.47</ele>
        <time>2019-05-22T14:23:07Z</time>
      </trkpt>
      <trkpt lat="44.543469166383147" lon="9.154097400605679">
        <ele>1311.54</ele>
        <time>2019-05-22T14:23:23Z</time>
      </trkpt>
      <trkpt lat="44.543414935469627" lon="9.154263194650412">
        <ele>1312.6600000000001</ele>
        <time>2019-05-22T14:23:38Z</time>
      </trkpt>
      <trkpt lat="44.543363219127059" lon="9.154391773045063">
        <ele>1314.0999999999999</ele>
        <time>2019-05-22T14:23:50Z</time>
      </trkpt>
      <trkpt lat="44.543296499177814" lon="9.154540384188294">
        <ele>1315.1400000000001</ele>
        <time>2019-05-22T14:24:03Z</time>
      </trkpt>
      <trkpt lat="44.543203879147768" lon="9.154665945097804">
        <ele>1316.6600000000001</ele>
        <time>2019-05-22T14:24:19Z</time>
      </trkpt>
      <trkpt lat="44.543134979903698" lon="9.154778430238366">
        <ele>1317.6600000000001</ele>
        <time>2019-05-22T14:24:32Z</time>
      </trkpt>
      <trkpt lat="44.543004641309381" lon="9.154880773276091">
        <ele>1317.0599999999999</ele>
        <time>2019-05-22T14:24:45Z</time>
      </trkpt>
      <trkpt lat="44.542983015999198" lon="9.154914803802967">
        <ele>1316.3099999999999</ele>
        <time>2019-05-22T14:24:58Z</time>
      </trkpt>
      <trkpt lat="44.542990224435925" lon="9.154969537630677">
        <ele>1316.05</ele>
        <time>2019-05-22T14:25:16Z</time>
      </trkpt>
      <trkpt lat="44.542980417609215" lon="9.155024858191609">
        <ele>1316.1199999999999</ele>
        <time>2019-05-22T14:25:53Z</time>
      </trkpt>
      <trkpt lat="44.542970359325409" lon="9.155041119083762">
        <ele>1316.1199999999999</ele>
        <time>2019-05-22T14:26:14Z</time>
      </trkpt>
      <trkpt lat="44.542950494214892" lon="9.15509476326406">
        <ele>1315.7</ele>
        <time>2019-05-22T14:26:26Z</time>
      </trkpt>
      <trkpt lat="44.542867513373494" lon="9.155130805447698">
        <ele>1315.53</ele>
        <time>2019-05-22T14:26:42Z</time>
      </trkpt>
      <trkpt lat="44.542851336300373" lon="9.155147317796946">
        <ele>1315.0599999999999</ele>
        <time>2019-05-22T14:26:59Z</time>
      </trkpt>
      <trkpt lat="44.542855611070991" lon="9.155153939500451">
        <ele>1315.4300000000001</ele>
        <time>2019-05-22T14:27:18Z</time>
      </trkpt>
      <trkpt lat="44.542844044044614" lon="9.155165422707796">
        <ele>1315.7</ele>
        <time>2019-05-22T14:27:37Z</time>
      </trkpt>
      <trkpt lat="44.542851503938437" lon="9.155170870944858">
        <ele>1315.9400000000001</ele>
        <time>2019-05-22T14:27:55Z</time>
      </trkpt>
      <trkpt lat="44.542853599414229" lon="9.155187048017979">
        <ele>1316.0899999999999</ele>
        <time>2019-05-22T14:28:19Z</time>
      </trkpt>
      <trkpt lat="44.542834991589189" lon="9.15520079433918">
        <ele>1316.1199999999999</ele>
        <time>2019-05-22T14:28:26Z</time>
      </trkpt>
      <trkpt lat="44.542793333530426" lon="9.155210265889764">
        <ele>1315.6700000000001</ele>
        <time>2019-05-22T14:28:30Z</time>
      </trkpt>
      <trkpt lat="44.54273683950305" lon="9.155236165970564">
        <ele>1314.8800000000001</ele>
        <time>2019-05-22T14:28:36Z</time>
      </trkpt>
      <trkpt lat="44.542575236409903" lon="9.15524865500629">
        <ele>1313.72</ele>
        <time>2019-05-22T14:28:51Z</time>
      </trkpt>
      <trkpt lat="44.542428888380527" lon="9.155245553702116">
        <ele>1313.1199999999999</ele>
        <time>2019-05-22T14:29:05Z</time>
      </trkpt>
      <trkpt lat="44.542293101549149" lon="9.155210182070732">
        <ele>1312.99</ele>
        <time>2019-05-22T14:29:17Z</time>
      </trkpt>
      <trkpt lat="44.542236691340804" lon="9.15519006550312">
        <ele>1312.76</ele>
        <time>2019-05-22T14:29:22Z</time>
      </trkpt>
      <trkpt lat="44.542131163179874" lon="9.155183443799615">
        <ele>1312.5599999999999</ele>
        <time>2019-05-22T14:29:33Z</time>
      </trkpt>
      <trkpt lat="44.542034436017275" lon="9.155192915350199">
        <ele>1312.53</ele>
        <time>2019-05-22T14:29:43Z</time>
      </trkpt>
      <trkpt lat="44.541903762146831" lon="9.155237004160881">
        <ele>1312.99</ele>
        <time>2019-05-22T14:30:00Z</time>
      </trkpt>
      <trkpt lat="44.541796976700425" lon="9.15523742325604">
        <ele>1315.1400000000001</ele>
        <time>2019-05-22T14:30:13Z</time>
      </trkpt>
      <trkpt lat="44.541737381368876" lon="9.155261898413301">
        <ele>1317.7</ele>
        <time>2019-05-22T14:30:28Z</time>
      </trkpt>
      <trkpt lat="44.541645515710115" lon="9.155385196208954">
        <ele>1315.0799999999999</ele>
        <time>2019-05-22T14:30:41Z</time>
      </trkpt>
      <trkpt lat="44.541586004197598" lon="9.155400451272726">
        <ele>1312.55</ele>
        <time>2019-05-22T14:30:51Z</time>
      </trkpt>
      <trkpt lat="44.541572844609618" lon="9.155328702181578">
        <ele>1309.4300000000001</ele>
        <time>2019-05-22T14:31:03Z</time>
      </trkpt>
      <trkpt lat="44.541497910395265" lon="9.155366839841008">
        <ele>1306.3599999999999</ele>
        <time>2019-05-22T14:31:14Z</time>
      </trkpt>
      <trkpt lat="44.541414510458708" lon="9.155356111004949">
        <ele>1303.71</ele>
        <time>2019-05-22T14:31:26Z</time>
      </trkpt>
      <trkpt lat="44.541291715577245" lon="9.15537916123867">
        <ele>1300.49</ele>
        <time>2019-05-22T14:31:37Z</time>
      </trkpt>
      <trkpt lat="44.541170094162226" lon="9.155392991378903">
        <ele>1297.4000000000001</ele>
        <time>2019-05-22T14:31:52Z</time>
      </trkpt>
      <trkpt lat="44.541076300665736" lon="9.155387375503779">
        <ele>1294.5799999999999</ele>
        <time>2019-05-22T14:32:02Z</time>
      </trkpt>
      <trkpt lat="44.540950069203973" lon="9.155375054106116">
        <ele>1291.5</ele>
        <time>2019-05-22T14:32:15Z</time>
      </trkpt>
      <trkpt lat="44.540774133056402" lon="9.155308920890093">
        <ele>1289.3499999999999</ele>
        <time>2019-05-22T14:32:30Z</time>
      </trkpt>
      <trkpt lat="44.540598448365927" lon="9.15534932166338">
        <ele>1287.8099999999999</ele>
        <time>2019-05-22T14:32:46Z</time>
      </trkpt>
      <trkpt lat="44.540552347898483" lon="9.155295174568892">
        <ele>1285.97</ele>
        <time>2019-05-22T14:32:52Z</time>
      </trkpt>
      <trkpt lat="44.540498619899154" lon="9.155223593115807">
        <ele>1284.1400000000001</ele>
        <time>2019-05-22T14:32:58Z</time>
      </trkpt>
      <trkpt lat="44.540475569665432" lon="9.15514949709177">
        <ele>1282.9200000000001</ele>
        <time>2019-05-22T14:33:02Z</time>
      </trkpt>
      <trkpt lat="44.540376914665103" lon="9.155011782422662">
        <ele>1281.4200000000001</ele>
        <time>2019-05-22T14:33:14Z</time>
      </trkpt>
      <trkpt lat="44.540305333212018" lon="9.15486853569746">
        <ele>1280.21</ele>
        <time>2019-05-22T14:33:23Z</time>
      </trkpt>
      <trkpt lat="44.540210282430053" lon="9.154733419418335">
        <ele>1279.03</ele>
        <time>2019-05-22T14:33:33Z</time>
      </trkpt>
      <trkpt lat="44.540126966312528" lon="9.154677512124181">
        <ele>1278.1800000000001</ele>
        <time>2019-05-22T14:33:41Z</time>
      </trkpt>
      <trkpt lat="44.540007524192333" lon="9.154685558751226">
        <ele>1277.3</ele>
        <time>2019-05-22T14:33:53Z</time>
      </trkpt>
      <trkpt lat="44.539926387369633" lon="9.154721768572927">
        <ele>1274.95</ele>
        <time>2019-05-22T14:34:09Z</time>
      </trkpt>
      <trkpt lat="44.539867965504527" lon="9.154674997553229">
        <ele>1274.3099999999999</ele>
        <time>2019-05-22T14:34:24Z</time>
      </trkpt>
      <trkpt lat="44.539800323545933" lon="9.154462264850736">
        <ele>1271.7</ele>
        <time>2019-05-22T14:34:38Z</time>
      </trkpt>
      <trkpt lat="44.539737794548273" lon="9.15432664565742">
        <ele>1270.1600000000001</ele>
        <time>2019-05-22T14:34:47Z</time>
      </trkpt>
      <trkpt lat="44.539657328277826" lon="9.154220530763269">
        <ele>1268.8699999999999</ele>
        <time>2019-05-22T14:34:57Z</time>
      </trkpt>
      <trkpt lat="44.539540903642774" lon="9.154155319556594">
        <ele>1267.72</ele>
        <time>2019-05-22T14:35:09Z</time>
      </trkpt>
      <trkpt lat="44.539421964436769" lon="9.154083151370287">
        <ele>1265.97</ele>
        <time>2019-05-22T14:35:21Z</time>
      </trkpt>
      <trkpt lat="44.539288943633437" lon="9.153919536620379">
        <ele>1266.1300000000001</ele>
        <time>2019-05-22T14:35:37Z</time>
      </trkpt>
      <trkpt lat="44.539206046611071" lon="9.153733039274812">
        <ele>1267.8599999999999</ele>
        <time>2019-05-22T14:35:51Z</time>
      </trkpt>
      <trkpt lat="44.539204034954309" lon="9.153697332367301">
        <ele>1267.9100000000001</ele>
        <time>2019-05-22T14:35:53Z</time>
      </trkpt>
      <trkpt lat="44.539100518450141" lon="9.153480911627412">
        <ele>1268.77</ele>
        <time>2019-05-22T14:36:10Z</time>
      </trkpt>
      <trkpt lat="44.539001863449812" lon="9.153304053470492">
        <ele>1268.0999999999999</ele>
        <time>2019-05-22T14:36:23Z</time>
      </trkpt>
      <trkpt lat="44.538955595344305" lon="9.153240351006389">
        <ele>1267.9100000000001</ele>
        <time>2019-05-22T14:36:32Z</time>
      </trkpt>
      <trkpt lat="44.53892357647419" lon="9.153206236660481">
        <ele>1267.96</ele>
        <time>2019-05-22T14:36:44Z</time>
      </trkpt>
      <trkpt lat="44.538882086053491" lon="9.153174804523587">
        <ele>1267.6900000000001</ele>
        <time>2019-05-22T14:36:48Z</time>
      </trkpt>
      <trkpt lat="44.538773205131292" lon="9.153115376830101">
        <ele>1269.45</ele>
        <time>2019-05-22T14:37:00Z</time>
      </trkpt>
      <trkpt lat="44.538678908720613" lon="9.153054105117917">
        <ele>1270.4300000000001</ele>
        <time>2019-05-22T14:37:12Z</time>
      </trkpt>
      <trkpt lat="44.538650158792734" lon="9.1530567035079">
        <ele>1268.6099999999999</ele>
        <time>2019-05-22T14:37:27Z</time>
      </trkpt>
      <trkpt lat="44.538650326430798" lon="9.153056284412742">
        <ele>1268.6199999999999</ele>
        <time>2019-05-22T14:37:28Z</time>
      </trkpt>
      <trkpt lat="44.538640100508928" lon="9.153057206422091">
        <ele>1270.49</ele>
        <time>2019-05-22T14:37:34Z</time>
      </trkpt>
      <trkpt lat="44.538624426349998" lon="9.153055613860488">
        <ele>1271.3800000000001</ele>
        <time>2019-05-22T14:38:02Z</time>
      </trkpt>
      <trkpt lat="44.538626438006759" lon="9.153050584718585">
        <ele>1270.5899999999999</ele>
        <time>2019-05-22T14:38:04Z</time>
      </trkpt>
      <trkpt lat="44.538610344752669" lon="9.153086543083191">
        <ele>1271</ele>
        <time>2019-05-22T14:40:05Z</time>
      </trkpt>
      <trkpt lat="44.538603471592069" lon="9.153179498389363">
        <ele>1269.0799999999999</ele>
        <time>2019-05-22T14:40:17Z</time>
      </trkpt>
      <trkpt lat="44.538565082475543" lon="9.153280667960644">
        <ele>1266.3199999999999</ele>
        <time>2019-05-22T14:40:31Z</time>
      </trkpt>
      <trkpt lat="44.538493836298585" lon="9.153324672952294">
        <ele>1263.46</ele>
        <time>2019-05-22T14:40:45Z</time>
      </trkpt>
      <trkpt lat="44.538426278159022" lon="9.153394242748618">
        <ele>1260.0699999999999</ele>
        <time>2019-05-22T14:40:56Z</time>
      </trkpt>
      <trkpt lat="44.538378082215786" lon="9.153444617986679">
        <ele>1258.22</ele>
        <time>2019-05-22T14:41:03Z</time>
      </trkpt>
      <trkpt lat="44.538341537117958" lon="9.1533537581563">
        <ele>1255.5999999999999</ele>
        <time>2019-05-22T14:41:15Z</time>
      </trkpt>
      <trkpt lat="44.53833038918674" lon="9.153250409290195">
        <ele>1253.8499999999999</ele>
        <time>2019-05-22T14:41:23Z</time>
      </trkpt>
      <trkpt lat="44.538305914029479" lon="9.153179666027427">
        <ele>1252.75</ele>
        <time>2019-05-22T14:41:27Z</time>
      </trkpt>
      <trkpt lat="44.538179179653525" lon="9.152975734323263">
        <ele>1249.24</ele>
        <time>2019-05-22T14:41:42Z</time>
      </trkpt>
      <trkpt lat="44.538109190762043" lon="9.152865931391716">
        <ele>1246.96</ele>
        <time>2019-05-22T14:41:53Z</time>
      </trkpt>
      <trkpt lat="44.538100641220808" lon="9.152860483154655">
        <ele>1246.6099999999999</ele>
        <time>2019-05-22T14:41:54Z</time>
      </trkpt>
      <trkpt lat="44.538011709228158" lon="9.152769958600402">
        <ele>1243.29</ele>
        <time>2019-05-22T14:42:05Z</time>
      </trkpt>
      <trkpt lat="44.537914646789432" lon="9.152716398239136">
        <ele>1240.1600000000001</ele>
        <time>2019-05-22T14:42:16Z</time>
      </trkpt>
      <trkpt lat="44.537832671776414" lon="9.152665100991726">
        <ele>1237.5599999999999</ele>
        <time>2019-05-22T14:42:27Z</time>
      </trkpt>
      <trkpt lat="44.537757653743029" lon="9.152625454589725">
        <ele>1235.8199999999999</ele>
        <time>2019-05-22T14:42:36Z</time>
      </trkpt>
      <trkpt lat="44.537732340395451" lon="9.152618665248156">
        <ele>1235.24</ele>
        <time>2019-05-22T14:42:40Z</time>
      </trkpt>
      <trkpt lat="44.537627315148711" lon="9.15252604521811">
        <ele>1232.1700000000001</ele>
        <time>2019-05-22T14:42:52Z</time>
      </trkpt>
      <trkpt lat="44.537527402862906" lon="9.152487656101584">
        <ele>1228.9400000000001</ele>
        <time>2019-05-22T14:43:05Z</time>
      </trkpt>
      <trkpt lat="44.537440985441208" lon="9.152525458484888">
        <ele>1225.8900000000001</ele>
        <time>2019-05-22T14:43:16Z</time>
      </trkpt>
      <trkpt lat="44.537338390946388" lon="9.152553202584386">
        <ele>1222.75</ele>
        <time>2019-05-22T14:43:28Z</time>
      </trkpt>
      <trkpt lat="44.537311065942049" lon="9.152562841773033">
        <ele>1221.8099999999999</ele>
        <time>2019-05-22T14:43:31Z</time>
      </trkpt>
      <trkpt lat="44.53718307428062" lon="9.152598883956671">
        <ele>1218.9300000000001</ele>
        <time>2019-05-22T14:43:45Z</time>
      </trkpt>
      <trkpt lat="44.53710000962019" lon="9.152550352737308">
        <ele>1216.8399999999999</ele>
        <time>2019-05-22T14:43:55Z</time>
      </trkpt>
      <trkpt lat="44.536974364891648" lon="9.152432503178716">
        <ele>1214.8599999999999</ele>
        <time>2019-05-22T14:44:11Z</time>
      </trkpt>
      <trkpt lat="44.536901693791151" lon="9.1523711476475">
        <ele>1212.3399999999999</ele>
        <time>2019-05-22T14:44:22Z</time>
      </trkpt>
      <trkpt lat="44.536792561411858" lon="9.152317168191075">
        <ele>1210.1700000000001</ele>
        <time>2019-05-22T14:44:36Z</time>
      </trkpt>
      <trkpt lat="44.536698767915368" lon="9.152321526780725">
        <ele>1207.51</ele>
        <time>2019-05-22T14:44:50Z</time>
      </trkpt>
      <trkpt lat="44.536614445969462" lon="9.152314737439156">
        <ele>1204.8099999999999</ele>
        <time>2019-05-22T14:45:03Z</time>
      </trkpt>
      <trkpt lat="44.536563819274306" lon="9.152353797107935">
        <ele>1202.6300000000001</ele>
        <time>2019-05-22T14:45:14Z</time>
      </trkpt>
      <trkpt lat="44.53644622117281" lon="9.152355808764696">
        <ele>1199.6800000000001</ele>
        <time>2019-05-22T14:45:31Z</time>
      </trkpt>
      <trkpt lat="44.53638662584126" lon="9.152360167354345">
        <ele>1198.0699999999999</ele>
        <time>2019-05-22T14:45:41Z</time>
      </trkpt>
      <trkpt lat="44.53632946126163" lon="9.152418002486229">
        <ele>1195.5599999999999</ele>
        <time>2019-05-22T14:45:54Z</time>
      </trkpt>
      <trkpt lat="44.53629576601088" lon="9.152459325268865">
        <ele>1193.71</ele>
        <time>2019-05-22T14:46:06Z</time>
      </trkpt>
      <trkpt lat="44.536304986104369" lon="9.152598716318607">
        <ele>1192.01</ele>
        <time>2019-05-22T14:46:20Z</time>
      </trkpt>
      <trkpt lat="44.53633826225996" lon="9.152673482894898">
        <ele>1189.98</ele>
        <time>2019-05-22T14:46:32Z</time>
      </trkpt>
      <trkpt lat="44.536369442939758" lon="9.152794349938631">
        <ele>1187.3</ele>
        <time>2019-05-22T14:46:48Z</time>
      </trkpt>
      <trkpt lat="44.536353349685669" lon="9.15289350785315">
        <ele>1184.8299999999999</ele>
        <time>2019-05-22T14:47:02Z</time>
      </trkpt>
      <trkpt lat="44.536276487633586" lon="9.152903398498893">
        <ele>1183.52</ele>
        <time>2019-05-22T14:47:13Z</time>
      </trkpt>
      <trkpt lat="44.536183951422572" lon="9.152837349101901">
        <ele>1182.6700000000001</ele>
        <time>2019-05-22T14:47:23Z</time>
      </trkpt>
      <trkpt lat="44.5361393596977" lon="9.15277574211359">
        <ele>1181.96</ele>
        <time>2019-05-22T14:47:30Z</time>
      </trkpt>
      <trkpt lat="44.536032741889358" lon="9.152668789029121">
        <ele>1179.75</ele>
        <time>2019-05-22T14:47:43Z</time>
      </trkpt>
      <trkpt lat="44.53597960062325" lon="9.152732659131289">
        <ele>1177.6600000000001</ele>
        <time>2019-05-22T14:47:54Z</time>
      </trkpt>
      <trkpt lat="44.535956801846623" lon="9.152806084603071">
        <ele>1176.49</ele>
        <time>2019-05-22T14:48:03Z</time>
      </trkpt>
      <trkpt lat="44.535935176536441" lon="9.152914294973016">
        <ele>1174.79</ele>
        <time>2019-05-22T14:48:16Z</time>
      </trkpt>
      <trkpt lat="44.535932326689363" lon="9.153004819527268">
        <ele>1173.03</ele>
        <time>2019-05-22T14:48:24Z</time>
      </trkpt>
      <trkpt lat="44.53597373329103" lon="9.153116885572672">
        <ele>1170.9200000000001</ele>
        <time>2019-05-22T14:48:35Z</time>
      </trkpt>
      <trkpt lat="44.536009188741446" lon="9.153157621622086">
        <ele>1170.25</ele>
        <time>2019-05-22T14:48:40Z</time>
      </trkpt>
      <trkpt lat="44.536066520959139" lon="9.153269855305553">
        <ele>1168.6199999999999</ele>
        <time>2019-05-22T14:48:52Z</time>
      </trkpt>
      <trkpt lat="44.536101054400206" lon="9.153382675722241">
        <ele>1166.21</ele>
        <time>2019-05-22T14:49:04Z</time>
      </trkpt>
      <trkpt lat="44.536148915067315" lon="9.153527598828077">
        <ele>1164.76</ele>
        <time>2019-05-22T14:49:16Z</time>
      </trkpt>
      <trkpt lat="44.536245139315724" lon="9.153675371780992">
        <ele>1162.5699999999999</ele>
        <time>2019-05-22T14:49:33Z</time>
      </trkpt>
      <trkpt lat="44.536283276975155" lon="9.153779810294509">
        <ele>1159.9200000000001</ele>
        <time>2019-05-22T14:49:44Z</time>
      </trkpt>
      <trkpt lat="44.53629769384861" lon="9.153834376484156">
        <ele>1158.6300000000001</ele>
        <time>2019-05-22T14:49:48Z</time>
      </trkpt>
      <trkpt lat="44.536305489018559" lon="9.153992207720876">
        <ele>1156.26</ele>
        <time>2019-05-22T14:50:02Z</time>
      </trkpt>
      <trkpt lat="44.536227285861969" lon="9.154008384793997">
        <ele>1154.0699999999999</ele>
        <time>2019-05-22T14:50:12Z</time>
      </trkpt>
      <trkpt lat="44.536090493202209" lon="9.153991369530559">
        <ele>1151.4300000000001</ele>
        <time>2019-05-22T14:50:26Z</time>
      </trkpt>
      <trkpt lat="44.536079848185182" lon="9.153991285711527">
        <ele>1151.3399999999999</ele>
        <time>2019-05-22T14:50:27Z</time>
      </trkpt>
      <trkpt lat="44.535943642258644" lon="9.154018945991993">
        <ele>1148.5599999999999</ele>
        <time>2019-05-22T14:50:42Z</time>
      </trkpt>
      <trkpt lat="44.535855548456311" lon="9.154128497466445">
        <ele>1145.99</ele>
        <time>2019-05-22T14:50:56Z</time>
      </trkpt>
      <trkpt lat="44.535794025287032" lon="9.154209634289146">
        <ele>1142.8499999999999</ele>
        <time>2019-05-22T14:51:08Z</time>
      </trkpt>
      <trkpt lat="44.535719929262996" lon="9.154240228235722">
        <ele>1139.9100000000001</ele>
        <time>2019-05-22T14:51:20Z</time>
      </trkpt>
      <trkpt lat="44.535646252334118" lon="9.154279287904501">
        <ele>1137.0799999999999</ele>
        <time>2019-05-22T14:51:34Z</time>
      </trkpt>
      <trkpt lat="44.535551117733121" lon="9.154330752789974">
        <ele>1133.8900000000001</ele>
        <time>2019-05-22T14:51:48Z</time>
      </trkpt>
      <trkpt lat="44.535453971475363" lon="9.154371656477451">
        <ele>1130.9100000000001</ele>
        <time>2019-05-22T14:52:02Z</time>
      </trkpt>
      <trkpt lat="44.535425389185548" lon="9.154457906261087">
        <ele>1129.0899999999999</ele>
        <time>2019-05-22T14:52:14Z</time>
      </trkpt>
      <trkpt lat="44.535401165485382" lon="9.154563853517175">
        <ele>1127.8399999999999</ele>
        <time>2019-05-22T14:52:25Z</time>
      </trkpt>
      <trkpt lat="44.53539764508605" lon="9.154576007276774">
        <ele>1127.6099999999999</ele>
        <time>2019-05-22T14:52:26Z</time>
      </trkpt>
      <trkpt lat="44.535346264019608" lon="9.154699388891459">
        <ele>1126.0599999999999</ele>
        <time>2019-05-22T14:52:39Z</time>
      </trkpt>
      <trkpt lat="44.535270910710096" lon="9.15476837195456">
        <ele>1122.99</ele>
        <time>2019-05-22T14:52:53Z</time>
      </trkpt>
      <trkpt lat="44.535197652876377" lon="9.154869038611651">
        <ele>1119.73</ele>
        <time>2019-05-22T14:53:07Z</time>
      </trkpt>
      <trkpt lat="44.535124395042658" lon="9.15492620319128">
        <ele>1117.0999999999999</ele>
        <time>2019-05-22T14:53:21Z</time>
      </trkpt>
      <trkpt lat="44.535045102238655" lon="9.15490860119462">
        <ele>1115.8599999999999</ele>
        <time>2019-05-22T14:53:32Z</time>
      </trkpt>
      <trkpt lat="44.534976705908775" lon="9.154855627566576">
        <ele>1113.74</ele>
        <time>2019-05-22T14:53:45Z</time>
      </trkpt>
      <trkpt lat="44.534926917403936" lon="9.154804078862071">
        <ele>1112.1400000000001</ele>
        <time>2019-05-22T14:53:57Z</time>
      </trkpt>
      <trkpt lat="44.534822730347514" lon="9.154800893738866">
        <ele>1109.6300000000001</ele>
        <time>2019-05-22T14:54:12Z</time>
      </trkpt>
      <trkpt lat="44.534709323197603" lon="9.154825452715159">
        <ele>1106.46</ele>
        <time>2019-05-22T14:54:27Z</time>
      </trkpt>
      <trkpt lat="44.534621313214302" lon="9.154850179329515">
        <ele>1103.98</ele>
        <time>2019-05-22T14:54:41Z</time>
      </trkpt>
      <trkpt lat="44.53453523106873" lon="9.154854873195291">
        <ele>1100.96</ele>
        <time>2019-05-22T14:54:55Z</time>
      </trkpt>
      <trkpt lat="44.534463314339519" lon="9.154884796589613">
        <ele>1098.9300000000001</ele>
        <time>2019-05-22T14:55:06Z</time>
      </trkpt>
      <trkpt lat="44.534355439245701" lon="9.154884293675423">
        <ele>1096.1700000000001</ele>
        <time>2019-05-22T14:55:21Z</time>
      </trkpt>
      <trkpt lat="44.534259382635355" lon="9.154859399423003">
        <ele>1093.46</ele>
        <time>2019-05-22T14:55:33Z</time>
      </trkpt>
      <trkpt lat="44.534137761220336" lon="9.154789829626679">
        <ele>1091.49</ele>
        <time>2019-05-22T14:55:47Z</time>
      </trkpt>
      <trkpt lat="44.534037513658404" lon="9.154724115505815">
        <ele>1090.8199999999999</ele>
        <time>2019-05-22T14:55:58Z</time>
      </trkpt>
      <trkpt lat="44.533922597765923" lon="9.154648510739207">
        <ele>1090.0699999999999</ele>
        <time>2019-05-22T14:56:11Z</time>
      </trkpt>
      <trkpt lat="44.533829055726528" lon="9.154580533504486">
        <ele>1089.51</ele>
        <time>2019-05-22T14:56:22Z</time>
      </trkpt>
      <trkpt lat="44.533688658848405" lon="9.154483387246728">
        <ele>1089.0599999999999</ele>
        <time>2019-05-22T14:56:36Z</time>
      </trkpt>
      <trkpt lat="44.5335887465626" lon="9.154472826048732">
        <ele>1088.47</ele>
        <time>2019-05-22T14:56:48Z</time>
      </trkpt>
      <trkpt lat="44.533539041876793" lon="9.154465533792973">
        <ele>1088.3199999999999</ele>
        <time>2019-05-22T14:56:53Z</time>
      </trkpt>
      <trkpt lat="44.533396884799004" lon="9.154482381418347">
        <ele>1085.26</ele>
        <time>2019-05-22T14:57:08Z</time>
      </trkpt>
      <trkpt lat="44.533294960856438" lon="9.154529990628362">
        <ele>1082.54</ele>
        <time>2019-05-22T14:57:21Z</time>
      </trkpt>
      <trkpt lat="44.533216087147593" lon="9.154611295089126">
        <ele>1080.29</ele>
        <time>2019-05-22T14:57:33Z</time>
      </trkpt>
      <trkpt lat="44.533206867054105" lon="9.154744148254395">
        <ele>1077.5699999999999</ele>
        <time>2019-05-22T14:57:46Z</time>
      </trkpt>
      <trkpt lat="44.533219439908862" lon="9.154901225119829">
        <ele>1074.53</ele>
        <time>2019-05-22T14:58:00Z</time>
      </trkpt>
      <trkpt lat="44.533235281705856" lon="9.155035419389606">
        <ele>1071.8299999999999</ele>
        <time>2019-05-22T14:58:11Z</time>
      </trkpt>
      <trkpt lat="44.533271323889494" lon="9.155169194564223">
        <ele>1069.55</ele>
        <time>2019-05-22T14:58:25Z</time>
      </trkpt>
      <trkpt lat="44.533302672207355" lon="9.155280841514468">
        <ele>1066.8699999999999</ele>
        <time>2019-05-22T14:58:37Z</time>
      </trkpt>
      <trkpt lat="44.533317759633064" lon="9.155364744365215">
        <ele>1065.02</ele>
        <time>2019-05-22T14:58:50Z</time>
      </trkpt>
      <trkpt lat="44.533317508175969" lon="9.155486198142171">
        <ele>1062.04</ele>
        <time>2019-05-22T14:59:02Z</time>
      </trkpt>
      <trkpt lat="44.533341815695167" lon="9.155553756281734">
        <ele>1060.0999999999999</ele>
        <time>2019-05-22T14:59:13Z</time>
      </trkpt>
      <trkpt lat="44.533359836786985" lon="9.155704379081726">
        <ele>1056.99</ele>
        <time>2019-05-22T14:59:26Z</time>
      </trkpt>
      <trkpt lat="44.533400153741241" lon="9.155848883092403">
        <ele>1054.0799999999999</ele>
        <time>2019-05-22T14:59:38Z</time>
      </trkpt>
      <trkpt lat="44.533354723826051" lon="9.156011575832963">
        <ele>1053.53</ele>
        <time>2019-05-22T14:59:50Z</time>
      </trkpt>
      <trkpt lat="44.533242993056774" lon="9.156176447868347">
        <ele>1053.0599999999999</ele>
        <time>2019-05-22T15:00:04Z</time>
      </trkpt>
      <trkpt lat="44.533147606998682" lon="9.156320197507739">
        <ele>1052.3</ele>
        <time>2019-05-22T15:00:17Z</time>
      </trkpt>
      <trkpt lat="44.533065045252442" lon="9.156521698459983">
        <ele>1051.98</ele>
        <time>2019-05-22T15:00:32Z</time>
      </trkpt>
      <trkpt lat="44.533024644479156" lon="9.156675674021244">
        <ele>1052.0599999999999</ele>
        <time>2019-05-22T15:00:43Z</time>
      </trkpt>
      <trkpt lat="44.53296915628016" lon="9.156828308477998">
        <ele>1052.1300000000001</ele>
        <time>2019-05-22T15:00:54Z</time>
      </trkpt>
      <trkpt lat="44.532914170995355" lon="9.156870469450951">
        <ele>1048.6199999999999</ele>
        <time>2019-05-22T15:01:00Z</time>
      </trkpt>
      <trkpt lat="44.532850719988346" lon="9.156881114467979">
        <ele>1047.5799999999999</ele>
        <time>2019-05-22T15:01:07Z</time>
      </trkpt>
      <trkpt lat="44.532806128263474" lon="9.15689829736948">
        <ele>1046.97</ele>
        <time>2019-05-22T15:01:11Z</time>
      </trkpt>
      <trkpt lat="44.532680818811059" lon="9.156907266005874">
        <ele>1045.3499999999999</ele>
        <time>2019-05-22T15:01:24Z</time>
      </trkpt>
      <trkpt lat="44.532597670331597" lon="9.156916318461299">
        <ele>1043.4300000000001</ele>
        <time>2019-05-22T15:01:34Z</time>
      </trkpt>
      <trkpt lat="44.532551653683186" lon="9.157038945704699">
        <ele>1041.04</ele>
        <time>2019-05-22T15:01:45Z</time>
      </trkpt>
      <trkpt lat="44.53257872723043" lon="9.157193507999182">
        <ele>1038.6300000000001</ele>
        <time>2019-05-22T15:01:58Z</time>
      </trkpt>
      <trkpt lat="44.532569590955973" lon="9.157364163547754">
        <ele>1036.8499999999999</ele>
        <time>2019-05-22T15:02:09Z</time>
      </trkpt>
      <trkpt lat="44.532599095255136" lon="9.15745628066361">
        <ele>1035.5799999999999</ele>
        <time>2019-05-22T15:02:16Z</time>
      </trkpt>
      <trkpt lat="44.532655254006386" lon="9.157589804381132">
        <ele>1033.6400000000001</ele>
        <time>2019-05-22T15:02:27Z</time>
      </trkpt>
      <trkpt lat="44.532654164358974" lon="9.157599359750748">
        <ele>1033.3699999999999</ele>
        <time>2019-05-22T15:02:28Z</time>
      </trkpt>
      <trkpt lat="44.532644944265485" lon="9.15771720930934">
        <ele>1032.28</ele>
        <time>2019-05-22T15:02:36Z</time>
      </trkpt>
      <trkpt lat="44.532562969252467" lon="9.157864227890968">
        <ele>1030.78</ele>
        <time>2019-05-22T15:02:48Z</time>
      </trkpt>
      <trkpt lat="44.532477054744959" lon="9.157932288944721">
        <ele>1028.6199999999999</ele>
        <time>2019-05-22T15:02:59Z</time>
      </trkpt>
      <trkpt lat="44.532367000356317" lon="9.157999847084284">
        <ele>1025.9200000000001</ele>
        <time>2019-05-22T15:03:10Z</time>
      </trkpt>
      <trkpt lat="44.532250910997391" lon="9.158057682216167">
        <ele>1023.3200000000001</ele>
        <time>2019-05-22T15:03:22Z</time>
      </trkpt>
      <trkpt lat="44.532191567122936" lon="9.158141165971756">
        <ele>1020.27</ele>
        <time>2019-05-22T15:03:31Z</time>
      </trkpt>
      <trkpt lat="44.532173210754991" lon="9.158169412985444">
        <ele>1019.3200000000001</ele>
        <time>2019-05-22T15:03:34Z</time>
      </trkpt>
      <trkpt lat="44.532086122781038" lon="9.158287178725004">
        <ele>1015.99</ele>
        <time>2019-05-22T15:03:47Z</time>
      </trkpt>
      <trkpt lat="44.532095594331622" lon="9.158270498737693">
        <ele>1016.13</ele>
        <time>2019-05-22T15:04:06Z</time>
      </trkpt>
      <trkpt lat="44.532097689807415" lon="9.158257255330682">
        <ele>1015.92</ele>
        <time>2019-05-22T15:04:40Z</time>
      </trkpt>
      <trkpt lat="44.532040609046817" lon="9.158329758793116">
        <ele>1014.83</ele>
        <time>2019-05-22T15:04:50Z</time>
      </trkpt>
      <trkpt lat="44.532019235193729" lon="9.158378876745701">
        <ele>1014.1</ele>
        <time>2019-05-22T15:04:54Z</time>
      </trkpt>
      <trkpt lat="44.531955951824784" lon="9.158527487888932">
        <ele>1011.02</ele>
        <time>2019-05-22T15:05:06Z</time>
      </trkpt>
      <trkpt lat="44.531863247975707" lon="9.158653886988759">
        <ele>1007.52</ele>
        <time>2019-05-22T15:05:19Z</time>
      </trkpt>
      <trkpt lat="44.531818320974708" lon="9.158743908628821">
        <ele>1005.96</ele>
        <time>2019-05-22T15:05:27Z</time>
      </trkpt>
      <trkpt lat="44.531727964058518" lon="9.158797804266214">
        <ele>1003.29</ele>
        <time>2019-05-22T15:05:39Z</time>
      </trkpt>
      <trkpt lat="44.531619166955352" lon="9.158838288858533">
        <ele>1000.74</ele>
        <time>2019-05-22T15:05:51Z</time>
      </trkpt>
      <trkpt lat="44.531528977677226" lon="9.158904170617461">
        <ele>998.69000000000005</ele>
        <time>2019-05-22T15:06:03Z</time>
      </trkpt>
      <trkpt lat="44.53151891939342" lon="9.15891389362514">
        <ele>998.63999999999999</ele>
        <time>2019-05-22T15:06:04Z</time>
      </trkpt>
      <trkpt lat="44.531373996287584" lon="9.1589470859617">
        <ele>997.71000000000004</ele>
        <time>2019-05-22T15:06:16Z</time>
      </trkpt>
      <trkpt lat="44.53125799074769" lon="9.158996287733316">
        <ele>995.82000000000005</ele>
        <time>2019-05-22T15:06:26Z</time>
      </trkpt>
      <trkpt lat="44.531137039884925" lon="9.159059319645166">
        <ele>994.05999999999995</ele>
        <time>2019-05-22T15:06:37Z</time>
      </trkpt>
      <trkpt lat="44.531045509502292" lon="9.159084632992744">
        <ele>992.83000000000004</ele>
        <time>2019-05-22T15:06:46Z</time>
      </trkpt>
      <trkpt lat="44.530903017148376" lon="9.159133415669203">
        <ele>991.57000000000005</ele>
        <time>2019-05-22T15:06:58Z</time>
      </trkpt>
      <trkpt lat="44.530797740444541" lon="9.159164931625128">
        <ele>990.60000000000002</ele>
        <time>2019-05-22T15:07:07Z</time>
      </trkpt>
      <trkpt lat="44.530666479840875" lon="9.159226538613439">
        <ele>988.36000000000001</ele>
        <time>2019-05-22T15:07:17Z</time>
      </trkpt>
      <trkpt lat="44.530527675524354" lon="9.15927205234766">
        <ele>986.20000000000005</ele>
        <time>2019-05-22T15:07:29Z</time>
      </trkpt>
      <trkpt lat="44.530409658327699" lon="9.159318152815104">
        <ele>984.23000000000002</ele>
        <time>2019-05-22T15:07:40Z</time>
      </trkpt>
      <trkpt lat="44.530270770192146" lon="9.159289905801415">
        <ele>982.60000000000002</ele>
        <time>2019-05-22T15:07:52Z</time>
      </trkpt>
      <trkpt lat="44.530142778530717" lon="9.159209858626127">
        <ele>981.14999999999998</ele>
        <time>2019-05-22T15:08:09Z</time>
      </trkpt>
      <trkpt lat="44.530138755217195" lon="9.159209439530969">
        <ele>981.27999999999997</ele>
        <time>2019-05-22T15:08:18Z</time>
      </trkpt>
      <trkpt lat="44.530137414112687" lon="9.159199213609099">
        <ele>981.00999999999999</ele>
        <time>2019-05-22T15:08:33Z</time>
      </trkpt>
      <trkpt lat="44.53013414517045" lon="9.15918605402112">
        <ele>982.36000000000001</ele>
        <time>2019-05-22T15:08:57Z</time>
      </trkpt>
      <trkpt lat="44.53013657592237" lon="9.159188820049167">
        <ele>981.14999999999998</ele>
        <time>2019-05-22T15:09:06Z</time>
      </trkpt>
      <trkpt lat="44.530128445476294" lon="9.159204829484224">
        <ele>981.02999999999997</ele>
        <time>2019-05-22T15:09:08Z</time>
      </trkpt>
      <trkpt lat="44.529973715543747" lon="9.159291833639145">
        <ele>979.75999999999999</ele>
        <time>2019-05-22T15:09:24Z</time>
      </trkpt>
      <trkpt lat="44.529887633398175" lon="9.159333491697907">
        <ele>978.86000000000001</ele>
        <time>2019-05-22T15:09:33Z</time>
      </trkpt>
      <trkpt lat="44.529853016138077" lon="9.159330893307924">
        <ele>978.15999999999997</ele>
        <time>2019-05-22T15:09:42Z</time>
      </trkpt>
      <trkpt lat="44.529816722497344" lon="9.159340281039476">
        <ele>978</ele>
        <time>2019-05-22T15:09:54Z</time>
      </trkpt>
      <trkpt lat="44.529799707233906" lon="9.159340867772698">
        <ele>984.71000000000004</ele>
        <time>2019-05-22T15:17:20Z</time>
      </trkpt>
      <trkpt lat="44.529800293967128" lon="9.15934338234365">
        <ele>985.36000000000001</ele>
        <time>2019-05-22T15:17:59Z</time>
      </trkpt>
      <trkpt lat="44.529789565131068" lon="9.159337263554335">
        <ele>986.25</ele>
        <time>2019-05-22T15:18:39Z</time>
      </trkpt>
      <trkpt lat="44.529782105237246" lon="9.159332485869527">
        <ele>988.73000000000002</ele>
        <time>2019-05-22T15:20:00Z</time>
      </trkpt>
      <trkpt lat="44.529655873775482" lon="9.159320583567023">
        <ele>989.66999999999996</ele>
        <time>2019-05-22T15:28:13Z</time>
      </trkpt>
      <trkpt lat="44.529500305652618" lon="9.15919384919107">
        <ele>989.14999999999998</ele>
        <time>2019-05-22T15:28:27Z</time>
      </trkpt>
      <trkpt lat="44.529492678120732" lon="9.159183874726296">
        <ele>989.14999999999998</ele>
        <time>2019-05-22T15:28:28Z</time>
      </trkpt>
      <trkpt lat="44.529466694220901" lon="9.159137271344662">
        <ele>986.38</ele>
        <time>2019-05-22T15:28:32Z</time>
      </trkpt>
      <trkpt lat="44.529424784705043" lon="9.15907901711762">
        <ele>985.16999999999996</ele>
        <time>2019-05-22T15:28:37Z</time>
      </trkpt>
      <trkpt lat="44.529301822185516" lon="9.15907708927989">
        <ele>983.49000000000001</ele>
        <time>2019-05-22T15:28:50Z</time>
      </trkpt>
      <trkpt lat="44.529195539653301" lon="9.158974410966039">
        <ele>980.25999999999999</ele>
        <time>2019-05-22T15:29:01Z</time>
      </trkpt>
      <trkpt lat="44.529113061726093" lon="9.158915234729648">
        <ele>977.12</ele>
        <time>2019-05-22T15:29:10Z</time>
      </trkpt>
      <trkpt lat="44.529038462787867" lon="9.158871397376061">
        <ele>974.80999999999995</ele>
        <time>2019-05-22T15:29:19Z</time>
      </trkpt>
      <trkpt lat="44.529033936560154" lon="9.158860836178064">
        <ele>974.65999999999997</ele>
        <time>2019-05-22T15:29:20Z</time>
      </trkpt>
      <trkpt lat="44.529077690094709" lon="9.158768551424146">
        <ele>973.24000000000001</ele>
        <time>2019-05-22T15:29:31Z</time>
      </trkpt>
      <trkpt lat="44.529125047847629" lon="9.158568559214473">
        <ele>972.55999999999995</ele>
        <time>2019-05-22T15:32:32Z</time>
      </trkpt>
      <trkpt lat="44.529056148603559" lon="9.15840083733201">
        <ele>971.34000000000003</ele>
        <time>2019-05-22T15:32:46Z</time>
      </trkpt>
      <trkpt lat="44.528976688161492" lon="9.158288855105639">
        <ele>968.98000000000002</ele>
        <time>2019-05-22T15:32:58Z</time>
      </trkpt>
      <trkpt lat="44.528831178322434" lon="9.158118451014161">
        <ele>967.07000000000005</ele>
        <time>2019-05-22T15:33:12Z</time>
      </trkpt>
      <trkpt lat="44.528666138648987" lon="9.157972186803818">
        <ele>965.09000000000003</ele>
        <time>2019-05-22T15:33:26Z</time>
      </trkpt>
      <trkpt lat="44.528550552204251" lon="9.15785500779748">
        <ele>962.39999999999998</ele>
        <time>2019-05-22T15:33:40Z</time>
      </trkpt>
      <trkpt lat="44.528547953814268" lon="9.157797088846564">
        <ele>961.04999999999995</ele>
        <time>2019-05-22T15:33:45Z</time>
      </trkpt>
      <trkpt lat="44.528580391779542" lon="9.157705726101995">
        <ele>960.01999999999998</ele>
        <time>2019-05-22T15:33:56Z</time>
      </trkpt>
      <trkpt lat="44.528622385114431" lon="9.157511852681637">
        <ele>958.07000000000005</ele>
        <time>2019-05-22T15:34:09Z</time>
      </trkpt>
      <trkpt lat="44.528624061495066" lon="9.157238518819213">
        <ele>956.62</ele>
        <time>2019-05-22T15:34:24Z</time>
      </trkpt>
      <trkpt lat="44.52860034070909" lon="9.15711815468967">
        <ele>956.83000000000004</ele>
        <time>2019-05-22T15:34:32Z</time>
      </trkpt>
      <trkpt lat="44.528564130887389" lon="9.156950516626239">
        <ele>956.85000000000002</ele>
        <time>2019-05-22T15:34:47Z</time>
      </trkpt>
      <trkpt lat="44.528565807268023" lon="9.156766198575497">
        <ele>957.05999999999995</ele>
        <time>2019-05-22T15:35:00Z</time>
      </trkpt>
      <trkpt lat="44.528487185016274" lon="9.156521111726761">
        <ele>957.00999999999999</ele>
        <time>2019-05-22T15:35:12Z</time>
      </trkpt>
      <trkpt lat="44.528458435088396" lon="9.156449530273676">
        <ele>956.36000000000001</ele>
        <time>2019-05-22T15:35:16Z</time>
      </trkpt>
      <trkpt lat="44.528326084837317" lon="9.156288513913751">
        <ele>953.02999999999997</ele>
        <time>2019-05-22T15:35:29Z</time>
      </trkpt>
      <trkpt lat="44.528267914429307" lon="9.156240737065673">
        <ele>949.97000000000003</ele>
        <time>2019-05-22T15:35:38Z</time>
      </trkpt>
      <trkpt lat="44.528198847547174" lon="9.156231265515089">
        <ele>947.25</ele>
        <time>2019-05-22T15:35:46Z</time>
      </trkpt>
      <trkpt lat="44.528120812028646" lon="9.156220285221934">
        <ele>944.40999999999997</ele>
        <time>2019-05-22T15:35:55Z</time>
      </trkpt>
      <trkpt lat="44.52800908125937" lon="9.156169909983873">
        <ele>940.94000000000005</ele>
        <time>2019-05-22T15:36:09Z</time>
      </trkpt>
      <trkpt lat="44.5279626455158" lon="9.156194636598229">
        <ele>939.19000000000005</ele>
        <time>2019-05-22T15:36:16Z</time>
      </trkpt>
      <trkpt lat="44.527900535613298" lon="9.156191200017929">
        <ele>937.86000000000001</ele>
        <time>2019-05-22T15:36:22Z</time>
      </trkpt>
      <trkpt lat="44.527810262516141" lon="9.156166892498732">
        <ele>935.08000000000004</ele>
        <time>2019-05-22T15:36:34Z</time>
      </trkpt>
      <trkpt lat="44.527680929750204" lon="9.156132442876697">
        <ele>932.22000000000003</ele>
        <time>2019-05-22T15:36:47Z</time>
      </trkpt>
      <trkpt lat="44.527571545913815" lon="9.156062537804246">
        <ele>930.11000000000001</ele>
        <time>2019-05-22T15:36:57Z</time>
      </trkpt>
      <trkpt lat="44.527434920892119" lon="9.156048288568854">
        <ele>927.74000000000001</ele>
        <time>2019-05-22T15:37:10Z</time>
      </trkpt>
      <trkpt lat="44.527338026091456" lon="9.156019287183881">
        <ele>924.67999999999995</ele>
        <time>2019-05-22T15:37:22Z</time>
      </trkpt>
      <trkpt lat="44.527273820713162" lon="9.156122300773859">
        <ele>922.73000000000002</ele>
        <time>2019-05-22T15:37:36Z</time>
      </trkpt>
      <trkpt lat="44.527219086885452" lon="9.156191200017929">
        <ele>919.65999999999997</ele>
        <time>2019-05-22T15:37:47Z</time>
      </trkpt>
      <trkpt lat="44.527085395529866" lon="9.156195474788547">
        <ele>917.32000000000005</ele>
        <time>2019-05-22T15:38:03Z</time>
      </trkpt>
      <trkpt lat="44.527049101889133" lon="9.156205784529448">
        <ele>917.01999999999998</ele>
        <time>2019-05-22T15:38:06Z</time>
      </trkpt>
      <trkpt lat="44.526828909292817" lon="9.15620930492878">
        <ele>916.15999999999997</ele>
        <time>2019-05-22T15:38:23Z</time>
      </trkpt>
      <trkpt lat="44.526790520176291" lon="9.156218189746141">
        <ele>914.48000000000002</ele>
        <time>2019-05-22T15:38:26Z</time>
      </trkpt>
      <trkpt lat="44.526709886267781" lon="9.156234115362167">
        <ele>913.12</ele>
        <time>2019-05-22T15:38:33Z</time>
      </trkpt>
      <trkpt lat="44.526625648140907" lon="9.156243922188878">
        <ele>912.16999999999996</ele>
        <time>2019-05-22T15:38:43Z</time>
      </trkpt>
      <trkpt lat="44.526604861021042" lon="9.156254734843969">
        <ele>912.45000000000005</ele>
        <time>2019-05-22T15:39:45Z</time>
      </trkpt>
      <trkpt lat="44.526577703654766" lon="9.156264876946807">
        <ele>911.75</ele>
        <time>2019-05-22T15:40:02Z</time>
      </trkpt>
      <trkpt lat="44.526466391980648" lon="9.156256914138794">
        <ele>911.17999999999995</ele>
        <time>2019-05-22T15:40:14Z</time>
      </trkpt>
      <trkpt lat="44.526303950697184" lon="9.156299410387874">
        <ele>910.58000000000004</ele>
        <time>2019-05-22T15:40:28Z</time>
      </trkpt>
      <trkpt lat="44.526169672608376" lon="9.156329417601228">
        <ele>909.94000000000005</ele>
        <time>2019-05-22T15:40:40Z</time>
      </trkpt>
      <trkpt lat="44.526086524128914" lon="9.15635984390974">
        <ele>907.90999999999997</ele>
        <time>2019-05-22T15:40:49Z</time>
      </trkpt>
      <trkpt lat="44.525970434769988" lon="9.156383480876684">
        <ele>906.70000000000005</ele>
        <time>2019-05-22T15:41:00Z</time>
      </trkpt>
      <trkpt lat="44.525846550241113" lon="9.156426982954145">
        <ele>904.13999999999999</ele>
        <time>2019-05-22T15:41:12Z</time>
      </trkpt>
      <trkpt lat="44.525733729824424" lon="9.15643603540957">
        <ele>901.65999999999997</ele>
        <time>2019-05-22T15:41:22Z</time>
      </trkpt>
      <trkpt lat="44.525611521676183" lon="9.156595459207892">
        <ele>898.41999999999996</ele>
        <time>2019-05-22T15:41:36Z</time>
      </trkpt>
      <trkpt lat="44.525581933557987" lon="9.156791595742106">
        <ele>895.21000000000004</ele>
        <time>2019-05-22T15:41:49Z</time>
      </trkpt>
      <trkpt lat="44.525527954101563" lon="9.157003993168473">
        <ele>891.75999999999999</ele>
        <time>2019-05-22T15:42:01Z</time>
      </trkpt>
      <trkpt lat="44.525490989908576" lon="9.157172050327063">
        <ele>888.91999999999996</ele>
        <time>2019-05-22T15:42:15Z</time>
      </trkpt>
      <trkpt lat="44.525490906089544" lon="9.157165428623557">
        <ele>885.79999999999995</ele>
        <time>2019-05-22T15:42:21Z</time>
      </trkpt>
      <trkpt lat="44.525491073727608" lon="9.157157130539417">
        <ele>888.25</ele>
        <time>2019-05-22T15:42:24Z</time>
      </trkpt>
      <trkpt lat="44.5254828594625" lon="9.157155873253942">
        <ele>890.5</ele>
        <time>2019-05-22T15:42:27Z</time>
      </trkpt>
      <trkpt lat="44.52542619779706" lon="9.157179594039917">
        <ele>888.30999999999995</ele>
        <time>2019-05-22T15:42:38Z</time>
      </trkpt>
      <trkpt lat="44.525332069024444" lon="9.157198956236243">
        <ele>885.89999999999998</ele>
        <time>2019-05-22T15:42:49Z</time>
      </trkpt>
      <trkpt lat="44.525258475914598" lon="9.157214295119047">
        <ele>884.26999999999998</ele>
        <time>2019-05-22T15:42:58Z</time>
      </trkpt>
      <trkpt lat="44.525059824809432" lon="9.157231897115707">
        <ele>881.05999999999995</ele>
        <time>2019-05-22T15:43:16Z</time>
      </trkpt>
      <trkpt lat="44.52498497441411" lon="9.157212618738413">
        <ele>879.55999999999995</ele>
        <time>2019-05-22T15:43:23Z</time>
      </trkpt>
      <trkpt lat="44.524828819558024" lon="9.157220162451267">
        <ele>876.64999999999998</ele>
        <time>2019-05-22T15:43:38Z</time>
      </trkpt>
      <trkpt lat="44.524694122374058" lon="9.157239524647594">
        <ele>873.57000000000005</ele>
        <time>2019-05-22T15:43:50Z</time>
      </trkpt>
      <trkpt lat="44.524576356634498" lon="9.157228879630566">
        <ele>870.34000000000003</ele>
        <time>2019-05-22T15:44:01Z</time>
      </trkpt>
      <trkpt lat="44.524498237296939" lon="9.157223515212536">
        <ele>868.26999999999998</ele>
        <time>2019-05-22T15:44:08Z</time>
      </trkpt>
      <trkpt lat="44.524408550933003" lon="9.15723005309701">
        <ele>865.09000000000003</ele>
        <time>2019-05-22T15:44:17Z</time>
      </trkpt>
      <trkpt lat="44.524396732449532" lon="9.157234495505691">
        <ele>864.88999999999999</ele>
        <time>2019-05-22T15:44:18Z</time>
      </trkpt>
      <trkpt lat="44.524278128519654" lon="9.157332060858607">
        <ele>861.61000000000001</ele>
        <time>2019-05-22T15:44:29Z</time>
      </trkpt>
      <trkpt lat="44.524156842380762" lon="9.157406575977802">
        <ele>858.25</ele>
        <time>2019-05-22T15:44:40Z</time>
      </trkpt>
      <trkpt lat="44.524068329483271" lon="9.157416634261608">
        <ele>855.72000000000003</ele>
        <time>2019-05-22T15:44:49Z</time>
      </trkpt>
      <trkpt lat="44.523961963132024" lon="9.157413197681308">
        <ele>853.72000000000003</ele>
        <time>2019-05-22T15:45:00Z</time>
      </trkpt>
      <trkpt lat="44.52394318766892" lon="9.157312698662281">
        <ele>850.08000000000004</ele>
        <time>2019-05-22T15:45:09Z</time>
      </trkpt>
      <trkpt lat="44.523936985060573" lon="9.15730532258749">
        <ele>850.09000000000003</ele>
        <time>2019-05-22T15:45:10Z</time>
      </trkpt>
      <trkpt lat="44.523918209597468" lon="9.157292162999511">
        <ele>852.41999999999996</ele>
        <time>2019-05-22T15:45:12Z</time>
      </trkpt>
      <trkpt lat="44.523879904299974" lon="9.157292917370796">
        <ele>849.38</ele>
        <time>2019-05-22T15:45:19Z</time>
      </trkpt>
      <trkpt lat="44.523764485493302" lon="9.157276907935739">
        <ele>846.32000000000005</ele>
        <time>2019-05-22T15:45:32Z</time>
      </trkpt>
      <trkpt lat="44.523633057251573" lon="9.157246565446258">
        <ele>843.74000000000001</ele>
        <time>2019-05-22T15:45:46Z</time>
      </trkpt>
      <trkpt lat="44.523540437221527" lon="9.157258048653603">
        <ele>841.96000000000004</ele>
        <time>2019-05-22T15:45:56Z</time>
      </trkpt>
      <trkpt lat="44.52342770062387" lon="9.157413868233562">
        <ele>840.67999999999995</ele>
        <time>2019-05-22T15:46:09Z</time>
      </trkpt>
      <trkpt lat="44.523353185504675" lon="9.15757698006928">
        <ele>838.86000000000001</ele>
        <time>2019-05-22T15:46:21Z</time>
      </trkpt>
      <trkpt lat="44.523329716175795" lon="9.157621907070279">
        <ele>837.86000000000001</ele>
        <time>2019-05-22T15:46:25Z</time>
      </trkpt>
      <trkpt lat="44.523254362866282" lon="9.157748054713011">
        <ele>834.88999999999999</ele>
        <time>2019-05-22T15:46:38Z</time>
      </trkpt>
      <trkpt lat="44.523216392844915" lon="9.15778174996376">
        <ele>833.98000000000002</ele>
        <time>2019-05-22T15:46:43Z</time>
      </trkpt>
      <trkpt lat="44.523104662075639" lon="9.157872190698981">
        <ele>830.73000000000002</ele>
        <time>2019-05-22T15:46:55Z</time>
      </trkpt>
      <trkpt lat="44.523018663749099" lon="9.157921727746725">
        <ele>828.11000000000001</ele>
        <time>2019-05-22T15:47:05Z</time>
      </trkpt>
      <trkpt lat="44.522928558290005" lon="9.157889122143388">
        <ele>825.86000000000001</ele>
        <time>2019-05-22T15:47:16Z</time>
      </trkpt>
      <trkpt lat="44.522889750078321" lon="9.157926086336374">
        <ele>825.38999999999999</ele>
        <time>2019-05-22T15:47:26Z</time>
      </trkpt>
      <trkpt lat="44.522881535813212" lon="9.157957686111331">
        <ele>824.87</ele>
        <time>2019-05-22T15:47:38Z</time>
      </trkpt>
      <trkpt lat="44.522873489186168" lon="9.157947460189462">
        <ele>823.69000000000005</ele>
        <time>2019-05-22T15:47:59Z</time>
      </trkpt>
      <trkpt lat="44.52286871150136" lon="9.157959278672934">
        <ele>825.52999999999997</ele>
        <time>2019-05-22T15:48:02Z</time>
      </trkpt>
      <trkpt lat="44.522869465872645" lon="9.157960703596473">
        <ele>824.89999999999998</ele>
        <time>2019-05-22T15:48:04Z</time>
      </trkpt>
      <trkpt lat="44.522867873311043" lon="9.157934216782451">
        <ele>825.29999999999995</ele>
        <time>2019-05-22T15:48:18Z</time>
      </trkpt>
      <trkpt lat="44.522883128374815" lon="9.157924577593803">
        <ele>825.20000000000005</ele>
        <time>2019-05-22T15:48:34Z</time>
      </trkpt>
      <trkpt lat="44.522877428680658" lon="9.157908232882619">
        <ele>825.41999999999996</ele>
        <time>2019-05-22T15:48:52Z</time>
      </trkpt>
      <trkpt lat="44.522870471701026" lon="9.157908484339714">
        <ele>825.48000000000002</ele>
        <time>2019-05-22T15:49:07Z</time>
      </trkpt>
      <trkpt lat="44.52286871150136" lon="9.157909993082285">
        <ele>825.54999999999995</ele>
        <time>2019-05-22T15:49:22Z</time>
      </trkpt>
      <trkpt lat="44.522876171395183" lon="9.157935976982117">
        <ele>825.92999999999995</ele>
        <time>2019-05-22T15:49:42Z</time>
      </trkpt>
      <trkpt lat="44.522883715108037" lon="9.157944610342383">
        <ele>826.08000000000004</ele>
        <time>2019-05-22T15:49:59Z</time>
      </trkpt>
      <trkpt lat="44.522893102839589" lon="9.157944358885288">
        <ele>826.11000000000001</ele>
        <time>2019-05-22T15:50:19Z</time>
      </trkpt>
      <trkpt lat="44.522885894402862" lon="9.157929690554738">
        <ele>826.38</ele>
        <time>2019-05-22T15:50:34Z</time>
      </trkpt>
      <trkpt lat="44.522887151688337" lon="9.157926924526691">
        <ele>826.51999999999998</ele>
        <time>2019-05-22T15:51:01Z</time>
      </trkpt>
      <trkpt lat="44.522890839725733" lon="9.157965648919344">
        <ele>826.23000000000002</ele>
        <time>2019-05-22T15:51:13Z</time>
      </trkpt>
      <trkpt lat="44.522883715108037" lon="9.157979730516672">
        <ele>826.26999999999998</ele>
        <time>2019-05-22T15:51:42Z</time>
      </trkpt>
      <trkpt lat="44.522875836119056" lon="9.157976880669594">
        <ele>826.40999999999997</ele>
        <time>2019-05-22T15:52:07Z</time>
      </trkpt>
      <trkpt lat="44.522886229678988" lon="9.157950561493635">
        <ele>826.49000000000001</ele>
        <time>2019-05-22T15:52:35Z</time>
      </trkpt>
      <trkpt lat="44.522886229678988" lon="9.157957350835204">
        <ele>826.47000000000003</ele>
        <time>2019-05-22T15:52:53Z</time>
      </trkpt>
      <trkpt lat="44.522880278527737" lon="9.158017532899976">
        <ele>825.21000000000004</ele>
        <time>2019-05-22T15:53:06Z</time>
      </trkpt>
      <trkpt lat="44.522878266870975" lon="9.158002529293299">
        <ele>825.60000000000002</ele>
        <time>2019-05-22T15:53:18Z</time>
      </trkpt>
      <trkpt lat="44.522898299619555" lon="9.158062878996134">
        <ele>824.15999999999997</ele>
        <time>2019-05-22T15:53:25Z</time>
      </trkpt>
      <trkpt lat="44.522946160286665" lon="9.158275108784437">
        <ele>822.66999999999996</ele>
        <time>2019-05-22T15:53:39Z</time>
      </trkpt>
      <trkpt lat="44.522936353459954" lon="9.158319532871246">
        <ele>822.42999999999995</ele>
        <time>2019-05-22T15:53:42Z</time>
      </trkpt>
      <trkpt lat="44.522849433124065" lon="9.158315593376756">
        <ele>819.87</ele>
        <time>2019-05-22T15:53:53Z</time>
      </trkpt>
      <trkpt lat="44.522836608812213" lon="9.158302433788776">
        <ele>819.51999999999998</ele>
        <time>2019-05-22T15:53:55Z</time>
      </trkpt>
      <trkpt lat="44.522725129500031" lon="9.15824200026691">
        <ele>816.03999999999996</ele>
        <time>2019-05-22T15:54:08Z</time>
      </trkpt>
      <trkpt lat="44.522651117295027" lon="9.158193469047546">
        <ele>812.88999999999999</ele>
        <time>2019-05-22T15:54:18Z</time>
      </trkpt>
      <trkpt lat="44.522529998794198" lon="9.158117445185781">
        <ele>810.51999999999998</ele>
        <time>2019-05-22T15:54:30Z</time>
      </trkpt>
      <trkpt lat="44.522398738190532" lon="9.158049635589123">
        <ele>807.32000000000005</ele>
        <time>2019-05-22T15:54:44Z</time>
      </trkpt>
      <trkpt lat="44.52228038571775" lon="9.158102860674262">
        <ele>804.17999999999995</ele>
        <time>2019-05-22T15:54:57Z</time>
      </trkpt>
      <trkpt lat="44.522228501737118" lon="9.158135047182441">
        <ele>802.82000000000005</ele>
        <time>2019-05-22T15:55:03Z</time>
      </trkpt>
      <trkpt lat="44.522091038525105" lon="9.158170083537698">
        <ele>801.10000000000002</ele>
        <time>2019-05-22T15:55:16Z</time>
      </trkpt>
      <trkpt lat="44.521969584748149" lon="9.158189781010151">
        <ele>797.92999999999995</ele>
        <time>2019-05-22T15:55:28Z</time>
      </trkpt>
      <trkpt lat="44.521954329684377" lon="9.158187182620168">
        <ele>797.30999999999995</ele>
        <time>2019-05-22T15:55:30Z</time>
      </trkpt>
      <trkpt lat="44.521857937797904" lon="9.158188523724675">
        <ele>794.03999999999996</ele>
        <time>2019-05-22T15:55:41Z</time>
      </trkpt>
      <trkpt lat="44.52174830250442" lon="9.158215513452888">
        <ele>791.07000000000005</ele>
        <time>2019-05-22T15:55:53Z</time>
      </trkpt>
      <trkpt lat="44.521692814305425" lon="9.158234959468246">
        <ele>789.65999999999997</ele>
        <time>2019-05-22T15:56:01Z</time>
      </trkpt>
      <trkpt lat="44.521591728553176" lon="9.15826597250998">
        <ele>787.39999999999998</ele>
        <time>2019-05-22T15:56:11Z</time>
      </trkpt>
      <trkpt lat="44.521464072167873" lon="9.158318024128676">
        <ele>783.92999999999995</ele>
        <time>2019-05-22T15:56:23Z</time>
      </trkpt>
      <trkpt lat="44.521363070234656" lon="9.158445848152041">
        <ele>780.62</ele>
        <time>2019-05-22T15:56:36Z</time>
      </trkpt>
      <trkpt lat="44.521267684176564" lon="9.158564787358046">
        <ele>777.92999999999995</ele>
        <time>2019-05-22T15:56:48Z</time>
      </trkpt>
      <trkpt lat="44.521157378330827" lon="9.158664029091597">
        <ele>774.88999999999999</ele>
        <time>2019-05-22T15:57:02Z</time>
      </trkpt>
      <trkpt lat="44.521112618967891" lon="9.158738125115633">
        <ele>774.00999999999999</ele>
        <time>2019-05-22T15:57:08Z</time>
      </trkpt>
      <trkpt lat="44.52102167531848" lon="9.158756146207452">
        <ele>773.53999999999996</ele>
        <time>2019-05-22T15:57:16Z</time>
      </trkpt>
      <trkpt lat="44.520966270938516" lon="9.158757571130991">
        <ele>773.15999999999997</ele>
        <time>2019-05-22T15:57:20Z</time>
      </trkpt>
      <trkpt lat="44.52085412107408" lon="9.158782884478569">
        <ele>773.04999999999995</ele>
        <time>2019-05-22T15:57:30Z</time>
      </trkpt>
      <trkpt lat="44.520711796358228" lon="9.158750446513295">
        <ele>772.10000000000002</ele>
        <time>2019-05-22T15:57:43Z</time>
      </trkpt>
      <trkpt lat="44.520588079467416" lon="9.158784560859203">
        <ele>771.78999999999996</ele>
        <time>2019-05-22T15:57:55Z</time>
      </trkpt>
      <trkpt lat="44.520481210201979" lon="9.158812807872891">
        <ele>771.26999999999998</ele>
        <time>2019-05-22T15:58:11Z</time>
      </trkpt>
      <trkpt lat="44.520416250452399" lon="9.158806018531323">
        <ele>770.88</ele>
        <time>2019-05-22T15:58:23Z</time>
      </trkpt>
      <trkpt lat="44.520363863557577" lon="9.158795205876231">
        <ele>770.51999999999998</ele>
        <time>2019-05-22T15:58:37Z</time>
      </trkpt>
      <trkpt lat="44.520367383956909" lon="9.15875799022615">
        <ele>769.87</ele>
        <time>2019-05-22T15:58:55Z</time>
      </trkpt>
      <trkpt lat="44.520373838022351" lon="9.159055296331644">
        <ele>789.73000000000002</ele>
        <time>2019-05-23T06:06:30Z</time>
      </trkpt>
      <trkpt lat="44.520362857729197" lon="9.159076754003763">
        <ele>789.23000000000002</ele>
        <time>2019-05-23T06:06:52Z</time>
      </trkpt>
      <trkpt lat="44.520370066165924" lon="9.159076754003763">
        <ele>789.17999999999995</ele>
        <time>2019-05-23T06:07:05Z</time>
      </trkpt>
      <trkpt lat="44.52045732177794" lon="9.15899008512497">
        <ele>788.50999999999999</ele>
        <time>2019-05-23T06:07:19Z</time>
      </trkpt>
      <trkpt lat="44.520572405308485" lon="9.158917749300599">
        <ele>786.15999999999997</ele>
        <time>2019-05-23T06:07:34Z</time>
      </trkpt>
      <trkpt lat="44.520604591816664" lon="9.158918000757694">
        <ele>785.75</ele>
        <time>2019-05-23T06:07:37Z</time>
      </trkpt>
      <trkpt lat="44.520702324807644" lon="9.158936105668545">
        <ele>785.13999999999999</ele>
        <time>2019-05-23T06:07:44Z</time>
      </trkpt>
      <trkpt lat="44.520765943452716" lon="9.159048171713948">
        <ele>783.60000000000002</ele>
        <time>2019-05-23T06:07:55Z</time>
      </trkpt>
      <trkpt lat="44.520813385024667" lon="9.159158142283559">
        <ele>783.51999999999998</ele>
        <time>2019-05-23T06:08:02Z</time>
      </trkpt>
      <trkpt lat="44.520829729735851" lon="9.159224024042487">
        <ele>783.87</ele>
        <time>2019-05-23T06:08:07Z</time>
      </trkpt>
      <trkpt lat="44.520847164094448" lon="9.159352099522948">
        <ele>783.89999999999998</ele>
        <time>2019-05-23T06:08:14Z</time>
      </trkpt>
      <trkpt lat="44.520798632875085" lon="9.159543961286545">
        <ele>783.89999999999998</ele>
        <time>2019-05-23T06:08:27Z</time>
      </trkpt>
      <trkpt lat="44.520795028656721" lon="9.159556534141302">
        <ele>783.90999999999997</ele>
        <time>2019-05-23T06:08:28Z</time>
      </trkpt>
      <trkpt lat="44.520780863240361" lon="9.159606909379363">
        <ele>784.47000000000003</ele>
        <time>2019-05-23T06:08:33Z</time>
      </trkpt>
      <trkpt lat="44.520674999803305" lon="9.159775050356984">
        <ele>783.82000000000005</ele>
        <time>2019-05-23T06:08:46Z</time>
      </trkpt>
      <trkpt lat="44.52062051743269" lon="9.159883512184024">
        <ele>783.01999999999998</ele>
        <time>2019-05-23T06:08:57Z</time>
      </trkpt>
      <trkpt lat="44.520545080304146" lon="9.160048384219408">
        <ele>782.80999999999995</ele>
        <time>2019-05-23T06:09:11Z</time>
      </trkpt>
      <trkpt lat="44.520464949309826" lon="9.1602180339396">
        <ele>784.20000000000005</ele>
        <time>2019-05-23T06:09:24Z</time>
      </trkpt>
      <trkpt lat="44.520457154139876" lon="9.160398077219725">
        <ele>786.05999999999995</ele>
        <time>2019-05-23T06:09:34Z</time>
      </trkpt>
      <trkpt lat="44.520464530214667" lon="9.160572336986661">
        <ele>788.33000000000004</ele>
        <time>2019-05-23T06:09:44Z</time>
      </trkpt>
      <trkpt lat="44.520498896017671" lon="9.160606451332569">
        <ele>788.49000000000001</ele>
        <time>2019-05-23T06:09:49Z</time>
      </trkpt>
      <trkpt lat="44.520567795261741" lon="9.160696808248758">
        <ele>789.98000000000002</ele>
        <time>2019-05-23T06:09:56Z</time>
      </trkpt>
      <trkpt lat="44.520575003698468" lon="9.160740477964282">
        <ele>790.24000000000001</ele>
        <time>2019-05-23T06:09:59Z</time>
      </trkpt>
      <trkpt lat="44.520637113600969" lon="9.160844832658768">
        <ele>788.50999999999999</ele>
        <time>2019-05-23T06:10:09Z</time>
      </trkpt>
      <trkpt lat="44.520694361999631" lon="9.160922700539231">
        <ele>786.54999999999995</ele>
        <time>2019-05-23T06:10:16Z</time>
      </trkpt>
      <trkpt lat="44.520805841311812" lon="9.161008866503835">
        <ele>783.25</ele>
        <time>2019-05-23T06:10:28Z</time>
      </trkpt>
      <trkpt lat="44.520812295377254" lon="9.161012135446072">
        <ele>783.07000000000005</ele>
        <time>2019-05-23T06:10:29Z</time>
      </trkpt>
      <trkpt lat="44.520919919013977" lon="9.161101821810007">
        <ele>779.74000000000001</ele>
        <time>2019-05-23T06:10:42Z</time>
      </trkpt>
      <trkpt lat="44.52097431756556" lon="9.161231322214007">
        <ele>778.67999999999995</ele>
        <time>2019-05-23T06:10:51Z</time>
      </trkpt>
      <trkpt lat="44.521122258156538" lon="9.161325702443719">
        <ele>779.46000000000004</ele>
        <time>2019-05-23T06:11:04Z</time>
      </trkpt>
      <trkpt lat="44.521192833781242" lon="9.161386387422681">
        <ele>783.13</ele>
        <time>2019-05-23T06:11:09Z</time>
      </trkpt>
      <trkpt lat="44.521242119371891" lon="9.161433493718505">
        <ele>784.47000000000003</ele>
        <time>2019-05-23T06:11:16Z</time>
      </trkpt>
      <trkpt lat="44.521256452426314" lon="9.161653015762568">
        <ele>786.52999999999997</ele>
        <time>2019-05-23T06:11:30Z</time>
      </trkpt>
      <trkpt lat="44.521143883466721" lon="9.161762483417988">
        <ele>787.21000000000004</ele>
        <time>2019-05-23T06:11:41Z</time>
      </trkpt>
      <trkpt lat="44.521049754694104" lon="9.161780755966902">
        <ele>787.97000000000003</ele>
        <time>2019-05-23T06:11:50Z</time>
      </trkpt>
      <trkpt lat="44.521003486588597" lon="9.161789892241359">
        <ele>788.25999999999999</ele>
        <time>2019-05-23T06:11:54Z</time>
      </trkpt>
      <trkpt lat="44.520856970921159" lon="9.161852672696114">
        <ele>790.86000000000001</ele>
        <time>2019-05-23T06:12:08Z</time>
      </trkpt>
      <trkpt lat="44.520823610946536" lon="9.161909250542522">
        <ele>792.14999999999998</ele>
        <time>2019-05-23T06:12:17Z</time>
      </trkpt>
      <trkpt lat="44.520784635096788" lon="9.162131287157536">
        <ele>793.80999999999995</ele>
        <time>2019-05-23T06:12:33Z</time>
      </trkpt>
      <trkpt lat="44.520780611783266" lon="9.162341253831983">
        <ele>796.26999999999998</ele>
        <time>2019-05-23T06:12:47Z</time>
      </trkpt>
      <trkpt lat="44.520593695342541" lon="9.162441249936819">
        <ele>793.33000000000004</ele>
        <time>2019-05-23T06:13:05Z</time>
      </trkpt>
      <trkpt lat="44.520470565184951" lon="9.162390539422631">
        <ele>792.90999999999997</ele>
        <time>2019-05-23T06:13:16Z</time>
      </trkpt>
      <trkpt lat="44.520331174135208" lon="9.16228249669075">
        <ele>793.13</ele>
        <time>2019-05-23T06:13:30Z</time>
      </trkpt>
      <trkpt lat="44.520216677337885" lon="9.162199012935162">
        <ele>794.35000000000002</ele>
        <time>2019-05-23T06:13:42Z</time>
      </trkpt>
      <trkpt lat="44.520123470574617" lon="9.162119301036">
        <ele>793.70000000000005</ele>
        <time>2019-05-23T06:13:52Z</time>
      </trkpt>
      <trkpt lat="44.520025989040732" lon="9.162053167819977">
        <ele>793.55999999999995</ele>
        <time>2019-05-23T06:14:03Z</time>
      </trkpt>
      <trkpt lat="44.519886346533895" lon="9.162052748724818">
        <ele>793.80999999999995</ele>
        <time>2019-05-23T06:14:18Z</time>
      </trkpt>
      <trkpt lat="44.519740249961615" lon="9.162184093147516">
        <ele>796.27999999999997</ele>
        <time>2019-05-23T06:14:34Z</time>
      </trkpt>
      <trkpt lat="44.519664729014039" lon="9.162229103967547">
        <ele>796.54999999999995</ele>
        <time>2019-05-23T06:14:41Z</time>
      </trkpt>
      <trkpt lat="44.519543945789337" lon="9.162200102582574">
        <ele>795.73000000000002</ele>
        <time>2019-05-23T06:14:52Z</time>
      </trkpt>
      <trkpt lat="44.519438669085503" lon="9.162131203338504">
        <ele>795.88999999999999</ele>
        <time>2019-05-23T06:15:04Z</time>
      </trkpt>
      <trkpt lat="44.519349485635757" lon="9.16208703070879">
        <ele>796</ele>
        <time>2019-05-23T06:15:15Z</time>
      </trkpt>
      <trkpt lat="44.519318640232086" lon="9.16204210370779">
        <ele>796.16999999999996</ele>
        <time>2019-05-23T06:15:25Z</time>
      </trkpt>
      <trkpt lat="44.519309503957629" lon="9.16205232962966">
        <ele>796.49000000000001</ele>
        <time>2019-05-23T06:15:28Z</time>
      </trkpt>
      <trkpt lat="44.519200539216399" lon="9.162046881392598">
        <ele>796.39999999999998</ele>
        <time>2019-05-23T06:15:40Z</time>
      </trkpt>
      <trkpt lat="44.51912384480238" lon="9.162002541124821">
        <ele>796.51999999999998</ele>
        <time>2019-05-23T06:15:49Z</time>
      </trkpt>
      <trkpt lat="44.51902418397367" lon="9.16196146979928">
        <ele>798.07000000000005</ele>
        <time>2019-05-23T06:15:59Z</time>
      </trkpt>
      <trkpt lat="44.518981603905559" lon="9.161949818953872">
        <ele>798.87</ele>
        <time>2019-05-23T06:16:03Z</time>
      </trkpt>
      <trkpt lat="44.518879344686866" lon="9.16192970238626">
        <ele>799.00999999999999</ele>
        <time>2019-05-23T06:16:13Z</time>
      </trkpt>
      <trkpt lat="44.518737271428108" lon="9.161915620788932">
        <ele>798.94000000000005</ele>
        <time>2019-05-23T06:16:28Z</time>
      </trkpt>
      <trkpt lat="44.518576841801405" lon="9.16189013980329">
        <ele>801.67999999999995</ele>
        <time>2019-05-23T06:16:44Z</time>
      </trkpt>
      <trkpt lat="44.518474750220776" lon="9.161866502836347">
        <ele>803.92999999999995</ele>
        <time>2019-05-23T06:16:55Z</time>
      </trkpt>
      <trkpt lat="44.518361678346992" lon="9.161832639947534">
        <ele>804.13999999999999</ele>
        <time>2019-05-23T06:17:05Z</time>
      </trkpt>
      <trkpt lat="44.518219772726297" lon="9.161822414025664">
        <ele>804.07000000000005</ele>
        <time>2019-05-23T06:17:17Z</time>
      </trkpt>
      <trkpt lat="44.518034532666206" lon="9.161905227228999">
        <ele>804.94000000000005</ele>
        <time>2019-05-23T06:17:35Z</time>
      </trkpt>
      <trkpt lat="44.517923891544342" lon="9.162081498652697">
        <ele>804.58000000000004</ele>
        <time>2019-05-23T06:17:50Z</time>
      </trkpt>
      <trkpt lat="44.517848957329988" lon="9.162358939647675">
        <ele>805.39999999999998</ele>
        <time>2019-05-23T06:18:08Z</time>
      </trkpt>
      <trkpt lat="44.517795145511627" lon="9.162608552724123">
        <ele>805.29999999999995</ele>
        <time>2019-05-23T06:18:25Z</time>
      </trkpt>
      <trkpt lat="44.517827248200774" lon="9.162814412266016">
        <ele>806.01999999999998</ele>
        <time>2019-05-23T06:18:39Z</time>
      </trkpt>
      <trkpt lat="44.517876366153359" lon="9.162922957912087">
        <ele>806.09000000000003</ele>
        <time>2019-05-23T06:18:49Z</time>
      </trkpt>
      <trkpt lat="44.517979128286242" lon="9.163085650652647">
        <ele>808.28999999999996</ele>
        <time>2019-05-23T06:19:03Z</time>
      </trkpt>
      <trkpt lat="44.518054481595755" lon="9.163223616778851">
        <ele>809.61000000000001</ele>
        <time>2019-05-23T06:19:15Z</time>
      </trkpt>
      <trkpt lat="44.51808993704617" lon="9.163302071392536">
        <ele>809.55999999999995</ele>
        <time>2019-05-23T06:19:22Z</time>
      </trkpt>
      <trkpt lat="44.51810066588223" lon="9.163390081375837">
        <ele>809.53999999999996</ele>
        <time>2019-05-23T06:19:29Z</time>
      </trkpt>
      <trkpt lat="44.518052553758025" lon="9.163612285628915">
        <ele>812.60000000000002</ele>
        <time>2019-05-23T06:19:45Z</time>
      </trkpt>
      <trkpt lat="44.517957083880901" lon="9.163778917863965">
        <ele>814.80999999999995</ele>
        <time>2019-05-23T06:20:00Z</time>
      </trkpt>
      <trkpt lat="44.517910899594426" lon="9.163996931165457">
        <ele>815.57000000000005</ele>
        <time>2019-05-23T06:20:15Z</time>
      </trkpt>
      <trkpt lat="44.51792674139142" lon="9.16415199637413">
        <ele>816.16999999999996</ele>
        <time>2019-05-23T06:20:26Z</time>
      </trkpt>
      <trkpt lat="44.51794970780611" lon="9.164308570325375">
        <ele>816.47000000000003</ele>
        <time>2019-05-23T06:20:37Z</time>
      </trkpt>
      <trkpt lat="44.517965717241168" lon="9.164495402947068">
        <ele>814.89999999999998</ele>
        <time>2019-05-23T06:20:50Z</time>
      </trkpt>
      <trkpt lat="44.517983067780733" lon="9.164670081809163">
        <ele>817</ele>
        <time>2019-05-23T06:21:02Z</time>
      </trkpt>
      <trkpt lat="44.517981642857194" lon="9.164762534201145">
        <ele>817.71000000000004</ele>
        <time>2019-05-23T06:21:08Z</time>
      </trkpt>
      <trkpt lat="44.517968818545341" lon="9.164896057918668">
        <ele>818.30999999999995</ele>
        <time>2019-05-23T06:21:18Z</time>
      </trkpt>
      <trkpt lat="44.517838731408119" lon="9.164979374036193">
        <ele>819.60000000000002</ele>
        <time>2019-05-23T06:21:32Z</time>
      </trkpt>
      <trkpt lat="44.517818279564381" lon="9.164978284388781">
        <ele>820.38</ele>
        <time>2019-05-23T06:21:34Z</time>
      </trkpt>
      <trkpt lat="44.517726246267557" lon="9.164926568046212">
        <ele>823.55999999999995</ele>
        <time>2019-05-23T06:21:42Z</time>
      </trkpt>
      <trkpt lat="44.517619125545025" lon="9.164825649932027">
        <ele>825.33000000000004</ele>
        <time>2019-05-23T06:21:54Z</time>
      </trkpt>
      <trkpt lat="44.517493648454547" lon="9.164720959961414">
        <ele>825.85000000000002</ele>
        <time>2019-05-23T06:22:07Z</time>
      </trkpt>
      <trkpt lat="44.517384264618158" lon="9.164671674370766">
        <ele>826.10000000000002</ele>
        <time>2019-05-23T06:22:18Z</time>
      </trkpt>
      <trkpt lat="44.517377894371748" lon="9.164671422913671">
        <ele>826.10000000000002</ele>
        <time>2019-05-23T06:22:19Z</time>
      </trkpt>
      <trkpt lat="44.51721478253603" lon="9.164726994931698">
        <ele>825.51999999999998</ele>
        <time>2019-05-23T06:22:33Z</time>
      </trkpt>
      <trkpt lat="44.517081510275602" lon="9.164904272183776">
        <ele>826.64999999999998</ele>
        <time>2019-05-23T06:22:49Z</time>
      </trkpt>
      <trkpt lat="44.516961146146059" lon="9.165096888318658">
        <ele>826.47000000000003</ele>
        <time>2019-05-23T06:23:06Z</time>
      </trkpt>
      <trkpt lat="44.516856875270605" lon="9.1652812063694">
        <ele>827.54999999999995</ele>
        <time>2019-05-23T06:23:21Z</time>
      </trkpt>
      <trkpt lat="44.516804236918688" lon="9.165375586599112">
        <ele>828.63999999999999</ele>
        <time>2019-05-23T06:23:33Z</time>
      </trkpt>
      <trkpt lat="44.516728045418859" lon="9.165516318753362">
        <ele>829.20000000000005</ele>
        <time>2019-05-23T06:23:45Z</time>
      </trkpt>
      <trkpt lat="44.516660403460264" lon="9.165722681209445">
        <ele>830.38</ele>
        <time>2019-05-23T06:23:59Z</time>
      </trkpt>
      <trkpt lat="44.516589073464274" lon="9.165996098890901">
        <ele>831.87</ele>
        <time>2019-05-23T06:24:18Z</time>
      </trkpt>
      <trkpt lat="44.516533920541406" lon="9.166213441640139">
        <ele>833</ele>
        <time>2019-05-23T06:24:33Z</time>
      </trkpt>
      <trkpt lat="44.516485556960106" lon="9.166434975340962">
        <ele>834.30999999999995</ele>
        <time>2019-05-23T06:24:48Z</time>
      </trkpt>
      <trkpt lat="44.516389081254601" lon="9.166698418557644">
        <ele>836.37</ele>
        <time>2019-05-23T06:25:07Z</time>
      </trkpt>
      <trkpt lat="44.516171487048268" lon="9.166750302538276">
        <ele>835.97000000000003</ele>
        <time>2019-05-23T06:25:25Z</time>
      </trkpt>
      <trkpt lat="44.515980966389179" lon="9.166689533740282">
        <ele>835.10000000000002</ele>
        <time>2019-05-23T06:25:41Z</time>
      </trkpt>
      <trkpt lat="44.515787679702044" lon="9.166639074683189">
        <ele>834.90999999999997</ele>
        <time>2019-05-23T06:25:58Z</time>
      </trkpt>
      <trkpt lat="44.515635799616575" lon="9.166594399139285">
        <ele>834.86000000000001</ele>
        <time>2019-05-23T06:26:13Z</time>
      </trkpt>
      <trkpt lat="44.51553001999855" lon="9.166566990315914">
        <ele>834.13999999999999</ele>
        <time>2019-05-23T06:26:24Z</time>
      </trkpt>
      <trkpt lat="44.515349138528109" lon="9.16660487651825">
        <ele>835.74000000000001</ele>
        <time>2019-05-23T06:26:40Z</time>
      </trkpt>
      <trkpt lat="44.515264313668013" lon="9.166709231212735">
        <ele>836.65999999999997</ele>
        <time>2019-05-23T06:26:52Z</time>
      </trkpt>
      <trkpt lat="44.515251656994224" lon="9.166730185970664">
        <ele>836.63999999999999</ele>
        <time>2019-05-23T06:26:54Z</time>
      </trkpt>
      <trkpt lat="44.51511955820024" lon="9.166806628927589">
        <ele>836.64999999999998</ele>
        <time>2019-05-23T06:27:08Z</time>
      </trkpt>
      <trkpt lat="44.514987962320447" lon="9.166874270886183">
        <ele>837.65999999999997</ele>
        <time>2019-05-23T06:27:19Z</time>
      </trkpt>
      <trkpt lat="44.514978742226958" lon="9.166880892589688">
        <ele>837.75999999999999</ele>
        <time>2019-05-23T06:27:20Z</time>
      </trkpt>
      <trkpt lat="44.514960637316108" lon="9.166901679709554">
        <ele>838.61000000000001</ele>
        <time>2019-05-23T06:27:22Z</time>
      </trkpt>
      <trkpt lat="44.514853851869702" lon="9.167012237012386">
        <ele>840.42999999999995</ele>
        <time>2019-05-23T06:27:34Z</time>
      </trkpt>
      <trkpt lat="44.514711778610945" lon="9.167121453210712">
        <ele>841.02999999999997</ele>
        <time>2019-05-23T06:27:49Z</time>
      </trkpt>
      <trkpt lat="44.51459719799459" lon="9.167193621397018">
        <ele>839.35000000000002</ele>
        <time>2019-05-23T06:28:00Z</time>
      </trkpt>
      <trkpt lat="44.514449508860707" lon="9.167241230607033">
        <ele>838.44000000000005</ele>
        <time>2019-05-23T06:28:13Z</time>
      </trkpt>
      <trkpt lat="44.514285139739513" lon="9.1672049369663">
        <ele>838.26999999999998</ele>
        <time>2019-05-23T06:28:28Z</time>
      </trkpt>
      <trkpt lat="44.514118591323495" lon="9.167125392705202">
        <ele>840.62</ele>
        <time>2019-05-23T06:28:42Z</time>
      </trkpt>
      <trkpt lat="44.514001328498125" lon="9.167097564786673">
        <ele>843.88999999999999</ele>
        <time>2019-05-23T06:28:52Z</time>
      </trkpt>
      <trkpt lat="44.513883143663406" lon="9.167139306664467">
        <ele>844.35000000000002</ele>
        <time>2019-05-23T06:29:03Z</time>
      </trkpt>
      <trkpt lat="44.513776693493128" lon="9.167262520641089">
        <ele>843.41999999999996</ele>
        <time>2019-05-23T06:29:18Z</time>
      </trkpt>
      <trkpt lat="44.51375431381166" lon="9.167297808453441">
        <ele>842.88</ele>
        <time>2019-05-23T06:29:21Z</time>
      </trkpt>
      <trkpt lat="44.51365364715457" lon="9.167485311627388">
        <ele>840</ele>
        <time>2019-05-23T06:29:37Z</time>
      </trkpt>
      <trkpt lat="44.513218542560935" lon="9.169237213209271">
        <ele>858.5</ele>
        <time>2019-05-23T06:31:19Z</time>
      </trkpt>
      <trkpt lat="44.513159617781639" lon="9.169173762202263">
        <ele>857.86000000000001</ele>
        <time>2019-05-23T06:31:50Z</time>
      </trkpt>
      <trkpt lat="44.513115361332893" lon="9.169113747775555">
        <ele>859.19000000000005</ele>
        <time>2019-05-23T06:32:05Z</time>
      </trkpt>
      <trkpt lat="44.513096837326884" lon="9.169074352830648">
        <ele>859.26999999999998</ele>
        <time>2019-05-23T06:32:15Z</time>
      </trkpt>
      <trkpt lat="44.513088036328554" lon="9.169058930128813">
        <ele>859.89999999999998</ele>
        <time>2019-05-23T06:33:34Z</time>
      </trkpt>
      <trkpt lat="44.513044953346252" lon="9.168987683951855">
        <ele>860.08000000000004</ele>
        <time>2019-05-23T06:33:50Z</time>
      </trkpt>
      <trkpt lat="44.512988710775971" lon="9.168911827728152">
        <ele>861.24000000000001</ele>
        <time>2019-05-23T06:34:04Z</time>
      </trkpt>
      <trkpt lat="44.512906149029732" lon="9.168839910998941">
        <ele>862.28999999999996</ele>
        <time>2019-05-23T06:34:18Z</time>
      </trkpt>
      <trkpt lat="44.512839009985328" lon="9.168760534375906">
        <ele>863.36000000000001</ele>
        <time>2019-05-23T06:34:32Z</time>
      </trkpt>
      <trkpt lat="44.512786874547601" lon="9.168659364804626">
        <ele>866.58000000000004</ele>
        <time>2019-05-23T06:34:45Z</time>
      </trkpt>
      <trkpt lat="44.512738091871142" lon="9.168546460568905">
        <ele>868.86000000000001</ele>
        <time>2019-05-23T06:34:59Z</time>
      </trkpt>
      <trkpt lat="44.512686124071479" lon="9.168408745899797">
        <ele>869.90999999999997</ele>
        <time>2019-05-23T06:35:14Z</time>
      </trkpt>
      <trkpt lat="44.512616973370314" lon="9.168274467810988">
        <ele>871.28999999999996</ele>
        <time>2019-05-23T06:35:30Z</time>
      </trkpt>
      <trkpt lat="44.512563496828079" lon="9.168166844174266">
        <ele>871.58000000000004</ele>
        <time>2019-05-23T06:35:43Z</time>
      </trkpt>
      <trkpt lat="44.512502811849117" lon="9.168052012100816">
        <ele>872.21000000000004</ele>
        <time>2019-05-23T06:35:59Z</time>
      </trkpt>
      <trkpt lat="44.512456962838769" lon="9.167948495596647">
        <ele>872.60000000000002</ele>
        <time>2019-05-23T06:36:14Z</time>
      </trkpt>
      <trkpt lat="44.512385297566652" lon="9.167784377932549">
        <ele>874.08000000000004</ele>
        <time>2019-05-23T06:36:31Z</time>
      </trkpt>
      <trkpt lat="44.512361073866487" lon="9.167684633284807">
        <ele>874.60000000000002</ele>
        <time>2019-05-23T06:36:45Z</time>
      </trkpt>
      <trkpt lat="44.51230944134295" lon="9.167598215863109">
        <ele>876.01999999999998</ele>
        <time>2019-05-23T06:36:56Z</time>
      </trkpt>
      <trkpt lat="44.512281948700547" lon="9.167610285803676">
        <ele>877.27999999999997</ele>
        <time>2019-05-23T06:37:12Z</time>
      </trkpt>
      <trkpt lat="44.512221096083522" lon="9.167712545022368">
        <ele>878.08000000000004</ele>
        <time>2019-05-23T06:37:23Z</time>
      </trkpt>
      <trkpt lat="44.512133672833443" lon="9.167794268578291">
        <ele>878.29999999999995</ele>
        <time>2019-05-23T06:37:36Z</time>
      </trkpt>
      <trkpt lat="44.512120177969337" lon="9.167809356004">
        <ele>878.70000000000005</ele>
        <time>2019-05-23T06:37:40Z</time>
      </trkpt>
      <trkpt lat="44.512014649808407" lon="9.167896611616015">
        <ele>878.53999999999996</ele>
        <time>2019-05-23T06:37:55Z</time>
      </trkpt>
      <trkpt lat="44.511943068355322" lon="9.167993338778615">
        <ele>877.34000000000003</ele>
        <time>2019-05-23T06:38:10Z</time>
      </trkpt>
      <trkpt lat="44.511842569336295" lon="9.168152930215001">
        <ele>878.65999999999997</ele>
        <time>2019-05-23T06:38:26Z</time>
      </trkpt>
      <trkpt lat="44.511745423078537" lon="9.168266756460071">
        <ele>879.59000000000003</ele>
        <time>2019-05-23T06:38:40Z</time>
      </trkpt>
      <trkpt lat="44.511662861332297" lon="9.168381169438362">
        <ele>882.19000000000005</ele>
        <time>2019-05-23T06:38:54Z</time>
      </trkpt>
      <trkpt lat="44.511644253507257" lon="9.168453253805637">
        <ele>884.65999999999997</ele>
        <time>2019-05-23T06:39:00Z</time>
      </trkpt>
      <trkpt lat="44.51160385273397" lon="9.168589627370238">
        <ele>886.35000000000002</ele>
        <time>2019-05-23T06:39:15Z</time>
      </trkpt>
      <trkpt lat="44.511625478044152" lon="9.168775957077742">
        <ele>888.76999999999998</ele>
        <time>2019-05-23T06:39:31Z</time>
      </trkpt>
      <trkpt lat="44.511638386175036" lon="9.168899087235332">
        <ele>892.12</ele>
        <time>2019-05-23T06:39:40Z</time>
      </trkpt>
      <trkpt lat="44.511632267385721" lon="9.16907150298357">
        <ele>894.17999999999995</ele>
        <time>2019-05-23T06:39:55Z</time>
      </trkpt>
      <trkpt lat="44.511628579348326" lon="9.169083992019296">
        <ele>894.30999999999995</ele>
        <time>2019-05-23T06:39:56Z</time>
      </trkpt>
      <trkpt lat="44.511561607941985" lon="9.169206535443664">
        <ele>894.54999999999995</ele>
        <time>2019-05-23T06:40:08Z</time>
      </trkpt>
      <trkpt lat="44.511479465290904" lon="9.169337879866362">
        <ele>894.90999999999997</ele>
        <time>2019-05-23T06:40:22Z</time>
      </trkpt>
      <trkpt lat="44.511396149173379" lon="9.169414071366191">
        <ele>891.64999999999998</ele>
        <time>2019-05-23T06:40:33Z</time>
      </trkpt>
      <trkpt lat="44.511329429224133" lon="9.169462183490396">
        <ele>888.47000000000003</ele>
        <time>2019-05-23T06:40:41Z</time>
      </trkpt>
      <trkpt lat="44.511228678748012" lon="9.169569471850991">
        <ele>885.52999999999997</ele>
        <time>2019-05-23T06:40:54Z</time>
      </trkpt>
      <trkpt lat="44.511156342923641" lon="9.169694446027279">
        <ele>884.11000000000001</ele>
        <time>2019-05-23T06:41:07Z</time>
      </trkpt>
      <trkpt lat="44.511111415922642" lon="9.16978731751442">
        <ele>884.73000000000002</ele>
        <time>2019-05-23T06:41:14Z</time>
      </trkpt>
      <trkpt lat="44.511071098968387" lon="9.169968450441957">
        <ele>883.88</ele>
        <time>2019-05-23T06:41:27Z</time>
      </trkpt>
      <trkpt lat="44.511047629639506" lon="9.170122258365154">
        <ele>881.91999999999996</ele>
        <time>2019-05-23T06:41:38Z</time>
      </trkpt>
      <trkpt lat="44.511036816984415" lon="9.170295931398869">
        <ele>883.53999999999996</ele>
        <time>2019-05-23T06:41:50Z</time>
      </trkpt>
      <trkpt lat="44.51103312894702" lon="9.17042450979352">
        <ele>886.91999999999996</ele>
        <time>2019-05-23T06:41:57Z</time>
      </trkpt>
      <trkpt lat="44.511037319898605" lon="9.170493660494685">
        <ele>889.38999999999999</ele>
        <time>2019-05-23T06:42:01Z</time>
      </trkpt>
      <trkpt lat="44.511033380404115" lon="9.170621065422893">
        <ele>892.52999999999997</ele>
        <time>2019-05-23T06:42:08Z</time>
      </trkpt>
      <trkpt lat="44.511025585234165" lon="9.170692898333073">
        <ele>894.29999999999995</ele>
        <time>2019-05-23T06:42:12Z</time>
      </trkpt>
      <trkpt lat="44.511003205552697" lon="9.170844778418541">
        <ele>897.87</ele>
        <time>2019-05-23T06:42:22Z</time>
      </trkpt>
      <trkpt lat="44.510980322957039" lon="9.170929351821542">
        <ele>901.5</ele>
        <time>2019-05-23T06:42:28Z</time>
      </trkpt>
      <trkpt lat="44.510977473109961" lon="9.170942176133394">
        <ele>901.78999999999996</ele>
        <time>2019-05-23T06:42:29Z</time>
      </trkpt>
      <trkpt lat="44.510906143113971" lon="9.171139989048243">
        <ele>904.83000000000004</ele>
        <time>2019-05-23T06:42:43Z</time>
      </trkpt>
      <trkpt lat="44.510837160050869" lon="9.171347776427865">
        <ele>907.94000000000005</ele>
        <time>2019-05-23T06:42:57Z</time>
      </trkpt>
      <trkpt lat="44.510821150615811" lon="9.171391362324357">
        <ele>908.13</ele>
        <time>2019-05-23T06:43:00Z</time>
      </trkpt>
      <trkpt lat="44.510715790092945" lon="9.171570902690291">
        <ele>907.59000000000003</ele>
        <time>2019-05-23T06:43:14Z</time>
      </trkpt>
      <trkpt lat="44.510560473427176" lon="9.171643909066916">
        <ele>906.75</ele>
        <time>2019-05-23T06:43:28Z</time>
      </trkpt>
      <trkpt lat="44.510364169254899" lon="9.171592863276601">
        <ele>906.52999999999997</ele>
        <time>2019-05-23T06:43:45Z</time>
      </trkpt>
      <trkpt lat="44.510260066017509" lon="9.171551624312997">
        <ele>906.01999999999998</ele>
        <time>2019-05-23T06:43:56Z</time>
      </trkpt>
      <trkpt lat="44.510152945294976" lon="9.171497812494636">
        <ele>907.99000000000001</ele>
        <time>2019-05-23T06:44:07Z</time>
      </trkpt>
      <trkpt lat="44.510005004703999" lon="9.171451292932034">
        <ele>907.39999999999998</ele>
        <time>2019-05-23T06:44:19Z</time>
      </trkpt>
      <trkpt lat="44.509879443794489" lon="9.171445090323687">
        <ele>906.37</ele>
        <time>2019-05-23T06:44:31Z</time>
      </trkpt>
      <trkpt lat="44.509817585349083" lon="9.171419441699982">
        <ele>905.58000000000004</ele>
        <time>2019-05-23T06:44:38Z</time>
      </trkpt>
      <trkpt lat="44.509687749668956" lon="9.171399241313338">
        <ele>904.58000000000004</ele>
        <time>2019-05-23T06:44:51Z</time>
      </trkpt>
      <trkpt lat="44.50952866114676" lon="9.171380382031202">
        <ele>904.47000000000003</ele>
        <time>2019-05-23T06:45:06Z</time>
      </trkpt>
      <trkpt lat="44.509408213198185" lon="9.171412233263254">
        <ele>904.94000000000005</ele>
        <time>2019-05-23T06:45:18Z</time>
      </trkpt>
      <trkpt lat="44.509269241243601" lon="9.171464117243886">
        <ele>907.85000000000002</ele>
        <time>2019-05-23T06:45:31Z</time>
      </trkpt>
      <trkpt lat="44.509203359484673" lon="9.171485658735037">
        <ele>911.13</ele>
        <time>2019-05-23T06:45:40Z</time>
      </trkpt>
      <trkpt lat="44.50913093984127" lon="9.171506362035871">
        <ele>914.57000000000005</ele>
        <time>2019-05-23T06:45:49Z</time>
      </trkpt>
      <trkpt lat="44.509054329246283" lon="9.171527987346053">
        <ele>917.89999999999998</ele>
        <time>2019-05-23T06:45:58Z</time>
      </trkpt>
      <trkpt lat="44.508995153009892" lon="9.171552797779441">
        <ele>921.03999999999996</ele>
        <time>2019-05-23T06:46:06Z</time>
      </trkpt>
      <trkpt lat="44.508919715881348" lon="9.171599233523011">
        <ele>924.29999999999995</ele>
        <time>2019-05-23T06:46:16Z</time>
      </trkpt>
      <trkpt lat="44.508850397542119" lon="9.171616416424513">
        <ele>927.35000000000002</ele>
        <time>2019-05-23T06:46:26Z</time>
      </trkpt>
      <trkpt lat="44.508759370073676" lon="9.171632174402475">
        <ele>930.26999999999998</ele>
        <time>2019-05-23T06:46:38Z</time>
      </trkpt>
      <trkpt lat="44.508659122511744" lon="9.171646255999804">
        <ele>933.25999999999999</ele>
        <time>2019-05-23T06:46:52Z</time>
      </trkpt>
      <trkpt lat="44.508561640977859" lon="9.171685483306646">
        <ele>936.40999999999997</ele>
        <time>2019-05-23T06:47:06Z</time>
      </trkpt>
      <trkpt lat="44.508478911593556" lon="9.171725213527679">
        <ele>939.47000000000003</ele>
        <time>2019-05-23T06:47:19Z</time>
      </trkpt>
      <trkpt lat="44.508348656818271" lon="9.171776175498962">
        <ele>940.16999999999996</ele>
        <time>2019-05-23T06:47:35Z</time>
      </trkpt>
      <trkpt lat="44.508226029574871" lon="9.171844152733684">
        <ele>943.38999999999999</ele>
        <time>2019-05-23T06:47:47Z</time>
      </trkpt>
      <trkpt lat="44.508096110075712" lon="9.171888828277588">
        <ele>945.36000000000001</ele>
        <time>2019-05-23T06:48:00Z</time>
      </trkpt>
      <trkpt lat="44.507970800623298" lon="9.171944484114647">
        <ele>947.32000000000005</ele>
        <time>2019-05-23T06:48:13Z</time>
      </trkpt>
      <trkpt lat="44.507850268855691" lon="9.172035260125995">
        <ele>948.40999999999997</ele>
        <time>2019-05-23T06:48:27Z</time>
      </trkpt>
      <trkpt lat="44.507737532258034" lon="9.172085216268897">
        <ele>947.89999999999998</ele>
        <time>2019-05-23T06:48:40Z</time>
      </trkpt>
      <trkpt lat="44.507621107622981" lon="9.172178590670228">
        <ele>947.52999999999997</ele>
        <time>2019-05-23T06:48:53Z</time>
      </trkpt>
      <trkpt lat="44.507526475936174" lon="9.172254363074899">
        <ele>946.73000000000002</ele>
        <time>2019-05-23T06:49:04Z</time>
      </trkpt>
      <trkpt lat="44.50749546289444" lon="9.172280849888921">
        <ele>946.84000000000003</ele>
        <time>2019-05-23T06:49:08Z</time>
      </trkpt>
      <trkpt lat="44.507374428212643" lon="9.172342708334327">
        <ele>946.90999999999997</ele>
        <time>2019-05-23T06:49:20Z</time>
      </trkpt>
      <trkpt lat="44.507207125425339" lon="9.172370955348015">
        <ele>947.72000000000003</ele>
        <time>2019-05-23T06:49:36Z</time>
      </trkpt>
      <trkpt lat="44.507070751860738" lon="9.17235360480845">
        <ele>947.44000000000005</ele>
        <time>2019-05-23T06:49:49Z</time>
      </trkpt>
      <trkpt lat="44.506938401609659" lon="9.172341115772724">
        <ele>946.47000000000003</ele>
        <time>2019-05-23T06:50:01Z</time>
      </trkpt>
      <trkpt lat="44.506773697212338" lon="9.172332985326648">
        <ele>946.94000000000005</ele>
        <time>2019-05-23T06:50:14Z</time>
      </trkpt>
      <trkpt lat="44.506629193201661" lon="9.172314880415797">
        <ele>948.33000000000004</ele>
        <time>2019-05-23T06:50:27Z</time>
      </trkpt>
      <trkpt lat="44.506540177389979" lon="9.172268947586417">
        <ele>946.78999999999996</ele>
        <time>2019-05-23T06:50:38Z</time>
      </trkpt>
      <trkpt lat="44.506526431068778" lon="9.172245562076569">
        <ele>946.83000000000004</ele>
        <time>2019-05-23T06:50:40Z</time>
      </trkpt>
      <trkpt lat="44.506477983668447" lon="9.172128718346357">
        <ele>945.62</ele>
        <time>2019-05-23T06:50:50Z</time>
      </trkpt>
      <trkpt lat="44.506402797996998" lon="9.172001481056213">
        <ele>944.07000000000005</ele>
        <time>2019-05-23T06:51:02Z</time>
      </trkpt>
      <trkpt lat="44.506313363090158" lon="9.171842560172081">
        <ele>942.38999999999999</ele>
        <time>2019-05-23T06:51:17Z</time>
      </trkpt>
      <trkpt lat="44.506180929020047" lon="9.171778690069914">
        <ele>941.28999999999996</ele>
        <time>2019-05-23T06:51:31Z</time>
      </trkpt>
      <trkpt lat="44.506055787205696" lon="9.171679029241204">
        <ele>942.23000000000002</ele>
        <time>2019-05-23T06:51:47Z</time>
      </trkpt>
      <trkpt lat="44.505999963730574" lon="9.171638041734695">
        <ele>942.69000000000005</ele>
        <time>2019-05-23T06:51:52Z</time>
      </trkpt>
      <trkpt lat="44.505848167464137" lon="9.171569477766752">
        <ele>944.96000000000004</ele>
        <time>2019-05-23T06:52:06Z</time>
      </trkpt>
      <trkpt lat="44.505828050896525" lon="9.171554893255234">
        <ele>945.37</ele>
        <time>2019-05-23T06:52:08Z</time>
      </trkpt>
      <trkpt lat="44.50571053661406" lon="9.171530585736036">
        <ele>946.66999999999996</ele>
        <time>2019-05-23T06:52:21Z</time>
      </trkpt>
      <trkpt lat="44.505646163597703" lon="9.171499321237207">
        <ele>947.25999999999999</ele>
        <time>2019-05-23T06:52:28Z</time>
      </trkpt>
      <trkpt lat="44.50561280362308" lon="9.171479204669595">
        <ele>947.72000000000003</ele>
        <time>2019-05-23T06:52:31Z</time>
      </trkpt>
      <trkpt lat="44.505489505827427" lon="9.171415586024523">
        <ele>948.40999999999997</ele>
        <time>2019-05-23T06:52:42Z</time>
      </trkpt>
      <trkpt lat="44.505384983494878" lon="9.171303352341056">
        <ele>948.01999999999998</ele>
        <time>2019-05-23T06:52:55Z</time>
      </trkpt>
      <trkpt lat="44.505302421748638" lon="9.171225400641561">
        <ele>947.90999999999997</ele>
        <time>2019-05-23T06:53:05Z</time>
      </trkpt>
      <trkpt lat="44.505207873880863" lon="9.17113495990634">
        <ele>946.20000000000005</ele>
        <time>2019-05-23T06:53:17Z</time>
      </trkpt>
      <trkpt lat="44.505116678774357" lon="9.171029767021537">
        <ele>946.00999999999999</ele>
        <time>2019-05-23T06:53:28Z</time>
      </trkpt>
      <trkpt lat="44.505006456747651" lon="9.170900769531727">
        <ele>944.77999999999997</ele>
        <time>2019-05-23T06:53:39Z</time>
      </trkpt>
      <trkpt lat="44.504848374053836" lon="9.170807981863618">
        <ele>945.25</ele>
        <time>2019-05-23T06:53:51Z</time>
      </trkpt>
      <trkpt lat="44.504796741530299" lon="9.170803958550096">
        <ele>947.22000000000003</ele>
        <time>2019-05-23T06:53:55Z</time>
      </trkpt>
      <trkpt lat="44.504665648564696" lon="9.17080513201654">
        <ele>950.33000000000004</ele>
        <time>2019-05-23T06:54:03Z</time>
      </trkpt>
      <trkpt lat="44.504560623317957" lon="9.170802952721715">
        <ele>952.73000000000002</ele>
        <time>2019-05-23T06:54:13Z</time>
      </trkpt>
      <trkpt lat="44.504450149834156" lon="9.170738495886326">
        <ele>955.63</ele>
        <time>2019-05-23T06:54:27Z</time>
      </trkpt>
      <trkpt lat="44.504398433491588" lon="9.170671524479985">
        <ele>955.91999999999996</ele>
        <time>2019-05-23T06:54:34Z</time>
      </trkpt>
      <trkpt lat="44.504294162616134" lon="9.170582760125399">
        <ele>954.84000000000003</ele>
        <time>2019-05-23T06:54:46Z</time>
      </trkpt>
      <trkpt lat="44.504219312220812" lon="9.170499444007874">
        <ele>954.24000000000001</ele>
        <time>2019-05-23T06:54:55Z</time>
      </trkpt>
      <trkpt lat="44.504093499854207" lon="9.170363573357463">
        <ele>955.05999999999995</ele>
        <time>2019-05-23T06:55:09Z</time>
      </trkpt>
      <trkpt lat="44.503990318626165" lon="9.170218734070659">
        <ele>956.75</ele>
        <time>2019-05-23T06:55:23Z</time>
      </trkpt>
      <trkpt lat="44.50397883541882" lon="9.170209262520075">
        <ele>956.92999999999995</ele>
        <time>2019-05-23T06:55:24Z</time>
      </trkpt>
      <trkpt lat="44.503951678052545" lon="9.17017581872642">
        <ele>957.37</ele>
        <time>2019-05-23T06:55:27Z</time>
      </trkpt>
      <trkpt lat="44.503858471289277" lon="9.170127203688026">
        <ele>960.45000000000005</ele>
        <time>2019-05-23T06:55:37Z</time>
      </trkpt>
      <trkpt lat="44.503767443820834" lon="9.170042295008898">
        <ele>962.38</ele>
        <time>2019-05-23T06:55:49Z</time>
      </trkpt>
      <trkpt lat="44.503629896789789" lon="9.169938275590539">
        <ele>964.63999999999999</ele>
        <time>2019-05-23T06:56:03Z</time>
      </trkpt>
      <trkpt lat="44.5035361032933" lon="9.169828556478024">
        <ele>966.05999999999995</ele>
        <time>2019-05-23T06:56:14Z</time>
      </trkpt>
      <trkpt lat="44.503429234027863" lon="9.169678185135126">
        <ele>967.83000000000004</ele>
        <time>2019-05-23T06:56:27Z</time>
      </trkpt>
      <trkpt lat="44.503334267064929" lon="9.169568298384547">
        <ele>969.05999999999995</ele>
        <time>2019-05-23T06:56:38Z</time>
      </trkpt>
      <trkpt lat="44.503286574035883" lon="9.16947215795517">
        <ele>968.26999999999998</ele>
        <time>2019-05-23T06:56:47Z</time>
      </trkpt>
      <trkpt lat="44.503202671185136" lon="9.169367300346494">
        <ele>969.67999999999995</ele>
        <time>2019-05-23T06:56:58Z</time>
      </trkpt>
      <trkpt lat="44.503086246550083" lon="9.169224640354514">
        <ele>971.74000000000001</ele>
        <time>2019-05-23T06:57:12Z</time>
      </trkpt>
      <trkpt lat="44.503022795543075" lon="9.169075274839997">
        <ele>973.01999999999998</ele>
        <time>2019-05-23T06:57:24Z</time>
      </trkpt>
      <trkpt lat="44.50294584967196" lon="9.168934291228652">
        <ele>973.76999999999998</ele>
        <time>2019-05-23T06:57:36Z</time>
      </trkpt>
      <trkpt lat="44.502898156642914" lon="9.168788613751531">
        <ele>972.30999999999995</ele>
        <time>2019-05-23T06:57:47Z</time>
      </trkpt>
      <trkpt lat="44.502820959314704" lon="9.168633297085762">
        <ele>971.97000000000003</ele>
        <time>2019-05-23T06:57:59Z</time>
      </trkpt>
      <trkpt lat="44.50274795293808" lon="9.168502371758223">
        <ele>973.50999999999999</ele>
        <time>2019-05-23T06:58:10Z</time>
      </trkpt>
      <trkpt lat="44.502702774479985" lon="9.168417379260063">
        <ele>973.74000000000001</ele>
        <time>2019-05-23T06:58:18Z</time>
      </trkpt>
      <trkpt lat="44.502643933519721" lon="9.168291231617332">
        <ele>972.86000000000001</ele>
        <time>2019-05-23T06:58:30Z</time>
      </trkpt>
      <trkpt lat="44.502601940184832" lon="9.168215375393629">
        <ele>972.41999999999996</ele>
        <time>2019-05-23T06:58:37Z</time>
      </trkpt>
      <trkpt lat="44.502533040940762" lon="9.168083444237709">
        <ele>972.60000000000002</ele>
        <time>2019-05-23T06:58:49Z</time>
      </trkpt>
      <trkpt lat="44.502465818077326" lon="9.167906418442726">
        <ele>971.00999999999999</ele>
        <time>2019-05-23T06:59:03Z</time>
      </trkpt>
      <trkpt lat="44.502413515001535" lon="9.16776685975492">
        <ele>969.74000000000001</ele>
        <time>2019-05-23T06:59:14Z</time>
      </trkpt>
      <trkpt lat="44.502398511394858" lon="9.167660493403673">
        <ele>970.25999999999999</ele>
        <time>2019-05-23T06:59:25Z</time>
      </trkpt>
      <trkpt lat="44.502392979338765" lon="9.167633084580302">
        <ele>970.38</ele>
        <time>2019-05-23T06:59:27Z</time>
      </trkpt>
      <trkpt lat="44.5022979285568" lon="9.167464273050427">
        <ele>969.57000000000005</ele>
        <time>2019-05-23T06:59:39Z</time>
      </trkpt>
      <trkpt lat="44.502222072333097" lon="9.167301328852773">
        <ele>967.39999999999998</ele>
        <time>2019-05-23T06:59:51Z</time>
      </trkpt>
      <trkpt lat="44.502194495871663" lon="9.167236033827066">
        <ele>966.39999999999998</ele>
        <time>2019-05-23T06:59:55Z</time>
      </trkpt>
      <trkpt lat="44.502129787579179" lon="9.167102007195354">
        <ele>963.74000000000001</ele>
        <time>2019-05-23T07:00:04Z</time>
      </trkpt>
      <trkpt lat="44.502081340178847" lon="9.166975105181336">
        <ele>961.89999999999998</ele>
        <time>2019-05-23T07:00:13Z</time>
      </trkpt>
      <trkpt lat="44.502007579430938" lon="9.16679841466248">
        <ele>959.87</ele>
        <time>2019-05-23T07:00:24Z</time>
      </trkpt>
      <trkpt lat="44.501943290233612" lon="9.166699172928929">
        <ele>963.67999999999995</ele>
        <time>2019-05-23T07:00:34Z</time>
      </trkpt>
      <trkpt lat="44.501935075968504" lon="9.166686097159982">
        <ele>963.85000000000002</ele>
        <time>2019-05-23T07:00:35Z</time>
      </trkpt>
      <trkpt lat="44.501854777336121" lon="9.166556596755981">
        <ele>966.60000000000002</ele>
        <time>2019-05-23T07:00:47Z</time>
      </trkpt>
      <trkpt lat="44.501845892518759" lon="9.166548382490873">
        <ele>966.76999999999998</ele>
        <time>2019-05-23T07:00:48Z</time>
      </trkpt>
      <trkpt lat="44.501802390441298" lon="9.166507478803396">
        <ele>970.44000000000005</ele>
        <time>2019-05-23T07:00:55Z</time>
      </trkpt>
      <trkpt lat="44.501719158142805" lon="9.166400609537959">
        <ele>972.5</ele>
        <time>2019-05-23T07:01:08Z</time>
      </trkpt>
      <trkpt lat="44.501603906974196" lon="9.166319891810417">
        <ele>974.22000000000003</ele>
        <time>2019-05-23T07:01:19Z</time>
      </trkpt>
      <trkpt lat="44.501494858413935" lon="9.166224673390389">
        <ele>975.24000000000001</ele>
        <time>2019-05-23T07:01:33Z</time>
      </trkpt>
      <trkpt lat="44.501386899501085" lon="9.166169185191393">
        <ele>975.38999999999999</ele>
        <time>2019-05-23T07:01:42Z</time>
      </trkpt>
      <trkpt lat="44.501249268651009" lon="9.166090143844485">
        <ele>976.77999999999997</ele>
        <time>2019-05-23T07:01:56Z</time>
      </trkpt>
      <trkpt lat="44.501155894249678" lon="9.165979754179716">
        <ele>977.25999999999999</ele>
        <time>2019-05-23T07:02:07Z</time>
      </trkpt>
      <trkpt lat="44.501100825145841" lon="9.16592619381845">
        <ele>977.98000000000002</ele>
        <time>2019-05-23T07:02:12Z</time>
      </trkpt>
      <trkpt lat="44.501062436029315" lon="9.165878752246499">
        <ele>978.92999999999995</ele>
        <time>2019-05-23T07:02:17Z</time>
      </trkpt>
      <trkpt lat="44.500972833484411" lon="9.165792334824801">
        <ele>979.10000000000002</ele>
        <time>2019-05-23T07:02:27Z</time>
      </trkpt>
      <trkpt lat="44.500875351950526" lon="9.165690410882235">
        <ele>982</ele>
        <time>2019-05-23T07:02:37Z</time>
      </trkpt>
      <trkpt lat="44.500770913437009" lon="9.165608352050185">
        <ele>984.59000000000003</ele>
        <time>2019-05-23T07:02:50Z</time>
      </trkpt>
      <trkpt lat="44.500734955072403" lon="9.165495531633496">
        <ele>984.96000000000004</ele>
        <time>2019-05-23T07:03:00Z</time>
      </trkpt>
      <trkpt lat="44.500692710280418" lon="9.165422776713967">
        <ele>983.66999999999996</ele>
        <time>2019-05-23T07:03:08Z</time>
      </trkpt>
      <trkpt lat="44.500624733045697" lon="9.165269639343023">
        <ele>982.47000000000003</ele>
        <time>2019-05-23T07:03:15Z</time>
      </trkpt>
      <trkpt lat="44.500535717234015" lon="9.165099570527673">
        <ele>981.33000000000004</ele>
        <time>2019-05-23T07:03:26Z</time>
      </trkpt>
      <trkpt lat="44.50044066645205" lon="9.164944672957063">
        <ele>980.96000000000004</ele>
        <time>2019-05-23T07:03:38Z</time>
      </trkpt>
      <trkpt lat="44.500383585691452" lon="9.16481165215373">
        <ele>979.63</ele>
        <time>2019-05-23T07:03:48Z</time>
      </trkpt>
      <trkpt lat="44.500262215733528" lon="9.164630183950067">
        <ele>979.99000000000001</ele>
        <time>2019-05-23T07:04:00Z</time>
      </trkpt>
      <trkpt lat="44.500150065869093" lon="9.164459109306335">
        <ele>980.52999999999997</ele>
        <time>2019-05-23T07:04:11Z</time>
      </trkpt>
      <trkpt lat="44.500029953196645" lon="9.164326591417193">
        <ele>981.99000000000001</ele>
        <time>2019-05-23T07:04:23Z</time>
      </trkpt>
      <trkpt lat="44.500021319836378" lon="9.164316197857261">
        <ele>981.99000000000001</ele>
        <time>2019-05-23T07:04:24Z</time>
      </trkpt>
      <trkpt lat="44.499974884092808" lon="9.164256183430553">
        <ele>983.73000000000002</ele>
        <time>2019-05-23T07:04:34Z</time>
      </trkpt>
      <trkpt lat="44.499900368973613" lon="9.164204215630889">
        <ele>984.66999999999996</ele>
        <time>2019-05-23T07:04:43Z</time>
      </trkpt>
      <trkpt lat="44.49979517608881" lon="9.164118887856603">
        <ele>985.35000000000002</ele>
        <time>2019-05-23T07:04:56Z</time>
      </trkpt>
      <trkpt lat="44.499689061194658" lon="9.164036409929395">
        <ele>986.50999999999999</ele>
        <time>2019-05-23T07:05:08Z</time>
      </trkpt>
      <trkpt lat="44.499565595760942" lon="9.163972288370132">
        <ele>989.73000000000002</ele>
        <time>2019-05-23T07:05:21Z</time>
      </trkpt>
      <trkpt lat="44.49947465211153" lon="9.163900958374143">
        <ele>992.67999999999995</ele>
        <time>2019-05-23T07:05:33Z</time>
      </trkpt>
      <trkpt lat="44.499384798109531" lon="9.163798447698355">
        <ele>994.77999999999997</ele>
        <time>2019-05-23T07:05:47Z</time>
      </trkpt>
      <trkpt lat="44.499254040420055" lon="9.16370733641088">
        <ele>995.77999999999997</ele>
        <time>2019-05-23T07:06:02Z</time>
      </trkpt>
      <trkpt lat="44.499143147841096" lon="9.163619661703706">
        <ele>995.21000000000004</ele>
        <time>2019-05-23T07:06:17Z</time>
      </trkpt>
      <trkpt lat="44.499009540304542" lon="9.163509858772159">
        <ele>995.02999999999997</ele>
        <time>2019-05-23T07:06:33Z</time>
      </trkpt>
      <trkpt lat="44.498912645503879" lon="9.163444647565484">
        <ele>995.64999999999998</ele>
        <time>2019-05-23T07:06:46Z</time>
      </trkpt>
      <trkpt lat="44.498802591115236" lon="9.163353787735105">
        <ele>998.30999999999995</ele>
        <time>2019-05-23T07:07:02Z</time>
      </trkpt>
      <trkpt lat="44.498679041862488" lon="9.163296036422253">
        <ele>999.39999999999998</ele>
        <time>2019-05-23T07:07:14Z</time>
      </trkpt>
      <trkpt lat="44.498615423217416" lon="9.163283044472337">
        <ele>1000.62</ele>
        <time>2019-05-23T07:07:20Z</time>
      </trkpt>
      <trkpt lat="44.498512074351311" lon="9.163237446919084">
        <ele>1000.9</ele>
        <time>2019-05-23T07:07:32Z</time>
      </trkpt>
      <trkpt lat="44.498409815132618" lon="9.163186652585864">
        <ele>1002.88</ele>
        <time>2019-05-23T07:07:47Z</time>
      </trkpt>
      <trkpt lat="44.4983019400388" lon="9.163177516311407">
        <ele>1004.71</ele>
        <time>2019-05-23T07:08:00Z</time>
      </trkpt>
      <trkpt lat="44.49822616763413" lon="9.163154633715749">
        <ele>1008.04</ele>
        <time>2019-05-23T07:08:09Z</time>
      </trkpt>
      <trkpt lat="44.498171601444483" lon="9.163121692836285">
        <ele>1011.58</ele>
        <time>2019-05-23T07:08:16Z</time>
      </trkpt>
      <trkpt lat="44.498158358037472" lon="9.163110628724098">
        <ele>1012.36</ele>
        <time>2019-05-23T07:08:18Z</time>
      </trkpt>
      <trkpt lat="44.498121896758676" lon="9.163071904331446">
        <ele>1015.45</ele>
        <time>2019-05-23T07:08:24Z</time>
      </trkpt>
      <trkpt lat="44.498058026656508" lon="9.163014991208911">
        <ele>1018.72</ele>
        <time>2019-05-23T07:08:33Z</time>
      </trkpt>
      <trkpt lat="44.497988959774375" lon="9.162956653162837">
        <ele>1021.91</ele>
        <time>2019-05-23T07:08:43Z</time>
      </trkpt>
      <trkpt lat="44.497926514595747" lon="9.162869146093726">
        <ele>1023.63</ele>
        <time>2019-05-23T07:08:58Z</time>
      </trkpt>
      <trkpt lat="44.497844958677888" lon="9.162789266556501">
        <ele>1026.1800000000001</ele>
        <time>2019-05-23T07:09:14Z</time>
      </trkpt>
      <trkpt lat="44.497765582054853" lon="9.162740483880043">
        <ele>1028.0899999999999</ele>
        <time>2019-05-23T07:09:29Z</time>
      </trkpt>
      <trkpt lat="44.497678829357028" lon="9.162700669839978">
        <ele>1031.1500000000001</ele>
        <time>2019-05-23T07:09:46Z</time>
      </trkpt>
      <trkpt lat="44.497562404721975" lon="9.162657670676708">
        <ele>1033.49</ele>
        <time>2019-05-23T07:10:01Z</time>
      </trkpt>
      <trkpt lat="44.497439190745354" lon="9.16262648999691">
        <ele>1035.71</ele>
        <time>2019-05-23T07:10:16Z</time>
      </trkpt>
      <trkpt lat="44.497354030609131" lon="9.162658425047994">
        <ele>1038.9000000000001</ele>
        <time>2019-05-23T07:10:29Z</time>
      </trkpt>
      <trkpt lat="44.497253950685263" lon="9.162697233259678">
        <ele>1040</ele>
        <time>2019-05-23T07:10:43Z</time>
      </trkpt>
      <trkpt lat="44.497143225744367" lon="9.162696730345488">
        <ele>1040.72</ele>
        <time>2019-05-23T07:10:57Z</time>
      </trkpt>
      <trkpt lat="44.497045911848545" lon="9.162659514695406">
        <ele>1042.5699999999999</ele>
        <time>2019-05-23T07:11:08Z</time>
      </trkpt>
      <trkpt lat="44.496934935450554" lon="9.162615090608597">
        <ele>1045.9100000000001</ele>
        <time>2019-05-23T07:11:21Z</time>
      </trkpt>
      <trkpt lat="44.496776768937707" lon="9.162578796967864">
        <ele>1047.3699999999999</ele>
        <time>2019-05-23T07:11:37Z</time>
      </trkpt>
      <trkpt lat="44.496704852208495" lon="9.162567900493741">
        <ele>1048.8399999999999</ele>
        <time>2019-05-23T07:11:45Z</time>
      </trkpt>
      <trkpt lat="44.496563700959086" lon="9.162526912987232">
        <ele>1048.22</ele>
        <time>2019-05-23T07:11:58Z</time>
      </trkpt>
      <trkpt lat="44.49646320194006" lon="9.16250042617321">
        <ele>1047.27</ele>
        <time>2019-05-23T07:12:07Z</time>
      </trkpt>
      <trkpt lat="44.496323727071285" lon="9.162464719265699">
        <ele>1047.96</ele>
        <time>2019-05-23T07:12:19Z</time>
      </trkpt>
      <trkpt lat="44.496210906654596" lon="9.162466647103429">
        <ele>1049.1600000000001</ele>
        <time>2019-05-23T07:12:29Z</time>
      </trkpt>
      <trkpt lat="44.496074700728059" lon="9.162454158067703">
        <ele>1049.9300000000001</ele>
        <time>2019-05-23T07:12:44Z</time>
      </trkpt>
      <trkpt lat="44.495878731831908" lon="9.162454577162862">
        <ele>1050.73</ele>
        <time>2019-05-23T07:13:00Z</time>
      </trkpt>
      <trkpt lat="44.49571612291038" lon="9.162455080077052">
        <ele>1049.3199999999999</ele>
        <time>2019-05-23T07:13:12Z</time>
      </trkpt>
      <trkpt lat="44.495588717982173" lon="9.162527499720454">
        <ele>1048.96</ele>
        <time>2019-05-23T07:13:24Z</time>
      </trkpt>
      <trkpt lat="44.495541611686349" lon="9.162557255476713">
        <ele>1048.3199999999999</ele>
        <time>2019-05-23T07:13:29Z</time>
      </trkpt>
      <trkpt lat="44.495457038283348" lon="9.162589944899082">
        <ele>1045.75</ele>
        <time>2019-05-23T07:13:36Z</time>
      </trkpt>
      <trkpt lat="44.495264841243625" lon="9.162597404792905">
        <ele>1046.71</ele>
        <time>2019-05-23T07:13:49Z</time>
      </trkpt>
      <trkpt lat="44.495129389688373" lon="9.162547364830971">
        <ele>1046.8199999999999</ele>
        <time>2019-05-23T07:14:01Z</time>
      </trkpt>
      <trkpt lat="44.494998883455992" lon="9.162521967664361">
        <ele>1046.8</ele>
        <time>2019-05-23T07:14:11Z</time>
      </trkpt>
      <trkpt lat="44.494862845167518" lon="9.162572761997581">
        <ele>1045.0899999999999</ele>
        <time>2019-05-23T07:14:22Z</time>
      </trkpt>
      <trkpt lat="44.494767626747489" lon="9.162616431713104">
        <ele>1045.01</ele>
        <time>2019-05-23T07:14:29Z</time>
      </trkpt>
      <trkpt lat="44.49469487182796" lon="9.162664040923119">
        <ele>1044.02</ele>
        <time>2019-05-23T07:14:35Z</time>
      </trkpt>
      <trkpt lat="44.494654471054673" lon="9.162678122520447">
        <ele>1044.04</ele>
        <time>2019-05-23T07:14:38Z</time>
      </trkpt>
      <trkpt lat="44.494555480778217" lon="9.162637637928128">
        <ele>1045.02</ele>
        <time>2019-05-23T07:14:49Z</time>
      </trkpt>
      <trkpt lat="44.494422962889075" lon="9.162569157779217">
        <ele>1042.8099999999999</ele>
        <time>2019-05-23T07:15:01Z</time>
      </trkpt>
      <trkpt lat="44.49429270811379" lon="9.162603439763188">
        <ele>1043.1199999999999</ele>
        <time>2019-05-23T07:15:12Z</time>
      </trkpt>
      <trkpt lat="44.494083328172565" lon="9.162648869678378">
        <ele>1040.5999999999999</ele>
        <time>2019-05-23T07:15:29Z</time>
      </trkpt>
      <trkpt lat="44.493881491944194" lon="9.162631602957845">
        <ele>1039.6800000000001</ele>
        <time>2019-05-23T07:15:44Z</time>
      </trkpt>
      <trkpt lat="44.493744280189276" lon="9.162641409784555">
        <ele>1039.3099999999999</ele>
        <time>2019-05-23T07:15:56Z</time>
      </trkpt>
      <trkpt lat="44.493657443672419" lon="9.162637135013938">
        <ele>1039.48</ele>
        <time>2019-05-23T07:16:08Z</time>
      </trkpt>
      <trkpt lat="44.49362332932651" lon="9.162566727027297">
        <ele>1042.8800000000001</ele>
        <time>2019-05-23T07:16:28Z</time>
      </trkpt>
      <trkpt lat="44.493616623803973" lon="9.162580389529467">
        <ele>1046.3499999999999</ele>
        <time>2019-05-23T07:16:34Z</time>
      </trkpt>
      <trkpt lat="44.493608912453055" lon="9.162586089223623">
        <ele>1049.48</ele>
        <time>2019-05-23T07:16:39Z</time>
      </trkpt>
      <trkpt lat="44.492998961359262" lon="9.16216179728508">
        <ele>1049.8499999999999</ele>
        <time>2019-05-23T07:19:10Z</time>
      </trkpt>
      <trkpt lat="44.492907179519534" lon="9.162161881104112">
        <ele>1046.8499999999999</ele>
        <time>2019-05-23T07:19:20Z</time>
      </trkpt>
      <trkpt lat="44.492845069617033" lon="9.162169257178903">
        <ele>1045.1099999999999</ele>
        <time>2019-05-23T07:19:25Z</time>
      </trkpt>
      <trkpt lat="44.492808105424047" lon="9.162156684324145">
        <ele>1043.8099999999999</ele>
        <time>2019-05-23T07:19:28Z</time>
      </trkpt>
      <trkpt lat="44.492740966379642" lon="9.162162886932492">
        <ele>1041.4400000000001</ele>
        <time>2019-05-23T07:19:34Z</time>
      </trkpt>
      <trkpt lat="44.492622278630733" lon="9.16219599545002">
        <ele>1038.23</ele>
        <time>2019-05-23T07:19:46Z</time>
      </trkpt>
      <trkpt lat="44.492523539811373" lon="9.162172861397266">
        <ele>1035.0599999999999</ele>
        <time>2019-05-23T07:19:55Z</time>
      </trkpt>
      <trkpt lat="44.492446593940258" lon="9.162116451188922">
        <ele>1031.95</ele>
        <time>2019-05-23T07:20:02Z</time>
      </trkpt>
      <trkpt lat="44.49236998334527" lon="9.162088120356202">
        <ele>1028.76</ele>
        <time>2019-05-23T07:20:09Z</time>
      </trkpt>
      <trkpt lat="44.492350202053785" lon="9.1620640642941">
        <ele>1027.98</ele>
        <time>2019-05-23T07:20:11Z</time>
      </trkpt>
      <trkpt lat="44.492249870672822" lon="9.162033218890429">
        <ele>1025.45</ele>
        <time>2019-05-23T07:20:19Z</time>
      </trkpt>
      <trkpt lat="44.492073180153966" lon="9.161970606073737">
        <ele>1022.09</ele>
        <time>2019-05-23T07:20:32Z</time>
      </trkpt>
      <trkpt lat="44.491934208199382" lon="9.161951998248696">
        <ele>1020.5599999999999</ele>
        <time>2019-05-23T07:20:41Z</time>
      </trkpt>
      <trkpt lat="44.491873355582356" lon="9.161937413737178">
        <ele>1020.99</ele>
        <time>2019-05-23T07:20:46Z</time>
      </trkpt>
      <trkpt lat="44.491739999502897" lon="9.161886870861054">
        <ele>1018.97</ele>
        <time>2019-05-23T07:20:59Z</time>
      </trkpt>
      <trkpt lat="44.491602452471852" lon="9.161732895299792">
        <ele>1016.99</ele>
        <time>2019-05-23T07:21:13Z</time>
      </trkpt>
      <trkpt lat="44.491487620398402" lon="9.161517480388284">
        <ele>1017.08</ele>
        <time>2019-05-23T07:21:27Z</time>
      </trkpt>
      <trkpt lat="44.491411009803414" lon="9.161418741568923">
        <ele>1016.72</ele>
        <time>2019-05-23T07:21:38Z</time>
      </trkpt>
      <trkpt lat="44.491330711171031" lon="9.161285972222686">
        <ele>1016.74</ele>
        <time>2019-05-23T07:21:47Z</time>
      </trkpt>
      <trkpt lat="44.491241192445159" lon="9.161217575892806">
        <ele>1016.3099999999999</ele>
        <time>2019-05-23T07:21:58Z</time>
      </trkpt>
      <trkpt lat="44.491144213825464" lon="9.1612040810287">
        <ele>1019.41</ele>
        <time>2019-05-23T07:22:09Z</time>
      </trkpt>
      <trkpt lat="44.491135245189071" lon="9.161191759631038">
        <ele>1019.64</ele>
        <time>2019-05-23T07:22:10Z</time>
      </trkpt>
      <trkpt lat="44.490981604903936" lon="9.161059325560927">
        <ele>1022.65</ele>
        <time>2019-05-23T07:22:25Z</time>
      </trkpt>
      <trkpt lat="44.490870293229818" lon="9.160911720246077">
        <ele>1022.13</ele>
        <time>2019-05-23T07:22:34Z</time>
      </trkpt>
      <trkpt lat="44.490842800587416" lon="9.160883892327547">
        <ele>1022.4400000000001</ele>
        <time>2019-05-23T07:22:36Z</time>
      </trkpt>
      <trkpt lat="44.490790162235498" lon="9.160827146843076">
        <ele>1022.8099999999999</ele>
        <time>2019-05-23T07:22:40Z</time>
      </trkpt>
      <trkpt lat="44.490623530000448" lon="9.160784902051091">
        <ele>1019.58</ele>
        <time>2019-05-23T07:22:53Z</time>
      </trkpt>
      <trkpt lat="44.490568544715643" lon="9.160788087174296">
        <ele>1020.46</ele>
        <time>2019-05-23T07:22:58Z</time>
      </trkpt>
      <trkpt lat="44.490434601902962" lon="9.160580635070801">
        <ele>1019.75</ele>
        <time>2019-05-23T07:23:13Z</time>
      </trkpt>
      <trkpt lat="44.490321613848209" lon="9.160416685044766">
        <ele>1017.72</ele>
        <time>2019-05-23T07:23:24Z</time>
      </trkpt>
      <trkpt lat="44.490255229175091" lon="9.16037293151021">
        <ele>1017.23</ele>
        <time>2019-05-23T07:23:35Z</time>
      </trkpt>
      <trkpt lat="44.49024248868227" lon="9.160362202674151">
        <ele>1020.3</ele>
        <time>2019-05-23T07:23:46Z</time>
      </trkpt>
      <trkpt lat="44.490169314667583" lon="9.160338314250112">
        <ele>1032.23</ele>
        <time>2019-05-23T07:24:25Z</time>
      </trkpt>
      <trkpt lat="44.489430701360106" lon="9.160160785540938">
        <ele>1033.9100000000001</ele>
        <time>2019-05-23T07:36:26Z</time>
      </trkpt>
      <trkpt lat="44.4893585331738" lon="9.160139579325914">
        <ele>1031.02</ele>
        <time>2019-05-23T07:36:33Z</time>
      </trkpt>
      <trkpt lat="44.489225344732404" lon="9.159985100850463">
        <ele>1028.49</ele>
        <time>2019-05-23T07:36:45Z</time>
      </trkpt>
      <trkpt lat="44.489165246486664" lon="9.159789383411408">
        <ele>1026.4200000000001</ele>
        <time>2019-05-23T07:36:57Z</time>
      </trkpt>
      <trkpt lat="44.48915921151638" lon="9.159692237153649">
        <ele>1023.27</ele>
        <time>2019-05-23T07:37:04Z</time>
      </trkpt>
      <trkpt lat="44.48914697393775" lon="9.159601209685206">
        <ele>1020.91</ele>
        <time>2019-05-23T07:37:11Z</time>
      </trkpt>
      <trkpt lat="44.489067094400525" lon="9.159500626847148">
        <ele>1017.7</ele>
        <time>2019-05-23T07:37:23Z</time>
      </trkpt>
      <trkpt lat="44.489004565402865" lon="9.159321254119277">
        <ele>1014.91</ele>
        <time>2019-05-23T07:37:32Z</time>
      </trkpt>
      <trkpt lat="44.48888998478651" lon="9.159180019050837">
        <ele>1014.58</ele>
        <time>2019-05-23T07:37:44Z</time>
      </trkpt>
      <trkpt lat="44.488790910691023" lon="9.158964101225138">
        <ele>1017.66</ele>
        <time>2019-05-23T07:38:02Z</time>
      </trkpt>
      <trkpt lat="44.488805159926414" lon="9.158715577796102">
        <ele>1015.63</ele>
        <time>2019-05-23T07:38:16Z</time>
      </trkpt>
      <trkpt lat="44.488782696425915" lon="9.158525811508298">
        <ele>1015.8200000000001</ele>
        <time>2019-05-23T07:38:28Z</time>
      </trkpt>
      <trkpt lat="44.488767776638269" lon="9.158487673848867">
        <ele>1017.4400000000001</ele>
        <time>2019-05-23T07:38:31Z</time>
      </trkpt>
      <trkpt lat="44.488697871565819" lon="9.158433526754379">
        <ele>1021.04</ele>
        <time>2019-05-23T07:38:40Z</time>
      </trkpt>
      <trkpt lat="44.488628888502717" lon="9.158296817913652">
        <ele>1022.8200000000001</ele>
        <time>2019-05-23T07:38:51Z</time>
      </trkpt>
      <trkpt lat="44.488581782206893" lon="9.158298997208476">
        <ele>1025.23</ele>
        <time>2019-05-23T07:38:56Z</time>
      </trkpt>
      <trkpt lat="44.488568035885692" lon="9.15829673409462">
        <ele>1025.0899999999999</ele>
        <time>2019-05-23T07:38:57Z</time>
      </trkpt>
      <trkpt lat="44.488527299836278" lon="9.158273097127676">
        <ele>1026.1400000000001</ele>
        <time>2019-05-23T07:39:01Z</time>
      </trkpt>
      <trkpt lat="44.488424621522427" lon="9.158170754089952">
        <ele>1025.3800000000001</ele>
        <time>2019-05-23T07:39:12Z</time>
      </trkpt>
      <trkpt lat="44.48829629458487" lon="9.158097244799137">
        <ele>1024.25</ele>
        <time>2019-05-23T07:39:24Z</time>
      </trkpt>
      <trkpt lat="44.488245164975524" lon="9.158016694709659">
        <ele>1024.79</ele>
        <time>2019-05-23T07:39:32Z</time>
      </trkpt>
      <trkpt lat="44.488217001780868" lon="9.157950896769762">
        <ele>1025.04</ele>
        <time>2019-05-23T07:39:38Z</time>
      </trkpt>
      <trkpt lat="44.488162351772189" lon="9.157911250367761">
        <ele>1025.97</ele>
        <time>2019-05-23T07:39:44Z</time>
      </trkpt>
      <trkpt lat="44.488115077838302" lon="9.157910328358412">
        <ele>1024.1500000000001</ele>
        <time>2019-05-23T07:39:48Z</time>
      </trkpt>
      <trkpt lat="44.487951630726457" lon="9.157891804352403">
        <ele>1022.41</ele>
        <time>2019-05-23T07:40:01Z</time>
      </trkpt>
      <trkpt lat="44.487895304337144" lon="9.157887361943722">
        <ele>1025.79</ele>
        <time>2019-05-23T07:40:07Z</time>
      </trkpt>
      <trkpt lat="44.487757254391909" lon="9.157855091616511">
        <ele>1024.1600000000001</ele>
        <time>2019-05-23T07:40:19Z</time>
      </trkpt>
      <trkpt lat="44.487719284370542" lon="9.15785207413137">
        <ele>1023.3</ele>
        <time>2019-05-23T07:40:22Z</time>
      </trkpt>
      <trkpt lat="44.487599423155189" lon="9.157813601195812">
        <ele>1022.86</ele>
        <time>2019-05-23T07:40:35Z</time>
      </trkpt>
      <trkpt lat="44.487548461183906" lon="9.157774038612843">
        <ele>1025.0799999999999</ele>
        <time>2019-05-23T07:40:49Z</time>
      </trkpt>
      <trkpt lat="44.487497163936496" lon="9.157741433009505">
        <ele>1024.5999999999999</ele>
        <time>2019-05-23T07:41:03Z</time>
      </trkpt>
      <trkpt lat="44.487490626052022" lon="9.157729530707002">
        <ele>1026.05</ele>
        <time>2019-05-23T07:41:16Z</time>
      </trkpt>
      <trkpt lat="44.487451650202274" lon="9.157698601484299">
        <ele>1025.27</ele>
        <time>2019-05-23T07:41:30Z</time>
      </trkpt>
      <trkpt lat="44.487422145903111" lon="9.157656859606504">
        <ele>1021.6900000000001</ele>
        <time>2019-05-23T07:41:36Z</time>
      </trkpt>
      <trkpt lat="44.487384594976902" lon="9.157585110515356">
        <ele>1019.8200000000001</ele>
        <time>2019-05-23T07:41:50Z</time>
      </trkpt>
      <trkpt lat="44.48737177066505" lon="9.157528029754758">
        <ele>1017.09</ele>
        <time>2019-05-23T07:41:55Z</time>
      </trkpt>
      <trkpt lat="44.487368417903781" lon="9.157494837418199">
        <ele>1016.33</ele>
        <time>2019-05-23T07:41:57Z</time>
      </trkpt>
      <trkpt lat="44.487346792593598" lon="9.157402217388153">
        <ele>1014.5599999999999</ele>
        <time>2019-05-23T07:42:09Z</time>
      </trkpt>
      <trkpt lat="44.487342936918139" lon="9.157387297600508">
        <ele>1015.2</ele>
        <time>2019-05-23T07:42:14Z</time>
      </trkpt>
      <trkpt lat="44.487345702946186" lon="9.157283362001181">
        <ele>1012.8099999999999</ele>
        <time>2019-05-23T07:42:24Z</time>
      </trkpt>
      <trkpt lat="44.48733857832849" lon="9.157246397808194">
        <ele>1011.58</ele>
        <time>2019-05-23T07:42:27Z</time>
      </trkpt>
      <trkpt lat="44.487342601642013" lon="9.157156962901354">
        <ele>1010.58</ele>
        <time>2019-05-23T07:42:39Z</time>
      </trkpt>
      <trkpt lat="44.487354168668389" lon="9.157125111669302">
        <ele>1009.54</ele>
        <time>2019-05-23T07:43:01Z</time>
      </trkpt>
      <trkpt lat="44.48735324665904" lon="9.157032910734415">
        <ele>1008.3</ele>
        <time>2019-05-23T07:43:10Z</time>
      </trkpt>
      <trkpt lat="44.487343858927488" lon="9.156926879659295">
        <ele>1006.13</ele>
        <time>2019-05-23T07:43:21Z</time>
      </trkpt>
      <trkpt lat="44.487335728481412" lon="9.156906679272652">
        <ele>1005.66</ele>
        <time>2019-05-23T07:43:23Z</time>
      </trkpt>
      <trkpt lat="44.487357437610626" lon="9.156758571043611">
        <ele>1003.2</ele>
        <time>2019-05-23T07:43:35Z</time>
      </trkpt>
      <trkpt lat="44.487347463145852" lon="9.156692018732429">
        <ele>1002.54</ele>
        <time>2019-05-23T07:43:41Z</time>
      </trkpt>
      <trkpt lat="44.487296920269728" lon="9.156613145023584">
        <ele>1000.1900000000001</ele>
        <time>2019-05-23T07:43:54Z</time>
      </trkpt>
      <trkpt lat="44.487302284687757" lon="9.156533600762487">
        <ele>998.25999999999999</ele>
        <time>2019-05-23T07:44:04Z</time>
      </trkpt>
      <trkpt lat="44.487325083464384" lon="9.156467383727431">
        <ele>995.34000000000003</ele>
        <time>2019-05-23T07:44:13Z</time>
      </trkpt>
      <trkpt lat="44.487291555851698" lon="9.156433856114745">
        <ele>994.33000000000004</ele>
        <time>2019-05-23T07:44:17Z</time>
      </trkpt>
      <trkpt lat="44.487200360745192" lon="9.156296560540795">
        <ele>992.19000000000005</ele>
        <time>2019-05-23T07:44:31Z</time>
      </trkpt>
      <trkpt lat="44.487182591110468" lon="9.156264122575522">
        <ele>991.64999999999998</ele>
        <time>2019-05-23T07:44:43Z</time>
      </trkpt>
      <trkpt lat="44.487175466492772" lon="9.15623864158988">
        <ele>991.46000000000004</ele>
        <time>2019-05-23T07:44:45Z</time>
      </trkpt>
      <trkpt lat="44.487110171467066" lon="9.156129844486713">
        <ele>988.49000000000001</ele>
        <time>2019-05-23T07:44:59Z</time>
      </trkpt>
      <trkpt lat="44.487086366862059" lon="9.156103357672691">
        <ele>987.59000000000003</ele>
        <time>2019-05-23T07:45:06Z</time>
      </trkpt>
      <trkpt lat="44.487044457346201" lon="9.156021047383547">
        <ele>986.96000000000004</ele>
        <time>2019-05-23T07:45:22Z</time>
      </trkpt>
      <trkpt lat="44.486914873123169" lon="9.155854331329465">
        <ele>985.48000000000002</ele>
        <time>2019-05-23T07:45:38Z</time>
      </trkpt>
      <trkpt lat="44.486540202051401" lon="9.155054111033678">
        <ele>985.42999999999995</ele>
        <time>2019-05-23T07:50:37Z</time>
      </trkpt>
      <trkpt lat="44.486476583406329" lon="9.154928466305137">
        <ele>988.38999999999999</ele>
        <time>2019-05-23T07:50:49Z</time>
      </trkpt>
      <trkpt lat="44.486439367756248" lon="9.154807599261403">
        <ele>990.32000000000005</ele>
        <time>2019-05-23T07:51:00Z</time>
      </trkpt>
      <trkpt lat="44.486385639756918" lon="9.154677679762244">
        <ele>992.84000000000003</ele>
        <time>2019-05-23T07:51:13Z</time>
      </trkpt>
      <trkpt lat="44.486346747726202" lon="9.154564188793302">
        <ele>994.44000000000005</ele>
        <time>2019-05-23T07:51:23Z</time>
      </trkpt>
      <trkpt lat="44.486318500712514" lon="9.154342571273446">
        <ele>996.13999999999999</ele>
        <time>2019-05-23T07:51:38Z</time>
      </trkpt>
      <trkpt lat="44.486297965049744" lon="9.154290771111846">
        <ele>996.86000000000001</ele>
        <time>2019-05-23T07:51:43Z</time>
      </trkpt>
      <trkpt lat="44.485980039462447" lon="9.153553666546941">
        <ele>997.25</ele>
        <time>2019-05-23T07:52:52Z</time>
      </trkpt>
      <trkpt lat="44.485987164080143" lon="9.153439924120903">
        <ele>997.27999999999997</ele>
        <time>2019-05-23T07:53:03Z</time>
      </trkpt>
      <trkpt lat="44.485933184623718" lon="9.153195004910231">
        <ele>995.54999999999995</ele>
        <time>2019-05-23T07:53:19Z</time>
      </trkpt>
      <trkpt lat="44.48589563369751" lon="9.152981517836452">
        <ele>993.40999999999997</ele>
        <time>2019-05-23T07:53:32Z</time>
      </trkpt>
      <trkpt lat="44.485848108306527" lon="9.152754284441471">
        <ele>993.00999999999999</ele>
        <time>2019-05-23T07:53:45Z</time>
      </trkpt>
      <trkpt lat="44.485775856301188" lon="9.152661999687553">
        <ele>992.23000000000002</ele>
        <time>2019-05-23T07:53:54Z</time>
      </trkpt>
      <trkpt lat="44.485703771933913" lon="9.152555717155337">
        <ele>989.05999999999995</ele>
        <time>2019-05-23T07:54:06Z</time>
      </trkpt>
      <trkpt lat="44.485619198530912" lon="9.152457732707262">
        <ele>986.01999999999998</ele>
        <time>2019-05-23T07:54:19Z</time>
      </trkpt>
      <trkpt lat="44.485593885183334" lon="9.152405681088567">
        <ele>984.03999999999996</ele>
        <time>2019-05-23T07:54:25Z</time>
      </trkpt>
      <trkpt lat="44.485550718382001" lon="9.152295291423798">
        <ele>980.60000000000002</ele>
        <time>2019-05-23T07:54:35Z</time>
      </trkpt>
      <trkpt lat="44.485510988160968" lon="9.152210131287575">
        <ele>977.46000000000004</ele>
        <time>2019-05-23T07:54:45Z</time>
      </trkpt>
      <trkpt lat="44.485473521053791" lon="9.152112985029817">
        <ele>974.33000000000004</ele>
        <time>2019-05-23T07:54:55Z</time>
      </trkpt>
      <trkpt lat="44.485417027026415" lon="9.152052132412791">
        <ele>971.13</ele>
        <time>2019-05-23T07:55:04Z</time>
      </trkpt>
      <trkpt lat="44.485328011214733" lon="9.151980383321643">
        <ele>967.86000000000001</ele>
        <time>2019-05-23T07:55:15Z</time>
      </trkpt>
      <trkpt lat="44.485253999009728" lon="9.15191768668592">
        <ele>964.83000000000004</ele>
        <time>2019-05-23T07:55:26Z</time>
      </trkpt>
      <trkpt lat="44.485199097543955" lon="9.151836298406124">
        <ele>961.75</ele>
        <time>2019-05-23T07:55:35Z</time>
      </trkpt>
      <trkpt lat="44.485103124752641" lon="9.151743091642857">
        <ele>958.76999999999998</ele>
        <time>2019-05-23T07:55:46Z</time>
      </trkpt>
      <trkpt lat="44.485024334862828" lon="9.151683747768402">
        <ele>955.45000000000005</ele>
        <time>2019-05-23T07:55:57Z</time>
      </trkpt>
      <trkpt lat="44.484945628792048" lon="9.151597497984767">
        <ele>952.58000000000004</ele>
        <time>2019-05-23T07:56:08Z</time>
      </trkpt>
      <trkpt lat="44.484869688749313" lon="9.151510326191783">
        <ele>950.40999999999997</ele>
        <time>2019-05-23T07:56:19Z</time>
      </trkpt>
      <trkpt lat="44.484807662665844" lon="9.151383759453893">
        <ele>948.54999999999995</ele>
        <time>2019-05-23T07:56:32Z</time>
      </trkpt>
      <trkpt lat="44.484740775078535" lon="9.151303293183446">
        <ele>945.53999999999996</ele>
        <time>2019-05-23T07:56:42Z</time>
      </trkpt>
      <trkpt lat="44.484662152826786" lon="9.151182593777776">
        <ele>942.64999999999998</ele>
        <time>2019-05-23T07:56:55Z</time>
      </trkpt>
      <trkpt lat="44.484620997682214" lon="9.151050830259919">
        <ele>942.20000000000005</ele>
        <time>2019-05-23T07:57:07Z</time>
      </trkpt>
      <trkpt lat="44.484601216390729" lon="9.150995258241892">
        <ele>941.27999999999997</ele>
        <time>2019-05-23T07:57:11Z</time>
      </trkpt>
      <trkpt lat="44.484529299661517" lon="9.150867518037558">
        <ele>939.26999999999998</ele>
        <time>2019-05-23T07:57:23Z</time>
      </trkpt>
      <trkpt lat="44.484468447044492" lon="9.150751177221537">
        <ele>937.40999999999997</ele>
        <time>2019-05-23T07:57:35Z</time>
      </trkpt>
      <trkpt lat="44.484443552792072" lon="9.150717481970787">
        <ele>936.53999999999996</ele>
        <time>2019-05-23T07:57:39Z</time>
      </trkpt>
      <trkpt lat="44.484430477023125" lon="9.150658054277301">
        <ele>935.65999999999997</ele>
        <time>2019-05-23T07:57:49Z</time>
      </trkpt>
      <trkpt lat="44.484423520043492" lon="9.150534588843584">
        <ele>932.10000000000002</ele>
        <time>2019-05-23T07:58:00Z</time>
      </trkpt>
      <trkpt lat="44.484380688518286" lon="9.150422522798181">
        <ele>929.07000000000005</ele>
        <time>2019-05-23T07:58:10Z</time>
      </trkpt>
      <trkpt lat="44.484309861436486" lon="9.150267289951444">
        <ele>926.65999999999997</ele>
        <time>2019-05-23T07:58:24Z</time>
      </trkpt>
      <trkpt lat="44.484274908900261" lon="9.15011708624661">
        <ele>923.75999999999999</ele>
        <time>2019-05-23T07:58:35Z</time>
      </trkpt>
      <trkpt lat="44.484270801767707" lon="9.15008045732975">
        <ele>923.13</ele>
        <time>2019-05-23T07:58:38Z</time>
      </trkpt>
      <trkpt lat="44.484289577230811" lon="9.149940982460976">
        <ele>919.59000000000003</ele>
        <time>2019-05-23T07:58:48Z</time>
      </trkpt>
      <trkpt lat="44.484291756525636" lon="9.149911059066653">
        <ele>919.27999999999997</ele>
        <time>2019-05-23T07:58:50Z</time>
      </trkpt>
      <trkpt lat="44.484341377392411" lon="9.149738643318415">
        <ele>916.57000000000005</ele>
        <time>2019-05-23T07:59:03Z</time>
      </trkpt>
      <trkpt lat="44.484381023794413" lon="9.149642502889037">
        <ele>913.52999999999997</ele>
        <time>2019-05-23T07:59:12Z</time>
      </trkpt>
      <trkpt lat="44.484410025179386" lon="9.149563293904066">
        <ele>910.19000000000005</ele>
        <time>2019-05-23T07:59:21Z</time>
      </trkpt>
      <trkpt lat="44.484405163675547" lon="9.149425830692053">
        <ele>906.97000000000003</ele>
        <time>2019-05-23T07:59:33Z</time>
      </trkpt>
      <trkpt lat="44.484378006309271" lon="9.149267245084047">
        <ele>906.22000000000003</ele>
        <time>2019-05-23T07:59:44Z</time>
      </trkpt>
      <trkpt lat="44.484400469809771" lon="9.149206224828959">
        <ele>905.78999999999996</ele>
        <time>2019-05-23T07:59:48Z</time>
      </trkpt>
      <trkpt lat="44.484413545578718" lon="9.148975135758519">
        <ele>903.49000000000001</ele>
        <time>2019-05-23T08:00:02Z</time>
      </trkpt>
      <trkpt lat="44.484409438446164" lon="9.148882851004601">
        <ele>903.08000000000004</ele>
        <time>2019-05-23T08:00:09Z</time>
      </trkpt>
      <trkpt lat="44.484386974945664" lon="9.148688474670053">
        <ele>902.61000000000001</ele>
        <time>2019-05-23T08:00:21Z</time>
      </trkpt>
      <trkpt lat="44.484367948025465" lon="9.14844355545938">
        <ele>902.96000000000004</ele>
        <time>2019-05-23T08:00:35Z</time>
      </trkpt>
      <trkpt lat="44.484342215582728" lon="9.148106854408979">
        <ele>904.20000000000005</ele>
        <time>2019-05-23T08:00:53Z</time>
      </trkpt>
      <trkpt lat="44.484356632456183" lon="9.147900491952896">
        <ele>901.09000000000003</ele>
        <time>2019-05-23T08:01:06Z</time>
      </trkpt>
      <trkpt lat="44.484360069036484" lon="9.14772966876626">
        <ele>899.20000000000005</ele>
        <time>2019-05-23T08:01:18Z</time>
      </trkpt>
      <trkpt lat="44.484367361292243" lon="9.147448372095823">
        <ele>898.76999999999998</ele>
        <time>2019-05-23T08:01:33Z</time>
      </trkpt>
      <trkpt lat="44.484346490353346" lon="9.147405289113522">
        <ele>897.96000000000004</ele>
        <time>2019-05-23T08:01:37Z</time>
      </trkpt>
      <trkpt lat="44.484280105680227" lon="9.14736170321703">
        <ele>894.59000000000003</ele>
        <time>2019-05-23T08:01:46Z</time>
      </trkpt>
      <trkpt lat="44.48425093665719" lon="9.147357009351254">
        <ele>894.15999999999997</ele>
        <time>2019-05-23T08:01:52Z</time>
      </trkpt>
      <trkpt lat="44.484193604439497" lon="9.147295067086816">
        <ele>891.88999999999999</ele>
        <time>2019-05-23T08:02:04Z</time>
      </trkpt>
      <trkpt lat="44.484102493152022" lon="9.147282829508185">
        <ele>888.85000000000002</ele>
        <time>2019-05-23T08:02:14Z</time>
      </trkpt>
      <trkpt lat="44.484076676890254" lon="9.147260952740908">
        <ele>887.45000000000005</ele>
        <time>2019-05-23T08:02:25Z</time>
      </trkpt>
      <trkpt lat="44.484017416834831" lon="9.147241087630391">
        <ele>885.51999999999998</ele>
        <time>2019-05-23T08:02:35Z</time>
      </trkpt>
      <trkpt lat="44.483959246426821" lon="9.147193059325218">
        <ele>882.54999999999995</ele>
        <time>2019-05-23T08:02:44Z</time>
      </trkpt>
      <trkpt lat="44.483856735751033" lon="9.147070180624723">
        <ele>879.22000000000003</ele>
        <time>2019-05-23T08:02:57Z</time>
      </trkpt>
      <trkpt lat="44.483781969174743" lon="9.146985607221723">
        <ele>875.99000000000001</ele>
        <time>2019-05-23T08:03:05Z</time>
      </trkpt>
      <trkpt lat="44.483706532046199" lon="9.1468745470047">
        <ele>874</ele>
        <time>2019-05-23T08:03:16Z</time>
      </trkpt>
      <trkpt lat="44.483698401600122" lon="9.146854765713215">
        <ele>873.77999999999997</ele>
        <time>2019-05-23T08:03:18Z</time>
      </trkpt>
      <trkpt lat="44.483595388010144" lon="9.146606661379337">
        <ele>875.32000000000005</ele>
        <time>2019-05-23T08:03:36Z</time>
      </trkpt>
      <trkpt lat="44.483515759930015" lon="9.146438352763653">
        <ele>873.39999999999998</ele>
        <time>2019-05-23T08:03:51Z</time>
      </trkpt>
      <trkpt lat="44.483439903706312" lon="9.146337686106563">
        <ele>870.95000000000005</ele>
        <time>2019-05-23T08:04:01Z</time>
      </trkpt>
      <trkpt lat="44.483313839882612" lon="9.146154373884201">
        <ele>868.87</ele>
        <time>2019-05-23T08:04:17Z</time>
      </trkpt>
      <trkpt lat="44.483290622010827" lon="9.146098801866174">
        <ele>868.64999999999998</ele>
        <time>2019-05-23T08:04:27Z</time>
      </trkpt>
      <trkpt lat="44.483232954517007" lon="9.146003667265177">
        <ele>867.73000000000002</ele>
        <time>2019-05-23T08:04:36Z</time>
      </trkpt>
      <trkpt lat="44.483208814635873" lon="9.145822618156672">
        <ele>866.75999999999999</ele>
        <time>2019-05-23T08:04:51Z</time>
      </trkpt>
      <trkpt lat="44.483233960345387" lon="9.145759418606758">
        <ele>866.55999999999995</ele>
        <time>2019-05-23T08:05:07Z</time>
      </trkpt>
      <trkpt lat="44.483246030285954" lon="9.145694961771369">
        <ele>865.33000000000004</ele>
        <time>2019-05-23T08:05:19Z</time>
      </trkpt>
      <trkpt lat="44.48324091732502" lon="9.145636288449168">
        <ele>864.39999999999998</ele>
        <time>2019-05-23T08:05:28Z</time>
      </trkpt>
      <trkpt lat="44.483230775222182" lon="9.145595384761691">
        <ele>863.70000000000005</ele>
        <time>2019-05-23T08:05:31Z</time>
      </trkpt>
      <trkpt lat="44.4831901229918" lon="9.145517013967037">
        <ele>863.30999999999995</ele>
        <time>2019-05-23T08:05:42Z</time>
      </trkpt>
      <trkpt lat="44.483148716390133" lon="9.145448282361031">
        <ele>863.45000000000005</ele>
        <time>2019-05-23T08:05:51Z</time>
      </trkpt>
      <trkpt lat="44.483106136322021" lon="9.145392291247845">
        <ele>864.07000000000005</ele>
        <time>2019-05-23T08:06:01Z</time>
      </trkpt>
      <trkpt lat="44.483093898743391" lon="9.145342335104942">
        <ele>864.87</ele>
        <time>2019-05-23T08:06:12Z</time>
      </trkpt>
      <trkpt lat="44.483034303411841" lon="9.145175451412797">
        <ele>865.45000000000005</ele>
        <time>2019-05-23T08:06:25Z</time>
      </trkpt>
      <trkpt lat="44.482971858233213" lon="9.145000940188766">
        <ele>864.53999999999996</ele>
        <time>2019-05-23T08:06:38Z</time>
      </trkpt>
      <trkpt lat="44.482942018657923" lon="9.144818801432848">
        <ele>861.48000000000002</ele>
        <time>2019-05-23T08:06:51Z</time>
      </trkpt>
      <trkpt lat="44.482924668118358" lon="9.144553178921342">
        <ele>863.05999999999995</ele>
        <time>2019-05-23T08:07:08Z</time>
      </trkpt>
      <trkpt lat="44.48287689127028" lon="9.144362909719348">
        <ele>864.89999999999998</ele>
        <time>2019-05-23T08:07:22Z</time>
      </trkpt>
      <trkpt lat="44.482783181592822" lon="9.144131569191814">
        <ele>865.41999999999996</ele>
        <time>2019-05-23T08:07:38Z</time>
      </trkpt>
      <trkpt lat="44.482705229893327" lon="9.143926966935396">
        <ele>864</ele>
        <time>2019-05-23T08:07:52Z</time>
      </trkpt>
      <trkpt lat="44.482633396983147" lon="9.143723202869296">
        <ele>862.39999999999998</ele>
        <time>2019-05-23T08:08:06Z</time>
      </trkpt>
      <trkpt lat="44.482592241838574" lon="9.14355237968266">
        <ele>862.65999999999997</ele>
        <time>2019-05-23T08:08:19Z</time>
      </trkpt>
      <trkpt lat="44.482605317607522" lon="9.143429333344102">
        <ele>861.97000000000003</ele>
        <time>2019-05-23T08:08:30Z</time>
      </trkpt>
      <trkpt lat="44.482604479417205" lon="9.143276195973158">
        <ele>859.60000000000002</ele>
        <time>2019-05-23T08:08:44Z</time>
      </trkpt>
      <trkpt lat="44.482600623741746" lon="9.143135799095035">
        <ele>859.89999999999998</ele>
        <time>2019-05-23T08:08:55Z</time>
      </trkpt>
      <trkpt lat="44.482553349807858" lon="9.14299875497818">
        <ele>860.24000000000001</ele>
        <time>2019-05-23T08:09:08Z</time>
      </trkpt>
      <trkpt lat="44.482553852722049" lon="9.142932202666998">
        <ele>862.44000000000005</ele>
        <time>2019-05-23T08:09:14Z</time>
      </trkpt>
      <trkpt lat="44.482549829408526" lon="9.142847377806902">
        <ele>864.48000000000002</ele>
        <time>2019-05-23T08:09:21Z</time>
      </trkpt>
      <trkpt lat="44.482556702569127" lon="9.14265962317586">
        <ele>868.17999999999995</ele>
        <time>2019-05-23T08:09:37Z</time>
      </trkpt>
      <trkpt lat="44.482573717832565" lon="9.142487123608589">
        <ele>870.11000000000001</ele>
        <time>2019-05-23T08:09:50Z</time>
      </trkpt>
      <trkpt lat="44.482551673427224" lon="9.142341027036309">
        <ele>870.38</ele>
        <time>2019-05-23T08:10:03Z</time>
      </trkpt>
      <trkpt lat="44.482505489140749" lon="9.142141537740827">
        <ele>872.95000000000005</ele>
        <time>2019-05-23T08:10:15Z</time>
      </trkpt>
      <trkpt lat="44.482477745041251" lon="9.142013713717461">
        <ele>871.98000000000002</ele>
        <time>2019-05-23T08:10:23Z</time>
      </trkpt>
      <trkpt lat="44.482417311519384" lon="9.141907347366214">
        <ele>868.47000000000003</ele>
        <time>2019-05-23T08:10:33Z</time>
      </trkpt>
      <trkpt lat="44.482370791956782" lon="9.141832999885082">
        <ele>865.17999999999995</ele>
        <time>2019-05-23T08:10:44Z</time>
      </trkpt>
      <trkpt lat="44.482279177755117" lon="9.141666367650032">
        <ele>861.76999999999998</ele>
        <time>2019-05-23T08:10:56Z</time>
      </trkpt>
      <trkpt lat="44.482204830273986" lon="9.141583302989602">
        <ele>860.22000000000003</ele>
        <time>2019-05-23T08:11:04Z</time>
      </trkpt>
      <trkpt lat="44.482113048434258" lon="9.141443073749542">
        <ele>857.09000000000003</ele>
        <time>2019-05-23T08:11:16Z</time>
      </trkpt>
      <trkpt lat="44.481834685429931" lon="9.140504049137235">
        <ele>870.30999999999995</ele>
        <time>2019-05-23T08:13:12Z</time>
      </trkpt>
      <trkpt lat="44.481706945225596" lon="9.140409752726555">
        <ele>875.17999999999995</ele>
        <time>2019-05-23T08:13:31Z</time>
      </trkpt>
      <trkpt lat="44.481653803959489" lon="9.140319563448429">
        <ele>873.98000000000002</ele>
        <time>2019-05-23T08:13:38Z</time>
      </trkpt>
      <trkpt lat="44.48119699023664" lon="9.139645406976342">
        <ele>873.50999999999999</ele>
        <time>2019-05-23T08:14:37Z</time>
      </trkpt>
      <trkpt lat="44.481137562543154" lon="9.13962135091424">
        <ele>872.72000000000003</ele>
        <time>2019-05-23T08:14:42Z</time>
      </trkpt>
      <trkpt lat="44.481027675792575" lon="9.139530826359987">
        <ele>871.85000000000002</ele>
        <time>2019-05-23T08:14:56Z</time>
      </trkpt>
      <trkpt lat="44.48100445792079" lon="9.139514900743961">
        <ele>871.28999999999996</ele>
        <time>2019-05-23T08:14:58Z</time>
      </trkpt>
      <trkpt lat="44.48086372576654" lon="9.139495203271508">
        <ele>870.40999999999997</ele>
        <time>2019-05-23T08:15:11Z</time>
      </trkpt>
      <trkpt lat="44.480825839564204" lon="9.139457317069173">
        <ele>869.40999999999997</ele>
        <time>2019-05-23T08:15:17Z</time>
      </trkpt>
      <trkpt lat="44.480766579508781" lon="9.139407444745302">
        <ele>868.98000000000002</ele>
        <time>2019-05-23T08:15:24Z</time>
      </trkpt>
      <trkpt lat="44.480670522898436" lon="9.1393350251019">
        <ele>866.49000000000001</ele>
        <time>2019-05-23T08:15:36Z</time>
      </trkpt>
      <trkpt lat="44.480638084933162" lon="9.139293031767011">
        <ele>865.90999999999997</ele>
        <time>2019-05-23T08:15:41Z</time>
      </trkpt>
      <trkpt lat="44.480540016666055" lon="9.139219103381038">
        <ele>863.21000000000004</ele>
        <time>2019-05-23T08:15:53Z</time>
      </trkpt>
      <trkpt lat="44.480512104928493" lon="9.13918205536902">
        <ele>862.17999999999995</ele>
        <time>2019-05-23T08:16:05Z</time>
      </trkpt>
      <trkpt lat="44.480435829609632" lon="9.139142576605082">
        <ele>859.59000000000003</ele>
        <time>2019-05-23T08:16:15Z</time>
      </trkpt>
      <trkpt lat="44.480368942022324" lon="9.139043502509594">
        <ele>856.82000000000005</ele>
        <time>2019-05-23T08:16:26Z</time>
      </trkpt>
      <trkpt lat="44.480340527370572" lon="9.138971418142319">
        <ele>853.64999999999998</ele>
        <time>2019-05-23T08:16:33Z</time>
      </trkpt>
      <trkpt lat="44.480262156575918" lon="9.138806713744998">
        <ele>850.30999999999995</ele>
        <time>2019-05-23T08:16:46Z</time>
      </trkpt>
      <trkpt lat="44.480247320607305" lon="9.138686852529645">
        <ele>848.10000000000002</ele>
        <time>2019-05-23T08:16:54Z</time>
      </trkpt>
      <trkpt lat="44.480234328657389" lon="9.138648714870215">
        <ele>846.94000000000005</ele>
        <time>2019-05-23T08:16:57Z</time>
      </trkpt>
      <trkpt lat="44.480195520445704" lon="9.13856690749526">
        <ele>842.73000000000002</ele>
        <time>2019-05-23T08:17:04Z</time>
      </trkpt>
      <trkpt lat="44.480146821588278" lon="9.138492057099938">
        <ele>839.54999999999995</ele>
        <time>2019-05-23T08:17:10Z</time>
      </trkpt>
      <trkpt lat="44.480123687535524" lon="9.13843153975904">
        <ele>837.48000000000002</ele>
        <time>2019-05-23T08:17:14Z</time>
      </trkpt>
      <trkpt lat="44.480111701413989" lon="9.138269014656544">
        <ele>834.03999999999996</ele>
        <time>2019-05-23T08:17:26Z</time>
      </trkpt>
      <trkpt lat="44.480018662288785" lon="9.13808218203485">
        <ele>834.34000000000003</ele>
        <time>2019-05-23T08:17:38Z</time>
      </trkpt>
      <trkpt lat="44.479942889884114" lon="9.137923093512654">
        <ele>834.45000000000005</ele>
        <time>2019-05-23T08:17:49Z</time>
      </trkpt>
      <trkpt lat="44.479880947619677" lon="9.137769117951393">
        <ele>834.36000000000001</ele>
        <time>2019-05-23T08:17:59Z</time>
      </trkpt>
      <trkpt lat="44.479776844382286" lon="9.137602066621184">
        <ele>833.23000000000002</ele>
        <time>2019-05-23T08:18:12Z</time>
      </trkpt>
      <trkpt lat="44.479712722823024" lon="9.137497544288635">
        <ele>833.70000000000005</ele>
        <time>2019-05-23T08:18:24Z</time>
      </trkpt>
      <trkpt lat="44.479704005643725" lon="9.137326469644904">
        <ele>832.20000000000005</ele>
        <time>2019-05-23T08:18:37Z</time>
      </trkpt>
      <trkpt lat="44.47935976088047" lon="9.136952804401517">
        <ele>836.14999999999998</ele>
        <time>2019-05-23T08:30:43Z</time>
      </trkpt>
      <trkpt lat="44.479337548837066" lon="9.136962611228228">
        <ele>835.47000000000003</ele>
        <time>2019-05-23T08:30:45Z</time>
      </trkpt>
      <trkpt lat="44.479301171377301" lon="9.13696127012372">
        <ele>834.25</ele>
        <time>2019-05-23T08:30:49Z</time>
      </trkpt>
      <trkpt lat="44.479263871908188" lon="9.136886922642589">
        <ele>835.87</ele>
        <time>2019-05-23T08:30:56Z</time>
      </trkpt>
      <trkpt lat="44.479286838322878" lon="9.136800086125732">
        <ele>836.28999999999996</ele>
        <time>2019-05-23T08:31:08Z</time>
      </trkpt>
      <trkpt lat="44.479271331802011" lon="9.136676453053951">
        <ele>838.49000000000001</ele>
        <time>2019-05-23T08:31:19Z</time>
      </trkpt>
      <trkpt lat="44.4792390614748" lon="9.136559190228581">
        <ele>836.55999999999995</ele>
        <time>2019-05-23T08:31:32Z</time>
      </trkpt>
      <trkpt lat="44.479192374274135" lon="9.136415021494031">
        <ele>837.65999999999997</ele>
        <time>2019-05-23T08:31:46Z</time>
      </trkpt>
      <trkpt lat="44.47912766598165" lon="9.136260794475675">
        <ele>838.40999999999997</ele>
        <time>2019-05-23T08:31:59Z</time>
      </trkpt>
      <trkpt lat="44.479076033458114" lon="9.13611008785665">
        <ele>837.63</ele>
        <time>2019-05-23T08:32:12Z</time>
      </trkpt>
      <trkpt lat="44.479057006537914" lon="9.136035572737455">
        <ele>840.75999999999999</ele>
        <time>2019-05-23T08:32:18Z</time>
      </trkpt>
      <trkpt lat="44.478986179456115" lon="9.135875143110752">
        <ele>841.58000000000004</ele>
        <time>2019-05-23T08:32:31Z</time>
      </trkpt>
      <trkpt lat="44.478963296860456" lon="9.135622596368194">
        <ele>842.63999999999999</ele>
        <time>2019-05-23T08:32:47Z</time>
      </trkpt>
      <trkpt lat="44.478953573852777" lon="9.135429142042995">
        <ele>842.05999999999995</ele>
        <time>2019-05-23T08:33:00Z</time>
      </trkpt>
      <trkpt lat="44.478851314634085" lon="9.135191598907113">
        <ele>843.55999999999995</ele>
        <time>2019-05-23T08:33:17Z</time>
      </trkpt>
      <trkpt lat="44.478816194459796" lon="9.135135691612959">
        <ele>844.17999999999995</ele>
        <time>2019-05-23T08:33:22Z</time>
      </trkpt>
      <trkpt lat="44.478716198354959" lon="9.13491633720696">
        <ele>844.65999999999997</ele>
        <time>2019-05-23T08:33:38Z</time>
      </trkpt>
      <trkpt lat="44.478679737076163" lon="9.13484551012516">
        <ele>844.45000000000005</ele>
        <time>2019-05-23T08:33:43Z</time>
      </trkpt>
      <trkpt lat="44.478545961901546" lon="9.134745681658387">
        <ele>843.30999999999995</ele>
        <time>2019-05-23T08:33:57Z</time>
      </trkpt>
      <trkpt lat="44.478460215032101" lon="9.13470771163702">
        <ele>843.90999999999997</ele>
        <time>2019-05-23T08:34:08Z</time>
      </trkpt>
      <trkpt lat="44.478388214483857" lon="9.13469010964036">
        <ele>845.88999999999999</ele>
        <time>2019-05-23T08:34:18Z</time>
      </trkpt>
      <trkpt lat="44.478336330503225" lon="9.134579803794622">
        <ele>847.80999999999995</ele>
        <time>2019-05-23T08:34:33Z</time>
      </trkpt>
      <trkpt lat="44.478282351046801" lon="9.134470671415329">
        <ele>849.38999999999999</ele>
        <time>2019-05-23T08:34:47Z</time>
      </trkpt>
      <trkpt lat="44.478181097656488" lon="9.134370256215334">
        <ele>849.5</ele>
        <time>2019-05-23T08:35:00Z</time>
      </trkpt>
      <trkpt lat="44.478043802082539" lon="9.134236397221685">
        <ele>850.5</ele>
        <time>2019-05-23T08:35:15Z</time>
      </trkpt>
      <trkpt lat="44.477946572005749" lon="9.134166827425361">
        <ele>852.32000000000005</ele>
        <time>2019-05-23T08:35:28Z</time>
      </trkpt>
      <trkpt lat="44.478044807910919" lon="9.13344556465745">
        <ele>851.39999999999998</ele>
        <time>2019-05-23T08:36:39Z</time>
      </trkpt>
      <trkpt lat="44.478120245039463" lon="9.133337270468473">
        <ele>851.42999999999995</ele>
        <time>2019-05-23T08:36:48Z</time>
      </trkpt>
      <trkpt lat="44.478181265294552" lon="9.133128728717566">
        <ele>848.05999999999995</ele>
        <time>2019-05-23T08:37:01Z</time>
      </trkpt>
      <trkpt lat="44.478198112919927" lon="9.133091513067484">
        <ele>846.88</ele>
        <time>2019-05-23T08:37:05Z</time>
      </trkpt>
      <trkpt lat="44.478247314691544" lon="9.13297357968986">
        <ele>844.72000000000003</ele>
        <time>2019-05-23T08:37:14Z</time>
      </trkpt>
      <trkpt lat="44.478249158710241" lon="9.132882468402386">
        <ele>843.60000000000002</ele>
        <time>2019-05-23T08:37:19Z</time>
      </trkpt>
      <trkpt lat="44.478244967758656" lon="9.132791273295879">
        <ele>841.89999999999998</ele>
        <time>2019-05-23T08:37:24Z</time>
      </trkpt>
      <trkpt lat="44.478225437924266" lon="9.132700162008405">
        <ele>840.95000000000005</ele>
        <time>2019-05-23T08:37:29Z</time>
      </trkpt>
      <trkpt lat="44.478227868676186" lon="9.132472593337297">
        <ele>838.75999999999999</ele>
        <time>2019-05-23T08:37:44Z</time>
      </trkpt>
      <trkpt lat="44.478227365761995" lon="9.132403610274196">
        <ele>838.82000000000005</ele>
        <time>2019-05-23T08:37:57Z</time>
      </trkpt>
      <trkpt lat="44.47820951230824" lon="9.132189368829131">
        <ele>836.29999999999995</ele>
        <time>2019-05-23T08:38:10Z</time>
      </trkpt>
      <trkpt lat="44.478181852027774" lon="9.131946209818125">
        <ele>834.5</ele>
        <time>2019-05-23T08:38:25Z</time>
      </trkpt>
      <trkpt lat="44.478141870349646" lon="9.13175443187356">
        <ele>836.20000000000005</ele>
        <time>2019-05-23T08:38:37Z</time>
      </trkpt>
      <trkpt lat="44.478118987753987" lon="9.131602803245187">
        <ele>836.29999999999995</ele>
        <time>2019-05-23T08:38:46Z</time>
      </trkpt>
      <trkpt lat="44.478045394644141" lon="9.131385544314981">
        <ele>837.53999999999996</ele>
        <time>2019-05-23T08:39:01Z</time>
      </trkpt>
      <trkpt lat="44.477990493178368" lon="9.13116660900414">
        <ele>839.38999999999999</ele>
        <time>2019-05-23T08:39:13Z</time>
      </trkpt>
      <trkpt lat="44.477946404367685" lon="9.130927473306656">
        <ele>839.40999999999997</ele>
        <time>2019-05-23T08:39:27Z</time>
      </trkpt>
      <trkpt lat="44.477909523993731" lon="9.130689175799489">
        <ele>837.00999999999999</ele>
        <time>2019-05-23T08:39:41Z</time>
      </trkpt>
      <trkpt lat="44.477871805429459" lon="9.130410561338067">
        <ele>834.28999999999996</ele>
        <time>2019-05-23T08:39:57Z</time>
      </trkpt>
      <trkpt lat="44.47785914875567" lon="9.130301093682647">
        <ele>832.38</ele>
        <time>2019-05-23T08:40:09Z</time>
      </trkpt>
      <trkpt lat="44.477851018309593" lon="9.130291705951095">
        <ele>832.23000000000002</ele>
        <time>2019-05-23T08:40:20Z</time>
      </trkpt>
      <trkpt lat="44.477782202884555" lon="9.130061538890004">
        <ele>829.12</ele>
        <time>2019-05-23T08:40:36Z</time>
      </trkpt>
      <trkpt lat="44.477755464613438" lon="9.129829360172153">
        <ele>826.05999999999995</ele>
        <time>2019-05-23T08:40:51Z</time>
      </trkpt>
      <trkpt lat="44.477719757705927" lon="9.129633978009224">
        <ele>823.01999999999998</ele>
        <time>2019-05-23T08:41:03Z</time>
      </trkpt>
      <trkpt lat="44.477731408551335" lon="9.129528114572167">
        <ele>822.90999999999997</ele>
        <time>2019-05-23T08:41:14Z</time>
      </trkpt>
      <trkpt lat="44.477758230641484" lon="9.129373887553811">
        <ele>821.5</ele>
        <time>2019-05-23T08:41:27Z</time>
      </trkpt>
      <trkpt lat="44.477629316970706" lon="9.128842726349831">
        <ele>819.92999999999995</ele>
        <time>2019-05-23T08:42:08Z</time>
      </trkpt>
      <trkpt lat="44.477615989744663" lon="9.128730073571205">
        <ele>823.09000000000003</ele>
        <time>2019-05-23T08:42:16Z</time>
      </trkpt>
      <trkpt lat="44.477597801014781" lon="9.128590514883399">
        <ele>825.92999999999995</ele>
        <time>2019-05-23T08:42:29Z</time>
      </trkpt>
      <trkpt lat="44.477570727467537" lon="9.128499319776893">
        <ele>829.01999999999998</ele>
        <time>2019-05-23T08:42:37Z</time>
      </trkpt>
      <trkpt lat="44.477574918419123" lon="9.128390857949853">
        <ele>833.52999999999997</ele>
        <time>2019-05-23T08:44:03Z</time>
      </trkpt>
      <trkpt lat="44.477541642263532" lon="9.128265380859375">
        <ele>835</ele>
        <time>2019-05-23T08:44:15Z</time>
      </trkpt>
      <trkpt lat="44.47750392369926" lon="9.128112997859716">
        <ele>833.69000000000005</ele>
        <time>2019-05-23T08:44:28Z</time>
      </trkpt>
      <trkpt lat="44.47747265920043" lon="9.127948461100459">
        <ele>832.75</ele>
        <time>2019-05-23T08:44:41Z</time>
      </trkpt>
      <trkpt lat="44.477427480742335" lon="9.12777503952384">
        <ele>833.21000000000004</ele>
        <time>2019-05-23T08:44:55Z</time>
      </trkpt>
      <trkpt lat="44.477393366396427" lon="9.127609832212329">
        <ele>832.80999999999995</ele>
        <time>2019-05-23T08:45:09Z</time>
      </trkpt>
      <trkpt lat="44.477371824905276" lon="9.12750874646008">
        <ele>833.24000000000001</ele>
        <time>2019-05-23T08:45:31Z</time>
      </trkpt>
      <trkpt lat="44.477373920381069" lon="9.127288721501827">
        <ele>830.15999999999997</ele>
        <time>2019-05-23T08:45:46Z</time>
      </trkpt>
      <trkpt lat="44.477426139637828" lon="9.127022176980972">
        <ele>828.35000000000002</ele>
        <time>2019-05-23T08:46:03Z</time>
      </trkpt>
      <trkpt lat="44.477422954514623" lon="9.126789076253772">
        <ele>825.52999999999997</ele>
        <time>2019-05-23T08:46:17Z</time>
      </trkpt>
      <trkpt lat="44.47743896394968" lon="9.126614145934582">
        <ele>823.96000000000004</ele>
        <time>2019-05-23T08:46:29Z</time>
      </trkpt>
      <trkpt lat="44.477430582046509" lon="9.126569135114551">
        <ele>822.09000000000003</ele>
        <time>2019-05-23T08:46:33Z</time>
      </trkpt>
      <trkpt lat="44.477441813796759" lon="9.126493949443102">
        <ele>821.38999999999999</ele>
        <time>2019-05-23T08:46:38Z</time>
      </trkpt>
      <trkpt lat="44.477444579824805" lon="9.126395210623741">
        <ele>819.80999999999995</ele>
        <time>2019-05-23T08:46:44Z</time>
      </trkpt>
      <trkpt lat="44.477421026676893" lon="9.1262471023947">
        <ele>816.09000000000003</ele>
        <time>2019-05-23T08:46:54Z</time>
      </trkpt>
      <trkpt lat="44.477417003363371" lon="9.126018863171339">
        <ele>814.26999999999998</ele>
        <time>2019-05-23T08:47:08Z</time>
      </trkpt>
      <trkpt lat="44.477427061647177" lon="9.125924985855818">
        <ele>813.99000000000001</ele>
        <time>2019-05-23T08:47:15Z</time>
      </trkpt>
      <trkpt lat="44.477387666702271" lon="9.125824654474855">
        <ele>814.70000000000005</ele>
        <time>2019-05-23T08:47:22Z</time>
      </trkpt>
      <trkpt lat="44.477336872369051" lon="9.125459119677544">
        <ele>816.96000000000004</ele>
        <time>2019-05-23T08:47:43Z</time>
      </trkpt>
      <trkpt lat="44.477298147976398" lon="9.125213865190744">
        <ele>817.67999999999995</ele>
        <time>2019-05-23T08:47:57Z</time>
      </trkpt>
      <trkpt lat="44.477207791060209" lon="9.124998785555363">
        <ele>819.35000000000002</ele>
        <time>2019-05-23T08:48:12Z</time>
      </trkpt>
      <trkpt lat="44.477156242355704" lon="9.124772222712636">
        <ele>821.35000000000002</ele>
        <time>2019-05-23T08:48:27Z</time>
      </trkpt>
      <trkpt lat="44.477075273171067" lon="9.124570805579424">
        <ele>822.64999999999998</ele>
        <time>2019-05-23T08:48:42Z</time>
      </trkpt>
      <trkpt lat="44.477037722244859" lon="9.124384643509984">
        <ele>823.61000000000001</ele>
        <time>2019-05-23T08:48:55Z</time>
      </trkpt>
      <trkpt lat="44.476960608735681" lon="9.12426863797009">
        <ele>824.5</ele>
        <time>2019-05-23T08:49:10Z</time>
      </trkpt>
      <trkpt lat="44.47687997482717" lon="9.124162355437875">
        <ele>823.40999999999997</ele>
        <time>2019-05-23T08:49:21Z</time>
      </trkpt>
      <trkpt lat="44.476676713675261" lon="9.123955992981792">
        <ele>822.85000000000002</ele>
        <time>2019-05-23T08:49:40Z</time>
      </trkpt>
      <trkpt lat="44.476548302918673" lon="9.123854739591479">
        <ele>823.00999999999999</ele>
        <time>2019-05-23T08:49:54Z</time>
      </trkpt>
      <trkpt lat="44.476405140012503" lon="9.123814841732383">
        <ele>822.69000000000005</ele>
        <time>2019-05-23T08:50:08Z</time>
      </trkpt>
      <trkpt lat="44.476253259927034" lon="9.123707385733724">
        <ele>822.25</ele>
        <time>2019-05-23T08:50:23Z</time>
      </trkpt>
      <trkpt lat="44.476086795330048" lon="9.123682742938399">
        <ele>821.01999999999998</ele>
        <time>2019-05-23T08:50:38Z</time>
      </trkpt>
      <trkpt lat="44.47598822414875" lon="9.123541759327054">
        <ele>819.72000000000003</ele>
        <time>2019-05-23T08:50:50Z</time>
      </trkpt>
      <trkpt lat="44.475850509479642" lon="9.123341348022223">
        <ele>819.35000000000002</ele>
        <time>2019-05-23T08:51:06Z</time>
      </trkpt>
      <trkpt lat="44.475702904164791" lon="9.123241268098354">
        <ele>817.20000000000005</ele>
        <time>2019-05-23T08:51:20Z</time>
      </trkpt>
      <trkpt lat="44.475567871704698" lon="9.123204974457622">
        <ele>815.25</ele>
        <time>2019-05-23T08:51:31Z</time>
      </trkpt>
      <trkpt lat="44.475447172299027" lon="9.123168345540762">
        <ele>814.46000000000004</ele>
        <time>2019-05-23T08:51:41Z</time>
      </trkpt>
      <trkpt lat="44.47536863386631" lon="9.123171111568809">
        <ele>811.16999999999996</ele>
        <time>2019-05-23T08:51:49Z</time>
      </trkpt>
      <trkpt lat="44.475360168144107" lon="9.123166082426906">
        <ele>810.77999999999997</ele>
        <time>2019-05-23T08:51:50Z</time>
      </trkpt>
      <trkpt lat="44.475311217829585" lon="9.123110342770815">
        <ele>808.88</ele>
        <time>2019-05-23T08:51:56Z</time>
      </trkpt>
      <trkpt lat="44.475275594741106" lon="9.123031049966812">
        <ele>806.19000000000005</ele>
        <time>2019-05-23T08:52:03Z</time>
      </trkpt>
      <trkpt lat="44.475210970267653" lon="9.122990649193525">
        <ele>802.40999999999997</ele>
        <time>2019-05-23T08:52:10Z</time>
      </trkpt>
      <trkpt lat="44.475143915042281" lon="9.122996181249619">
        <ele>799.09000000000003</ele>
        <time>2019-05-23T08:52:20Z</time>
      </trkpt>
      <trkpt lat="44.475071495398879" lon="9.122983692213893">
        <ele>795.97000000000003</ele>
        <time>2019-05-23T08:52:27Z</time>
      </trkpt>
      <trkpt lat="44.47501240298152" lon="9.122960390523076">
        <ele>795.73000000000002</ele>
        <time>2019-05-23T08:52:39Z</time>
      </trkpt>
      <trkpt lat="44.474969739094377" lon="9.12294739857316">
        <ele>796.09000000000003</ele>
        <time>2019-05-23T08:52:45Z</time>
      </trkpt>
      <trkpt lat="44.474893966689706" lon="9.122927198186517">
        <ele>794.40999999999997</ele>
        <time>2019-05-23T08:52:52Z</time>
      </trkpt>
      <trkpt lat="44.474814003333449" lon="9.122911775484681">
        <ele>791.61000000000001</ele>
        <time>2019-05-23T08:53:03Z</time>
      </trkpt>
      <trkpt lat="44.474768070504069" lon="9.122910937294364">
        <ele>790.88999999999999</ele>
        <time>2019-05-23T08:53:08Z</time>
      </trkpt>
      <trkpt lat="44.47462935000658" lon="9.12294203415513">
        <ele>787.34000000000003</ele>
        <time>2019-05-23T08:53:21Z</time>
      </trkpt>
      <trkpt lat="44.474517367780209" lon="9.122945219278336">
        <ele>787.59000000000003</ele>
        <time>2019-05-23T08:53:29Z</time>
      </trkpt>
      <trkpt lat="44.47448174469173" lon="9.123014789074659">
        <ele>789.39999999999998</ele>
        <time>2019-05-23T08:53:34Z</time>
      </trkpt>
      <trkpt lat="44.47446858510375" lon="9.123043036088347">
        <ele>790.41999999999996</ele>
        <time>2019-05-23T08:53:36Z</time>
      </trkpt>
      <trkpt lat="44.4743537530303" lon="9.12311352789402">
        <ele>790.71000000000004</ele>
        <time>2019-05-23T08:53:49Z</time>
      </trkpt>
      <trkpt lat="44.47419935837388" lon="9.123107492923737">
        <ele>793.98000000000002</ele>
        <time>2019-05-23T08:54:01Z</time>
      </trkpt>
      <trkpt lat="44.474073210731149" lon="9.12309399805963">
        <ele>797.29999999999995</ele>
        <time>2019-05-23T08:54:12Z</time>
      </trkpt>
      <trkpt lat="44.474011519923806" lon="9.123110845685005">
        <ele>800.45000000000005</ele>
        <time>2019-05-23T08:54:21Z</time>
      </trkpt>
      <trkpt lat="44.474010933190584" lon="9.123109001666307">
        <ele>803.46000000000004</ele>
        <time>2019-05-23T08:54:38Z</time>
      </trkpt>
      <trkpt lat="44.473978746682405" lon="9.123079162091017">
        <ele>803.72000000000003</ele>
        <time>2019-05-23T08:54:51Z</time>
      </trkpt>
      <trkpt lat="44.473966844379902" lon="9.123058374971151">
        <ele>803.13999999999999</ele>
        <time>2019-05-23T08:54:53Z</time>
      </trkpt>
      <trkpt lat="44.473879002034664" lon="9.12292736582458">
        <ele>799.74000000000001</ele>
        <time>2019-05-23T08:55:10Z</time>
      </trkpt>
      <trkpt lat="44.473818903788924" lon="9.122869614511728">
        <ele>796.72000000000003</ele>
        <time>2019-05-23T08:55:18Z</time>
      </trkpt>
      <trkpt lat="44.473766013979912" lon="9.122781185433269">
        <ele>793.63999999999999</ele>
        <time>2019-05-23T08:55:27Z</time>
      </trkpt>
      <trkpt lat="44.473712369799614" lon="9.122722176834941">
        <ele>790.39999999999998</ele>
        <time>2019-05-23T08:55:37Z</time>
      </trkpt>
      <trkpt lat="44.473636765033007" lon="9.122640369459987">
        <ele>787.12</ele>
        <time>2019-05-23T08:55:49Z</time>
      </trkpt>
      <trkpt lat="44.473586725071073" lon="9.122582785785198">
        <ele>784.05999999999995</ele>
        <time>2019-05-23T08:55:57Z</time>
      </trkpt>
      <trkpt lat="44.473533416166902" lon="9.122495781630278">
        <ele>781</ele>
        <time>2019-05-23T08:56:06Z</time>
      </trkpt>
      <trkpt lat="44.473485555499792" lon="9.122428055852652">
        <ele>777.99000000000001</ele>
        <time>2019-05-23T08:56:14Z</time>
      </trkpt>
      <trkpt lat="44.473431743681431" lon="9.122365610674024">
        <ele>774.49000000000001</ele>
        <time>2019-05-23T08:56:23Z</time>
      </trkpt>
      <trkpt lat="44.47336376644671" lon="9.122318252921104">
        <ele>771.25</ele>
        <time>2019-05-23T08:56:32Z</time>
      </trkpt>
      <trkpt lat="44.473304338753223" lon="9.122269889339805">
        <ele>767.70000000000005</ele>
        <time>2019-05-23T08:56:38Z</time>
      </trkpt>
      <trkpt lat="44.473258992657065" lon="9.122220436111093">
        <ele>765.07000000000005</ele>
        <time>2019-05-23T08:56:44Z</time>
      </trkpt>
      <trkpt lat="44.473205097019672" lon="9.122131336480379">
        <ele>761.75</ele>
        <time>2019-05-23T08:56:51Z</time>
      </trkpt>
      <trkpt lat="44.473194954916835" lon="9.122118344530463">
        <ele>761.45000000000005</ele>
        <time>2019-05-23T08:56:52Z</time>
      </trkpt>
      <trkpt lat="44.473112728446722" lon="9.122016588225961">
        <ele>758.48000000000002</ele>
        <time>2019-05-23T08:57:04Z</time>
      </trkpt>
      <trkpt lat="44.473005523905158" lon="9.121981216594577">
        <ele>756.14999999999998</ele>
        <time>2019-05-23T08:57:16Z</time>
      </trkpt>
      <trkpt lat="44.472896978259087" lon="9.121881555765867">
        <ele>756.62</ele>
        <time>2019-05-23T08:57:40Z</time>
      </trkpt>
      <trkpt lat="44.47289421223104" lon="9.121880466118455">
        <ele>757.51999999999998</ele>
        <time>2019-05-23T08:57:42Z</time>
      </trkpt>
      <trkpt lat="44.47282774373889" lon="9.121789773926139">
        <ele>758.71000000000004</ele>
        <time>2019-05-23T08:57:56Z</time>
      </trkpt>
      <trkpt lat="44.472759095951915" lon="9.1217106487602">
        <ele>759.63</ele>
        <time>2019-05-23T08:58:10Z</time>
      </trkpt>
      <trkpt lat="44.472754150629044" lon="9.12169748917222">
        <ele>762.67999999999995</ele>
        <time>2019-05-23T08:58:20Z</time>
      </trkpt>
      <trkpt lat="44.472674774006009" lon="9.121603444218636">
        <ele>761.35000000000002</ele>
        <time>2019-05-23T08:58:30Z</time>
      </trkpt>
      <trkpt lat="44.472599253058434" lon="9.121548710390925">
        <ele>758.24000000000001</ele>
        <time>2019-05-23T08:58:38Z</time>
      </trkpt>
      <trkpt lat="44.4725819863379" lon="9.121526498347521">
        <ele>757.51999999999998</ele>
        <time>2019-05-23T08:58:40Z</time>
      </trkpt>
      <trkpt lat="44.472502022981644" lon="9.121465226635337">
        <ele>753.83000000000004</ele>
        <time>2019-05-23T08:58:49Z</time>
      </trkpt>
      <trkpt lat="44.472446283325553" lon="9.12140185944736">
        <ele>751.5</ele>
        <time>2019-05-23T08:58:56Z</time>
      </trkpt>
      <trkpt lat="44.47236011736095" lon="9.12136229686439">
        <ele>751.30999999999995</ele>
        <time>2019-05-23T08:59:09Z</time>
      </trkpt>
      <trkpt lat="44.472281998023391" lon="9.121314687654376">
        <ele>753.44000000000005</ele>
        <time>2019-05-23T08:59:20Z</time>
      </trkpt>
      <trkpt lat="44.47216909378767" lon="9.121190467849374">
        <ele>753.08000000000004</ele>
        <time>2019-05-23T08:59:32Z</time>
      </trkpt>
      <trkpt lat="44.472068259492517" lon="9.121047221124172">
        <ele>751.40999999999997</ele>
        <time>2019-05-23T08:59:45Z</time>
      </trkpt>
      <trkpt lat="44.472015788778663" lon="9.120974047109485">
        <ele>748.23000000000002</ele>
        <time>2019-05-23T08:59:53Z</time>
      </trkpt>
      <trkpt lat="44.471982261165977" lon="9.12088486365974">
        <ele>745.16999999999996</ele>
        <time>2019-05-23T09:00:02Z</time>
      </trkpt>
      <trkpt lat="44.471920570358634" lon="9.120761314406991">
        <ele>742.10000000000002</ele>
        <time>2019-05-23T09:00:15Z</time>
      </trkpt>
      <trkpt lat="44.471859633922577" lon="9.120675232261419">
        <ele>739</ele>
        <time>2019-05-23T09:00:25Z</time>
      </trkpt>
      <trkpt lat="44.471810683608055" lon="9.120601722970605">
        <ele>735.90999999999997</ele>
        <time>2019-05-23T09:00:36Z</time>
      </trkpt>
      <trkpt lat="44.471752094104886" lon="9.120532991364598">
        <ele>732.53999999999996</ele>
        <time>2019-05-23T09:00:46Z</time>
      </trkpt>
      <trkpt lat="44.471734324470162" lon="9.120517652481794">
        <ele>731.27999999999997</ele>
        <time>2019-05-23T09:00:49Z</time>
      </trkpt>
      <trkpt lat="44.4716736394912" lon="9.12045537494123">
        <ele>727.92999999999995</ele>
        <time>2019-05-23T09:01:00Z</time>
      </trkpt>
      <trkpt lat="44.471600968390703" lon="9.120375327765942">
        <ele>724.63999999999999</ele>
        <time>2019-05-23T09:01:10Z</time>
      </trkpt>
      <trkpt lat="44.471442382782698" lon="9.120229398831725">
        <ele>723.05999999999995</ele>
        <time>2019-05-23T09:01:25Z</time>
      </trkpt>
      <trkpt lat="44.471334591507912" lon="9.120103502646089">
        <ele>723.25999999999999</ele>
        <time>2019-05-23T09:01:38Z</time>
      </trkpt>
      <trkpt lat="44.471223279833794" lon="9.119922034442425">
        <ele>722.76999999999998</ele>
        <time>2019-05-23T09:01:53Z</time>
      </trkpt>
      <trkpt lat="44.471190087497234" lon="9.119801837950945">
        <ele>720.01999999999998</ele>
        <time>2019-05-23T09:02:05Z</time>
      </trkpt>
      <trkpt lat="44.471159493550658" lon="9.119774848222733">
        <ele>718.80999999999995</ele>
        <time>2019-05-23T09:02:08Z</time>
      </trkpt>
      <trkpt lat="44.471093444153666" lon="9.119736542925239">
        <ele>718.60000000000002</ele>
        <time>2019-05-23T09:02:14Z</time>
      </trkpt>
      <trkpt lat="44.471041560173035" lon="9.119665129110217">
        <ele>718.14999999999998</ele>
        <time>2019-05-23T09:02:20Z</time>
      </trkpt>
      <trkpt lat="44.470914155244827" lon="9.119518026709557">
        <ele>717.37</ele>
        <time>2019-05-23T09:02:33Z</time>
      </trkpt>
      <trkpt lat="44.470909461379051" lon="9.119432447478175">
        <ele>716.79999999999995</ele>
        <time>2019-05-23T09:02:40Z</time>
      </trkpt>
      <trkpt lat="44.470852464437485" lon="9.11930956877768">
        <ele>714.26999999999998</ele>
        <time>2019-05-23T09:02:52Z</time>
      </trkpt>
      <trkpt lat="44.470793874934316" lon="9.119182415306568">
        <ele>711.14999999999998</ele>
        <time>2019-05-23T09:03:04Z</time>
      </trkpt>
      <trkpt lat="44.470736207440495" lon="9.119048221036792">
        <ele>708.02999999999997</ele>
        <time>2019-05-23T09:03:16Z</time>
      </trkpt>
      <trkpt lat="44.470727993175387" lon="9.119047215208411">
        <ele>707.90999999999997</ele>
        <time>2019-05-23T09:03:17Z</time>
      </trkpt>
      <trkpt lat="44.470638139173388" lon="9.11899633705616">
        <ele>705.13</ele>
        <time>2019-05-23T09:03:28Z</time>
      </trkpt>
      <trkpt lat="44.470579214394093" lon="9.118854012340307">
        <ele>701.59000000000003</ele>
        <time>2019-05-23T09:03:40Z</time>
      </trkpt>
      <trkpt lat="44.470552308484912" lon="9.11881260573864">
        <ele>700.22000000000003</ele>
        <time>2019-05-23T09:03:44Z</time>
      </trkpt>
      <trkpt lat="44.470503525808454" lon="9.11874320358038">
        <ele>696.58000000000004</ele>
        <time>2019-05-23T09:03:52Z</time>
      </trkpt>
      <trkpt lat="44.47049162350595" lon="9.118652762845159">
        <ele>693.45000000000005</ele>
        <time>2019-05-23T09:04:01Z</time>
      </trkpt>
      <trkpt lat="44.470503022894263" lon="9.118585959076881">
        <ele>690.38</ele>
        <time>2019-05-23T09:04:09Z</time>
      </trkpt>
      <trkpt lat="44.470511069521308" lon="9.118494847789407">
        <ele>687.10000000000002</ele>
        <time>2019-05-23T09:04:17Z</time>
      </trkpt>
      <trkpt lat="44.470497071743011" lon="9.118412956595421">
        <ele>683.74000000000001</ele>
        <time>2019-05-23T09:04:24Z</time>
      </trkpt>
      <trkpt lat="44.470493802800775" lon="9.118408262729645">
        <ele>683.67999999999995</ele>
        <time>2019-05-23T09:04:25Z</time>
      </trkpt>
      <trkpt lat="44.470456335693598" lon="9.118327125906944">
        <ele>680.25999999999999</ele>
        <time>2019-05-23T09:04:37Z</time>
      </trkpt>
      <trkpt lat="44.470384754240513" lon="9.118249258026481">
        <ele>677.29999999999995</ele>
        <time>2019-05-23T09:04:48Z</time>
      </trkpt>
      <trkpt lat="44.470306634902954" lon="9.118235763162375">
        <ele>674.16999999999996</ele>
        <time>2019-05-23T09:04:57Z</time>
      </trkpt>
      <trkpt lat="44.470229940488935" lon="9.11822285503149">
        <ele>671.03999999999996</ele>
        <time>2019-05-23T09:05:05Z</time>
      </trkpt>
      <trkpt lat="44.470107732340693" lon="9.11823308095336">
        <ele>670.49000000000001</ele>
        <time>2019-05-23T09:05:17Z</time>
      </trkpt>
      <trkpt lat="44.470041431486607" lon="9.118235260248184">
        <ele>669.37</ele>
        <time>2019-05-23T09:05:28Z</time>
      </trkpt>
      <trkpt lat="44.469897514209151" lon="9.118134425953031">
        <ele>667.79999999999995</ele>
        <time>2019-05-23T09:05:40Z</time>
      </trkpt>
      <trkpt lat="44.469859879463911" lon="9.118085894733667">
        <ele>667.10000000000002</ele>
        <time>2019-05-23T09:05:45Z</time>
      </trkpt>
      <trkpt lat="44.469700455665588" lon="9.11797558888793">
        <ele>664.89999999999998</ele>
        <time>2019-05-23T09:06:01Z</time>
      </trkpt>
      <trkpt lat="44.469595430418849" lon="9.117909288033843">
        <ele>664.95000000000005</ele>
        <time>2019-05-23T09:06:13Z</time>
      </trkpt>
      <trkpt lat="44.469459811225533" lon="9.117860672995448">
        <ele>662.65999999999997</ele>
        <time>2019-05-23T09:06:26Z</time>
      </trkpt>
      <trkpt lat="44.469348667189479" lon="9.117841562256217">
        <ele>661.38</ele>
        <time>2019-05-23T09:06:36Z</time>
      </trkpt>
      <trkpt lat="44.469244061037898" lon="9.117821278050542">
        <ele>660.04999999999995</ele>
        <time>2019-05-23T09:06:48Z</time>
      </trkpt>
      <trkpt lat="44.469220340251923" lon="9.117826893925667">
        <ele>660.34000000000003</ele>
        <time>2019-05-23T09:06:50Z</time>
      </trkpt>
      <trkpt lat="44.469136521220207" lon="9.117820356041193">
        <ele>658.53999999999996</ele>
        <time>2019-05-23T09:06:57Z</time>
      </trkpt>
      <trkpt lat="44.469110034406185" lon="9.117814153432846">
        <ele>657.67999999999995</ele>
        <time>2019-05-23T09:07:00Z</time>
      </trkpt>
      <trkpt lat="44.46901154704392" lon="9.117755647748709">
        <ele>654.05999999999995</ele>
        <time>2019-05-23T09:07:10Z</time>
      </trkpt>
      <trkpt lat="44.468958154320717" lon="9.117704518139362">
        <ele>651</ele>
        <time>2019-05-23T09:07:17Z</time>
      </trkpt>
      <trkpt lat="44.468913562595844" lon="9.117678115144372">
        <ele>647.78999999999996</ele>
        <time>2019-05-23T09:07:23Z</time>
      </trkpt>
      <trkpt lat="44.468866959214211" lon="9.117650873959065">
        <ele>645.54999999999995</ele>
        <time>2019-05-23T09:07:28Z</time>
      </trkpt>
      <trkpt lat="44.468761179596186" lon="9.117581807076931">
        <ele>648.99000000000001</ele>
        <time>2019-05-23T09:07:40Z</time>
      </trkpt>
      <trkpt lat="44.46874919347465" lon="9.117566468194127">
        <ele>652.03999999999996</ele>
        <time>2019-05-23T09:07:44Z</time>
      </trkpt>
      <trkpt lat="44.468746595084667" lon="9.117483152076602">
        <ele>652.76999999999998</ele>
        <time>2019-05-23T09:07:55Z</time>
      </trkpt>
      <trkpt lat="44.468671241775155" lon="9.117386844009161">
        <ele>649.53999999999996</ele>
        <time>2019-05-23T09:08:06Z</time>
      </trkpt>
      <trkpt lat="44.468567725270987" lon="9.117341749370098">
        <ele>646.20000000000005</ele>
        <time>2019-05-23T09:08:18Z</time>
      </trkpt>
      <trkpt lat="44.468558672815561" lon="9.117341078817844">
        <ele>645.90999999999997</ele>
        <time>2019-05-23T09:08:19Z</time>
      </trkpt>
      <trkpt lat="44.468518774956465" lon="9.117340575903654">
        <ele>642.69000000000005</ele>
        <time>2019-05-23T09:08:24Z</time>
      </trkpt>
      <trkpt lat="44.468470411375165" lon="9.117312831804156">
        <ele>639.27999999999997</ele>
        <time>2019-05-23T09:08:30Z</time>
      </trkpt>
      <trkpt lat="44.468412240967155" lon="9.117276202887297">
        <ele>635.57000000000005</ele>
        <time>2019-05-23T09:08:36Z</time>
      </trkpt>
      <trkpt lat="44.46836949326098" lon="9.117256673052907">
        <ele>632.37</ele>
        <time>2019-05-23T09:08:42Z</time>
      </trkpt>
      <trkpt lat="44.468319118022919" lon="9.117250135168433">
        <ele>629.16999999999996</ele>
        <time>2019-05-23T09:08:48Z</time>
      </trkpt>
      <trkpt lat="44.468234796077013" lon="9.11726756952703">
        <ele>628.14999999999998</ele>
        <time>2019-05-23T09:08:55Z</time>
      </trkpt>
      <trkpt lat="44.468111833557487" lon="9.117280058562756">
        <ele>624.58000000000004</ele>
        <time>2019-05-23T09:09:06Z</time>
      </trkpt>
      <trkpt lat="44.467976046726108" lon="9.117326578125358">
        <ele>624.22000000000003</ele>
        <time>2019-05-23T09:09:20Z</time>
      </trkpt>
      <trkpt lat="44.467906225472689" lon="9.117266563698649">
        <ele>621.69000000000005</ele>
        <time>2019-05-23T09:09:34Z</time>
      </trkpt>
      <trkpt lat="44.46785744279623" lon="9.117216942831874">
        <ele>622.83000000000004</ele>
        <time>2019-05-23T09:09:38Z</time>
      </trkpt>
      <trkpt lat="44.46781737729907" lon="9.117105547338724">
        <ele>626.16999999999996</ele>
        <time>2019-05-23T09:09:43Z</time>
      </trkpt>
      <trkpt lat="44.467794662341475" lon="9.11704913713038">
        <ele>629.38999999999999</ele>
        <time>2019-05-23T09:09:46Z</time>
      </trkpt>
      <trkpt lat="44.467750657349825" lon="9.116957103833556">
        <ele>633.00999999999999</ele>
        <time>2019-05-23T09:09:51Z</time>
      </trkpt>
      <trkpt lat="44.467718889936805" lon="9.116901615634561">
        <ele>636.41999999999996</ele>
        <time>2019-05-23T09:09:55Z</time>
      </trkpt>
      <trkpt lat="44.467659462243319" lon="9.116826429963112">
        <ele>639.73000000000002</ele>
        <time>2019-05-23T09:10:01Z</time>
      </trkpt>
      <trkpt lat="44.467292251065373" lon="9.116386966779828">
        <ele>643.25</ele>
        <time>2019-05-23T09:12:07Z</time>
      </trkpt>
      <trkpt lat="44.467203486710787" lon="9.116314547136426">
        <ele>640.13</ele>
        <time>2019-05-23T09:12:16Z</time>
      </trkpt>
      <trkpt lat="44.467101730406284" lon="9.116205833852291">
        <ele>638.45000000000005</ele>
        <time>2019-05-23T09:12:27Z</time>
      </trkpt>
      <trkpt lat="44.467036016285419" lon="9.116061497479677">
        <ele>637.39999999999998</ele>
        <time>2019-05-23T09:12:42Z</time>
      </trkpt>
      <trkpt lat="44.467005003243685" lon="9.115982623770833">
        <ele>635.01999999999998</ele>
        <time>2019-05-23T09:12:48Z</time>
      </trkpt>
      <trkpt lat="44.466990334913135" lon="9.115946833044291">
        <ele>633.50999999999999</ele>
        <time>2019-05-23T09:12:51Z</time>
      </trkpt>
      <trkpt lat="44.46693585254252" lon="9.115864019840956">
        <ele>630.08000000000004</ele>
        <time>2019-05-23T09:13:00Z</time>
      </trkpt>
      <trkpt lat="44.466842645779252" lon="9.115719767287374">
        <ele>628.83000000000004</ele>
        <time>2019-05-23T09:13:19Z</time>
      </trkpt>
      <trkpt lat="44.466808699071407" lon="9.115579286590219">
        <ele>632.05999999999995</ele>
        <time>2019-05-23T09:13:32Z</time>
      </trkpt>
      <trkpt lat="44.466748433187604" lon="9.115440314635634">
        <ele>632.76999999999998</ele>
        <time>2019-05-23T09:13:45Z</time>
      </trkpt>
      <trkpt lat="44.466651286929846" lon="9.115470573306084">
        <ele>633.37</ele>
        <time>2019-05-23T09:13:59Z</time>
      </trkpt>
      <trkpt lat="44.46656403131783" lon="9.115558667108417">
        <ele>633.21000000000004</ele>
        <time>2019-05-23T09:14:13Z</time>
      </trkpt>
      <trkpt lat="44.466518769040704" lon="9.11557643674314">
        <ele>633.20000000000005</ele>
        <time>2019-05-23T09:14:19Z</time>
      </trkpt>
      <trkpt lat="44.466386334970593" lon="9.11547526717186">
        <ele>635.99000000000001</ele>
        <time>2019-05-23T09:14:32Z</time>
      </trkpt>
      <trkpt lat="44.466257756575942" lon="9.115382228046656">
        <ele>636.35000000000002</ele>
        <time>2019-05-23T09:14:47Z</time>
      </trkpt>
      <trkpt lat="44.466161699965596" lon="9.115335373207927">
        <ele>639.82000000000005</ele>
        <time>2019-05-23T09:14:56Z</time>
      </trkpt>
      <trkpt lat="44.466144936159253" lon="9.115281477570534">
        <ele>643.30999999999995</ele>
        <time>2019-05-23T09:14:59Z</time>
      </trkpt>
      <trkpt lat="44.466062793508172" lon="9.115132195875049">
        <ele>647.07000000000005</ele>
        <time>2019-05-23T09:15:12Z</time>
      </trkpt>
      <trkpt lat="44.466037144884467" lon="9.115092800930142">
        <ele>650.30999999999995</ele>
        <time>2019-05-23T09:15:16Z</time>
      </trkpt>
      <trkpt lat="44.466015184298158" lon="9.11505114287138">
        <ele>651.74000000000001</ele>
        <time>2019-05-23T09:15:19Z</time>
      </trkpt>
      <trkpt lat="44.46596397086978" lon="9.114913009107113">
        <ele>655</ele>
        <time>2019-05-23T09:15:29Z</time>
      </trkpt>
      <trkpt lat="44.465924995020032" lon="9.114837823435664">
        <ele>658.14999999999998</ele>
        <time>2019-05-23T09:15:43Z</time>
      </trkpt>
      <trkpt lat="44.46580764837563" lon="9.114757189527154">
        <ele>661.44000000000005</ele>
        <time>2019-05-23T09:15:55Z</time>
      </trkpt>
      <trkpt lat="44.465690301731229" lon="9.114765655249357">
        <ele>663.74000000000001</ele>
        <time>2019-05-23T09:16:11Z</time>
      </trkpt>
      <trkpt lat="44.465572955086827" lon="9.114722488448024">
        <ele>665.36000000000001</ele>
        <time>2019-05-23T09:16:25Z</time>
      </trkpt>
      <trkpt lat="44.465467343106866" lon="9.114731373265386">
        <ele>664.33000000000004</ele>
        <time>2019-05-23T09:16:37Z</time>
      </trkpt>
      <trkpt lat="44.465370448306203" lon="9.114734726026654">
        <ele>662.02999999999997</ele>
        <time>2019-05-23T09:16:48Z</time>
      </trkpt>
      <trkpt lat="44.465244468301535" lon="9.114689128473401">
        <ele>662.39999999999998</ele>
        <time>2019-05-23T09:17:04Z</time>
      </trkpt>
      <trkpt lat="44.465121254324913" lon="9.11461578682065">
        <ele>662.88</ele>
        <time>2019-05-23T09:17:17Z</time>
      </trkpt>
      <trkpt lat="44.465001644566655" lon="9.114565495401621">
        <ele>660.22000000000003</ele>
        <time>2019-05-23T09:17:30Z</time>
      </trkpt>
      <trkpt lat="44.464866612106562" lon="9.114402970299125">
        <ele>661.04999999999995</ele>
        <time>2019-05-23T09:17:43Z</time>
      </trkpt>
      <trkpt lat="44.464844483882189" lon="9.114338010549545">
        <ele>664.57000000000005</ele>
        <time>2019-05-23T09:17:50Z</time>
      </trkpt>
      <trkpt lat="44.464831911027431" lon="9.114309092983604">
        <ele>667.57000000000005</ele>
        <time>2019-05-23T09:17:55Z</time>
      </trkpt>
      <trkpt lat="44.46477709338069" lon="9.114184621721506">
        <ele>669.51999999999998</ele>
        <time>2019-05-23T09:18:10Z</time>
      </trkpt>
      <trkpt lat="44.46472629904747" lon="9.114057552069426">
        <ele>669.25</ele>
        <time>2019-05-23T09:18:25Z</time>
      </trkpt>
      <trkpt lat="44.46459922939539" lon="9.113934170454741">
        <ele>669.07000000000005</ele>
        <time>2019-05-23T09:18:40Z</time>
      </trkpt>
      <trkpt lat="44.464548099786043" lon="9.113817075267434">
        <ele>671.78999999999996</ele>
        <time>2019-05-23T09:18:53Z</time>
      </trkpt>
      <trkpt lat="44.464545836672187" lon="9.113634517416358">
        <ele>672.64999999999998</ele>
        <time>2019-05-23T09:19:08Z</time>
      </trkpt>
      <trkpt lat="44.464580789208412" lon="9.113503256812692">
        <ele>672.38999999999999</ele>
        <time>2019-05-23T09:19:18Z</time>
      </trkpt>
      <trkpt lat="44.464635774493217" lon="9.11333411000669">
        <ele>673.77999999999997</ele>
        <time>2019-05-23T09:19:29Z</time>
      </trkpt>
      <trkpt lat="44.464667625725269" lon="9.113212991505861">
        <ele>675.55999999999995</ele>
        <time>2019-05-23T09:19:42Z</time>
      </trkpt>
      <trkpt lat="44.464664356783032" lon="9.113172423094511">
        <ele>676.88</ele>
        <time>2019-05-23T09:19:45Z</time>
      </trkpt>
      <trkpt lat="44.464623788371682" lon="9.1130849160254">
        <ele>679.97000000000003</ele>
        <time>2019-05-23T09:19:53Z</time>
      </trkpt>
      <trkpt lat="44.464648263528943" lon="9.112969916313887">
        <ele>680.66999999999996</ele>
        <time>2019-05-23T09:20:06Z</time>
      </trkpt>
      <trkpt lat="44.464594032615423" lon="9.112854246050119">
        <ele>683.20000000000005</ele>
        <time>2019-05-23T09:20:21Z</time>
      </trkpt>
      <trkpt lat="44.464513566344976" lon="9.112788531929255">
        <ele>685.26999999999998</ele>
        <time>2019-05-23T09:20:36Z</time>
      </trkpt>
      <trkpt lat="44.464416839182377" lon="9.112798254936934">
        <ele>688.27999999999997</ele>
        <time>2019-05-23T09:20:52Z</time>
      </trkpt>
      <trkpt lat="44.464328913018107" lon="9.11285768263042">
        <ele>687.98000000000002</ele>
        <time>2019-05-23T09:21:06Z</time>
      </trkpt>
      <trkpt lat="44.464212153106928" lon="9.112813510000706">
        <ele>686.66999999999996</ele>
        <time>2019-05-23T09:21:23Z</time>
      </trkpt>
      <trkpt lat="44.46417074650526" lon="9.112763805314899">
        <ele>687.07000000000005</ele>
        <time>2019-05-23T09:21:30Z</time>
      </trkpt>
      <trkpt lat="44.464119952172041" lon="9.112657941877842">
        <ele>686.58000000000004</ele>
        <time>2019-05-23T09:21:42Z</time>
      </trkpt>
      <trkpt lat="44.464009394869208" lon="9.112539505586028">
        <ele>686.35000000000002</ele>
        <time>2019-05-23T09:21:58Z</time>
      </trkpt>
      <trkpt lat="44.463937394320965" lon="9.112407909706235">
        <ele>688.51999999999998</ele>
        <time>2019-05-23T09:22:10Z</time>
      </trkpt>
      <trkpt lat="44.463850473985076" lon="9.112231303006411">
        <ele>690.28999999999996</ele>
        <time>2019-05-23T09:22:27Z</time>
      </trkpt>
      <trkpt lat="44.463783167302608" lon="9.112074142321944">
        <ele>693.37</ele>
        <time>2019-05-23T09:22:38Z</time>
      </trkpt>
      <trkpt lat="44.463724996894598" lon="9.111897116526961">
        <ele>696.05999999999995</ele>
        <time>2019-05-23T09:22:53Z</time>
      </trkpt>
      <trkpt lat="44.463670263066888" lon="9.111817656084895">
        <ele>699.39999999999998</ele>
        <time>2019-05-23T09:23:00Z</time>
      </trkpt>
      <trkpt lat="44.463589042425156" lon="9.11169720813632">
        <ele>702</ele>
        <time>2019-05-23T09:23:14Z</time>
      </trkpt>
      <trkpt lat="44.463505810126662" lon="9.111612718552351">
        <ele>700.99000000000001</ele>
        <time>2019-05-23T09:23:28Z</time>
      </trkpt>
      <trkpt lat="44.463463313877583" lon="9.11144164390862">
        <ele>699.26999999999998</ele>
        <time>2019-05-23T09:23:42Z</time>
      </trkpt>
      <trkpt lat="44.46343531832099" lon="9.111305354163051">
        <ele>696.25999999999999</ele>
        <time>2019-05-23T09:23:53Z</time>
      </trkpt>
      <trkpt lat="44.463392067700624" lon="9.111151043325663">
        <ele>694.51999999999998</ele>
        <time>2019-05-23T09:24:07Z</time>
      </trkpt>
      <trkpt lat="44.463349906727672" lon="9.110941663384438">
        <ele>696.09000000000003</ele>
        <time>2019-05-23T09:24:25Z</time>
      </trkpt>
      <trkpt lat="44.463352337479591" lon="9.110880978405476">
        <ele>696.08000000000004</ele>
        <time>2019-05-23T09:24:32Z</time>
      </trkpt>
      <trkpt lat="44.463329538702965" lon="9.110722225159407">
        <ele>695.98000000000002</ele>
        <time>2019-05-23T09:24:49Z</time>
      </trkpt>
      <trkpt lat="44.463333813473582" lon="9.110588366165757">
        <ele>695.62</ele>
        <time>2019-05-23T09:25:02Z</time>
      </trkpt>
      <trkpt lat="44.463346805423498" lon="9.110446125268936">
        <ele>695.50999999999999</ele>
        <time>2019-05-23T09:25:18Z</time>
      </trkpt>
      <trkpt lat="44.463319480419159" lon="9.110315702855587">
        <ele>695.75</ele>
        <time>2019-05-23T09:25:33Z</time>
      </trkpt>
      <trkpt lat="44.463261561468244" lon="9.110156698152423">
        <ele>697.33000000000004</ele>
        <time>2019-05-23T09:25:48Z</time>
      </trkpt>
      <trkpt lat="44.463184364140034" lon="9.110032729804516">
        <ele>697.55999999999995</ele>
        <time>2019-05-23T09:26:02Z</time>
      </trkpt>
      <trkpt lat="44.463104149326682" lon="9.10996844060719">
        <ele>694.35000000000002</ele>
        <time>2019-05-23T09:26:17Z</time>
      </trkpt>
      <trkpt lat="44.463018989190459" lon="9.109883867204189">
        <ele>691.42999999999995</ele>
        <time>2019-05-23T09:26:32Z</time>
      </trkpt>
      <trkpt lat="44.462929051369429" lon="9.109762916341424">
        <ele>691.13</ele>
        <time>2019-05-23T09:26:45Z</time>
      </trkpt>
      <trkpt lat="44.462827043607831" lon="9.109653197228909">
        <ele>692.57000000000005</ele>
        <time>2019-05-23T09:26:59Z</time>
      </trkpt>
      <trkpt lat="44.46275663562119" lon="9.109529312700033">
        <ele>694.11000000000001</ele>
        <time>2019-05-23T09:27:12Z</time>
      </trkpt>
      <trkpt lat="44.462636187672615" lon="9.109436860308051">
        <ele>693.33000000000004</ele>
        <time>2019-05-23T09:27:25Z</time>
      </trkpt>
      <trkpt lat="44.462553290650249" lon="9.109332924708724">
        <ele>690.78999999999996</ele>
        <time>2019-05-23T09:27:36Z</time>
      </trkpt>
      <trkpt lat="44.4625333417207" lon="9.109307611361146">
        <ele>690.55999999999995</ele>
        <time>2019-05-23T09:27:38Z</time>
      </trkpt>
      <trkpt lat="44.462455892935395" lon="9.109110971912742">
        <ele>693.88</ele>
        <time>2019-05-23T09:27:50Z</time>
      </trkpt>
      <trkpt lat="44.462455473840237" lon="9.109035031870008">
        <ele>697.01999999999998</ele>
        <time>2019-05-23T09:27:54Z</time>
      </trkpt>
      <trkpt lat="44.462407277897" lon="9.10899898968637">
        <ele>709.87</ele>
        <time>2019-05-23T09:28:22Z</time>
      </trkpt>
      <trkpt lat="44.462138554081321" lon="9.108425918966532">
        <ele>724.62</ele>
        <time>2019-05-23T09:43:18Z</time>
      </trkpt>
      <trkpt lat="44.462100500240922" lon="9.108243444934487">
        <ele>723.07000000000005</ele>
        <time>2019-05-23T09:43:34Z</time>
      </trkpt>
      <trkpt lat="44.462082562968135" lon="9.108103383332491">
        <ele>724.66999999999996</ele>
        <time>2019-05-23T09:43:47Z</time>
      </trkpt>
      <trkpt lat="44.462049538269639" lon="9.108017049729824">
        <ele>724.37</ele>
        <time>2019-05-23T09:43:55Z</time>
      </trkpt>
      <trkpt lat="44.461978543549776" lon="9.107910180464387">
        <ele>720.84000000000003</ele>
        <time>2019-05-23T09:44:07Z</time>
      </trkpt>
      <trkpt lat="44.461905956268311" lon="9.107870953157544">
        <ele>717.61000000000001</ele>
        <time>2019-05-23T09:44:16Z</time>
      </trkpt>
      <trkpt lat="44.46183554828167" lon="9.107813453301787">
        <ele>714.52999999999997</ele>
        <time>2019-05-23T09:44:24Z</time>
      </trkpt>
      <trkpt lat="44.461764637380838" lon="9.107751343399286">
        <ele>711.51999999999998</ele>
        <time>2019-05-23T09:44:33Z</time>
      </trkpt>
      <trkpt lat="44.461739407852292" lon="9.107719659805298">
        <ele>710.36000000000001</ele>
        <time>2019-05-23T09:44:37Z</time>
      </trkpt>
      <trkpt lat="44.461715016514063" lon="9.107688730582595">
        <ele>709.64999999999998</ele>
        <time>2019-05-23T09:44:40Z</time>
      </trkpt>
      <trkpt lat="44.461631029844284" lon="9.107553195208311">
        <ele>707.96000000000004</ele>
        <time>2019-05-23T09:44:51Z</time>
      </trkpt>
      <trkpt lat="44.461622731760144" lon="9.107544980943203">
        <ele>707.73000000000002</ele>
        <time>2019-05-23T09:44:52Z</time>
      </trkpt>
      <trkpt lat="44.461577720940113" lon="9.107502987608314">
        <ele>709.02999999999997</ele>
        <time>2019-05-23T09:45:01Z</time>
      </trkpt>
      <trkpt lat="44.461574368178844" lon="9.107489408925176">
        <ele>709.29999999999995</ele>
        <time>2019-05-23T09:45:02Z</time>
      </trkpt>
      <trkpt lat="44.461531117558479" lon="9.107254883274436">
        <ele>707.46000000000004</ele>
        <time>2019-05-23T09:45:16Z</time>
      </trkpt>
      <trkpt lat="44.461489710956812" lon="9.10707819275558">
        <ele>706.25</ele>
        <time>2019-05-23T09:45:29Z</time>
      </trkpt>
      <trkpt lat="44.46148619055748" lon="9.107062937691808">
        <ele>705.89999999999998</ele>
        <time>2019-05-23T09:45:30Z</time>
      </trkpt>
      <trkpt lat="44.461458781734109" lon="9.107008120045066">
        <ele>704.14999999999998</ele>
        <time>2019-05-23T09:45:34Z</time>
      </trkpt>
      <trkpt lat="44.461416285485029" lon="9.106947602704167">
        <ele>700.97000000000003</ele>
        <time>2019-05-23T09:45:40Z</time>
      </trkpt>
      <trkpt lat="44.461351158097386" lon="9.106844253838062">
        <ele>697.87</ele>
        <time>2019-05-23T09:45:49Z</time>
      </trkpt>
      <trkpt lat="44.461267674341798" lon="9.106646943837404">
        <ele>696.22000000000003</ele>
        <time>2019-05-23T09:46:02Z</time>
      </trkpt>
      <trkpt lat="44.461243618279696" lon="9.106516018509865">
        <ele>697.60000000000002</ele>
        <time>2019-05-23T09:46:10Z</time>
      </trkpt>
      <trkpt lat="44.461213694885373" lon="9.106416273862124">
        <ele>697.23000000000002</ele>
        <time>2019-05-23T09:46:18Z</time>
      </trkpt>
      <trkpt lat="44.461117973551154" lon="9.106221897527576">
        <ele>698.77999999999997</ele>
        <time>2019-05-23T09:46:32Z</time>
      </trkpt>
      <trkpt lat="44.46104203350842" lon="9.106104299426079">
        <ele>700.23000000000002</ele>
        <time>2019-05-23T09:46:40Z</time>
      </trkpt>
      <trkpt lat="44.461007919162512" lon="9.106077142059803">
        <ele>700.25999999999999</ele>
        <time>2019-05-23T09:46:43Z</time>
      </trkpt>
      <trkpt lat="44.460939606651664" lon="9.106128104031086">
        <ele>697.49000000000001</ele>
        <time>2019-05-23T09:46:54Z</time>
      </trkpt>
      <trkpt lat="44.460900630801916" lon="9.106112597510219">
        <ele>697.27999999999997</ele>
        <time>2019-05-23T09:46:58Z</time>
      </trkpt>
      <trkpt lat="44.460777081549168" lon="9.10600857809186">
        <ele>697.40999999999997</ele>
        <time>2019-05-23T09:47:11Z</time>
      </trkpt>
      <trkpt lat="44.460662920027971" lon="9.105936912819743">
        <ele>696.32000000000005</ele>
        <time>2019-05-23T09:47:24Z</time>
      </trkpt>
      <trkpt lat="44.46051137521863" lon="9.105851333588362">
        <ele>697.21000000000004</ele>
        <time>2019-05-23T09:47:37Z</time>
      </trkpt>
      <trkpt lat="44.460380282253027" lon="9.105674978345633">
        <ele>694.35000000000002</ele>
        <time>2019-05-23T09:47:52Z</time>
      </trkpt>
      <trkpt lat="44.460225803777575" lon="9.105514381080866">
        <ele>692.58000000000004</ele>
        <time>2019-05-23T09:48:10Z</time>
      </trkpt>
      <trkpt lat="44.460147516801953" lon="9.105365350842476">
        <ele>696</ele>
        <time>2019-05-23T09:48:22Z</time>
      </trkpt>
      <trkpt lat="44.460082054138184" lon="9.105262756347656">
        <ele>699.07000000000005</ele>
        <time>2019-05-23T09:48:30Z</time>
      </trkpt>
      <trkpt lat="44.459955655038357" lon="9.105063602328301">
        <ele>700.88</ele>
        <time>2019-05-23T09:48:46Z</time>
      </trkpt>
      <trkpt lat="44.459937969222665" lon="9.105050778016448">
        <ele>700.57000000000005</ele>
        <time>2019-05-23T09:48:48Z</time>
      </trkpt>
      <trkpt lat="44.459851970896125" lon="9.10484516993165">
        <ele>698.61000000000001</ele>
        <time>2019-05-23T09:49:02Z</time>
      </trkpt>
      <trkpt lat="44.45978919044137" lon="9.104643082246184">
        <ele>698.05999999999995</ele>
        <time>2019-05-23T09:49:17Z</time>
      </trkpt>
      <trkpt lat="44.459768068045378" lon="9.104469073936343">
        <ele>695.07000000000005</ele>
        <time>2019-05-23T09:49:30Z</time>
      </trkpt>
      <trkpt lat="44.459720710292459" lon="9.10434627905488">
        <ele>693.05999999999995</ele>
        <time>2019-05-23T09:49:39Z</time>
      </trkpt>
      <trkpt lat="44.45965675637126" lon="9.104160619899631">
        <ele>691</ele>
        <time>2019-05-23T09:49:53Z</time>
      </trkpt>
      <trkpt lat="44.459540247917175" lon="9.10396808758378">
        <ele>690.24000000000001</ele>
        <time>2019-05-23T09:50:07Z</time>
      </trkpt>
      <trkpt lat="44.459462631493807" lon="9.103888124227524">
        <ele>687.65999999999997</ele>
        <time>2019-05-23T09:50:18Z</time>
      </trkpt>
      <trkpt lat="44.459395408630371" lon="9.103835737332702">
        <ele>685.10000000000002</ele>
        <time>2019-05-23T09:50:27Z</time>
      </trkpt>
      <trkpt lat="44.459323408082128" lon="9.103704560548067">
        <ele>682.24000000000001</ele>
        <time>2019-05-23T09:50:40Z</time>
      </trkpt>
      <trkpt lat="44.459227435290813" lon="9.103492414578795">
        <ele>680.60000000000002</ele>
        <time>2019-05-23T09:50:52Z</time>
      </trkpt>
      <trkpt lat="44.459182256832719" lon="9.103430137038231">
        <ele>682.46000000000004</ele>
        <time>2019-05-23T09:50:56Z</time>
      </trkpt>
      <trkpt lat="44.459094246849418" lon="9.103266857564449">
        <ele>685.12</ele>
        <time>2019-05-23T09:51:09Z</time>
      </trkpt>
      <trkpt lat="44.459029203280807" lon="9.103153115138412">
        <ele>683.77999999999997</ele>
        <time>2019-05-23T09:51:20Z</time>
      </trkpt>
      <trkpt lat="44.458962399512529" lon="9.103076672181487">
        <ele>680.74000000000001</ele>
        <time>2019-05-23T09:51:28Z</time>
      </trkpt>
      <trkpt lat="44.458933733403683" lon="9.103054711595178">
        <ele>678.87</ele>
        <time>2019-05-23T09:51:32Z</time>
      </trkpt>
      <trkpt lat="44.458910683169961" lon="9.103050017729402">
        <ele>678.42999999999995</ele>
        <time>2019-05-23T09:51:34Z</time>
      </trkpt>
      <trkpt lat="44.458795683458447" lon="9.102994613349438">
        <ele>674.95000000000005</ele>
        <time>2019-05-23T09:51:44Z</time>
      </trkpt>
      <trkpt lat="44.458791073411703" lon="9.102988829836249">
        <ele>674.70000000000005</ele>
        <time>2019-05-23T09:51:45Z</time>
      </trkpt>
      <trkpt lat="44.458745727315545" lon="9.102842900902033">
        <ele>677.33000000000004</ele>
        <time>2019-05-23T09:52:00Z</time>
      </trkpt>
      <trkpt lat="44.458705661818385" lon="9.102776097133756">
        <ele>679.61000000000001</ele>
        <time>2019-05-23T09:52:07Z</time>
      </trkpt>
      <trkpt lat="44.458662159740925" lon="9.102743323892355">
        <ele>683.13</ele>
        <time>2019-05-23T09:52:11Z</time>
      </trkpt>
      <trkpt lat="44.458655286580324" lon="9.102728990837932">
        <ele>683.75</ele>
        <time>2019-05-23T09:52:13Z</time>
      </trkpt>
      <trkpt lat="44.458575490862131" lon="9.102679118514061">
        <ele>686.88</ele>
        <time>2019-05-23T09:52:22Z</time>
      </trkpt>
      <trkpt lat="44.458544980734587" lon="9.10266051068902">
        <ele>688.42999999999995</ele>
        <time>2019-05-23T09:52:25Z</time>
      </trkpt>
      <trkpt lat="44.458458898589015" lon="9.10256470553577">
        <ele>686.57000000000005</ele>
        <time>2019-05-23T09:52:37Z</time>
      </trkpt>
      <trkpt lat="44.458423024043441" lon="9.102523131296039">
        <ele>683.44000000000005</ele>
        <time>2019-05-23T09:52:43Z</time>
      </trkpt>
      <trkpt lat="44.458315651863813" lon="9.102367563173175">
        <ele>682.74000000000001</ele>
        <time>2019-05-23T09:52:55Z</time>
      </trkpt>
      <trkpt lat="44.4582490157336" lon="9.102280726656318">
        <ele>679.38</ele>
        <time>2019-05-23T09:53:04Z</time>
      </trkpt>
      <trkpt lat="44.458223199471831" lon="9.102173186838627">
        <ele>676.10000000000002</ele>
        <time>2019-05-23T09:53:13Z</time>
      </trkpt>
      <trkpt lat="44.458144577220082" lon="9.101946540176868">
        <ele>675.77999999999997</ele>
        <time>2019-05-23T09:53:27Z</time>
      </trkpt>
      <trkpt lat="44.458104176446795" lon="9.101856350898743">
        <ele>677.37</ele>
        <time>2019-05-23T09:53:32Z</time>
      </trkpt>
      <trkpt lat="44.458093363791704" lon="9.101827852427959">
        <ele>677.75</ele>
        <time>2019-05-23T09:53:33Z</time>
      </trkpt>
      <trkpt lat="44.45802379399538" lon="9.101699441671372">
        <ele>677.34000000000003</ele>
        <time>2019-05-23T09:53:44Z</time>
      </trkpt>
      <trkpt lat="44.457908626645803" lon="9.101535994559526">
        <ele>676.39999999999998</ele>
        <time>2019-05-23T09:54:00Z</time>
      </trkpt>
      <trkpt lat="44.457830507308245" lon="9.101446224376559">
        <ele>673.33000000000004</ele>
        <time>2019-05-23T09:54:10Z</time>
      </trkpt>
      <trkpt lat="44.457735624164343" lon="9.101312952116132">
        <ele>671.21000000000004</ele>
        <time>2019-05-23T09:54:21Z</time>
      </trkpt>
      <trkpt lat="44.457639316096902" lon="9.101207675412297">
        <ele>670.32000000000005</ele>
        <time>2019-05-23T09:54:33Z</time>
      </trkpt>
      <trkpt lat="44.457532530650496" lon="9.101053364574909">
        <ele>667.11000000000001</ele>
        <time>2019-05-23T09:54:47Z</time>
      </trkpt>
      <trkpt lat="44.457480646669865" lon="9.100873824208975">
        <ele>665.47000000000003</ele>
        <time>2019-05-23T09:54:58Z</time>
      </trkpt>
      <trkpt lat="44.457453489303589" lon="9.10067668184638">
        <ele>665.45000000000005</ele>
        <time>2019-05-23T09:55:10Z</time>
      </trkpt>
      <trkpt lat="44.457411328330636" lon="9.100532596930862">
        <ele>668.25999999999999</ele>
        <time>2019-05-23T09:55:20Z</time>
      </trkpt>
      <trkpt lat="44.457355504855514" lon="9.100387003272772">
        <ele>671.55999999999995</ele>
        <time>2019-05-23T09:55:28Z</time>
      </trkpt>
      <trkpt lat="44.457296077162027" lon="9.100231686607003">
        <ele>672.87</ele>
        <time>2019-05-23T09:55:40Z</time>
      </trkpt>
      <trkpt lat="44.457258945330977" lon="9.100097408518195">
        <ele>669.61000000000001</ele>
        <time>2019-05-23T09:55:49Z</time>
      </trkpt>
      <trkpt lat="44.457153836265206" lon="9.099985342472792">
        <ele>666.40999999999997</ele>
        <time>2019-05-23T09:55:59Z</time>
      </trkpt>
      <trkpt lat="44.457040345296264" lon="9.099893979728222">
        <ele>664.22000000000003</ele>
        <time>2019-05-23T09:56:10Z</time>
      </trkpt>
      <trkpt lat="44.456914700567722" lon="9.099808149039745">
        <ele>661.17999999999995</ele>
        <time>2019-05-23T09:56:20Z</time>
      </trkpt>
      <trkpt lat="44.45686281658709" lon="9.099732879549265">
        <ele>658.08000000000004</ele>
        <time>2019-05-23T09:56:26Z</time>
      </trkpt>
      <trkpt lat="44.456742536276579" lon="9.099615449085832">
        <ele>654.85000000000002</ele>
        <time>2019-05-23T09:56:38Z</time>
      </trkpt>
      <trkpt lat="44.456732477992773" lon="9.099604887887836">
        <ele>654.57000000000005</ele>
        <time>2019-05-23T09:56:39Z</time>
      </trkpt>
      <trkpt lat="44.456676654517651" lon="9.099458372220397">
        <ele>652.94000000000005</ele>
        <time>2019-05-23T09:56:49Z</time>
      </trkpt>
      <trkpt lat="44.4566619861871" lon="9.099418893456459">
        <ele>652.60000000000002</ele>
        <time>2019-05-23T09:56:52Z</time>
      </trkpt>
      <trkpt lat="44.456582274287939" lon="9.099241867661476">
        <ele>655.52999999999997</ele>
        <time>2019-05-23T09:57:03Z</time>
      </trkpt>
      <trkpt lat="44.456576239317656" lon="9.099224852398038">
        <ele>655.38</ele>
        <time>2019-05-23T09:57:04Z</time>
      </trkpt>
      <trkpt lat="44.456536760553718" lon="9.099181685596705">
        <ele>658.27999999999997</ele>
        <time>2019-05-23T09:57:09Z</time>
      </trkpt>
      <trkpt lat="44.456477081403136" lon="9.099052520468831">
        <ele>661.28999999999996</ele>
        <time>2019-05-23T09:57:18Z</time>
      </trkpt>
      <trkpt lat="44.456465933471918" lon="9.099007425829768">
        <ele>662.87</ele>
        <time>2019-05-23T09:57:21Z</time>
      </trkpt>
      <trkpt lat="44.45640248246491" lon="9.098867699503899">
        <ele>663.48000000000002</ele>
        <time>2019-05-23T09:57:32Z</time>
      </trkpt>
      <trkpt lat="44.456336433067918" lon="9.098770469427109">
        <ele>662.88999999999999</ele>
        <time>2019-05-23T09:57:40Z</time>
      </trkpt>
      <trkpt lat="44.456205172464252" lon="9.098656978458166">
        <ele>665.84000000000003</ele>
        <time>2019-05-23T09:57:52Z</time>
      </trkpt>
      <trkpt lat="44.456135351210833" lon="9.098592856898904">
        <ele>668.63999999999999</ele>
        <time>2019-05-23T09:57:58Z</time>
      </trkpt>
      <trkpt lat="44.456095369532704" lon="9.098572405055165">
        <ele>670.46000000000004</ele>
        <time>2019-05-23T09:58:01Z</time>
      </trkpt>
      <trkpt lat="44.456043653190136" lon="9.098536530509591">
        <ele>672.5</ele>
        <time>2019-05-23T09:58:05Z</time>
      </trkpt>
      <trkpt lat="44.455995624884963" lon="9.098483808338642">
        <ele>675.36000000000001</ele>
        <time>2019-05-23T09:58:12Z</time>
      </trkpt>
      <trkpt lat="44.455922115594149" lon="9.098364869132638">
        <ele>675.24000000000001</ele>
        <time>2019-05-23T09:58:25Z</time>
      </trkpt>
      <trkpt lat="44.455798733979464" lon="9.098232854157686">
        <ele>676.66999999999996</ele>
        <time>2019-05-23T09:58:39Z</time>
      </trkpt>
      <trkpt lat="44.455654313787818" lon="9.098045853897929">
        <ele>679.85000000000002</ele>
        <time>2019-05-23T09:58:55Z</time>
      </trkpt>
      <trkpt lat="44.455497153103352" lon="9.097873019054532">
        <ele>681.66999999999996</ele>
        <time>2019-05-23T09:59:12Z</time>
      </trkpt>
      <trkpt lat="44.455350805073977" lon="9.097734885290265">
        <ele>682.00999999999999</ele>
        <time>2019-05-23T09:59:27Z</time>
      </trkpt>
      <trkpt lat="44.455233290791512" lon="9.097704291343689">
        <ele>680.40999999999997</ele>
        <time>2019-05-23T09:59:40Z</time>
      </trkpt>
      <trkpt lat="44.455102616921067" lon="9.097750559449196">
        <ele>680.94000000000005</ele>
        <time>2019-05-23T09:59:55Z</time>
      </trkpt>
      <trkpt lat="44.45497864857316" lon="9.097939152270556">
        <ele>683.63999999999999</ele>
        <time>2019-05-23T10:00:12Z</time>
      </trkpt>
      <trkpt lat="44.454840011894703" lon="9.098015427589417">
        <ele>681.86000000000001</ele>
        <time>2019-05-23T10:00:25Z</time>
      </trkpt>
      <trkpt lat="44.454658376052976" lon="9.098039651289582">
        <ele>680.35000000000002</ele>
        <time>2019-05-23T10:00:40Z</time>
      </trkpt>
      <trkpt lat="44.454459389671683" lon="9.098066808655858">
        <ele>678.88</ele>
        <time>2019-05-23T10:00:56Z</time>
      </trkpt>
      <trkpt lat="44.454268533736467" lon="9.098066641017795">
        <ele>676.91999999999996</ele>
        <time>2019-05-23T10:01:12Z</time>
      </trkpt>
      <trkpt lat="44.454110618680716" lon="9.098111735656858">
        <ele>675.53999999999996</ele>
        <time>2019-05-23T10:01:26Z</time>
      </trkpt>
      <trkpt lat="44.454018669202924" lon="9.098075609654188">
        <ele>672.38999999999999</ele>
        <time>2019-05-23T10:01:35Z</time>
      </trkpt>
      <trkpt lat="44.453960666432977" lon="9.098028251901269">
        <ele>669.28999999999996</ele>
        <time>2019-05-23T10:01:41Z</time>
      </trkpt>
      <trkpt lat="44.453918170183897" lon="9.098015176132321">
        <ele>666.27999999999997</ele>
        <time>2019-05-23T10:01:45Z</time>
      </trkpt>
      <trkpt lat="44.453877853229642" lon="9.097996316850185">
        <ele>662.94000000000005</ele>
        <time>2019-05-23T10:01:49Z</time>
      </trkpt>
      <trkpt lat="44.45383720099926" lon="9.097954574972391">
        <ele>659.35000000000002</ele>
        <time>2019-05-23T10:01:54Z</time>
      </trkpt>
      <trkpt lat="44.453793615102768" lon="9.097928339615464">
        <ele>655.94000000000005</ele>
        <time>2019-05-23T10:01:58Z</time>
      </trkpt>
      <trkpt lat="44.453753465786576" lon="9.097911743447185">
        <ele>652.86000000000001</ele>
        <time>2019-05-23T10:02:02Z</time>
      </trkpt>
      <trkpt lat="44.453704683110118" lon="9.097871677950025">
        <ele>649.28999999999996</ele>
        <time>2019-05-23T10:02:07Z</time>
      </trkpt>
      <trkpt lat="44.453667886555195" lon="9.09783823415637">
        <ele>646.22000000000003</ele>
        <time>2019-05-23T10:02:11Z</time>
      </trkpt>
      <trkpt lat="44.453634610399604" lon="9.097817447036505">
        <ele>643.52999999999997</ele>
        <time>2019-05-23T10:02:15Z</time>
      </trkpt>
      <trkpt lat="44.453589683398604" lon="9.097793474793434">
        <ele>640.36000000000001</ele>
        <time>2019-05-23T10:02:20Z</time>
      </trkpt>
      <trkpt lat="44.453554395586252" lon="9.097811244428158">
        <ele>637.22000000000003</ele>
        <time>2019-05-23T10:02:24Z</time>
      </trkpt>
      <trkpt lat="44.453518185764551" lon="9.097817447036505">
        <ele>633.77999999999997</ele>
        <time>2019-05-23T10:02:28Z</time>
      </trkpt>
      <trkpt lat="44.453488430008292" lon="9.097824823111296">
        <ele>630.01999999999998</ele>
        <time>2019-05-23T10:02:32Z</time>
      </trkpt>
      <trkpt lat="44.453462110832334" lon="9.097831025719643">
        <ele>626.70000000000005</ele>
        <time>2019-05-23T10:02:35Z</time>
      </trkpt>
      <trkpt lat="44.453412909060717" lon="9.097816608846188">
        <ele>621.76999999999998</ele>
        <time>2019-05-23T10:02:40Z</time>
      </trkpt>
      <trkpt lat="44.453350296244025" lon="9.097798503935337">
        <ele>620.14999999999998</ele>
        <time>2019-05-23T10:02:46Z</time>
      </trkpt>
      <trkpt lat="44.4532410800457" lon="9.097653413191438">
        <ele>622.39999999999998</ele>
        <time>2019-05-23T10:03:00Z</time>
      </trkpt>
      <trkpt lat="44.453170504420996" lon="9.097599517554045">
        <ele>621.87</ele>
        <time>2019-05-23T10:03:07Z</time>
      </trkpt>
      <trkpt lat="44.453133037313819" lon="9.097560793161392">
        <ele>623.67999999999995</ele>
        <time>2019-05-23T10:03:11Z</time>
      </trkpt>
      <trkpt lat="44.4530338793993" lon="9.097546208649874">
        <ele>621.79999999999995</ele>
        <time>2019-05-23T10:03:22Z</time>
      </trkpt>
      <trkpt lat="44.45298258215189" lon="9.097519805654883">
        <ele>620.07000000000005</ele>
        <time>2019-05-23T10:03:26Z</time>
      </trkpt>
      <trkpt lat="44.452872611582279" lon="9.097430035471916">
        <ele>621.04999999999995</ele>
        <time>2019-05-23T10:03:37Z</time>
      </trkpt>
      <trkpt lat="44.45277052000165" lon="9.097377732396126">
        <ele>624.20000000000005</ele>
        <time>2019-05-23T10:03:47Z</time>
      </trkpt>
      <trkpt lat="44.452688628807664" lon="9.097371278330684">
        <ele>625.91999999999996</ele>
        <time>2019-05-23T10:03:54Z</time>
      </trkpt>
      <trkpt lat="44.45254085585475" lon="9.097358034923673">
        <ele>624.52999999999997</ele>
        <time>2019-05-23T10:04:09Z</time>
      </trkpt>
      <trkpt lat="44.452428286895156" lon="9.097389467060566">
        <ele>621.40999999999997</ele>
        <time>2019-05-23T10:04:20Z</time>
      </trkpt>
      <trkpt lat="44.452342037111521" lon="9.097390975803137">
        <ele>618.34000000000003</ele>
        <time>2019-05-23T10:04:27Z</time>
      </trkpt>
      <trkpt lat="44.452304402366281" lon="9.09738527610898">
        <ele>615.26999999999998</ele>
        <time>2019-05-23T10:04:31Z</time>
      </trkpt>
      <trkpt lat="44.45217146538198" lon="9.097403464838862">
        <ele>612.13999999999999</ele>
        <time>2019-05-23T10:04:43Z</time>
      </trkpt>
      <trkpt lat="44.452102985233068" lon="9.097412601113319">
        <ele>608.66999999999996</ele>
        <time>2019-05-23T10:04:52Z</time>
      </trkpt>
      <trkpt lat="44.452088735997677" lon="9.097410840913653">
        <ele>607.75</ele>
        <time>2019-05-23T10:04:54Z</time>
      </trkpt>
      <trkpt lat="44.451958984136581" lon="9.09747127443552">
        <ele>606.13999999999999</ele>
        <time>2019-05-23T10:05:05Z</time>
      </trkpt>
      <trkpt lat="44.451848762109876" lon="9.097462892532349">
        <ele>602.83000000000004</ele>
        <time>2019-05-23T10:05:16Z</time>
      </trkpt>
      <trkpt lat="44.45171020925045" lon="9.097542269155383">
        <ele>604.40999999999997</ele>
        <time>2019-05-23T10:05:30Z</time>
      </trkpt>
      <trkpt lat="44.451664024963975" lon="9.097586777061224">
        <ele>605.07000000000005</ele>
        <time>2019-05-23T10:05:35Z</time>
      </trkpt>
      <trkpt lat="44.451620355248451" lon="9.097649641335011">
        <ele>608.35000000000002</ele>
        <time>2019-05-23T10:05:40Z</time>
      </trkpt>
      <trkpt lat="44.451586659997702" lon="9.097713176161051">
        <ele>611.39999999999998</ele>
        <time>2019-05-23T10:05:44Z</time>
      </trkpt>
      <trkpt lat="44.451562268659472" lon="9.097785679623485">
        <ele>615.51999999999998</ele>
        <time>2019-05-23T10:05:48Z</time>
      </trkpt>
      <trkpt lat="44.451554054394364" lon="9.097809819504619">
        <ele>619.57000000000005</ele>
        <time>2019-05-23T10:05:51Z</time>
      </trkpt>
      <trkpt lat="44.451536955311894" lon="9.097841503098607">
        <ele>623.50999999999999</ele>
        <time>2019-05-23T10:05:54Z</time>
      </trkpt>
      <trkpt lat="44.451515832915902" lon="9.097882406786084">
        <ele>627.13</ele>
        <time>2019-05-23T10:05:56Z</time>
      </trkpt>
      <trkpt lat="44.45150108076632" lon="9.097931943833828">
        <ele>630.65999999999997</ele>
        <time>2019-05-23T10:05:59Z</time>
      </trkpt>
      <trkpt lat="44.451481215655804" lon="9.098000172525644">
        <ele>634.09000000000003</ele>
        <time>2019-05-23T10:06:03Z</time>
      </trkpt>
      <trkpt lat="44.451460344716907" lon="9.098067982122302">
        <ele>637.23000000000002</ele>
        <time>2019-05-23T10:06:07Z</time>
      </trkpt>
      <trkpt lat="44.451456405222416" lon="9.098084326833487">
        <ele>637.24000000000001</ele>
        <time>2019-05-23T10:06:08Z</time>
      </trkpt>
      <trkpt lat="44.451362192630768" lon="9.098314074799418">
        <ele>638.95000000000005</ele>
        <time>2019-05-23T10:06:24Z</time>
      </trkpt>
      <trkpt lat="44.451135126873851" lon="9.098826460540295">
        <ele>638.24000000000001</ele>
        <time>2019-05-23T10:07:00Z</time>
      </trkpt>
      <trkpt lat="44.451049715280533" lon="9.098882284015417">
        <ele>635.05999999999995</ele>
        <time>2019-05-23T10:07:07Z</time>
      </trkpt>
      <trkpt lat="44.450963633134961" lon="9.099105913192034">
        <ele>634.70000000000005</ele>
        <time>2019-05-23T10:07:20Z</time>
      </trkpt>
      <trkpt lat="44.450963716953993" lon="9.099220493808389">
        <ele>631.57000000000005</ele>
        <time>2019-05-23T10:07:27Z</time>
      </trkpt>
      <trkpt lat="44.450922310352325" lon="9.099329626187682">
        <ele>628.30999999999995</ele>
        <time>2019-05-23T10:07:35Z</time>
      </trkpt>
      <trkpt lat="44.450899427756667" lon="9.09941453486681">
        <ele>626.27999999999997</ele>
        <time>2019-05-23T10:07:40Z</time>
      </trkpt>
      <trkpt lat="44.450885010883212" lon="9.099593488499522">
        <ele>622.82000000000005</ele>
        <time>2019-05-23T10:07:51Z</time>
      </trkpt>
      <trkpt lat="44.450886603444815" lon="9.099612263962627">
        <ele>622.54999999999995</ele>
        <time>2019-05-23T10:07:52Z</time>
      </trkpt>
      <trkpt lat="44.450888112187386" lon="9.099712846800685">
        <ele>619.5</ele>
        <time>2019-05-23T10:07:59Z</time>
      </trkpt>
      <trkpt lat="44.450876628980041" lon="9.099783338606358">
        <ele>616.46000000000004</ele>
        <time>2019-05-23T10:08:04Z</time>
      </trkpt>
      <trkpt lat="44.45087512023747" lon="9.099874282255769">
        <ele>612.60000000000002</ele>
        <time>2019-05-23T10:08:10Z</time>
      </trkpt>
      <trkpt lat="44.450874784961343" lon="9.099945863708854">
        <ele>609.51999999999998</ele>
        <time>2019-05-23T10:08:14Z</time>
      </trkpt>
      <trkpt lat="44.450864978134632" lon="9.100006548687816">
        <ele>606.16999999999996</ele>
        <time>2019-05-23T10:08:18Z</time>
      </trkpt>
      <trkpt lat="44.450862631201744" lon="9.100026413798332">
        <ele>604.21000000000004</ele>
        <time>2019-05-23T10:08:20Z</time>
      </trkpt>
      <trkpt lat="44.450845951214433" lon="9.100092379376292">
        <ele>600.41999999999996</ele>
        <time>2019-05-23T10:08:25Z</time>
      </trkpt>
      <trkpt lat="44.450832288712263" lon="9.100107047706842">
        <ele>598.79999999999995</ele>
        <time>2019-05-23T10:08:28Z</time>
      </trkpt>
      <trkpt lat="44.450801191851497" lon="9.100119452923536">
        <ele>598.14999999999998</ele>
        <time>2019-05-23T10:08:33Z</time>
      </trkpt>
      <trkpt lat="44.450704716145992" lon="9.100149041041732">
        <ele>601.87</ele>
        <time>2019-05-23T10:08:52Z</time>
      </trkpt>
      <trkpt lat="44.450695076957345" lon="9.100165637210012">
        <ele>605.51999999999998</ele>
        <time>2019-05-23T10:08:57Z</time>
      </trkpt>
      <trkpt lat="44.45069239474833" lon="9.100166978314519">
        <ele>606.53999999999996</ele>
        <time>2019-05-23T10:08:59Z</time>
      </trkpt>
      <trkpt lat="44.450621986761689" lon="9.100168738514185">
        <ele>607.65999999999997</ele>
        <time>2019-05-23T10:09:13Z</time>
      </trkpt>
      <trkpt lat="44.450536910444498" lon="9.100236464291811">
        <ele>607.15999999999997</ele>
        <time>2019-05-23T10:09:25Z</time>
      </trkpt>
      <trkpt lat="44.450519727542996" lon="9.100264459848404">
        <ele>606.47000000000003</ele>
        <time>2019-05-23T10:09:27Z</time>
      </trkpt>
      <trkpt lat="44.450433477759361" lon="9.100465122610331">
        <ele>609.54999999999995</ele>
        <time>2019-05-23T10:09:40Z</time>
      </trkpt>
      <trkpt lat="44.45042216219008" lon="9.100481970235705">
        <ele>612.67999999999995</ele>
        <time>2019-05-23T10:09:45Z</time>
      </trkpt>
      <trkpt lat="44.450380587950349" lon="9.10058774985373">
        <ele>614.25</ele>
        <time>2019-05-23T10:09:56Z</time>
      </trkpt>
      <trkpt lat="44.450277993455529" lon="9.100721105933189">
        <ele>612.44000000000005</ele>
        <time>2019-05-23T10:10:09Z</time>
      </trkpt>
      <trkpt lat="44.450245890766382" lon="9.100757734850049">
        <ele>611.08000000000004</ele>
        <time>2019-05-23T10:10:13Z</time>
      </trkpt>
      <trkpt lat="44.450176656246185" lon="9.10083744674921">
        <ele>609.87</ele>
        <time>2019-05-23T10:10:24Z</time>
      </trkpt>
      <trkpt lat="44.450068278238177" lon="9.100904418155551">
        <ele>607</ele>
        <time>2019-05-23T10:10:36Z</time>
      </trkpt>
      <trkpt lat="44.449983201920986" lon="9.101109104231">
        <ele>607.67999999999995</ele>
        <time>2019-05-23T10:10:50Z</time>
      </trkpt>
      <trkpt lat="44.449956296011806" lon="9.101151265203953">
        <ele>607.21000000000004</ele>
        <time>2019-05-23T10:10:54Z</time>
      </trkpt>
      <trkpt lat="44.449858814477921" lon="9.101393586024642">
        <ele>604.5</ele>
        <time>2019-05-23T10:11:10Z</time>
      </trkpt>
      <trkpt lat="44.449823359027505" lon="9.101521745324135">
        <ele>603.25999999999999</ele>
        <time>2019-05-23T10:11:20Z</time>
      </trkpt>
      <trkpt lat="44.449818413704634" lon="9.101757360622287">
        <ele>600.76999999999998</ele>
        <time>2019-05-23T10:11:35Z</time>
      </trkpt>
      <trkpt lat="44.449845403432846" lon="9.101919382810593">
        <ele>598.88999999999999</ele>
        <time>2019-05-23T10:11:46Z</time>
      </trkpt>
      <trkpt lat="44.449843727052212" lon="9.101940672844648">
        <ele>598.17999999999995</ele>
        <time>2019-05-23T10:11:48Z</time>
      </trkpt>
      <trkpt lat="44.44983190856874" lon="9.101981576532126">
        <ele>601.02999999999997</ele>
        <time>2019-05-23T10:12:12Z</time>
      </trkpt>
      <trkpt lat="44.449806846678257" lon="9.102032873779535">
        <ele>604.05999999999995</ele>
        <time>2019-05-23T10:12:16Z</time>
      </trkpt>
      <trkpt lat="44.449796201661229" lon="9.102049553766847">
        <ele>605.37</ele>
        <time>2019-05-23T10:12:20Z</time>
      </trkpt>
      <trkpt lat="44.449765188619494" lon="9.102065814658999">
        <ele>610.13999999999999</ele>
        <time>2019-05-23T10:12:24Z</time>
      </trkpt>
      <trkpt lat="44.449756555259228" lon="9.102072268724442">
        <ele>626.84000000000003</ele>
        <time>2019-05-23T10:13:02Z</time>
      </trkpt>
      <trkpt lat="44.449760913848877" lon="9.102072017267346">
        <ele>629.29999999999995</ele>
        <time>2019-05-23T10:13:23Z</time>
      </trkpt>
      <trkpt lat="44.449734343215823" lon="9.102067491039634">
        <ele>629.92999999999995</ele>
        <time>2019-05-23T10:14:49Z</time>
      </trkpt>
      <trkpt lat="44.44968095049262" lon="9.102144101634622">
        <ele>636.30999999999995</ele>
        <time>2019-05-23T10:17:15Z</time>
      </trkpt>
      <trkpt lat="44.449589252471924" lon="9.102308470755816">
        <ele>634.71000000000004</ele>
        <time>2019-05-23T10:17:30Z</time>
      </trkpt>
      <trkpt lat="44.449553629383445" lon="9.102400587871671">
        <ele>631.41999999999996</ele>
        <time>2019-05-23T10:17:37Z</time>
      </trkpt>
      <trkpt lat="44.449538122862577" lon="9.102480299770832">
        <ele>628.37</ele>
        <time>2019-05-23T10:17:41Z</time>
      </trkpt>
      <trkpt lat="44.449509708210826" lon="9.10260527394712">
        <ele>624.72000000000003</ele>
        <time>2019-05-23T10:17:49Z</time>
      </trkpt>
      <trkpt lat="44.449462350457907" lon="9.102633520960808">
        <ele>621.47000000000003</ele>
        <time>2019-05-23T10:17:58Z</time>
      </trkpt>
      <trkpt lat="44.449405772611499" lon="9.102658834308386">
        <ele>618.44000000000005</ele>
        <time>2019-05-23T10:18:04Z</time>
      </trkpt>
      <trkpt lat="44.449389846995473" lon="9.102708119899035">
        <ele>616.04999999999995</ele>
        <time>2019-05-23T10:18:08Z</time>
      </trkpt>
      <trkpt lat="44.449397558346391" lon="9.102796716615558">
        <ele>612.92999999999995</ele>
        <time>2019-05-23T10:18:14Z</time>
      </trkpt>
      <trkpt lat="44.449426643550396" lon="9.102905848994851">
        <ele>609.70000000000005</ele>
        <time>2019-05-23T10:18:22Z</time>
      </trkpt>
      <trkpt lat="44.449475174769759" lon="9.102939628064632">
        <ele>608.17999999999995</ele>
        <time>2019-05-23T10:18:37Z</time>
      </trkpt>
      <trkpt lat="44.449466792866588" lon="9.102995451539755">
        <ele>611.29999999999995</ele>
        <time>2019-05-23T10:18:50Z</time>
      </trkpt>
      <trkpt lat="44.449448939412832" lon="9.103053957223892">
        <ele>614.00999999999999</ele>
        <time>2019-05-23T10:19:09Z</time>
      </trkpt>
      <trkpt lat="44.449439384043217" lon="9.103073989972472">
        <ele>617.21000000000004</ele>
        <time>2019-05-23T10:19:17Z</time>
      </trkpt>
      <trkpt lat="44.449438294395804" lon="9.103094441816211">
        <ele>620.54999999999995</ele>
        <time>2019-05-23T10:19:26Z</time>
      </trkpt>
      <trkpt lat="44.449423793703318" lon="9.103111959993839">
        <ele>623.58000000000004</ele>
        <time>2019-05-23T10:19:40Z</time>
      </trkpt>
      <trkpt lat="44.449409125372767" lon="9.103118581697345">
        <ele>626.61000000000001</ele>
        <time>2019-05-23T10:19:57Z</time>
      </trkpt>
      <trkpt lat="44.449390098452568" lon="9.103140123188496">
        <ele>626.75999999999999</ele>
        <time>2019-05-23T10:20:03Z</time>
      </trkpt>
      <trkpt lat="44.449291275814176" lon="9.103146493434906">
        <ele>624.65999999999997</ele>
        <time>2019-05-23T10:20:15Z</time>
      </trkpt>
      <trkpt lat="44.449214832857251" lon="9.103163005784154">
        <ele>623.78999999999996</ele>
        <time>2019-05-23T10:20:26Z</time>
      </trkpt>
      <trkpt lat="44.449180299416184" lon="9.103196784853935">
        <ele>623.33000000000004</ele>
        <time>2019-05-23T10:20:38Z</time>
      </trkpt>
      <trkpt lat="44.449112992733717" lon="9.103214386850596">
        <ele>623.02999999999997</ele>
        <time>2019-05-23T10:20:49Z</time>
      </trkpt>
      <trkpt lat="44.449081476777792" lon="9.103198293596506">
        <ele>622.54999999999995</ele>
        <time>2019-05-23T10:20:52Z</time>
      </trkpt>
      <trkpt lat="44.449010984972119" lon="9.103174740448594">
        <ele>619.21000000000004</ele>
        <time>2019-05-23T10:20:59Z</time>
      </trkpt>
      <trkpt lat="44.448967315256596" lon="9.103152947500348">
        <ele>616.02999999999997</ele>
        <time>2019-05-23T10:21:04Z</time>
      </trkpt>
      <trkpt lat="44.448922304436564" lon="9.103157809004188">
        <ele>612.25999999999999</ele>
        <time>2019-05-23T10:21:08Z</time>
      </trkpt>
      <trkpt lat="44.448900511488318" lon="9.103160323575139">
        <ele>610.72000000000003</ele>
        <time>2019-05-23T10:21:11Z</time>
      </trkpt>
      <trkpt lat="44.448859272524714" lon="9.10316183231771">
        <ele>607.38999999999999</ele>
        <time>2019-05-23T10:21:15Z</time>
      </trkpt>
      <trkpt lat="44.448804203420877" lon="9.10318429581821">
        <ele>603.70000000000005</ele>
        <time>2019-05-23T10:21:20Z</time>
      </trkpt>
      <trkpt lat="44.44876623339951" lon="9.103199634701014">
        <ele>600.59000000000003</ele>
        <time>2019-05-23T10:21:24Z</time>
      </trkpt>
      <trkpt lat="44.44875936023891" lon="9.103203741833568">
        <ele>600.52999999999997</ele>
        <time>2019-05-23T10:21:25Z</time>
      </trkpt>
      <trkpt lat="44.448718288913369" lon="9.10324196331203">
        <ele>597.52999999999997</ele>
        <time>2019-05-23T10:21:30Z</time>
      </trkpt>
      <trkpt lat="44.448675876483321" lon="9.103295858949423">
        <ele>594.08000000000004</ele>
        <time>2019-05-23T10:21:36Z</time>
      </trkpt>
      <trkpt lat="44.4486596994102" lon="9.103322261944413">
        <ele>593.19000000000005</ele>
        <time>2019-05-23T10:21:38Z</time>
      </trkpt>
      <trkpt lat="44.448497090488672" lon="9.103421084582806">
        <ele>590.53999999999996</ele>
        <time>2019-05-23T10:21:52Z</time>
      </trkpt>
      <trkpt lat="44.448487283661962" lon="9.103419072926045">
        <ele>590.41999999999996</ele>
        <time>2019-05-23T10:21:53Z</time>
      </trkpt>
      <trkpt lat="44.448401788249612" lon="9.103424521163106">
        <ele>591</ele>
        <time>2019-05-23T10:22:00Z</time>
      </trkpt>
      <trkpt lat="44.44837630726397" lon="9.103421252220869">
        <ele>593.53999999999996</ele>
        <time>2019-05-23T10:22:07Z</time>
      </trkpt>
      <trkpt lat="44.448372535407543" lon="9.103424269706011">
        <ele>596.01999999999998</ele>
        <time>2019-05-23T10:22:11Z</time>
      </trkpt>
      <trkpt lat="44.448352754116058" lon="9.103443883359432">
        <ele>599.48000000000002</ele>
        <time>2019-05-23T10:22:18Z</time>
      </trkpt>
      <trkpt lat="44.448287123814225" lon="9.10337389446795">
        <ele>601.78999999999996</ele>
        <time>2019-05-23T10:22:30Z</time>
      </trkpt>
      <trkpt lat="44.448143374174833" lon="9.103367356583476">
        <ele>600.38999999999999</ele>
        <time>2019-05-23T10:22:45Z</time>
      </trkpt>
      <trkpt lat="44.448013370856643" lon="9.103408344089985">
        <ele>597.26999999999998</ele>
        <time>2019-05-23T10:22:58Z</time>
      </trkpt>
      <trkpt lat="44.447885463014245" lon="9.10345695912838">
        <ele>595.09000000000003</ele>
        <time>2019-05-23T10:23:11Z</time>
      </trkpt>
      <trkpt lat="44.447807176038623" lon="9.103355119004846">
        <ele>595.04999999999995</ele>
        <time>2019-05-23T10:23:26Z</time>
      </trkpt>
      <trkpt lat="44.4476961158216" lon="9.10323953256011">
        <ele>595.33000000000004</ele>
        <time>2019-05-23T10:23:42Z</time>
      </trkpt>
      <trkpt lat="44.447569632902741" lon="9.103097375482321">
        <ele>594.25</ele>
        <time>2019-05-23T10:23:57Z</time>
      </trkpt>
      <trkpt lat="44.447492603212595" lon="9.103017579764128">
        <ele>591.80999999999995</ele>
        <time>2019-05-23T10:24:08Z</time>
      </trkpt>
      <trkpt lat="44.447457902133465" lon="9.103030068799853">
        <ele>589.98000000000002</ele>
        <time>2019-05-23T10:24:12Z</time>
      </trkpt>
      <trkpt lat="44.447317169979215" lon="9.103021183982492">
        <ele>586.71000000000004</ele>
        <time>2019-05-23T10:24:25Z</time>
      </trkpt>
      <trkpt lat="44.447304178029299" lon="9.103020178154111">
        <ele>586.35000000000002</ele>
        <time>2019-05-23T10:24:26Z</time>
      </trkpt>
      <trkpt lat="44.447093876078725" lon="9.103054627776146">
        <ele>597.26999999999998</ele>
        <time>2019-05-23T10:24:54Z</time>
      </trkpt>
      <trkpt lat="44.447064958512783" lon="9.102950021624565">
        <ele>600.78999999999996</ele>
        <time>2019-05-23T10:25:02Z</time>
      </trkpt>
      <trkpt lat="44.447042075917125" lon="9.102878021076322">
        <ele>604.76999999999998</ele>
        <time>2019-05-23T10:26:25Z</time>
      </trkpt>
      <trkpt lat="44.447034867480397" lon="9.102866789326072">
        <ele>605.13999999999999</ele>
        <time>2019-05-23T10:26:26Z</time>
      </trkpt>
      <trkpt lat="44.446943840011954" lon="9.102773834019899">
        <ele>605.75999999999999</ele>
        <time>2019-05-23T10:26:36Z</time>
      </trkpt>
      <trkpt lat="44.446846442297101" lon="9.102770229801536">
        <ele>605.37</ele>
        <time>2019-05-23T10:26:47Z</time>
      </trkpt>
      <trkpt lat="44.446733118966222" lon="9.10272354260087">
        <ele>605.59000000000003</ele>
        <time>2019-05-23T10:27:00Z</time>
      </trkpt>
      <trkpt lat="44.44667587056756" lon="9.102764865383506">
        <ele>607.42999999999995</ele>
        <time>2019-05-23T10:27:11Z</time>
      </trkpt>
      <trkpt lat="44.446555087342858" lon="9.1028549708426">
        <ele>605.16999999999996</ele>
        <time>2019-05-23T10:27:26Z</time>
      </trkpt>
      <trkpt lat="44.446516530588269" lon="9.102887492626905">
        <ele>601.63</ele>
        <time>2019-05-23T10:27:32Z</time>
      </trkpt>
      <trkpt lat="44.446477219462395" lon="9.10292143933475">
        <ele>598.03999999999996</ele>
        <time>2019-05-23T10:27:37Z</time>
      </trkpt>
      <trkpt lat="44.446446625515819" lon="9.102967455983162">
        <ele>594.87</ele>
        <time>2019-05-23T10:27:42Z</time>
      </trkpt>
      <trkpt lat="44.446414858102798" lon="9.103013724088669">
        <ele>592.91999999999996</ele>
        <time>2019-05-23T10:27:46Z</time>
      </trkpt>
      <trkpt lat="44.446359034627676" lon="9.103085556998849">
        <ele>591.25</ele>
        <time>2019-05-23T10:27:52Z</time>
      </trkpt>
      <trkpt lat="44.446256523951888" lon="9.10319946706295">
        <ele>587.77999999999997</ele>
        <time>2019-05-23T10:28:06Z</time>
      </trkpt>
      <trkpt lat="44.446222493425012" lon="9.103247076272965">
        <ele>586.63</ele>
        <time>2019-05-23T10:28:10Z</time>
      </trkpt>
      <trkpt lat="44.446171866729856" lon="9.103434747084975">
        <ele>585.02999999999997</ele>
        <time>2019-05-23T10:28:21Z</time>
      </trkpt>
      <trkpt lat="44.446108499541879" lon="9.103473806753755">
        <ele>585.29999999999995</ele>
        <time>2019-05-23T10:28:29Z</time>
      </trkpt>
      <trkpt lat="44.446081509813666" lon="9.103472381830216">
        <ele>588.33000000000004</ele>
        <time>2019-05-23T10:28:40Z</time>
      </trkpt>
      <trkpt lat="44.446037504822016" lon="9.103631051257253">
        <ele>589.37</ele>
        <time>2019-05-23T10:28:52Z</time>
      </trkpt>
      <trkpt lat="44.445991404354572" lon="9.103764574974775">
        <ele>588.75</ele>
        <time>2019-05-23T10:29:01Z</time>
      </trkpt>
      <trkpt lat="44.445933317765594" lon="9.103935565799475">
        <ele>591.75</ele>
        <time>2019-05-23T10:29:13Z</time>
      </trkpt>
      <trkpt lat="44.445820413529873" lon="9.104026677086949">
        <ele>592.58000000000004</ele>
        <time>2019-05-23T10:29:25Z</time>
      </trkpt>
      <trkpt lat="44.445738773792982" lon="9.104036819189787">
        <ele>592.52999999999997</ele>
        <time>2019-05-23T10:29:32Z</time>
      </trkpt>
      <trkpt lat="44.445621846243739" lon="9.104058360680938">
        <ele>593.38999999999999</ele>
        <time>2019-05-23T10:29:42Z</time>
      </trkpt>
      <trkpt lat="44.445596868172288" lon="9.103997088968754">
        <ele>594.67999999999995</ele>
        <time>2019-05-23T10:30:06Z</time>
      </trkpt>
      <trkpt lat="44.445567028596997" lon="9.103940846398473">
        <ele>595</ele>
        <time>2019-05-23T10:30:13Z</time>
      </trkpt>
      <trkpt lat="44.445567699149251" lon="9.103905139490962">
        <ele>594.85000000000002</ele>
        <time>2019-05-23T10:30:15Z</time>
      </trkpt>
      <trkpt lat="44.445512043312192" lon="9.103789888322353">
        <ele>592.14999999999998</ele>
        <time>2019-05-23T10:30:26Z</time>
      </trkpt>
      <trkpt lat="44.445465775206685" lon="9.103806987404823">
        <ele>591.24000000000001</ele>
        <time>2019-05-23T10:30:28Z</time>
      </trkpt>
      <trkpt lat="44.445367204025388" lon="9.103738255798817">
        <ele>594.36000000000001</ele>
        <time>2019-05-23T10:30:38Z</time>
      </trkpt>
      <trkpt lat="44.445288330316544" lon="9.103661142289639">
        <ele>597.82000000000005</ele>
        <time>2019-05-23T10:30:50Z</time>
      </trkpt>
      <trkpt lat="44.445202080532908" lon="9.103610850870609">
        <ele>598.75999999999999</ele>
        <time>2019-05-23T10:31:01Z</time>
      </trkpt>
      <trkpt lat="44.445099234580994" lon="9.103539437055588">
        <ele>600.75999999999999</ele>
        <time>2019-05-23T10:31:12Z</time>
      </trkpt>
      <trkpt lat="44.44496956653893" lon="9.103492833673954">
        <ele>598.86000000000001</ele>
        <time>2019-05-23T10:31:25Z</time>
      </trkpt>
      <trkpt lat="44.444879461079836" lon="9.103509848937392">
        <ele>597.82000000000005</ele>
        <time>2019-05-23T10:31:35Z</time>
      </trkpt>
      <trkpt lat="44.444843754172325" lon="9.103514961898327">
        <ele>598.14999999999998</ele>
        <time>2019-05-23T10:31:42Z</time>
      </trkpt>
      <trkpt lat="44.444756163284183" lon="9.103498952463269">
        <ele>596.63999999999999</ele>
        <time>2019-05-23T10:31:52Z</time>
      </trkpt>
      <trkpt lat="44.444692544639111" lon="9.103568438440561">
        <ele>593.63</ele>
        <time>2019-05-23T10:32:01Z</time>
      </trkpt>
      <trkpt lat="44.444684581831098" lon="9.103602049872279">
        <ele>593.27999999999997</ele>
        <time>2019-05-23T10:32:04Z</time>
      </trkpt>
      <trkpt lat="44.444619454443455" lon="9.103702800348401">
        <ele>589.83000000000004</ele>
        <time>2019-05-23T10:32:14Z</time>
      </trkpt>
      <trkpt lat="44.444501772522926" lon="9.103794163092971">
        <ele>588.88</ele>
        <time>2019-05-23T10:32:27Z</time>
      </trkpt>
      <trkpt lat="44.444430945441127" lon="9.103865576907992">
        <ele>588.83000000000004</ele>
        <time>2019-05-23T10:32:38Z</time>
      </trkpt>
      <trkpt lat="44.4443597830832" lon="9.104013685137034">
        <ele>589.89999999999998</ele>
        <time>2019-05-23T10:32:49Z</time>
      </trkpt>
      <trkpt lat="44.44431971758604" lon="9.104057941585779">
        <ele>591.96000000000004</ele>
        <time>2019-05-23T10:32:53Z</time>
      </trkpt>
      <trkpt lat="44.444280993193388" lon="9.104119129478931">
        <ele>594.71000000000004</ele>
        <time>2019-05-23T10:32:57Z</time>
      </trkpt>
      <trkpt lat="44.44425911642611" lon="9.104153579100967">
        <ele>596.16999999999996</ele>
        <time>2019-05-23T10:33:00Z</time>
      </trkpt>
      <trkpt lat="44.44421217776835" lon="9.104245696216822">
        <ele>599.61000000000001</ele>
        <time>2019-05-23T10:33:07Z</time>
      </trkpt>
      <trkpt lat="44.444176806136966" lon="9.104321720078588">
        <ele>602.62</ele>
        <time>2019-05-23T10:33:12Z</time>
      </trkpt>
      <trkpt lat="44.44406901486218" lon="9.104514084756374">
        <ele>605.27999999999997</ele>
        <time>2019-05-23T10:33:26Z</time>
      </trkpt>
      <trkpt lat="44.443998103961349" lon="9.104754058644176">
        <ele>608.16999999999996</ele>
        <time>2019-05-23T10:33:40Z</time>
      </trkpt>
      <trkpt lat="44.443924929946661" lon="9.105031164363027">
        <ele>609.04999999999995</ele>
        <time>2019-05-23T10:33:57Z</time>
      </trkpt>
      <trkpt lat="44.443777827546" lon="9.105152869597077">
        <ele>608.25</ele>
        <time>2019-05-23T10:34:12Z</time>
      </trkpt>
      <trkpt lat="44.443705072626472" lon="9.105209447443485">
        <ele>606.54999999999995</ele>
        <time>2019-05-23T10:34:21Z</time>
      </trkpt>
      <trkpt lat="44.443605914711952" lon="9.105341713875532">
        <ele>605.45000000000005</ele>
        <time>2019-05-23T10:34:34Z</time>
      </trkpt>
      <trkpt lat="44.443526202812791" lon="9.105508094653487">
        <ele>607.58000000000004</ele>
        <time>2019-05-23T10:34:47Z</time>
      </trkpt>
      <trkpt lat="44.443455040454865" lon="9.105655197054148">
        <ele>607.67999999999995</ele>
        <time>2019-05-23T10:34:59Z</time>
      </trkpt>
      <trkpt lat="44.443386644124985" lon="9.105774303898215">
        <ele>605.47000000000003</ele>
        <time>2019-05-23T10:35:10Z</time>
      </trkpt>
      <trkpt lat="44.443218167871237" lon="9.105800539255142">
        <ele>606.40999999999997</ele>
        <time>2019-05-23T10:35:25Z</time>
      </trkpt>
      <trkpt lat="44.443205678835511" lon="9.105798276141286">
        <ele>606.30999999999995</ele>
        <time>2019-05-23T10:35:26Z</time>
      </trkpt>
      <trkpt lat="44.443134348839521" lon="9.105778075754643">
        <ele>606.60000000000002</ele>
        <time>2019-05-23T10:35:32Z</time>
      </trkpt>
      <trkpt lat="44.443049607798457" lon="9.105758210644126">
        <ele>608.33000000000004</ele>
        <time>2019-05-23T10:35:38Z</time>
      </trkpt>
      <trkpt lat="44.442969057708979" lon="9.105689814314246">
        <ele>610.74000000000001</ele>
        <time>2019-05-23T10:35:47Z</time>
      </trkpt>
      <trkpt lat="44.44294860586524" lon="9.105680342763662">
        <ele>610.88999999999999</ele>
        <time>2019-05-23T10:35:49Z</time>
      </trkpt>
      <trkpt lat="44.442840646952391" lon="9.105604402720928">
        <ele>614.13999999999999</ele>
        <time>2019-05-23T10:36:00Z</time>
      </trkpt>
      <trkpt lat="44.442715840414166" lon="9.105515386909246">
        <ele>616.35000000000002</ele>
        <time>2019-05-23T10:36:12Z</time>
      </trkpt>
      <trkpt lat="44.442670410498977" lon="9.105494180694223">
        <ele>616.84000000000003</ele>
        <time>2019-05-23T10:36:16Z</time>
      </trkpt>
      <trkpt lat="44.442639984190464" lon="9.105473896488547">
        <ele>617.35000000000002</ele>
        <time>2019-05-23T10:36:19Z</time>
      </trkpt>
      <trkpt lat="44.442560523748398" lon="9.105408433824778">
        <ele>618.53999999999996</ele>
        <time>2019-05-23T10:36:29Z</time>
      </trkpt>
      <trkpt lat="44.442423228174448" lon="9.105340875685215">
        <ele>619.48000000000002</ele>
        <time>2019-05-23T10:36:43Z</time>
      </trkpt>
      <trkpt lat="44.44230068475008" lon="9.105286477133632">
        <ele>619.34000000000003</ele>
        <time>2019-05-23T10:36:54Z</time>
      </trkpt>
      <trkpt lat="44.442115277051926" lon="9.105334421619773">
        <ele>621</ele>
        <time>2019-05-23T10:37:10Z</time>
      </trkpt>
      <trkpt lat="44.441934898495674" lon="9.105414804071188">
        <ele>622.57000000000005</ele>
        <time>2019-05-23T10:37:26Z</time>
      </trkpt>
      <trkpt lat="44.441771116107702" lon="9.105508597567678">
        <ele>623.02999999999997</ele>
        <time>2019-05-23T10:37:41Z</time>
      </trkpt>
      <trkpt lat="44.441552683711052" lon="9.105538856238127">
        <ele>626.20000000000005</ele>
        <time>2019-05-23T10:37:58Z</time>
      </trkpt>
      <trkpt lat="44.441421506926417" lon="9.105507591739297">
        <ele>627.55999999999995</ele>
        <time>2019-05-23T10:38:09Z</time>
      </trkpt>
      <trkpt lat="44.44123643450439" lon="9.105482529848814">
        <ele>627.75</ele>
        <time>2019-05-23T10:38:25Z</time>
      </trkpt>
      <trkpt lat="44.441061755642295" lon="9.105555200949311">
        <ele>629.5</ele>
        <time>2019-05-23T10:38:41Z</time>
      </trkpt>
      <trkpt lat="44.440931417047977" lon="9.105655951425433">
        <ele>628.82000000000005</ele>
        <time>2019-05-23T10:38:53Z</time>
      </trkpt>
      <trkpt lat="44.44081868045032" lon="9.105727029964328">
        <ele>626.75999999999999</ele>
        <time>2019-05-23T10:39:04Z</time>
      </trkpt>
      <trkpt lat="44.440654898062348" lon="9.105838090181351">
        <ele>626.38999999999999</ele>
        <time>2019-05-23T10:39:18Z</time>
      </trkpt>
      <trkpt lat="44.440476698800921" lon="9.105963902547956">
        <ele>626.63999999999999</ele>
        <time>2019-05-23T10:39:34Z</time>
      </trkpt>
      <trkpt lat="44.440300846472383" lon="9.106115028262138">
        <ele>627.45000000000005</ele>
        <time>2019-05-23T10:39:50Z</time>
      </trkpt>
      <trkpt lat="44.440125999972224" lon="9.106183592230082">
        <ele>626.86000000000001</ele>
        <time>2019-05-23T10:40:05Z</time>
      </trkpt>
      <trkpt lat="44.439985938370228" lon="9.106177892535925">
        <ele>624.85000000000002</ele>
        <time>2019-05-23T10:40:16Z</time>
      </trkpt>
      <trkpt lat="44.439864652231336" lon="9.106147047132254">
        <ele>623.42999999999995</ele>
        <time>2019-05-23T10:40:25Z</time>
      </trkpt>
      <trkpt lat="44.439698271453381" lon="9.106094911694527">
        <ele>626.40999999999997</ele>
        <time>2019-05-23T10:40:37Z</time>
      </trkpt>
      <trkpt lat="44.439554437994957" lon="9.105996927246451">
        <ele>627.49000000000001</ele>
        <time>2019-05-23T10:40:51Z</time>
      </trkpt>
      <trkpt lat="44.43940406665206" lon="9.105901289731264">
        <ele>627.98000000000002</ele>
        <time>2019-05-23T10:41:04Z</time>
      </trkpt>
      <trkpt lat="44.439364755526185" lon="9.105870360508561">
        <ele>628.72000000000003</ele>
        <time>2019-05-23T10:41:08Z</time>
      </trkpt>
      <trkpt lat="44.439275823533535" lon="9.105820907279849">
        <ele>629.75</ele>
        <time>2019-05-23T10:41:16Z</time>
      </trkpt>
      <trkpt lat="44.439174486324191" lon="9.105740776285529">
        <ele>630.88999999999999</ele>
        <time>2019-05-23T10:41:26Z</time>
      </trkpt>
      <trkpt lat="44.439146155491471" lon="9.1056904848665">
        <ele>631.59000000000003</ele>
        <time>2019-05-23T10:41:37Z</time>
      </trkpt>
      <trkpt lat="44.439105587080121" lon="9.105597529560328">
        <ele>630.94000000000005</ele>
        <time>2019-05-23T10:41:49Z</time>
      </trkpt>
      <trkpt lat="44.439024198800325" lon="9.105413211509585">
        <ele>631.48000000000002</ele>
        <time>2019-05-23T10:42:02Z</time>
      </trkpt>
      <trkpt lat="44.438973404467106" lon="9.10533576272428">
        <ele>633.15999999999997</ele>
        <time>2019-05-23T10:42:09Z</time>
      </trkpt>
      <trkpt lat="44.438940212130547" lon="9.105306761339307">
        <ele>634.5</ele>
        <time>2019-05-23T10:42:13Z</time>
      </trkpt>
      <trkpt lat="44.438820015639067" lon="9.105296032503247">
        <ele>634.58000000000004</ele>
        <time>2019-05-23T10:42:25Z</time>
      </trkpt>
      <trkpt lat="44.43866578862071" lon="9.10536702722311">
        <ele>636.05999999999995</ele>
        <time>2019-05-23T10:42:38Z</time>
      </trkpt>
      <trkpt lat="44.438548944890499" lon="9.105463922023773">
        <ele>636.74000000000001</ele>
        <time>2019-05-23T10:42:50Z</time>
      </trkpt>
      <trkpt lat="44.438382145017385" lon="9.105592835694552">
        <ele>638.61000000000001</ele>
        <time>2019-05-23T10:43:05Z</time>
      </trkpt>
      <trkpt lat="44.438239401206374" lon="9.105639271438122">
        <ele>640.07000000000005</ele>
        <time>2019-05-23T10:43:17Z</time>
      </trkpt>
      <trkpt lat="44.438075786456466" lon="9.105617394670844">
        <ele>641.27999999999997</ele>
        <time>2019-05-23T10:43:29Z</time>
      </trkpt>
      <trkpt lat="44.437960367649794" lon="9.105584872886539">
        <ele>643.67999999999995</ele>
        <time>2019-05-23T10:43:40Z</time>
      </trkpt>
      <trkpt lat="44.437874285504222" lon="9.105557715520263">
        <ele>644.03999999999996</ele>
        <time>2019-05-23T10:43:49Z</time>
      </trkpt>
      <trkpt lat="44.437736570835114" lon="9.105535252019763">
        <ele>645.24000000000001</ele>
        <time>2019-05-23T10:44:02Z</time>
      </trkpt>
      <trkpt lat="44.437607657164335" lon="9.105522092431784">
        <ele>646.34000000000003</ele>
        <time>2019-05-23T10:44:13Z</time>
      </trkpt>
      <trkpt lat="44.437464997172356" lon="9.105503736063838">
        <ele>648.22000000000003</ele>
        <time>2019-05-23T10:44:24Z</time>
      </trkpt>
      <trkpt lat="44.437337256968021" lon="9.105430310592055">
        <ele>650.38999999999999</ele>
        <time>2019-05-23T10:44:35Z</time>
      </trkpt>
      <trkpt lat="44.437273386865854" lon="9.105378007516265">
        <ele>651.79999999999995</ele>
        <time>2019-05-23T10:44:41Z</time>
      </trkpt>
      <trkpt lat="44.437168445438147" lon="9.105292428284884">
        <ele>653.33000000000004</ele>
        <time>2019-05-23T10:44:51Z</time>
      </trkpt>
      <trkpt lat="44.437137013301253" lon="9.105265103280544">
        <ele>653.37</ele>
        <time>2019-05-23T10:44:54Z</time>
      </trkpt>
      <trkpt lat="44.436981277540326" lon="9.105167873203754">
        <ele>653.63999999999999</ele>
        <time>2019-05-23T10:45:08Z</time>
      </trkpt>
      <trkpt lat="44.436864769086242" lon="9.105100566521287">
        <ele>654.10000000000002</ele>
        <time>2019-05-23T10:45:19Z</time>
      </trkpt>
      <trkpt lat="44.43672495894134" lon="9.105038624256849">
        <ele>655.40999999999997</ele>
        <time>2019-05-23T10:45:32Z</time>
      </trkpt>
      <trkpt lat="44.436695873737335" lon="9.105030912905932">
        <ele>655.80999999999995</ele>
        <time>2019-05-23T10:45:35Z</time>
      </trkpt>
      <trkpt lat="44.436572240665555" lon="9.105002246797085">
        <ele>653.60000000000002</ele>
        <time>2019-05-23T10:45:46Z</time>
      </trkpt>
      <trkpt lat="44.436456151306629" lon="9.104981627315283">
        <ele>653.21000000000004</ele>
        <time>2019-05-23T10:45:56Z</time>
      </trkpt>
      <trkpt lat="44.436322208493948" lon="9.104938544332981">
        <ele>654.94000000000005</ele>
        <time>2019-05-23T10:46:09Z</time>
      </trkpt>
      <trkpt lat="44.436261607334018" lon="9.104919014498591">
        <ele>655.98000000000002</ele>
        <time>2019-05-23T10:46:14Z</time>
      </trkpt>
      <trkpt lat="44.436208717525005" lon="9.104924546554685">
        <ele>657.80999999999995</ele>
        <time>2019-05-23T10:46:18Z</time>
      </trkpt>
      <trkpt lat="44.436098663136363" lon="9.104907112196088">
        <ele>659.53999999999996</ele>
        <time>2019-05-23T10:46:28Z</time>
      </trkpt>
      <trkpt lat="44.436081731691957" lon="9.104893282055855">
        <ele>659.66999999999996</ele>
        <time>2019-05-23T10:46:30Z</time>
      </trkpt>
      <trkpt lat="44.435940580442548" lon="9.104849779978395">
        <ele>662.62</ele>
        <time>2019-05-23T10:46:44Z</time>
      </trkpt>
      <trkpt lat="44.435747712850571" lon="9.104858916252852">
        <ele>665.26999999999998</ele>
        <time>2019-05-23T10:47:00Z</time>
      </trkpt>
      <trkpt lat="44.43560647778213" lon="9.104859502986074">
        <ele>666.46000000000004</ele>
        <time>2019-05-23T10:47:12Z</time>
      </trkpt>
      <trkpt lat="44.435584684833884" lon="9.104857910424471">
        <ele>666.27999999999997</ele>
        <time>2019-05-23T10:47:14Z</time>
      </trkpt>
      <trkpt lat="44.435538835823536" lon="9.104850953444839">
        <ele>665.26999999999998</ele>
        <time>2019-05-23T10:47:19Z</time>
      </trkpt>
      <trkpt lat="44.435407994315028" lon="9.104844080284238">
        <ele>662.29999999999995</ele>
        <time>2019-05-23T10:47:35Z</time>
      </trkpt>
      <trkpt lat="44.435345213860273" lon="9.104804182425141">
        <ele>671.97000000000003</ele>
        <time>2019-05-23T10:59:37Z</time>
      </trkpt>
      <trkpt lat="44.435230968520045" lon="9.104748610407114">
        <ele>672.45000000000005</ele>
        <time>2019-05-23T11:00:07Z</time>
      </trkpt>
      <trkpt lat="44.435120662674308" lon="9.104599412530661">
        <ele>672.15999999999997</ele>
        <time>2019-05-23T11:00:21Z</time>
      </trkpt>
      <trkpt lat="44.435029048472643" lon="9.104461027309299">
        <ele>672.88</ele>
        <time>2019-05-23T11:00:34Z</time>
      </trkpt>
      <trkpt lat="44.434894435107708" lon="9.104457926005125">
        <ele>667.75999999999999</ele>
        <time>2019-05-23T11:27:47Z</time>
      </trkpt>
      <trkpt lat="44.434783961623907" lon="9.104398246854544">
        <ele>669.5</ele>
        <time>2019-05-23T11:28:27Z</time>
      </trkpt>
      <trkpt lat="44.434677930548787" lon="9.104321803897619">
        <ele>671.08000000000004</ele>
        <time>2019-05-23T11:28:43Z</time>
      </trkpt>
      <trkpt lat="44.434613808989525" lon="9.104281319305301">
        <ele>671.41999999999996</ele>
        <time>2019-05-23T11:28:50Z</time>
      </trkpt>
      <trkpt lat="44.434518590569496" lon="9.104264052584767">
        <ele>672.16999999999996</ele>
        <time>2019-05-23T11:29:01Z</time>
      </trkpt>
      <trkpt lat="44.434453211724758" lon="9.104249132797122">
        <ele>672.69000000000005</ele>
        <time>2019-05-23T11:29:08Z</time>
      </trkpt>
      <trkpt lat="44.434397220611572" lon="9.104244271293283">
        <ele>672.79999999999995</ele>
        <time>2019-05-23T11:29:13Z</time>
      </trkpt>
      <trkpt lat="44.434267217293382" lon="9.104221388697624">
        <ele>672.79999999999995</ele>
        <time>2019-05-23T11:29:25Z</time>
      </trkpt>
      <trkpt lat="44.434139812365174" lon="9.104138491675258">
        <ele>672.5</ele>
        <time>2019-05-23T11:29:36Z</time>
      </trkpt>
      <trkpt lat="44.434122713282704" lon="9.104115022346377">
        <ele>672.53999999999996</ele>
        <time>2019-05-23T11:29:38Z</time>
      </trkpt>
      <trkpt lat="44.434053814038634" lon="9.104073951020837">
        <ele>672.53999999999996</ele>
        <time>2019-05-23T11:29:45Z</time>
      </trkpt>
      <trkpt lat="44.433993129059672" lon="9.104004465043545">
        <ele>672.29999999999995</ele>
        <time>2019-05-23T11:29:56Z</time>
      </trkpt>
      <trkpt lat="44.433956751599908" lon="9.103969847783446">
        <ele>672.48000000000002</ele>
        <time>2019-05-23T11:30:06Z</time>
      </trkpt>
      <trkpt lat="44.43384351208806" lon="9.103879658505321">
        <ele>673.33000000000004</ele>
        <time>2019-05-23T11:30:19Z</time>
      </trkpt>
      <trkpt lat="44.433729266747832" lon="9.103822326287627">
        <ele>674.53999999999996</ele>
        <time>2019-05-23T11:30:32Z</time>
      </trkpt>
      <trkpt lat="44.433632120490074" lon="9.103800198063254">
        <ele>675.90999999999997</ele>
        <time>2019-05-23T11:30:43Z</time>
      </trkpt>
      <trkpt lat="44.43357135169208" lon="9.103791732341051">
        <ele>675.95000000000005</ele>
        <time>2019-05-23T11:30:49Z</time>
      </trkpt>
      <trkpt lat="44.433472109958529" lon="9.103713529184461">
        <ele>675.83000000000004</ele>
        <time>2019-05-23T11:31:00Z</time>
      </trkpt>
      <trkpt lat="44.433406060561538" lon="9.10364119336009">
        <ele>675.51999999999998</ele>
        <time>2019-05-23T11:31:08Z</time>
      </trkpt>
      <trkpt lat="44.433300448581576" lon="9.103514207527041">
        <ele>674.37</ele>
        <time>2019-05-23T11:31:20Z</time>
      </trkpt>
      <trkpt lat="44.433163488283753" lon="9.103416642174125">
        <ele>674.21000000000004</ele>
        <time>2019-05-23T11:31:33Z</time>
      </trkpt>
      <trkpt lat="44.433054188266397" lon="9.103365680202842">
        <ele>674.28999999999996</ele>
        <time>2019-05-23T11:31:43Z</time>
      </trkpt>
      <trkpt lat="44.432936841621995" lon="9.103308683261275">
        <ele>673.37</ele>
        <time>2019-05-23T11:31:53Z</time>
      </trkpt>
      <trkpt lat="44.43283936008811" lon="9.10325319506228">
        <ele>672.46000000000004</ele>
        <time>2019-05-23T11:32:03Z</time>
      </trkpt>
      <trkpt lat="44.432809185236692" lon="9.103227378800511">
        <ele>672.49000000000001</ele>
        <time>2019-05-23T11:32:06Z</time>
      </trkpt>
      <trkpt lat="44.432734670117497" lon="9.103195862844586">
        <ele>672.01999999999998</ele>
        <time>2019-05-23T11:32:13Z</time>
      </trkpt>
      <trkpt lat="44.432643726468086" lon="9.10322000272572">
        <ele>671.75999999999999</ele>
        <time>2019-05-23T11:32:20Z</time>
      </trkpt>
      <trkpt lat="44.432551357895136" lon="9.10332603380084">
        <ele>670.89999999999998</ele>
        <time>2019-05-23T11:32:29Z</time>
      </trkpt>
      <trkpt lat="44.43242110311985" lon="9.103479841724038">
        <ele>671.15999999999997</ele>
        <time>2019-05-23T11:32:43Z</time>
      </trkpt>
      <trkpt lat="44.432324375957251" lon="9.103438435122371">
        <ele>671.45000000000005</ele>
        <time>2019-05-23T11:32:53Z</time>
      </trkpt>
      <trkpt lat="44.432231169193983" lon="9.103385461494327">
        <ele>672.03999999999996</ele>
        <time>2019-05-23T11:33:03Z</time>
      </trkpt>
      <trkpt lat="44.432185404002666" lon="9.103358471766114">
        <ele>672.08000000000004</ele>
        <time>2019-05-23T11:33:08Z</time>
      </trkpt>
      <trkpt lat="44.432144081220031" lon="9.103339025750756">
        <ele>672.40999999999997</ele>
        <time>2019-05-23T11:33:12Z</time>
      </trkpt>
      <trkpt lat="44.432022711262107" lon="9.103253278881311">
        <ele>672.76999999999998</ele>
        <time>2019-05-23T11:33:25Z</time>
      </trkpt>
      <trkpt lat="44.431977532804012" lon="9.103251937776804">
        <ele>673.51999999999998</ele>
        <time>2019-05-23T11:33:30Z</time>
      </trkpt>
      <trkpt lat="44.431893210858107" lon="9.103308264166117">
        <ele>673.17999999999995</ele>
        <time>2019-05-23T11:33:39Z</time>
      </trkpt>
      <trkpt lat="44.431808888912201" lon="9.10328596830368">
        <ele>673.90999999999997</ele>
        <time>2019-05-23T11:33:49Z</time>
      </trkpt>
      <trkpt lat="44.431776702404022" lon="9.103268533945084">
        <ele>674.32000000000005</ele>
        <time>2019-05-23T11:33:53Z</time>
      </trkpt>
      <trkpt lat="44.431713586673141" lon="9.103234587237239">
        <ele>674.54999999999995</ele>
        <time>2019-05-23T11:34:00Z</time>
      </trkpt>
      <trkpt lat="44.431660864502192" lon="9.10306803882122">
        <ele>673.99000000000001</ele>
        <time>2019-05-23T11:34:12Z</time>
      </trkpt>
      <trkpt lat="44.431656589731574" lon="9.102981621399522">
        <ele>673.77999999999997</ele>
        <time>2019-05-23T11:34:17Z</time>
      </trkpt>
      <trkpt lat="44.431651476770639" lon="9.102872405201197">
        <ele>673.83000000000004</ele>
        <time>2019-05-23T11:34:24Z</time>
      </trkpt>
      <trkpt lat="44.431643262505531" lon="9.102808786556125">
        <ele>673.92999999999995</ele>
        <time>2019-05-23T11:34:28Z</time>
      </trkpt>
      <trkpt lat="44.43163194693625" lon="9.102662187069655">
        <ele>674.71000000000004</ele>
        <time>2019-05-23T11:34:39Z</time>
      </trkpt>
      <trkpt lat="44.431593054905534" lon="9.102599741891027">
        <ele>675.25999999999999</ele>
        <time>2019-05-23T11:34:45Z</time>
      </trkpt>
      <trkpt lat="44.431498004123569" lon="9.102512486279011">
        <ele>675.45000000000005</ele>
        <time>2019-05-23T11:34:56Z</time>
      </trkpt>
      <trkpt lat="44.431452406570315" lon="9.102476025000215">
        <ele>675.15999999999997</ele>
        <time>2019-05-23T11:35:04Z</time>
      </trkpt>
      <trkpt lat="44.431419465690851" lon="9.102476192638278">
        <ele>674.78999999999996</ele>
        <time>2019-05-23T11:35:09Z</time>
      </trkpt>
      <trkpt lat="44.43134855479002" lon="9.102482227608562">
        <ele>674.25</ele>
        <time>2019-05-23T11:35:16Z</time>
      </trkpt>
      <trkpt lat="44.431269597262144" lon="9.102438809350133">
        <ele>673.59000000000003</ele>
        <time>2019-05-23T11:35:24Z</time>
      </trkpt>
      <trkpt lat="44.431177480146289" lon="9.10243671387434">
        <ele>673.37</ele>
        <time>2019-05-23T11:35:34Z</time>
      </trkpt>
      <trkpt lat="44.43115652538836" lon="9.102407209575176">
        <ele>673.38</ele>
        <time>2019-05-23T11:35:37Z</time>
      </trkpt>
      <trkpt lat="44.431075053289533" lon="9.102355912327766">
        <ele>673.57000000000005</ele>
        <time>2019-05-23T11:35:45Z</time>
      </trkpt>
      <trkpt lat="44.43101872690022" lon="9.102260693907738">
        <ele>673.41999999999996</ele>
        <time>2019-05-23T11:35:54Z</time>
      </trkpt>
      <trkpt lat="44.431006154045463" lon="9.102193638682365">
        <ele>673.74000000000001</ele>
        <time>2019-05-23T11:35:59Z</time>
      </trkpt>
      <trkpt lat="44.430987043306231" lon="9.102030443027616">
        <ele>675.38999999999999</ele>
        <time>2019-05-23T11:36:12Z</time>
      </trkpt>
      <trkpt lat="44.430876569822431" lon="9.101958777755499">
        <ele>674.84000000000003</ele>
        <time>2019-05-23T11:36:24Z</time>
      </trkpt>
      <trkpt lat="44.430856201797724" lon="9.10194855183363">
        <ele>674.42999999999995</ele>
        <time>2019-05-23T11:36:26Z</time>
      </trkpt>
      <trkpt lat="44.430733490735292" lon="9.101845119148493">
        <ele>674.46000000000004</ele>
        <time>2019-05-23T11:36:37Z</time>
      </trkpt>
      <trkpt lat="44.430652437731624" lon="9.101758785545826">
        <ele>674.76999999999998</ele>
        <time>2019-05-23T11:36:46Z</time>
      </trkpt>
      <trkpt lat="44.430637350305915" lon="9.10174822434783">
        <ele>674.75</ele>
        <time>2019-05-23T11:36:47Z</time>
      </trkpt>
      <trkpt lat="44.430498043075204" lon="9.101762138307095">
        <ele>674.38</ele>
        <time>2019-05-23T11:36:59Z</time>
      </trkpt>
      <trkpt lat="44.430412715300918" lon="9.101804215461016">
        <ele>676.24000000000001</ele>
        <time>2019-05-23T11:37:10Z</time>
      </trkpt>
      <trkpt lat="44.430403243750334" lon="9.101818380877376">
        <ele>676.33000000000004</ele>
        <time>2019-05-23T11:37:11Z</time>
      </trkpt>
      <trkpt lat="44.430293273180723" lon="9.101860290393233">
        <ele>675.67999999999995</ele>
        <time>2019-05-23T11:37:21Z</time>
      </trkpt>
      <trkpt lat="44.43018171004951" lon="9.101895745843649">
        <ele>675.40999999999997</ele>
        <time>2019-05-23T11:37:32Z</time>
      </trkpt>
      <trkpt lat="44.430117085576057" lon="9.101901780813932">
        <ele>675.75</ele>
        <time>2019-05-23T11:37:40Z</time>
      </trkpt>
      <trkpt lat="44.430051539093256" lon="9.101901445537806">
        <ele>676.92999999999995</ele>
        <time>2019-05-23T11:37:50Z</time>
      </trkpt>
      <trkpt lat="44.430041396990418" lon="9.101905217394233">
        <ele>676.91999999999996</ele>
        <time>2019-05-23T11:37:51Z</time>
      </trkpt>
      <trkpt lat="44.430016586557031" lon="9.101917538791895">
        <ele>676.51999999999998</ele>
        <time>2019-05-23T11:37:53Z</time>
      </trkpt>
      <trkpt lat="44.429975599050522" lon="9.101925669237971">
        <ele>676.10000000000002</ele>
        <time>2019-05-23T11:37:56Z</time>
      </trkpt>
      <trkpt lat="44.429879542440176" lon="9.101959280669689">
        <ele>674.52999999999997</ele>
        <time>2019-05-23T11:38:04Z</time>
      </trkpt>
      <trkpt lat="44.429710814729333" lon="9.10196028649807">
        <ele>673.63999999999999</ele>
        <time>2019-05-23T11:38:19Z</time>
      </trkpt>
      <trkpt lat="44.429680472239852" lon="9.101942516863346">
        <ele>673.20000000000005</ele>
        <time>2019-05-23T11:38:22Z</time>
      </trkpt>
      <trkpt lat="44.429550301283598" lon="9.101987695321441">
        <ele>671.78999999999996</ele>
        <time>2019-05-23T11:38:32Z</time>
      </trkpt>
      <trkpt lat="44.429439827799797" lon="9.101973026990891">
        <ele>672.13</ele>
        <time>2019-05-23T11:38:43Z</time>
      </trkpt>
      <trkpt lat="44.429322900250554" lon="9.101975960657001">
        <ele>672.46000000000004</ele>
        <time>2019-05-23T11:38:53Z</time>
      </trkpt>
      <trkpt lat="44.429303957149386" lon="9.101971182972193">
        <ele>672.75999999999999</ele>
        <time>2019-05-23T11:38:55Z</time>
      </trkpt>
      <trkpt lat="44.429262885823846" lon="9.101932626217604">
        <ele>673.36000000000001</ele>
        <time>2019-05-23T11:39:00Z</time>
      </trkpt>
      <trkpt lat="44.429191220551729" lon="9.101842017844319">
        <ele>673.55999999999995</ele>
        <time>2019-05-23T11:39:10Z</time>
      </trkpt>
      <trkpt lat="44.429166493937373" lon="9.10181418992579">
        <ele>673.48000000000002</ele>
        <time>2019-05-23T11:39:13Z</time>
      </trkpt>
      <trkpt lat="44.429087033495307" lon="9.101870097219944">
        <ele>672.23000000000002</ele>
        <time>2019-05-23T11:39:24Z</time>
      </trkpt>
      <trkpt lat="44.429080495610833" lon="9.10188065841794">
        <ele>671.92999999999995</ele>
        <time>2019-05-23T11:39:25Z</time>
      </trkpt>
      <trkpt lat="44.429000029340386" lon="9.101975290104747">
        <ele>670.62</ele>
        <time>2019-05-23T11:39:34Z</time>
      </trkpt>
      <trkpt lat="44.428928447887301" lon="9.102000771090388">
        <ele>669.80999999999995</ele>
        <time>2019-05-23T11:39:40Z</time>
      </trkpt>
      <trkpt lat="44.428884107619524" lon="9.102069921791554">
        <ele>669.14999999999998</ele>
        <time>2019-05-23T11:39:45Z</time>
      </trkpt>
      <trkpt lat="44.428768772631884" lon="9.102202691137791">
        <ele>669.39999999999998</ele>
        <time>2019-05-23T11:39:58Z</time>
      </trkpt>
      <trkpt lat="44.428765755146742" lon="9.102210905402899">
        <ele>669.50999999999999</ele>
        <time>2019-05-23T11:39:59Z</time>
      </trkpt>
      <trkpt lat="44.428753852844238" lon="9.102241834625602">
        <ele>669.63999999999999</ele>
        <time>2019-05-23T11:40:02Z</time>
      </trkpt>
      <trkpt lat="44.428690737113357" lon="9.102307045832276">
        <ele>669.16999999999996</ele>
        <time>2019-05-23T11:40:14Z</time>
      </trkpt>
      <trkpt lat="44.428733233362436" lon="9.102421961724758">
        <ele>670.30999999999995</ele>
        <time>2019-05-23T11:40:26Z</time>
      </trkpt>
      <trkpt lat="44.428800456225872" lon="9.10250167362392">
        <ele>672.88</ele>
        <time>2019-05-23T11:40:38Z</time>
      </trkpt>
      <trkpt lat="44.428837755694985" lon="9.10254467278719">
        <ele>673.69000000000005</ele>
        <time>2019-05-23T11:40:43Z</time>
      </trkpt>
      <trkpt lat="44.428858039900661" lon="9.102563867345452">
        <ele>673.87</ele>
        <time>2019-05-23T11:40:45Z</time>
      </trkpt>
      <trkpt lat="44.428877988830209" lon="9.102697223424912">
        <ele>672.30999999999995</ele>
        <time>2019-05-23T11:40:57Z</time>
      </trkpt>
      <trkpt lat="44.42876466549933" lon="9.102774001657963">
        <ele>668.88</ele>
        <time>2019-05-23T11:41:12Z</time>
      </trkpt>
      <trkpt lat="44.428737675771117" lon="9.102789927273989">
        <ele>668.69000000000005</ele>
        <time>2019-05-23T11:41:14Z</time>
      </trkpt>
      <trkpt lat="44.428715379908681" lon="9.102798392996192">
        <ele>668.61000000000001</ele>
        <time>2019-05-23T11:41:16Z</time>
      </trkpt>
      <trkpt lat="44.428578922525048" lon="9.102811720222235">
        <ele>668.74000000000001</ele>
        <time>2019-05-23T11:41:28Z</time>
      </trkpt>
      <trkpt lat="44.428556710481644" lon="9.102951111271977">
        <ele>669.42999999999995</ele>
        <time>2019-05-23T11:41:38Z</time>
      </trkpt>
      <trkpt lat="44.428569953888655" lon="9.102969383820891">
        <ele>669.50999999999999</ele>
        <time>2019-05-23T11:41:40Z</time>
      </trkpt>
      <trkpt lat="44.428617646917701" lon="9.103097626939416">
        <ele>670.12</ele>
        <time>2019-05-23T11:41:52Z</time>
      </trkpt>
      <trkpt lat="44.428583700209856" lon="9.103254452347755">
        <ele>671.51999999999998</ele>
        <time>2019-05-23T11:42:06Z</time>
      </trkpt>
      <trkpt lat="44.428517064079642" lon="9.103335337713361">
        <ele>674.60000000000002</ele>
        <time>2019-05-23T11:42:20Z</time>
      </trkpt>
      <trkpt lat="44.428429640829563" lon="9.103437848389149">
        <ele>676.95000000000005</ele>
        <time>2019-05-23T11:42:34Z</time>
      </trkpt>
      <trkpt lat="44.428397957235575" lon="9.103577239438891">
        <ele>679.62</ele>
        <time>2019-05-23T11:42:51Z</time>
      </trkpt>
      <trkpt lat="44.428347079083323" lon="9.103645049035549">
        <ele>680.91999999999996</ele>
        <time>2019-05-23T11:43:02Z</time>
      </trkpt>
      <trkpt lat="44.428276922553778" lon="9.103660052642226">
        <ele>683.51999999999998</ele>
        <time>2019-05-23T11:43:15Z</time>
      </trkpt>
      <trkpt lat="44.428243646398187" lon="9.103682516142726">
        <ele>684.57000000000005</ele>
        <time>2019-05-23T11:43:22Z</time>
      </trkpt>
      <trkpt lat="44.428233169019222" lon="9.103707494214177">
        <ele>684.66999999999996</ele>
        <time>2019-05-23T11:43:24Z</time>
      </trkpt>
      <trkpt lat="44.428189750760794" lon="9.103762563318014">
        <ele>684.12</ele>
        <time>2019-05-23T11:43:30Z</time>
      </trkpt>
      <trkpt lat="44.428107105195522" lon="9.103843281045556">
        <ele>685.09000000000003</ele>
        <time>2019-05-23T11:43:43Z</time>
      </trkpt>
      <trkpt lat="44.428040888160467" lon="9.103962052613497">
        <ele>686.15999999999997</ele>
        <time>2019-05-23T11:43:56Z</time>
      </trkpt>
      <trkpt lat="44.427984645590186" lon="9.104081159457564">
        <ele>688.64999999999998</ele>
        <time>2019-05-23T11:44:12Z</time>
      </trkpt>
      <trkpt lat="44.427915662527084" lon="9.10416254773736">
        <ele>691.52999999999997</ele>
        <time>2019-05-23T11:44:26Z</time>
      </trkpt>
      <trkpt lat="44.427871908992529" lon="9.104211498051882">
        <ele>692.65999999999997</ele>
        <time>2019-05-23T11:44:33Z</time>
      </trkpt>
      <trkpt lat="44.427827233448625" lon="9.104246366769075">
        <ele>692.19000000000005</ele>
        <time>2019-05-23T11:44:37Z</time>
      </trkpt>
      <trkpt lat="44.427753891795874" lon="9.104392044246197">
        <ele>693.46000000000004</ele>
        <time>2019-05-23T11:44:52Z</time>
      </trkpt>
      <trkpt lat="44.427679544314742" lon="9.104461530223489">
        <ele>695.94000000000005</ele>
        <time>2019-05-23T11:45:06Z</time>
      </trkpt>
      <trkpt lat="44.427653392776847" lon="9.104487765580416">
        <ele>696.64999999999998</ele>
        <time>2019-05-23T11:45:10Z</time>
      </trkpt>
      <trkpt lat="44.427591282874346" lon="9.104644423350692">
        <ele>698.30999999999995</ele>
        <time>2019-05-23T11:45:25Z</time>
      </trkpt>
      <trkpt lat="44.42751525901258" lon="9.104742910712957">
        <ele>700.97000000000003</ele>
        <time>2019-05-23T11:45:40Z</time>
      </trkpt>
      <trkpt lat="44.427481731399894" lon="9.104821281507611">
        <ele>701.73000000000002</ele>
        <time>2019-05-23T11:45:48Z</time>
      </trkpt>
      <trkpt lat="44.427416939288378" lon="9.104877943173051">
        <ele>703.16999999999996</ele>
        <time>2019-05-23T11:46:00Z</time>
      </trkpt>
      <trkpt lat="44.427327085286379" lon="9.104889342561364">
        <ele>705.29999999999995</ele>
        <time>2019-05-23T11:46:14Z</time>
      </trkpt>
      <trkpt lat="44.427238907665014" lon="9.104892946779728">
        <ele>705.98000000000002</ele>
        <time>2019-05-23T11:46:25Z</time>
      </trkpt>
      <trkpt lat="44.427176043391228" lon="9.104897473007441">
        <ele>706.09000000000003</ele>
        <time>2019-05-23T11:46:34Z</time>
      </trkpt>
      <trkpt lat="44.427118208259344" lon="9.104889258742333">
        <ele>706</ele>
        <time>2019-05-23T11:46:40Z</time>
      </trkpt>
      <trkpt lat="44.426996000111103" lon="9.104844247922301">
        <ele>706.05999999999995</ele>
        <time>2019-05-23T11:46:51Z</time>
      </trkpt>
      <trkpt lat="44.426873121410608" lon="9.104888252913952">
        <ele>707.77999999999997</ele>
        <time>2019-05-23T11:47:03Z</time>
      </trkpt>
      <trkpt lat="44.426828445866704" lon="9.105001408606768">
        <ele>710.22000000000003</ele>
        <time>2019-05-23T11:47:15Z</time>
      </trkpt>
      <trkpt lat="44.426801037043333" lon="9.105037283152342">
        <ele>710.62</ele>
        <time>2019-05-23T11:47:19Z</time>
      </trkpt>
      <trkpt lat="44.426693078130484" lon="9.105055639520288">
        <ele>710.96000000000004</ele>
        <time>2019-05-23T11:47:31Z</time>
      </trkpt>
      <trkpt lat="44.426613533869386" lon="9.105021022260189">
        <ele>711.60000000000002</ele>
        <time>2019-05-23T11:47:41Z</time>
      </trkpt>
      <trkpt lat="44.426543125882745" lon="9.104964109137654">
        <ele>712.80999999999995</ele>
        <time>2019-05-23T11:47:54Z</time>
      </trkpt>
      <trkpt lat="44.426408428698778" lon="9.104919768869877">
        <ele>714.34000000000003</ele>
        <time>2019-05-23T11:48:08Z</time>
      </trkpt>
      <trkpt lat="44.426330309361219" lon="9.104883559048176">
        <ele>716.04999999999995</ele>
        <time>2019-05-23T11:48:19Z</time>
      </trkpt>
      <trkpt lat="44.426281107589602" lon="9.104827484115958">
        <ele>719.13</ele>
        <time>2019-05-23T11:48:35Z</time>
      </trkpt>
      <trkpt lat="44.42626241594553" lon="9.104783143848181">
        <ele>720.62</ele>
        <time>2019-05-23T11:48:43Z</time>
      </trkpt>
      <trkpt lat="44.426177507266402" lon="9.104715418070555">
        <ele>723.58000000000004</ele>
        <time>2019-05-23T11:48:59Z</time>
      </trkpt>
      <trkpt lat="44.426108775660396" lon="9.104699492454529">
        <ele>725.10000000000002</ele>
        <time>2019-05-23T11:49:12Z</time>
      </trkpt>
      <trkpt lat="44.426067369058728" lon="9.104734025895596">
        <ele>725.54999999999995</ele>
        <time>2019-05-23T11:49:18Z</time>
      </trkpt>
      <trkpt lat="44.425973743200302" lon="9.104837961494923">
        <ele>725.13</ele>
        <time>2019-05-23T11:49:29Z</time>
      </trkpt>
      <trkpt lat="44.425922948867083" lon="9.104955475777388">
        <ele>726.71000000000004</ele>
        <time>2019-05-23T11:49:40Z</time>
      </trkpt>
      <trkpt lat="44.425882715731859" lon="9.105016915127635">
        <ele>728.83000000000004</ele>
        <time>2019-05-23T11:49:51Z</time>
      </trkpt>
      <trkpt lat="44.425785904750228" lon="9.105012388899922">
        <ele>729.92999999999995</ele>
        <time>2019-05-23T11:50:03Z</time>
      </trkpt>
      <trkpt lat="44.425701918080449" lon="9.104999396950007">
        <ele>731.29999999999995</ele>
        <time>2019-05-23T11:50:15Z</time>
      </trkpt>
      <trkpt lat="44.425645256415009" lon="9.105001324787736">
        <ele>731.17999999999995</ele>
        <time>2019-05-23T11:50:21Z</time>
      </trkpt>
      <trkpt lat="44.425568142905831" lon="9.104977184906602">
        <ele>729.15999999999997</ele>
        <time>2019-05-23T11:50:32Z</time>
      </trkpt>
      <trkpt lat="44.425505110993981" lon="9.104849025607109">
        <ele>728.99000000000001</ele>
        <time>2019-05-23T11:50:45Z</time>
      </trkpt>
      <trkpt lat="44.425432858988643" lon="9.10484173335135">
        <ele>729.38</ele>
        <time>2019-05-23T11:50:50Z</time>
      </trkpt>
      <trkpt lat="44.425321212038398" lon="9.104859419167042">
        <ele>730.38999999999999</ele>
        <time>2019-05-23T11:51:02Z</time>
      </trkpt>
      <trkpt lat="44.425222305580974" lon="9.104866459965706">
        <ele>733.19000000000005</ele>
        <time>2019-05-23T11:51:17Z</time>
      </trkpt>
      <trkpt lat="44.42521283403039" lon="9.105029320344329">
        <ele>735.17999999999995</ele>
        <time>2019-05-23T11:51:30Z</time>
      </trkpt>
      <trkpt lat="44.425186682492495" lon="9.10507676191628">
        <ele>742.16999999999996</ele>
        <time>2019-05-23T11:52:10Z</time>
      </trkpt>
      <trkpt lat="44.425145778805017" lon="9.105130322277546">
        <ele>743.97000000000003</ele>
        <time>2019-05-23T11:52:24Z</time>
      </trkpt>
      <trkpt lat="44.425141168758273" lon="9.105209112167358">
        <ele>746.75</ele>
        <time>2019-05-23T11:52:40Z</time>
      </trkpt>
      <trkpt lat="44.425115520134568" lon="9.105271473526955">
        <ele>748.92999999999995</ele>
        <time>2019-05-23T11:52:54Z</time>
      </trkpt>
      <trkpt lat="44.425092721357942" lon="9.105312712490559">
        <ele>751.10000000000002</ele>
        <time>2019-05-23T11:53:06Z</time>
      </trkpt>
      <trkpt lat="44.425051398575306" lon="9.105363842099905">
        <ele>753.75</ele>
        <time>2019-05-23T11:53:21Z</time>
      </trkpt>
      <trkpt lat="44.42494704388082" lon="9.105432154610753">
        <ele>755.77999999999997</ele>
        <time>2019-05-23T11:53:38Z</time>
      </trkpt>
      <trkpt lat="44.424922484904528" lon="9.10545838996768">
        <ele>755.88</ele>
        <time>2019-05-23T11:53:42Z</time>
      </trkpt>
      <trkpt lat="44.424870265647769" lon="9.105558637529612">
        <ele>757.86000000000001</ele>
        <time>2019-05-23T11:53:56Z</time>
      </trkpt>
      <trkpt lat="44.424818633124232" lon="9.105666680261493">
        <ele>760.45000000000005</ele>
        <time>2019-05-23T11:54:11Z</time>
      </trkpt>
      <trkpt lat="44.424824919551611" lon="9.105769358575344">
        <ele>763.51999999999998</ele>
        <time>2019-05-23T11:54:26Z</time>
      </trkpt>
      <trkpt lat="44.424835396930575" lon="9.105804143473506">
        <ele>766.01999999999998</ele>
        <time>2019-05-23T11:54:41Z</time>
      </trkpt>
      <trkpt lat="44.424844700843096" lon="9.105949485674501">
        <ele>770.51999999999998</ele>
        <time>2019-05-23T11:55:07Z</time>
      </trkpt>
      <trkpt lat="44.424839839339256" lon="9.106103545054793">
        <ele>771.87</ele>
        <time>2019-05-23T11:55:21Z</time>
      </trkpt>
      <trkpt lat="44.424816789105535" lon="9.106150567531586">
        <ele>772.91999999999996</ele>
        <time>2019-05-23T11:55:29Z</time>
      </trkpt>
      <trkpt lat="44.424798684194684" lon="9.106186609715223">
        <ele>773.11000000000001</ele>
        <time>2019-05-23T11:55:33Z</time>
      </trkpt>
      <trkpt lat="44.424712434411049" lon="9.106271602213383">
        <ele>772.01999999999998</ele>
        <time>2019-05-23T11:56:03Z</time>
      </trkpt>
      <trkpt lat="44.424696760252118" lon="9.106318959966302">
        <ele>769.63999999999999</ele>
        <time>2019-05-23T11:56:36Z</time>
      </trkpt>
      <trkpt lat="44.424696089699864" lon="9.106323989108205">
        <ele>773.11000000000001</ele>
        <time>2019-05-23T11:56:38Z</time>
      </trkpt>
      <trkpt lat="44.424685779958963" lon="9.106348380446434">
        <ele>772.66999999999996</ele>
        <time>2019-05-23T11:57:11Z</time>
      </trkpt>
      <trkpt lat="44.424646301195025" lon="9.106404120102525">
        <ele>770.04999999999995</ele>
        <time>2019-05-23T11:57:45Z</time>
      </trkpt>
      <trkpt lat="44.424619311466813" lon="9.106405880302191">
        <ele>770.85000000000002</ele>
        <time>2019-05-23T11:57:58Z</time>
      </trkpt>
      <trkpt lat="44.424559632316232" lon="9.106431864202023">
        <ele>770.55999999999995</ele>
        <time>2019-05-23T11:58:05Z</time>
      </trkpt>
      <trkpt lat="44.424500958994031" lon="9.106489950791001">
        <ele>770.19000000000005</ele>
        <time>2019-05-23T11:58:34Z</time>
      </trkpt>
      <trkpt lat="44.424375062808394" lon="9.106669826433063">
        <ele>769.10000000000002</ele>
        <time>2019-05-23T12:00:51Z</time>
      </trkpt>
      <trkpt lat="44.424332566559315" lon="9.106699246913195">
        <ele>768.98000000000002</ele>
        <time>2019-05-23T12:01:19Z</time>
      </trkpt>
      <trkpt lat="44.424279928207397" lon="9.106746688485146">
        <ele>769.41999999999996</ele>
        <time>2019-05-23T12:01:32Z</time>
      </trkpt>
      <trkpt lat="44.424262745305896" lon="9.106752639636397">
        <ele>769.58000000000004</ele>
        <time>2019-05-23T12:01:47Z</time>
      </trkpt>
      <trkpt lat="44.424213962629437" lon="9.106782311573625">
        <ele>769.83000000000004</ele>
        <time>2019-05-23T12:01:59Z</time>
      </trkpt>
      <trkpt lat="44.424187894910574" lon="9.106793208047748">
        <ele>770.22000000000003</ele>
        <time>2019-05-23T12:02:47Z</time>
      </trkpt>
      <trkpt lat="44.424167443066835" lon="9.106810558587313">
        <ele>770.20000000000005</ele>
        <time>2019-05-23T12:02:58Z</time>
      </trkpt>
      <trkpt lat="44.424066189676523" lon="9.106905274093151">
        <ele>769.35000000000002</ele>
        <time>2019-05-23T12:03:11Z</time>
      </trkpt>
      <trkpt lat="44.424052275717258" lon="9.106970569118857">
        <ele>768.88999999999999</ele>
        <time>2019-05-23T12:03:16Z</time>
      </trkpt>
      <trkpt lat="44.423938281834126" lon="9.107093531638384">
        <ele>766.38999999999999</ele>
        <time>2019-05-23T12:03:31Z</time>
      </trkpt>
      <trkpt lat="44.423815570771694" lon="9.107110798358917">
        <ele>764.55999999999995</ele>
        <time>2019-05-23T12:03:45Z</time>
      </trkpt>
      <trkpt lat="44.423777516931295" lon="9.107106188312173">
        <ele>763.37</ele>
        <time>2019-05-23T12:03:49Z</time>
      </trkpt>
      <trkpt lat="44.423717586323619" lon="9.107144745066762">
        <ele>762.61000000000001</ele>
        <time>2019-05-23T12:03:57Z</time>
      </trkpt>
      <trkpt lat="44.423651704564691" lon="9.107279693707824">
        <ele>760.59000000000003</ele>
        <time>2019-05-23T12:04:09Z</time>
      </trkpt>
      <trkpt lat="44.423637790605426" lon="9.107325961813331">
        <ele>761.92999999999995</ele>
        <time>2019-05-23T12:04:12Z</time>
      </trkpt>
      <trkpt lat="44.423527987673879" lon="9.107507010921836">
        <ele>760.57000000000005</ele>
        <time>2019-05-23T12:04:26Z</time>
      </trkpt>
      <trkpt lat="44.423458082601428" lon="9.107685377821326">
        <ele>759.14999999999998</ele>
        <time>2019-05-23T12:04:39Z</time>
      </trkpt>
      <trkpt lat="44.42333897575736" lon="9.107700046151876">
        <ele>759.17999999999995</ele>
        <time>2019-05-23T12:04:53Z</time>
      </trkpt>
      <trkpt lat="44.423313830047846" lon="9.107646234333515">
        <ele>758.78999999999996</ele>
        <time>2019-05-23T12:04:58Z</time>
      </trkpt>
      <trkpt lat="44.423237135633826" lon="9.107510028406978">
        <ele>759.60000000000002</ele>
        <time>2019-05-23T12:05:12Z</time>
      </trkpt>
      <trkpt lat="44.423160776495934" lon="9.107418246567249">
        <ele>759.88999999999999</ele>
        <time>2019-05-23T12:05:25Z</time>
      </trkpt>
      <trkpt lat="44.423122638836503" lon="9.107377761974931">
        <ele>760.24000000000001</ele>
        <time>2019-05-23T12:05:30Z</time>
      </trkpt>
      <trkpt lat="44.423037813976407" lon="9.107273239642382">
        <ele>760.97000000000003</ele>
        <time>2019-05-23T12:05:40Z</time>
      </trkpt>
      <trkpt lat="44.42293681204319" lon="9.107190174981952">
        <ele>761.52999999999997</ele>
        <time>2019-05-23T12:05:51Z</time>
      </trkpt>
      <trkpt lat="44.422850478440523" lon="9.107078444212675">
        <ele>761.67999999999995</ele>
        <time>2019-05-23T12:06:02Z</time>
      </trkpt>
      <trkpt lat="44.422754924744368" lon="9.106976268813014">
        <ele>761.41999999999996</ele>
        <time>2019-05-23T12:06:13Z</time>
      </trkpt>
      <trkpt lat="44.422639086842537" lon="9.106881134212017">
        <ele>761.60000000000002</ele>
        <time>2019-05-23T12:06:24Z</time>
      </trkpt>
      <trkpt lat="44.42252148874104" lon="9.106835033744574">
        <ele>761.01999999999998</ele>
        <time>2019-05-23T12:06:35Z</time>
      </trkpt>
      <trkpt lat="44.422449404373765" lon="9.10679429769516">
        <ele>761.64999999999998</ele>
        <time>2019-05-23T12:06:42Z</time>
      </trkpt>
      <trkpt lat="44.422323256731033" lon="9.106709808111191">
        <ele>761.35000000000002</ele>
        <time>2019-05-23T12:06:53Z</time>
      </trkpt>
      <trkpt lat="44.422267600893974" lon="9.106726655736566">
        <ele>760.87</ele>
        <time>2019-05-23T12:06:58Z</time>
      </trkpt>
      <trkpt lat="44.422102309763432" lon="9.106756160035729">
        <ele>760.17999999999995</ele>
        <time>2019-05-23T12:07:12Z</time>
      </trkpt>
      <trkpt lat="44.421989824622869" lon="9.106734534725547">
        <ele>760.72000000000003</ele>
        <time>2019-05-23T12:07:23Z</time>
      </trkpt>
      <trkpt lat="44.421897372230887" lon="9.106705114245415">
        <ele>759.36000000000001</ele>
        <time>2019-05-23T12:07:33Z</time>
      </trkpt>
      <trkpt lat="44.421770218759775" lon="9.106660941615701">
        <ele>759.15999999999997</ele>
        <time>2019-05-23T12:07:47Z</time>
      </trkpt>
      <trkpt lat="44.421760244295001" lon="9.10665599629283">
        <ele>761.22000000000003</ele>
        <time>2019-05-23T12:07:48Z</time>
      </trkpt>
      <trkpt lat="44.421724705025554" lon="9.106642752885819">
        <ele>759.58000000000004</ele>
        <time>2019-05-23T12:07:51Z</time>
      </trkpt>
      <trkpt lat="44.421700481325388" lon="9.106639148667455">
        <ele>759.51999999999998</ele>
        <time>2019-05-23T12:07:53Z</time>
      </trkpt>
      <trkpt lat="44.421553798019886" lon="9.106630850583315">
        <ele>759.09000000000003</ele>
        <time>2019-05-23T12:08:05Z</time>
      </trkpt>
      <trkpt lat="44.42143083550036" lon="9.106679297983646">
        <ele>759.09000000000003</ele>
        <time>2019-05-23T12:08:17Z</time>
      </trkpt>
      <trkpt lat="44.421276021748781" lon="9.106804272159934">
        <ele>759.29999999999995</ele>
        <time>2019-05-23T12:08:32Z</time>
      </trkpt>
      <trkpt lat="44.421265795826912" lon="9.106803853064776">
        <ele>759.35000000000002</ele>
        <time>2019-05-23T12:08:33Z</time>
      </trkpt>
      <trkpt lat="44.421108048409224" lon="9.106707293540239">
        <ele>759.71000000000004</ele>
        <time>2019-05-23T12:08:48Z</time>
      </trkpt>
      <trkpt lat="44.420994976535439" lon="9.106544516980648">
        <ele>758.61000000000001</ele>
        <time>2019-05-23T12:09:01Z</time>
      </trkpt>
      <trkpt lat="44.420906463637948" lon="9.106379142031074">
        <ele>757.88999999999999</ele>
        <time>2019-05-23T12:09:13Z</time>
      </trkpt>
      <trkpt lat="44.420787859708071" lon="9.106275876984">
        <ele>757.52999999999997</ele>
        <time>2019-05-23T12:09:25Z</time>
      </trkpt>
      <trkpt lat="44.420720469206572" lon="9.106292305514216">
        <ele>758.28999999999996</ele>
        <time>2019-05-23T12:09:35Z</time>
      </trkpt>
      <trkpt lat="44.420602954924107" lon="9.106438737362623">
        <ele>759.08000000000004</ele>
        <time>2019-05-23T12:09:50Z</time>
      </trkpt>
      <trkpt lat="44.420463815331459" lon="9.106475785374641">
        <ele>758.59000000000003</ele>
        <time>2019-05-23T12:10:03Z</time>
      </trkpt>
      <trkpt lat="44.420348312705755" lon="9.106446448713541">
        <ele>758.25999999999999</ele>
        <time>2019-05-23T12:10:14Z</time>
      </trkpt>
      <trkpt lat="44.420257955789566" lon="9.106455752626061">
        <ele>758.00999999999999</ele>
        <time>2019-05-23T12:10:22Z</time>
      </trkpt>
      <trkpt lat="44.420142034068704" lon="9.106484251096845">
        <ele>756.76999999999998</ele>
        <time>2019-05-23T12:10:32Z</time>
      </trkpt>
      <trkpt lat="44.420097190886736" lon="9.106471342965961">
        <ele>756.24000000000001</ele>
        <time>2019-05-23T12:10:36Z</time>
      </trkpt>
      <trkpt lat="44.419965092092752" lon="9.106489028781653">
        <ele>755.86000000000001</ele>
        <time>2019-05-23T12:10:49Z</time>
      </trkpt>
      <trkpt lat="44.419866101816297" lon="9.106498248875141">
        <ele>757.13</ele>
        <time>2019-05-23T12:11:00Z</time>
      </trkpt>
      <trkpt lat="44.419675078243017" lon="9.106510737910867">
        <ele>758.45000000000005</ele>
        <time>2019-05-23T12:11:18Z</time>
      </trkpt>
      <trkpt lat="44.419549349695444" lon="9.106590114533901">
        <ele>759.71000000000004</ele>
        <time>2019-05-23T12:11:32Z</time>
      </trkpt>
      <trkpt lat="44.41947097890079" lon="9.106652392074466">
        <ele>759.30999999999995</ele>
        <time>2019-05-23T12:11:43Z</time>
      </trkpt>
      <trkpt lat="44.419448431581259" lon="9.106662450358272">
        <ele>759.13</ele>
        <time>2019-05-23T12:11:51Z</time>
      </trkpt>
      <trkpt lat="44.419410796836019" lon="9.106679633259773">
        <ele>758.75999999999999</ele>
        <time>2019-05-23T12:11:55Z</time>
      </trkpt>
      <trkpt lat="44.41938690841198" lon="9.106722129508853">
        <ele>759.28999999999996</ele>
        <time>2019-05-23T12:11:59Z</time>
      </trkpt>
      <trkpt lat="44.419351536780596" lon="9.106775522232056">
        <ele>758.97000000000003</ele>
        <time>2019-05-23T12:12:04Z</time>
      </trkpt>
      <trkpt lat="44.419292779639363" lon="9.10697509534657">
        <ele>758.94000000000005</ele>
        <time>2019-05-23T12:12:18Z</time>
      </trkpt>
      <trkpt lat="44.419280039146543" lon="9.107185900211334">
        <ele>758</ele>
        <time>2019-05-23T12:12:31Z</time>
      </trkpt>
      <trkpt lat="44.419313734397292" lon="9.107312383130193">
        <ele>758.57000000000005</ele>
        <time>2019-05-23T12:12:44Z</time>
      </trkpt>
      <trkpt lat="44.419289510697126" lon="9.107392597943544">
        <ele>759.63</ele>
        <time>2019-05-23T12:12:52Z</time>
      </trkpt>
      <trkpt lat="44.419278362765908" lon="9.107438195496798">
        <ele>759.70000000000005</ele>
        <time>2019-05-23T12:12:56Z</time>
      </trkpt>
      <trkpt lat="44.419244667515159" lon="9.10752042196691">
        <ele>759.01999999999998</ele>
        <time>2019-05-23T12:13:02Z</time>
      </trkpt>
      <trkpt lat="44.41920418292284" lon="9.107651514932513">
        <ele>758.62</ele>
        <time>2019-05-23T12:13:17Z</time>
      </trkpt>
      <trkpt lat="44.419157328084111" lon="9.107655622065067">
        <ele>759.29999999999995</ele>
        <time>2019-05-23T12:13:27Z</time>
      </trkpt>
      <trkpt lat="44.419139809906483" lon="9.107645731419325">
        <ele>758.94000000000005</ele>
        <time>2019-05-23T12:13:29Z</time>
      </trkpt>
      <trkpt lat="44.419035371392965" lon="9.107617903500795">
        <ele>758.59000000000003</ele>
        <time>2019-05-23T12:13:40Z</time>
      </trkpt>
      <trkpt lat="44.418994719162583" lon="9.107595104724169">
        <ele>758.57000000000005</ele>
        <time>2019-05-23T12:13:44Z</time>
      </trkpt>
      <trkpt lat="44.418837642297149" lon="9.107517236843705">
        <ele>757.46000000000004</ele>
        <time>2019-05-23T12:13:59Z</time>
      </trkpt>
      <trkpt lat="44.418709399178624" lon="9.10742218606174">
        <ele>756.75999999999999</ele>
        <time>2019-05-23T12:14:13Z</time>
      </trkpt>
      <trkpt lat="44.418586855754256" lon="9.10735672339797">
        <ele>756.42999999999995</ele>
        <time>2019-05-23T12:14:25Z</time>
      </trkpt>
      <trkpt lat="44.418467581272125" lon="9.107284974306822">
        <ele>757.12</ele>
        <time>2019-05-23T12:14:38Z</time>
      </trkpt>
      <trkpt lat="44.418352665379643" lon="9.107149187475443">
        <ele>757.61000000000001</ele>
        <time>2019-05-23T12:14:51Z</time>
      </trkpt>
      <trkpt lat="44.418246718123555" lon="9.107032176107168">
        <ele>758.77999999999997</ele>
        <time>2019-05-23T12:15:04Z</time>
      </trkpt>
      <trkpt lat="44.418124090880156" lon="9.106900580227375">
        <ele>758.84000000000003</ele>
        <time>2019-05-23T12:15:18Z</time>
      </trkpt>
      <trkpt lat="44.418018897995353" lon="9.106793375685811">
        <ele>758.88</ele>
        <time>2019-05-23T12:15:31Z</time>
      </trkpt>
      <trkpt lat="44.417987214401364" lon="9.106759848073125">
        <ele>758.97000000000003</ele>
        <time>2019-05-23T12:15:43Z</time>
      </trkpt>
      <trkpt lat="44.417961230501533" lon="9.106765715405345">
        <ele>759.05999999999995</ele>
        <time>2019-05-23T12:15:50Z</time>
      </trkpt>
      <trkpt lat="44.41793474368751" lon="9.106760937720537">
        <ele>758.97000000000003</ele>
        <time>2019-05-23T12:15:53Z</time>
      </trkpt>
      <trkpt lat="44.417813289910555" lon="9.106803350150585">
        <ele>759.11000000000001</ele>
        <time>2019-05-23T12:16:06Z</time>
      </trkpt>
      <trkpt lat="44.417781354859471" lon="9.106843331828713">
        <ele>759.24000000000001</ele>
        <time>2019-05-23T12:16:11Z</time>
      </trkpt>
      <trkpt lat="44.417647244408727" lon="9.10690032877028">
        <ele>759.82000000000005</ele>
        <time>2019-05-23T12:16:26Z</time>
      </trkpt>
      <trkpt lat="44.41755261272192" lon="9.106968138366938">
        <ele>761.15999999999997</ele>
        <time>2019-05-23T12:16:38Z</time>
      </trkpt>
      <trkpt lat="44.417533753439784" lon="9.106999067589641">
        <ele>761.48000000000002</ele>
        <time>2019-05-23T12:16:41Z</time>
      </trkpt>
      <trkpt lat="44.417439121752977" lon="9.107078025117517">
        <ele>761.35000000000002</ele>
        <time>2019-05-23T12:16:51Z</time>
      </trkpt>
      <trkpt lat="44.417363181710243" lon="9.107127310708165">
        <ele>760.28999999999996</ele>
        <time>2019-05-23T12:16:59Z</time>
      </trkpt>
      <trkpt lat="44.417322194203734" lon="9.107151869684458">
        <ele>760.01999999999998</ele>
        <time>2019-05-23T12:17:03Z</time>
      </trkpt>
      <trkpt lat="44.417144330218434" lon="9.107308695092797">
        <ele>758.94000000000005</ele>
        <time>2019-05-23T12:17:21Z</time>
      </trkpt>
      <trkpt lat="44.417027905583382" lon="9.107489744201303">
        <ele>758.96000000000004</ele>
        <time>2019-05-23T12:17:37Z</time>
      </trkpt>
      <trkpt lat="44.416929418221116" lon="9.107638103887439">
        <ele>758.98000000000002</ele>
        <time>2019-05-23T12:17:50Z</time>
      </trkpt>
      <trkpt lat="44.416872002184391" lon="9.107693256810308">
        <ele>759</ele>
        <time>2019-05-23T12:17:57Z</time>
      </trkpt>
      <trkpt lat="44.41684165969491" lon="9.107807418331504">
        <ele>759.25</ele>
        <time>2019-05-23T12:18:07Z</time>
      </trkpt>
      <trkpt lat="44.416775442659855" lon="9.107940271496773">
        <ele>759.32000000000005</ele>
        <time>2019-05-23T12:18:18Z</time>
      </trkpt>
      <trkpt lat="44.416648792102933" lon="9.108044039458036">
        <ele>758.66999999999996</ele>
        <time>2019-05-23T12:18:30Z</time>
      </trkpt>
      <trkpt lat="44.41658953204751" lon="9.108209498226643">
        <ele>759.39999999999998</ele>
        <time>2019-05-23T12:18:42Z</time>
      </trkpt>
      <trkpt lat="44.416545862331986" lon="9.10840630531311">
        <ele>759.21000000000004</ele>
        <time>2019-05-23T12:18:56Z</time>
      </trkpt>
      <trkpt lat="44.416472604498267" lon="9.108495656400919">
        <ele>758.22000000000003</ele>
        <time>2019-05-23T12:19:08Z</time>
      </trkpt>
      <trkpt lat="44.416462713852525" lon="9.108505211770535">
        <ele>758.13</ele>
        <time>2019-05-23T12:19:10Z</time>
      </trkpt>
      <trkpt lat="44.416441759094596" lon="9.108494818210602">
        <ele>758.01999999999998</ele>
        <time>2019-05-23T12:19:22Z</time>
      </trkpt>
      <trkpt lat="44.416422983631492" lon="9.108521472662687">
        <ele>758.38999999999999</ele>
        <time>2019-05-23T12:19:41Z</time>
      </trkpt>
      <trkpt lat="44.416417451575398" lon="9.108524573966861">
        <ele>758.59000000000003</ele>
        <time>2019-05-23T12:19:50Z</time>
      </trkpt>
      <trkpt lat="44.416421307250857" lon="9.108527088537812">
        <ele>758.63999999999999</ele>
        <time>2019-05-23T12:20:07Z</time>
      </trkpt>
      <trkpt lat="44.416423738002777" lon="9.10853186622262">
        <ele>758.87</ele>
        <time>2019-05-23T12:20:19Z</time>
      </trkpt>
      <trkpt lat="44.416422229260206" lon="9.108523400500417">
        <ele>759.13</ele>
        <time>2019-05-23T12:20:33Z</time>
      </trkpt>
      <trkpt lat="44.416408902034163" lon="9.108522143214941">
        <ele>758.94000000000005</ele>
        <time>2019-05-23T12:20:51Z</time>
      </trkpt>
      <trkpt lat="44.416363891214132" lon="9.108468918129802">
        <ele>758.35000000000002</ele>
        <time>2019-05-23T12:21:03Z</time>
      </trkpt>
      <trkpt lat="44.416343690827489" lon="9.108406808227301">
        <ele>757.38</ele>
        <time>2019-05-23T12:21:18Z</time>
      </trkpt>
      <trkpt lat="44.416289124637842" lon="9.108319552615285">
        <ele>755.49000000000001</ele>
        <time>2019-05-23T12:21:29Z</time>
      </trkpt>
      <trkpt lat="44.416235396638513" lon="9.108250150457025">
        <ele>755.20000000000005</ele>
        <time>2019-05-23T12:21:38Z</time>
      </trkpt>
      <trkpt lat="44.416217794641852" lon="9.108226597309113">
        <ele>754.75</ele>
        <time>2019-05-23T12:21:40Z</time>
      </trkpt>
      <trkpt lat="44.41613900475204" lon="9.108118386939168">
        <ele>754</ele>
        <time>2019-05-23T12:21:51Z</time>
      </trkpt>
      <trkpt lat="44.416061220690608" lon="9.108041608706117">
        <ele>754.16999999999996</ele>
        <time>2019-05-23T12:22:04Z</time>
      </trkpt>
      <trkpt lat="44.416034230962396" lon="9.107992155477405">
        <ele>753.75</ele>
        <time>2019-05-23T12:22:08Z</time>
      </trkpt>
      <trkpt lat="44.415988130494952" lon="9.107894254848361">
        <ele>753.53999999999996</ele>
        <time>2019-05-23T12:22:20Z</time>
      </trkpt>
      <trkpt lat="44.4159753061831" lon="9.107863325625658">
        <ele>753.13999999999999</ele>
        <time>2019-05-23T12:22:36Z</time>
      </trkpt>
      <trkpt lat="44.415918057784438" lon="9.107735166326165">
        <ele>754.00999999999999</ele>
        <time>2019-05-23T12:22:48Z</time>
      </trkpt>
      <trkpt lat="44.415913363918662" lon="9.107724353671074">
        <ele>754</ele>
        <time>2019-05-23T12:22:49Z</time>
      </trkpt>
      <trkpt lat="44.415900036692619" lon="9.107702895998955">
        <ele>754.11000000000001</ele>
        <time>2019-05-23T12:22:51Z</time>
      </trkpt>
      <trkpt lat="44.415878243744373" lon="9.10766894929111">
        <ele>754.14999999999998</ele>
        <time>2019-05-23T12:22:54Z</time>
      </trkpt>
      <trkpt lat="44.415840022265911" lon="9.107560068368912">
        <ele>753.71000000000004</ele>
        <time>2019-05-23T12:23:04Z</time>
      </trkpt>
      <trkpt lat="44.415848152711987" lon="9.107466526329517">
        <ele>752.77999999999997</ele>
        <time>2019-05-23T12:23:12Z</time>
      </trkpt>
      <trkpt lat="44.415832478553057" lon="9.107293440029025">
        <ele>751.37</ele>
        <time>2019-05-23T12:23:26Z</time>
      </trkpt>
      <trkpt lat="44.415830131620169" lon="9.107268629595637">
        <ele>751.08000000000004</ele>
        <time>2019-05-23T12:23:33Z</time>
      </trkpt>
      <trkpt lat="44.415820157155395" lon="9.10721842199564">
        <ele>751</ele>
        <time>2019-05-23T12:23:37Z</time>
      </trkpt>
      <trkpt lat="44.415747905150056" lon="9.10702446475625">
        <ele>750.13</ele>
        <time>2019-05-23T12:23:51Z</time>
      </trkpt>
      <trkpt lat="44.415695434436202" lon="9.106871159747243">
        <ele>749.27999999999997</ele>
        <time>2019-05-23T12:24:02Z</time>
      </trkpt>
      <trkpt lat="44.415631899610162" lon="9.10666773095727">
        <ele>748.69000000000005</ele>
        <time>2019-05-23T12:24:16Z</time>
      </trkpt>
      <trkpt lat="44.415534334257245" lon="9.106564549729228">
        <ele>749.29999999999995</ele>
        <time>2019-05-23T12:24:29Z</time>
      </trkpt>
      <trkpt lat="44.415510278195143" lon="9.10654510371387">
        <ele>749.11000000000001</ele>
        <time>2019-05-23T12:24:32Z</time>
      </trkpt>
      <trkpt lat="44.415393099188805" lon="9.106492381542921">
        <ele>746.24000000000001</ele>
        <time>2019-05-23T12:24:46Z</time>
      </trkpt>
      <trkpt lat="44.415374826639891" lon="9.106494728475809">
        <ele>745.88999999999999</ele>
        <time>2019-05-23T12:24:48Z</time>
      </trkpt>
      <trkpt lat="44.415220348164439" lon="9.106573769822717">
        <ele>744.08000000000004</ele>
        <time>2019-05-23T12:25:04Z</time>
      </trkpt>
      <trkpt lat="44.415101241320372" lon="9.106593215838075">
        <ele>742.23000000000002</ele>
        <time>2019-05-23T12:25:17Z</time>
      </trkpt>
      <trkpt lat="44.415028402581811" lon="9.106618948280811">
        <ele>742.38999999999999</ele>
        <time>2019-05-23T12:25:26Z</time>
      </trkpt>
      <trkpt lat="44.414974506944418" lon="9.106637556105852">
        <ele>742.47000000000003</ele>
        <time>2019-05-23T12:25:31Z</time>
      </trkpt>
      <trkpt lat="44.414828913286328" lon="9.106615092605352">
        <ele>742.73000000000002</ele>
        <time>2019-05-23T12:25:44Z</time>
      </trkpt>
      <trkpt lat="44.414636297151446" lon="9.10655633546412">
        <ele>741.25</ele>
        <time>2019-05-23T12:26:00Z</time>
      </trkpt>
      <trkpt lat="44.414463546127081" lon="9.106477210298181">
        <ele>741.08000000000004</ele>
        <time>2019-05-23T12:26:16Z</time>
      </trkpt>
      <trkpt lat="44.414278222247958" lon="9.106415435671806">
        <ele>740.98000000000002</ele>
        <time>2019-05-23T12:26:33Z</time>
      </trkpt>
      <trkpt lat="44.414133718237281" lon="9.10642147064209">
        <ele>741.72000000000003</ele>
        <time>2019-05-23T12:26:47Z</time>
      </trkpt>
      <trkpt lat="44.414039170369506" lon="9.106465391814709">
        <ele>742.78999999999996</ele>
        <time>2019-05-23T12:26:58Z</time>
      </trkpt>
      <trkpt lat="44.413930792361498" lon="9.10652406513691">
        <ele>743.98000000000002</ele>
        <time>2019-05-23T12:27:11Z</time>
      </trkpt>
      <trkpt lat="44.413817217573524" lon="9.106515431776643">
        <ele>743.10000000000002</ele>
        <time>2019-05-23T12:27:24Z</time>
      </trkpt>
      <trkpt lat="44.413780001923442" lon="9.106381572782993">
        <ele>741.25</ele>
        <time>2019-05-23T12:27:37Z</time>
      </trkpt>
      <trkpt lat="44.413747899234295" lon="9.106308817863464">
        <ele>740.28999999999996</ele>
        <time>2019-05-23T12:27:44Z</time>
      </trkpt>
      <trkpt lat="44.413726609200239" lon="9.106262717396021">
        <ele>739.48000000000002</ele>
        <time>2019-05-23T12:27:48Z</time>
      </trkpt>
      <trkpt lat="44.413646478205919" lon="9.106109328567982">
        <ele>739.13</ele>
        <time>2019-05-23T12:28:00Z</time>
      </trkpt>
      <trkpt lat="44.413619320839643" lon="9.106040513142943">
        <ele>738.52999999999997</ele>
        <time>2019-05-23T12:28:05Z</time>
      </trkpt>
      <trkpt lat="44.413545895367861" lon="9.105964321643114">
        <ele>738.50999999999999</ele>
        <time>2019-05-23T12:28:16Z</time>
      </trkpt>
      <trkpt lat="44.413446066901088" lon="9.105877736583352">
        <ele>735.38999999999999</ele>
        <time>2019-05-23T12:28:29Z</time>
      </trkpt>
      <trkpt lat="44.413392841815948" lon="9.105853093788028">
        <ele>734.66999999999996</ele>
        <time>2019-05-23T12:28:35Z</time>
      </trkpt>
      <trkpt lat="44.413296366110444" lon="9.105793833732605">
        <ele>734.04999999999995</ele>
        <time>2019-05-23T12:28:47Z</time>
      </trkpt>
      <trkpt lat="44.413243811577559" lon="9.105763658881187">
        <ele>733.61000000000001</ele>
        <time>2019-05-23T12:28:53Z</time>
      </trkpt>
      <trkpt lat="44.413130236789584" lon="9.105716217309237">
        <ele>732.63</ele>
        <time>2019-05-23T12:29:05Z</time>
      </trkpt>
      <trkpt lat="44.412995539605618" lon="9.105705320835114">
        <ele>733.24000000000001</ele>
        <time>2019-05-23T12:29:21Z</time>
      </trkpt>
      <trkpt lat="44.412979111075401" lon="9.105692161247134">
        <ele>734.03999999999996</ele>
        <time>2019-05-23T12:29:23Z</time>
      </trkpt>
      <trkpt lat="44.412865452468395" lon="9.105637427419424">
        <ele>734.67999999999995</ele>
        <time>2019-05-23T12:29:36Z</time>
      </trkpt>
      <trkpt lat="44.412684151902795" lon="9.105576742440462">
        <ele>734.35000000000002</ele>
        <time>2019-05-23T12:29:53Z</time>
      </trkpt>
      <trkpt lat="44.412629753351212" lon="9.105577915906906">
        <ele>734.53999999999996</ele>
        <time>2019-05-23T12:29:59Z</time>
      </trkpt>
      <trkpt lat="44.412531014531851" lon="9.105481691658497">
        <ele>734.01999999999998</ele>
        <time>2019-05-23T12:30:10Z</time>
      </trkpt>
      <trkpt lat="44.412421463057399" lon="9.105442715808749">
        <ele>733.74000000000001</ele>
        <time>2019-05-23T12:30:21Z</time>
      </trkpt>
      <trkpt lat="44.412370920181274" lon="9.105394938960671">
        <ele>732.76999999999998</ele>
        <time>2019-05-23T12:30:27Z</time>
      </trkpt>
      <trkpt lat="44.41234971396625" lon="9.105382030829787">
        <ele>732.62</ele>
        <time>2019-05-23T12:30:29Z</time>
      </trkpt>
      <trkpt lat="44.412215687334538" lon="9.105299804359675">
        <ele>731.44000000000005</ele>
        <time>2019-05-23T12:30:42Z</time>
      </trkpt>
      <trkpt lat="44.412098592147231" lon="9.105216739699245">
        <ele>730.27999999999997</ele>
        <time>2019-05-23T12:30:53Z</time>
      </trkpt>
      <trkpt lat="44.411948304623365" lon="9.105114731937647">
        <ele>728.40999999999997</ele>
        <time>2019-05-23T12:31:07Z</time>
      </trkpt>
      <trkpt lat="44.411811847239733" lon="9.105079025030136">
        <ele>728.20000000000005</ele>
        <time>2019-05-23T12:31:19Z</time>
      </trkpt>
      <trkpt lat="44.411707408726215" lon="9.105021189898253">
        <ele>728.13</ele>
        <time>2019-05-23T12:31:30Z</time>
      </trkpt>
      <trkpt lat="44.411582266911864" lon="9.104958660900593">
        <ele>727.69000000000005</ele>
        <time>2019-05-23T12:31:42Z</time>
      </trkpt>
      <trkpt lat="44.411449665203691" lon="9.104896802455187">
        <ele>727.25999999999999</ele>
        <time>2019-05-23T12:31:54Z</time>
      </trkpt>
      <trkpt lat="44.41125319339335" lon="9.104860173538327">
        <ele>727.30999999999995</ele>
        <time>2019-05-23T12:32:12Z</time>
      </trkpt>
      <trkpt lat="44.411146575585008" lon="9.104900071397424">
        <ele>728.15999999999997</ele>
        <time>2019-05-23T12:32:25Z</time>
      </trkpt>
      <trkpt lat="44.411087902262807" lon="9.104957319796085">
        <ele>728.33000000000004</ele>
        <time>2019-05-23T12:32:32Z</time>
      </trkpt>
      <trkpt lat="44.411001987755299" lon="9.105125544592738">
        <ele>729.20000000000005</ele>
        <time>2019-05-23T12:32:47Z</time>
      </trkpt>
      <trkpt lat="44.410968963056803" lon="9.105313634499908">
        <ele>728.76999999999998</ele>
        <time>2019-05-23T12:33:01Z</time>
      </trkpt>
      <trkpt lat="44.410948930308223" lon="9.105566600337625">
        <ele>728.74000000000001</ele>
        <time>2019-05-23T12:33:18Z</time>
      </trkpt>
      <trkpt lat="44.410931747406721" lon="9.105684449896216">
        <ele>728.45000000000005</ele>
        <time>2019-05-23T12:33:28Z</time>
      </trkpt>
      <trkpt lat="44.410920515656471" lon="9.105706494301558">
        <ele>728.07000000000005</ele>
        <time>2019-05-23T12:33:30Z</time>
      </trkpt>
      <trkpt lat="44.410904422402382" lon="9.105719653889537">
        <ele>727.61000000000001</ele>
        <time>2019-05-23T12:33:32Z</time>
      </trkpt>
      <trkpt lat="44.410791685804725" lon="9.105737004429102">
        <ele>728.77999999999997</ele>
        <time>2019-05-23T12:33:46Z</time>
      </trkpt>
      <trkpt lat="44.410753296688199" lon="9.105757288634777">
        <ele>729.48000000000002</ele>
        <time>2019-05-23T12:33:56Z</time>
      </trkpt>
      <trkpt lat="44.410752039402723" lon="9.105758210644126">
        <ele>729.46000000000004</ele>
        <time>2019-05-23T12:34:12Z</time>
      </trkpt>
      <trkpt lat="44.410696718841791" lon="9.105767263099551">
        <ele>729.89999999999998</ele>
        <time>2019-05-23T12:34:23Z</time>
      </trkpt>
      <trkpt lat="44.410651624202728" lon="9.10577455535531">
        <ele>730.51999999999998</ele>
        <time>2019-05-23T12:34:29Z</time>
      </trkpt>
      <trkpt lat="44.410530002787709" lon="9.105933392420411">
        <ele>730.63999999999999</ele>
        <time>2019-05-23T12:34:43Z</time>
      </trkpt>
      <trkpt lat="44.410464707762003" lon="9.106125924736261">
        <ele>729.5</ele>
        <time>2019-05-23T12:34:57Z</time>
      </trkpt>
      <trkpt lat="44.410458756610751" lon="9.106146125122905">
        <ele>729.69000000000005</ele>
        <time>2019-05-23T12:34:59Z</time>
      </trkpt>
      <trkpt lat="44.410336464643478" lon="9.106326419860125">
        <ele>730.59000000000003</ele>
        <time>2019-05-23T12:35:17Z</time>
      </trkpt>
      <trkpt lat="44.410238144919276" lon="9.106485089287162">
        <ele>729.47000000000003</ele>
        <time>2019-05-23T12:35:30Z</time>
      </trkpt>
      <trkpt lat="44.410165389999747" lon="9.106698157265782">
        <ele>729.67999999999995</ele>
        <time>2019-05-23T12:35:45Z</time>
      </trkpt>
      <trkpt lat="44.410098670050502" lon="9.106801506131887">
        <ele>729.5</ele>
        <time>2019-05-23T12:35:54Z</time>
      </trkpt>
      <trkpt lat="44.410088527947664" lon="9.106835201382637">
        <ele>729.48000000000002</ele>
        <time>2019-05-23T12:35:57Z</time>
      </trkpt>
      <trkpt lat="44.41007754765451" lon="9.106890521943569">
        <ele>729.65999999999997</ele>
        <time>2019-05-23T12:36:01Z</time>
      </trkpt>
      <trkpt lat="44.410071680322289" lon="9.10691550001502">
        <ele>729.95000000000005</ele>
        <time>2019-05-23T12:36:03Z</time>
      </trkpt>
      <trkpt lat="44.410061705857515" lon="9.106971994042397">
        <ele>729.96000000000004</ele>
        <time>2019-05-23T12:36:07Z</time>
      </trkpt>
      <trkpt lat="44.410044858232141" lon="9.107139883562923">
        <ele>729.30999999999995</ele>
        <time>2019-05-23T12:36:18Z</time>
      </trkpt>
      <trkpt lat="44.409914519637823" lon="9.107301151379943">
        <ele>730.21000000000004</ele>
        <time>2019-05-23T12:36:35Z</time>
      </trkpt>
      <trkpt lat="44.409873699769378" lon="9.107476668432355">
        <ele>730.66999999999996</ele>
        <time>2019-05-23T12:36:49Z</time>
      </trkpt>
      <trkpt lat="44.409827347844839" lon="9.107664506882429">
        <ele>728.88</ele>
        <time>2019-05-23T12:37:01Z</time>
      </trkpt>
      <trkpt lat="44.409779151901603" lon="9.107774812728167">
        <ele>729.60000000000002</ele>
        <time>2019-05-23T12:37:11Z</time>
      </trkpt>
      <trkpt lat="44.409770267084241" lon="9.10782284103334">
        <ele>729.69000000000005</ele>
        <time>2019-05-23T12:37:14Z</time>
      </trkpt>
      <trkpt lat="44.409729614853859" lon="9.108113693073392">
        <ele>727.79999999999995</ele>
        <time>2019-05-23T12:37:31Z</time>
      </trkpt>
      <trkpt lat="44.4096773955971" lon="9.108365820720792">
        <ele>727.35000000000002</ele>
        <time>2019-05-23T12:37:46Z</time>
      </trkpt>
      <trkpt lat="44.409679910168052" lon="9.108579223975539">
        <ele>726.99000000000001</ele>
        <time>2019-05-23T12:37:59Z</time>
      </trkpt>
      <trkpt lat="44.4096290320158" lon="9.108769493177533">
        <ele>726.22000000000003</ele>
        <time>2019-05-23T12:38:12Z</time>
      </trkpt>
      <trkpt lat="44.409597096964717" lon="9.10887049511075">
        <ele>726.49000000000001</ele>
        <time>2019-05-23T12:38:20Z</time>
      </trkpt>
      <trkpt lat="44.409593995660543" lon="9.10901416093111">
        <ele>726.92999999999995</ele>
        <time>2019-05-23T12:38:31Z</time>
      </trkpt>
      <trkpt lat="44.409543704241514" lon="9.109032936394215">
        <ele>727.19000000000005</ele>
        <time>2019-05-23T12:38:37Z</time>
      </trkpt>
      <trkpt lat="44.409566838294268" lon="9.109127232804894">
        <ele>727.49000000000001</ele>
        <time>2019-05-23T12:59:17Z</time>
      </trkpt>
      <trkpt lat="44.409583015367389" lon="9.109175344929099">
        <ele>727.44000000000005</ele>
        <time>2019-05-23T12:59:31Z</time>
      </trkpt>
      <trkpt lat="44.409609083086252" lon="9.10920912399888">
        <ele>727.25999999999999</ele>
        <time>2019-05-23T12:59:35Z</time>
      </trkpt>
      <trkpt lat="44.409698182716966" lon="9.109270144253969">
        <ele>727.26999999999998</ele>
        <time>2019-05-23T12:59:49Z</time>
      </trkpt>
      <trkpt lat="44.40983765758574" lon="9.109326638281345">
        <ele>726.63</ele>
        <time>2019-05-23T13:00:05Z</time>
      </trkpt>
      <trkpt lat="44.409986771643162" lon="9.10938547924161">
        <ele>726.13</ele>
        <time>2019-05-23T13:00:19Z</time>
      </trkpt>
      <trkpt lat="44.410144854336977" lon="9.109481871128082">
        <ele>723.95000000000005</ele>
        <time>2019-05-23T13:00:34Z</time>
      </trkpt>
      <trkpt lat="44.410174442455173" lon="9.109497712925077">
        <ele>725.58000000000004</ele>
        <time>2019-05-23T13:00:37Z</time>
      </trkpt>
      <trkpt lat="44.410329256206751" lon="9.109616065397859">
        <ele>723.88</ele>
        <time>2019-05-23T13:00:52Z</time>
      </trkpt>
      <trkpt lat="44.410564620047808" lon="9.109771801158786">
        <ele>721.88999999999999</ele>
        <time>2019-05-23T13:01:13Z</time>
      </trkpt>
      <trkpt lat="44.410713901743293" lon="9.109894763678312">
        <ele>720.07000000000005</ele>
        <time>2019-05-23T13:01:28Z</time>
      </trkpt>
      <trkpt lat="44.410919593647122" lon="9.11000850610435">
        <ele>718.10000000000002</ele>
        <time>2019-05-23T13:01:47Z</time>
      </trkpt>
      <trkpt lat="44.410981284454465" lon="9.110066257417202">
        <ele>717.34000000000003</ele>
        <time>2019-05-23T13:01:53Z</time>
      </trkpt>
      <trkpt lat="44.411059403792024" lon="9.11009986884892">
        <ele>716.40999999999997</ele>
        <time>2019-05-23T13:01:59Z</time>
      </trkpt>
      <trkpt lat="44.411202147603035" lon="9.110171115025878">
        <ele>714.78999999999996</ele>
        <time>2019-05-23T13:02:12Z</time>
      </trkpt>
      <trkpt lat="44.411362744867802" lon="9.110239846631885">
        <ele>713.30999999999995</ele>
        <time>2019-05-23T13:02:26Z</time>
      </trkpt>
      <trkpt lat="44.411520157009363" lon="9.110353086143732">
        <ele>711.29999999999995</ele>
        <time>2019-05-23T13:02:41Z</time>
      </trkpt>
      <trkpt lat="44.411677569150925" lon="9.110503541305661">
        <ele>709.71000000000004</ele>
        <time>2019-05-23T13:02:56Z</time>
      </trkpt>
      <trkpt lat="44.411845961585641" lon="9.110669251531363">
        <ele>707.96000000000004</ele>
        <time>2019-05-23T13:03:11Z</time>
      </trkpt>
      <trkpt lat="44.411916537210345" lon="9.110751729458571">
        <ele>707.33000000000004</ele>
        <time>2019-05-23T13:03:18Z</time>
      </trkpt>
      <trkpt lat="44.412062633782625" lon="9.110963623970747">
        <ele>705.21000000000004</ele>
        <time>2019-05-23T13:03:34Z</time>
      </trkpt>
      <trkpt lat="44.412203952670097" lon="9.111225390806794">
        <ele>702.60000000000002</ele>
        <time>2019-05-23T13:03:52Z</time>
      </trkpt>
      <trkpt lat="44.412285508587956" lon="9.11143091507256">
        <ele>701.23000000000002</ele>
        <time>2019-05-23T13:04:05Z</time>
      </trkpt>
      <trkpt lat="44.412351977080107" lon="9.111758312210441">
        <ele>698.60000000000002</ele>
        <time>2019-05-23T13:04:24Z</time>
      </trkpt>
      <trkpt lat="44.412417272105813" lon="9.112138180062175">
        <ele>696.74000000000001</ele>
        <time>2019-05-23T13:04:45Z</time>
      </trkpt>
      <trkpt lat="44.412483153864741" lon="9.11250052973628">
        <ele>694.78999999999996</ele>
        <time>2019-05-23T13:05:06Z</time>
      </trkpt>
      <trkpt lat="44.412544006481767" lon="9.112825999036431">
        <ele>692.92999999999995</ele>
        <time>2019-05-23T13:05:25Z</time>
      </trkpt>
      <trkpt lat="44.412551047280431" lon="9.113123891875148">
        <ele>691.40999999999997</ele>
        <time>2019-05-23T13:05:41Z</time>
      </trkpt>
      <trkpt lat="44.412528751417994" lon="9.113469980657101">
        <ele>690.17999999999995</ele>
        <time>2019-05-23T13:06:00Z</time>
      </trkpt>
      <trkpt lat="44.412512825801969" lon="9.113774243742228">
        <ele>688.78999999999996</ele>
        <time>2019-05-23T13:06:17Z</time>
      </trkpt>
      <trkpt lat="44.412559932097793" lon="9.114070376381278">
        <ele>686.94000000000005</ele>
        <time>2019-05-23T13:06:34Z</time>
      </trkpt>
      <trkpt lat="44.412623299285769" lon="9.114389475435019">
        <ele>684.29999999999995</ele>
        <time>2019-05-23T13:06:53Z</time>
      </trkpt>
      <trkpt lat="44.412677194923162" lon="9.114668760448694">
        <ele>682.60000000000002</ele>
        <time>2019-05-23T13:07:09Z</time>
      </trkpt>
      <trkpt lat="44.412705861032009" lon="9.114949470385909">
        <ele>680.92999999999995</ele>
        <time>2019-05-23T13:07:26Z</time>
      </trkpt>
      <trkpt lat="44.412721451371908" lon="9.115053908899427">
        <ele>680.47000000000003</ele>
        <time>2019-05-23T13:07:32Z</time>
      </trkpt>
      <trkpt lat="44.412754895165563" lon="9.115393878892064">
        <ele>678.32000000000005</ele>
        <time>2019-05-23T13:07:51Z</time>
      </trkpt>
      <trkpt lat="44.412756068632007" lon="9.115690682083368">
        <ele>676.89999999999998</ele>
        <time>2019-05-23T13:08:07Z</time>
      </trkpt>
      <trkpt lat="44.412700831890106" lon="9.115945911034942">
        <ele>677.05999999999995</ele>
        <time>2019-05-23T13:08:22Z</time>
      </trkpt>
      <trkpt lat="44.412674596533179" lon="9.116029310971499">
        <ele>674.40999999999997</ele>
        <time>2019-05-23T13:08:27Z</time>
      </trkpt>
      <trkpt lat="44.41264140419662" lon="9.1161432210356">
        <ele>675.48000000000002</ele>
        <time>2019-05-23T13:08:34Z</time>
      </trkpt>
      <trkpt lat="44.412623969838023" lon="9.116188986226916">
        <ele>673.62</ele>
        <time>2019-05-23T13:08:37Z</time>
      </trkpt>
      <trkpt lat="44.412568314000964" lon="9.116474390029907">
        <ele>671.75999999999999</ele>
        <time>2019-05-23T13:08:54Z</time>
      </trkpt>
      <trkpt lat="44.412532858550549" lon="9.116746718063951">
        <ele>669.87</ele>
        <time>2019-05-23T13:09:11Z</time>
      </trkpt>
      <trkpt lat="44.412515927106142" lon="9.11712097004056">
        <ele>667.21000000000004</ele>
        <time>2019-05-23T13:09:31Z</time>
      </trkpt>
      <trkpt lat="44.412569403648376" lon="9.117440991103649">
        <ele>664.19000000000005</ele>
        <time>2019-05-23T13:09:49Z</time>
      </trkpt>
      <trkpt lat="44.412607625126839" lon="9.11774642765522">
        <ele>661.40999999999997</ele>
        <time>2019-05-23T13:10:06Z</time>
      </trkpt>
      <trkpt lat="44.41262187436223" lon="9.118052115663886">
        <ele>659.12</ele>
        <time>2019-05-23T13:10:23Z</time>
      </trkpt>
      <trkpt lat="44.412625813856721" lon="9.118395522236824">
        <ele>656.01999999999998</ele>
        <time>2019-05-23T13:10:42Z</time>
      </trkpt>
      <trkpt lat="44.412599243223667" lon="9.118733061477542">
        <ele>653.38</ele>
        <time>2019-05-23T13:11:01Z</time>
      </trkpt>
      <trkpt lat="44.412510143592954" lon="9.119062218815088">
        <ele>650.23000000000002</ele>
        <time>2019-05-23T13:11:20Z</time>
      </trkpt>
      <trkpt lat="44.412404280155897" lon="9.119386347010732">
        <ele>647.15999999999997</ele>
        <time>2019-05-23T13:11:41Z</time>
      </trkpt>
      <trkpt lat="44.412313168868423" lon="9.119715923443437">
        <ele>644</ele>
        <time>2019-05-23T13:12:01Z</time>
      </trkpt>
      <trkpt lat="44.412251058965921" lon="9.120047427713871">
        <ele>640.86000000000001</ele>
        <time>2019-05-23T13:12:21Z</time>
      </trkpt>
      <trkpt lat="44.412198420614004" lon="9.120360072702169">
        <ele>638.61000000000001</ele>
        <time>2019-05-23T13:12:39Z</time>
      </trkpt>
      <trkpt lat="44.412191715091467" lon="9.120447412133217">
        <ele>637.38</ele>
        <time>2019-05-23T13:12:44Z</time>
      </trkpt>
      <trkpt lat="44.412150057032704" lon="9.120715968310833">
        <ele>633.83000000000004</ele>
        <time>2019-05-23T13:13:00Z</time>
      </trkpt>
      <trkpt lat="44.412145614624023" lon="9.120733821764588">
        <ele>633.91999999999996</ele>
        <time>2019-05-23T13:13:01Z</time>
      </trkpt>
      <trkpt lat="44.412091299891472" lon="9.120992906391621">
        <ele>632.49000000000001</ele>
        <time>2019-05-23T13:13:17Z</time>
      </trkpt>
      <trkpt lat="44.412083001807332" lon="9.121027439832687">
        <ele>631.77999999999997</ele>
        <time>2019-05-23T13:13:19Z</time>
      </trkpt>
      <trkpt lat="44.412007732316852" lon="9.121276717633009">
        <ele>629.19000000000005</ele>
        <time>2019-05-23T13:13:35Z</time>
      </trkpt>
      <trkpt lat="44.411908155307174" lon="9.121534042060375">
        <ele>627.20000000000005</ele>
        <time>2019-05-23T13:13:51Z</time>
      </trkpt>
      <trkpt lat="44.411849984899163" lon="9.12167695350945">
        <ele>625.86000000000001</ele>
        <time>2019-05-23T13:14:02Z</time>
      </trkpt>
      <trkpt lat="44.411812266334891" lon="9.121744260191917">
        <ele>625.45000000000005</ele>
        <time>2019-05-23T13:14:08Z</time>
      </trkpt>
      <trkpt lat="44.411722328513861" lon="9.121900834143162">
        <ele>624</ele>
        <time>2019-05-23T13:14:20Z</time>
      </trkpt>
      <trkpt lat="44.411587044596672" lon="9.122124463319778">
        <ele>623.98000000000002</ele>
        <time>2019-05-23T13:14:35Z</time>
      </trkpt>
      <trkpt lat="44.411489982157946" lon="9.122306685894728">
        <ele>623.64999999999998</ele>
        <time>2019-05-23T13:14:49Z</time>
      </trkpt>
      <trkpt lat="44.411380430683494" lon="9.122541043907404">
        <ele>623.28999999999996</ele>
        <time>2019-05-23T13:15:04Z</time>
      </trkpt>
      <trkpt lat="44.411274315789342" lon="9.122832315042615">
        <ele>623.00999999999999</ele>
        <time>2019-05-23T13:15:22Z</time>
      </trkpt>
      <trkpt lat="44.411190832033753" lon="9.123090980574489">
        <ele>623.05999999999995</ele>
        <time>2019-05-23T13:15:38Z</time>
      </trkpt>
      <trkpt lat="44.411099888384342" lon="9.123457269743085">
        <ele>623.38</ele>
        <time>2019-05-23T13:16:00Z</time>
      </trkpt>
      <trkpt lat="44.41102746874094" lon="9.12382791750133">
        <ele>623.91999999999996</ele>
        <time>2019-05-23T13:16:22Z</time>
      </trkpt>
      <trkpt lat="44.410964688286185" lon="9.124129582196474">
        <ele>623.65999999999997</ele>
        <time>2019-05-23T13:16:40Z</time>
      </trkpt>
      <trkpt lat="44.410886401310563" lon="9.124490842223167">
        <ele>623.75</ele>
        <time>2019-05-23T13:17:02Z</time>
      </trkpt>
      <trkpt lat="44.410871984437108" lon="9.124531242996454">
        <ele>623.66999999999996</ele>
        <time>2019-05-23T13:17:12Z</time>
      </trkpt>
      <trkpt lat="44.410872235894203" lon="9.124551778659225">
        <ele>623.64999999999998</ele>
        <time>2019-05-23T13:17:14Z</time>
      </trkpt>
      <trkpt lat="44.410798139870167" lon="9.124861909076572">
        <ele>624.61000000000001</ele>
        <time>2019-05-23T13:17:33Z</time>
      </trkpt>
      <trkpt lat="44.41071473993361" lon="9.125110683962703">
        <ele>624.33000000000004</ele>
        <time>2019-05-23T13:17:49Z</time>
      </trkpt>
      <trkpt lat="44.410651875659823" lon="9.125250410288572">
        <ele>624.76999999999998</ele>
        <time>2019-05-23T13:17:59Z</time>
      </trkpt>
      <trkpt lat="44.410555399954319" lon="9.125444618985057">
        <ele>625.23000000000002</ele>
        <time>2019-05-23T13:18:13Z</time>
      </trkpt>
      <trkpt lat="44.410420451313257" lon="9.125744607299566">
        <ele>625.45000000000005</ele>
        <time>2019-05-23T13:18:33Z</time>
      </trkpt>
      <trkpt lat="44.410293465480208" lon="9.126044930890203">
        <ele>625.69000000000005</ele>
        <time>2019-05-23T13:18:53Z</time>
      </trkpt>
      <trkpt lat="44.410206209868193" lon="9.12622069939971">
        <ele>625.05999999999995</ele>
        <time>2019-05-23T13:19:09Z</time>
      </trkpt>
      <trkpt lat="44.410159941762686" lon="9.12631600163877">
        <ele>620.01999999999998</ele>
        <time>2019-05-23T13:19:25Z</time>
      </trkpt>
      <trkpt lat="44.410155499354005" lon="9.126326059922576">
        <ele>626.5</ele>
        <time>2019-05-23T13:19:26Z</time>
      </trkpt>
      <trkpt lat="44.410127503797412" lon="9.126394959166646">
        <ele>624.88</ele>
        <time>2019-05-23T13:19:30Z</time>
      </trkpt>
      <trkpt lat="44.410029267892241" lon="9.126585144549608">
        <ele>624.63999999999999</ele>
        <time>2019-05-23T13:19:42Z</time>
      </trkpt>
      <trkpt lat="44.409968247637153" lon="9.12679142318666">
        <ele>623.67999999999995</ele>
        <time>2019-05-23T13:19:55Z</time>
      </trkpt>
      <trkpt lat="44.409891720861197" lon="9.127092249691486">
        <ele>623.10000000000002</ele>
        <time>2019-05-23T13:20:13Z</time>
      </trkpt>
      <trkpt lat="44.409817373380065" lon="9.127325350418687">
        <ele>622.72000000000003</ele>
        <time>2019-05-23T13:20:27Z</time>
      </trkpt>
      <trkpt lat="44.409749396145344" lon="9.127580327913165">
        <ele>621.36000000000001</ele>
        <time>2019-05-23T13:20:42Z</time>
      </trkpt>
      <trkpt lat="44.409669181331992" lon="9.127894062548876">
        <ele>619.41999999999996</ele>
        <time>2019-05-23T13:21:01Z</time>
      </trkpt>
      <trkpt lat="44.409554097801447" lon="9.128213077783585">
        <ele>616.74000000000001</ele>
        <time>2019-05-23T13:21:21Z</time>
      </trkpt>
      <trkpt lat="44.409505147486925" lon="9.128254149109125">
        <ele>616.65999999999997</ele>
        <time>2019-05-23T13:21:26Z</time>
      </trkpt>
      <trkpt lat="44.409469524398446" lon="9.128302596509457">
        <ele>616.87</ele>
        <time>2019-05-23T13:21:31Z</time>
      </trkpt>
      <trkpt lat="44.409427363425493" lon="9.128437796607614">
        <ele>619.60000000000002</ele>
        <time>2019-05-23T13:21:45Z</time>
      </trkpt>
      <trkpt lat="44.409411605447531" lon="9.128513569012284">
        <ele>620.75999999999999</ele>
        <time>2019-05-23T13:21:52Z</time>
      </trkpt>
      <trkpt lat="44.409299958497286" lon="9.128683470189571">
        <ele>619.66999999999996</ele>
        <time>2019-05-23T13:22:06Z</time>
      </trkpt>
      <trkpt lat="44.409250253811479" lon="9.128765445202589">
        <ele>619.39999999999998</ele>
        <time>2019-05-23T13:22:13Z</time>
      </trkpt>
      <trkpt lat="44.409115891903639" lon="9.128848928958178">
        <ele>617.85000000000002</ele>
        <time>2019-05-23T13:22:26Z</time>
      </trkpt>
      <trkpt lat="44.40904120914638" lon="9.128911457955837">
        <ele>617.89999999999998</ele>
        <time>2019-05-23T13:22:34Z</time>
      </trkpt>
      <trkpt lat="44.409027881920338" lon="9.12893945351243">
        <ele>619.76999999999998</ele>
        <time>2019-05-23T13:22:36Z</time>
      </trkpt>
      <trkpt lat="44.408968538045883" lon="9.129153862595558">
        <ele>619.35000000000002</ele>
        <time>2019-05-23T13:22:50Z</time>
      </trkpt>
      <trkpt lat="44.408918246626854" lon="9.129363158717752">
        <ele>617.54999999999995</ele>
        <time>2019-05-23T13:23:03Z</time>
      </trkpt>
      <trkpt lat="44.40882277674973" lon="9.12961914204061">
        <ele>615.98000000000002</ele>
        <time>2019-05-23T13:23:20Z</time>
      </trkpt>
      <trkpt lat="44.408728396520019" lon="9.129854505881667">
        <ele>614.84000000000003</ele>
        <time>2019-05-23T13:23:36Z</time>
      </trkpt>
      <trkpt lat="44.408573415130377" lon="9.130021808668971">
        <ele>614.69000000000005</ele>
        <time>2019-05-23T13:23:52Z</time>
      </trkpt>
      <trkpt lat="44.408437125384808" lon="9.130186261609197">
        <ele>614.23000000000002</ele>
        <time>2019-05-23T13:24:07Z</time>
      </trkpt>
      <trkpt lat="44.408286921679974" lon="9.130336884409189">
        <ele>613.02999999999997</ele>
        <time>2019-05-23T13:24:22Z</time>
      </trkpt>
      <trkpt lat="44.40815188921988" lon="9.130419446155429">
        <ele>612.46000000000004</ele>
        <time>2019-05-23T13:24:34Z</time>
      </trkpt>
      <trkpt lat="44.4080316927284" lon="9.130485244095326">
        <ele>610.86000000000001</ele>
        <time>2019-05-23T13:24:46Z</time>
      </trkpt>
      <trkpt lat="44.408009313046932" lon="9.13048985414207">
        <ele>610.39999999999998</ele>
        <time>2019-05-23T13:24:49Z</time>
      </trkpt>
      <trkpt lat="44.407959021627903" lon="9.130486333742738">
        <ele>609.29999999999995</ele>
        <time>2019-05-23T13:24:54Z</time>
      </trkpt>
      <trkpt lat="44.407906383275986" lon="9.130557244643569">
        <ele>608.88999999999999</ele>
        <time>2019-05-23T13:25:00Z</time>
      </trkpt>
      <trkpt lat="44.40788559615612" lon="9.130576942116022">
        <ele>608.94000000000005</ele>
        <time>2019-05-23T13:25:02Z</time>
      </trkpt>
      <trkpt lat="44.407848967239261" lon="9.130644919350743">
        <ele>609.97000000000003</ele>
        <time>2019-05-23T13:25:08Z</time>
      </trkpt>
      <trkpt lat="44.407812338322401" lon="9.130684565752745">
        <ele>609.95000000000005</ele>
        <time>2019-05-23T13:25:12Z</time>
      </trkpt>
      <trkpt lat="44.407737571746111" lon="9.130731336772442">
        <ele>610.75999999999999</ele>
        <time>2019-05-23T13:25:22Z</time>
      </trkpt>
      <trkpt lat="44.407602120190859" lon="9.130821274593473">
        <ele>611.47000000000003</ele>
        <time>2019-05-23T13:25:36Z</time>
      </trkpt>
      <trkpt lat="44.407507991418242" lon="9.130861675366759">
        <ele>612.75999999999999</ele>
        <time>2019-05-23T13:25:48Z</time>
      </trkpt>
      <trkpt lat="44.407431967556477" lon="9.130836445838213">
        <ele>611.24000000000001</ele>
        <time>2019-05-23T13:25:56Z</time>
      </trkpt>
      <trkpt lat="44.4072977732867" lon="9.130789507180452">
        <ele>610.08000000000004</ele>
        <time>2019-05-23T13:26:09Z</time>
      </trkpt>
      <trkpt lat="44.407185455784202" lon="9.130827728658915">
        <ele>610.80999999999995</ele>
        <time>2019-05-23T13:26:23Z</time>
      </trkpt>
      <trkpt lat="44.407174726948142" lon="9.13083141669631">
        <ele>610.75999999999999</ele>
        <time>2019-05-23T13:26:24Z</time>
      </trkpt>
      <trkpt lat="44.407120747491717" lon="9.130851784721017">
        <ele>609.82000000000005</ele>
        <time>2019-05-23T13:26:28Z</time>
      </trkpt>
      <trkpt lat="44.407072467729449" lon="9.130891095846891">
        <ele>609.61000000000001</ele>
        <time>2019-05-23T13:26:32Z</time>
      </trkpt>
      <trkpt lat="44.407000718638301" lon="9.130993690341711">
        <ele>609.53999999999996</ele>
        <time>2019-05-23T13:26:40Z</time>
      </trkpt>
      <trkpt lat="44.406925868242979" lon="9.131094021722674">
        <ele>609.89999999999998</ele>
        <time>2019-05-23T13:26:47Z</time>
      </trkpt>
      <trkpt lat="44.406817154958844" lon="9.13119250908494">
        <ele>610.38999999999999</ele>
        <time>2019-05-23T13:26:59Z</time>
      </trkpt>
      <trkpt lat="44.406736940145493" lon="9.131216816604137">
        <ele>610.52999999999997</ele>
        <time>2019-05-23T13:27:07Z</time>
      </trkpt>
      <trkpt lat="44.406706849113107" lon="9.131191587075591">
        <ele>610.36000000000001</ele>
        <time>2019-05-23T13:27:10Z</time>
      </trkpt>
      <trkpt lat="44.406630741432309" lon="9.131095362827182">
        <ele>609.51999999999998</ele>
        <time>2019-05-23T13:27:18Z</time>
      </trkpt>
      <trkpt lat="44.406555220484734" lon="9.130993690341711">
        <ele>609.05999999999995</ele>
        <time>2019-05-23T13:27:26Z</time>
      </trkpt>
      <trkpt lat="44.406475676223636" lon="9.130878942087293">
        <ele>608.61000000000001</ele>
        <time>2019-05-23T13:27:40Z</time>
      </trkpt>
      <trkpt lat="44.406469138339162" lon="9.130873074755073">
        <ele>608.41999999999996</ele>
        <time>2019-05-23T13:27:41Z</time>
      </trkpt>
      <trkpt lat="44.406379954889417" lon="9.130820436403155">
        <ele>604.70000000000005</ele>
        <time>2019-05-23T13:27:54Z</time>
      </trkpt>
      <trkpt lat="44.406265541911125" lon="9.130787076428533">
        <ele>603.44000000000005</ele>
        <time>2019-05-23T13:28:07Z</time>
      </trkpt>
      <trkpt lat="44.406184321269393" lon="9.130760589614511">
        <ele>602.95000000000005</ele>
        <time>2019-05-23T13:28:19Z</time>
      </trkpt>
      <trkpt lat="44.406157750636339" lon="9.130737371742725">
        <ele>603.5</ele>
        <time>2019-05-23T13:28:23Z</time>
      </trkpt>
      <trkpt lat="44.406105196103454" lon="9.130717841908336">
        <ele>601.71000000000004</ele>
        <time>2019-05-23T13:28:37Z</time>
      </trkpt>
      <trkpt lat="44.406057586893439" lon="9.130686325952411">
        <ele>601.90999999999997</ele>
        <time>2019-05-23T13:28:58Z</time>
      </trkpt>
      <trkpt lat="44.406025987118483" lon="9.130703676491976">
        <ele>602.48000000000002</ele>
        <time>2019-05-23T13:29:11Z</time>
      </trkpt>
      <trkpt lat="44.405977204442024" lon="9.130733013153076">
        <ele>602.29999999999995</ele>
        <time>2019-05-23T13:30:49Z</time>
      </trkpt>
      <trkpt lat="44.405951555818319" lon="9.130736868828535">
        <ele>601.69000000000005</ele>
        <time>2019-05-23T13:31:06Z</time>
      </trkpt>
      <trkpt lat="44.405886763706803" lon="9.130768468603492">
        <ele>599.03999999999996</ele>
        <time>2019-05-23T13:31:17Z</time>
      </trkpt>
      <trkpt lat="44.405794478952885" lon="9.130902076140046">
        <ele>596.19000000000005</ele>
        <time>2019-05-23T13:31:30Z</time>
      </trkpt>
      <trkpt lat="44.405702445656061" lon="9.131047083064914">
        <ele>594.49000000000001</ele>
        <time>2019-05-23T13:31:41Z</time>
      </trkpt>
      <trkpt lat="44.405589792877436" lon="9.13119250908494">
        <ele>593.38</ele>
        <time>2019-05-23T13:31:54Z</time>
      </trkpt>
      <trkpt lat="44.405564982444048" lon="9.131219917908311">
        <ele>593.25</ele>
        <time>2019-05-23T13:31:57Z</time>
      </trkpt>
      <trkpt lat="44.405436906963587" lon="9.131316477432847">
        <ele>592.22000000000003</ele>
        <time>2019-05-23T13:32:09Z</time>
      </trkpt>
      <trkpt lat="44.405378401279449" lon="9.131288398057222">
        <ele>592.14999999999998</ele>
        <time>2019-05-23T13:32:15Z</time>
      </trkpt>
      <trkpt lat="44.405261557549238" lon="9.131259061396122">
        <ele>591.46000000000004</ele>
        <time>2019-05-23T13:32:28Z</time>
      </trkpt>
      <trkpt lat="44.405083693563938" lon="9.131249925121665">
        <ele>590.54999999999995</ele>
        <time>2019-05-23T13:32:45Z</time>
      </trkpt>
      <trkpt lat="44.405045472085476" lon="9.131239950656891">
        <ele>586.78999999999996</ele>
        <time>2019-05-23T13:32:49Z</time>
      </trkpt>
      <trkpt lat="44.404911361634731" lon="9.131154958158732">
        <ele>587.63999999999999</ele>
        <time>2019-05-23T13:33:03Z</time>
      </trkpt>
      <trkpt lat="44.404894262552261" lon="9.131150180473924">
        <ele>587.63</ele>
        <time>2019-05-23T13:33:05Z</time>
      </trkpt>
      <trkpt lat="44.404794769361615" lon="9.13113534450531">
        <ele>587.33000000000004</ele>
        <time>2019-05-23T13:33:14Z</time>
      </trkpt>
      <trkpt lat="44.404761828482151" lon="9.131129728630185">
        <ele>587.08000000000004</ele>
        <time>2019-05-23T13:33:17Z</time>
      </trkpt>
      <trkpt lat="44.404683038592339" lon="9.131157388910651">
        <ele>586.95000000000005</ele>
        <time>2019-05-23T13:33:27Z</time>
      </trkpt>
      <trkpt lat="44.404630400240421" lon="9.131150599569082">
        <ele>586.27999999999997</ele>
        <time>2019-05-23T13:33:31Z</time>
      </trkpt>
      <trkpt lat="44.404594441875815" lon="9.131129225715995">
        <ele>585.57000000000005</ele>
        <time>2019-05-23T13:33:34Z</time>
      </trkpt>
      <trkpt lat="44.404498301446438" lon="9.131106678396463">
        <ele>584.89999999999998</ele>
        <time>2019-05-23T13:33:46Z</time>
      </trkpt>
      <trkpt lat="44.404459996148944" lon="9.13114020600915">
        <ele>584.66999999999996</ele>
        <time>2019-05-23T13:33:50Z</time>
      </trkpt>
      <trkpt lat="44.404364442452788" lon="9.131217319518328">
        <ele>583.17999999999995</ele>
        <time>2019-05-23T13:33:59Z</time>
      </trkpt>
      <trkpt lat="44.404289675876498" lon="9.131278423592448">
        <ele>581.39999999999998</ele>
        <time>2019-05-23T13:34:05Z</time>
      </trkpt>
      <trkpt lat="44.404215076938272" lon="9.131287140771747">
        <ele>581.13</ele>
        <time>2019-05-23T13:34:12Z</time>
      </trkpt>
      <trkpt lat="44.404101250693202" lon="9.131248919293284">
        <ele>579.97000000000003</ele>
        <time>2019-05-23T13:34:22Z</time>
      </trkpt>
      <trkpt lat="44.404061520472169" lon="9.131259396672249">
        <ele>579.48000000000002</ele>
        <time>2019-05-23T13:34:25Z</time>
      </trkpt>
      <trkpt lat="44.403857924044132" lon="9.131418066099286">
        <ele>577.63</ele>
        <time>2019-05-23T13:34:40Z</time>
      </trkpt>
      <trkpt lat="44.403710989281535" lon="9.131582016125321">
        <ele>576.83000000000004</ele>
        <time>2019-05-23T13:34:52Z</time>
      </trkpt>
      <trkpt lat="44.403637312352657" lon="9.131588470190764">
        <ele>575.97000000000003</ele>
        <time>2019-05-23T13:35:02Z</time>
      </trkpt>
      <trkpt lat="44.403575956821442" lon="9.131578914821148">
        <ele>573.33000000000004</ele>
        <time>2019-05-23T13:35:10Z</time>
      </trkpt>
      <trkpt lat="44.403494065627456" lon="9.131621494889259">
        <ele>571.10000000000002</ele>
        <time>2019-05-23T13:35:18Z</time>
      </trkpt>
      <trkpt lat="44.403440337628126" lon="9.131739009171724">
        <ele>568.75</ele>
        <time>2019-05-23T13:35:28Z</time>
      </trkpt>
      <trkpt lat="44.403423154726624" lon="9.131784522905946">
        <ele>567.96000000000004</ele>
        <time>2019-05-23T13:35:31Z</time>
      </trkpt>
      <trkpt lat="44.40341267734766" lon="9.131837328895927">
        <ele>567.55999999999995</ele>
        <time>2019-05-23T13:35:34Z</time>
      </trkpt>
      <trkpt lat="44.403330031782389" lon="9.131987867876887">
        <ele>565.57000000000005</ele>
        <time>2019-05-23T13:35:47Z</time>
      </trkpt>
      <trkpt lat="44.403241351246834" lon="9.132138574495912">
        <ele>563.13</ele>
        <time>2019-05-23T13:36:00Z</time>
      </trkpt>
      <trkpt lat="44.403161220252514" lon="9.132218202576041">
        <ele>560.63</ele>
        <time>2019-05-23T13:36:12Z</time>
      </trkpt>
      <trkpt lat="44.403158789500594" lon="9.132243180647492">
        <ele>560.32000000000005</ele>
        <time>2019-05-23T13:36:14Z</time>
      </trkpt>
      <trkpt lat="44.403044208884239" lon="9.132288107648492">
        <ele>558.66999999999996</ele>
        <time>2019-05-23T13:36:25Z</time>
      </trkpt>
      <trkpt lat="44.402951840311289" lon="9.132304536178708">
        <ele>559.07000000000005</ele>
        <time>2019-05-23T13:36:38Z</time>
      </trkpt>
      <trkpt lat="44.402858968824148" lon="9.132304200902581">
        <ele>556.59000000000003</ele>
        <time>2019-05-23T13:36:47Z</time>
      </trkpt>
      <trkpt lat="44.402712034061551" lon="9.132282072678208">
        <ele>556.25</ele>
        <time>2019-05-23T13:37:01Z</time>
      </trkpt>
      <trkpt lat="44.40261036157608" lon="9.13222742266953">
        <ele>556.53999999999996</ele>
        <time>2019-05-23T13:37:13Z</time>
      </trkpt>
      <trkpt lat="44.402566775679588" lon="9.132237061858177">
        <ele>556.19000000000005</ele>
        <time>2019-05-23T13:37:30Z</time>
      </trkpt>
      <trkpt lat="44.402501648291945" lon="9.132217196747661">
        <ele>558.45000000000005</ele>
        <time>2019-05-23T13:37:41Z</time>
      </trkpt>
      <trkpt lat="44.402398383244872" lon="9.132208982482553">
        <ele>559.86000000000001</ele>
        <time>2019-05-23T13:37:53Z</time>
      </trkpt>
      <trkpt lat="44.402329567819834" lon="9.132219292223454">
        <ele>561.01999999999998</ele>
        <time>2019-05-23T13:38:02Z</time>
      </trkpt>
      <trkpt lat="44.402231415733695" lon="9.132212921977043">
        <ele>562.46000000000004</ele>
        <time>2019-05-23T13:38:15Z</time>
      </trkpt>
      <trkpt lat="44.40217450261116" lon="9.132175706326962">
        <ele>565.59000000000003</ele>
        <time>2019-05-23T13:38:27Z</time>
      </trkpt>
      <trkpt lat="44.402141813188791" lon="9.132109321653843">
        <ele>568.54999999999995</ele>
        <time>2019-05-23T13:38:41Z</time>
      </trkpt>
      <trkpt lat="44.40212806686759" lon="9.132035728543997">
        <ele>570.5</ele>
        <time>2019-05-23T13:38:54Z</time>
      </trkpt>
      <trkpt lat="44.402058580890298" lon="9.132004883140326">
        <ele>572.57000000000005</ele>
        <time>2019-05-23T13:39:07Z</time>
      </trkpt>
      <trkpt lat="44.401969313621521" lon="9.132033213973045">
        <ele>573.17999999999995</ele>
        <time>2019-05-23T13:39:19Z</time>
      </trkpt>
      <trkpt lat="44.401959255337715" lon="9.132037907838821">
        <ele>573.17999999999995</ele>
        <time>2019-05-23T13:39:34Z</time>
      </trkpt>
      <trkpt lat="44.401919944211841" lon="9.132072357460856">
        <ele>572.27999999999997</ele>
        <time>2019-05-23T13:39:42Z</time>
      </trkpt>
      <trkpt lat="44.401892619207501" lon="9.132092725485563">
        <ele>573.38</ele>
        <time>2019-05-23T13:39:45Z</time>
      </trkpt>
      <trkpt lat="44.401794215664268" lon="9.132129605859518">
        <ele>574.36000000000001</ele>
        <time>2019-05-23T13:39:56Z</time>
      </trkpt>
      <trkpt lat="44.401742834597826" lon="9.132177466526628">
        <ele>575.20000000000005</ele>
        <time>2019-05-23T13:40:03Z</time>
      </trkpt>
      <trkpt lat="44.401598833501339" lon="9.132223650813103">
        <ele>577.17999999999995</ele>
        <time>2019-05-23T13:40:18Z</time>
      </trkpt>
      <trkpt lat="44.40151677466929" lon="9.132234547287226">
        <ele>578.53999999999996</ele>
        <time>2019-05-23T13:40:28Z</time>
      </trkpt>
      <trkpt lat="44.401469165459275" lon="9.132248545065522">
        <ele>579.44000000000005</ele>
        <time>2019-05-23T13:40:34Z</time>
      </trkpt>
      <trkpt lat="44.401404624804854" lon="9.132261201739311">
        <ele>580.10000000000002</ele>
        <time>2019-05-23T13:40:47Z</time>
      </trkpt>
      <trkpt lat="44.401361122727394" lon="9.132332867011428">
        <ele>579.13999999999999</ele>
        <time>2019-05-23T13:40:59Z</time>
      </trkpt>
      <trkpt lat="44.401353411376476" lon="9.132352061569691">
        <ele>578.66999999999996</ele>
        <time>2019-05-23T13:41:01Z</time>
      </trkpt>
      <trkpt lat="44.401227766647935" lon="9.13237695582211">
        <ele>576.74000000000001</ele>
        <time>2019-05-23T13:41:13Z</time>
      </trkpt>
      <trkpt lat="44.401074713096023" lon="9.13242288865149">
        <ele>574.49000000000001</ele>
        <time>2019-05-23T13:41:28Z</time>
      </trkpt>
      <trkpt lat="44.400934400036931" lon="9.132441580295563">
        <ele>573.24000000000001</ele>
        <time>2019-05-23T13:41:42Z</time>
      </trkpt>
      <trkpt lat="44.400842785835266" lon="9.132455326616764">
        <ele>574.44000000000005</ele>
        <time>2019-05-23T13:41:55Z</time>
      </trkpt>
      <trkpt lat="44.400753183290362" lon="9.132467145100236">
        <ele>577.73000000000002</ele>
        <time>2019-05-23T13:42:10Z</time>
      </trkpt>
      <trkpt lat="44.400700964033604" lon="9.132466893643141">
        <ele>580.22000000000003</ele>
        <time>2019-05-23T13:42:21Z</time>
      </trkpt>
      <trkpt lat="44.400621838867664" lon="9.132511150091887">
        <ele>581.67999999999995</ele>
        <time>2019-05-23T13:42:33Z</time>
      </trkpt>
      <trkpt lat="44.400559728965163" lon="9.132564039900899">
        <ele>581.72000000000003</ele>
        <time>2019-05-23T13:42:43Z</time>
      </trkpt>
      <trkpt lat="44.400489320978522" lon="9.132624976336956">
        <ele>581.85000000000002</ele>
        <time>2019-05-23T13:42:56Z</time>
      </trkpt>
      <trkpt lat="44.400441208854318" lon="9.13268968462944">
        <ele>581.86000000000001</ele>
        <time>2019-05-23T13:43:05Z</time>
      </trkpt>
      <trkpt lat="44.40039100125432" lon="9.132748441770673">
        <ele>581.76999999999998</ele>
        <time>2019-05-23T13:43:16Z</time>
      </trkpt>
      <trkpt lat="44.400363340973854" lon="9.132779706269503">
        <ele>581.29999999999995</ele>
        <time>2019-05-23T13:43:25Z</time>
      </trkpt>
      <trkpt lat="44.40026979893446" lon="9.132830249145627">
        <ele>579.70000000000005</ele>
        <time>2019-05-23T13:43:38Z</time>
      </trkpt>
      <trkpt lat="44.400242641568184" lon="9.132828405126929">
        <ele>578.08000000000004</ele>
        <time>2019-05-23T13:43:50Z</time>
      </trkpt>
      <trkpt lat="44.400168880820274" lon="9.132846845313907">
        <ele>576.53999999999996</ele>
        <time>2019-05-23T13:44:02Z</time>
      </trkpt>
      <trkpt lat="44.400128060951829" lon="9.132841983810067">
        <ele>575.40999999999997</ele>
        <time>2019-05-23T13:44:07Z</time>
      </trkpt>
      <trkpt lat="44.400075087323785" lon="9.132846090942621">
        <ele>574.02999999999997</ele>
        <time>2019-05-23T13:44:13Z</time>
      </trkpt>
      <trkpt lat="44.399927062913775" lon="9.132857071235776">
        <ele>571.95000000000005</ele>
        <time>2019-05-23T13:44:27Z</time>
      </trkpt>
      <trkpt lat="44.399830000475049" lon="9.132806025445461">
        <ele>571.13</ele>
        <time>2019-05-23T13:44:38Z</time>
      </trkpt>
      <trkpt lat="44.399755066260695" lon="9.132730085402727">
        <ele>571.87</ele>
        <time>2019-05-23T13:44:51Z</time>
      </trkpt>
      <trkpt lat="44.399668900296092" lon="9.132680548354983">
        <ele>572.35000000000002</ele>
        <time>2019-05-23T13:45:03Z</time>
      </trkpt>
      <trkpt lat="44.399601258337498" lon="9.132640734314919">
        <ele>573.20000000000005</ele>
        <time>2019-05-23T13:45:15Z</time>
      </trkpt>
      <trkpt lat="44.399477876722813" lon="9.132618186995387">
        <ele>574.86000000000001</ele>
        <time>2019-05-23T13:45:29Z</time>
      </trkpt>
      <trkpt lat="44.399356506764889" lon="9.132576277479529">
        <ele>574.01999999999998</ele>
        <time>2019-05-23T13:45:42Z</time>
      </trkpt>
      <trkpt lat="44.399255756288767" lon="9.132504276931286">
        <ele>574.47000000000003</ele>
        <time>2019-05-23T13:45:54Z</time>
      </trkpt>
      <trkpt lat="44.399170093238354" lon="9.132505366578698">
        <ele>577.72000000000003</ele>
        <time>2019-05-23T13:46:10Z</time>
      </trkpt>
      <trkpt lat="44.399147462099791" lon="9.132526908069849">
        <ele>580.70000000000005</ele>
        <time>2019-05-23T13:46:24Z</time>
      </trkpt>
      <trkpt lat="44.399154838174582" lon="9.132584156468511">
        <ele>583.57000000000005</ele>
        <time>2019-05-23T13:46:40Z</time>
      </trkpt>
      <trkpt lat="44.399141008034348" lon="9.13259438239038">
        <ele>586.73000000000002</ele>
        <time>2019-05-23T13:46:55Z</time>
      </trkpt>
      <trkpt lat="44.399055512621999" lon="9.132572421804071">
        <ele>587.99000000000001</ele>
        <time>2019-05-23T13:47:07Z</time>
      </trkpt>
      <trkpt lat="44.398940093815327" lon="9.132546689361334">
        <ele>589</ele>
        <time>2019-05-23T13:47:21Z</time>
      </trkpt>
      <trkpt lat="44.398849317803979" lon="9.132530763745308">
        <ele>590.00999999999999</ele>
        <time>2019-05-23T13:47:33Z</time>
      </trkpt>
      <trkpt lat="44.398780753836036" lon="9.132510982453823">
        <ele>589.04999999999995</ele>
        <time>2019-05-23T13:47:41Z</time>
      </trkpt>
      <trkpt lat="44.398697270080447" lon="9.132485836744309">
        <ele>587.09000000000003</ele>
        <time>2019-05-23T13:47:52Z</time>
      </trkpt>
      <trkpt lat="44.398587131872773" lon="9.132463792338967">
        <ele>584.38</ele>
        <time>2019-05-23T13:48:06Z</time>
      </trkpt>
      <trkpt lat="44.398463750258088" lon="9.132459601387382">
        <ele>581.91999999999996</ele>
        <time>2019-05-23T13:48:22Z</time>
      </trkpt>
      <trkpt lat="44.398358976468444" lon="9.132435545325279">
        <ele>580.03999999999996</ele>
        <time>2019-05-23T13:48:36Z</time>
      </trkpt>
      <trkpt lat="44.398306254297495" lon="9.132435712963343">
        <ele>576.41999999999996</ele>
        <time>2019-05-23T13:48:44Z</time>
      </trkpt>
      <trkpt lat="44.398297872394323" lon="9.132438143715262">
        <ele>576.51999999999998</ele>
        <time>2019-05-23T13:48:45Z</time>
      </trkpt>
      <trkpt lat="44.398278091102839" lon="9.132438395172358">
        <ele>578.00999999999999</ele>
        <time>2019-05-23T13:48:47Z</time>
      </trkpt>
      <trkpt lat="44.398261494934559" lon="9.13243168964982">
        <ele>576.39999999999998</ele>
        <time>2019-05-23T13:48:49Z</time>
      </trkpt>
      <trkpt lat="44.398198127746582" lon="9.132395815104246">
        <ele>574.83000000000004</ele>
        <time>2019-05-23T13:48:57Z</time>
      </trkpt>
      <trkpt lat="44.398107435554266" lon="9.132393971085548">
        <ele>571.60000000000002</ele>
        <time>2019-05-23T13:49:11Z</time>
      </trkpt>
      <trkpt lat="44.39803384244442" lon="9.132416937500238">
        <ele>568.28999999999996</ele>
        <time>2019-05-23T13:49:22Z</time>
      </trkpt>
      <trkpt lat="44.397973157465458" lon="9.132455075159669">
        <ele>565.26999999999998</ele>
        <time>2019-05-23T13:49:31Z</time>
      </trkpt>
      <trkpt lat="44.397882046177983" lon="9.132461780682206">
        <ele>562.22000000000003</ele>
        <time>2019-05-23T13:49:43Z</time>
      </trkpt>
      <trkpt lat="44.397849608212709" lon="9.132471084594727">
        <ele>560.94000000000005</ele>
        <time>2019-05-23T13:49:55Z</time>
      </trkpt>
      <trkpt lat="44.397760676220059" lon="9.132489524781704">
        <ele>558.22000000000003</ele>
        <time>2019-05-23T13:50:06Z</time>
      </trkpt>
      <trkpt lat="44.397651208564639" lon="9.132496062666178">
        <ele>554.95000000000005</ele>
        <time>2019-05-23T13:50:20Z</time>
      </trkpt>
      <trkpt lat="44.397557666525245" lon="9.132476197555661">
        <ele>552.45000000000005</ele>
        <time>2019-05-23T13:50:31Z</time>
      </trkpt>
      <trkpt lat="44.39737712033093" lon="9.132461445406079">
        <ele>550.04999999999995</ele>
        <time>2019-05-23T13:50:48Z</time>
      </trkpt>
      <trkpt lat="44.397179558873177" lon="9.132465720176697">
        <ele>549.30999999999995</ele>
        <time>2019-05-23T13:51:05Z</time>
      </trkpt>
      <trkpt lat="44.397127171978354" lon="9.132425067946315">
        <ele>549.37</ele>
        <time>2019-05-23T13:52:11Z</time>
      </trkpt>
      <trkpt lat="44.397007981315255" lon="9.13240235298872">
        <ele>547.54999999999995</ele>
        <time>2019-05-23T14:02:41Z</time>
      </trkpt>
      <trkpt lat="44.396878145635128" lon="9.132405035197735">
        <ele>548.38</ele>
        <time>2019-05-23T14:02:55Z</time>
      </trkpt>
      <trkpt lat="44.396736156195402" lon="9.132443927228451">
        <ele>548.16999999999996</ele>
        <time>2019-05-23T14:03:09Z</time>
      </trkpt>
      <trkpt lat="44.396683098748326" lon="9.132428588345647">
        <ele>548.88</ele>
        <time>2019-05-23T14:03:19Z</time>
      </trkpt>
      <trkpt lat="44.396598190069199" lon="9.132427079603076">
        <ele>548.49000000000001</ele>
        <time>2019-05-23T14:03:28Z</time>
      </trkpt>
      <trkpt lat="44.396571451798081" lon="9.132426660507917">
        <ele>548.72000000000003</ele>
        <time>2019-05-23T14:03:31Z</time>
      </trkpt>
      <trkpt lat="44.396499451249838" lon="9.132434707134962">
        <ele>548.76999999999998</ele>
        <time>2019-05-23T14:03:38Z</time>
      </trkpt>
      <trkpt lat="44.396480089053512" lon="9.132426492869854">
        <ele>548.76999999999998</ele>
        <time>2019-05-23T14:03:40Z</time>
      </trkpt>
      <trkpt lat="44.396433653309941" lon="9.132389528676868">
        <ele>549.23000000000002</ele>
        <time>2019-05-23T14:03:46Z</time>
      </trkpt>
      <trkpt lat="44.396370369940996" lon="9.132313840091229">
        <ele>549.57000000000005</ele>
        <time>2019-05-23T14:03:57Z</time>
      </trkpt>
      <trkpt lat="44.396321838721633" lon="9.132245862856507">
        <ele>550.60000000000002</ele>
        <time>2019-05-23T14:04:09Z</time>
      </trkpt>
      <trkpt lat="44.396250760182738" lon="9.13219909183681">
        <ele>551.42999999999995</ele>
        <time>2019-05-23T14:04:22Z</time>
      </trkpt>
      <trkpt lat="44.396149087697268" lon="9.132168162614107">
        <ele>554.26999999999998</ele>
        <time>2019-05-23T14:04:39Z</time>
      </trkpt>
      <trkpt lat="44.396112374961376" lon="9.132141843438149">
        <ele>554.70000000000005</ele>
        <time>2019-05-23T14:04:44Z</time>
      </trkpt>
      <trkpt lat="44.396032160148025" lon="9.132111920043826">
        <ele>555.08000000000004</ele>
        <time>2019-05-23T14:04:53Z</time>
      </trkpt>
      <trkpt lat="44.395898217335343" lon="9.132071100175381">
        <ele>556.12</ele>
        <time>2019-05-23T14:05:09Z</time>
      </trkpt>
      <trkpt lat="44.395853290334344" lon="9.132038494572043">
        <ele>555.57000000000005</ele>
        <time>2019-05-23T14:05:14Z</time>
      </trkpt>
      <trkpt lat="44.395764609798789" lon="9.131957525387406">
        <ele>553.82000000000005</ele>
        <time>2019-05-23T14:05:27Z</time>
      </trkpt>
      <trkpt lat="44.395673247054219" lon="9.13190983235836">
        <ele>552.37</ele>
        <time>2019-05-23T14:05:39Z</time>
      </trkpt>
      <trkpt lat="44.395640641450882" lon="9.131883597001433">
        <ele>552.63</ele>
        <time>2019-05-23T14:05:43Z</time>
      </trkpt>
      <trkpt lat="44.395550452172756" lon="9.131831796839833">
        <ele>551.47000000000003</ele>
        <time>2019-05-23T14:05:54Z</time>
      </trkpt>
      <trkpt lat="44.395473171025515" lon="9.131779912859201">
        <ele>550.05999999999995</ele>
        <time>2019-05-23T14:06:04Z</time>
      </trkpt>
      <trkpt lat="44.39535565674305" lon="9.13171730004251">
        <ele>549.44000000000005</ele>
        <time>2019-05-23T14:06:19Z</time>
      </trkpt>
      <trkpt lat="44.395241662859917" lon="9.131708163768053">
        <ele>551.53999999999996</ele>
        <time>2019-05-23T14:06:33Z</time>
      </trkpt>
      <trkpt lat="44.395100008696318" lon="9.131734985858202">
        <ele>552.92999999999995</ele>
        <time>2019-05-23T14:06:47Z</time>
      </trkpt>
      <trkpt lat="44.394983500242233" lon="9.131741523742676">
        <ele>553.58000000000004</ele>
        <time>2019-05-23T14:07:01Z</time>
      </trkpt>
      <trkpt lat="44.394867327064276" lon="9.131716126576066">
        <ele>553.85000000000002</ele>
        <time>2019-05-23T14:07:13Z</time>
      </trkpt>
      <trkpt lat="44.394780993461609" lon="9.131622333079577">
        <ele>553.17999999999995</ele>
        <time>2019-05-23T14:07:26Z</time>
      </trkpt>
      <trkpt lat="44.394696839153767" lon="9.131532562896609">
        <ele>552.61000000000001</ele>
        <time>2019-05-23T14:07:37Z</time>
      </trkpt>
      <trkpt lat="44.394597597420216" lon="9.131498448550701">
        <ele>554.19000000000005</ele>
        <time>2019-05-23T14:07:51Z</time>
      </trkpt>
      <trkpt lat="44.394548311829567" lon="9.131483612582088">
        <ele>555.38</ele>
        <time>2019-05-23T14:08:00Z</time>
      </trkpt>
      <trkpt lat="44.394504642114043" lon="9.131455197930336">
        <ele>555.34000000000003</ele>
        <time>2019-05-23T14:08:04Z</time>
      </trkpt>
      <trkpt lat="44.394381428137422" lon="9.13136450573802">
        <ele>555.29999999999995</ele>
        <time>2019-05-23T14:08:16Z</time>
      </trkpt>
      <trkpt lat="44.394297860562801" lon="9.131344808265567">
        <ele>556.52999999999997</ele>
        <time>2019-05-23T14:08:26Z</time>
      </trkpt>
      <trkpt lat="44.39428897574544" lon="9.13134397007525">
        <ele>556.51999999999998</ele>
        <time>2019-05-23T14:08:27Z</time>
      </trkpt>
      <trkpt lat="44.394203815609217" lon="9.13130197674036">
        <ele>556.49000000000001</ele>
        <time>2019-05-23T14:08:35Z</time>
      </trkpt>
      <trkpt lat="44.39406962133944" lon="9.131219917908311">
        <ele>554.90999999999997</ele>
        <time>2019-05-23T14:08:47Z</time>
      </trkpt>
      <trkpt lat="44.39398068934679" lon="9.131169877946377">
        <ele>556.55999999999995</ele>
        <time>2019-05-23T14:08:59Z</time>
      </trkpt>
      <trkpt lat="44.393882788717747" lon="9.131137859076262">
        <ele>557.55999999999995</ele>
        <time>2019-05-23T14:09:12Z</time>
      </trkpt>
      <trkpt lat="44.393747840076685" lon="9.131048256531358">
        <ele>557.38999999999999</ele>
        <time>2019-05-23T14:09:24Z</time>
      </trkpt>
      <trkpt lat="44.393645245581865" lon="9.130925042554736">
        <ele>556.80999999999995</ele>
        <time>2019-05-23T14:09:36Z</time>
      </trkpt>
      <trkpt lat="44.393529323861003" lon="9.130853544920683">
        <ele>557.17999999999995</ele>
        <time>2019-05-23T14:09:48Z</time>
      </trkpt>
      <trkpt lat="44.393423879519105" lon="9.130723541602492">
        <ele>557.79999999999995</ele>
        <time>2019-05-23T14:09:59Z</time>
      </trkpt>
      <trkpt lat="44.393280381336808" lon="9.130625892430544">
        <ele>557.70000000000005</ele>
        <time>2019-05-23T14:10:12Z</time>
      </trkpt>
      <trkpt lat="44.393255151808262" lon="9.130594879388809">
        <ele>555.89999999999998</ele>
        <time>2019-05-23T14:10:15Z</time>
      </trkpt>
      <trkpt lat="44.393110731616616" lon="9.130419194698334">
        <ele>555.88999999999999</ele>
        <time>2019-05-23T14:10:31Z</time>
      </trkpt>
      <trkpt lat="44.393064379692078" lon="9.130388516932726">
        <ele>555.45000000000005</ele>
        <time>2019-05-23T14:10:36Z</time>
      </trkpt>
      <trkpt lat="44.392955414950848" lon="9.130358677357435">
        <ele>556.26999999999998</ele>
        <time>2019-05-23T14:10:47Z</time>
      </trkpt>
      <trkpt lat="44.392887437716126" lon="9.130364041775465">
        <ele>556.73000000000002</ele>
        <time>2019-05-23T14:10:54Z</time>
      </trkpt>
      <trkpt lat="44.392831027507782" lon="9.130393965169787">
        <ele>556.74000000000001</ele>
        <time>2019-05-23T14:11:00Z</time>
      </trkpt>
      <trkpt lat="44.392810491845012" lon="9.130396228283644">
        <ele>556.63999999999999</ele>
        <time>2019-05-23T14:11:02Z</time>
      </trkpt>
      <trkpt lat="44.392738156020641" lon="9.130434952676296">
        <ele>556.63999999999999</ele>
        <time>2019-05-23T14:11:09Z</time>
      </trkpt>
      <trkpt lat="44.392689038068056" lon="9.130436796694994">
        <ele>556.75</ele>
        <time>2019-05-23T14:11:13Z</time>
      </trkpt>
      <trkpt lat="44.392553586512804" lon="9.130488848313689">
        <ele>557.41999999999996</ele>
        <time>2019-05-23T14:11:27Z</time>
      </trkpt>
      <trkpt lat="44.392495499923825" lon="9.130528243258596">
        <ele>559.35000000000002</ele>
        <time>2019-05-23T14:11:41Z</time>
      </trkpt>
      <trkpt lat="44.392434563487768" lon="9.130636705085635">
        <ele>560.46000000000004</ele>
        <time>2019-05-23T14:11:54Z</time>
      </trkpt>
      <trkpt lat="44.392430707812309" lon="9.130670903250575">
        <ele>561.14999999999998</ele>
        <time>2019-05-23T14:11:58Z</time>
      </trkpt>
      <trkpt lat="44.392368262633681" lon="9.130726056173444">
        <ele>561.76999999999998</ele>
        <time>2019-05-23T14:12:06Z</time>
      </trkpt>
      <trkpt lat="44.392257034778595" lon="9.130824878811836">
        <ele>562.75</ele>
        <time>2019-05-23T14:12:19Z</time>
      </trkpt>
      <trkpt lat="44.392243204638362" lon="9.130826806649566">
        <ele>562.78999999999996</ele>
        <time>2019-05-23T14:12:20Z</time>
      </trkpt>
      <trkpt lat="44.392096437513828" lon="9.130831668153405">
        <ele>560.75</ele>
        <time>2019-05-23T14:12:33Z</time>
      </trkpt>
      <trkpt lat="44.391979426145554" lon="9.13079721853137">
        <ele>559.42999999999995</ele>
        <time>2019-05-23T14:12:43Z</time>
      </trkpt>
      <trkpt lat="44.391951262950897" lon="9.130793698132038">
        <ele>558.58000000000004</ele>
        <time>2019-05-23T14:12:46Z</time>
      </trkpt>
      <trkpt lat="44.391912622377276" lon="9.130797050893307">
        <ele>557.97000000000003</ele>
        <time>2019-05-23T14:12:50Z</time>
      </trkpt>
      <trkpt lat="44.391854200512171" lon="9.130787579342723">
        <ele>557.99000000000001</ele>
        <time>2019-05-23T14:12:55Z</time>
      </trkpt>
      <trkpt lat="44.391783960163593" lon="9.130798056721687">
        <ele>557.72000000000003</ele>
        <time>2019-05-23T14:13:01Z</time>
      </trkpt>
      <trkpt lat="44.391729310154915" lon="9.130820101127029">
        <ele>557.58000000000004</ele>
        <time>2019-05-23T14:13:06Z</time>
      </trkpt>
      <trkpt lat="44.391624201089144" lon="9.130852119997144">
        <ele>558.5</ele>
        <time>2019-05-23T14:13:19Z</time>
      </trkpt>
      <trkpt lat="44.391575083136559" lon="9.130825214087963">
        <ele>558.75999999999999</ele>
        <time>2019-05-23T14:13:27Z</time>
      </trkpt>
      <trkpt lat="44.391543818637729" lon="9.130810713395476">
        <ele>558.13</ele>
        <time>2019-05-23T14:13:30Z</time>
      </trkpt>
      <trkpt lat="44.391403589397669" lon="9.13077475503087">
        <ele>558.55999999999995</ele>
        <time>2019-05-23T14:13:44Z</time>
      </trkpt>
      <trkpt lat="44.391319267451763" lon="9.130690516903997">
        <ele>557</ele>
        <time>2019-05-23T14:13:55Z</time>
      </trkpt>
      <trkpt lat="44.391202758997679" lon="9.130613151937723">
        <ele>555.82000000000005</ele>
        <time>2019-05-23T14:14:07Z</time>
      </trkpt>
      <trkpt lat="44.391097482293844" lon="9.130581049248576">
        <ele>555.25</ele>
        <time>2019-05-23T14:14:18Z</time>
      </trkpt>
      <trkpt lat="44.390945518389344" lon="9.130520783364773">
        <ele>553.25999999999999</ele>
        <time>2019-05-23T14:14:34Z</time>
      </trkpt>
      <trkpt lat="44.390835799276829" lon="9.130449201911688">
        <ele>551.10000000000002</ele>
        <time>2019-05-23T14:14:47Z</time>
      </trkpt>
      <trkpt lat="44.39074250869453" lon="9.130380218848586">
        <ele>548.50999999999999</ele>
        <time>2019-05-23T14:14:57Z</time>
      </trkpt>
      <trkpt lat="44.390628263354301" lon="9.130351385101676">
        <ele>546.84000000000003</ele>
        <time>2019-05-23T14:15:08Z</time>
      </trkpt>
      <trkpt lat="44.39051921479404" lon="9.130355576053262">
        <ele>546.90999999999997</ele>
        <time>2019-05-23T14:15:19Z</time>
      </trkpt>
      <trkpt lat="44.390407484024763" lon="9.130276450887322">
        <ele>546.52999999999997</ele>
        <time>2019-05-23T14:15:29Z</time>
      </trkpt>
      <trkpt lat="44.390276893973351" lon="9.130153404548764">
        <ele>546.05999999999995</ele>
        <time>2019-05-23T14:15:45Z</time>
      </trkpt>
      <trkpt lat="44.390260549262166" lon="9.130146615207195">
        <ele>545.80999999999995</ele>
        <time>2019-05-23T14:15:46Z</time>
      </trkpt>
      <trkpt lat="44.390122499316931" lon="9.130027759820223">
        <ele>544.75999999999999</ele>
        <time>2019-05-23T14:15:57Z</time>
      </trkpt>
      <trkpt lat="44.390079500153661" lon="9.129982413724065">
        <ele>544.22000000000003</ele>
        <time>2019-05-23T14:16:01Z</time>
      </trkpt>
      <trkpt lat="44.389962572604418" lon="9.12993036210537">
        <ele>543.13</ele>
        <time>2019-05-23T14:16:12Z</time>
      </trkpt>
      <trkpt lat="44.389823684468865" lon="9.129871940240264">
        <ele>542.41999999999996</ele>
        <time>2019-05-23T14:16:26Z</time>
      </trkpt>
      <trkpt lat="44.38971153460443" lon="9.129789797589183">
        <ele>541.16999999999996</ele>
        <time>2019-05-23T14:16:39Z</time>
      </trkpt>
      <trkpt lat="44.389594607055187" lon="9.129651160910726">
        <ele>539.55999999999995</ele>
        <time>2019-05-23T14:16:52Z</time>
      </trkpt>
      <trkpt lat="44.389457479119301" lon="9.129571449011564">
        <ele>538.55999999999995</ele>
        <time>2019-05-23T14:17:05Z</time>
      </trkpt>
      <trkpt lat="44.389415737241507" lon="9.129568180069327">
        <ele>538.59000000000003</ele>
        <time>2019-05-23T14:17:08Z</time>
      </trkpt>
      <trkpt lat="44.389283554628491" lon="9.129529288038611">
        <ele>537.75999999999999</ele>
        <time>2019-05-23T14:17:20Z</time>
      </trkpt>
      <trkpt lat="44.389187665656209" lon="9.129473464563489">
        <ele>535.97000000000003</ele>
        <time>2019-05-23T14:17:31Z</time>
      </trkpt>
      <trkpt lat="44.389131339266896" lon="9.129492407664657">
        <ele>535.24000000000001</ele>
        <time>2019-05-23T14:17:35Z</time>
      </trkpt>
      <trkpt lat="44.388972502201796" lon="9.129612520337105">
        <ele>533.76999999999998</ele>
        <time>2019-05-23T14:17:50Z</time>
      </trkpt>
      <trkpt lat="44.388896562159061" lon="9.129656525328755">
        <ele>532.58000000000004</ele>
        <time>2019-05-23T14:18:00Z</time>
      </trkpt>
      <trkpt lat="44.388801092281938" lon="9.129651999101043">
        <ele>530.16999999999996</ele>
        <time>2019-05-23T14:18:12Z</time>
      </trkpt>
      <trkpt lat="44.38877678476274" lon="9.129663230851293">
        <ele>531.02999999999997</ele>
        <time>2019-05-23T14:18:14Z</time>
      </trkpt>
      <trkpt lat="44.388746358454227" lon="9.129673624411225">
        <ele>530.38</ele>
        <time>2019-05-23T14:18:16Z</time>
      </trkpt>
      <trkpt lat="44.388515688478947" lon="9.129710420966148">
        <ele>529.12</ele>
        <time>2019-05-23T14:18:30Z</time>
      </trkpt>
      <trkpt lat="44.388419045135379" lon="9.129650071263313">
        <ele>528.13999999999999</ele>
        <time>2019-05-23T14:18:41Z</time>
      </trkpt>
      <trkpt lat="44.388387529179454" lon="9.129630709066987">
        <ele>528.04999999999995</ele>
        <time>2019-05-23T14:18:44Z</time>
      </trkpt>
      <trkpt lat="44.388299603015184" lon="9.129559965804219">
        <ele>527.87</ele>
        <time>2019-05-23T14:18:55Z</time>
      </trkpt>
      <trkpt lat="44.38820949755609" lon="9.129473799839616">
        <ele>529.13</ele>
        <time>2019-05-23T14:19:10Z</time>
      </trkpt>
      <trkpt lat="44.388141436502337" lon="9.129347568377852">
        <ele>530.09000000000003</ele>
        <time>2019-05-23T14:19:24Z</time>
      </trkpt>
      <trkpt lat="44.388084020465612" lon="9.129218989983201">
        <ele>529.67999999999995</ele>
        <time>2019-05-23T14:19:35Z</time>
      </trkpt>
      <trkpt lat="44.388034315779805" lon="9.129011873155832">
        <ele>527.38</ele>
        <time>2019-05-23T14:19:49Z</time>
      </trkpt>
      <trkpt lat="44.387953681871295" lon="9.128875667229295">
        <ele>526.71000000000004</ele>
        <time>2019-05-23T14:20:02Z</time>
      </trkpt>
      <trkpt lat="44.387864414602518" lon="9.128856640309095">
        <ele>526.60000000000002</ele>
        <time>2019-05-23T14:20:14Z</time>
      </trkpt>
      <trkpt lat="44.387770453467965" lon="9.128885474056006">
        <ele>525.07000000000005</ele>
        <time>2019-05-23T14:20:25Z</time>
      </trkpt>
      <trkpt lat="44.387727286666632" lon="9.128915732726455">
        <ele>525.14999999999998</ele>
        <time>2019-05-23T14:20:29Z</time>
      </trkpt>
      <trkpt lat="44.387697530910373" lon="9.128986727446318">
        <ele>525.44000000000005</ele>
        <time>2019-05-23T14:20:35Z</time>
      </trkpt>
      <trkpt lat="44.387669283896685" lon="9.129030145704746">
        <ele>525.36000000000001</ele>
        <time>2019-05-23T14:20:38Z</time>
      </trkpt>
      <trkpt lat="44.387645395472646" lon="9.129083873704076">
        <ele>525.30999999999995</ele>
        <time>2019-05-23T14:20:42Z</time>
      </trkpt>
      <trkpt lat="44.387613711878657" lon="9.129122765734792">
        <ele>525.14999999999998</ele>
        <time>2019-05-23T14:20:46Z</time>
      </trkpt>
      <trkpt lat="44.387605246156454" lon="9.12915151566267">
        <ele>525.35000000000002</ele>
        <time>2019-05-23T14:20:48Z</time>
      </trkpt>
      <trkpt lat="44.38748144544661" lon="9.12927120923996">
        <ele>524.38999999999999</ele>
        <time>2019-05-23T14:21:01Z</time>
      </trkpt>
      <trkpt lat="44.387417323887348" lon="9.129365254193544">
        <ele>523.48000000000002</ele>
        <time>2019-05-23T14:21:13Z</time>
      </trkpt>
      <trkpt lat="44.387410953640938" lon="9.12937724031508">
        <ele>523.44000000000005</ele>
        <time>2019-05-23T14:21:14Z</time>
      </trkpt>
      <trkpt lat="44.387395363301039" lon="9.129402553662658">
        <ele>523.54999999999995</ele>
        <time>2019-05-23T14:21:16Z</time>
      </trkpt>
      <trkpt lat="44.387210039421916" lon="9.129495592787862">
        <ele>522.62</ele>
        <time>2019-05-23T14:21:31Z</time>
      </trkpt>
      <trkpt lat="44.387150024995208" lon="9.129532976076007">
        <ele>522.25</ele>
        <time>2019-05-23T14:21:36Z</time>
      </trkpt>
      <trkpt lat="44.387034187093377" lon="9.129628697410226">
        <ele>521.77999999999997</ele>
        <time>2019-05-23T14:21:48Z</time>
      </trkpt>
      <trkpt lat="44.386879792436957" lon="9.12961226888001">
        <ele>522.05999999999995</ele>
        <time>2019-05-23T14:22:01Z</time>
      </trkpt>
      <trkpt lat="44.386837547644973" lon="9.129588799551129">
        <ele>522.10000000000002</ele>
        <time>2019-05-23T14:22:04Z</time>
      </trkpt>
      <trkpt lat="44.386692037805915" lon="9.129579495638609">
        <ele>520</ele>
        <time>2019-05-23T14:22:16Z</time>
      </trkpt>
      <trkpt lat="44.386510318145156" lon="9.129547728225589">
        <ele>519.73000000000002</ele>
        <time>2019-05-23T14:22:32Z</time>
      </trkpt>
      <trkpt lat="44.386369250714779" lon="9.129560133442283">
        <ele>519.52999999999997</ele>
        <time>2019-05-23T14:22:45Z</time>
      </trkpt>
      <trkpt lat="44.386270008981228" lon="9.129574717953801">
        <ele>519.80999999999995</ele>
        <time>2019-05-23T14:22:56Z</time>
      </trkpt>
      <trkpt lat="44.386212760582566" lon="9.129570694640279">
        <ele>519.60000000000002</ele>
        <time>2019-05-23T14:23:01Z</time>
      </trkpt>
      <trkpt lat="44.386118212714791" lon="9.129577819257975">
        <ele>521.25999999999999</ele>
        <time>2019-05-23T14:23:11Z</time>
      </trkpt>
      <trkpt lat="44.38610153272748" lon="9.129567760974169">
        <ele>519.61000000000001</ele>
        <time>2019-05-23T14:23:13Z</time>
      </trkpt>
      <trkpt lat="44.385943617671728" lon="9.129559965804219">
        <ele>518.26999999999998</ele>
        <time>2019-05-23T14:23:25Z</time>
      </trkpt>
      <trkpt lat="44.385863235220313" lon="9.129555942490697">
        <ele>517.88</ele>
        <time>2019-05-23T14:23:32Z</time>
      </trkpt>
      <trkpt lat="44.385700710117817" lon="9.129504226148129">
        <ele>517.77999999999997</ele>
        <time>2019-05-23T14:23:45Z</time>
      </trkpt>
      <trkpt lat="44.385592248290777" lon="9.12946131080389">
        <ele>517.82000000000005</ele>
        <time>2019-05-23T14:23:56Z</time>
      </trkpt>
      <trkpt lat="44.385447660461068" lon="9.129347149282694">
        <ele>518.23000000000002</ele>
        <time>2019-05-23T14:24:09Z</time>
      </trkpt>
      <trkpt lat="44.385416647419333" lon="9.129329295828939">
        <ele>517.97000000000003</ele>
        <time>2019-05-23T14:24:12Z</time>
      </trkpt>
      <trkpt lat="44.385258480906487" lon="9.129214882850647">
        <ele>516.78999999999996</ele>
        <time>2019-05-23T14:24:26Z</time>
      </trkpt>
      <trkpt lat="44.38513308763504" lon="9.129166267812252">
        <ele>515.91999999999996</ele>
        <time>2019-05-23T14:24:38Z</time>
      </trkpt>
      <trkpt lat="44.385101655498147" lon="9.129174817353487">
        <ele>516.07000000000005</ele>
        <time>2019-05-23T14:24:41Z</time>
      </trkpt>
      <trkpt lat="44.385047340765595" lon="9.129148246720433">
        <ele>515.99000000000001</ele>
        <time>2019-05-23T14:24:46Z</time>
      </trkpt>
      <trkpt lat="44.384893449023366" lon="9.12904841825366">
        <ele>515.57000000000005</ele>
        <time>2019-05-23T14:25:00Z</time>
      </trkpt>
      <trkpt lat="44.384735198691487" lon="9.128957223147154">
        <ele>514.5</ele>
        <time>2019-05-23T14:25:14Z</time>
      </trkpt>
      <trkpt lat="44.384697396308184" lon="9.128920258954167">
        <ele>514.14999999999998</ele>
        <time>2019-05-23T14:25:19Z</time>
      </trkpt>
      <trkpt lat="44.38460486009717" lon="9.128920678049326">
        <ele>512.98000000000002</ele>
        <time>2019-05-23T14:25:27Z</time>
      </trkpt>
      <trkpt lat="44.384561106562614" lon="9.128854880109429">
        <ele>512.75999999999999</ele>
        <time>2019-05-23T14:25:34Z</time>
      </trkpt>
      <trkpt lat="44.384503606706858" lon="9.128815652802587">
        <ele>512.52999999999997</ele>
        <time>2019-05-23T14:25:40Z</time>
      </trkpt>
      <trkpt lat="44.38439036719501" lon="9.12873325869441">
        <ele>512.41999999999996</ele>
        <time>2019-05-23T14:25:52Z</time>
      </trkpt>
      <trkpt lat="44.384262124076486" lon="9.128724038600922">
        <ele>511.18000000000001</ele>
        <time>2019-05-23T14:26:02Z</time>
      </trkpt>
      <trkpt lat="44.38406347297132" lon="9.128725128248334">
        <ele>510.63</ele>
        <time>2019-05-23T14:26:18Z</time>
      </trkpt>
      <trkpt lat="44.384040255099535" lon="9.128721272572875">
        <ele>509.13999999999999</ele>
        <time>2019-05-23T14:26:20Z</time>
      </trkpt>
      <trkpt lat="44.38401804305613" lon="9.128714483231306">
        <ele>512.59000000000003</ele>
        <time>2019-05-23T14:26:22Z</time>
      </trkpt>
      <trkpt lat="44.38398526981473" lon="9.128708280622959">
        <ele>510.68000000000001</ele>
        <time>2019-05-23T14:26:25Z</time>
      </trkpt>
      <trkpt lat="44.383832886815071" lon="9.128690427169204">
        <ele>511.51999999999998</ele>
        <time>2019-05-23T14:26:39Z</time>
      </trkpt>
      <trkpt lat="44.383705398067832" lon="9.12867609411478">
        <ele>511.63999999999999</ele>
        <time>2019-05-23T14:26:51Z</time>
      </trkpt>
      <trkpt lat="44.383605653420091" lon="9.128708615899086">
        <ele>513.20000000000005</ele>
        <time>2019-05-23T14:27:03Z</time>
      </trkpt>
      <trkpt lat="44.383568605408072" lon="9.128704341128469">
        <ele>513.29999999999995</ele>
        <time>2019-05-23T14:27:15Z</time>
      </trkpt>
      <trkpt lat="44.383569359779358" lon="9.128702580928803">
        <ele>514.13999999999999</ele>
        <time>2019-05-23T14:29:15Z</time>
      </trkpt>
      <trkpt lat="44.383569611236453" lon="9.128706436604261">
        <ele>513.27999999999997</ele>
        <time>2019-05-23T14:29:51Z</time>
      </trkpt>
      <trkpt lat="44.383541028946638" lon="9.128691432997584">
        <ele>513.84000000000003</ele>
        <time>2019-05-23T14:31:04Z</time>
      </trkpt>
      <trkpt lat="44.383434327319264" lon="9.128568721935153">
        <ele>512.89999999999998</ele>
        <time>2019-05-23T14:31:17Z</time>
      </trkpt>
      <trkpt lat="44.383307844400406" lon="9.128436539322138">
        <ele>513.38</ele>
        <time>2019-05-23T14:31:32Z</time>
      </trkpt>
      <trkpt lat="44.38318538479507" lon="9.128255322575569">
        <ele>512.35000000000002</ele>
        <time>2019-05-23T14:31:46Z</time>
      </trkpt>
      <trkpt lat="44.383147582411766" lon="9.128206288442016">
        <ele>512.25999999999999</ele>
        <time>2019-05-23T14:31:51Z</time>
      </trkpt>
      <trkpt lat="44.383035097271204" lon="9.128147782757878">
        <ele>511.22000000000003</ele>
        <time>2019-05-23T14:32:06Z</time>
      </trkpt>
      <trkpt lat="44.382945410907269" lon="9.128109980374575">
        <ele>507.94</ele>
        <time>2019-05-23T14:32:19Z</time>
      </trkpt>
      <trkpt lat="44.382937280461192" lon="9.128104699775577">
        <ele>507.73000000000002</ele>
        <time>2019-05-23T14:32:20Z</time>
      </trkpt>
      <trkpt lat="44.382903669029474" lon="9.128092462196946">
        <ele>507.38</ele>
        <time>2019-05-23T14:32:23Z</time>
      </trkpt>
      <trkpt lat="44.3827900942415" lon="9.128018449991942">
        <ele>507.91000000000003</ele>
        <time>2019-05-23T14:32:34Z</time>
      </trkpt>
      <trkpt lat="44.382768301293254" lon="9.128020210191608">
        <ele>508.17000000000002</ele>
        <time>2019-05-23T14:32:36Z</time>
      </trkpt>
      <trkpt lat="44.382670484483242" lon="9.127986514940858">
        <ele>507.75</ele>
        <time>2019-05-23T14:32:46Z</time>
      </trkpt>
      <trkpt lat="44.382544169202447" lon="9.127955501899123">
        <ele>506.89999999999998</ele>
        <time>2019-05-23T14:32:58Z</time>
      </trkpt>
      <trkpt lat="44.38238357193768" lon="9.127900348976255">
        <ele>506.35000000000002</ele>
        <time>2019-05-23T14:33:14Z</time>
      </trkpt>
      <trkpt lat="44.382234290242195" lon="9.127796413376927">
        <ele>506.81</ele>
        <time>2019-05-23T14:33:30Z</time>
      </trkpt>
      <trkpt lat="44.382090037688613" lon="9.127652915194631">
        <ele>506.29000000000002</ele>
        <time>2019-05-23T14:33:46Z</time>
      </trkpt>
      <trkpt lat="44.382016025483608" lon="9.127573035657406">
        <ele>506.19</ele>
        <time>2019-05-23T14:33:58Z</time>
      </trkpt>
      <trkpt lat="44.381914688274264" lon="9.127422329038382">
        <ele>507.02999999999997</ele>
        <time>2019-05-23T14:34:13Z</time>
      </trkpt>
      <trkpt lat="44.381773788481951" lon="9.127324679866433">
        <ele>507.47000000000003</ele>
        <time>2019-05-23T14:34:26Z</time>
      </trkpt>
      <trkpt lat="44.381659962236881" lon="9.127282770350575">
        <ele>507.88999999999999</ele>
        <time>2019-05-23T14:34:40Z</time>
      </trkpt>
      <trkpt lat="44.381546806544065" lon="9.127277908846736">
        <ele>508.99000000000001</ele>
        <time>2019-05-23T14:34:53Z</time>
      </trkpt>
      <trkpt lat="44.381431555375457" lon="9.127282937988639">
        <ele>509.12</ele>
        <time>2019-05-23T14:35:05Z</time>
      </trkpt>
      <trkpt lat="44.381334828212857" lon="9.127292912453413">
        <ele>509.18000000000001</ele>
        <time>2019-05-23T14:35:15Z</time>
      </trkpt>
      <trkpt lat="44.381291409954429" lon="9.127284195274115">
        <ele>508.39999999999998</ele>
        <time>2019-05-23T14:35:19Z</time>
      </trkpt>
      <trkpt lat="44.381172806024551" lon="9.127272041514516">
        <ele>506.69</ele>
        <time>2019-05-23T14:35:30Z</time>
      </trkpt>
      <trkpt lat="44.381093429401517" lon="9.127304898574948">
        <ele>506.63</ele>
        <time>2019-05-23T14:35:40Z</time>
      </trkpt>
      <trkpt lat="44.380998127162457" lon="9.127367092296481">
        <ele>506.42000000000002</ele>
        <time>2019-05-23T14:35:51Z</time>
      </trkpt>
      <trkpt lat="44.380897460505366" lon="9.127395590767264">
        <ele>506.62</ele>
        <time>2019-05-23T14:36:02Z</time>
      </trkpt>
      <trkpt lat="44.380865273997188" lon="9.127396764233708">
        <ele>506.11000000000001</ele>
        <time>2019-05-23T14:36:05Z</time>
      </trkpt>
      <trkpt lat="44.38081749714911" lon="9.1274075768888">
        <ele>505.33999999999997</ele>
        <time>2019-05-23T14:36:10Z</time>
      </trkpt>
      <trkpt lat="44.380720686167479" lon="9.127446301281452">
        <ele>504.57999999999998</ele>
        <time>2019-05-23T14:36:22Z</time>
      </trkpt>
      <trkpt lat="44.380697468295693" lon="9.127450743690133">
        <ele>504.50999999999999</ele>
        <time>2019-05-23T14:36:24Z</time>
      </trkpt>
      <trkpt lat="44.380651619285345" lon="9.127465831115842">
        <ele>504.50999999999999</ele>
        <time>2019-05-23T14:36:28Z</time>
      </trkpt>
      <trkpt lat="44.380481382831931" lon="9.127478320151568">
        <ele>503.92000000000002</ele>
        <time>2019-05-23T14:36:40Z</time>
      </trkpt>
      <trkpt lat="44.380351128056645" lon="9.127485109493136">
        <ele>504.52999999999997</ele>
        <time>2019-05-23T14:36:51Z</time>
      </trkpt>
      <trkpt lat="44.38020184636116" lon="9.127513021230698">
        <ele>503.45999999999998</ele>
        <time>2019-05-23T14:37:03Z</time>
      </trkpt>
      <trkpt lat="44.380126660689712" lon="9.127534897997975">
        <ele>504.19999999999999</ele>
        <time>2019-05-23T14:37:11Z</time>
      </trkpt>
      <trkpt lat="44.379997495561838" lon="9.127515703439713">
        <ele>502.32999999999998</ele>
        <time>2019-05-23T14:37:24Z</time>
      </trkpt>
      <trkpt lat="44.3798285163939" lon="9.127535149455071">
        <ele>501.00999999999999</ele>
        <time>2019-05-23T14:37:40Z</time>
      </trkpt>
      <trkpt lat="44.379770094528794" lon="9.127497095614672">
        <ele>499.47000000000003</ele>
        <time>2019-05-23T14:37:46Z</time>
      </trkpt>
      <trkpt lat="44.379677642136812" lon="9.127446133643389">
        <ele>498.41000000000003</ele>
        <time>2019-05-23T14:37:55Z</time>
      </trkpt>
      <trkpt lat="44.379576556384563" lon="9.127391148358584">
        <ele>497.43000000000001</ele>
        <time>2019-05-23T14:38:04Z</time>
      </trkpt>
      <trkpt lat="44.379501370713115" lon="9.127364996820688">
        <ele>496.88999999999999</ele>
        <time>2019-05-23T14:38:10Z</time>
      </trkpt>
      <trkpt lat="44.3793726246804" lon="9.127410175278783">
        <ele>496.61000000000001</ele>
        <time>2019-05-23T14:38:23Z</time>
      </trkpt>
      <trkpt lat="44.379329038783908" lon="9.127427022904158">
        <ele>496.77999999999997</ele>
        <time>2019-05-23T14:38:28Z</time>
      </trkpt>
      <trkpt lat="44.379269275814295" lon="9.127448815852404">
        <ele>496.36000000000001</ele>
        <time>2019-05-23T14:38:33Z</time>
      </trkpt>
      <trkpt lat="44.379159137606621" lon="9.127516793087125">
        <ele>495.18000000000001</ele>
        <time>2019-05-23T14:38:44Z</time>
      </trkpt>
      <trkpt lat="44.379053525626659" lon="9.127661967650056">
        <ele>493.73000000000002</ele>
        <time>2019-05-23T14:38:56Z</time>
      </trkpt>
      <trkpt lat="44.378958810120821" lon="9.127795156091452">
        <ele>492.11000000000001</ele>
        <time>2019-05-23T14:39:08Z</time>
      </trkpt>
      <trkpt lat="44.378879684954882" lon="9.127850644290447">
        <ele>491.02999999999997</ele>
        <time>2019-05-23T14:39:17Z</time>
      </trkpt>
      <trkpt lat="44.378760745748878" lon="9.127891631796956">
        <ele>490.88</ele>
        <time>2019-05-23T14:39:27Z</time>
      </trkpt>
      <trkpt lat="44.378650607541203" lon="9.127932032570243">
        <ele>489.80000000000001</ele>
        <time>2019-05-23T14:39:40Z</time>
      </trkpt>
      <trkpt lat="44.378488585352898" lon="9.127981988713145">
        <ele>489.16000000000003</ele>
        <time>2019-05-23T14:39:54Z</time>
      </trkpt>
      <trkpt lat="44.378462098538876" lon="9.127974109724164">
        <ele>488.99000000000001</ele>
        <time>2019-05-23T14:39:56Z</time>
      </trkpt>
      <trkpt lat="44.378408286720514" lon="9.12794996984303">
        <ele>488.16000000000003</ele>
        <time>2019-05-23T14:40:00Z</time>
      </trkpt>
      <trkpt lat="44.378325641155243" lon="9.127966649830341">
        <ele>487.49000000000001</ele>
        <time>2019-05-23T14:40:06Z</time>
      </trkpt>
      <trkpt lat="44.37819991260767" lon="9.127939492464066">
        <ele>486.00999999999999</ele>
        <time>2019-05-23T14:40:15Z</time>
      </trkpt>
      <trkpt lat="44.378061527386308" lon="9.127908479422331">
        <ele>485.43000000000001</ele>
        <time>2019-05-23T14:40:26Z</time>
      </trkpt>
      <trkpt lat="44.377923896536231" lon="9.127855421975255">
        <ele>483.66000000000003</ele>
        <time>2019-05-23T14:40:39Z</time>
      </trkpt>
      <trkpt lat="44.377913335338235" lon="9.127851901575923">
        <ele>483.39999999999998</ele>
        <time>2019-05-23T14:40:40Z</time>
      </trkpt>
      <trkpt lat="44.377879723906517" lon="9.12786447443068">
        <ele>483.25999999999999</ele>
        <time>2019-05-23T14:40:43Z</time>
      </trkpt>
      <trkpt lat="44.37773915939033" lon="9.127820217981935">
        <ele>481.94999999999999</ele>
        <time>2019-05-23T14:40:55Z</time>
      </trkpt>
      <trkpt lat="44.37758912332356" lon="9.127822397276759">
        <ele>480.82999999999998</ele>
        <time>2019-05-23T14:41:08Z</time>
      </trkpt>
      <trkpt lat="44.377457778900862" lon="9.127820134162903">
        <ele>477.91000000000003</ele>
        <time>2019-05-23T14:41:22Z</time>
      </trkpt>
      <trkpt lat="44.377354346215725" lon="9.127803202718496">
        <ele>476.48000000000002</ele>
        <time>2019-05-23T14:41:33Z</time>
      </trkpt>
      <trkpt lat="44.377234904095531" lon="9.127726759761572">
        <ele>475.63</ele>
        <time>2019-05-23T14:41:43Z</time>
      </trkpt>
      <trkpt lat="44.377087550237775" lon="9.127585776150227">
        <ele>475.13</ele>
        <time>2019-05-23T14:41:57Z</time>
      </trkpt>
      <trkpt lat="44.377016220241785" lon="9.127550153061748">
        <ele>473.88</ele>
        <time>2019-05-23T14:42:03Z</time>
      </trkpt>
      <trkpt lat="44.376937765628099" lon="9.127497933804989">
        <ele>472.79000000000002</ele>
        <time>2019-05-23T14:42:15Z</time>
      </trkpt>
      <trkpt lat="44.376948997378349" lon="9.127503717318177">
        <ele>472.17000000000002</ele>
        <time>2019-05-23T14:42:26Z</time>
      </trkpt>
      <trkpt lat="44.376940028741956" lon="9.127501621842384">
        <ele>472.5</ele>
        <time>2019-05-23T14:42:38Z</time>
      </trkpt>
      <trkpt lat="44.376937765628099" lon="9.127499777823687">
        <ele>472.88999999999999</ele>
        <time>2019-05-23T14:42:53Z</time>
      </trkpt>
      <trkpt lat="44.376904405653477" lon="9.127466501668096">
        <ele>472.52999999999997</ele>
        <time>2019-05-23T14:43:09Z</time>
      </trkpt>
      <trkpt lat="44.376856544986367" lon="9.127445295453072">
        <ele>472.00999999999999</ele>
        <time>2019-05-23T14:43:20Z</time>
      </trkpt>
      <trkpt lat="44.376856628805399" lon="9.127412773668766">
        <ele>471.88</ele>
        <time>2019-05-23T14:43:40Z</time>
      </trkpt>
      <trkpt lat="44.376780269667506" lon="9.127359045669437">
        <ele>470.75999999999999</ele>
        <time>2019-05-23T14:43:56Z</time>
      </trkpt>
      <trkpt lat="44.37674967572093" lon="9.127328954637051">
        <ele>469.88</ele>
        <time>2019-05-23T14:44:08Z</time>
      </trkpt>
      <trkpt lat="44.376745484769344" lon="9.127327781170607">
        <ele>469.88</ele>
        <time>2019-05-23T14:44:11Z</time>
      </trkpt>
      <trkpt lat="44.376695025712252" lon="9.127281848341227">
        <ele>469.36000000000001</ele>
        <time>2019-05-23T14:44:16Z</time>
      </trkpt>
      <trkpt lat="44.3765371106565" lon="9.127167100086808">
        <ele>468.75999999999999</ele>
        <time>2019-05-23T14:44:31Z</time>
      </trkpt>
      <trkpt lat="44.37637978233397" lon="9.127027792856097">
        <ele>468.70999999999998</ele>
        <time>2019-05-23T14:44:48Z</time>
      </trkpt>
      <trkpt lat="44.376374166458845" lon="9.127023266628385">
        <ele>468.60000000000002</ele>
        <time>2019-05-23T14:44:49Z</time>
      </trkpt>
      <trkpt lat="44.376252125948668" lon="9.126864681020379">
        <ele>467.74000000000001</ele>
        <time>2019-05-23T14:45:04Z</time>
      </trkpt>
      <trkpt lat="44.376121619716287" lon="9.126690840348601">
        <ele>466.47000000000003</ele>
        <time>2019-05-23T14:45:19Z</time>
      </trkpt>
      <trkpt lat="44.376001004129648" lon="9.126585898920894">
        <ele>464.43000000000001</ele>
        <time>2019-05-23T14:45:32Z</time>
      </trkpt>
      <trkpt lat="44.375867731869221" lon="9.126403257250786">
        <ele>461.70999999999998</ele>
        <time>2019-05-23T14:45:48Z</time>
      </trkpt>
      <trkpt lat="44.375757677480578" lon="9.12627006880939">
        <ele>459.61000000000001</ele>
        <time>2019-05-23T14:46:01Z</time>
      </trkpt>
      <trkpt lat="44.375603282824159" lon="9.126098826527596">
        <ele>457.52999999999997</ele>
        <time>2019-05-23T14:46:17Z</time>
      </trkpt>
      <trkpt lat="44.375521978363395" lon="9.125960692763329">
        <ele>456.61000000000001</ele>
        <time>2019-05-23T14:46:30Z</time>
      </trkpt>
      <trkpt lat="44.375475877895951" lon="9.125899421051145">
        <ele>456.42000000000002</ele>
        <time>2019-05-23T14:46:36Z</time>
      </trkpt>
      <trkpt lat="44.37531846575439" lon="9.12566120736301">
        <ele>456.26999999999998</ele>
        <time>2019-05-23T14:46:55Z</time>
      </trkpt>
      <trkpt lat="44.375221403315663" lon="9.125500777736306">
        <ele>456.88</ele>
        <time>2019-05-23T14:47:09Z</time>
      </trkpt>
      <trkpt lat="44.375189132988453" lon="9.125472027808428">
        <ele>457.51999999999998</ele>
        <time>2019-05-23T14:47:13Z</time>
      </trkpt>
      <trkpt lat="44.37510640360415" lon="9.1253353189677">
        <ele>458.70999999999998</ele>
        <time>2019-05-23T14:47:27Z</time>
      </trkpt>
      <trkpt lat="44.375013615936041" lon="9.125170363113284">
        <ele>459.24000000000001</ele>
        <time>2019-05-23T14:47:41Z</time>
      </trkpt>
      <trkpt lat="44.374924683943391" lon="9.125073133036494">
        <ele>459.83999999999997</ele>
        <time>2019-05-23T14:47:53Z</time>
      </trkpt>
      <trkpt lat="44.374825106933713" lon="9.124997947365046">
        <ele>458.75</ele>
        <time>2019-05-23T14:48:29Z</time>
      </trkpt>
      <trkpt lat="44.374823095276952" lon="9.124998282641172">
        <ele>458.57999999999998</ele>
        <time>2019-05-23T14:48:49Z</time>
      </trkpt>
      <trkpt lat="44.374803062528372" lon="9.124971712008119">
        <ele>458.88</ele>
        <time>2019-05-23T14:49:28Z</time>
      </trkpt>
      <trkpt lat="44.374746484681964" lon="9.124931981787086">
        <ele>458.52999999999997</ele>
        <time>2019-05-23T14:52:31Z</time>
      </trkpt>
      <trkpt lat="44.37470574863255" lon="9.124910272657871">
        <ele>457.38</ele>
        <time>2019-05-23T14:52:55Z</time>
      </trkpt>
      <trkpt lat="44.374643387272954" lon="9.124842211604118">
        <ele>454.38999999999999</ele>
        <time>2019-05-23T14:53:07Z</time>
      </trkpt>
      <trkpt lat="44.374577840790153" lon="9.124801391735673">
        <ele>451.24000000000001</ele>
        <time>2019-05-23T14:53:19Z</time>
      </trkpt>
      <trkpt lat="44.37452252022922" lon="9.124745149165392">
        <ele>448.08999999999997</ele>
        <time>2019-05-23T14:53:30Z</time>
      </trkpt>
      <trkpt lat="44.374446077272296" lon="9.124735677614808">
        <ele>444.94</ele>
        <time>2019-05-23T14:53:43Z</time>
      </trkpt>
      <trkpt lat="44.374370807781816" lon="9.124680943787098">
        <ele>441.77999999999997</ele>
        <time>2019-05-23T14:53:54Z</time>
      </trkpt>
      <trkpt lat="44.374282797798514" lon="9.124660827219486">
        <ele>439.73000000000002</ele>
        <time>2019-05-23T14:54:03Z</time>
      </trkpt>
      <trkpt lat="44.374194871634245" lon="9.124616319313645">
        <ele>437.37</ele>
        <time>2019-05-23T14:54:13Z</time>
      </trkpt>
      <trkpt lat="44.374177185818553" lon="9.124597879126668">
        <ele>436.44</ele>
        <time>2019-05-23T14:54:16Z</time>
      </trkpt>
      <trkpt lat="44.374138209968805" lon="9.124578516930342">
        <ele>435.38</ele>
        <time>2019-05-23T14:54:20Z</time>
      </trkpt>
      <trkpt lat="44.374036286026239" lon="9.124537026509643">
        <ele>432.18000000000001</ele>
        <time>2019-05-23T14:54:34Z</time>
      </trkpt>
      <trkpt lat="44.374027820304036" lon="9.124528476968408">
        <ele>432.12</ele>
        <time>2019-05-23T14:54:35Z</time>
      </trkpt>
      <trkpt lat="44.37393905594945" lon="9.124450692906976">
        <ele>428.80000000000001</ele>
        <time>2019-05-23T14:54:47Z</time>
      </trkpt>
      <trkpt lat="44.373923717066646" lon="9.124434934929013">
        <ele>428.35000000000002</ele>
        <time>2019-05-23T14:54:49Z</time>
      </trkpt>
      <trkpt lat="44.373831180855632" lon="9.12437466904521">
        <ele>426.57999999999998</ele>
        <time>2019-05-23T14:54:58Z</time>
      </trkpt>
      <trkpt lat="44.373722299933434" lon="9.124350110068917">
        <ele>424.87</ele>
        <time>2019-05-23T14:55:07Z</time>
      </trkpt>
      <trkpt lat="44.373609144240618" lon="9.124299148097634">
        <ele>424.85000000000002</ele>
        <time>2019-05-23T14:55:17Z</time>
      </trkpt>
      <trkpt lat="44.373575365170836" lon="9.124280121177435">
        <ele>423.13</ele>
        <time>2019-05-23T14:55:20Z</time>
      </trkpt>
      <trkpt lat="44.373414935544133" lon="9.124198649078608">
        <ele>421.72000000000003</ele>
        <time>2019-05-23T14:55:34Z</time>
      </trkpt>
      <trkpt lat="44.373252829536796" lon="9.124100664630532">
        <ele>420.17000000000002</ele>
        <time>2019-05-23T14:55:49Z</time>
      </trkpt>
      <trkpt lat="44.373160460963845" lon="9.123969320207834">
        <ele>419.69</ele>
        <time>2019-05-23T14:56:01Z</time>
      </trkpt>
      <trkpt lat="44.373042695224285" lon="9.123903941363096">
        <ele>420</ele>
        <time>2019-05-23T14:56:13Z</time>
      </trkpt>
      <trkpt lat="44.373007491230965" lon="9.123880472034216">
        <ele>419.60000000000002</ele>
        <time>2019-05-23T14:56:18Z</time>
      </trkpt>
      <trkpt lat="44.372926773503423" lon="9.123782319948077">
        <ele>419.22000000000003</ele>
        <time>2019-05-23T14:56:30Z</time>
      </trkpt>
      <trkpt lat="44.372887630015612" lon="9.123756336048245">
        <ele>419.25</ele>
        <time>2019-05-23T14:56:35Z</time>
      </trkpt>
      <trkpt lat="44.372799452394247" lon="9.123653406277299">
        <ele>418.20999999999998</ele>
        <time>2019-05-23T14:56:45Z</time>
      </trkpt>
      <trkpt lat="44.372690487653017" lon="9.12351418286562">
        <ele>417.14999999999998</ele>
        <time>2019-05-23T14:57:00Z</time>
      </trkpt>
      <trkpt lat="44.372597448527813" lon="9.123406475409865">
        <ele>415.45999999999998</ele>
        <time>2019-05-23T14:57:12Z</time>
      </trkpt>
      <trkpt lat="44.372539445757866" lon="9.12335098721087">
        <ele>415.37</ele>
        <time>2019-05-23T14:57:17Z</time>
      </trkpt>
      <trkpt lat="44.372468953952193" lon="9.123201286420226">
        <ele>412.06999999999999</ele>
        <time>2019-05-23T14:57:30Z</time>
      </trkpt>
      <trkpt lat="44.372406844049692" lon="9.12310229614377">
        <ele>408.94999999999999</ele>
        <time>2019-05-23T14:57:39Z</time>
      </trkpt>
      <trkpt lat="44.372357139363885" lon="9.123016046360135">
        <ele>406.69999999999999</ele>
        <time>2019-05-23T14:57:47Z</time>
      </trkpt>
      <trkpt lat="44.372328221797943" lon="9.122955277562141">
        <ele>405.48000000000002</ele>
        <time>2019-05-23T14:57:51Z</time>
      </trkpt>
      <trkpt lat="44.372262004762888" lon="9.122825441882014">
        <ele>402.95999999999998</ele>
        <time>2019-05-23T14:58:00Z</time>
      </trkpt>
      <trkpt lat="44.372241552919149" lon="9.122652355581522">
        <ele>399.95999999999998</ele>
        <time>2019-05-23T14:58:12Z</time>
      </trkpt>
      <trkpt lat="44.372238283976912" lon="9.12263760343194">
        <ele>399.66000000000003</ele>
        <time>2019-05-23T14:58:13Z</time>
      </trkpt>
      <trkpt lat="44.372186399996281" lon="9.122493015602231">
        <ele>396.38</ele>
        <time>2019-05-23T14:58:24Z</time>
      </trkpt>
      <trkpt lat="44.372177347540855" lon="9.122477509081364">
        <ele>393.23000000000002</ele>
        <time>2019-05-23T14:58:26Z</time>
      </trkpt>
      <trkpt lat="44.372168462723494" lon="9.122463678941131">
        <ele>396.60000000000002</ele>
        <time>2019-05-23T14:58:28Z</time>
      </trkpt>
      <trkpt lat="44.372121021151543" lon="9.122385643422604">
        <ele>393.47000000000003</ele>
        <time>2019-05-23T14:58:35Z</time>
      </trkpt>
      <trkpt lat="44.372084643691778" lon="9.122273242101073">
        <ele>390.45999999999998</ele>
        <time>2019-05-23T14:58:45Z</time>
      </trkpt>
      <trkpt lat="44.372077099978924" lon="9.122242229059339">
        <ele>389.68000000000001</ele>
        <time>2019-05-23T14:58:47Z</time>
      </trkpt>
      <trkpt lat="44.372037788853049" lon="9.122115997597575">
        <ele>387.12</ele>
        <time>2019-05-23T14:58:54Z</time>
      </trkpt>
      <trkpt lat="44.372006943449378" lon="9.122050032019615">
        <ele>385.77999999999997</ele>
        <time>2019-05-23T14:58:58Z</time>
      </trkpt>
      <trkpt lat="44.371942821890116" lon="9.121904605999589">
        <ele>382.23000000000002</ele>
        <time>2019-05-23T14:59:10Z</time>
      </trkpt>
      <trkpt lat="44.371861014515162" lon="9.121761023998261">
        <ele>382.51999999999998</ele>
        <time>2019-05-23T14:59:21Z</time>
      </trkpt>
      <trkpt lat="44.371851962059736" lon="9.121721042320132">
        <ele>382.30000000000001</ele>
        <time>2019-05-23T14:59:24Z</time>
      </trkpt>
      <trkpt lat="44.371815836057067" lon="9.121541669592261">
        <ele>379.87</ele>
        <time>2019-05-23T14:59:36Z</time>
      </trkpt>
      <trkpt lat="44.371781386435032" lon="9.121493976563215">
        <ele>379.88999999999999</ele>
        <time>2019-05-23T14:59:40Z</time>
      </trkpt>
      <trkpt lat="44.371654316782951" lon="9.121372355148196">
        <ele>380.72000000000003</ele>
        <time>2019-05-23T14:59:54Z</time>
      </trkpt>
      <trkpt lat="44.371637385338545" lon="9.121350981295109">
        <ele>380.38999999999999</ele>
        <time>2019-05-23T14:59:56Z</time>
      </trkpt>
      <trkpt lat="44.371601259335876" lon="9.121297337114811">
        <ele>379.86000000000001</ele>
        <time>2019-05-23T15:00:00Z</time>
      </trkpt>
      <trkpt lat="44.371557086706161" lon="9.12116926163435">
        <ele>376.83999999999997</ele>
        <time>2019-05-23T15:00:09Z</time>
      </trkpt>
      <trkpt lat="44.371484331786633" lon="9.121082676574588">
        <ele>373.72000000000003</ele>
        <time>2019-05-23T15:00:20Z</time>
      </trkpt>
      <trkpt lat="44.371475111693144" lon="9.121000031009316">
        <ele>370.44</ele>
        <time>2019-05-23T15:00:30Z</time>
      </trkpt>
      <trkpt lat="44.371438231319189" lon="9.120898526161909">
        <ele>367.25</ele>
        <time>2019-05-23T15:00:41Z</time>
      </trkpt>
      <trkpt lat="44.37143923714757" lon="9.120845971629024">
        <ele>365.31</ele>
        <time>2019-05-23T15:00:53Z</time>
      </trkpt>
      <trkpt lat="44.371433202177286" lon="9.120719153434038">
        <ele>362.26999999999998</ele>
        <time>2019-05-23T15:01:02Z</time>
      </trkpt>
      <trkpt lat="44.371438734233379" lon="9.120643045753241">
        <ele>359.06</ele>
        <time>2019-05-23T15:01:12Z</time>
      </trkpt>
      <trkpt lat="44.37141140922904" lon="9.120566099882126">
        <ele>355.99000000000001</ele>
        <time>2019-05-23T15:01:23Z</time>
      </trkpt>
      <trkpt lat="44.371411744505167" lon="9.120457721874118">
        <ele>352.92000000000002</ele>
        <time>2019-05-23T15:01:34Z</time>
      </trkpt>
      <trkpt lat="44.371375869959593" lon="9.120356300845742">
        <ele>350.83999999999997</ele>
        <time>2019-05-23T15:01:44Z</time>
      </trkpt>
      <trkpt lat="44.371354160830379" lon="9.12025261670351">
        <ele>347.76999999999998</ele>
        <time>2019-05-23T15:01:53Z</time>
      </trkpt>
      <trkpt lat="44.371298588812351" lon="9.120184807106853">
        <ele>344.73000000000002</ele>
        <time>2019-05-23T15:02:04Z</time>
      </trkpt>
      <trkpt lat="44.371309569105506" lon="9.120093025267124">
        <ele>341.72000000000003</ele>
        <time>2019-05-23T15:02:16Z</time>
      </trkpt>
      <trkpt lat="44.371281741186976" lon="9.120001243427396">
        <ele>338.49000000000001</ele>
        <time>2019-05-23T15:02:28Z</time>
      </trkpt>
      <trkpt lat="44.371220050379634" lon="9.119937289506197">
        <ele>335.22000000000003</ele>
        <time>2019-05-23T15:02:41Z</time>
      </trkpt>
      <trkpt lat="44.371173866093159" lon="9.119898984208703">
        <ele>332.01999999999998</ele>
        <time>2019-05-23T15:02:49Z</time>
      </trkpt>
      <trkpt lat="44.371088789775968" lon="9.119871323928237">
        <ele>329.49000000000001</ele>
        <time>2019-05-23T15:03:01Z</time>
      </trkpt>
      <trkpt lat="44.371081413701177" lon="9.119865875691176">
        <ele>329.5</ele>
        <time>2019-05-23T15:03:19Z</time>
      </trkpt>
      <trkpt lat="44.371085269376636" lon="9.119869228452444">
        <ele>329.75</ele>
        <time>2019-05-23T15:03:36Z</time>
      </trkpt>
      <trkpt lat="44.371080324053764" lon="9.119866546243429">
        <ele>329.57999999999998</ele>
        <time>2019-05-23T15:03:58Z</time>
      </trkpt>
      <trkpt lat="44.371080910786986" lon="9.119859924539924">
        <ele>329.20999999999998</ele>
        <time>2019-05-23T15:04:15Z</time>
      </trkpt>
      <trkpt lat="44.371116785332561" lon="9.119796389713883">
        <ele>328.47000000000003</ele>
        <time>2019-05-23T15:04:31Z</time>
      </trkpt>
      <trkpt lat="44.371158443391323" lon="9.119754480198026">
        <ele>328.00999999999999</ele>
        <time>2019-05-23T15:04:36Z</time>
      </trkpt>
      <trkpt lat="44.37123010866344" lon="9.119666218757629">
        <ele>326.08999999999997</ele>
        <time>2019-05-23T15:04:47Z</time>
      </trkpt>
      <trkpt lat="44.371219296008348" lon="9.119558678939939">
        <ele>323.08999999999997</ele>
        <time>2019-05-23T15:04:58Z</time>
      </trkpt>
      <trkpt lat="44.371202867478132" lon="9.119436889886856">
        <ele>319.99000000000001</ele>
        <time>2019-05-23T15:05:10Z</time>
      </trkpt>
      <trkpt lat="44.371168501675129" lon="9.119318537414074">
        <ele>316.63</ele>
        <time>2019-05-23T15:05:22Z</time>
      </trkpt>
      <trkpt lat="44.371166406199336" lon="9.119218876585364">
        <ele>313.38999999999999</ele>
        <time>2019-05-23T15:05:34Z</time>
      </trkpt>
      <trkpt lat="44.371119970455766" lon="9.11913019604981">
        <ele>310.37</ele>
        <time>2019-05-23T15:05:46Z</time>
      </trkpt>
      <trkpt lat="44.371051238849759" lon="9.11904713138938">
        <ele>306.97000000000003</ele>
        <time>2019-05-23T15:05:59Z</time>
      </trkpt>
      <trkpt lat="44.371013939380646" lon="9.118968928232789">
        <ele>303.76999999999998</ele>
        <time>2019-05-23T15:06:07Z</time>
      </trkpt>
      <trkpt lat="44.370995666831732" lon="9.118932466953993">
        <ele>302.94</ele>
        <time>2019-05-23T15:06:10Z</time>
      </trkpt>
      <trkpt lat="44.370970353484154" lon="9.118789304047823">
        <ele>300.07999999999998</ele>
        <time>2019-05-23T15:06:22Z</time>
      </trkpt>
      <trkpt lat="44.370974041521549" lon="9.118757033720613">
        <ele>299.75</ele>
        <time>2019-05-23T15:06:24Z</time>
      </trkpt>
      <trkpt lat="44.370998768135905" lon="9.118682434782386">
        <ele>298.87</ele>
        <time>2019-05-23T15:06:30Z</time>
      </trkpt>
      <trkpt lat="44.371025254949927" lon="9.118587970733643">
        <ele>297.38999999999999</ele>
        <time>2019-05-23T15:06:38Z</time>
      </trkpt>
      <trkpt lat="44.371064817532897" lon="9.118544803932309">
        <ele>296.31</ele>
        <time>2019-05-23T15:06:47Z</time>
      </trkpt>
      <trkpt lat="44.371084263548255" lon="9.118529045954347">
        <ele>296.06999999999999</ele>
        <time>2019-05-23T15:06:49Z</time>
      </trkpt>
      <trkpt lat="44.371175207197666" lon="9.118443969637156">
        <ele>293.30000000000001</ele>
        <time>2019-05-23T15:07:04Z</time>
      </trkpt>
      <trkpt lat="44.371242932975292" lon="9.118390157818794">
        <ele>290.20999999999998</ele>
        <time>2019-05-23T15:07:15Z</time>
      </trkpt>
      <trkpt lat="44.371306132525206" lon="9.118346404284239">
        <ele>286.94999999999999</ele>
        <time>2019-05-23T15:07:29Z</time>
      </trkpt>
      <trkpt lat="44.371364805847406" lon="9.118274487555027">
        <ele>283.92000000000002</ele>
        <time>2019-05-23T15:07:43Z</time>
      </trkpt>
      <trkpt lat="44.371397914364934" lon="9.118154207244515">
        <ele>282.00999999999999</ele>
        <time>2019-05-23T15:08:01Z</time>
      </trkpt>
      <trkpt lat="44.371388610452414" lon="9.118116572499275">
        <ele>281.51999999999998</ele>
        <time>2019-05-23T15:08:27Z</time>
      </trkpt>
      <trkpt lat="44.371350388973951" lon="9.118035603314638">
        <ele>280.39999999999998</ele>
        <time>2019-05-23T15:08:50Z</time>
      </trkpt>
      <trkpt lat="44.371317615732551" lon="9.11794038489461">
        <ele>278.63999999999999</ele>
        <time>2019-05-23T15:09:01Z</time>
      </trkpt>
      <trkpt lat="44.371353490278125" lon="9.117914736270905">
        <ele>276.56999999999999</ele>
        <time>2019-05-23T15:09:08Z</time>
      </trkpt>
      <trkpt lat="44.371386598795652" lon="9.117906102910638">
        <ele>275.36000000000001</ele>
        <time>2019-05-23T15:09:12Z</time>
      </trkpt>
      <trkpt lat="44.371360028162599" lon="9.1178372874856">
        <ele>274.76999999999998</ele>
        <time>2019-05-23T15:09:17Z</time>
      </trkpt>
      <trkpt lat="44.371313843876123" lon="9.117663782089949">
        <ele>272.61000000000001</ele>
        <time>2019-05-23T15:09:29Z</time>
      </trkpt>
      <trkpt lat="44.371305210515857" lon="9.117610892280936">
        <ele>271.45999999999998</ele>
        <time>2019-05-23T15:09:33Z</time>
      </trkpt>
      <trkpt lat="44.371301187202334" lon="9.117430597543716">
        <ele>272</ele>
        <time>2019-05-23T15:09:45Z</time>
      </trkpt>
      <trkpt lat="44.371301690116525" lon="9.117387598380446">
        <ele>272</ele>
        <time>2019-05-23T15:09:48Z</time>
      </trkpt>
      <trkpt lat="44.37128534540534" lon="9.117226246744394">
        <ele>268.73000000000002</ele>
        <time>2019-05-23T15:09:56Z</time>
      </trkpt>
      <trkpt lat="44.371284758672118" lon="9.117212416604161">
        <ele>268.52999999999997</ele>
        <time>2019-05-23T15:09:57Z</time>
      </trkpt>
      <trkpt lat="44.371258355677128" lon="9.117013765498996">
        <ele>266.56</ele>
        <time>2019-05-23T15:10:09Z</time>
      </trkpt>
      <trkpt lat="44.371235640719533" lon="9.116932628676295">
        <ele>265.47000000000003</ele>
        <time>2019-05-23T15:10:15Z</time>
      </trkpt>
      <trkpt lat="44.371208734810352" lon="9.116810001432896">
        <ele>264.5</ele>
        <time>2019-05-23T15:10:21Z</time>
      </trkpt>
      <trkpt lat="44.371164729818702" lon="9.116565082222223">
        <ele>261.56999999999999</ele>
        <time>2019-05-23T15:10:35Z</time>
      </trkpt>
      <trkpt lat="44.371140589937568" lon="9.116350254043937">
        <ele>258.45999999999998</ele>
        <time>2019-05-23T15:10:48Z</time>
      </trkpt>
      <trkpt lat="44.371079485863447" lon="9.11614908836782">
        <ele>255.43000000000001</ele>
        <time>2019-05-23T15:11:02Z</time>
      </trkpt>
      <trkpt lat="44.371040090918541" lon="9.115912970155478">
        <ele>252.59</ele>
        <time>2019-05-23T15:11:17Z</time>
      </trkpt>
      <trkpt lat="44.371086526662111" lon="9.115825966000557">
        <ele>251.63</ele>
        <time>2019-05-23T15:11:31Z</time>
      </trkpt>
      <trkpt lat="44.371074791997671" lon="9.115816662088037">
        <ele>251.27000000000001</ele>
        <time>2019-05-23T15:12:06Z</time>
      </trkpt>
      <trkpt lat="44.371074121445417" lon="9.11579336039722">
        <ele>250.55000000000001</ele>
        <time>2019-05-23T15:12:25Z</time>
      </trkpt>
      <trkpt lat="44.371041432023048" lon="9.11554173566401">
        <ele>249.34</ele>
        <time>2019-05-23T15:13:15Z</time>
      </trkpt>
      <trkpt lat="44.371043108403683" lon="9.11548993550241">
        <ele>249.27000000000001</ele>
        <time>2019-05-23T15:13:42Z</time>
      </trkpt>
      <trkpt lat="44.371046628803015" lon="9.115490354597569">
        <ele>249.25</ele>
        <time>2019-05-23T15:14:02Z</time>
      </trkpt>
      <trkpt lat="44.37104788608849" lon="9.115491695702076">
        <ele>249.94</ele>
        <time>2019-05-23T15:14:04Z</time>
      </trkpt>
      <trkpt lat="44.371049143373966" lon="9.115491611883044">
        <ele>248.97999999999999</ele>
        <time>2019-05-23T15:14:20Z</time>
      </trkpt>
      <trkpt lat="44.371043024584651" lon="9.115472082048655">
        <ele>249.44</ele>
        <time>2019-05-23T15:14:31Z</time>
      </trkpt>
      <trkpt lat="44.371006395667791" lon="9.115246776491404">
        <ele>246.69999999999999</ele>
        <time>2019-05-23T15:14:47Z</time>
      </trkpt>
      <trkpt lat="44.371048975735903" lon="9.115082155913115">
        <ele>244.46000000000001</ele>
        <time>2019-05-23T15:14:58Z</time>
      </trkpt>
      <trkpt lat="44.371086861938238" lon="9.114854000508785">
        <ele>241.81</ele>
        <time>2019-05-23T15:15:12Z</time>
      </trkpt>
      <trkpt lat="44.371119551360607" lon="9.114674460142851">
        <ele>238.78999999999999</ele>
        <time>2019-05-23T15:15:24Z</time>
      </trkpt>
      <trkpt lat="44.371159700676799" lon="9.11444865167141">
        <ele>235.33000000000001</ele>
        <time>2019-05-23T15:15:38Z</time>
      </trkpt>
      <trkpt lat="44.371169088408351" lon="9.114227201789618">
        <ele>234.58000000000001</ele>
        <time>2019-05-23T15:15:50Z</time>
      </trkpt>
      <trkpt lat="44.371152743697166" lon="9.114161906763911">
        <ele>234.05000000000001</ele>
        <time>2019-05-23T15:15:54Z</time>
      </trkpt>
      <trkpt lat="44.371177051216364" lon="9.113923273980618">
        <ele>233.87</ele>
        <time>2019-05-23T15:16:07Z</time>
      </trkpt>
      <trkpt lat="44.371207309886813" lon="9.113769382238388">
        <ele>234</ele>
        <time>2019-05-23T15:16:17Z</time>
      </trkpt>
      <trkpt lat="44.371250560507178" lon="9.113572742789984">
        <ele>232.62</ele>
        <time>2019-05-23T15:16:29Z</time>
      </trkpt>
      <trkpt lat="44.371257852762938" lon="9.113452211022377">
        <ele>224.84999999999999</ele>
        <time>2019-05-23T15:16:36Z</time>
      </trkpt>
      <trkpt lat="44.371258523315191" lon="9.113440057262778">
        <ele>231.43000000000001</ele>
        <time>2019-05-23T15:16:37Z</time>
      </trkpt>
      <trkpt lat="44.371262798085809" lon="9.113394375890493">
        <ele>229.44999999999999</ele>
        <time>2019-05-23T15:16:41Z</time>
      </trkpt>
      <trkpt lat="44.371272269636393" lon="9.113156832754612">
        <ele>226.97</ele>
        <time>2019-05-23T15:16:55Z</time>
      </trkpt>
      <trkpt lat="44.371260870248079" lon="9.112937143072486">
        <ele>223.94</ele>
        <time>2019-05-23T15:17:06Z</time>
      </trkpt>
      <trkpt lat="44.371252404525876" lon="9.11277512088418">
        <ele>220.28999999999999</ele>
        <time>2019-05-23T15:17:17Z</time>
      </trkpt>
      <trkpt lat="44.371253997087479" lon="9.112761458382011">
        <ele>219.99000000000001</ele>
        <time>2019-05-23T15:17:18Z</time>
      </trkpt>
      <trkpt lat="44.371267575770617" lon="9.112551156431437">
        <ele>216.56</ele>
        <time>2019-05-23T15:17:30Z</time>
      </trkpt>
      <trkpt lat="44.371260786429048" lon="9.112336076796055">
        <ele>213.31999999999999</ele>
        <time>2019-05-23T15:17:41Z</time>
      </trkpt>
      <trkpt lat="44.371251817792654" lon="9.112173048779368">
        <ele>210.06999999999999</ele>
        <time>2019-05-23T15:17:51Z</time>
      </trkpt>
      <trkpt lat="44.37123840674758" lon="9.11204312928021">
        <ele>206.99000000000001</ele>
        <time>2019-05-23T15:18:01Z</time>
      </trkpt>
      <trkpt lat="44.371222816407681" lon="9.111923016607761">
        <ele>203.91</ele>
        <time>2019-05-23T15:18:09Z</time>
      </trkpt>
      <trkpt lat="44.371208818629384" lon="9.111797539517283">
        <ele>200.56999999999999</ele>
        <time>2019-05-23T15:18:17Z</time>
      </trkpt>
      <trkpt lat="44.37120471149683" lon="9.111676504835486">
        <ele>197.43000000000001</ele>
        <time>2019-05-23T15:18:25Z</time>
      </trkpt>
      <trkpt lat="44.371207812801003" lon="9.111582711338997">
        <ele>194.38</ele>
        <time>2019-05-23T15:18:32Z</time>
      </trkpt>
      <trkpt lat="44.371215607970953" lon="9.111461257562041">
        <ele>191.33000000000001</ele>
        <time>2019-05-23T15:18:40Z</time>
      </trkpt>
      <trkpt lat="44.371226085349917" lon="9.111317172646523">
        <ele>188.19</ele>
        <time>2019-05-23T15:18:48Z</time>
      </trkpt>
      <trkpt lat="44.371244190260768" lon="9.111106283962727">
        <ele>185.16</ele>
        <time>2019-05-23T15:19:01Z</time>
      </trkpt>
      <trkpt lat="44.371257768943906" lon="9.111075354740024">
        <ele>184.59999999999999</ele>
        <time>2019-05-23T15:19:03Z</time>
      </trkpt>
      <trkpt lat="44.371269168332219" lon="9.111005449667573">
        <ele>183.81999999999999</ele>
        <time>2019-05-23T15:19:07Z</time>
      </trkpt>
      <trkpt lat="44.371318370103836" lon="9.110700096935034">
        <ele>180.47999999999999</ele>
        <time>2019-05-23T15:19:24Z</time>
      </trkpt>
      <trkpt lat="44.371382826939225" lon="9.110393738374114">
        <ele>177.34</ele>
        <time>2019-05-23T15:19:41Z</time>
      </trkpt>
      <trkpt lat="44.371445523574948" lon="9.110146556049585">
        <ele>174.16999999999999</ele>
        <time>2019-05-23T15:19:56Z</time>
      </trkpt>
      <trkpt lat="44.371511489152908" lon="9.109951928257942">
        <ele>171.34999999999999</ele>
        <time>2019-05-23T15:20:10Z</time>
      </trkpt>
      <trkpt lat="44.371509980410337" lon="9.109943965449929">
        <ele>171.34999999999999</ele>
        <time>2019-05-23T15:20:14Z</time>
      </trkpt>
      <trkpt lat="44.371526325121522" lon="9.109881520271301">
        <ele>170.58000000000001</ele>
        <time>2019-05-23T15:20:18Z</time>
      </trkpt>
      <trkpt lat="44.371582316234708" lon="9.109674403443933">
        <ele>167.74000000000001</ele>
        <time>2019-05-23T15:20:31Z</time>
      </trkpt>
      <trkpt lat="44.371638055890799" lon="9.109406685456634">
        <ele>164.74000000000001</ele>
        <time>2019-05-23T15:20:46Z</time>
      </trkpt>
      <trkpt lat="44.371674349531531" lon="9.109225636348128">
        <ele>162.69</ele>
        <time>2019-05-23T15:20:57Z</time>
      </trkpt>
      <trkpt lat="44.371704859659076" lon="9.109054645523429">
        <ele>161.11000000000001</ele>
        <time>2019-05-23T15:21:07Z</time>
      </trkpt>
      <trkpt lat="44.371712487190962" lon="9.109013574197888">
        <ele>160.19</ele>
        <time>2019-05-23T15:21:10Z</time>
      </trkpt>
      <trkpt lat="44.371724305674434" lon="9.108916260302067">
        <ele>158.96000000000001</ele>
        <time>2019-05-23T15:21:16Z</time>
      </trkpt>
      <trkpt lat="44.371734531596303" lon="9.108748119324446">
        <ele>155.52000000000001</ele>
        <time>2019-05-23T15:21:26Z</time>
      </trkpt>
      <trkpt lat="44.371745092794299" lon="9.108586348593235">
        <ele>152.40000000000001</ele>
        <time>2019-05-23T15:21:36Z</time>
      </trkpt>
      <trkpt lat="44.371746685355902" lon="9.108504876494408">
        <ele>150.24000000000001</ele>
        <time>2019-05-23T15:21:42Z</time>
      </trkpt>
      <trkpt lat="44.371750541031361" lon="9.108422817662358">
        <ele>147.53999999999999</ele>
        <time>2019-05-23T15:21:49Z</time>
      </trkpt>
      <trkpt lat="44.371749451383948" lon="9.108397252857685">
        <ele>146.69999999999999</ele>
        <time>2019-05-23T15:21:51Z</time>
      </trkpt>
      <trkpt lat="44.371739057824016" lon="9.108337825164199">
        <ele>144.78999999999999</ele>
        <time>2019-05-23T15:21:55Z</time>
      </trkpt>
      <trkpt lat="44.371741069480777" lon="9.108201032504439">
        <ele>140.94999999999999</ele>
        <time>2019-05-23T15:22:04Z</time>
      </trkpt>
      <trkpt lat="44.37175833620131" lon="9.108059294521809">
        <ele>138.06999999999999</ele>
        <time>2019-05-23T15:22:12Z</time>
      </trkpt>
      <trkpt lat="44.371750792488456" lon="9.107909174636006">
        <ele>134.43000000000001</ele>
        <time>2019-05-23T15:22:22Z</time>
      </trkpt>
      <trkpt lat="44.371750792488456" lon="9.107770370319486">
        <ele>131.38999999999999</ele>
        <time>2019-05-23T15:22:33Z</time>
      </trkpt>
      <trkpt lat="44.371763868257403" lon="9.107625698670745">
        <ele>128.08000000000001</ele>
        <time>2019-05-23T15:22:44Z</time>
      </trkpt>
      <trkpt lat="44.371771495789289" lon="9.107529222965241">
        <ele>126.23999999999999</ele>
        <time>2019-05-23T15:22:56Z</time>
      </trkpt>
      <trkpt lat="44.371789852157235" lon="9.107386898249388">
        <ele>123.23</ele>
        <time>2019-05-23T15:23:06Z</time>
      </trkpt>
      <trkpt lat="44.371788846328855" lon="9.107258822768927">
        <ele>120.04000000000001</ele>
        <time>2019-05-23T15:23:15Z</time>
      </trkpt>
      <trkpt lat="44.371792450547218" lon="9.107169639319181">
        <ele>118.15000000000001</ele>
        <time>2019-05-23T15:23:22Z</time>
      </trkpt>
      <trkpt lat="44.371793204918504" lon="9.107016837224364">
        <ele>114.43000000000001</ele>
        <time>2019-05-23T15:23:33Z</time>
      </trkpt>
      <trkpt lat="44.371788678690791" lon="9.10691105760634">
        <ele>111.38</ele>
        <time>2019-05-23T15:23:41Z</time>
      </trkpt>
      <trkpt lat="44.37178666703403" lon="9.106792537495494">
        <ele>108.33</ele>
        <time>2019-05-23T15:23:51Z</time>
      </trkpt>
      <trkpt lat="44.371778704226017" lon="9.106667228043079">
        <ele>104.73</ele>
        <time>2019-05-23T15:24:02Z</time>
      </trkpt>
      <trkpt lat="44.371793121099472" lon="9.106574691832066">
        <ele>101.88</ele>
        <time>2019-05-23T15:24:14Z</time>
      </trkpt>
      <trkpt lat="44.3717260658741" lon="9.106507888063788">
        <ele>98.829999999999998</ele>
        <time>2019-05-23T15:24:25Z</time>
      </trkpt>
      <trkpt lat="44.371708463877439" lon="9.106401773169637">
        <ele>95.790000000000006</ele>
        <time>2019-05-23T15:24:34Z</time>
      </trkpt>
      <trkpt lat="44.371690526604652" lon="9.106291551142931">
        <ele>92.569999999999993</ele>
        <time>2019-05-23T15:24:44Z</time>
      </trkpt>
      <trkpt lat="44.371725143864751" lon="9.10620697773993">
        <ele>89.359999999999999</ele>
        <time>2019-05-23T15:24:55Z</time>
      </trkpt>
      <trkpt lat="44.371711229905486" lon="9.106129193678498">
        <ele>86.590000000000003</ele>
        <time>2019-05-23T15:25:04Z</time>
      </trkpt>
      <trkpt lat="44.371661944314837" lon="9.106063898652792">
        <ele>83.780000000000001</ele>
        <time>2019-05-23T15:25:13Z</time>
      </trkpt>
      <trkpt lat="44.371624896302819" lon="9.105975218117237">
        <ele>80.480000000000004</ele>
        <time>2019-05-23T15:25:22Z</time>
      </trkpt>
      <trkpt lat="44.371609557420015" lon="9.105892488732934">
        <ele>77.099999999999994</ele>
        <time>2019-05-23T15:25:31Z</time>
      </trkpt>
      <trkpt lat="44.371595978736877" lon="9.105815039947629">
        <ele>74.049999999999997</ele>
        <time>2019-05-23T15:25:40Z</time>
      </trkpt>
      <trkpt lat="44.371566474437714" lon="9.10579651594162">
        <ele>72.099999999999994</ele>
        <time>2019-05-23T15:25:45Z</time>
      </trkpt>
      <trkpt lat="44.371527917683125" lon="9.105729544535279">
        <ele>68.829999999999998</ele>
        <time>2019-05-23T15:25:55Z</time>
      </trkpt>
      <trkpt lat="44.371498161926866" lon="9.105685874819756">
        <ele>67.140000000000001</ele>
        <time>2019-05-23T15:26:01Z</time>
      </trkpt>
      <trkpt lat="44.37142021022737" lon="9.105626111850143">
        <ele>63.810000000000002</ele>
        <time>2019-05-23T15:26:12Z</time>
      </trkpt>
      <trkpt lat="44.371376121416688" lon="9.10554145462811">
        <ele>60.740000000000002</ele>
        <time>2019-05-23T15:26:22Z</time>
      </trkpt>
      <trkpt lat="44.371342845261097" lon="9.105466939508915">
        <ele>57.520000000000003</ele>
        <time>2019-05-23T15:26:32Z</time>
      </trkpt>
      <trkpt lat="44.371289201080799" lon="9.105383539572358">
        <ele>54.399999999999999</ele>
        <time>2019-05-23T15:26:43Z</time>
      </trkpt>
      <trkpt lat="44.371250309050083" lon="9.105304665863514">
        <ele>50.979999999999997</ele>
        <time>2019-05-23T15:26:55Z</time>
      </trkpt>
      <trkpt lat="44.371223738417029" lon="9.10522336140275">
        <ele>47.859999999999999</ele>
        <time>2019-05-23T15:27:06Z</time>
      </trkpt>
      <trkpt lat="44.371198257431388" lon="9.1051378659904">
        <ele>44.770000000000003</ele>
        <time>2019-05-23T15:27:18Z</time>
      </trkpt>
      <trkpt lat="44.371166909113526" lon="9.105050107464194">
        <ele>41.560000000000002</ele>
        <time>2019-05-23T15:27:29Z</time>
      </trkpt>
      <trkpt lat="44.371133297681808" lon="9.104966288432479">
        <ele>38.460000000000001</ele>
        <time>2019-05-23T15:27:40Z</time>
      </trkpt>
      <trkpt lat="44.371105218306184" lon="9.104871405288577">
        <ele>35.450000000000003</ele>
        <time>2019-05-23T15:27:51Z</time>
      </trkpt>
      <trkpt lat="44.37108208425343" lon="9.104790268465877">
        <ele>32.210000000000001</ele>
        <time>2019-05-23T15:28:02Z</time>
      </trkpt>
      <trkpt lat="44.371080910786986" lon="9.10476453602314">
        <ele>32.049999999999997</ele>
        <time>2019-05-23T15:28:14Z</time>
      </trkpt>
      <trkpt lat="44.371042605489492" lon="9.104765122756362">
        <ele>31.219999999999999</ele>
        <time>2019-05-23T15:28:21Z</time>
      </trkpt>
      <trkpt lat="44.370924420654774" lon="9.104837542399764">
        <ele>31.489999999999998</ele>
        <time>2019-05-23T15:28:37Z</time>
      </trkpt>
      <trkpt lat="44.370905142277479" lon="9.104886408895254">
        <ele>32.030000000000001</ele>
        <time>2019-05-23T15:28:50Z</time>
      </trkpt>
      <trkpt lat="44.370918972417712" lon="9.104872914031148">
        <ele>32.109999999999999</ele>
        <time>2019-05-23T15:29:01Z</time>
      </trkpt>
      <trkpt lat="44.370881840586662" lon="9.104881212115288">
        <ele>32.450000000000003</ele>
        <time>2019-05-23T15:29:11Z</time>
      </trkpt>
      <trkpt lat="44.370830208063126" lon="9.104912811890245">
        <ele>30.68</ele>
        <time>2019-05-23T15:29:21Z</time>
      </trkpt>
      <trkpt lat="44.370758710429072" lon="9.104988919571042">
        <ele>27.68</ele>
        <time>2019-05-23T15:29:34Z</time>
      </trkpt>
      <trkpt lat="44.37072241678834" lon="9.105008784681559">
        <ele>26.390000000000001</ele>
        <time>2019-05-23T15:29:46Z</time>
      </trkpt>
      <trkpt lat="44.370710598304868" lon="9.105000989511609">
        <ele>26.469999999999999</ele>
        <time>2019-05-23T15:30:08Z</time>
      </trkpt>
      <trkpt lat="44.37070095911622" lon="9.105000318959355">
        <ele>26.539999999999999</ele>
        <time>2019-05-23T15:30:30Z</time>
      </trkpt>
      <trkpt lat="44.370683273300529" lon="9.104982214048505">
        <ele>26.739999999999998</ele>
        <time>2019-05-23T15:30:43Z</time>
      </trkpt>
      <trkpt lat="44.370647314935923" lon="9.104928318411112">
        <ele>26.68</ele>
        <time>2019-05-23T15:30:47Z</time>
      </trkpt>
      <trkpt lat="44.370622672140598" lon="9.104938125237823">
        <ele>27.09</ele>
        <time>2019-05-23T15:30:50Z</time>
      </trkpt>
      <trkpt lat="44.370523765683174" lon="9.105124622583389">
        <ele>28.140000000000001</ele>
        <time>2019-05-23T15:31:05Z</time>
      </trkpt>
      <trkpt lat="44.370378004387021" lon="9.105267450213432">
        <ele>27.629999999999999</ele>
        <time>2019-05-23T15:31:22Z</time>
      </trkpt>
      <trkpt lat="44.370210785418749" lon="9.105393681675196">
        <ele>25.600000000000001</ele>
        <time>2019-05-23T15:31:38Z</time>
      </trkpt>
      <trkpt lat="44.370075166225433" lon="9.105482865124941">
        <ele>24.100000000000001</ele>
        <time>2019-05-23T15:31:52Z</time>
      </trkpt>
      <trkpt lat="44.369946336373687" lon="9.105533240363002">
        <ele>22.620000000000001</ele>
        <time>2019-05-23T15:32:03Z</time>
      </trkpt>
    </trkseg>
  </trk>

</gpx>